<?xml version="1.0" encoding="UTF-8" standalone="no" ?>
<gpx xmlns="http://www.topografix.com/GPX/1/1" xmlns:xsi="http://www.w3.org/2001/XMLSchema-instance" xsi:schemaLocation="http://www.topografix.com/GPX/1/1 http://www.topografix.com/GPX/1/1/gpx.xsd" version="1.1" creator="VisuGPX - https://www.visugpx.com">
  <metadata>
    <name>62 km cyclo</name>
    <desc><![CDATA[zzzzzzzzzzzzzzzzzzzzzzzzzzzzzzzzzzzzzzzzzzzzzzzzzzzzzzzzzzzz]]></desc>
  </metadata>
  <trk>
    <name><![CDATA[180626102108]]></name>
    <trkseg>
      <trkpt lat="50.61148" lon="3.0741">
        <ele>-28.8</ele>
        <time>2018-06-26T08:21:29Z</time>
      </trkpt>
      <trkpt lat="50.61155" lon="3.07416">
        <ele>-28.4</ele>
        <time>2018-06-26T08:21:33Z</time>
      </trkpt>
      <trkpt lat="50.61163" lon="3.07425">
        <ele>-28.4</ele>
        <time>2018-06-26T08:21:37Z</time>
      </trkpt>
      <trkpt lat="50.61174" lon="3.07433">
        <ele>-28.2</ele>
        <time>2018-06-26T08:21:41Z</time>
      </trkpt>
      <trkpt lat="50.61183" lon="3.07441">
        <ele>-28</ele>
        <time>2018-06-26T08:21:45Z</time>
      </trkpt>
      <trkpt lat="50.61191" lon="3.07449">
        <ele>-28.2</ele>
        <time>2018-06-26T08:21:49Z</time>
      </trkpt>
      <trkpt lat="50.612" lon="3.07459">
        <ele>-28.6</ele>
        <time>2018-06-26T08:21:53Z</time>
      </trkpt>
      <trkpt lat="50.61204" lon="3.07473">
        <ele>-28.2</ele>
        <time>2018-06-26T08:21:57Z</time>
      </trkpt>
      <trkpt lat="50.61203" lon="3.07484">
        <ele>-28.8</ele>
        <time>2018-06-26T08:22:01Z</time>
      </trkpt>
      <trkpt lat="50.61203" lon="3.07484">
        <ele>-29</ele>
        <time>2018-06-26T08:22:05Z</time>
      </trkpt>
      <trkpt lat="50.61203" lon="3.07484">
        <ele>-29</ele>
        <time>2018-06-26T08:22:09Z</time>
      </trkpt>
      <trkpt lat="50.61206" lon="3.07489">
        <ele>-28.8</ele>
        <time>2018-06-26T08:22:13Z</time>
      </trkpt>
      <trkpt lat="50.61204" lon="3.07501">
        <ele>-28.8</ele>
        <time>2018-06-26T08:22:17Z</time>
      </trkpt>
      <trkpt lat="50.61203" lon="3.07514">
        <ele>-28.8</ele>
        <time>2018-06-26T08:22:21Z</time>
      </trkpt>
      <trkpt lat="50.61202" lon="3.07526">
        <ele>-28.2</ele>
        <time>2018-06-26T08:22:25Z</time>
      </trkpt>
      <trkpt lat="50.61196" lon="3.07539">
        <ele>-27.6</ele>
        <time>2018-06-26T08:22:29Z</time>
      </trkpt>
      <trkpt lat="50.61191" lon="3.07555">
        <ele>-27.4</ele>
        <time>2018-06-26T08:22:33Z</time>
      </trkpt>
      <trkpt lat="50.61187" lon="3.07571">
        <ele>-26.8</ele>
        <time>2018-06-26T08:22:37Z</time>
      </trkpt>
      <trkpt lat="50.61182" lon="3.07588">
        <ele>-26.8</ele>
        <time>2018-06-26T08:22:41Z</time>
      </trkpt>
      <trkpt lat="50.61176" lon="3.07605">
        <ele>-26.8</ele>
        <time>2018-06-26T08:22:45Z</time>
      </trkpt>
      <trkpt lat="50.6117" lon="3.07624">
        <ele>-26.4</ele>
        <time>2018-06-26T08:22:49Z</time>
      </trkpt>
      <trkpt lat="50.61163" lon="3.07645">
        <ele>-26.2</ele>
        <time>2018-06-26T08:22:53Z</time>
      </trkpt>
      <trkpt lat="50.61158" lon="3.07665">
        <ele>-25.8</ele>
        <time>2018-06-26T08:22:57Z</time>
      </trkpt>
      <trkpt lat="50.61153" lon="3.07684">
        <ele>-25.4</ele>
        <time>2018-06-26T08:23:01Z</time>
      </trkpt>
      <trkpt lat="50.61148" lon="3.07703">
        <ele>-25.2</ele>
        <time>2018-06-26T08:23:05Z</time>
      </trkpt>
      <trkpt lat="50.61144" lon="3.07722">
        <ele>-24.8</ele>
        <time>2018-06-26T08:23:09Z</time>
      </trkpt>
      <trkpt lat="50.6114" lon="3.07744">
        <ele>-24.6</ele>
        <time>2018-06-26T08:23:13Z</time>
      </trkpt>
      <trkpt lat="50.61136" lon="3.07767">
        <ele>-25</ele>
        <time>2018-06-26T08:23:17Z</time>
      </trkpt>
      <trkpt lat="50.61133" lon="3.07788">
        <ele>-24.4</ele>
        <time>2018-06-26T08:23:21Z</time>
      </trkpt>
      <trkpt lat="50.61129" lon="3.07805">
        <ele>-24.2</ele>
        <time>2018-06-26T08:23:25Z</time>
      </trkpt>
      <trkpt lat="50.61129" lon="3.07822">
        <ele>-24.2</ele>
        <time>2018-06-26T08:23:29Z</time>
      </trkpt>
      <trkpt lat="50.61125" lon="3.07842">
        <ele>-23.8</ele>
        <time>2018-06-26T08:23:33Z</time>
      </trkpt>
      <trkpt lat="50.61123" lon="3.07863">
        <ele>-23.6</ele>
        <time>2018-06-26T08:23:37Z</time>
      </trkpt>
      <trkpt lat="50.61121" lon="3.07885">
        <ele>-23.2</ele>
        <time>2018-06-26T08:23:41Z</time>
      </trkpt>
      <trkpt lat="50.61118" lon="3.07908">
        <ele>-23</ele>
        <time>2018-06-26T08:23:45Z</time>
      </trkpt>
      <trkpt lat="50.61116" lon="3.07929">
        <ele>-22.8</ele>
        <time>2018-06-26T08:23:49Z</time>
      </trkpt>
      <trkpt lat="50.61116" lon="3.07952">
        <ele>-22.6</ele>
        <time>2018-06-26T08:23:53Z</time>
      </trkpt>
      <trkpt lat="50.61114" lon="3.07974">
        <ele>-22.6</ele>
        <time>2018-06-26T08:23:57Z</time>
      </trkpt>
      <trkpt lat="50.61113" lon="3.07997">
        <ele>-22.8</ele>
        <time>2018-06-26T08:24:01Z</time>
      </trkpt>
      <trkpt lat="50.61112" lon="3.0801">
        <ele>-22.6</ele>
        <time>2018-06-26T08:24:05Z</time>
      </trkpt>
      <trkpt lat="50.61111" lon="3.08028">
        <ele>-22.8</ele>
        <time>2018-06-26T08:24:09Z</time>
      </trkpt>
      <trkpt lat="50.6111" lon="3.08051">
        <ele>-23</ele>
        <time>2018-06-26T08:24:13Z</time>
      </trkpt>
      <trkpt lat="50.6111" lon="3.08075">
        <ele>-23.2</ele>
        <time>2018-06-26T08:24:17Z</time>
      </trkpt>
      <trkpt lat="50.61106" lon="3.08099">
        <ele>-23.4</ele>
        <time>2018-06-26T08:24:21Z</time>
      </trkpt>
      <trkpt lat="50.61099" lon="3.08124">
        <ele>-22.8</ele>
        <time>2018-06-26T08:24:25Z</time>
      </trkpt>
      <trkpt lat="50.61091" lon="3.0815">
        <ele>-22.4</ele>
        <time>2018-06-26T08:24:29Z</time>
      </trkpt>
      <trkpt lat="50.61083" lon="3.08176">
        <ele>-22.4</ele>
        <time>2018-06-26T08:24:33Z</time>
      </trkpt>
      <trkpt lat="50.61075" lon="3.08202">
        <ele>-22.4</ele>
        <time>2018-06-26T08:24:37Z</time>
      </trkpt>
      <trkpt lat="50.61067" lon="3.08232">
        <ele>-22.6</ele>
        <time>2018-06-26T08:24:41Z</time>
      </trkpt>
      <trkpt lat="50.61059" lon="3.08262">
        <ele>-22.6</ele>
        <time>2018-06-26T08:24:45Z</time>
      </trkpt>
      <trkpt lat="50.61054" lon="3.08294">
        <ele>-22.8</ele>
        <time>2018-06-26T08:24:49Z</time>
      </trkpt>
      <trkpt lat="50.61047" lon="3.08327">
        <ele>-23.4</ele>
        <time>2018-06-26T08:24:53Z</time>
      </trkpt>
      <trkpt lat="50.61042" lon="3.0836">
        <ele>-23.6</ele>
        <time>2018-06-26T08:24:57Z</time>
      </trkpt>
      <trkpt lat="50.61036" lon="3.08394">
        <ele>-23.4</ele>
        <time>2018-06-26T08:25:01Z</time>
      </trkpt>
      <trkpt lat="50.6103" lon="3.08428">
        <ele>-24.2</ele>
        <time>2018-06-26T08:25:05Z</time>
      </trkpt>
      <trkpt lat="50.61023" lon="3.08462">
        <ele>-24.4</ele>
        <time>2018-06-26T08:25:09Z</time>
      </trkpt>
      <trkpt lat="50.61017" lon="3.08495">
        <ele>-24.6</ele>
        <time>2018-06-26T08:25:13Z</time>
      </trkpt>
      <trkpt lat="50.6101" lon="3.08527">
        <ele>-24.4</ele>
        <time>2018-06-26T08:25:17Z</time>
      </trkpt>
      <trkpt lat="50.61004" lon="3.08557">
        <ele>-24.6</ele>
        <time>2018-06-26T08:25:21Z</time>
      </trkpt>
      <trkpt lat="50.60998" lon="3.08589">
        <ele>-24.6</ele>
        <time>2018-06-26T08:25:25Z</time>
      </trkpt>
      <trkpt lat="50.60993" lon="3.08619">
        <ele>-24.2</ele>
        <time>2018-06-26T08:25:29Z</time>
      </trkpt>
      <trkpt lat="50.60978" lon="3.08647">
        <ele>-24.2</ele>
        <time>2018-06-26T08:25:33Z</time>
      </trkpt>
      <trkpt lat="50.60965" lon="3.08666">
        <ele>-23.8</ele>
        <time>2018-06-26T08:25:37Z</time>
      </trkpt>
      <trkpt lat="50.60955" lon="3.0869">
        <ele>-24</ele>
        <time>2018-06-26T08:25:41Z</time>
      </trkpt>
      <trkpt lat="50.60947" lon="3.08713">
        <ele>-23.8</ele>
        <time>2018-06-26T08:25:45Z</time>
      </trkpt>
      <trkpt lat="50.60943" lon="3.08739">
        <ele>-23.8</ele>
        <time>2018-06-26T08:25:49Z</time>
      </trkpt>
      <trkpt lat="50.60941" lon="3.08766">
        <ele>-24</ele>
        <time>2018-06-26T08:25:53Z</time>
      </trkpt>
      <trkpt lat="50.60942" lon="3.08795">
        <ele>-24.6</ele>
        <time>2018-06-26T08:25:57Z</time>
      </trkpt>
      <trkpt lat="50.60939" lon="3.08819">
        <ele>-24.4</ele>
        <time>2018-06-26T08:26:01Z</time>
      </trkpt>
      <trkpt lat="50.60942" lon="3.08838">
        <ele>-24.6</ele>
        <time>2018-06-26T08:26:05Z</time>
      </trkpt>
      <trkpt lat="50.60945" lon="3.0886">
        <ele>-24.2</ele>
        <time>2018-06-26T08:26:09Z</time>
      </trkpt>
      <trkpt lat="50.60949" lon="3.08881">
        <ele>-23.8</ele>
        <time>2018-06-26T08:26:13Z</time>
      </trkpt>
      <trkpt lat="50.6095" lon="3.08902">
        <ele>-23.2</ele>
        <time>2018-06-26T08:26:17Z</time>
      </trkpt>
      <trkpt lat="50.60951" lon="3.08923">
        <ele>-23.2</ele>
        <time>2018-06-26T08:26:21Z</time>
      </trkpt>
      <trkpt lat="50.60951" lon="3.08944">
        <ele>-22.8</ele>
        <time>2018-06-26T08:26:25Z</time>
      </trkpt>
      <trkpt lat="50.6095" lon="3.08965">
        <ele>-22.6</ele>
        <time>2018-06-26T08:26:29Z</time>
      </trkpt>
      <trkpt lat="50.60947" lon="3.08988">
        <ele>-22.4</ele>
        <time>2018-06-26T08:26:33Z</time>
      </trkpt>
      <trkpt lat="50.60944" lon="3.09012">
        <ele>-22.2</ele>
        <time>2018-06-26T08:26:37Z</time>
      </trkpt>
      <trkpt lat="50.6094" lon="3.09039">
        <ele>-22</ele>
        <time>2018-06-26T08:26:41Z</time>
      </trkpt>
      <trkpt lat="50.60938" lon="3.09066">
        <ele>-22.6</ele>
        <time>2018-06-26T08:26:45Z</time>
      </trkpt>
      <trkpt lat="50.60935" lon="3.09094">
        <ele>-21.6</ele>
        <time>2018-06-26T08:26:49Z</time>
      </trkpt>
      <trkpt lat="50.60931" lon="3.09121">
        <ele>-22</ele>
        <time>2018-06-26T08:26:53Z</time>
      </trkpt>
      <trkpt lat="50.60927" lon="3.09146">
        <ele>-22</ele>
        <time>2018-06-26T08:26:57Z</time>
      </trkpt>
      <trkpt lat="50.60917" lon="3.09166">
        <ele>-22</ele>
        <time>2018-06-26T08:27:01Z</time>
      </trkpt>
      <trkpt lat="50.60905" lon="3.09183">
        <ele>-22.2</ele>
        <time>2018-06-26T08:27:05Z</time>
      </trkpt>
      <trkpt lat="50.60893" lon="3.09201">
        <ele>-22</ele>
        <time>2018-06-26T08:27:09Z</time>
      </trkpt>
      <trkpt lat="50.60878" lon="3.09219">
        <ele>-21.8</ele>
        <time>2018-06-26T08:27:13Z</time>
      </trkpt>
      <trkpt lat="50.60866" lon="3.09239">
        <ele>-22</ele>
        <time>2018-06-26T08:27:17Z</time>
      </trkpt>
      <trkpt lat="50.60856" lon="3.09259">
        <ele>-21.4</ele>
        <time>2018-06-26T08:27:21Z</time>
      </trkpt>
      <trkpt lat="50.60845" lon="3.0928">
        <ele>-20.8</ele>
        <time>2018-06-26T08:27:25Z</time>
      </trkpt>
      <trkpt lat="50.60839" lon="3.09308">
        <ele>-21.2</ele>
        <time>2018-06-26T08:27:29Z</time>
      </trkpt>
      <trkpt lat="50.60832" lon="3.09336">
        <ele>-21.4</ele>
        <time>2018-06-26T08:27:33Z</time>
      </trkpt>
      <trkpt lat="50.60824" lon="3.0936">
        <ele>-21.4</ele>
        <time>2018-06-26T08:27:37Z</time>
      </trkpt>
      <trkpt lat="50.60811" lon="3.09381">
        <ele>-21</ele>
        <time>2018-06-26T08:27:41Z</time>
      </trkpt>
      <trkpt lat="50.60798" lon="3.09396">
        <ele>-21</ele>
        <time>2018-06-26T08:27:45Z</time>
      </trkpt>
      <trkpt lat="50.60784" lon="3.09411">
        <ele>-21.2</ele>
        <time>2018-06-26T08:27:49Z</time>
      </trkpt>
      <trkpt lat="50.60771" lon="3.09428">
        <ele>-21</ele>
        <time>2018-06-26T08:27:53Z</time>
      </trkpt>
      <trkpt lat="50.60757" lon="3.09444">
        <ele>-20.6</ele>
        <time>2018-06-26T08:27:57Z</time>
      </trkpt>
      <trkpt lat="50.60743" lon="3.09456">
        <ele>-20.2</ele>
        <time>2018-06-26T08:28:01Z</time>
      </trkpt>
      <trkpt lat="50.60731" lon="3.09468">
        <ele>-20.6</ele>
        <time>2018-06-26T08:28:05Z</time>
      </trkpt>
      <trkpt lat="50.60719" lon="3.0948">
        <ele>-20.8</ele>
        <time>2018-06-26T08:28:09Z</time>
      </trkpt>
      <trkpt lat="50.60706" lon="3.09492">
        <ele>-20.6</ele>
        <time>2018-06-26T08:28:13Z</time>
      </trkpt>
      <trkpt lat="50.60693" lon="3.09503">
        <ele>-20.2</ele>
        <time>2018-06-26T08:28:17Z</time>
      </trkpt>
      <trkpt lat="50.60681" lon="3.09514">
        <ele>-20.2</ele>
        <time>2018-06-26T08:28:21Z</time>
      </trkpt>
      <trkpt lat="50.60669" lon="3.09525">
        <ele>-20.2</ele>
        <time>2018-06-26T08:28:25Z</time>
      </trkpt>
      <trkpt lat="50.60657" lon="3.09536">
        <ele>-20</ele>
        <time>2018-06-26T08:28:29Z</time>
      </trkpt>
      <trkpt lat="50.60646" lon="3.09547">
        <ele>-20</ele>
        <time>2018-06-26T08:28:33Z</time>
      </trkpt>
      <trkpt lat="50.60635" lon="3.09558">
        <ele>-20.2</ele>
        <time>2018-06-26T08:28:37Z</time>
      </trkpt>
      <trkpt lat="50.60622" lon="3.09569">
        <ele>-20.4</ele>
        <time>2018-06-26T08:28:41Z</time>
      </trkpt>
      <trkpt lat="50.60612" lon="3.09581">
        <ele>-20</ele>
        <time>2018-06-26T08:28:45Z</time>
      </trkpt>
      <trkpt lat="50.60597" lon="3.09593">
        <ele>-19.2</ele>
        <time>2018-06-26T08:28:49Z</time>
      </trkpt>
      <trkpt lat="50.60584" lon="3.09606">
        <ele>-19.2</ele>
        <time>2018-06-26T08:28:53Z</time>
      </trkpt>
      <trkpt lat="50.6057" lon="3.09618">
        <ele>-19</ele>
        <time>2018-06-26T08:28:57Z</time>
      </trkpt>
      <trkpt lat="50.60555" lon="3.0963">
        <ele>-19.4</ele>
        <time>2018-06-26T08:29:01Z</time>
      </trkpt>
      <trkpt lat="50.60543" lon="3.09643">
        <ele>-19</ele>
        <time>2018-06-26T08:29:05Z</time>
      </trkpt>
      <trkpt lat="50.6053" lon="3.09653">
        <ele>-18.8</ele>
        <time>2018-06-26T08:29:09Z</time>
      </trkpt>
      <trkpt lat="50.60515" lon="3.09665">
        <ele>-18.6</ele>
        <time>2018-06-26T08:29:13Z</time>
      </trkpt>
      <trkpt lat="50.60501" lon="3.0968">
        <ele>-18.8</ele>
        <time>2018-06-26T08:29:17Z</time>
      </trkpt>
      <trkpt lat="50.60487" lon="3.09693">
        <ele>-18.4</ele>
        <time>2018-06-26T08:29:21Z</time>
      </trkpt>
      <trkpt lat="50.60475" lon="3.09707">
        <ele>-18</ele>
        <time>2018-06-26T08:29:25Z</time>
      </trkpt>
      <trkpt lat="50.60463" lon="3.09718">
        <ele>-17.8</ele>
        <time>2018-06-26T08:29:29Z</time>
      </trkpt>
      <trkpt lat="50.6045" lon="3.0973">
        <ele>-17.6</ele>
        <time>2018-06-26T08:29:33Z</time>
      </trkpt>
      <trkpt lat="50.60436" lon="3.09742">
        <ele>-17.4</ele>
        <time>2018-06-26T08:29:37Z</time>
      </trkpt>
      <trkpt lat="50.60423" lon="3.09754">
        <ele>-17.4</ele>
        <time>2018-06-26T08:29:41Z</time>
      </trkpt>
      <trkpt lat="50.6041" lon="3.09766">
        <ele>-17</ele>
        <time>2018-06-26T08:29:45Z</time>
      </trkpt>
      <trkpt lat="50.60397" lon="3.09778">
        <ele>-16.4</ele>
        <time>2018-06-26T08:29:49Z</time>
      </trkpt>
      <trkpt lat="50.60384" lon="3.09791">
        <ele>-16</ele>
        <time>2018-06-26T08:29:53Z</time>
      </trkpt>
      <trkpt lat="50.60369" lon="3.09805">
        <ele>-16</ele>
        <time>2018-06-26T08:29:57Z</time>
      </trkpt>
      <trkpt lat="50.60354" lon="3.09818">
        <ele>-15.8</ele>
        <time>2018-06-26T08:30:01Z</time>
      </trkpt>
      <trkpt lat="50.6034" lon="3.09832">
        <ele>-15.4</ele>
        <time>2018-06-26T08:30:05Z</time>
      </trkpt>
      <trkpt lat="50.60326" lon="3.09848">
        <ele>-15.4</ele>
        <time>2018-06-26T08:30:09Z</time>
      </trkpt>
      <trkpt lat="50.60314" lon="3.09867">
        <ele>-15.2</ele>
        <time>2018-06-26T08:30:13Z</time>
      </trkpt>
      <trkpt lat="50.60303" lon="3.09885">
        <ele>-14.8</ele>
        <time>2018-06-26T08:30:17Z</time>
      </trkpt>
      <trkpt lat="50.60291" lon="3.09899">
        <ele>-15</ele>
        <time>2018-06-26T08:30:21Z</time>
      </trkpt>
      <trkpt lat="50.60278" lon="3.09911">
        <ele>-14.8</ele>
        <time>2018-06-26T08:30:25Z</time>
      </trkpt>
      <trkpt lat="50.60267" lon="3.09923">
        <ele>-14.6</ele>
        <time>2018-06-26T08:30:29Z</time>
      </trkpt>
      <trkpt lat="50.60258" lon="3.0993">
        <ele>-15.2</ele>
        <time>2018-06-26T08:30:33Z</time>
      </trkpt>
      <trkpt lat="50.60251" lon="3.09936">
        <ele>-15.6</ele>
        <time>2018-06-26T08:30:37Z</time>
      </trkpt>
      <trkpt lat="50.60244" lon="3.09942">
        <ele>-15.2</ele>
        <time>2018-06-26T08:30:41Z</time>
      </trkpt>
      <trkpt lat="50.6024" lon="3.0995">
        <ele>-15.2</ele>
        <time>2018-06-26T08:30:45Z</time>
      </trkpt>
      <trkpt lat="50.60243" lon="3.09964">
        <ele>-15.2</ele>
        <time>2018-06-26T08:30:49Z</time>
      </trkpt>
      <trkpt lat="50.60251" lon="3.09981">
        <ele>-15.4</ele>
        <time>2018-06-26T08:30:53Z</time>
      </trkpt>
      <trkpt lat="50.60262" lon="3.1">
        <ele>-15.2</ele>
        <time>2018-06-26T08:30:57Z</time>
      </trkpt>
      <trkpt lat="50.60273" lon="3.1002">
        <ele>-15.2</ele>
        <time>2018-06-26T08:31:01Z</time>
      </trkpt>
      <trkpt lat="50.60281" lon="3.1004">
        <ele>-15.2</ele>
        <time>2018-06-26T08:31:05Z</time>
      </trkpt>
      <trkpt lat="50.60272" lon="3.10058">
        <ele>-14.8</ele>
        <time>2018-06-26T08:31:09Z</time>
      </trkpt>
      <trkpt lat="50.60265" lon="3.10079">
        <ele>-14.8</ele>
        <time>2018-06-26T08:31:13Z</time>
      </trkpt>
      <trkpt lat="50.60268" lon="3.10101">
        <ele>-15</ele>
        <time>2018-06-26T08:31:17Z</time>
      </trkpt>
      <trkpt lat="50.60283" lon="3.10111">
        <ele>-15.6</ele>
        <time>2018-06-26T08:31:21Z</time>
      </trkpt>
      <trkpt lat="50.60301" lon="3.10108">
        <ele>-16.6</ele>
        <time>2018-06-26T08:31:25Z</time>
      </trkpt>
      <trkpt lat="50.6032" lon="3.10125">
        <ele>-17.4</ele>
        <time>2018-06-26T08:31:29Z</time>
      </trkpt>
      <trkpt lat="50.60337" lon="3.10151">
        <ele>-16.6</ele>
        <time>2018-06-26T08:31:33Z</time>
      </trkpt>
      <trkpt lat="50.60353" lon="3.10175">
        <ele>-18</ele>
        <time>2018-06-26T08:31:37Z</time>
      </trkpt>
      <trkpt lat="50.60365" lon="3.10202">
        <ele>-17.6</ele>
        <time>2018-06-26T08:31:41Z</time>
      </trkpt>
      <trkpt lat="50.60377" lon="3.10225">
        <ele>-17.6</ele>
        <time>2018-06-26T08:31:45Z</time>
      </trkpt>
      <trkpt lat="50.6039" lon="3.10243">
        <ele>-17.4</ele>
        <time>2018-06-26T08:31:49Z</time>
      </trkpt>
      <trkpt lat="50.60402" lon="3.10262">
        <ele>-18</ele>
        <time>2018-06-26T08:31:53Z</time>
      </trkpt>
      <trkpt lat="50.60413" lon="3.10284">
        <ele>-17.6</ele>
        <time>2018-06-26T08:31:57Z</time>
      </trkpt>
      <trkpt lat="50.60425" lon="3.10305">
        <ele>-17.6</ele>
        <time>2018-06-26T08:32:01Z</time>
      </trkpt>
      <trkpt lat="50.60438" lon="3.10323">
        <ele>-17.4</ele>
        <time>2018-06-26T08:32:05Z</time>
      </trkpt>
      <trkpt lat="50.60449" lon="3.10342">
        <ele>-17</ele>
        <time>2018-06-26T08:32:09Z</time>
      </trkpt>
      <trkpt lat="50.60456" lon="3.10364">
        <ele>-16.6</ele>
        <time>2018-06-26T08:32:13Z</time>
      </trkpt>
      <trkpt lat="50.60463" lon="3.10387">
        <ele>-16.4</ele>
        <time>2018-06-26T08:32:17Z</time>
      </trkpt>
      <trkpt lat="50.60478" lon="3.10393">
        <ele>-16.2</ele>
        <time>2018-06-26T08:32:21Z</time>
      </trkpt>
      <trkpt lat="50.60494" lon="3.10395">
        <ele>-15.4</ele>
        <time>2018-06-26T08:32:25Z</time>
      </trkpt>
      <trkpt lat="50.60509" lon="3.1041">
        <ele>-15</ele>
        <time>2018-06-26T08:32:29Z</time>
      </trkpt>
      <trkpt lat="50.60521" lon="3.10427">
        <ele>-14.8</ele>
        <time>2018-06-26T08:32:33Z</time>
      </trkpt>
      <trkpt lat="50.60534" lon="3.10446">
        <ele>-14</ele>
        <time>2018-06-26T08:32:37Z</time>
      </trkpt>
      <trkpt lat="50.60546" lon="3.10464">
        <ele>-13</ele>
        <time>2018-06-26T08:32:41Z</time>
      </trkpt>
      <trkpt lat="50.60559" lon="3.10484">
        <ele>-12</ele>
        <time>2018-06-26T08:32:45Z</time>
      </trkpt>
      <trkpt lat="50.60571" lon="3.10503">
        <ele>-11.6</ele>
        <time>2018-06-26T08:32:49Z</time>
      </trkpt>
      <trkpt lat="50.60583" lon="3.10523">
        <ele>-10.8</ele>
        <time>2018-06-26T08:32:53Z</time>
      </trkpt>
      <trkpt lat="50.60594" lon="3.10542">
        <ele>-11</ele>
        <time>2018-06-26T08:32:57Z</time>
      </trkpt>
      <trkpt lat="50.60604" lon="3.1056">
        <ele>-10.4</ele>
        <time>2018-06-26T08:33:01Z</time>
      </trkpt>
      <trkpt lat="50.60615" lon="3.10579">
        <ele>-10.2</ele>
        <time>2018-06-26T08:33:05Z</time>
      </trkpt>
      <trkpt lat="50.60628" lon="3.106">
        <ele>-10.8</ele>
        <time>2018-06-26T08:33:09Z</time>
      </trkpt>
      <trkpt lat="50.60641" lon="3.10622">
        <ele>-11.4</ele>
        <time>2018-06-26T08:33:13Z</time>
      </trkpt>
      <trkpt lat="50.60653" lon="3.10643">
        <ele>-11.2</ele>
        <time>2018-06-26T08:33:17Z</time>
      </trkpt>
      <trkpt lat="50.60664" lon="3.10664">
        <ele>-11.2</ele>
        <time>2018-06-26T08:33:21Z</time>
      </trkpt>
      <trkpt lat="50.60677" lon="3.10686">
        <ele>-11.8</ele>
        <time>2018-06-26T08:33:25Z</time>
      </trkpt>
      <trkpt lat="50.60692" lon="3.10709">
        <ele>-12.4</ele>
        <time>2018-06-26T08:33:29Z</time>
      </trkpt>
      <trkpt lat="50.60708" lon="3.10733">
        <ele>-13.4</ele>
        <time>2018-06-26T08:33:33Z</time>
      </trkpt>
      <trkpt lat="50.60729" lon="3.10758">
        <ele>-14.6</ele>
        <time>2018-06-26T08:33:37Z</time>
      </trkpt>
      <trkpt lat="50.60752" lon="3.10782">
        <ele>-16.4</ele>
        <time>2018-06-26T08:33:41Z</time>
      </trkpt>
      <trkpt lat="50.60777" lon="3.10805">
        <ele>-17.2</ele>
        <time>2018-06-26T08:33:45Z</time>
      </trkpt>
      <trkpt lat="50.60802" lon="3.10821">
        <ele>-17.8</ele>
        <time>2018-06-26T08:33:49Z</time>
      </trkpt>
      <trkpt lat="50.60826" lon="3.10833">
        <ele>-17.6</ele>
        <time>2018-06-26T08:33:53Z</time>
      </trkpt>
      <trkpt lat="50.60848" lon="3.10844">
        <ele>-18</ele>
        <time>2018-06-26T08:33:57Z</time>
      </trkpt>
      <trkpt lat="50.60869" lon="3.10851">
        <ele>-18.4</ele>
        <time>2018-06-26T08:34:01Z</time>
      </trkpt>
      <trkpt lat="50.6089" lon="3.10857">
        <ele>-18.6</ele>
        <time>2018-06-26T08:34:05Z</time>
      </trkpt>
      <trkpt lat="50.6091" lon="3.10866">
        <ele>-18.6</ele>
        <time>2018-06-26T08:34:09Z</time>
      </trkpt>
      <trkpt lat="50.60922" lon="3.10891">
        <ele>-18.4</ele>
        <time>2018-06-26T08:34:13Z</time>
      </trkpt>
      <trkpt lat="50.60927" lon="3.10925">
        <ele>-19.4</ele>
        <time>2018-06-26T08:34:17Z</time>
      </trkpt>
      <trkpt lat="50.60919" lon="3.10956">
        <ele>-19.4</ele>
        <time>2018-06-26T08:34:21Z</time>
      </trkpt>
      <trkpt lat="50.60911" lon="3.10983">
        <ele>-19.2</ele>
        <time>2018-06-26T08:34:25Z</time>
      </trkpt>
      <trkpt lat="50.60904" lon="3.11007">
        <ele>-19</ele>
        <time>2018-06-26T08:34:29Z</time>
      </trkpt>
      <trkpt lat="50.60897" lon="3.11028">
        <ele>-18.2</ele>
        <time>2018-06-26T08:34:33Z</time>
      </trkpt>
      <trkpt lat="50.6089" lon="3.11046">
        <ele>-18.2</ele>
        <time>2018-06-26T08:34:37Z</time>
      </trkpt>
      <trkpt lat="50.60884" lon="3.11066">
        <ele>-18</ele>
        <time>2018-06-26T08:34:41Z</time>
      </trkpt>
      <trkpt lat="50.60878" lon="3.11088">
        <ele>-18</ele>
        <time>2018-06-26T08:34:45Z</time>
      </trkpt>
      <trkpt lat="50.60872" lon="3.11112">
        <ele>-18</ele>
        <time>2018-06-26T08:34:49Z</time>
      </trkpt>
      <trkpt lat="50.60865" lon="3.11135">
        <ele>-18</ele>
        <time>2018-06-26T08:34:53Z</time>
      </trkpt>
      <trkpt lat="50.60859" lon="3.11159">
        <ele>-17.8</ele>
        <time>2018-06-26T08:34:57Z</time>
      </trkpt>
      <trkpt lat="50.60853" lon="3.11184">
        <ele>-17.4</ele>
        <time>2018-06-26T08:35:01Z</time>
      </trkpt>
      <trkpt lat="50.60847" lon="3.11208">
        <ele>-17.2</ele>
        <time>2018-06-26T08:35:05Z</time>
      </trkpt>
      <trkpt lat="50.60841" lon="3.11233">
        <ele>-17.4</ele>
        <time>2018-06-26T08:35:09Z</time>
      </trkpt>
      <trkpt lat="50.60836" lon="3.11258">
        <ele>-17.2</ele>
        <time>2018-06-26T08:35:13Z</time>
      </trkpt>
      <trkpt lat="50.60832" lon="3.11284">
        <ele>-17.2</ele>
        <time>2018-06-26T08:35:17Z</time>
      </trkpt>
      <trkpt lat="50.60829" lon="3.1131">
        <ele>-17.2</ele>
        <time>2018-06-26T08:35:21Z</time>
      </trkpt>
      <trkpt lat="50.60827" lon="3.11337">
        <ele>-16.8</ele>
        <time>2018-06-26T08:35:25Z</time>
      </trkpt>
      <trkpt lat="50.60827" lon="3.11363">
        <ele>-16.6</ele>
        <time>2018-06-26T08:35:29Z</time>
      </trkpt>
      <trkpt lat="50.60826" lon="3.11389">
        <ele>-16</ele>
        <time>2018-06-26T08:35:33Z</time>
      </trkpt>
      <trkpt lat="50.60826" lon="3.11415">
        <ele>-16.6</ele>
        <time>2018-06-26T08:35:37Z</time>
      </trkpt>
      <trkpt lat="50.60828" lon="3.11441">
        <ele>-16.4</ele>
        <time>2018-06-26T08:35:41Z</time>
      </trkpt>
      <trkpt lat="50.60829" lon="3.11467">
        <ele>-16.2</ele>
        <time>2018-06-26T08:35:45Z</time>
      </trkpt>
      <trkpt lat="50.60831" lon="3.11493">
        <ele>-16.2</ele>
        <time>2018-06-26T08:35:49Z</time>
      </trkpt>
      <trkpt lat="50.60832" lon="3.11517">
        <ele>-16</ele>
        <time>2018-06-26T08:35:53Z</time>
      </trkpt>
      <trkpt lat="50.60828" lon="3.11542">
        <ele>-15.8</ele>
        <time>2018-06-26T08:35:57Z</time>
      </trkpt>
      <trkpt lat="50.60835" lon="3.11566">
        <ele>-15.2</ele>
        <time>2018-06-26T08:36:01Z</time>
      </trkpt>
      <trkpt lat="50.60845" lon="3.11588">
        <ele>-15.6</ele>
        <time>2018-06-26T08:36:05Z</time>
      </trkpt>
      <trkpt lat="50.60852" lon="3.11614">
        <ele>-16</ele>
        <time>2018-06-26T08:36:09Z</time>
      </trkpt>
      <trkpt lat="50.60859" lon="3.11641">
        <ele>-15.6</ele>
        <time>2018-06-26T08:36:13Z</time>
      </trkpt>
      <trkpt lat="50.60868" lon="3.11667">
        <ele>-15</ele>
        <time>2018-06-26T08:36:17Z</time>
      </trkpt>
      <trkpt lat="50.60877" lon="3.11693">
        <ele>-14.8</ele>
        <time>2018-06-26T08:36:21Z</time>
      </trkpt>
      <trkpt lat="50.60887" lon="3.11719">
        <ele>-14.6</ele>
        <time>2018-06-26T08:36:25Z</time>
      </trkpt>
      <trkpt lat="50.60898" lon="3.11744">
        <ele>-15</ele>
        <time>2018-06-26T08:36:29Z</time>
      </trkpt>
      <trkpt lat="50.6091" lon="3.11768">
        <ele>-14.8</ele>
        <time>2018-06-26T08:36:33Z</time>
      </trkpt>
      <trkpt lat="50.60921" lon="3.11792">
        <ele>-14.6</ele>
        <time>2018-06-26T08:36:37Z</time>
      </trkpt>
      <trkpt lat="50.60933" lon="3.11815">
        <ele>-14.6</ele>
        <time>2018-06-26T08:36:41Z</time>
      </trkpt>
      <trkpt lat="50.60945" lon="3.11839">
        <ele>-14.6</ele>
        <time>2018-06-26T08:36:45Z</time>
      </trkpt>
      <trkpt lat="50.60957" lon="3.11863">
        <ele>-14.4</ele>
        <time>2018-06-26T08:36:49Z</time>
      </trkpt>
      <trkpt lat="50.60968" lon="3.11887">
        <ele>-14.8</ele>
        <time>2018-06-26T08:36:53Z</time>
      </trkpt>
      <trkpt lat="50.6098" lon="3.1191">
        <ele>-15.2</ele>
        <time>2018-06-26T08:36:57Z</time>
      </trkpt>
      <trkpt lat="50.60992" lon="3.11934">
        <ele>-15</ele>
        <time>2018-06-26T08:37:01Z</time>
      </trkpt>
      <trkpt lat="50.61003" lon="3.11957">
        <ele>-15.4</ele>
        <time>2018-06-26T08:37:05Z</time>
      </trkpt>
      <trkpt lat="50.61015" lon="3.1198">
        <ele>-15</ele>
        <time>2018-06-26T08:37:09Z</time>
      </trkpt>
      <trkpt lat="50.61026" lon="3.12003">
        <ele>-15.2</ele>
        <time>2018-06-26T08:37:13Z</time>
      </trkpt>
      <trkpt lat="50.61037" lon="3.12026">
        <ele>-15</ele>
        <time>2018-06-26T08:37:17Z</time>
      </trkpt>
      <trkpt lat="50.61049" lon="3.12049">
        <ele>-15.2</ele>
        <time>2018-06-26T08:37:21Z</time>
      </trkpt>
      <trkpt lat="50.6106" lon="3.12072">
        <ele>-15.2</ele>
        <time>2018-06-26T08:37:25Z</time>
      </trkpt>
      <trkpt lat="50.61072" lon="3.12095">
        <ele>-15.2</ele>
        <time>2018-06-26T08:37:29Z</time>
      </trkpt>
      <trkpt lat="50.61084" lon="3.12118">
        <ele>-15.2</ele>
        <time>2018-06-26T08:37:33Z</time>
      </trkpt>
      <trkpt lat="50.61095" lon="3.12142">
        <ele>-15.4</ele>
        <time>2018-06-26T08:37:37Z</time>
      </trkpt>
      <trkpt lat="50.61107" lon="3.12165">
        <ele>-15.8</ele>
        <time>2018-06-26T08:37:41Z</time>
      </trkpt>
      <trkpt lat="50.61119" lon="3.12189">
        <ele>-15.6</ele>
        <time>2018-06-26T08:37:45Z</time>
      </trkpt>
      <trkpt lat="50.61131" lon="3.12214">
        <ele>-15.8</ele>
        <time>2018-06-26T08:37:49Z</time>
      </trkpt>
      <trkpt lat="50.61142" lon="3.12239">
        <ele>-15.4</ele>
        <time>2018-06-26T08:37:53Z</time>
      </trkpt>
      <trkpt lat="50.61151" lon="3.12261">
        <ele>-15.2</ele>
        <time>2018-06-26T08:37:57Z</time>
      </trkpt>
      <trkpt lat="50.6116" lon="3.12281">
        <ele>-15.2</ele>
        <time>2018-06-26T08:38:01Z</time>
      </trkpt>
      <trkpt lat="50.61161" lon="3.12304">
        <ele>-15.2</ele>
        <time>2018-06-26T08:38:05Z</time>
      </trkpt>
      <trkpt lat="50.61159" lon="3.12327">
        <ele>-15</ele>
        <time>2018-06-26T08:38:09Z</time>
      </trkpt>
      <trkpt lat="50.61152" lon="3.12347">
        <ele>-14.8</ele>
        <time>2018-06-26T08:38:13Z</time>
      </trkpt>
      <trkpt lat="50.6114" lon="3.12365">
        <ele>-14.8</ele>
        <time>2018-06-26T08:38:17Z</time>
      </trkpt>
      <trkpt lat="50.61126" lon="3.12381">
        <ele>-14.6</ele>
        <time>2018-06-26T08:38:21Z</time>
      </trkpt>
      <trkpt lat="50.61112" lon="3.12395">
        <ele>-14.6</ele>
        <time>2018-06-26T08:38:25Z</time>
      </trkpt>
      <trkpt lat="50.61095" lon="3.12405">
        <ele>-14.2</ele>
        <time>2018-06-26T08:38:29Z</time>
      </trkpt>
      <trkpt lat="50.61078" lon="3.12411">
        <ele>-14</ele>
        <time>2018-06-26T08:38:33Z</time>
      </trkpt>
      <trkpt lat="50.61059" lon="3.12416">
        <ele>-13.6</ele>
        <time>2018-06-26T08:38:37Z</time>
      </trkpt>
      <trkpt lat="50.61041" lon="3.12421">
        <ele>-14.2</ele>
        <time>2018-06-26T08:38:41Z</time>
      </trkpt>
      <trkpt lat="50.61023" lon="3.12426">
        <ele>-13.8</ele>
        <time>2018-06-26T08:38:45Z</time>
      </trkpt>
      <trkpt lat="50.61005" lon="3.12431">
        <ele>-13.2</ele>
        <time>2018-06-26T08:38:49Z</time>
      </trkpt>
      <trkpt lat="50.60987" lon="3.12437">
        <ele>-13.2</ele>
        <time>2018-06-26T08:38:53Z</time>
      </trkpt>
      <trkpt lat="50.60969" lon="3.12445">
        <ele>-13.2</ele>
        <time>2018-06-26T08:38:57Z</time>
      </trkpt>
      <trkpt lat="50.60952" lon="3.12454">
        <ele>-12.8</ele>
        <time>2018-06-26T08:39:01Z</time>
      </trkpt>
      <trkpt lat="50.60936" lon="3.12464">
        <ele>-12.6</ele>
        <time>2018-06-26T08:39:05Z</time>
      </trkpt>
      <trkpt lat="50.60921" lon="3.12476">
        <ele>-12</ele>
        <time>2018-06-26T08:39:09Z</time>
      </trkpt>
      <trkpt lat="50.60906" lon="3.12489">
        <ele>-12</ele>
        <time>2018-06-26T08:39:13Z</time>
      </trkpt>
      <trkpt lat="50.60891" lon="3.12503">
        <ele>-12</ele>
        <time>2018-06-26T08:39:17Z</time>
      </trkpt>
      <trkpt lat="50.60876" lon="3.12518">
        <ele>-12.2</ele>
        <time>2018-06-26T08:39:21Z</time>
      </trkpt>
      <trkpt lat="50.6086" lon="3.12533">
        <ele>-11.6</ele>
        <time>2018-06-26T08:39:25Z</time>
      </trkpt>
      <trkpt lat="50.60846" lon="3.1255">
        <ele>-11.4</ele>
        <time>2018-06-26T08:39:29Z</time>
      </trkpt>
      <trkpt lat="50.60832" lon="3.12569">
        <ele>-11.8</ele>
        <time>2018-06-26T08:39:33Z</time>
      </trkpt>
      <trkpt lat="50.6082" lon="3.12587">
        <ele>-11.8</ele>
        <time>2018-06-26T08:39:37Z</time>
      </trkpt>
      <trkpt lat="50.60809" lon="3.12603">
        <ele>-11.6</ele>
        <time>2018-06-26T08:39:41Z</time>
      </trkpt>
      <trkpt lat="50.60798" lon="3.12618">
        <ele>-11.4</ele>
        <time>2018-06-26T08:39:45Z</time>
      </trkpt>
      <trkpt lat="50.60788" lon="3.12635">
        <ele>-11.2</ele>
        <time>2018-06-26T08:39:49Z</time>
      </trkpt>
      <trkpt lat="50.60776" lon="3.1265">
        <ele>-10.6</ele>
        <time>2018-06-26T08:39:53Z</time>
      </trkpt>
      <trkpt lat="50.60764" lon="3.1266">
        <ele>-11.2</ele>
        <time>2018-06-26T08:39:57Z</time>
      </trkpt>
      <trkpt lat="50.60753" lon="3.12673">
        <ele>-11</ele>
        <time>2018-06-26T08:40:01Z</time>
      </trkpt>
      <trkpt lat="50.60743" lon="3.12689">
        <ele>-11.2</ele>
        <time>2018-06-26T08:40:05Z</time>
      </trkpt>
      <trkpt lat="50.60731" lon="3.12705">
        <ele>-12</ele>
        <time>2018-06-26T08:40:09Z</time>
      </trkpt>
      <trkpt lat="50.60722" lon="3.12733">
        <ele>-11.4</ele>
        <time>2018-06-26T08:40:13Z</time>
      </trkpt>
      <trkpt lat="50.6071" lon="3.12757">
        <ele>-12</ele>
        <time>2018-06-26T08:40:17Z</time>
      </trkpt>
      <trkpt lat="50.60697" lon="3.12776">
        <ele>-11.4</ele>
        <time>2018-06-26T08:40:21Z</time>
      </trkpt>
      <trkpt lat="50.60686" lon="3.12794">
        <ele>-11.8</ele>
        <time>2018-06-26T08:40:25Z</time>
      </trkpt>
      <trkpt lat="50.60673" lon="3.12811">
        <ele>-12</ele>
        <time>2018-06-26T08:40:29Z</time>
      </trkpt>
      <trkpt lat="50.6066" lon="3.12827">
        <ele>-12.2</ele>
        <time>2018-06-26T08:40:33Z</time>
      </trkpt>
      <trkpt lat="50.60649" lon="3.12839">
        <ele>-11.8</ele>
        <time>2018-06-26T08:40:37Z</time>
      </trkpt>
      <trkpt lat="50.60638" lon="3.12843">
        <ele>-12.2</ele>
        <time>2018-06-26T08:40:41Z</time>
      </trkpt>
      <trkpt lat="50.60624" lon="3.12847">
        <ele>-12</ele>
        <time>2018-06-26T08:40:45Z</time>
      </trkpt>
      <trkpt lat="50.60608" lon="3.12864">
        <ele>-12</ele>
        <time>2018-06-26T08:40:49Z</time>
      </trkpt>
      <trkpt lat="50.60603" lon="3.12895">
        <ele>-11.6</ele>
        <time>2018-06-26T08:40:53Z</time>
      </trkpt>
      <trkpt lat="50.60605" lon="3.12923">
        <ele>-11.4</ele>
        <time>2018-06-26T08:40:57Z</time>
      </trkpt>
      <trkpt lat="50.60597" lon="3.12947">
        <ele>-11.2</ele>
        <time>2018-06-26T08:41:01Z</time>
      </trkpt>
      <trkpt lat="50.60585" lon="3.12968">
        <ele>-10.4</ele>
        <time>2018-06-26T08:41:05Z</time>
      </trkpt>
      <trkpt lat="50.60574" lon="3.1299">
        <ele>-10.4</ele>
        <time>2018-06-26T08:41:09Z</time>
      </trkpt>
      <trkpt lat="50.60562" lon="3.13013">
        <ele>-10.4</ele>
        <time>2018-06-26T08:41:13Z</time>
      </trkpt>
      <trkpt lat="50.60551" lon="3.13039">
        <ele>-10.2</ele>
        <time>2018-06-26T08:41:17Z</time>
      </trkpt>
      <trkpt lat="50.6054" lon="3.13072">
        <ele>-11.6</ele>
        <time>2018-06-26T08:41:21Z</time>
      </trkpt>
      <trkpt lat="50.60525" lon="3.13108">
        <ele>-13.4</ele>
        <time>2018-06-26T08:41:25Z</time>
      </trkpt>
      <trkpt lat="50.60511" lon="3.13144">
        <ele>-13</ele>
        <time>2018-06-26T08:41:29Z</time>
      </trkpt>
      <trkpt lat="50.60489" lon="3.13162">
        <ele>-14.8</ele>
        <time>2018-06-26T08:41:33Z</time>
      </trkpt>
      <trkpt lat="50.6047" lon="3.13182">
        <ele>-14.4</ele>
        <time>2018-06-26T08:41:37Z</time>
      </trkpt>
      <trkpt lat="50.60466" lon="3.13217">
        <ele>-14.8</ele>
        <time>2018-06-26T08:41:41Z</time>
      </trkpt>
      <trkpt lat="50.60458" lon="3.13245">
        <ele>-14.8</ele>
        <time>2018-06-26T08:41:45Z</time>
      </trkpt>
      <trkpt lat="50.60447" lon="3.13272">
        <ele>-14.8</ele>
        <time>2018-06-26T08:41:49Z</time>
      </trkpt>
      <trkpt lat="50.60434" lon="3.13301">
        <ele>-15</ele>
        <time>2018-06-26T08:41:53Z</time>
      </trkpt>
      <trkpt lat="50.60421" lon="3.13331">
        <ele>-14</ele>
        <time>2018-06-26T08:41:57Z</time>
      </trkpt>
      <trkpt lat="50.60406" lon="3.13362">
        <ele>-15.2</ele>
        <time>2018-06-26T08:42:01Z</time>
      </trkpt>
      <trkpt lat="50.6039" lon="3.13392">
        <ele>-15.6</ele>
        <time>2018-06-26T08:42:05Z</time>
      </trkpt>
      <trkpt lat="50.60374" lon="3.1342">
        <ele>-15.6</ele>
        <time>2018-06-26T08:42:09Z</time>
      </trkpt>
      <trkpt lat="50.60358" lon="3.13447">
        <ele>-15.6</ele>
        <time>2018-06-26T08:42:13Z</time>
      </trkpt>
      <trkpt lat="50.60341" lon="3.13474">
        <ele>-16.6</ele>
        <time>2018-06-26T08:42:17Z</time>
      </trkpt>
      <trkpt lat="50.60324" lon="3.135">
        <ele>-16.2</ele>
        <time>2018-06-26T08:42:21Z</time>
      </trkpt>
      <trkpt lat="50.60306" lon="3.13523">
        <ele>-17</ele>
        <time>2018-06-26T08:42:25Z</time>
      </trkpt>
      <trkpt lat="50.60288" lon="3.13548">
        <ele>-16.6</ele>
        <time>2018-06-26T08:42:29Z</time>
      </trkpt>
      <trkpt lat="50.60274" lon="3.13576">
        <ele>-16.6</ele>
        <time>2018-06-26T08:42:33Z</time>
      </trkpt>
      <trkpt lat="50.60265" lon="3.13604">
        <ele>-16.2</ele>
        <time>2018-06-26T08:42:37Z</time>
      </trkpt>
      <trkpt lat="50.60261" lon="3.13632">
        <ele>-16</ele>
        <time>2018-06-26T08:42:41Z</time>
      </trkpt>
      <trkpt lat="50.60258" lon="3.13661">
        <ele>-15.2</ele>
        <time>2018-06-26T08:42:45Z</time>
      </trkpt>
      <trkpt lat="50.60257" lon="3.13693">
        <ele>-15.2</ele>
        <time>2018-06-26T08:42:49Z</time>
      </trkpt>
      <trkpt lat="50.60256" lon="3.13719">
        <ele>-15.8</ele>
        <time>2018-06-26T08:42:53Z</time>
      </trkpt>
      <trkpt lat="50.60255" lon="3.13733">
        <ele>-16</ele>
        <time>2018-06-26T08:42:57Z</time>
      </trkpt>
      <trkpt lat="50.60255" lon="3.13733">
        <ele>-16.2</ele>
        <time>2018-06-26T08:43:01Z</time>
      </trkpt>
      <trkpt lat="50.60255" lon="3.13733">
        <ele>-16</ele>
        <time>2018-06-26T08:43:05Z</time>
      </trkpt>
      <trkpt lat="50.60255" lon="3.13733">
        <ele>-16.2</ele>
        <time>2018-06-26T08:43:09Z</time>
      </trkpt>
      <trkpt lat="50.60255" lon="3.13733">
        <ele>-16</ele>
        <time>2018-06-26T08:43:13Z</time>
      </trkpt>
      <trkpt lat="50.60255" lon="3.13733">
        <ele>-16</ele>
        <time>2018-06-26T08:43:17Z</time>
      </trkpt>
      <trkpt lat="50.60255" lon="3.13733">
        <ele>-16.4</ele>
        <time>2018-06-26T08:43:21Z</time>
      </trkpt>
      <trkpt lat="50.60255" lon="3.13733">
        <ele>-16.2</ele>
        <time>2018-06-26T08:43:25Z</time>
      </trkpt>
      <trkpt lat="50.60255" lon="3.13733">
        <ele>-16</ele>
        <time>2018-06-26T08:43:29Z</time>
      </trkpt>
      <trkpt lat="50.60255" lon="3.13733">
        <ele>-16.2</ele>
        <time>2018-06-26T08:43:33Z</time>
      </trkpt>
      <trkpt lat="50.60255" lon="3.13733">
        <ele>-16</ele>
        <time>2018-06-26T08:43:37Z</time>
      </trkpt>
      <trkpt lat="50.60255" lon="3.13733">
        <ele>-16.2</ele>
        <time>2018-06-26T08:43:41Z</time>
      </trkpt>
      <trkpt lat="50.60255" lon="3.13733">
        <ele>-16.2</ele>
        <time>2018-06-26T08:43:45Z</time>
      </trkpt>
      <trkpt lat="50.60255" lon="3.13733">
        <ele>-16</ele>
        <time>2018-06-26T08:43:49Z</time>
      </trkpt>
      <trkpt lat="50.60252" lon="3.13738">
        <ele>-15.6</ele>
        <time>2018-06-26T08:43:53Z</time>
      </trkpt>
      <trkpt lat="50.6025" lon="3.13749">
        <ele>-15.4</ele>
        <time>2018-06-26T08:43:57Z</time>
      </trkpt>
      <trkpt lat="50.60249" lon="3.13768">
        <ele>-15.6</ele>
        <time>2018-06-26T08:44:01Z</time>
      </trkpt>
      <trkpt lat="50.60253" lon="3.13786">
        <ele>-15.4</ele>
        <time>2018-06-26T08:44:05Z</time>
      </trkpt>
      <trkpt lat="50.60258" lon="3.13806">
        <ele>-15.4</ele>
        <time>2018-06-26T08:44:09Z</time>
      </trkpt>
      <trkpt lat="50.60261" lon="3.13829">
        <ele>-15.6</ele>
        <time>2018-06-26T08:44:13Z</time>
      </trkpt>
      <trkpt lat="50.60262" lon="3.1385">
        <ele>-15.6</ele>
        <time>2018-06-26T08:44:17Z</time>
      </trkpt>
      <trkpt lat="50.60264" lon="3.13872">
        <ele>-15.2</ele>
        <time>2018-06-26T08:44:21Z</time>
      </trkpt>
      <trkpt lat="50.60266" lon="3.13894">
        <ele>-15.4</ele>
        <time>2018-06-26T08:44:25Z</time>
      </trkpt>
      <trkpt lat="50.60268" lon="3.13917">
        <ele>-15.4</ele>
        <time>2018-06-26T08:44:29Z</time>
      </trkpt>
      <trkpt lat="50.60271" lon="3.13939">
        <ele>-15</ele>
        <time>2018-06-26T08:44:33Z</time>
      </trkpt>
      <trkpt lat="50.60273" lon="3.13961">
        <ele>-15.2</ele>
        <time>2018-06-26T08:44:37Z</time>
      </trkpt>
      <trkpt lat="50.60275" lon="3.13982">
        <ele>-15.2</ele>
        <time>2018-06-26T08:44:41Z</time>
      </trkpt>
      <trkpt lat="50.60277" lon="3.13999">
        <ele>-15.2</ele>
        <time>2018-06-26T08:44:45Z</time>
      </trkpt>
      <trkpt lat="50.60278" lon="3.14014">
        <ele>-15.4</ele>
        <time>2018-06-26T08:44:49Z</time>
      </trkpt>
      <trkpt lat="50.60281" lon="3.14033">
        <ele>-15</ele>
        <time>2018-06-26T08:44:53Z</time>
      </trkpt>
      <trkpt lat="50.60287" lon="3.14052">
        <ele>-14.8</ele>
        <time>2018-06-26T08:44:57Z</time>
      </trkpt>
      <trkpt lat="50.60293" lon="3.14076">
        <ele>-15</ele>
        <time>2018-06-26T08:45:01Z</time>
      </trkpt>
      <trkpt lat="50.603" lon="3.14101">
        <ele>-15</ele>
        <time>2018-06-26T08:45:05Z</time>
      </trkpt>
      <trkpt lat="50.60308" lon="3.14127">
        <ele>-14.4</ele>
        <time>2018-06-26T08:45:09Z</time>
      </trkpt>
      <trkpt lat="50.60316" lon="3.1415">
        <ele>-14.8</ele>
        <time>2018-06-26T08:45:13Z</time>
      </trkpt>
      <trkpt lat="50.60326" lon="3.14173">
        <ele>-15.2</ele>
        <time>2018-06-26T08:45:17Z</time>
      </trkpt>
      <trkpt lat="50.60335" lon="3.14194">
        <ele>-15.2</ele>
        <time>2018-06-26T08:45:21Z</time>
      </trkpt>
      <trkpt lat="50.60341" lon="3.1421">
        <ele>-15.6</ele>
        <time>2018-06-26T08:45:25Z</time>
      </trkpt>
      <trkpt lat="50.60342" lon="3.14224">
        <ele>-15.6</ele>
        <time>2018-06-26T08:45:29Z</time>
      </trkpt>
      <trkpt lat="50.60343" lon="3.14228">
        <ele>-15.6</ele>
        <time>2018-06-26T08:45:33Z</time>
      </trkpt>
      <trkpt lat="50.60345" lon="3.14233">
        <ele>-16</ele>
        <time>2018-06-26T08:45:37Z</time>
      </trkpt>
      <trkpt lat="50.6035" lon="3.1424">
        <ele>-15.8</ele>
        <time>2018-06-26T08:45:41Z</time>
      </trkpt>
      <trkpt lat="50.60355" lon="3.14247">
        <ele>-15.6</ele>
        <time>2018-06-26T08:45:45Z</time>
      </trkpt>
      <trkpt lat="50.60362" lon="3.14257">
        <ele>-15.2</ele>
        <time>2018-06-26T08:45:49Z</time>
      </trkpt>
      <trkpt lat="50.60369" lon="3.14274">
        <ele>-15.8</ele>
        <time>2018-06-26T08:45:53Z</time>
      </trkpt>
      <trkpt lat="50.60379" lon="3.14294">
        <ele>-16</ele>
        <time>2018-06-26T08:45:57Z</time>
      </trkpt>
      <trkpt lat="50.60389" lon="3.14317">
        <ele>-15.6</ele>
        <time>2018-06-26T08:46:01Z</time>
      </trkpt>
      <trkpt lat="50.60399" lon="3.14338">
        <ele>-15.8</ele>
        <time>2018-06-26T08:46:05Z</time>
      </trkpt>
      <trkpt lat="50.60409" lon="3.1436">
        <ele>-16.4</ele>
        <time>2018-06-26T08:46:09Z</time>
      </trkpt>
      <trkpt lat="50.60419" lon="3.14382">
        <ele>-15.8</ele>
        <time>2018-06-26T08:46:13Z</time>
      </trkpt>
      <trkpt lat="50.60429" lon="3.14404">
        <ele>-16</ele>
        <time>2018-06-26T08:46:17Z</time>
      </trkpt>
      <trkpt lat="50.60434" lon="3.1443">
        <ele>-16</ele>
        <time>2018-06-26T08:46:21Z</time>
      </trkpt>
      <trkpt lat="50.60439" lon="3.14457">
        <ele>-15.8</ele>
        <time>2018-06-26T08:46:25Z</time>
      </trkpt>
      <trkpt lat="50.60448" lon="3.1448">
        <ele>-15.8</ele>
        <time>2018-06-26T08:46:29Z</time>
      </trkpt>
      <trkpt lat="50.60459" lon="3.14504">
        <ele>-15.8</ele>
        <time>2018-06-26T08:46:33Z</time>
      </trkpt>
      <trkpt lat="50.60469" lon="3.14527">
        <ele>-15.8</ele>
        <time>2018-06-26T08:46:37Z</time>
      </trkpt>
      <trkpt lat="50.6048" lon="3.14549">
        <ele>-16</ele>
        <time>2018-06-26T08:46:41Z</time>
      </trkpt>
      <trkpt lat="50.6049" lon="3.14571">
        <ele>-16</ele>
        <time>2018-06-26T08:46:45Z</time>
      </trkpt>
      <trkpt lat="50.605" lon="3.14594">
        <ele>-16.4</ele>
        <time>2018-06-26T08:46:49Z</time>
      </trkpt>
      <trkpt lat="50.6051" lon="3.14615">
        <ele>-16.6</ele>
        <time>2018-06-26T08:46:53Z</time>
      </trkpt>
      <trkpt lat="50.60519" lon="3.14637">
        <ele>-16.8</ele>
        <time>2018-06-26T08:46:57Z</time>
      </trkpt>
      <trkpt lat="50.60529" lon="3.14659">
        <ele>-17.4</ele>
        <time>2018-06-26T08:47:01Z</time>
      </trkpt>
      <trkpt lat="50.60536" lon="3.14679">
        <ele>-17.4</ele>
        <time>2018-06-26T08:47:05Z</time>
      </trkpt>
      <trkpt lat="50.60542" lon="3.14695">
        <ele>-18</ele>
        <time>2018-06-26T08:47:09Z</time>
      </trkpt>
      <trkpt lat="50.60549" lon="3.14709">
        <ele>-17.6</ele>
        <time>2018-06-26T08:47:13Z</time>
      </trkpt>
      <trkpt lat="50.60556" lon="3.14724">
        <ele>-18</ele>
        <time>2018-06-26T08:47:17Z</time>
      </trkpt>
      <trkpt lat="50.60563" lon="3.14741">
        <ele>-17.8</ele>
        <time>2018-06-26T08:47:21Z</time>
      </trkpt>
      <trkpt lat="50.60572" lon="3.14759">
        <ele>-17.6</ele>
        <time>2018-06-26T08:47:25Z</time>
      </trkpt>
      <trkpt lat="50.60581" lon="3.14779">
        <ele>-17.4</ele>
        <time>2018-06-26T08:47:29Z</time>
      </trkpt>
      <trkpt lat="50.60591" lon="3.148">
        <ele>-18</ele>
        <time>2018-06-26T08:47:33Z</time>
      </trkpt>
      <trkpt lat="50.60601" lon="3.1482">
        <ele>-18</ele>
        <time>2018-06-26T08:47:37Z</time>
      </trkpt>
      <trkpt lat="50.60616" lon="3.14833">
        <ele>-17.4</ele>
        <time>2018-06-26T08:47:41Z</time>
      </trkpt>
      <trkpt lat="50.60627" lon="3.14853">
        <ele>-18.2</ele>
        <time>2018-06-26T08:47:45Z</time>
      </trkpt>
      <trkpt lat="50.60638" lon="3.14877">
        <ele>-18</ele>
        <time>2018-06-26T08:47:49Z</time>
      </trkpt>
      <trkpt lat="50.60646" lon="3.14906">
        <ele>-18</ele>
        <time>2018-06-26T08:47:53Z</time>
      </trkpt>
      <trkpt lat="50.60654" lon="3.14933">
        <ele>-17.8</ele>
        <time>2018-06-26T08:47:57Z</time>
      </trkpt>
      <trkpt lat="50.60664" lon="3.14959">
        <ele>-17.8</ele>
        <time>2018-06-26T08:48:01Z</time>
      </trkpt>
      <trkpt lat="50.60675" lon="3.14984">
        <ele>-17.4</ele>
        <time>2018-06-26T08:48:05Z</time>
      </trkpt>
      <trkpt lat="50.60687" lon="3.15009">
        <ele>-18</ele>
        <time>2018-06-26T08:48:09Z</time>
      </trkpt>
      <trkpt lat="50.60698" lon="3.15034">
        <ele>-18.4</ele>
        <time>2018-06-26T08:48:13Z</time>
      </trkpt>
      <trkpt lat="50.60709" lon="3.15057">
        <ele>-18.4</ele>
        <time>2018-06-26T08:48:17Z</time>
      </trkpt>
      <trkpt lat="50.60719" lon="3.15079">
        <ele>-18.6</ele>
        <time>2018-06-26T08:48:21Z</time>
      </trkpt>
      <trkpt lat="50.60733" lon="3.15096">
        <ele>-18.4</ele>
        <time>2018-06-26T08:48:25Z</time>
      </trkpt>
      <trkpt lat="50.60744" lon="3.1512">
        <ele>-18.6</ele>
        <time>2018-06-26T08:48:29Z</time>
      </trkpt>
      <trkpt lat="50.60754" lon="3.15142">
        <ele>-18</ele>
        <time>2018-06-26T08:48:33Z</time>
      </trkpt>
      <trkpt lat="50.60764" lon="3.15164">
        <ele>-18.2</ele>
        <time>2018-06-26T08:48:37Z</time>
      </trkpt>
      <trkpt lat="50.60771" lon="3.15188">
        <ele>-18.6</ele>
        <time>2018-06-26T08:48:41Z</time>
      </trkpt>
      <trkpt lat="50.60781" lon="3.1521">
        <ele>-18.8</ele>
        <time>2018-06-26T08:48:45Z</time>
      </trkpt>
      <trkpt lat="50.60792" lon="3.15234">
        <ele>-19</ele>
        <time>2018-06-26T08:48:49Z</time>
      </trkpt>
      <trkpt lat="50.60802" lon="3.15257">
        <ele>-18.2</ele>
        <time>2018-06-26T08:48:53Z</time>
      </trkpt>
      <trkpt lat="50.6081" lon="3.15281">
        <ele>-18.8</ele>
        <time>2018-06-26T08:48:57Z</time>
      </trkpt>
      <trkpt lat="50.60813" lon="3.15307">
        <ele>-18.4</ele>
        <time>2018-06-26T08:49:01Z</time>
      </trkpt>
      <trkpt lat="50.60814" lon="3.15333">
        <ele>-19.4</ele>
        <time>2018-06-26T08:49:05Z</time>
      </trkpt>
      <trkpt lat="50.60818" lon="3.15355">
        <ele>-20.2</ele>
        <time>2018-06-26T08:49:09Z</time>
      </trkpt>
      <trkpt lat="50.60825" lon="3.15375">
        <ele>-20</ele>
        <time>2018-06-26T08:49:13Z</time>
      </trkpt>
      <trkpt lat="50.60835" lon="3.15393">
        <ele>-19.6</ele>
        <time>2018-06-26T08:49:17Z</time>
      </trkpt>
      <trkpt lat="50.60849" lon="3.15408">
        <ele>-19.8</ele>
        <time>2018-06-26T08:49:21Z</time>
      </trkpt>
      <trkpt lat="50.60863" lon="3.15423">
        <ele>-19.6</ele>
        <time>2018-06-26T08:49:25Z</time>
      </trkpt>
      <trkpt lat="50.60866" lon="3.15454">
        <ele>-19.8</ele>
        <time>2018-06-26T08:49:29Z</time>
      </trkpt>
      <trkpt lat="50.60869" lon="3.15485">
        <ele>-20.4</ele>
        <time>2018-06-26T08:49:33Z</time>
      </trkpt>
      <trkpt lat="50.60872" lon="3.15517">
        <ele>-20.2</ele>
        <time>2018-06-26T08:49:37Z</time>
      </trkpt>
      <trkpt lat="50.60875" lon="3.15549">
        <ele>-20.2</ele>
        <time>2018-06-26T08:49:41Z</time>
      </trkpt>
      <trkpt lat="50.60877" lon="3.1558">
        <ele>-20.2</ele>
        <time>2018-06-26T08:49:45Z</time>
      </trkpt>
      <trkpt lat="50.6088" lon="3.15611">
        <ele>-20.6</ele>
        <time>2018-06-26T08:49:49Z</time>
      </trkpt>
      <trkpt lat="50.60883" lon="3.15643">
        <ele>-20.6</ele>
        <time>2018-06-26T08:49:53Z</time>
      </trkpt>
      <trkpt lat="50.60886" lon="3.15674">
        <ele>-21</ele>
        <time>2018-06-26T08:49:57Z</time>
      </trkpt>
      <trkpt lat="50.6089" lon="3.15705">
        <ele>-21.4</ele>
        <time>2018-06-26T08:50:01Z</time>
      </trkpt>
      <trkpt lat="50.60898" lon="3.15735">
        <ele>-21.2</ele>
        <time>2018-06-26T08:50:05Z</time>
      </trkpt>
      <trkpt lat="50.60908" lon="3.15761">
        <ele>-21</ele>
        <time>2018-06-26T08:50:09Z</time>
      </trkpt>
      <trkpt lat="50.60921" lon="3.15781">
        <ele>-21.2</ele>
        <time>2018-06-26T08:50:13Z</time>
      </trkpt>
      <trkpt lat="50.60933" lon="3.15793">
        <ele>-21</ele>
        <time>2018-06-26T08:50:17Z</time>
      </trkpt>
      <trkpt lat="50.60946" lon="3.15809">
        <ele>-20.8</ele>
        <time>2018-06-26T08:50:21Z</time>
      </trkpt>
      <trkpt lat="50.60959" lon="3.15828">
        <ele>-21</ele>
        <time>2018-06-26T08:50:25Z</time>
      </trkpt>
      <trkpt lat="50.60973" lon="3.15848">
        <ele>-21.6</ele>
        <time>2018-06-26T08:50:29Z</time>
      </trkpt>
      <trkpt lat="50.60987" lon="3.15868">
        <ele>-22</ele>
        <time>2018-06-26T08:50:33Z</time>
      </trkpt>
      <trkpt lat="50.61" lon="3.1589">
        <ele>-22.4</ele>
        <time>2018-06-26T08:50:37Z</time>
      </trkpt>
      <trkpt lat="50.61014" lon="3.15913">
        <ele>-22</ele>
        <time>2018-06-26T08:50:41Z</time>
      </trkpt>
      <trkpt lat="50.61027" lon="3.15936">
        <ele>-21.8</ele>
        <time>2018-06-26T08:50:45Z</time>
      </trkpt>
      <trkpt lat="50.61041" lon="3.15959">
        <ele>-22.2</ele>
        <time>2018-06-26T08:50:49Z</time>
      </trkpt>
      <trkpt lat="50.61054" lon="3.15982">
        <ele>-22</ele>
        <time>2018-06-26T08:50:53Z</time>
      </trkpt>
      <trkpt lat="50.61067" lon="3.16004">
        <ele>-22.2</ele>
        <time>2018-06-26T08:50:57Z</time>
      </trkpt>
      <trkpt lat="50.61079" lon="3.16027">
        <ele>-22.4</ele>
        <time>2018-06-26T08:51:01Z</time>
      </trkpt>
      <trkpt lat="50.61092" lon="3.16049">
        <ele>-22.4</ele>
        <time>2018-06-26T08:51:05Z</time>
      </trkpt>
      <trkpt lat="50.61106" lon="3.16069">
        <ele>-22</ele>
        <time>2018-06-26T08:51:09Z</time>
      </trkpt>
      <trkpt lat="50.61119" lon="3.1609">
        <ele>-22</ele>
        <time>2018-06-26T08:51:13Z</time>
      </trkpt>
      <trkpt lat="50.61134" lon="3.16112">
        <ele>-22.2</ele>
        <time>2018-06-26T08:51:17Z</time>
      </trkpt>
      <trkpt lat="50.6115" lon="3.1613">
        <ele>-22.8</ele>
        <time>2018-06-26T08:51:21Z</time>
      </trkpt>
      <trkpt lat="50.61165" lon="3.16153">
        <ele>-22.8</ele>
        <time>2018-06-26T08:51:25Z</time>
      </trkpt>
      <trkpt lat="50.61179" lon="3.16175">
        <ele>-22.8</ele>
        <time>2018-06-26T08:51:29Z</time>
      </trkpt>
      <trkpt lat="50.61194" lon="3.16199">
        <ele>-22.8</ele>
        <time>2018-06-26T08:51:33Z</time>
      </trkpt>
      <trkpt lat="50.61208" lon="3.16222">
        <ele>-23</ele>
        <time>2018-06-26T08:51:37Z</time>
      </trkpt>
      <trkpt lat="50.6122" lon="3.16243">
        <ele>-23.2</ele>
        <time>2018-06-26T08:51:41Z</time>
      </trkpt>
      <trkpt lat="50.6123" lon="3.16265">
        <ele>-23.8</ele>
        <time>2018-06-26T08:51:45Z</time>
      </trkpt>
      <trkpt lat="50.61239" lon="3.1629">
        <ele>-25.4</ele>
        <time>2018-06-26T08:51:49Z</time>
      </trkpt>
      <trkpt lat="50.61243" lon="3.16317">
        <ele>-24</ele>
        <time>2018-06-26T08:51:53Z</time>
      </trkpt>
      <trkpt lat="50.61243" lon="3.16317">
        <ele>-23.6</ele>
        <time>2018-06-26T08:51:57Z</time>
      </trkpt>
      <trkpt lat="50.61243" lon="3.16317">
        <ele>-23.6</ele>
        <time>2018-06-26T08:52:01Z</time>
      </trkpt>
      <trkpt lat="50.61243" lon="3.16317">
        <ele>-24.2</ele>
        <time>2018-06-26T08:52:05Z</time>
      </trkpt>
      <trkpt lat="50.61243" lon="3.16317">
        <ele>-23.8</ele>
        <time>2018-06-26T08:52:09Z</time>
      </trkpt>
      <trkpt lat="50.61243" lon="3.16317">
        <ele>-24.6</ele>
        <time>2018-06-26T08:52:13Z</time>
      </trkpt>
      <trkpt lat="50.61243" lon="3.16317">
        <ele>-23.6</ele>
        <time>2018-06-26T08:52:17Z</time>
      </trkpt>
      <trkpt lat="50.61243" lon="3.16317">
        <ele>-24.4</ele>
        <time>2018-06-26T08:52:21Z</time>
      </trkpt>
      <trkpt lat="50.61245" lon="3.16324">
        <ele>-24.2</ele>
        <time>2018-06-26T08:52:25Z</time>
      </trkpt>
      <trkpt lat="50.61248" lon="3.16329">
        <ele>-24</ele>
        <time>2018-06-26T08:52:29Z</time>
      </trkpt>
      <trkpt lat="50.61252" lon="3.16341">
        <ele>-24.2</ele>
        <time>2018-06-26T08:52:33Z</time>
      </trkpt>
      <trkpt lat="50.61256" lon="3.16359">
        <ele>-24</ele>
        <time>2018-06-26T08:52:37Z</time>
      </trkpt>
      <trkpt lat="50.61263" lon="3.1638">
        <ele>-24.2</ele>
        <time>2018-06-26T08:52:41Z</time>
      </trkpt>
      <trkpt lat="50.61271" lon="3.16401">
        <ele>-24.2</ele>
        <time>2018-06-26T08:52:45Z</time>
      </trkpt>
      <trkpt lat="50.61282" lon="3.16424">
        <ele>-24</ele>
        <time>2018-06-26T08:52:49Z</time>
      </trkpt>
      <trkpt lat="50.61292" lon="3.16447">
        <ele>-23.8</ele>
        <time>2018-06-26T08:52:53Z</time>
      </trkpt>
      <trkpt lat="50.61302" lon="3.16466">
        <ele>-23.8</ele>
        <time>2018-06-26T08:52:57Z</time>
      </trkpt>
      <trkpt lat="50.61314" lon="3.16462">
        <ele>-24.2</ele>
        <time>2018-06-26T08:53:01Z</time>
      </trkpt>
      <trkpt lat="50.61325" lon="3.16446">
        <ele>-24.4</ele>
        <time>2018-06-26T08:53:05Z</time>
      </trkpt>
      <trkpt lat="50.61336" lon="3.16431">
        <ele>-24.4</ele>
        <time>2018-06-26T08:53:09Z</time>
      </trkpt>
      <trkpt lat="50.61348" lon="3.16415">
        <ele>-24</ele>
        <time>2018-06-26T08:53:13Z</time>
      </trkpt>
      <trkpt lat="50.61359" lon="3.16399">
        <ele>-23.6</ele>
        <time>2018-06-26T08:53:17Z</time>
      </trkpt>
      <trkpt lat="50.61369" lon="3.16383">
        <ele>-23.4</ele>
        <time>2018-06-26T08:53:21Z</time>
      </trkpt>
      <trkpt lat="50.61374" lon="3.16376">
        <ele>-23.4</ele>
        <time>2018-06-26T08:53:25Z</time>
      </trkpt>
      <trkpt lat="50.61378" lon="3.16381">
        <ele>-23.6</ele>
        <time>2018-06-26T08:53:29Z</time>
      </trkpt>
      <trkpt lat="50.61381" lon="3.16387">
        <ele>-23.2</ele>
        <time>2018-06-26T08:53:33Z</time>
      </trkpt>
      <trkpt lat="50.61386" lon="3.16395">
        <ele>-23.6</ele>
        <time>2018-06-26T08:53:37Z</time>
      </trkpt>
      <trkpt lat="50.61392" lon="3.16405">
        <ele>-23.6</ele>
        <time>2018-06-26T08:53:41Z</time>
      </trkpt>
      <trkpt lat="50.61399" lon="3.16416">
        <ele>-23.6</ele>
        <time>2018-06-26T08:53:45Z</time>
      </trkpt>
      <trkpt lat="50.61406" lon="3.1643">
        <ele>-23.6</ele>
        <time>2018-06-26T08:53:49Z</time>
      </trkpt>
      <trkpt lat="50.61414" lon="3.16444">
        <ele>-23.6</ele>
        <time>2018-06-26T08:53:53Z</time>
      </trkpt>
      <trkpt lat="50.61422" lon="3.16459">
        <ele>-23.6</ele>
        <time>2018-06-26T08:53:57Z</time>
      </trkpt>
      <trkpt lat="50.61432" lon="3.16474">
        <ele>-23.4</ele>
        <time>2018-06-26T08:54:01Z</time>
      </trkpt>
      <trkpt lat="50.61441" lon="3.16488">
        <ele>-23.2</ele>
        <time>2018-06-26T08:54:05Z</time>
      </trkpt>
      <trkpt lat="50.6145" lon="3.16502">
        <ele>-23.2</ele>
        <time>2018-06-26T08:54:09Z</time>
      </trkpt>
      <trkpt lat="50.61459" lon="3.16516">
        <ele>-23.2</ele>
        <time>2018-06-26T08:54:13Z</time>
      </trkpt>
      <trkpt lat="50.61467" lon="3.16529">
        <ele>-23.2</ele>
        <time>2018-06-26T08:54:17Z</time>
      </trkpt>
      <trkpt lat="50.61476" lon="3.16543">
        <ele>-23.4</ele>
        <time>2018-06-26T08:54:21Z</time>
      </trkpt>
      <trkpt lat="50.61486" lon="3.16559">
        <ele>-23.4</ele>
        <time>2018-06-26T08:54:25Z</time>
      </trkpt>
      <trkpt lat="50.61496" lon="3.16574">
        <ele>-23.2</ele>
        <time>2018-06-26T08:54:29Z</time>
      </trkpt>
      <trkpt lat="50.61506" lon="3.16591">
        <ele>-24.2</ele>
        <time>2018-06-26T08:54:33Z</time>
      </trkpt>
      <trkpt lat="50.61516" lon="3.16607">
        <ele>-24.2</ele>
        <time>2018-06-26T08:54:37Z</time>
      </trkpt>
      <trkpt lat="50.61526" lon="3.16622">
        <ele>-24.6</ele>
        <time>2018-06-26T08:54:41Z</time>
      </trkpt>
      <trkpt lat="50.61535" lon="3.16636">
        <ele>-24.4</ele>
        <time>2018-06-26T08:54:45Z</time>
      </trkpt>
      <trkpt lat="50.61546" lon="3.16636">
        <ele>-24.8</ele>
        <time>2018-06-26T08:54:49Z</time>
      </trkpt>
      <trkpt lat="50.61559" lon="3.16628">
        <ele>-24.8</ele>
        <time>2018-06-26T08:54:53Z</time>
      </trkpt>
      <trkpt lat="50.61572" lon="3.16618">
        <ele>-24.8</ele>
        <time>2018-06-26T08:54:57Z</time>
      </trkpt>
      <trkpt lat="50.61583" lon="3.16605">
        <ele>-24.6</ele>
        <time>2018-06-26T08:55:01Z</time>
      </trkpt>
      <trkpt lat="50.61594" lon="3.1659">
        <ele>-24.4</ele>
        <time>2018-06-26T08:55:05Z</time>
      </trkpt>
      <trkpt lat="50.61604" lon="3.16574">
        <ele>-24</ele>
        <time>2018-06-26T08:55:09Z</time>
      </trkpt>
      <trkpt lat="50.61614" lon="3.16558">
        <ele>-24.6</ele>
        <time>2018-06-26T08:55:13Z</time>
      </trkpt>
      <trkpt lat="50.61623" lon="3.16542">
        <ele>-24.6</ele>
        <time>2018-06-26T08:55:17Z</time>
      </trkpt>
      <trkpt lat="50.61632" lon="3.16527">
        <ele>-24.6</ele>
        <time>2018-06-26T08:55:21Z</time>
      </trkpt>
      <trkpt lat="50.61641" lon="3.16513">
        <ele>-24.6</ele>
        <time>2018-06-26T08:55:25Z</time>
      </trkpt>
      <trkpt lat="50.61654" lon="3.16512">
        <ele>-25.2</ele>
        <time>2018-06-26T08:55:29Z</time>
      </trkpt>
      <trkpt lat="50.61668" lon="3.16511">
        <ele>-24.6</ele>
        <time>2018-06-26T08:55:33Z</time>
      </trkpt>
      <trkpt lat="50.61683" lon="3.1651">
        <ele>-25</ele>
        <time>2018-06-26T08:55:37Z</time>
      </trkpt>
      <trkpt lat="50.61696" lon="3.16509">
        <ele>-24.8</ele>
        <time>2018-06-26T08:55:41Z</time>
      </trkpt>
      <trkpt lat="50.61709" lon="3.16508">
        <ele>-25</ele>
        <time>2018-06-26T08:55:45Z</time>
      </trkpt>
      <trkpt lat="50.61719" lon="3.16501">
        <ele>-25</ele>
        <time>2018-06-26T08:55:49Z</time>
      </trkpt>
      <trkpt lat="50.61723" lon="3.16505">
        <ele>-25</ele>
        <time>2018-06-26T08:55:53Z</time>
      </trkpt>
      <trkpt lat="50.61731" lon="3.16512">
        <ele>-24.6</ele>
        <time>2018-06-26T08:55:57Z</time>
      </trkpt>
      <trkpt lat="50.61743" lon="3.16514">
        <ele>-24.6</ele>
        <time>2018-06-26T08:56:01Z</time>
      </trkpt>
      <trkpt lat="50.61757" lon="3.16514">
        <ele>-24.8</ele>
        <time>2018-06-26T08:56:05Z</time>
      </trkpt>
      <trkpt lat="50.61772" lon="3.16513">
        <ele>-25</ele>
        <time>2018-06-26T08:56:09Z</time>
      </trkpt>
      <trkpt lat="50.61787" lon="3.16513">
        <ele>-24.8</ele>
        <time>2018-06-26T08:56:13Z</time>
      </trkpt>
      <trkpt lat="50.61803" lon="3.16512">
        <ele>-24.8</ele>
        <time>2018-06-26T08:56:17Z</time>
      </trkpt>
      <trkpt lat="50.61817" lon="3.16506">
        <ele>-25</ele>
        <time>2018-06-26T08:56:21Z</time>
      </trkpt>
      <trkpt lat="50.61833" lon="3.16495">
        <ele>-25.6</ele>
        <time>2018-06-26T08:56:25Z</time>
      </trkpt>
      <trkpt lat="50.6185" lon="3.16489">
        <ele>-25.8</ele>
        <time>2018-06-26T08:56:29Z</time>
      </trkpt>
      <trkpt lat="50.61865" lon="3.16483">
        <ele>-25.4</ele>
        <time>2018-06-26T08:56:33Z</time>
      </trkpt>
      <trkpt lat="50.61879" lon="3.16479">
        <ele>-25.4</ele>
        <time>2018-06-26T08:56:37Z</time>
      </trkpt>
      <trkpt lat="50.61892" lon="3.16475">
        <ele>-25.4</ele>
        <time>2018-06-26T08:56:41Z</time>
      </trkpt>
      <trkpt lat="50.61907" lon="3.16472">
        <ele>-25.8</ele>
        <time>2018-06-26T08:56:45Z</time>
      </trkpt>
      <trkpt lat="50.61923" lon="3.16474">
        <ele>-25.8</ele>
        <time>2018-06-26T08:56:49Z</time>
      </trkpt>
      <trkpt lat="50.61935" lon="3.1649">
        <ele>-25.4</ele>
        <time>2018-06-26T08:56:53Z</time>
      </trkpt>
      <trkpt lat="50.61947" lon="3.16508">
        <ele>-25.2</ele>
        <time>2018-06-26T08:56:57Z</time>
      </trkpt>
      <trkpt lat="50.61959" lon="3.16528">
        <ele>-25.4</ele>
        <time>2018-06-26T08:57:01Z</time>
      </trkpt>
      <trkpt lat="50.61972" lon="3.16548">
        <ele>-25.4</ele>
        <time>2018-06-26T08:57:05Z</time>
      </trkpt>
      <trkpt lat="50.61985" lon="3.16568">
        <ele>-25</ele>
        <time>2018-06-26T08:57:09Z</time>
      </trkpt>
      <trkpt lat="50.61998" lon="3.16589">
        <ele>-25.8</ele>
        <time>2018-06-26T08:57:13Z</time>
      </trkpt>
      <trkpt lat="50.62011" lon="3.16607">
        <ele>-25</ele>
        <time>2018-06-26T08:57:17Z</time>
      </trkpt>
      <trkpt lat="50.62025" lon="3.16626">
        <ele>-24.8</ele>
        <time>2018-06-26T08:57:21Z</time>
      </trkpt>
      <trkpt lat="50.62038" lon="3.16648">
        <ele>-25.6</ele>
        <time>2018-06-26T08:57:25Z</time>
      </trkpt>
      <trkpt lat="50.62051" lon="3.16669">
        <ele>-25.6</ele>
        <time>2018-06-26T08:57:29Z</time>
      </trkpt>
      <trkpt lat="50.62064" lon="3.16691">
        <ele>-26</ele>
        <time>2018-06-26T08:57:33Z</time>
      </trkpt>
      <trkpt lat="50.62077" lon="3.16714">
        <ele>-25.6</ele>
        <time>2018-06-26T08:57:37Z</time>
      </trkpt>
      <trkpt lat="50.62088" lon="3.16739">
        <ele>-26</ele>
        <time>2018-06-26T08:57:41Z</time>
      </trkpt>
      <trkpt lat="50.62098" lon="3.16764">
        <ele>-26.4</ele>
        <time>2018-06-26T08:57:45Z</time>
      </trkpt>
      <trkpt lat="50.62107" lon="3.16789">
        <ele>-26.6</ele>
        <time>2018-06-26T08:57:49Z</time>
      </trkpt>
      <trkpt lat="50.62115" lon="3.16813">
        <ele>-26.4</ele>
        <time>2018-06-26T08:57:53Z</time>
      </trkpt>
      <trkpt lat="50.62125" lon="3.16825">
        <ele>-27.2</ele>
        <time>2018-06-26T08:57:57Z</time>
      </trkpt>
      <trkpt lat="50.62137" lon="3.16814">
        <ele>-27.6</ele>
        <time>2018-06-26T08:58:01Z</time>
      </trkpt>
      <trkpt lat="50.6215" lon="3.16802">
        <ele>-27</ele>
        <time>2018-06-26T08:58:05Z</time>
      </trkpt>
      <trkpt lat="50.62161" lon="3.168">
        <ele>-27.4</ele>
        <time>2018-06-26T08:58:09Z</time>
      </trkpt>
      <trkpt lat="50.62163" lon="3.16817">
        <ele>-27.4</ele>
        <time>2018-06-26T08:58:13Z</time>
      </trkpt>
      <trkpt lat="50.62161" lon="3.16835">
        <ele>-28.2</ele>
        <time>2018-06-26T08:58:17Z</time>
      </trkpt>
      <trkpt lat="50.62157" lon="3.16856">
        <ele>-27.8</ele>
        <time>2018-06-26T08:58:21Z</time>
      </trkpt>
      <trkpt lat="50.62157" lon="3.16877">
        <ele>-27.8</ele>
        <time>2018-06-26T08:58:25Z</time>
      </trkpt>
      <trkpt lat="50.62156" lon="3.16899">
        <ele>-29.2</ele>
        <time>2018-06-26T08:58:29Z</time>
      </trkpt>
      <trkpt lat="50.62155" lon="3.16921">
        <ele>-29.2</ele>
        <time>2018-06-26T08:58:33Z</time>
      </trkpt>
      <trkpt lat="50.62155" lon="3.16944">
        <ele>-29.6</ele>
        <time>2018-06-26T08:58:37Z</time>
      </trkpt>
      <trkpt lat="50.62155" lon="3.16968">
        <ele>-30</ele>
        <time>2018-06-26T08:58:41Z</time>
      </trkpt>
      <trkpt lat="50.62158" lon="3.1699">
        <ele>-30.2</ele>
        <time>2018-06-26T08:58:45Z</time>
      </trkpt>
      <trkpt lat="50.6216" lon="3.17013">
        <ele>-31.2</ele>
        <time>2018-06-26T08:58:49Z</time>
      </trkpt>
      <trkpt lat="50.62164" lon="3.17035">
        <ele>-30.6</ele>
        <time>2018-06-26T08:58:53Z</time>
      </trkpt>
      <trkpt lat="50.62168" lon="3.1706">
        <ele>-31.2</ele>
        <time>2018-06-26T08:58:57Z</time>
      </trkpt>
      <trkpt lat="50.62172" lon="3.17084">
        <ele>-31.4</ele>
        <time>2018-06-26T08:59:01Z</time>
      </trkpt>
      <trkpt lat="50.62175" lon="3.17106">
        <ele>-31.4</ele>
        <time>2018-06-26T08:59:05Z</time>
      </trkpt>
      <trkpt lat="50.62183" lon="3.17124">
        <ele>-31.6</ele>
        <time>2018-06-26T08:59:09Z</time>
      </trkpt>
      <trkpt lat="50.62194" lon="3.17137">
        <ele>-32.6</ele>
        <time>2018-06-26T08:59:13Z</time>
      </trkpt>
      <trkpt lat="50.62206" lon="3.1715">
        <ele>-32</ele>
        <time>2018-06-26T08:59:17Z</time>
      </trkpt>
      <trkpt lat="50.62219" lon="3.17163">
        <ele>-31.4</ele>
        <time>2018-06-26T08:59:21Z</time>
      </trkpt>
      <trkpt lat="50.62231" lon="3.17178">
        <ele>-32</ele>
        <time>2018-06-26T08:59:25Z</time>
      </trkpt>
      <trkpt lat="50.62244" lon="3.17193">
        <ele>-31.4</ele>
        <time>2018-06-26T08:59:29Z</time>
      </trkpt>
      <trkpt lat="50.62254" lon="3.1721">
        <ele>-32</ele>
        <time>2018-06-26T08:59:33Z</time>
      </trkpt>
      <trkpt lat="50.62263" lon="3.1723">
        <ele>-32</ele>
        <time>2018-06-26T08:59:37Z</time>
      </trkpt>
      <trkpt lat="50.62271" lon="3.17252">
        <ele>-32.6</ele>
        <time>2018-06-26T08:59:41Z</time>
      </trkpt>
      <trkpt lat="50.62282" lon="3.17272">
        <ele>-32.4</ele>
        <time>2018-06-26T08:59:45Z</time>
      </trkpt>
      <trkpt lat="50.62295" lon="3.17288">
        <ele>-32.4</ele>
        <time>2018-06-26T08:59:49Z</time>
      </trkpt>
      <trkpt lat="50.62309" lon="3.17301">
        <ele>-33.2</ele>
        <time>2018-06-26T08:59:53Z</time>
      </trkpt>
      <trkpt lat="50.62322" lon="3.17312">
        <ele>-33.2</ele>
        <time>2018-06-26T08:59:57Z</time>
      </trkpt>
      <trkpt lat="50.62335" lon="3.17327">
        <ele>-33.2</ele>
        <time>2018-06-26T09:00:01Z</time>
      </trkpt>
      <trkpt lat="50.62348" lon="3.17343">
        <ele>-33</ele>
        <time>2018-06-26T09:00:05Z</time>
      </trkpt>
      <trkpt lat="50.62361" lon="3.1736">
        <ele>-32.8</ele>
        <time>2018-06-26T09:00:09Z</time>
      </trkpt>
      <trkpt lat="50.62373" lon="3.17378">
        <ele>-33.2</ele>
        <time>2018-06-26T09:00:13Z</time>
      </trkpt>
      <trkpt lat="50.62385" lon="3.17396">
        <ele>-33.2</ele>
        <time>2018-06-26T09:00:17Z</time>
      </trkpt>
      <trkpt lat="50.62396" lon="3.17413">
        <ele>-33.8</ele>
        <time>2018-06-26T09:00:21Z</time>
      </trkpt>
      <trkpt lat="50.62406" lon="3.17433">
        <ele>-33.2</ele>
        <time>2018-06-26T09:00:25Z</time>
      </trkpt>
      <trkpt lat="50.62413" lon="3.17455">
        <ele>-33</ele>
        <time>2018-06-26T09:00:29Z</time>
      </trkpt>
      <trkpt lat="50.62419" lon="3.17477">
        <ele>-33.4</ele>
        <time>2018-06-26T09:00:33Z</time>
      </trkpt>
      <trkpt lat="50.62427" lon="3.17496">
        <ele>-33.4</ele>
        <time>2018-06-26T09:00:37Z</time>
      </trkpt>
      <trkpt lat="50.62438" lon="3.1751">
        <ele>-33.4</ele>
        <time>2018-06-26T09:00:41Z</time>
      </trkpt>
      <trkpt lat="50.62448" lon="3.17526">
        <ele>-33.4</ele>
        <time>2018-06-26T09:00:45Z</time>
      </trkpt>
      <trkpt lat="50.62458" lon="3.17542">
        <ele>-33.4</ele>
        <time>2018-06-26T09:00:49Z</time>
      </trkpt>
      <trkpt lat="50.6247" lon="3.17558">
        <ele>-34</ele>
        <time>2018-06-26T09:00:53Z</time>
      </trkpt>
      <trkpt lat="50.6248" lon="3.17572">
        <ele>-33.8</ele>
        <time>2018-06-26T09:00:57Z</time>
      </trkpt>
      <trkpt lat="50.6249" lon="3.17587">
        <ele>-33.8</ele>
        <time>2018-06-26T09:01:01Z</time>
      </trkpt>
      <trkpt lat="50.62498" lon="3.17601">
        <ele>-34.4</ele>
        <time>2018-06-26T09:01:05Z</time>
      </trkpt>
      <trkpt lat="50.62503" lon="3.17613">
        <ele>-34.2</ele>
        <time>2018-06-26T09:01:09Z</time>
      </trkpt>
      <trkpt lat="50.62506" lon="3.1763">
        <ele>-33.8</ele>
        <time>2018-06-26T09:01:13Z</time>
      </trkpt>
      <trkpt lat="50.62499" lon="3.17646">
        <ele>-33.6</ele>
        <time>2018-06-26T09:01:17Z</time>
      </trkpt>
      <trkpt lat="50.62489" lon="3.17659">
        <ele>-33.6</ele>
        <time>2018-06-26T09:01:21Z</time>
      </trkpt>
      <trkpt lat="50.62477" lon="3.17676">
        <ele>-33.8</ele>
        <time>2018-06-26T09:01:25Z</time>
      </trkpt>
      <trkpt lat="50.62465" lon="3.17692">
        <ele>-33.4</ele>
        <time>2018-06-26T09:01:29Z</time>
      </trkpt>
      <trkpt lat="50.62454" lon="3.17707">
        <ele>-33.6</ele>
        <time>2018-06-26T09:01:33Z</time>
      </trkpt>
      <trkpt lat="50.62444" lon="3.17722">
        <ele>-33.6</ele>
        <time>2018-06-26T09:01:37Z</time>
      </trkpt>
      <trkpt lat="50.62436" lon="3.17739">
        <ele>-34.2</ele>
        <time>2018-06-26T09:01:41Z</time>
      </trkpt>
      <trkpt lat="50.62432" lon="3.1776">
        <ele>-33.2</ele>
        <time>2018-06-26T09:01:45Z</time>
      </trkpt>
      <trkpt lat="50.62432" lon="3.17781">
        <ele>-33.4</ele>
        <time>2018-06-26T09:01:49Z</time>
      </trkpt>
      <trkpt lat="50.62436" lon="3.17802">
        <ele>-33.4</ele>
        <time>2018-06-26T09:01:53Z</time>
      </trkpt>
      <trkpt lat="50.62439" lon="3.17823">
        <ele>-33.2</ele>
        <time>2018-06-26T09:01:57Z</time>
      </trkpt>
      <trkpt lat="50.62443" lon="3.17845">
        <ele>-34</ele>
        <time>2018-06-26T09:02:01Z</time>
      </trkpt>
      <trkpt lat="50.62446" lon="3.17866">
        <ele>-33.2</ele>
        <time>2018-06-26T09:02:05Z</time>
      </trkpt>
      <trkpt lat="50.62449" lon="3.17886">
        <ele>-34</ele>
        <time>2018-06-26T09:02:09Z</time>
      </trkpt>
      <trkpt lat="50.62451" lon="3.17905">
        <ele>-34</ele>
        <time>2018-06-26T09:02:13Z</time>
      </trkpt>
      <trkpt lat="50.62453" lon="3.17921">
        <ele>-33.8</ele>
        <time>2018-06-26T09:02:17Z</time>
      </trkpt>
      <trkpt lat="50.6246" lon="3.17932">
        <ele>-33.8</ele>
        <time>2018-06-26T09:02:21Z</time>
      </trkpt>
      <trkpt lat="50.62469" lon="3.17944">
        <ele>-34</ele>
        <time>2018-06-26T09:02:25Z</time>
      </trkpt>
      <trkpt lat="50.62481" lon="3.17957">
        <ele>-33.6</ele>
        <time>2018-06-26T09:02:29Z</time>
      </trkpt>
      <trkpt lat="50.62491" lon="3.17972">
        <ele>-33.8</ele>
        <time>2018-06-26T09:02:33Z</time>
      </trkpt>
      <trkpt lat="50.62502" lon="3.17984">
        <ele>-33.8</ele>
        <time>2018-06-26T09:02:37Z</time>
      </trkpt>
      <trkpt lat="50.6251" lon="3.18005">
        <ele>-33.4</ele>
        <time>2018-06-26T09:02:41Z</time>
      </trkpt>
      <trkpt lat="50.62516" lon="3.18024">
        <ele>-33.2</ele>
        <time>2018-06-26T09:02:45Z</time>
      </trkpt>
      <trkpt lat="50.62518" lon="3.18043">
        <ele>-33.6</ele>
        <time>2018-06-26T09:02:49Z</time>
      </trkpt>
      <trkpt lat="50.6252" lon="3.18064">
        <ele>-33.2</ele>
        <time>2018-06-26T09:02:53Z</time>
      </trkpt>
      <trkpt lat="50.62525" lon="3.18086">
        <ele>-33.8</ele>
        <time>2018-06-26T09:02:57Z</time>
      </trkpt>
      <trkpt lat="50.62531" lon="3.18107">
        <ele>-33.8</ele>
        <time>2018-06-26T09:03:01Z</time>
      </trkpt>
      <trkpt lat="50.62535" lon="3.18127">
        <ele>-33.8</ele>
        <time>2018-06-26T09:03:05Z</time>
      </trkpt>
      <trkpt lat="50.62538" lon="3.18148">
        <ele>-34.2</ele>
        <time>2018-06-26T09:03:09Z</time>
      </trkpt>
      <trkpt lat="50.62543" lon="3.18167">
        <ele>-33.6</ele>
        <time>2018-06-26T09:03:13Z</time>
      </trkpt>
      <trkpt lat="50.62546" lon="3.18186">
        <ele>-33</ele>
        <time>2018-06-26T09:03:17Z</time>
      </trkpt>
      <trkpt lat="50.62554" lon="3.18204">
        <ele>-33.4</ele>
        <time>2018-06-26T09:03:21Z</time>
      </trkpt>
      <trkpt lat="50.62558" lon="3.18227">
        <ele>-34</ele>
        <time>2018-06-26T09:03:25Z</time>
      </trkpt>
      <trkpt lat="50.62565" lon="3.18245">
        <ele>-33.4</ele>
        <time>2018-06-26T09:03:29Z</time>
      </trkpt>
      <trkpt lat="50.62575" lon="3.1826">
        <ele>-33</ele>
        <time>2018-06-26T09:03:33Z</time>
      </trkpt>
      <trkpt lat="50.6258" lon="3.18278">
        <ele>-32.6</ele>
        <time>2018-06-26T09:03:37Z</time>
      </trkpt>
      <trkpt lat="50.62579" lon="3.1829">
        <ele>-33</ele>
        <time>2018-06-26T09:03:41Z</time>
      </trkpt>
      <trkpt lat="50.6258" lon="3.183">
        <ele>-33.4</ele>
        <time>2018-06-26T09:03:45Z</time>
      </trkpt>
      <trkpt lat="50.62579" lon="3.18309">
        <ele>-33.2</ele>
        <time>2018-06-26T09:03:49Z</time>
      </trkpt>
      <trkpt lat="50.62581" lon="3.18309">
        <ele>-33.4</ele>
        <time>2018-06-26T09:03:53Z</time>
      </trkpt>
      <trkpt lat="50.62581" lon="3.18302">
        <ele>-33.4</ele>
        <time>2018-06-26T09:03:57Z</time>
      </trkpt>
      <trkpt lat="50.62583" lon="3.18294">
        <ele>-33.2</ele>
        <time>2018-06-26T09:04:01Z</time>
      </trkpt>
      <trkpt lat="50.6259" lon="3.18289">
        <ele>-32.8</ele>
        <time>2018-06-26T09:04:05Z</time>
      </trkpt>
      <trkpt lat="50.626" lon="3.18292">
        <ele>-33</ele>
        <time>2018-06-26T09:04:09Z</time>
      </trkpt>
      <trkpt lat="50.62613" lon="3.18296">
        <ele>-33.2</ele>
        <time>2018-06-26T09:04:13Z</time>
      </trkpt>
      <trkpt lat="50.62624" lon="3.18299">
        <ele>-32.8</ele>
        <time>2018-06-26T09:04:17Z</time>
      </trkpt>
      <trkpt lat="50.62636" lon="3.18302">
        <ele>-33</ele>
        <time>2018-06-26T09:04:21Z</time>
      </trkpt>
      <trkpt lat="50.62648" lon="3.18306">
        <ele>-32.6</ele>
        <time>2018-06-26T09:04:25Z</time>
      </trkpt>
      <trkpt lat="50.62661" lon="3.1831">
        <ele>-33.2</ele>
        <time>2018-06-26T09:04:29Z</time>
      </trkpt>
      <trkpt lat="50.62674" lon="3.18315">
        <ele>-33.4</ele>
        <time>2018-06-26T09:04:33Z</time>
      </trkpt>
      <trkpt lat="50.62687" lon="3.18318">
        <ele>-33.2</ele>
        <time>2018-06-26T09:04:37Z</time>
      </trkpt>
      <trkpt lat="50.62698" lon="3.18318">
        <ele>-33.2</ele>
        <time>2018-06-26T09:04:41Z</time>
      </trkpt>
      <trkpt lat="50.62713" lon="3.18324">
        <ele>-32.6</ele>
        <time>2018-06-26T09:04:45Z</time>
      </trkpt>
      <trkpt lat="50.62725" lon="3.18331">
        <ele>-33.4</ele>
        <time>2018-06-26T09:04:49Z</time>
      </trkpt>
      <trkpt lat="50.62735" lon="3.18337">
        <ele>-33.4</ele>
        <time>2018-06-26T09:04:53Z</time>
      </trkpt>
      <trkpt lat="50.62739" lon="3.1833">
        <ele>-33</ele>
        <time>2018-06-26T09:04:57Z</time>
      </trkpt>
      <trkpt lat="50.6274" lon="3.18314">
        <ele>-33.4</ele>
        <time>2018-06-26T09:05:01Z</time>
      </trkpt>
      <trkpt lat="50.62742" lon="3.18299">
        <ele>-32.8</ele>
        <time>2018-06-26T09:05:05Z</time>
      </trkpt>
      <trkpt lat="50.62743" lon="3.18283">
        <ele>-33</ele>
        <time>2018-06-26T09:05:09Z</time>
      </trkpt>
      <trkpt lat="50.62742" lon="3.18267">
        <ele>-33.8</ele>
        <time>2018-06-26T09:05:13Z</time>
      </trkpt>
      <trkpt lat="50.62737" lon="3.18254">
        <ele>-34</ele>
        <time>2018-06-26T09:05:17Z</time>
      </trkpt>
      <trkpt lat="50.62739" lon="3.18242">
        <ele>-34</ele>
        <time>2018-06-26T09:05:21Z</time>
      </trkpt>
      <trkpt lat="50.62744" lon="3.18234">
        <ele>-33.8</ele>
        <time>2018-06-26T09:05:25Z</time>
      </trkpt>
      <trkpt lat="50.62752" lon="3.1823">
        <ele>-33.8</ele>
        <time>2018-06-26T09:05:29Z</time>
      </trkpt>
      <trkpt lat="50.62761" lon="3.18228">
        <ele>-33.8</ele>
        <time>2018-06-26T09:05:33Z</time>
      </trkpt>
      <trkpt lat="50.62771" lon="3.18229">
        <ele>-34</ele>
        <time>2018-06-26T09:05:37Z</time>
      </trkpt>
      <trkpt lat="50.6278" lon="3.18229">
        <ele>-34.2</ele>
        <time>2018-06-26T09:05:41Z</time>
      </trkpt>
      <trkpt lat="50.62787" lon="3.18218">
        <ele>-34.2</ele>
        <time>2018-06-26T09:05:45Z</time>
      </trkpt>
      <trkpt lat="50.6279" lon="3.18206">
        <ele>-34.2</ele>
        <time>2018-06-26T09:05:49Z</time>
      </trkpt>
      <trkpt lat="50.62799" lon="3.18206">
        <ele>-34</ele>
        <time>2018-06-26T09:05:53Z</time>
      </trkpt>
      <trkpt lat="50.62806" lon="3.18207">
        <ele>-34.6</ele>
        <time>2018-06-26T09:05:57Z</time>
      </trkpt>
      <trkpt lat="50.62815" lon="3.18208">
        <ele>-34.2</ele>
        <time>2018-06-26T09:06:01Z</time>
      </trkpt>
      <trkpt lat="50.62824" lon="3.18208">
        <ele>-34.2</ele>
        <time>2018-06-26T09:06:05Z</time>
      </trkpt>
      <trkpt lat="50.62833" lon="3.18204">
        <ele>-33.8</ele>
        <time>2018-06-26T09:06:09Z</time>
      </trkpt>
      <trkpt lat="50.62842" lon="3.18203">
        <ele>-33.8</ele>
        <time>2018-06-26T09:06:13Z</time>
      </trkpt>
      <trkpt lat="50.62849" lon="3.18203">
        <ele>-33.4</ele>
        <time>2018-06-26T09:06:17Z</time>
      </trkpt>
      <trkpt lat="50.62856" lon="3.18206">
        <ele>-33.6</ele>
        <time>2018-06-26T09:06:21Z</time>
      </trkpt>
      <trkpt lat="50.6286" lon="3.18195">
        <ele>-34.2</ele>
        <time>2018-06-26T09:06:25Z</time>
      </trkpt>
      <trkpt lat="50.62861" lon="3.18182">
        <ele>-34.2</ele>
        <time>2018-06-26T09:06:29Z</time>
      </trkpt>
      <trkpt lat="50.62861" lon="3.18168">
        <ele>-34.2</ele>
        <time>2018-06-26T09:06:33Z</time>
      </trkpt>
      <trkpt lat="50.62861" lon="3.18151">
        <ele>-34.2</ele>
        <time>2018-06-26T09:06:37Z</time>
      </trkpt>
      <trkpt lat="50.62865" lon="3.18146">
        <ele>-34.2</ele>
        <time>2018-06-26T09:06:41Z</time>
      </trkpt>
      <trkpt lat="50.6287" lon="3.18144">
        <ele>-34</ele>
        <time>2018-06-26T09:06:45Z</time>
      </trkpt>
      <trkpt lat="50.6288" lon="3.18146">
        <ele>-34</ele>
        <time>2018-06-26T09:06:49Z</time>
      </trkpt>
      <trkpt lat="50.62888" lon="3.18146">
        <ele>-34.2</ele>
        <time>2018-06-26T09:06:53Z</time>
      </trkpt>
      <trkpt lat="50.62896" lon="3.18148">
        <ele>-34</ele>
        <time>2018-06-26T09:06:57Z</time>
      </trkpt>
      <trkpt lat="50.62899" lon="3.18155">
        <ele>-34.2</ele>
        <time>2018-06-26T09:07:01Z</time>
      </trkpt>
      <trkpt lat="50.62905" lon="3.18156">
        <ele>-34.4</ele>
        <time>2018-06-26T09:07:05Z</time>
      </trkpt>
      <trkpt lat="50.62909" lon="3.18155">
        <ele>-34.4</ele>
        <time>2018-06-26T09:07:09Z</time>
      </trkpt>
      <trkpt lat="50.62917" lon="3.18151">
        <ele>-34.2</ele>
        <time>2018-06-26T09:07:13Z</time>
      </trkpt>
      <trkpt lat="50.62928" lon="3.18151">
        <ele>-34</ele>
        <time>2018-06-26T09:07:17Z</time>
      </trkpt>
      <trkpt lat="50.62935" lon="3.18155">
        <ele>-32</ele>
        <time>2018-06-26T09:07:21Z</time>
      </trkpt>
      <trkpt lat="50.6294" lon="3.18158">
        <ele>-31.6</ele>
        <time>2018-06-26T09:07:25Z</time>
      </trkpt>
      <trkpt lat="50.62946" lon="3.18165">
        <ele>-32.6</ele>
        <time>2018-06-26T09:07:29Z</time>
      </trkpt>
      <trkpt lat="50.62953" lon="3.18172">
        <ele>-32.6</ele>
        <time>2018-06-26T09:07:33Z</time>
      </trkpt>
      <trkpt lat="50.62953" lon="3.18172">
        <ele>-32.8</ele>
        <time>2018-06-26T09:07:37Z</time>
      </trkpt>
      <trkpt lat="50.62957" lon="3.18182">
        <ele>-33</ele>
        <time>2018-06-26T09:07:41Z</time>
      </trkpt>
      <trkpt lat="50.62959" lon="3.18193">
        <ele>-33.2</ele>
        <time>2018-06-26T09:07:45Z</time>
      </trkpt>
      <trkpt lat="50.62959" lon="3.18206">
        <ele>-33.8</ele>
        <time>2018-06-26T09:07:49Z</time>
      </trkpt>
      <trkpt lat="50.6296" lon="3.1822">
        <ele>-34.2</ele>
        <time>2018-06-26T09:07:53Z</time>
      </trkpt>
      <trkpt lat="50.62967" lon="3.18231">
        <ele>-33.8</ele>
        <time>2018-06-26T09:07:57Z</time>
      </trkpt>
      <trkpt lat="50.62977" lon="3.18241">
        <ele>-32.8</ele>
        <time>2018-06-26T09:08:01Z</time>
      </trkpt>
      <trkpt lat="50.62987" lon="3.18246">
        <ele>-33</ele>
        <time>2018-06-26T09:08:05Z</time>
      </trkpt>
      <trkpt lat="50.62996" lon="3.1825">
        <ele>-33</ele>
        <time>2018-06-26T09:08:09Z</time>
      </trkpt>
      <trkpt lat="50.63006" lon="3.18257">
        <ele>-32.6</ele>
        <time>2018-06-26T09:08:13Z</time>
      </trkpt>
      <trkpt lat="50.63016" lon="3.18261">
        <ele>-33.2</ele>
        <time>2018-06-26T09:08:17Z</time>
      </trkpt>
      <trkpt lat="50.63024" lon="3.18264">
        <ele>-32.8</ele>
        <time>2018-06-26T09:08:21Z</time>
      </trkpt>
      <trkpt lat="50.63024" lon="3.18264">
        <ele>-33</ele>
        <time>2018-06-26T09:08:25Z</time>
      </trkpt>
      <trkpt lat="50.63032" lon="3.18264">
        <ele>-33.8</ele>
        <time>2018-06-26T09:08:29Z</time>
      </trkpt>
      <trkpt lat="50.63038" lon="3.1827">
        <ele>-33.8</ele>
        <time>2018-06-26T09:08:33Z</time>
      </trkpt>
      <trkpt lat="50.63041" lon="3.18282">
        <ele>-33.6</ele>
        <time>2018-06-26T09:08:37Z</time>
      </trkpt>
      <trkpt lat="50.63041" lon="3.18299">
        <ele>-33.6</ele>
        <time>2018-06-26T09:08:41Z</time>
      </trkpt>
      <trkpt lat="50.6304" lon="3.18318">
        <ele>-33.4</ele>
        <time>2018-06-26T09:08:45Z</time>
      </trkpt>
      <trkpt lat="50.63041" lon="3.18339">
        <ele>-33.4</ele>
        <time>2018-06-26T09:08:49Z</time>
      </trkpt>
      <trkpt lat="50.63041" lon="3.18358">
        <ele>-33.2</ele>
        <time>2018-06-26T09:08:53Z</time>
      </trkpt>
      <trkpt lat="50.63042" lon="3.18379">
        <ele>-33.2</ele>
        <time>2018-06-26T09:08:57Z</time>
      </trkpt>
      <trkpt lat="50.63042" lon="3.184">
        <ele>-33.2</ele>
        <time>2018-06-26T09:09:01Z</time>
      </trkpt>
      <trkpt lat="50.63041" lon="3.18417">
        <ele>-32.8</ele>
        <time>2018-06-26T09:09:05Z</time>
      </trkpt>
      <trkpt lat="50.63043" lon="3.18431">
        <ele>-32.6</ele>
        <time>2018-06-26T09:09:09Z</time>
      </trkpt>
      <trkpt lat="50.63051" lon="3.18437">
        <ele>-33</ele>
        <time>2018-06-26T09:09:13Z</time>
      </trkpt>
      <trkpt lat="50.6306" lon="3.18438">
        <ele>-32.8</ele>
        <time>2018-06-26T09:09:17Z</time>
      </trkpt>
      <trkpt lat="50.63072" lon="3.18438">
        <ele>-33</ele>
        <time>2018-06-26T09:09:21Z</time>
      </trkpt>
      <trkpt lat="50.6308" lon="3.18438">
        <ele>-32.8</ele>
        <time>2018-06-26T09:09:25Z</time>
      </trkpt>
      <trkpt lat="50.63101" lon="3.18444">
        <ele>-32.6</ele>
        <time>2018-06-26T09:09:29Z</time>
      </trkpt>
      <trkpt lat="50.63117" lon="3.18452">
        <ele>-32.6</ele>
        <time>2018-06-26T09:09:33Z</time>
      </trkpt>
      <trkpt lat="50.63132" lon="3.18455">
        <ele>-32.6</ele>
        <time>2018-06-26T09:09:37Z</time>
      </trkpt>
      <trkpt lat="50.63147" lon="3.18464">
        <ele>-33</ele>
        <time>2018-06-26T09:09:41Z</time>
      </trkpt>
      <trkpt lat="50.63161" lon="3.1847">
        <ele>-33</ele>
        <time>2018-06-26T09:09:45Z</time>
      </trkpt>
      <trkpt lat="50.63175" lon="3.18475">
        <ele>-32.8</ele>
        <time>2018-06-26T09:09:49Z</time>
      </trkpt>
      <trkpt lat="50.63189" lon="3.1848">
        <ele>-33.2</ele>
        <time>2018-06-26T09:09:53Z</time>
      </trkpt>
      <trkpt lat="50.63201" lon="3.18485">
        <ele>-32.6</ele>
        <time>2018-06-26T09:09:57Z</time>
      </trkpt>
      <trkpt lat="50.63207" lon="3.18496">
        <ele>-33</ele>
        <time>2018-06-26T09:10:01Z</time>
      </trkpt>
      <trkpt lat="50.63204" lon="3.18507">
        <ele>-33.2</ele>
        <time>2018-06-26T09:10:05Z</time>
      </trkpt>
      <trkpt lat="50.63198" lon="3.18516">
        <ele>-33.2</ele>
        <time>2018-06-26T09:10:09Z</time>
      </trkpt>
      <trkpt lat="50.63189" lon="3.1853">
        <ele>-33.6</ele>
        <time>2018-06-26T09:10:13Z</time>
      </trkpt>
      <trkpt lat="50.63179" lon="3.18544">
        <ele>-33.8</ele>
        <time>2018-06-26T09:10:17Z</time>
      </trkpt>
      <trkpt lat="50.63168" lon="3.18557">
        <ele>-33.8</ele>
        <time>2018-06-26T09:10:21Z</time>
      </trkpt>
      <trkpt lat="50.63159" lon="3.18568">
        <ele>-33.4</ele>
        <time>2018-06-26T09:10:25Z</time>
      </trkpt>
      <trkpt lat="50.63149" lon="3.18582">
        <ele>-33.6</ele>
        <time>2018-06-26T09:10:29Z</time>
      </trkpt>
      <trkpt lat="50.63138" lon="3.18598">
        <ele>-33.8</ele>
        <time>2018-06-26T09:10:33Z</time>
      </trkpt>
      <trkpt lat="50.63126" lon="3.18616">
        <ele>-33.4</ele>
        <time>2018-06-26T09:10:37Z</time>
      </trkpt>
      <trkpt lat="50.63114" lon="3.18633">
        <ele>-33.4</ele>
        <time>2018-06-26T09:10:41Z</time>
      </trkpt>
      <trkpt lat="50.63102" lon="3.18651">
        <ele>-33.4</ele>
        <time>2018-06-26T09:10:45Z</time>
      </trkpt>
      <trkpt lat="50.6309" lon="3.18667">
        <ele>-33.6</ele>
        <time>2018-06-26T09:10:49Z</time>
      </trkpt>
      <trkpt lat="50.63078" lon="3.18684">
        <ele>-33.8</ele>
        <time>2018-06-26T09:10:53Z</time>
      </trkpt>
      <trkpt lat="50.63066" lon="3.187">
        <ele>-34</ele>
        <time>2018-06-26T09:10:57Z</time>
      </trkpt>
      <trkpt lat="50.63054" lon="3.18714">
        <ele>-34.6</ele>
        <time>2018-06-26T09:11:01Z</time>
      </trkpt>
      <trkpt lat="50.63042" lon="3.18727">
        <ele>-33.8</ele>
        <time>2018-06-26T09:11:05Z</time>
      </trkpt>
      <trkpt lat="50.63031" lon="3.18738">
        <ele>-33.8</ele>
        <time>2018-06-26T09:11:09Z</time>
      </trkpt>
      <trkpt lat="50.63025" lon="3.18743">
        <ele>-33.8</ele>
        <time>2018-06-26T09:11:13Z</time>
      </trkpt>
      <trkpt lat="50.63022" lon="3.18745">
        <ele>-33.4</ele>
        <time>2018-06-26T09:11:17Z</time>
      </trkpt>
      <trkpt lat="50.63017" lon="3.18756">
        <ele>-33.2</ele>
        <time>2018-06-26T09:11:21Z</time>
      </trkpt>
      <trkpt lat="50.6301" lon="3.18773">
        <ele>-33.8</ele>
        <time>2018-06-26T09:11:25Z</time>
      </trkpt>
      <trkpt lat="50.63001" lon="3.18789">
        <ele>-33.4</ele>
        <time>2018-06-26T09:11:29Z</time>
      </trkpt>
      <trkpt lat="50.62991" lon="3.18805">
        <ele>-33.4</ele>
        <time>2018-06-26T09:11:33Z</time>
      </trkpt>
      <trkpt lat="50.62982" lon="3.18819">
        <ele>-33.8</ele>
        <time>2018-06-26T09:11:37Z</time>
      </trkpt>
      <trkpt lat="50.62971" lon="3.18832">
        <ele>-33.8</ele>
        <time>2018-06-26T09:11:41Z</time>
      </trkpt>
      <trkpt lat="50.62961" lon="3.18842">
        <ele>-33.6</ele>
        <time>2018-06-26T09:11:45Z</time>
      </trkpt>
      <trkpt lat="50.6295" lon="3.18854">
        <ele>-33.8</ele>
        <time>2018-06-26T09:11:49Z</time>
      </trkpt>
      <trkpt lat="50.62942" lon="3.18869">
        <ele>-34</ele>
        <time>2018-06-26T09:11:53Z</time>
      </trkpt>
      <trkpt lat="50.62933" lon="3.18885">
        <ele>-33.8</ele>
        <time>2018-06-26T09:11:57Z</time>
      </trkpt>
      <trkpt lat="50.62928" lon="3.18902">
        <ele>-33.8</ele>
        <time>2018-06-26T09:12:01Z</time>
      </trkpt>
      <trkpt lat="50.6292" lon="3.18921">
        <ele>-33.4</ele>
        <time>2018-06-26T09:12:05Z</time>
      </trkpt>
      <trkpt lat="50.62912" lon="3.18944">
        <ele>-33.2</ele>
        <time>2018-06-26T09:12:09Z</time>
      </trkpt>
      <trkpt lat="50.62904" lon="3.18963">
        <ele>-33.4</ele>
        <time>2018-06-26T09:12:13Z</time>
      </trkpt>
      <trkpt lat="50.62894" lon="3.18983">
        <ele>-33.4</ele>
        <time>2018-06-26T09:12:17Z</time>
      </trkpt>
      <trkpt lat="50.62885" lon="3.19006">
        <ele>-33.8</ele>
        <time>2018-06-26T09:12:21Z</time>
      </trkpt>
      <trkpt lat="50.62876" lon="3.19029">
        <ele>-34</ele>
        <time>2018-06-26T09:12:25Z</time>
      </trkpt>
      <trkpt lat="50.62866" lon="3.1905">
        <ele>-33.6</ele>
        <time>2018-06-26T09:12:29Z</time>
      </trkpt>
      <trkpt lat="50.62855" lon="3.19069">
        <ele>-33.2</ele>
        <time>2018-06-26T09:12:33Z</time>
      </trkpt>
      <trkpt lat="50.62842" lon="3.19086">
        <ele>-33.2</ele>
        <time>2018-06-26T09:12:37Z</time>
      </trkpt>
      <trkpt lat="50.62831" lon="3.19106">
        <ele>-33.2</ele>
        <time>2018-06-26T09:12:41Z</time>
      </trkpt>
      <trkpt lat="50.62822" lon="3.19129">
        <ele>-33.2</ele>
        <time>2018-06-26T09:12:45Z</time>
      </trkpt>
      <trkpt lat="50.62813" lon="3.1915">
        <ele>-33.2</ele>
        <time>2018-06-26T09:12:49Z</time>
      </trkpt>
      <trkpt lat="50.62805" lon="3.19173">
        <ele>-34.2</ele>
        <time>2018-06-26T09:12:53Z</time>
      </trkpt>
      <trkpt lat="50.62796" lon="3.19195">
        <ele>-33.4</ele>
        <time>2018-06-26T09:12:57Z</time>
      </trkpt>
      <trkpt lat="50.62789" lon="3.19215">
        <ele>-33.2</ele>
        <time>2018-06-26T09:13:01Z</time>
      </trkpt>
      <trkpt lat="50.62781" lon="3.19235">
        <ele>-33.4</ele>
        <time>2018-06-26T09:13:05Z</time>
      </trkpt>
      <trkpt lat="50.62772" lon="3.19256">
        <ele>-33.4</ele>
        <time>2018-06-26T09:13:09Z</time>
      </trkpt>
      <trkpt lat="50.62762" lon="3.19278">
        <ele>-33.2</ele>
        <time>2018-06-26T09:13:13Z</time>
      </trkpt>
      <trkpt lat="50.62753" lon="3.19301">
        <ele>-33.2</ele>
        <time>2018-06-26T09:13:17Z</time>
      </trkpt>
      <trkpt lat="50.62744" lon="3.19324">
        <ele>-33.2</ele>
        <time>2018-06-26T09:13:21Z</time>
      </trkpt>
      <trkpt lat="50.62735" lon="3.19349">
        <ele>-33</ele>
        <time>2018-06-26T09:13:25Z</time>
      </trkpt>
      <trkpt lat="50.62725" lon="3.19372">
        <ele>-33.4</ele>
        <time>2018-06-26T09:13:29Z</time>
      </trkpt>
      <trkpt lat="50.62716" lon="3.19396">
        <ele>-33.2</ele>
        <time>2018-06-26T09:13:33Z</time>
      </trkpt>
      <trkpt lat="50.62707" lon="3.19421">
        <ele>-33</ele>
        <time>2018-06-26T09:13:37Z</time>
      </trkpt>
      <trkpt lat="50.62698" lon="3.19444">
        <ele>-32.6</ele>
        <time>2018-06-26T09:13:41Z</time>
      </trkpt>
      <trkpt lat="50.62689" lon="3.19466">
        <ele>-33.4</ele>
        <time>2018-06-26T09:13:45Z</time>
      </trkpt>
      <trkpt lat="50.62681" lon="3.19487">
        <ele>-33.2</ele>
        <time>2018-06-26T09:13:49Z</time>
      </trkpt>
      <trkpt lat="50.62674" lon="3.19508">
        <ele>-33.2</ele>
        <time>2018-06-26T09:13:53Z</time>
      </trkpt>
      <trkpt lat="50.62667" lon="3.19526">
        <ele>-33</ele>
        <time>2018-06-26T09:13:57Z</time>
      </trkpt>
      <trkpt lat="50.62661" lon="3.19546">
        <ele>-32.8</ele>
        <time>2018-06-26T09:14:01Z</time>
      </trkpt>
      <trkpt lat="50.62654" lon="3.1956">
        <ele>-32.8</ele>
        <time>2018-06-26T09:14:05Z</time>
      </trkpt>
      <trkpt lat="50.6266" lon="3.19573">
        <ele>-33</ele>
        <time>2018-06-26T09:14:09Z</time>
      </trkpt>
      <trkpt lat="50.62669" lon="3.1958">
        <ele>-33</ele>
        <time>2018-06-26T09:14:13Z</time>
      </trkpt>
      <trkpt lat="50.62681" lon="3.19588">
        <ele>-33</ele>
        <time>2018-06-26T09:14:17Z</time>
      </trkpt>
      <trkpt lat="50.62692" lon="3.19595">
        <ele>-32.8</ele>
        <time>2018-06-26T09:14:21Z</time>
      </trkpt>
      <trkpt lat="50.62701" lon="3.19609">
        <ele>-32.8</ele>
        <time>2018-06-26T09:14:25Z</time>
      </trkpt>
      <trkpt lat="50.62703" lon="3.19631">
        <ele>-33.2</ele>
        <time>2018-06-26T09:14:29Z</time>
      </trkpt>
      <trkpt lat="50.62702" lon="3.1965">
        <ele>-33</ele>
        <time>2018-06-26T09:14:33Z</time>
      </trkpt>
      <trkpt lat="50.62702" lon="3.19659">
        <ele>-33.2</ele>
        <time>2018-06-26T09:14:37Z</time>
      </trkpt>
      <trkpt lat="50.62705" lon="3.19666">
        <ele>-33.2</ele>
        <time>2018-06-26T09:14:41Z</time>
      </trkpt>
      <trkpt lat="50.62716" lon="3.19663">
        <ele>-33</ele>
        <time>2018-06-26T09:14:45Z</time>
      </trkpt>
      <trkpt lat="50.6273" lon="3.19656">
        <ele>-33</ele>
        <time>2018-06-26T09:14:49Z</time>
      </trkpt>
      <trkpt lat="50.62744" lon="3.19648">
        <ele>-33.2</ele>
        <time>2018-06-26T09:14:53Z</time>
      </trkpt>
      <trkpt lat="50.62758" lon="3.19648">
        <ele>-33.2</ele>
        <time>2018-06-26T09:14:57Z</time>
      </trkpt>
      <trkpt lat="50.62767" lon="3.1965">
        <ele>-33.4</ele>
        <time>2018-06-26T09:15:01Z</time>
      </trkpt>
      <trkpt lat="50.62776" lon="3.19651">
        <ele>-33.4</ele>
        <time>2018-06-26T09:15:05Z</time>
      </trkpt>
      <trkpt lat="50.62784" lon="3.19651">
        <ele>-33.8</ele>
        <time>2018-06-26T09:15:09Z</time>
      </trkpt>
      <trkpt lat="50.62793" lon="3.19651">
        <ele>-33.2</ele>
        <time>2018-06-26T09:15:13Z</time>
      </trkpt>
      <trkpt lat="50.62802" lon="3.19651">
        <ele>-33.6</ele>
        <time>2018-06-26T09:15:17Z</time>
      </trkpt>
      <trkpt lat="50.6281" lon="3.19651">
        <ele>-33.6</ele>
        <time>2018-06-26T09:15:21Z</time>
      </trkpt>
      <trkpt lat="50.62819" lon="3.19652">
        <ele>-33.2</ele>
        <time>2018-06-26T09:15:25Z</time>
      </trkpt>
      <trkpt lat="50.62829" lon="3.19653">
        <ele>-33.8</ele>
        <time>2018-06-26T09:15:29Z</time>
      </trkpt>
      <trkpt lat="50.62837" lon="3.19653">
        <ele>-33.8</ele>
        <time>2018-06-26T09:15:33Z</time>
      </trkpt>
      <trkpt lat="50.62846" lon="3.19653">
        <ele>-33.4</ele>
        <time>2018-06-26T09:15:37Z</time>
      </trkpt>
      <trkpt lat="50.62854" lon="3.19654">
        <ele>-33.8</ele>
        <time>2018-06-26T09:15:41Z</time>
      </trkpt>
      <trkpt lat="50.62863" lon="3.19654">
        <ele>-34.2</ele>
        <time>2018-06-26T09:15:45Z</time>
      </trkpt>
      <trkpt lat="50.62873" lon="3.19655">
        <ele>-34</ele>
        <time>2018-06-26T09:15:49Z</time>
      </trkpt>
      <trkpt lat="50.62882" lon="3.19655">
        <ele>-33.2</ele>
        <time>2018-06-26T09:15:53Z</time>
      </trkpt>
      <trkpt lat="50.6289" lon="3.19655">
        <ele>-34</ele>
        <time>2018-06-26T09:15:57Z</time>
      </trkpt>
      <trkpt lat="50.62898" lon="3.19656">
        <ele>-34.6</ele>
        <time>2018-06-26T09:16:01Z</time>
      </trkpt>
      <trkpt lat="50.62906" lon="3.19656">
        <ele>-34</ele>
        <time>2018-06-26T09:16:05Z</time>
      </trkpt>
      <trkpt lat="50.62913" lon="3.19657">
        <ele>-34.2</ele>
        <time>2018-06-26T09:16:09Z</time>
      </trkpt>
      <trkpt lat="50.6292" lon="3.19657">
        <ele>-34</ele>
        <time>2018-06-26T09:16:13Z</time>
      </trkpt>
      <trkpt lat="50.62928" lon="3.19657">
        <ele>-34.8</ele>
        <time>2018-06-26T09:16:17Z</time>
      </trkpt>
      <trkpt lat="50.62935" lon="3.19658">
        <ele>-34.4</ele>
        <time>2018-06-26T09:16:21Z</time>
      </trkpt>
      <trkpt lat="50.62943" lon="3.19658">
        <ele>-34</ele>
        <time>2018-06-26T09:16:25Z</time>
      </trkpt>
      <trkpt lat="50.62952" lon="3.19658">
        <ele>-33.8</ele>
        <time>2018-06-26T09:16:29Z</time>
      </trkpt>
      <trkpt lat="50.62961" lon="3.19658">
        <ele>-33.6</ele>
        <time>2018-06-26T09:16:33Z</time>
      </trkpt>
      <trkpt lat="50.62969" lon="3.19659">
        <ele>-33.6</ele>
        <time>2018-06-26T09:16:37Z</time>
      </trkpt>
      <trkpt lat="50.62978" lon="3.19659">
        <ele>-33.2</ele>
        <time>2018-06-26T09:16:41Z</time>
      </trkpt>
      <trkpt lat="50.62986" lon="3.1966">
        <ele>-33.2</ele>
        <time>2018-06-26T09:16:45Z</time>
      </trkpt>
      <trkpt lat="50.62993" lon="3.1966">
        <ele>-33.2</ele>
        <time>2018-06-26T09:16:49Z</time>
      </trkpt>
      <trkpt lat="50.63001" lon="3.1966">
        <ele>-33.2</ele>
        <time>2018-06-26T09:16:53Z</time>
      </trkpt>
      <trkpt lat="50.63007" lon="3.1966">
        <ele>-33.2</ele>
        <time>2018-06-26T09:16:57Z</time>
      </trkpt>
      <trkpt lat="50.63013" lon="3.19661">
        <ele>-33</ele>
        <time>2018-06-26T09:17:01Z</time>
      </trkpt>
      <trkpt lat="50.6302" lon="3.1966">
        <ele>-32.8</ele>
        <time>2018-06-26T09:17:05Z</time>
      </trkpt>
      <trkpt lat="50.63028" lon="3.1966">
        <ele>-32.8</ele>
        <time>2018-06-26T09:17:09Z</time>
      </trkpt>
      <trkpt lat="50.63036" lon="3.19659">
        <ele>-32.8</ele>
        <time>2018-06-26T09:17:13Z</time>
      </trkpt>
      <trkpt lat="50.63044" lon="3.19659">
        <ele>-32.8</ele>
        <time>2018-06-26T09:17:17Z</time>
      </trkpt>
      <trkpt lat="50.63053" lon="3.1966">
        <ele>-32.4</ele>
        <time>2018-06-26T09:17:21Z</time>
      </trkpt>
      <trkpt lat="50.63061" lon="3.1966">
        <ele>-32.8</ele>
        <time>2018-06-26T09:17:25Z</time>
      </trkpt>
      <trkpt lat="50.6307" lon="3.1966">
        <ele>-32.4</ele>
        <time>2018-06-26T09:17:29Z</time>
      </trkpt>
      <trkpt lat="50.6308" lon="3.19661">
        <ele>-32.4</ele>
        <time>2018-06-26T09:17:33Z</time>
      </trkpt>
      <trkpt lat="50.63089" lon="3.19662">
        <ele>-32.4</ele>
        <time>2018-06-26T09:17:37Z</time>
      </trkpt>
      <trkpt lat="50.631" lon="3.19663">
        <ele>-32.6</ele>
        <time>2018-06-26T09:17:41Z</time>
      </trkpt>
      <trkpt lat="50.6311" lon="3.19663">
        <ele>-32.6</ele>
        <time>2018-06-26T09:17:45Z</time>
      </trkpt>
      <trkpt lat="50.6312" lon="3.19663">
        <ele>-33.2</ele>
        <time>2018-06-26T09:17:49Z</time>
      </trkpt>
      <trkpt lat="50.6313" lon="3.19664">
        <ele>-33.2</ele>
        <time>2018-06-26T09:17:53Z</time>
      </trkpt>
      <trkpt lat="50.63138" lon="3.19665">
        <ele>-32.6</ele>
        <time>2018-06-26T09:17:57Z</time>
      </trkpt>
      <trkpt lat="50.63147" lon="3.19664">
        <ele>-32.8</ele>
        <time>2018-06-26T09:18:01Z</time>
      </trkpt>
      <trkpt lat="50.63155" lon="3.19665">
        <ele>-32.6</ele>
        <time>2018-06-26T09:18:05Z</time>
      </trkpt>
      <trkpt lat="50.63164" lon="3.19667">
        <ele>-33</ele>
        <time>2018-06-26T09:18:09Z</time>
      </trkpt>
      <trkpt lat="50.63173" lon="3.19666">
        <ele>-32.6</ele>
        <time>2018-06-26T09:18:13Z</time>
      </trkpt>
      <trkpt lat="50.63182" lon="3.19667">
        <ele>-32.8</ele>
        <time>2018-06-26T09:18:17Z</time>
      </trkpt>
      <trkpt lat="50.63191" lon="3.19666">
        <ele>-32.8</ele>
        <time>2018-06-26T09:18:21Z</time>
      </trkpt>
      <trkpt lat="50.63201" lon="3.19666">
        <ele>-33.2</ele>
        <time>2018-06-26T09:18:25Z</time>
      </trkpt>
      <trkpt lat="50.6321" lon="3.19666">
        <ele>-33.2</ele>
        <time>2018-06-26T09:18:29Z</time>
      </trkpt>
      <trkpt lat="50.63219" lon="3.19666">
        <ele>-33</ele>
        <time>2018-06-26T09:18:33Z</time>
      </trkpt>
      <trkpt lat="50.63229" lon="3.19667">
        <ele>-33.2</ele>
        <time>2018-06-26T09:18:37Z</time>
      </trkpt>
      <trkpt lat="50.63238" lon="3.19667">
        <ele>-33.2</ele>
        <time>2018-06-26T09:18:41Z</time>
      </trkpt>
      <trkpt lat="50.63247" lon="3.19667">
        <ele>-33.4</ele>
        <time>2018-06-26T09:18:45Z</time>
      </trkpt>
      <trkpt lat="50.63256" lon="3.19667">
        <ele>-33.8</ele>
        <time>2018-06-26T09:18:49Z</time>
      </trkpt>
      <trkpt lat="50.63265" lon="3.19668">
        <ele>-33.4</ele>
        <time>2018-06-26T09:18:53Z</time>
      </trkpt>
      <trkpt lat="50.63274" lon="3.19668">
        <ele>-33.8</ele>
        <time>2018-06-26T09:18:57Z</time>
      </trkpt>
      <trkpt lat="50.63283" lon="3.19668">
        <ele>-33.8</ele>
        <time>2018-06-26T09:19:01Z</time>
      </trkpt>
      <trkpt lat="50.63292" lon="3.19669">
        <ele>-33.4</ele>
        <time>2018-06-26T09:19:05Z</time>
      </trkpt>
      <trkpt lat="50.633" lon="3.19669">
        <ele>-33.6</ele>
        <time>2018-06-26T09:19:09Z</time>
      </trkpt>
      <trkpt lat="50.63309" lon="3.19669">
        <ele>-33.6</ele>
        <time>2018-06-26T09:19:13Z</time>
      </trkpt>
      <trkpt lat="50.63318" lon="3.1967">
        <ele>-33.2</ele>
        <time>2018-06-26T09:19:17Z</time>
      </trkpt>
      <trkpt lat="50.63326" lon="3.1967">
        <ele>-33.2</ele>
        <time>2018-06-26T09:19:21Z</time>
      </trkpt>
      <trkpt lat="50.63335" lon="3.19669">
        <ele>-33.6</ele>
        <time>2018-06-26T09:19:25Z</time>
      </trkpt>
      <trkpt lat="50.63345" lon="3.1967">
        <ele>-33.8</ele>
        <time>2018-06-26T09:19:29Z</time>
      </trkpt>
      <trkpt lat="50.63354" lon="3.1967">
        <ele>-33.4</ele>
        <time>2018-06-26T09:19:33Z</time>
      </trkpt>
      <trkpt lat="50.63364" lon="3.19671">
        <ele>-33</ele>
        <time>2018-06-26T09:19:37Z</time>
      </trkpt>
      <trkpt lat="50.63374" lon="3.19672">
        <ele>-33.8</ele>
        <time>2018-06-26T09:19:41Z</time>
      </trkpt>
      <trkpt lat="50.63383" lon="3.19671">
        <ele>-33.2</ele>
        <time>2018-06-26T09:19:45Z</time>
      </trkpt>
      <trkpt lat="50.63392" lon="3.19671">
        <ele>-33</ele>
        <time>2018-06-26T09:19:49Z</time>
      </trkpt>
      <trkpt lat="50.63401" lon="3.19671">
        <ele>-33.4</ele>
        <time>2018-06-26T09:19:53Z</time>
      </trkpt>
      <trkpt lat="50.6341" lon="3.19671">
        <ele>-33.2</ele>
        <time>2018-06-26T09:19:57Z</time>
      </trkpt>
      <trkpt lat="50.63419" lon="3.19672">
        <ele>-33.4</ele>
        <time>2018-06-26T09:20:01Z</time>
      </trkpt>
      <trkpt lat="50.63428" lon="3.19672">
        <ele>-33</ele>
        <time>2018-06-26T09:20:05Z</time>
      </trkpt>
      <trkpt lat="50.63437" lon="3.19673">
        <ele>-33</ele>
        <time>2018-06-26T09:20:09Z</time>
      </trkpt>
      <trkpt lat="50.63446" lon="3.19675">
        <ele>-32.8</ele>
        <time>2018-06-26T09:20:13Z</time>
      </trkpt>
      <trkpt lat="50.63455" lon="3.19676">
        <ele>-33.8</ele>
        <time>2018-06-26T09:20:17Z</time>
      </trkpt>
      <trkpt lat="50.63463" lon="3.19676">
        <ele>-32.6</ele>
        <time>2018-06-26T09:20:21Z</time>
      </trkpt>
      <trkpt lat="50.63471" lon="3.19674">
        <ele>-32.4</ele>
        <time>2018-06-26T09:20:25Z</time>
      </trkpt>
      <trkpt lat="50.63476" lon="3.19679">
        <ele>-32.8</ele>
        <time>2018-06-26T09:20:29Z</time>
      </trkpt>
      <trkpt lat="50.63476" lon="3.19679">
        <ele>-33</ele>
        <time>2018-06-26T09:20:33Z</time>
      </trkpt>
      <trkpt lat="50.63478" lon="3.19685">
        <ele>-32.6</ele>
        <time>2018-06-26T09:20:37Z</time>
      </trkpt>
      <trkpt lat="50.63478" lon="3.19685">
        <ele>-32.8</ele>
        <time>2018-06-26T09:20:41Z</time>
      </trkpt>
      <trkpt lat="50.63478" lon="3.19685">
        <ele>-33</ele>
        <time>2018-06-26T09:20:45Z</time>
      </trkpt>
      <trkpt lat="50.63478" lon="3.19685">
        <ele>-33</ele>
        <time>2018-06-26T09:20:49Z</time>
      </trkpt>
      <trkpt lat="50.63478" lon="3.19685">
        <ele>-32.8</ele>
        <time>2018-06-26T09:20:53Z</time>
      </trkpt>
      <trkpt lat="50.63478" lon="3.19685">
        <ele>-33</ele>
        <time>2018-06-26T09:20:57Z</time>
      </trkpt>
      <trkpt lat="50.63478" lon="3.19685">
        <ele>-32.8</ele>
        <time>2018-06-26T09:21:01Z</time>
      </trkpt>
      <trkpt lat="50.63478" lon="3.19685">
        <ele>-33.2</ele>
        <time>2018-06-26T09:21:05Z</time>
      </trkpt>
      <trkpt lat="50.63478" lon="3.19685">
        <ele>-33</ele>
        <time>2018-06-26T09:21:09Z</time>
      </trkpt>
      <trkpt lat="50.63478" lon="3.19685">
        <ele>-32.8</ele>
        <time>2018-06-26T09:21:13Z</time>
      </trkpt>
      <trkpt lat="50.63478" lon="3.19685">
        <ele>-32.8</ele>
        <time>2018-06-26T09:21:17Z</time>
      </trkpt>
      <trkpt lat="50.63478" lon="3.19685">
        <ele>-32.8</ele>
        <time>2018-06-26T09:21:21Z</time>
      </trkpt>
      <trkpt lat="50.63478" lon="3.19685">
        <ele>-33.2</ele>
        <time>2018-06-26T09:21:25Z</time>
      </trkpt>
      <trkpt lat="50.63478" lon="3.19685">
        <ele>-33</ele>
        <time>2018-06-26T09:21:29Z</time>
      </trkpt>
      <trkpt lat="50.63478" lon="3.19685">
        <ele>-33</ele>
        <time>2018-06-26T09:21:33Z</time>
      </trkpt>
      <trkpt lat="50.63477" lon="3.19685">
        <ele>-33.2</ele>
        <time>2018-06-26T09:21:37Z</time>
      </trkpt>
      <trkpt lat="50.63477" lon="3.19685">
        <ele>-33</ele>
        <time>2018-06-26T09:21:41Z</time>
      </trkpt>
      <trkpt lat="50.63477" lon="3.19685">
        <ele>-33.2</ele>
        <time>2018-06-26T09:21:45Z</time>
      </trkpt>
      <trkpt lat="50.63477" lon="3.19685">
        <ele>-33.4</ele>
        <time>2018-06-26T09:21:49Z</time>
      </trkpt>
      <trkpt lat="50.63477" lon="3.19685">
        <ele>-33.2</ele>
        <time>2018-06-26T09:21:53Z</time>
      </trkpt>
      <trkpt lat="50.63477" lon="3.19685">
        <ele>-33.2</ele>
        <time>2018-06-26T09:21:57Z</time>
      </trkpt>
      <trkpt lat="50.63477" lon="3.19685">
        <ele>-33.4</ele>
        <time>2018-06-26T09:22:01Z</time>
      </trkpt>
      <trkpt lat="50.63477" lon="3.19685">
        <ele>-33.2</ele>
        <time>2018-06-26T09:22:05Z</time>
      </trkpt>
      <trkpt lat="50.63477" lon="3.19685">
        <ele>-32.6</ele>
        <time>2018-06-26T09:22:09Z</time>
      </trkpt>
      <trkpt lat="50.63477" lon="3.19685">
        <ele>-32.8</ele>
        <time>2018-06-26T09:22:13Z</time>
      </trkpt>
      <trkpt lat="50.63477" lon="3.19685">
        <ele>-32.6</ele>
        <time>2018-06-26T09:22:17Z</time>
      </trkpt>
      <trkpt lat="50.63477" lon="3.19685">
        <ele>-32.6</ele>
        <time>2018-06-26T09:22:21Z</time>
      </trkpt>
      <trkpt lat="50.63477" lon="3.19685">
        <ele>-33</ele>
        <time>2018-06-26T09:22:25Z</time>
      </trkpt>
      <trkpt lat="50.63477" lon="3.19685">
        <ele>-32.6</ele>
        <time>2018-06-26T09:22:29Z</time>
      </trkpt>
      <trkpt lat="50.63477" lon="3.19685">
        <ele>-32.8</ele>
        <time>2018-06-26T09:22:33Z</time>
      </trkpt>
      <trkpt lat="50.63477" lon="3.19685">
        <ele>-32.4</ele>
        <time>2018-06-26T09:22:37Z</time>
      </trkpt>
      <trkpt lat="50.63477" lon="3.19685">
        <ele>-32.8</ele>
        <time>2018-06-26T09:22:41Z</time>
      </trkpt>
      <trkpt lat="50.63477" lon="3.19685">
        <ele>-32.6</ele>
        <time>2018-06-26T09:22:45Z</time>
      </trkpt>
      <trkpt lat="50.63477" lon="3.19685">
        <ele>-32.2</ele>
        <time>2018-06-26T09:22:49Z</time>
      </trkpt>
      <trkpt lat="50.63477" lon="3.19685">
        <ele>-32.4</ele>
        <time>2018-06-26T09:22:53Z</time>
      </trkpt>
      <trkpt lat="50.63477" lon="3.19685">
        <ele>-32.8</ele>
        <time>2018-06-26T09:22:57Z</time>
      </trkpt>
      <trkpt lat="50.63477" lon="3.19685">
        <ele>-32.6</ele>
        <time>2018-06-26T09:23:01Z</time>
      </trkpt>
      <trkpt lat="50.63477" lon="3.19685">
        <ele>-32.8</ele>
        <time>2018-06-26T09:23:05Z</time>
      </trkpt>
      <trkpt lat="50.63477" lon="3.19685">
        <ele>-32.4</ele>
        <time>2018-06-26T09:23:09Z</time>
      </trkpt>
      <trkpt lat="50.63477" lon="3.19685">
        <ele>-32.4</ele>
        <time>2018-06-26T09:23:13Z</time>
      </trkpt>
      <trkpt lat="50.63477" lon="3.19685">
        <ele>-32.6</ele>
        <time>2018-06-26T09:23:17Z</time>
      </trkpt>
      <trkpt lat="50.63477" lon="3.19685">
        <ele>-32.6</ele>
        <time>2018-06-26T09:23:21Z</time>
      </trkpt>
      <trkpt lat="50.63477" lon="3.19685">
        <ele>-32.2</ele>
        <time>2018-06-26T09:23:25Z</time>
      </trkpt>
      <trkpt lat="50.63477" lon="3.19685">
        <ele>-32.6</ele>
        <time>2018-06-26T09:23:29Z</time>
      </trkpt>
      <trkpt lat="50.63477" lon="3.19685">
        <ele>-32</ele>
        <time>2018-06-26T09:23:33Z</time>
      </trkpt>
      <trkpt lat="50.63477" lon="3.19685">
        <ele>-32</ele>
        <time>2018-06-26T09:23:37Z</time>
      </trkpt>
      <trkpt lat="50.63477" lon="3.19685">
        <ele>-32</ele>
        <time>2018-06-26T09:23:41Z</time>
      </trkpt>
      <trkpt lat="50.63477" lon="3.19685">
        <ele>-32.4</ele>
        <time>2018-06-26T09:23:45Z</time>
      </trkpt>
      <trkpt lat="50.63477" lon="3.19685">
        <ele>-32.4</ele>
        <time>2018-06-26T09:23:49Z</time>
      </trkpt>
      <trkpt lat="50.63477" lon="3.19685">
        <ele>-32.2</ele>
        <time>2018-06-26T09:23:53Z</time>
      </trkpt>
      <trkpt lat="50.63477" lon="3.19685">
        <ele>-32.2</ele>
        <time>2018-06-26T09:23:57Z</time>
      </trkpt>
      <trkpt lat="50.63477" lon="3.19685">
        <ele>-32.4</ele>
        <time>2018-06-26T09:24:01Z</time>
      </trkpt>
      <trkpt lat="50.63477" lon="3.19685">
        <ele>-32.4</ele>
        <time>2018-06-26T09:24:05Z</time>
      </trkpt>
      <trkpt lat="50.63477" lon="3.19685">
        <ele>-32.2</ele>
        <time>2018-06-26T09:24:09Z</time>
      </trkpt>
      <trkpt lat="50.63477" lon="3.19685">
        <ele>-32.4</ele>
        <time>2018-06-26T09:24:13Z</time>
      </trkpt>
      <trkpt lat="50.63477" lon="3.19685">
        <ele>-32</ele>
        <time>2018-06-26T09:24:17Z</time>
      </trkpt>
      <trkpt lat="50.63477" lon="3.19685">
        <ele>-32.4</ele>
        <time>2018-06-26T09:24:21Z</time>
      </trkpt>
      <trkpt lat="50.63477" lon="3.19685">
        <ele>-32.2</ele>
        <time>2018-06-26T09:24:25Z</time>
      </trkpt>
      <trkpt lat="50.63477" lon="3.19685">
        <ele>-32.4</ele>
        <time>2018-06-26T09:24:29Z</time>
      </trkpt>
      <trkpt lat="50.63477" lon="3.19685">
        <ele>-32.6</ele>
        <time>2018-06-26T09:24:33Z</time>
      </trkpt>
      <trkpt lat="50.63477" lon="3.19685">
        <ele>-32.4</ele>
        <time>2018-06-26T09:24:37Z</time>
      </trkpt>
      <trkpt lat="50.63477" lon="3.19685">
        <ele>-32.4</ele>
        <time>2018-06-26T09:24:41Z</time>
      </trkpt>
      <trkpt lat="50.63477" lon="3.19685">
        <ele>-32.4</ele>
        <time>2018-06-26T09:24:45Z</time>
      </trkpt>
      <trkpt lat="50.63477" lon="3.19685">
        <ele>-32.6</ele>
        <time>2018-06-26T09:24:49Z</time>
      </trkpt>
      <trkpt lat="50.63477" lon="3.19685">
        <ele>-32.2</ele>
        <time>2018-06-26T09:24:53Z</time>
      </trkpt>
      <trkpt lat="50.63477" lon="3.19685">
        <ele>-32.2</ele>
        <time>2018-06-26T09:24:57Z</time>
      </trkpt>
      <trkpt lat="50.63477" lon="3.19685">
        <ele>-32</ele>
        <time>2018-06-26T09:25:01Z</time>
      </trkpt>
      <trkpt lat="50.63477" lon="3.19685">
        <ele>-32.2</ele>
        <time>2018-06-26T09:25:05Z</time>
      </trkpt>
      <trkpt lat="50.63477" lon="3.19685">
        <ele>-32.4</ele>
        <time>2018-06-26T09:25:09Z</time>
      </trkpt>
      <trkpt lat="50.63477" lon="3.19685">
        <ele>-32.6</ele>
        <time>2018-06-26T09:25:13Z</time>
      </trkpt>
      <trkpt lat="50.63477" lon="3.19685">
        <ele>-32.4</ele>
        <time>2018-06-26T09:25:17Z</time>
      </trkpt>
      <trkpt lat="50.63477" lon="3.19685">
        <ele>-32.2</ele>
        <time>2018-06-26T09:25:21Z</time>
      </trkpt>
      <trkpt lat="50.63477" lon="3.19685">
        <ele>-32.4</ele>
        <time>2018-06-26T09:25:25Z</time>
      </trkpt>
      <trkpt lat="50.63477" lon="3.19685">
        <ele>-32.6</ele>
        <time>2018-06-26T09:25:29Z</time>
      </trkpt>
      <trkpt lat="50.63477" lon="3.19685">
        <ele>-32.4</ele>
        <time>2018-06-26T09:25:33Z</time>
      </trkpt>
      <trkpt lat="50.63477" lon="3.19685">
        <ele>-32.4</ele>
        <time>2018-06-26T09:25:37Z</time>
      </trkpt>
      <trkpt lat="50.63477" lon="3.19685">
        <ele>-32.4</ele>
        <time>2018-06-26T09:25:41Z</time>
      </trkpt>
      <trkpt lat="50.63477" lon="3.19685">
        <ele>-32.2</ele>
        <time>2018-06-26T09:25:45Z</time>
      </trkpt>
      <trkpt lat="50.63477" lon="3.19685">
        <ele>-32.4</ele>
        <time>2018-06-26T09:25:49Z</time>
      </trkpt>
      <trkpt lat="50.63477" lon="3.19685">
        <ele>-32</ele>
        <time>2018-06-26T09:25:53Z</time>
      </trkpt>
      <trkpt lat="50.63477" lon="3.19685">
        <ele>-32.2</ele>
        <time>2018-06-26T09:25:57Z</time>
      </trkpt>
      <trkpt lat="50.63477" lon="3.19685">
        <ele>-32.2</ele>
        <time>2018-06-26T09:26:01Z</time>
      </trkpt>
      <trkpt lat="50.63477" lon="3.19685">
        <ele>-32</ele>
        <time>2018-06-26T09:26:05Z</time>
      </trkpt>
      <trkpt lat="50.63477" lon="3.19685">
        <ele>-32.4</ele>
        <time>2018-06-26T09:26:09Z</time>
      </trkpt>
      <trkpt lat="50.63477" lon="3.19685">
        <ele>-32.4</ele>
        <time>2018-06-26T09:26:13Z</time>
      </trkpt>
      <trkpt lat="50.63477" lon="3.19685">
        <ele>-32</ele>
        <time>2018-06-26T09:26:17Z</time>
      </trkpt>
      <trkpt lat="50.63477" lon="3.19685">
        <ele>-32.4</ele>
        <time>2018-06-26T09:26:21Z</time>
      </trkpt>
      <trkpt lat="50.63477" lon="3.19685">
        <ele>-32.4</ele>
        <time>2018-06-26T09:26:25Z</time>
      </trkpt>
      <trkpt lat="50.63477" lon="3.19685">
        <ele>-32.4</ele>
        <time>2018-06-26T09:26:29Z</time>
      </trkpt>
      <trkpt lat="50.63477" lon="3.19685">
        <ele>-32.8</ele>
        <time>2018-06-26T09:26:33Z</time>
      </trkpt>
      <trkpt lat="50.63477" lon="3.19685">
        <ele>-32.4</ele>
        <time>2018-06-26T09:26:37Z</time>
      </trkpt>
      <trkpt lat="50.63477" lon="3.19685">
        <ele>-32.4</ele>
        <time>2018-06-26T09:26:41Z</time>
      </trkpt>
      <trkpt lat="50.63477" lon="3.19685">
        <ele>-32.4</ele>
        <time>2018-06-26T09:26:45Z</time>
      </trkpt>
      <trkpt lat="50.63477" lon="3.19685">
        <ele>-32.2</ele>
        <time>2018-06-26T09:26:49Z</time>
      </trkpt>
      <trkpt lat="50.63477" lon="3.19685">
        <ele>-32.4</ele>
        <time>2018-06-26T09:26:53Z</time>
      </trkpt>
      <trkpt lat="50.63477" lon="3.19685">
        <ele>-32.4</ele>
        <time>2018-06-26T09:26:57Z</time>
      </trkpt>
      <trkpt lat="50.63477" lon="3.19685">
        <ele>-32.4</ele>
        <time>2018-06-26T09:27:01Z</time>
      </trkpt>
      <trkpt lat="50.63477" lon="3.19685">
        <ele>-32</ele>
        <time>2018-06-26T09:27:05Z</time>
      </trkpt>
      <trkpt lat="50.63477" lon="3.19685">
        <ele>-32.6</ele>
        <time>2018-06-26T09:27:09Z</time>
      </trkpt>
      <trkpt lat="50.63477" lon="3.19685">
        <ele>-32.4</ele>
        <time>2018-06-26T09:27:13Z</time>
      </trkpt>
      <trkpt lat="50.63477" lon="3.19685">
        <ele>-32.4</ele>
        <time>2018-06-26T09:27:17Z</time>
      </trkpt>
      <trkpt lat="50.63477" lon="3.19685">
        <ele>-32.6</ele>
        <time>2018-06-26T09:27:21Z</time>
      </trkpt>
      <trkpt lat="50.63477" lon="3.19685">
        <ele>-32.4</ele>
        <time>2018-06-26T09:27:25Z</time>
      </trkpt>
      <trkpt lat="50.63477" lon="3.19685">
        <ele>-32.6</ele>
        <time>2018-06-26T09:27:29Z</time>
      </trkpt>
      <trkpt lat="50.63477" lon="3.19685">
        <ele>-32.6</ele>
        <time>2018-06-26T09:27:33Z</time>
      </trkpt>
      <trkpt lat="50.63477" lon="3.19685">
        <ele>-32.6</ele>
        <time>2018-06-26T09:27:37Z</time>
      </trkpt>
      <trkpt lat="50.63477" lon="3.19685">
        <ele>-32.4</ele>
        <time>2018-06-26T09:27:41Z</time>
      </trkpt>
      <trkpt lat="50.63477" lon="3.19685">
        <ele>-32.6</ele>
        <time>2018-06-26T09:27:45Z</time>
      </trkpt>
      <trkpt lat="50.63477" lon="3.19685">
        <ele>-32.4</ele>
        <time>2018-06-26T09:27:49Z</time>
      </trkpt>
      <trkpt lat="50.63477" lon="3.19685">
        <ele>-32.4</ele>
        <time>2018-06-26T09:27:53Z</time>
      </trkpt>
      <trkpt lat="50.63477" lon="3.19685">
        <ele>-32.8</ele>
        <time>2018-06-26T09:27:57Z</time>
      </trkpt>
      <trkpt lat="50.63477" lon="3.19685">
        <ele>-32.2</ele>
        <time>2018-06-26T09:28:01Z</time>
      </trkpt>
      <trkpt lat="50.63478" lon="3.19689">
        <ele>-32</ele>
        <time>2018-06-26T09:28:05Z</time>
      </trkpt>
      <trkpt lat="50.63478" lon="3.19696">
        <ele>-31.8</ele>
        <time>2018-06-26T09:28:09Z</time>
      </trkpt>
      <trkpt lat="50.63479" lon="3.19708">
        <ele>-31.8</ele>
        <time>2018-06-26T09:28:13Z</time>
      </trkpt>
      <trkpt lat="50.63482" lon="3.19719">
        <ele>-31.8</ele>
        <time>2018-06-26T09:28:17Z</time>
      </trkpt>
      <trkpt lat="50.63482" lon="3.19729">
        <ele>-31.4</ele>
        <time>2018-06-26T09:28:21Z</time>
      </trkpt>
      <trkpt lat="50.63483" lon="3.1974">
        <ele>-31.4</ele>
        <time>2018-06-26T09:28:25Z</time>
      </trkpt>
      <trkpt lat="50.63484" lon="3.19751">
        <ele>-31.4</ele>
        <time>2018-06-26T09:28:29Z</time>
      </trkpt>
      <trkpt lat="50.63485" lon="3.19764">
        <ele>-31.8</ele>
        <time>2018-06-26T09:28:33Z</time>
      </trkpt>
      <trkpt lat="50.63487" lon="3.19781">
        <ele>-31.4</ele>
        <time>2018-06-26T09:28:37Z</time>
      </trkpt>
      <trkpt lat="50.63488" lon="3.19798">
        <ele>-31.6</ele>
        <time>2018-06-26T09:28:41Z</time>
      </trkpt>
      <trkpt lat="50.63488" lon="3.19816">
        <ele>-31.8</ele>
        <time>2018-06-26T09:28:45Z</time>
      </trkpt>
      <trkpt lat="50.6349" lon="3.19835">
        <ele>-31.6</ele>
        <time>2018-06-26T09:28:49Z</time>
      </trkpt>
      <trkpt lat="50.63494" lon="3.19853">
        <ele>-31.6</ele>
        <time>2018-06-26T09:28:53Z</time>
      </trkpt>
      <trkpt lat="50.63498" lon="3.19868">
        <ele>-31.6</ele>
        <time>2018-06-26T09:28:57Z</time>
      </trkpt>
      <trkpt lat="50.63504" lon="3.19885">
        <ele>-31.6</ele>
        <time>2018-06-26T09:29:01Z</time>
      </trkpt>
      <trkpt lat="50.6351" lon="3.19901">
        <ele>-31.6</ele>
        <time>2018-06-26T09:29:05Z</time>
      </trkpt>
      <trkpt lat="50.63516" lon="3.19917">
        <ele>-31.4</ele>
        <time>2018-06-26T09:29:09Z</time>
      </trkpt>
      <trkpt lat="50.63521" lon="3.19931">
        <ele>-31.6</ele>
        <time>2018-06-26T09:29:13Z</time>
      </trkpt>
      <trkpt lat="50.63525" lon="3.19949">
        <ele>-31.8</ele>
        <time>2018-06-26T09:29:17Z</time>
      </trkpt>
      <trkpt lat="50.63529" lon="3.19968">
        <ele>-31.4</ele>
        <time>2018-06-26T09:29:21Z</time>
      </trkpt>
      <trkpt lat="50.63528" lon="3.1999">
        <ele>-31.4</ele>
        <time>2018-06-26T09:29:25Z</time>
      </trkpt>
      <trkpt lat="50.63524" lon="3.20011">
        <ele>-31.4</ele>
        <time>2018-06-26T09:29:29Z</time>
      </trkpt>
      <trkpt lat="50.63518" lon="3.20031">
        <ele>-31.4</ele>
        <time>2018-06-26T09:29:33Z</time>
      </trkpt>
      <trkpt lat="50.63513" lon="3.20052">
        <ele>-31.4</ele>
        <time>2018-06-26T09:29:37Z</time>
      </trkpt>
      <trkpt lat="50.63506" lon="3.20072">
        <ele>-31.4</ele>
        <time>2018-06-26T09:29:41Z</time>
      </trkpt>
      <trkpt lat="50.635" lon="3.20092">
        <ele>-32.4</ele>
        <time>2018-06-26T09:29:45Z</time>
      </trkpt>
      <trkpt lat="50.63492" lon="3.20111">
        <ele>-31.6</ele>
        <time>2018-06-26T09:29:49Z</time>
      </trkpt>
      <trkpt lat="50.63483" lon="3.20128">
        <ele>-31.4</ele>
        <time>2018-06-26T09:29:53Z</time>
      </trkpt>
      <trkpt lat="50.63473" lon="3.20146">
        <ele>-31.4</ele>
        <time>2018-06-26T09:29:57Z</time>
      </trkpt>
      <trkpt lat="50.63463" lon="3.20164">
        <ele>-30.8</ele>
        <time>2018-06-26T09:30:01Z</time>
      </trkpt>
      <trkpt lat="50.63455" lon="3.20182">
        <ele>-31.4</ele>
        <time>2018-06-26T09:30:05Z</time>
      </trkpt>
      <trkpt lat="50.63446" lon="3.202">
        <ele>-31.4</ele>
        <time>2018-06-26T09:30:09Z</time>
      </trkpt>
      <trkpt lat="50.63438" lon="3.20217">
        <ele>-31</ele>
        <time>2018-06-26T09:30:13Z</time>
      </trkpt>
      <trkpt lat="50.63428" lon="3.20235">
        <ele>-31.4</ele>
        <time>2018-06-26T09:30:17Z</time>
      </trkpt>
      <trkpt lat="50.63418" lon="3.20253">
        <ele>-31.8</ele>
        <time>2018-06-26T09:30:21Z</time>
      </trkpt>
      <trkpt lat="50.63408" lon="3.20268">
        <ele>-31.6</ele>
        <time>2018-06-26T09:30:25Z</time>
      </trkpt>
      <trkpt lat="50.63397" lon="3.20282">
        <ele>-31.4</ele>
        <time>2018-06-26T09:30:29Z</time>
      </trkpt>
      <trkpt lat="50.63386" lon="3.20295">
        <ele>-31.6</ele>
        <time>2018-06-26T09:30:33Z</time>
      </trkpt>
      <trkpt lat="50.63374" lon="3.20308">
        <ele>-31.6</ele>
        <time>2018-06-26T09:30:37Z</time>
      </trkpt>
      <trkpt lat="50.63364" lon="3.20326">
        <ele>-32</ele>
        <time>2018-06-26T09:30:41Z</time>
      </trkpt>
      <trkpt lat="50.63355" lon="3.20346">
        <ele>-31.8</ele>
        <time>2018-06-26T09:30:45Z</time>
      </trkpt>
      <trkpt lat="50.63346" lon="3.20367">
        <ele>-32</ele>
        <time>2018-06-26T09:30:49Z</time>
      </trkpt>
      <trkpt lat="50.6334" lon="3.20389">
        <ele>-32</ele>
        <time>2018-06-26T09:30:53Z</time>
      </trkpt>
      <trkpt lat="50.63331" lon="3.20406">
        <ele>-32.6</ele>
        <time>2018-06-26T09:30:57Z</time>
      </trkpt>
      <trkpt lat="50.63317" lon="3.20404">
        <ele>-32.6</ele>
        <time>2018-06-26T09:31:01Z</time>
      </trkpt>
      <trkpt lat="50.63303" lon="3.20397">
        <ele>-32.6</ele>
        <time>2018-06-26T09:31:05Z</time>
      </trkpt>
      <trkpt lat="50.6329" lon="3.20389">
        <ele>-32.4</ele>
        <time>2018-06-26T09:31:09Z</time>
      </trkpt>
      <trkpt lat="50.63275" lon="3.20379">
        <ele>-32.6</ele>
        <time>2018-06-26T09:31:13Z</time>
      </trkpt>
      <trkpt lat="50.63262" lon="3.20369">
        <ele>-32.6</ele>
        <time>2018-06-26T09:31:17Z</time>
      </trkpt>
      <trkpt lat="50.63249" lon="3.20358">
        <ele>-32.6</ele>
        <time>2018-06-26T09:31:21Z</time>
      </trkpt>
      <trkpt lat="50.63236" lon="3.20347">
        <ele>-32.6</ele>
        <time>2018-06-26T09:31:25Z</time>
      </trkpt>
      <trkpt lat="50.63221" lon="3.20337">
        <ele>-32.4</ele>
        <time>2018-06-26T09:31:29Z</time>
      </trkpt>
      <trkpt lat="50.63206" lon="3.2033">
        <ele>-32.6</ele>
        <time>2018-06-26T09:31:33Z</time>
      </trkpt>
      <trkpt lat="50.6319" lon="3.20326">
        <ele>-32.4</ele>
        <time>2018-06-26T09:31:37Z</time>
      </trkpt>
      <trkpt lat="50.63175" lon="3.2032">
        <ele>-32.2</ele>
        <time>2018-06-26T09:31:41Z</time>
      </trkpt>
      <trkpt lat="50.63162" lon="3.20307">
        <ele>-32.4</ele>
        <time>2018-06-26T09:31:45Z</time>
      </trkpt>
      <trkpt lat="50.63151" lon="3.20291">
        <ele>-32.2</ele>
        <time>2018-06-26T09:31:49Z</time>
      </trkpt>
      <trkpt lat="50.6314" lon="3.20273">
        <ele>-32</ele>
        <time>2018-06-26T09:31:53Z</time>
      </trkpt>
      <trkpt lat="50.63128" lon="3.20259">
        <ele>-32.4</ele>
        <time>2018-06-26T09:31:57Z</time>
      </trkpt>
      <trkpt lat="50.63114" lon="3.2025">
        <ele>-32.2</ele>
        <time>2018-06-26T09:32:01Z</time>
      </trkpt>
      <trkpt lat="50.631" lon="3.20246">
        <ele>-32.8</ele>
        <time>2018-06-26T09:32:05Z</time>
      </trkpt>
      <trkpt lat="50.63086" lon="3.20246">
        <ele>-32.4</ele>
        <time>2018-06-26T09:32:09Z</time>
      </trkpt>
      <trkpt lat="50.63073" lon="3.20259">
        <ele>-32.8</ele>
        <time>2018-06-26T09:32:13Z</time>
      </trkpt>
      <trkpt lat="50.63062" lon="3.20276">
        <ele>-32.4</ele>
        <time>2018-06-26T09:32:17Z</time>
      </trkpt>
      <trkpt lat="50.63051" lon="3.20292">
        <ele>-32.4</ele>
        <time>2018-06-26T09:32:21Z</time>
      </trkpt>
      <trkpt lat="50.6304" lon="3.20308">
        <ele>-32.2</ele>
        <time>2018-06-26T09:32:25Z</time>
      </trkpt>
      <trkpt lat="50.63029" lon="3.20323">
        <ele>-32.4</ele>
        <time>2018-06-26T09:32:29Z</time>
      </trkpt>
      <trkpt lat="50.63017" lon="3.20339">
        <ele>-32</ele>
        <time>2018-06-26T09:32:33Z</time>
      </trkpt>
      <trkpt lat="50.63006" lon="3.20355">
        <ele>-32.2</ele>
        <time>2018-06-26T09:32:37Z</time>
      </trkpt>
      <trkpt lat="50.62995" lon="3.20371">
        <ele>-32.2</ele>
        <time>2018-06-26T09:32:41Z</time>
      </trkpt>
      <trkpt lat="50.62984" lon="3.20387">
        <ele>-31.8</ele>
        <time>2018-06-26T09:32:45Z</time>
      </trkpt>
      <trkpt lat="50.62972" lon="3.20404">
        <ele>-31.8</ele>
        <time>2018-06-26T09:32:49Z</time>
      </trkpt>
      <trkpt lat="50.62961" lon="3.2042">
        <ele>-31.8</ele>
        <time>2018-06-26T09:32:53Z</time>
      </trkpt>
      <trkpt lat="50.6295" lon="3.20436">
        <ele>-32.6</ele>
        <time>2018-06-26T09:32:57Z</time>
      </trkpt>
      <trkpt lat="50.62938" lon="3.20452">
        <ele>-32</ele>
        <time>2018-06-26T09:33:01Z</time>
      </trkpt>
      <trkpt lat="50.62927" lon="3.20468">
        <ele>-32.8</ele>
        <time>2018-06-26T09:33:05Z</time>
      </trkpt>
      <trkpt lat="50.62916" lon="3.20484">
        <ele>-32.8</ele>
        <time>2018-06-26T09:33:09Z</time>
      </trkpt>
      <trkpt lat="50.62905" lon="3.20499">
        <ele>-32</ele>
        <time>2018-06-26T09:33:13Z</time>
      </trkpt>
      <trkpt lat="50.62894" lon="3.20514">
        <ele>-32.4</ele>
        <time>2018-06-26T09:33:17Z</time>
      </trkpt>
      <trkpt lat="50.62883" lon="3.2053">
        <ele>-32.8</ele>
        <time>2018-06-26T09:33:21Z</time>
      </trkpt>
      <trkpt lat="50.62872" lon="3.20546">
        <ele>-32.6</ele>
        <time>2018-06-26T09:33:25Z</time>
      </trkpt>
      <trkpt lat="50.6286" lon="3.20562">
        <ele>-31.8</ele>
        <time>2018-06-26T09:33:29Z</time>
      </trkpt>
      <trkpt lat="50.62849" lon="3.20578">
        <ele>-32.4</ele>
        <time>2018-06-26T09:33:33Z</time>
      </trkpt>
      <trkpt lat="50.62838" lon="3.20595">
        <ele>-32.2</ele>
        <time>2018-06-26T09:33:37Z</time>
      </trkpt>
      <trkpt lat="50.62827" lon="3.2061">
        <ele>-32.4</ele>
        <time>2018-06-26T09:33:41Z</time>
      </trkpt>
      <trkpt lat="50.62816" lon="3.20625">
        <ele>-32.2</ele>
        <time>2018-06-26T09:33:45Z</time>
      </trkpt>
      <trkpt lat="50.62805" lon="3.20641">
        <ele>-32.4</ele>
        <time>2018-06-26T09:33:49Z</time>
      </trkpt>
      <trkpt lat="50.62793" lon="3.20657">
        <ele>-32.6</ele>
        <time>2018-06-26T09:33:53Z</time>
      </trkpt>
      <trkpt lat="50.62782" lon="3.20674">
        <ele>-32</ele>
        <time>2018-06-26T09:33:57Z</time>
      </trkpt>
      <trkpt lat="50.62771" lon="3.2069">
        <ele>-32.4</ele>
        <time>2018-06-26T09:34:01Z</time>
      </trkpt>
      <trkpt lat="50.62762" lon="3.20707">
        <ele>-31.8</ele>
        <time>2018-06-26T09:34:05Z</time>
      </trkpt>
      <trkpt lat="50.62758" lon="3.20727">
        <ele>-32.4</ele>
        <time>2018-06-26T09:34:09Z</time>
      </trkpt>
      <trkpt lat="50.62756" lon="3.20748">
        <ele>-32</ele>
        <time>2018-06-26T09:34:13Z</time>
      </trkpt>
      <trkpt lat="50.6275" lon="3.20769">
        <ele>-32</ele>
        <time>2018-06-26T09:34:17Z</time>
      </trkpt>
      <trkpt lat="50.62748" lon="3.20789">
        <ele>-32.4</ele>
        <time>2018-06-26T09:34:21Z</time>
      </trkpt>
      <trkpt lat="50.62741" lon="3.20801">
        <ele>-32.6</ele>
        <time>2018-06-26T09:34:25Z</time>
      </trkpt>
      <trkpt lat="50.62729" lon="3.20806">
        <ele>-32.8</ele>
        <time>2018-06-26T09:34:29Z</time>
      </trkpt>
      <trkpt lat="50.62719" lon="3.20808">
        <ele>-33.2</ele>
        <time>2018-06-26T09:34:33Z</time>
      </trkpt>
      <trkpt lat="50.62716" lon="3.20825">
        <ele>-33</ele>
        <time>2018-06-26T09:34:37Z</time>
      </trkpt>
      <trkpt lat="50.62716" lon="3.20844">
        <ele>-33.2</ele>
        <time>2018-06-26T09:34:41Z</time>
      </trkpt>
      <trkpt lat="50.62715" lon="3.20862">
        <ele>-33</ele>
        <time>2018-06-26T09:34:45Z</time>
      </trkpt>
      <trkpt lat="50.62715" lon="3.20883">
        <ele>-32.6</ele>
        <time>2018-06-26T09:34:49Z</time>
      </trkpt>
      <trkpt lat="50.62712" lon="3.20905">
        <ele>-32.6</ele>
        <time>2018-06-26T09:34:53Z</time>
      </trkpt>
      <trkpt lat="50.6271" lon="3.20928">
        <ele>-32.4</ele>
        <time>2018-06-26T09:34:57Z</time>
      </trkpt>
      <trkpt lat="50.62707" lon="3.20952">
        <ele>-32</ele>
        <time>2018-06-26T09:35:01Z</time>
      </trkpt>
      <trkpt lat="50.62706" lon="3.20974">
        <ele>-32.6</ele>
        <time>2018-06-26T09:35:05Z</time>
      </trkpt>
      <trkpt lat="50.62701" lon="3.20994">
        <ele>-32.6</ele>
        <time>2018-06-26T09:35:09Z</time>
      </trkpt>
      <trkpt lat="50.62693" lon="3.21013">
        <ele>-32.2</ele>
        <time>2018-06-26T09:35:13Z</time>
      </trkpt>
      <trkpt lat="50.62686" lon="3.21031">
        <ele>-32.4</ele>
        <time>2018-06-26T09:35:17Z</time>
      </trkpt>
      <trkpt lat="50.62677" lon="3.21049">
        <ele>-32.4</ele>
        <time>2018-06-26T09:35:21Z</time>
      </trkpt>
      <trkpt lat="50.62669" lon="3.21071">
        <ele>-32.4</ele>
        <time>2018-06-26T09:35:25Z</time>
      </trkpt>
      <trkpt lat="50.62661" lon="3.21092">
        <ele>-32.4</ele>
        <time>2018-06-26T09:35:29Z</time>
      </trkpt>
      <trkpt lat="50.62653" lon="3.21111">
        <ele>-32.2</ele>
        <time>2018-06-26T09:35:33Z</time>
      </trkpt>
      <trkpt lat="50.62648" lon="3.21129">
        <ele>-32.8</ele>
        <time>2018-06-26T09:35:37Z</time>
      </trkpt>
      <trkpt lat="50.62653" lon="3.21145">
        <ele>-32.8</ele>
        <time>2018-06-26T09:35:41Z</time>
      </trkpt>
      <trkpt lat="50.62663" lon="3.21154">
        <ele>-33.2</ele>
        <time>2018-06-26T09:35:45Z</time>
      </trkpt>
      <trkpt lat="50.62671" lon="3.21159">
        <ele>-32.6</ele>
        <time>2018-06-26T09:35:49Z</time>
      </trkpt>
      <trkpt lat="50.62682" lon="3.2117">
        <ele>-31.8</ele>
        <time>2018-06-26T09:35:53Z</time>
      </trkpt>
      <trkpt lat="50.62697" lon="3.21181">
        <ele>-32.4</ele>
        <time>2018-06-26T09:35:57Z</time>
      </trkpt>
      <trkpt lat="50.6271" lon="3.21191">
        <ele>-32.4</ele>
        <time>2018-06-26T09:36:01Z</time>
      </trkpt>
      <trkpt lat="50.62723" lon="3.21201">
        <ele>-32.6</ele>
        <time>2018-06-26T09:36:05Z</time>
      </trkpt>
      <trkpt lat="50.62735" lon="3.21212">
        <ele>-32.6</ele>
        <time>2018-06-26T09:36:09Z</time>
      </trkpt>
      <trkpt lat="50.6275" lon="3.21223">
        <ele>-32.6</ele>
        <time>2018-06-26T09:36:13Z</time>
      </trkpt>
      <trkpt lat="50.62763" lon="3.21233">
        <ele>-32.6</ele>
        <time>2018-06-26T09:36:17Z</time>
      </trkpt>
      <trkpt lat="50.62776" lon="3.21243">
        <ele>-32.6</ele>
        <time>2018-06-26T09:36:21Z</time>
      </trkpt>
      <trkpt lat="50.6279" lon="3.21253">
        <ele>-32</ele>
        <time>2018-06-26T09:36:25Z</time>
      </trkpt>
      <trkpt lat="50.62803" lon="3.21263">
        <ele>-32.4</ele>
        <time>2018-06-26T09:36:29Z</time>
      </trkpt>
      <trkpt lat="50.62814" lon="3.21271">
        <ele>-31.6</ele>
        <time>2018-06-26T09:36:33Z</time>
      </trkpt>
      <trkpt lat="50.62827" lon="3.2128">
        <ele>-32</ele>
        <time>2018-06-26T09:36:37Z</time>
      </trkpt>
      <trkpt lat="50.6284" lon="3.2129">
        <ele>-31.8</ele>
        <time>2018-06-26T09:36:41Z</time>
      </trkpt>
      <trkpt lat="50.62852" lon="3.21299">
        <ele>-32.4</ele>
        <time>2018-06-26T09:36:45Z</time>
      </trkpt>
      <trkpt lat="50.62865" lon="3.21309">
        <ele>-31.8</ele>
        <time>2018-06-26T09:36:49Z</time>
      </trkpt>
      <trkpt lat="50.62878" lon="3.2132">
        <ele>-32</ele>
        <time>2018-06-26T09:36:53Z</time>
      </trkpt>
      <trkpt lat="50.62892" lon="3.21332">
        <ele>-32</ele>
        <time>2018-06-26T09:36:57Z</time>
      </trkpt>
      <trkpt lat="50.62905" lon="3.21342">
        <ele>-32</ele>
        <time>2018-06-26T09:37:01Z</time>
      </trkpt>
      <trkpt lat="50.62916" lon="3.2135">
        <ele>-32.6</ele>
        <time>2018-06-26T09:37:05Z</time>
      </trkpt>
      <trkpt lat="50.62924" lon="3.21356">
        <ele>-32.6</ele>
        <time>2018-06-26T09:37:09Z</time>
      </trkpt>
      <trkpt lat="50.62931" lon="3.21361">
        <ele>-32.6</ele>
        <time>2018-06-26T09:37:13Z</time>
      </trkpt>
      <trkpt lat="50.62931" lon="3.21361">
        <ele>-32.4</ele>
        <time>2018-06-26T09:37:17Z</time>
      </trkpt>
      <trkpt lat="50.62931" lon="3.21361">
        <ele>-32.4</ele>
        <time>2018-06-26T09:37:21Z</time>
      </trkpt>
      <trkpt lat="50.62931" lon="3.21361">
        <ele>-32.6</ele>
        <time>2018-06-26T09:37:25Z</time>
      </trkpt>
      <trkpt lat="50.62931" lon="3.21361">
        <ele>-32.8</ele>
        <time>2018-06-26T09:37:29Z</time>
      </trkpt>
      <trkpt lat="50.62931" lon="3.21361">
        <ele>-32.6</ele>
        <time>2018-06-26T09:37:33Z</time>
      </trkpt>
      <trkpt lat="50.62931" lon="3.21361">
        <ele>-32.6</ele>
        <time>2018-06-26T09:37:37Z</time>
      </trkpt>
      <trkpt lat="50.62931" lon="3.21361">
        <ele>-32.6</ele>
        <time>2018-06-26T09:37:41Z</time>
      </trkpt>
      <trkpt lat="50.62931" lon="3.21361">
        <ele>-32.6</ele>
        <time>2018-06-26T09:37:45Z</time>
      </trkpt>
      <trkpt lat="50.62931" lon="3.21361">
        <ele>-32.6</ele>
        <time>2018-06-26T09:37:49Z</time>
      </trkpt>
      <trkpt lat="50.62931" lon="3.21361">
        <ele>-32.6</ele>
        <time>2018-06-26T09:37:53Z</time>
      </trkpt>
      <trkpt lat="50.62931" lon="3.21361">
        <ele>-32</ele>
        <time>2018-06-26T09:37:57Z</time>
      </trkpt>
      <trkpt lat="50.62931" lon="3.21361">
        <ele>-32.4</ele>
        <time>2018-06-26T09:38:01Z</time>
      </trkpt>
      <trkpt lat="50.62931" lon="3.21361">
        <ele>-32.8</ele>
        <time>2018-06-26T09:38:05Z</time>
      </trkpt>
      <trkpt lat="50.62931" lon="3.21361">
        <ele>-32.8</ele>
        <time>2018-06-26T09:38:09Z</time>
      </trkpt>
      <trkpt lat="50.62931" lon="3.21361">
        <ele>-32.8</ele>
        <time>2018-06-26T09:38:13Z</time>
      </trkpt>
      <trkpt lat="50.62931" lon="3.21361">
        <ele>-32.6</ele>
        <time>2018-06-26T09:38:17Z</time>
      </trkpt>
      <trkpt lat="50.62931" lon="3.21361">
        <ele>-32.4</ele>
        <time>2018-06-26T09:38:21Z</time>
      </trkpt>
      <trkpt lat="50.62931" lon="3.21361">
        <ele>-32</ele>
        <time>2018-06-26T09:38:25Z</time>
      </trkpt>
      <trkpt lat="50.62931" lon="3.21361">
        <ele>-32</ele>
        <time>2018-06-26T09:38:29Z</time>
      </trkpt>
      <trkpt lat="50.62931" lon="3.21361">
        <ele>-32</ele>
        <time>2018-06-26T09:38:33Z</time>
      </trkpt>
      <trkpt lat="50.62931" lon="3.21361">
        <ele>-32</ele>
        <time>2018-06-26T09:38:37Z</time>
      </trkpt>
      <trkpt lat="50.62931" lon="3.21361">
        <ele>-32.4</ele>
        <time>2018-06-26T09:38:41Z</time>
      </trkpt>
      <trkpt lat="50.62931" lon="3.21361">
        <ele>-32.4</ele>
        <time>2018-06-26T09:38:45Z</time>
      </trkpt>
      <trkpt lat="50.62931" lon="3.21361">
        <ele>-32</ele>
        <time>2018-06-26T09:38:49Z</time>
      </trkpt>
      <trkpt lat="50.62931" lon="3.21361">
        <ele>-32.4</ele>
        <time>2018-06-26T09:38:53Z</time>
      </trkpt>
      <trkpt lat="50.62931" lon="3.21361">
        <ele>-32.2</ele>
        <time>2018-06-26T09:38:57Z</time>
      </trkpt>
      <trkpt lat="50.62931" lon="3.21361">
        <ele>-32.2</ele>
        <time>2018-06-26T09:39:01Z</time>
      </trkpt>
      <trkpt lat="50.62931" lon="3.21363">
        <ele>-32.4</ele>
        <time>2018-06-26T09:39:05Z</time>
      </trkpt>
      <trkpt lat="50.62936" lon="3.21367">
        <ele>-32</ele>
        <time>2018-06-26T09:39:09Z</time>
      </trkpt>
      <trkpt lat="50.6294" lon="3.2137">
        <ele>-32.2</ele>
        <time>2018-06-26T09:39:13Z</time>
      </trkpt>
      <trkpt lat="50.62947" lon="3.21375">
        <ele>-32</ele>
        <time>2018-06-26T09:39:17Z</time>
      </trkpt>
      <trkpt lat="50.62954" lon="3.21382">
        <ele>-32</ele>
        <time>2018-06-26T09:39:21Z</time>
      </trkpt>
      <trkpt lat="50.62964" lon="3.21388">
        <ele>-31.8</ele>
        <time>2018-06-26T09:39:25Z</time>
      </trkpt>
      <trkpt lat="50.62973" lon="3.21396">
        <ele>-31.8</ele>
        <time>2018-06-26T09:39:29Z</time>
      </trkpt>
      <trkpt lat="50.62982" lon="3.21403">
        <ele>-31.6</ele>
        <time>2018-06-26T09:39:33Z</time>
      </trkpt>
      <trkpt lat="50.62992" lon="3.2141">
        <ele>-32</ele>
        <time>2018-06-26T09:39:37Z</time>
      </trkpt>
      <trkpt lat="50.63003" lon="3.21418">
        <ele>-32</ele>
        <time>2018-06-26T09:39:41Z</time>
      </trkpt>
      <trkpt lat="50.63013" lon="3.21425">
        <ele>-32</ele>
        <time>2018-06-26T09:39:45Z</time>
      </trkpt>
      <trkpt lat="50.63022" lon="3.21433">
        <ele>-31.4</ele>
        <time>2018-06-26T09:39:49Z</time>
      </trkpt>
      <trkpt lat="50.63027" lon="3.21444">
        <ele>-31.4</ele>
        <time>2018-06-26T09:39:53Z</time>
      </trkpt>
      <trkpt lat="50.63033" lon="3.21459">
        <ele>-31.4</ele>
        <time>2018-06-26T09:39:57Z</time>
      </trkpt>
      <trkpt lat="50.63039" lon="3.21475">
        <ele>-31.4</ele>
        <time>2018-06-26T09:40:01Z</time>
      </trkpt>
      <trkpt lat="50.63045" lon="3.2149">
        <ele>-31.6</ele>
        <time>2018-06-26T09:40:05Z</time>
      </trkpt>
      <trkpt lat="50.63049" lon="3.21506">
        <ele>-31.2</ele>
        <time>2018-06-26T09:40:09Z</time>
      </trkpt>
      <trkpt lat="50.63055" lon="3.21521">
        <ele>-31.2</ele>
        <time>2018-06-26T09:40:13Z</time>
      </trkpt>
      <trkpt lat="50.63062" lon="3.21536">
        <ele>-31.2</ele>
        <time>2018-06-26T09:40:17Z</time>
      </trkpt>
      <trkpt lat="50.63072" lon="3.2155">
        <ele>-31.6</ele>
        <time>2018-06-26T09:40:21Z</time>
      </trkpt>
      <trkpt lat="50.63083" lon="3.21562">
        <ele>-31.4</ele>
        <time>2018-06-26T09:40:25Z</time>
      </trkpt>
      <trkpt lat="50.63093" lon="3.21575">
        <ele>-31.2</ele>
        <time>2018-06-26T09:40:29Z</time>
      </trkpt>
      <trkpt lat="50.63102" lon="3.2159">
        <ele>-31</ele>
        <time>2018-06-26T09:40:33Z</time>
      </trkpt>
      <trkpt lat="50.6311" lon="3.21608">
        <ele>-30.8</ele>
        <time>2018-06-26T09:40:37Z</time>
      </trkpt>
      <trkpt lat="50.63118" lon="3.21626">
        <ele>-31</ele>
        <time>2018-06-26T09:40:41Z</time>
      </trkpt>
      <trkpt lat="50.63125" lon="3.21645">
        <ele>-31</ele>
        <time>2018-06-26T09:40:45Z</time>
      </trkpt>
      <trkpt lat="50.63133" lon="3.21664">
        <ele>-30.6</ele>
        <time>2018-06-26T09:40:49Z</time>
      </trkpt>
      <trkpt lat="50.63141" lon="3.21684">
        <ele>-30.6</ele>
        <time>2018-06-26T09:40:53Z</time>
      </trkpt>
      <trkpt lat="50.63149" lon="3.21704">
        <ele>-30.4</ele>
        <time>2018-06-26T09:40:57Z</time>
      </trkpt>
      <trkpt lat="50.63157" lon="3.21723">
        <ele>-30.2</ele>
        <time>2018-06-26T09:41:01Z</time>
      </trkpt>
      <trkpt lat="50.63165" lon="3.21741">
        <ele>-29.6</ele>
        <time>2018-06-26T09:41:05Z</time>
      </trkpt>
      <trkpt lat="50.63173" lon="3.21759">
        <ele>-29.2</ele>
        <time>2018-06-26T09:41:09Z</time>
      </trkpt>
      <trkpt lat="50.63178" lon="3.21773">
        <ele>-29.2</ele>
        <time>2018-06-26T09:41:13Z</time>
      </trkpt>
      <trkpt lat="50.63183" lon="3.21781">
        <ele>-29.2</ele>
        <time>2018-06-26T09:41:17Z</time>
      </trkpt>
      <trkpt lat="50.63188" lon="3.21792">
        <ele>-28.4</ele>
        <time>2018-06-26T09:41:21Z</time>
      </trkpt>
      <trkpt lat="50.63195" lon="3.21805">
        <ele>-28.6</ele>
        <time>2018-06-26T09:41:25Z</time>
      </trkpt>
      <trkpt lat="50.63201" lon="3.21818">
        <ele>-28.8</ele>
        <time>2018-06-26T09:41:29Z</time>
      </trkpt>
      <trkpt lat="50.63207" lon="3.21833">
        <ele>-28.8</ele>
        <time>2018-06-26T09:41:33Z</time>
      </trkpt>
      <trkpt lat="50.63213" lon="3.21848">
        <ele>-28.2</ele>
        <time>2018-06-26T09:41:37Z</time>
      </trkpt>
      <trkpt lat="50.63219" lon="3.21861">
        <ele>-27.8</ele>
        <time>2018-06-26T09:41:41Z</time>
      </trkpt>
      <trkpt lat="50.63225" lon="3.21876">
        <ele>-28.2</ele>
        <time>2018-06-26T09:41:45Z</time>
      </trkpt>
      <trkpt lat="50.63232" lon="3.21891">
        <ele>-27.2</ele>
        <time>2018-06-26T09:41:49Z</time>
      </trkpt>
      <trkpt lat="50.63239" lon="3.21905">
        <ele>-26.8</ele>
        <time>2018-06-26T09:41:53Z</time>
      </trkpt>
      <trkpt lat="50.63246" lon="3.21918">
        <ele>-27.2</ele>
        <time>2018-06-26T09:41:57Z</time>
      </trkpt>
      <trkpt lat="50.63252" lon="3.21933">
        <ele>-27</ele>
        <time>2018-06-26T09:42:01Z</time>
      </trkpt>
      <trkpt lat="50.63259" lon="3.21948">
        <ele>-27.2</ele>
        <time>2018-06-26T09:42:05Z</time>
      </trkpt>
      <trkpt lat="50.63265" lon="3.21963">
        <ele>-26.6</ele>
        <time>2018-06-26T09:42:09Z</time>
      </trkpt>
      <trkpt lat="50.63271" lon="3.21978">
        <ele>-26.6</ele>
        <time>2018-06-26T09:42:13Z</time>
      </trkpt>
      <trkpt lat="50.63278" lon="3.21992">
        <ele>-26.8</ele>
        <time>2018-06-26T09:42:17Z</time>
      </trkpt>
      <trkpt lat="50.63283" lon="3.22006">
        <ele>-26.8</ele>
        <time>2018-06-26T09:42:21Z</time>
      </trkpt>
      <trkpt lat="50.63288" lon="3.2202">
        <ele>-26.8</ele>
        <time>2018-06-26T09:42:25Z</time>
      </trkpt>
      <trkpt lat="50.63295" lon="3.22033">
        <ele>-26.6</ele>
        <time>2018-06-26T09:42:29Z</time>
      </trkpt>
      <trkpt lat="50.63301" lon="3.22045">
        <ele>-26.6</ele>
        <time>2018-06-26T09:42:33Z</time>
      </trkpt>
      <trkpt lat="50.6331" lon="3.22054">
        <ele>-26.4</ele>
        <time>2018-06-26T09:42:37Z</time>
      </trkpt>
      <trkpt lat="50.6332" lon="3.22058">
        <ele>-26</ele>
        <time>2018-06-26T09:42:41Z</time>
      </trkpt>
      <trkpt lat="50.6333" lon="3.22062">
        <ele>-25.4</ele>
        <time>2018-06-26T09:42:45Z</time>
      </trkpt>
      <trkpt lat="50.63339" lon="3.2207">
        <ele>-25.8</ele>
        <time>2018-06-26T09:42:49Z</time>
      </trkpt>
      <trkpt lat="50.63347" lon="3.22083">
        <ele>-25.8</ele>
        <time>2018-06-26T09:42:53Z</time>
      </trkpt>
      <trkpt lat="50.63353" lon="3.22096">
        <ele>-26.2</ele>
        <time>2018-06-26T09:42:57Z</time>
      </trkpt>
      <trkpt lat="50.63359" lon="3.22111">
        <ele>-25.6</ele>
        <time>2018-06-26T09:43:01Z</time>
      </trkpt>
      <trkpt lat="50.63365" lon="3.22125">
        <ele>-25.4</ele>
        <time>2018-06-26T09:43:05Z</time>
      </trkpt>
      <trkpt lat="50.6337" lon="3.22141">
        <ele>-25</ele>
        <time>2018-06-26T09:43:09Z</time>
      </trkpt>
      <trkpt lat="50.63375" lon="3.22155">
        <ele>-24.8</ele>
        <time>2018-06-26T09:43:13Z</time>
      </trkpt>
      <trkpt lat="50.63381" lon="3.2217">
        <ele>-24.6</ele>
        <time>2018-06-26T09:43:17Z</time>
      </trkpt>
      <trkpt lat="50.63386" lon="3.22185">
        <ele>-25</ele>
        <time>2018-06-26T09:43:21Z</time>
      </trkpt>
      <trkpt lat="50.63392" lon="3.22199">
        <ele>-24.8</ele>
        <time>2018-06-26T09:43:25Z</time>
      </trkpt>
      <trkpt lat="50.63397" lon="3.22214">
        <ele>-24.6</ele>
        <time>2018-06-26T09:43:29Z</time>
      </trkpt>
      <trkpt lat="50.63402" lon="3.22229">
        <ele>-24.2</ele>
        <time>2018-06-26T09:43:33Z</time>
      </trkpt>
      <trkpt lat="50.63408" lon="3.22243">
        <ele>-24.6</ele>
        <time>2018-06-26T09:43:37Z</time>
      </trkpt>
      <trkpt lat="50.63413" lon="3.22257">
        <ele>-24</ele>
        <time>2018-06-26T09:43:41Z</time>
      </trkpt>
      <trkpt lat="50.63418" lon="3.22272">
        <ele>-23.6</ele>
        <time>2018-06-26T09:43:45Z</time>
      </trkpt>
      <trkpt lat="50.63418" lon="3.22287">
        <ele>-23.4</ele>
        <time>2018-06-26T09:43:49Z</time>
      </trkpt>
      <trkpt lat="50.63413" lon="3.223">
        <ele>-23.8</ele>
        <time>2018-06-26T09:43:53Z</time>
      </trkpt>
      <trkpt lat="50.63405" lon="3.22312">
        <ele>-23.6</ele>
        <time>2018-06-26T09:43:57Z</time>
      </trkpt>
      <trkpt lat="50.63397" lon="3.22325">
        <ele>-23.2</ele>
        <time>2018-06-26T09:44:01Z</time>
      </trkpt>
      <trkpt lat="50.63388" lon="3.22337">
        <ele>-23.6</ele>
        <time>2018-06-26T09:44:05Z</time>
      </trkpt>
      <trkpt lat="50.6338" lon="3.2235">
        <ele>-23.8</ele>
        <time>2018-06-26T09:44:09Z</time>
      </trkpt>
      <trkpt lat="50.63371" lon="3.22362">
        <ele>-23.8</ele>
        <time>2018-06-26T09:44:13Z</time>
      </trkpt>
      <trkpt lat="50.63363" lon="3.22374">
        <ele>-23.8</ele>
        <time>2018-06-26T09:44:17Z</time>
      </trkpt>
      <trkpt lat="50.63354" lon="3.22387">
        <ele>-24.4</ele>
        <time>2018-06-26T09:44:21Z</time>
      </trkpt>
      <trkpt lat="50.63346" lon="3.224">
        <ele>-24.2</ele>
        <time>2018-06-26T09:44:25Z</time>
      </trkpt>
      <trkpt lat="50.63339" lon="3.22413">
        <ele>-24</ele>
        <time>2018-06-26T09:44:29Z</time>
      </trkpt>
      <trkpt lat="50.63332" lon="3.22426">
        <ele>-23.8</ele>
        <time>2018-06-26T09:44:33Z</time>
      </trkpt>
      <trkpt lat="50.63325" lon="3.22439">
        <ele>-23.4</ele>
        <time>2018-06-26T09:44:37Z</time>
      </trkpt>
      <trkpt lat="50.63318" lon="3.22453">
        <ele>-23.8</ele>
        <time>2018-06-26T09:44:41Z</time>
      </trkpt>
      <trkpt lat="50.6331" lon="3.22467">
        <ele>-23.2</ele>
        <time>2018-06-26T09:44:45Z</time>
      </trkpt>
      <trkpt lat="50.63303" lon="3.22481">
        <ele>-23.2</ele>
        <time>2018-06-26T09:44:49Z</time>
      </trkpt>
      <trkpt lat="50.63295" lon="3.22495">
        <ele>-23.6</ele>
        <time>2018-06-26T09:44:53Z</time>
      </trkpt>
      <trkpt lat="50.63287" lon="3.22509">
        <ele>-23.2</ele>
        <time>2018-06-26T09:44:57Z</time>
      </trkpt>
      <trkpt lat="50.6328" lon="3.22523">
        <ele>-23.6</ele>
        <time>2018-06-26T09:45:01Z</time>
      </trkpt>
      <trkpt lat="50.63272" lon="3.22537">
        <ele>-23.6</ele>
        <time>2018-06-26T09:45:05Z</time>
      </trkpt>
      <trkpt lat="50.63265" lon="3.22552">
        <ele>-23.6</ele>
        <time>2018-06-26T09:45:09Z</time>
      </trkpt>
      <trkpt lat="50.63258" lon="3.22566">
        <ele>-23.6</ele>
        <time>2018-06-26T09:45:13Z</time>
      </trkpt>
      <trkpt lat="50.6325" lon="3.22579">
        <ele>-23.6</ele>
        <time>2018-06-26T09:45:17Z</time>
      </trkpt>
      <trkpt lat="50.63243" lon="3.22593">
        <ele>-23.6</ele>
        <time>2018-06-26T09:45:21Z</time>
      </trkpt>
      <trkpt lat="50.63235" lon="3.22607">
        <ele>-23.4</ele>
        <time>2018-06-26T09:45:25Z</time>
      </trkpt>
      <trkpt lat="50.63227" lon="3.2262">
        <ele>-23.8</ele>
        <time>2018-06-26T09:45:29Z</time>
      </trkpt>
      <trkpt lat="50.63219" lon="3.22633">
        <ele>-23.6</ele>
        <time>2018-06-26T09:45:33Z</time>
      </trkpt>
      <trkpt lat="50.63212" lon="3.22646">
        <ele>-23.4</ele>
        <time>2018-06-26T09:45:37Z</time>
      </trkpt>
      <trkpt lat="50.63204" lon="3.22659">
        <ele>-22.8</ele>
        <time>2018-06-26T09:45:41Z</time>
      </trkpt>
      <trkpt lat="50.63195" lon="3.22673">
        <ele>-22.8</ele>
        <time>2018-06-26T09:45:45Z</time>
      </trkpt>
      <trkpt lat="50.63188" lon="3.22685">
        <ele>-23.2</ele>
        <time>2018-06-26T09:45:49Z</time>
      </trkpt>
      <trkpt lat="50.6318" lon="3.22697">
        <ele>-23.2</ele>
        <time>2018-06-26T09:45:53Z</time>
      </trkpt>
      <trkpt lat="50.63172" lon="3.2271">
        <ele>-23.6</ele>
        <time>2018-06-26T09:45:57Z</time>
      </trkpt>
      <trkpt lat="50.63164" lon="3.22721">
        <ele>-24.2</ele>
        <time>2018-06-26T09:46:01Z</time>
      </trkpt>
      <trkpt lat="50.63157" lon="3.22731">
        <ele>-23.8</ele>
        <time>2018-06-26T09:46:05Z</time>
      </trkpt>
      <trkpt lat="50.63149" lon="3.22742">
        <ele>-23.6</ele>
        <time>2018-06-26T09:46:09Z</time>
      </trkpt>
      <trkpt lat="50.63142" lon="3.22752">
        <ele>-23.2</ele>
        <time>2018-06-26T09:46:13Z</time>
      </trkpt>
      <trkpt lat="50.63135" lon="3.22758">
        <ele>-24</ele>
        <time>2018-06-26T09:46:17Z</time>
      </trkpt>
      <trkpt lat="50.63124" lon="3.22755">
        <ele>-24</ele>
        <time>2018-06-26T09:46:21Z</time>
      </trkpt>
      <trkpt lat="50.63112" lon="3.22752">
        <ele>-24.2</ele>
        <time>2018-06-26T09:46:25Z</time>
      </trkpt>
      <trkpt lat="50.631" lon="3.2275">
        <ele>-24.4</ele>
        <time>2018-06-26T09:46:29Z</time>
      </trkpt>
      <trkpt lat="50.63087" lon="3.22751">
        <ele>-24.4</ele>
        <time>2018-06-26T09:46:33Z</time>
      </trkpt>
      <trkpt lat="50.63075" lon="3.22757">
        <ele>-24.8</ele>
        <time>2018-06-26T09:46:37Z</time>
      </trkpt>
      <trkpt lat="50.63061" lon="3.22765">
        <ele>-24.6</ele>
        <time>2018-06-26T09:46:41Z</time>
      </trkpt>
      <trkpt lat="50.63049" lon="3.22773">
        <ele>-24.6</ele>
        <time>2018-06-26T09:46:45Z</time>
      </trkpt>
      <trkpt lat="50.63036" lon="3.22784">
        <ele>-24.8</ele>
        <time>2018-06-26T09:46:49Z</time>
      </trkpt>
      <trkpt lat="50.63022" lon="3.22794">
        <ele>-25.2</ele>
        <time>2018-06-26T09:46:53Z</time>
      </trkpt>
      <trkpt lat="50.63007" lon="3.22804">
        <ele>-25.6</ele>
        <time>2018-06-26T09:46:57Z</time>
      </trkpt>
      <trkpt lat="50.62991" lon="3.22816">
        <ele>-26.2</ele>
        <time>2018-06-26T09:47:01Z</time>
      </trkpt>
      <trkpt lat="50.62974" lon="3.22824">
        <ele>-26</ele>
        <time>2018-06-26T09:47:05Z</time>
      </trkpt>
      <trkpt lat="50.62956" lon="3.22825">
        <ele>-26.2</ele>
        <time>2018-06-26T09:47:09Z</time>
      </trkpt>
      <trkpt lat="50.62936" lon="3.22821">
        <ele>-26.8</ele>
        <time>2018-06-26T09:47:13Z</time>
      </trkpt>
      <trkpt lat="50.62921" lon="3.22814">
        <ele>-27.2</ele>
        <time>2018-06-26T09:47:17Z</time>
      </trkpt>
      <trkpt lat="50.62911" lon="3.22805">
        <ele>-27.8</ele>
        <time>2018-06-26T09:47:21Z</time>
      </trkpt>
      <trkpt lat="50.62902" lon="3.22791">
        <ele>-28.2</ele>
        <time>2018-06-26T09:47:25Z</time>
      </trkpt>
      <trkpt lat="50.62896" lon="3.22772">
        <ele>-28</ele>
        <time>2018-06-26T09:47:29Z</time>
      </trkpt>
      <trkpt lat="50.62893" lon="3.22748">
        <ele>-28.2</ele>
        <time>2018-06-26T09:47:33Z</time>
      </trkpt>
      <trkpt lat="50.62888" lon="3.22724">
        <ele>-28.4</ele>
        <time>2018-06-26T09:47:37Z</time>
      </trkpt>
      <trkpt lat="50.62879" lon="3.22702">
        <ele>-28.8</ele>
        <time>2018-06-26T09:47:41Z</time>
      </trkpt>
      <trkpt lat="50.6287" lon="3.22684">
        <ele>-28.8</ele>
        <time>2018-06-26T09:47:45Z</time>
      </trkpt>
      <trkpt lat="50.62862" lon="3.22665">
        <ele>-29</ele>
        <time>2018-06-26T09:47:49Z</time>
      </trkpt>
      <trkpt lat="50.62863" lon="3.22641">
        <ele>-29</ele>
        <time>2018-06-26T09:47:53Z</time>
      </trkpt>
      <trkpt lat="50.62868" lon="3.22616">
        <ele>-28.8</ele>
        <time>2018-06-26T09:47:57Z</time>
      </trkpt>
      <trkpt lat="50.6287" lon="3.22593">
        <ele>-29.2</ele>
        <time>2018-06-26T09:48:01Z</time>
      </trkpt>
      <trkpt lat="50.6287" lon="3.22571">
        <ele>-29.4</ele>
        <time>2018-06-26T09:48:05Z</time>
      </trkpt>
      <trkpt lat="50.62857" lon="3.22557">
        <ele>-29.6</ele>
        <time>2018-06-26T09:48:09Z</time>
      </trkpt>
      <trkpt lat="50.62841" lon="3.22548">
        <ele>-29.4</ele>
        <time>2018-06-26T09:48:13Z</time>
      </trkpt>
      <trkpt lat="50.62824" lon="3.22543">
        <ele>-29.6</ele>
        <time>2018-06-26T09:48:17Z</time>
      </trkpt>
      <trkpt lat="50.62808" lon="3.22538">
        <ele>-30.4</ele>
        <time>2018-06-26T09:48:21Z</time>
      </trkpt>
      <trkpt lat="50.62792" lon="3.22533">
        <ele>-30.2</ele>
        <time>2018-06-26T09:48:25Z</time>
      </trkpt>
      <trkpt lat="50.62777" lon="3.22529">
        <ele>-30.6</ele>
        <time>2018-06-26T09:48:29Z</time>
      </trkpt>
      <trkpt lat="50.62762" lon="3.22523">
        <ele>-30.6</ele>
        <time>2018-06-26T09:48:33Z</time>
      </trkpt>
      <trkpt lat="50.62748" lon="3.22518">
        <ele>-30.6</ele>
        <time>2018-06-26T09:48:37Z</time>
      </trkpt>
      <trkpt lat="50.62733" lon="3.22514">
        <ele>-30.8</ele>
        <time>2018-06-26T09:48:41Z</time>
      </trkpt>
      <trkpt lat="50.62718" lon="3.22509">
        <ele>-30.6</ele>
        <time>2018-06-26T09:48:45Z</time>
      </trkpt>
      <trkpt lat="50.62709" lon="3.22503">
        <ele>-30.8</ele>
        <time>2018-06-26T09:48:49Z</time>
      </trkpt>
      <trkpt lat="50.62698" lon="3.22495">
        <ele>-31</ele>
        <time>2018-06-26T09:48:53Z</time>
      </trkpt>
      <trkpt lat="50.62686" lon="3.22485">
        <ele>-31</ele>
        <time>2018-06-26T09:48:57Z</time>
      </trkpt>
      <trkpt lat="50.62673" lon="3.22475">
        <ele>-31.6</ele>
        <time>2018-06-26T09:49:01Z</time>
      </trkpt>
      <trkpt lat="50.62659" lon="3.22465">
        <ele>-31.6</ele>
        <time>2018-06-26T09:49:05Z</time>
      </trkpt>
      <trkpt lat="50.62646" lon="3.22453">
        <ele>-31.6</ele>
        <time>2018-06-26T09:49:09Z</time>
      </trkpt>
      <trkpt lat="50.62635" lon="3.2244">
        <ele>-31.4</ele>
        <time>2018-06-26T09:49:13Z</time>
      </trkpt>
      <trkpt lat="50.62625" lon="3.22426">
        <ele>-31</ele>
        <time>2018-06-26T09:49:17Z</time>
      </trkpt>
      <trkpt lat="50.62616" lon="3.22411">
        <ele>-31.4</ele>
        <time>2018-06-26T09:49:21Z</time>
      </trkpt>
      <trkpt lat="50.62606" lon="3.22396">
        <ele>-31.4</ele>
        <time>2018-06-26T09:49:25Z</time>
      </trkpt>
      <trkpt lat="50.62595" lon="3.22381">
        <ele>-30.6</ele>
        <time>2018-06-26T09:49:29Z</time>
      </trkpt>
      <trkpt lat="50.62583" lon="3.22365">
        <ele>-30.8</ele>
        <time>2018-06-26T09:49:33Z</time>
      </trkpt>
      <trkpt lat="50.62572" lon="3.22348">
        <ele>-30.8</ele>
        <time>2018-06-26T09:49:37Z</time>
      </trkpt>
      <trkpt lat="50.6256" lon="3.22332">
        <ele>-30.8</ele>
        <time>2018-06-26T09:49:41Z</time>
      </trkpt>
      <trkpt lat="50.62548" lon="3.22315">
        <ele>-30.6</ele>
        <time>2018-06-26T09:49:45Z</time>
      </trkpt>
      <trkpt lat="50.62535" lon="3.22299">
        <ele>-30.6</ele>
        <time>2018-06-26T09:49:49Z</time>
      </trkpt>
      <trkpt lat="50.62521" lon="3.22286">
        <ele>-30.8</ele>
        <time>2018-06-26T09:49:53Z</time>
      </trkpt>
      <trkpt lat="50.62508" lon="3.22273">
        <ele>-31</ele>
        <time>2018-06-26T09:49:57Z</time>
      </trkpt>
      <trkpt lat="50.62496" lon="3.22261">
        <ele>-30.8</ele>
        <time>2018-06-26T09:50:01Z</time>
      </trkpt>
      <trkpt lat="50.62484" lon="3.2225">
        <ele>-31</ele>
        <time>2018-06-26T09:50:05Z</time>
      </trkpt>
      <trkpt lat="50.62471" lon="3.22238">
        <ele>-31</ele>
        <time>2018-06-26T09:50:09Z</time>
      </trkpt>
      <trkpt lat="50.62459" lon="3.22227">
        <ele>-30.8</ele>
        <time>2018-06-26T09:50:13Z</time>
      </trkpt>
      <trkpt lat="50.62448" lon="3.22216">
        <ele>-31</ele>
        <time>2018-06-26T09:50:17Z</time>
      </trkpt>
      <trkpt lat="50.62436" lon="3.22204">
        <ele>-30.2</ele>
        <time>2018-06-26T09:50:21Z</time>
      </trkpt>
      <trkpt lat="50.62423" lon="3.22192">
        <ele>-31</ele>
        <time>2018-06-26T09:50:25Z</time>
      </trkpt>
      <trkpt lat="50.6241" lon="3.2218">
        <ele>-32</ele>
        <time>2018-06-26T09:50:29Z</time>
      </trkpt>
      <trkpt lat="50.62397" lon="3.22168">
        <ele>-31.2</ele>
        <time>2018-06-26T09:50:33Z</time>
      </trkpt>
      <trkpt lat="50.62384" lon="3.22157">
        <ele>-30.8</ele>
        <time>2018-06-26T09:50:37Z</time>
      </trkpt>
      <trkpt lat="50.62372" lon="3.22145">
        <ele>-31</ele>
        <time>2018-06-26T09:50:41Z</time>
      </trkpt>
      <trkpt lat="50.6236" lon="3.22133">
        <ele>-30.8</ele>
        <time>2018-06-26T09:50:45Z</time>
      </trkpt>
      <trkpt lat="50.62348" lon="3.22122">
        <ele>-31.6</ele>
        <time>2018-06-26T09:50:49Z</time>
      </trkpt>
      <trkpt lat="50.62335" lon="3.2211">
        <ele>-31.4</ele>
        <time>2018-06-26T09:50:53Z</time>
      </trkpt>
      <trkpt lat="50.62323" lon="3.22098">
        <ele>-31.6</ele>
        <time>2018-06-26T09:50:57Z</time>
      </trkpt>
      <trkpt lat="50.62311" lon="3.22088">
        <ele>-31.4</ele>
        <time>2018-06-26T09:51:01Z</time>
      </trkpt>
      <trkpt lat="50.62299" lon="3.22077">
        <ele>-32</ele>
        <time>2018-06-26T09:51:05Z</time>
      </trkpt>
      <trkpt lat="50.62289" lon="3.22067">
        <ele>-31.4</ele>
        <time>2018-06-26T09:51:09Z</time>
      </trkpt>
      <trkpt lat="50.6228" lon="3.22069">
        <ele>-31.4</ele>
        <time>2018-06-26T09:51:13Z</time>
      </trkpt>
      <trkpt lat="50.62277" lon="3.2208">
        <ele>-31.6</ele>
        <time>2018-06-26T09:51:17Z</time>
      </trkpt>
      <trkpt lat="50.62272" lon="3.22091">
        <ele>-31</ele>
        <time>2018-06-26T09:51:21Z</time>
      </trkpt>
      <trkpt lat="50.62269" lon="3.22102">
        <ele>-31.2</ele>
        <time>2018-06-26T09:51:25Z</time>
      </trkpt>
      <trkpt lat="50.62265" lon="3.22113">
        <ele>-31.4</ele>
        <time>2018-06-26T09:51:29Z</time>
      </trkpt>
      <trkpt lat="50.62262" lon="3.22122">
        <ele>-31.6</ele>
        <time>2018-06-26T09:51:33Z</time>
      </trkpt>
      <trkpt lat="50.62258" lon="3.2213">
        <ele>-31.4</ele>
        <time>2018-06-26T09:51:37Z</time>
      </trkpt>
      <trkpt lat="50.62253" lon="3.22141">
        <ele>-31.2</ele>
        <time>2018-06-26T09:51:41Z</time>
      </trkpt>
      <trkpt lat="50.62249" lon="3.22157">
        <ele>-31.6</ele>
        <time>2018-06-26T09:51:45Z</time>
      </trkpt>
      <trkpt lat="50.62246" lon="3.22166">
        <ele>-31.2</ele>
        <time>2018-06-26T09:51:49Z</time>
      </trkpt>
      <trkpt lat="50.62246" lon="3.22166">
        <ele>-31.2</ele>
        <time>2018-06-26T09:51:53Z</time>
      </trkpt>
      <trkpt lat="50.62246" lon="3.22166">
        <ele>-32</ele>
        <time>2018-06-26T09:51:57Z</time>
      </trkpt>
      <trkpt lat="50.62246" lon="3.22166">
        <ele>-31.4</ele>
        <time>2018-06-26T09:52:01Z</time>
      </trkpt>
      <trkpt lat="50.62244" lon="3.22168">
        <ele>-31.2</ele>
        <time>2018-06-26T09:52:05Z</time>
      </trkpt>
      <trkpt lat="50.62247" lon="3.22163">
        <ele>-31</ele>
        <time>2018-06-26T09:52:09Z</time>
      </trkpt>
      <trkpt lat="50.6225" lon="3.22153">
        <ele>-31</ele>
        <time>2018-06-26T09:52:13Z</time>
      </trkpt>
      <trkpt lat="50.62253" lon="3.22142">
        <ele>-31</ele>
        <time>2018-06-26T09:52:17Z</time>
      </trkpt>
      <trkpt lat="50.62257" lon="3.22131">
        <ele>-31.4</ele>
        <time>2018-06-26T09:52:21Z</time>
      </trkpt>
      <trkpt lat="50.62262" lon="3.22118">
        <ele>-31.2</ele>
        <time>2018-06-26T09:52:25Z</time>
      </trkpt>
      <trkpt lat="50.62267" lon="3.22105">
        <ele>-31</ele>
        <time>2018-06-26T09:52:29Z</time>
      </trkpt>
      <trkpt lat="50.62272" lon="3.22093">
        <ele>-31</ele>
        <time>2018-06-26T09:52:33Z</time>
      </trkpt>
      <trkpt lat="50.62276" lon="3.22081">
        <ele>-31</ele>
        <time>2018-06-26T09:52:37Z</time>
      </trkpt>
      <trkpt lat="50.6228" lon="3.22067">
        <ele>-31.4</ele>
        <time>2018-06-26T09:52:41Z</time>
      </trkpt>
      <trkpt lat="50.62275" lon="3.22059">
        <ele>-31</ele>
        <time>2018-06-26T09:52:45Z</time>
      </trkpt>
      <trkpt lat="50.6227" lon="3.22052">
        <ele>-31.4</ele>
        <time>2018-06-26T09:52:49Z</time>
      </trkpt>
      <trkpt lat="50.62265" lon="3.22045">
        <ele>-31</ele>
        <time>2018-06-26T09:52:53Z</time>
      </trkpt>
      <trkpt lat="50.62258" lon="3.22041">
        <ele>-32</ele>
        <time>2018-06-26T09:52:57Z</time>
      </trkpt>
      <trkpt lat="50.62251" lon="3.22036">
        <ele>-32</ele>
        <time>2018-06-26T09:53:01Z</time>
      </trkpt>
      <trkpt lat="50.62246" lon="3.22026">
        <ele>-32</ele>
        <time>2018-06-26T09:53:05Z</time>
      </trkpt>
      <trkpt lat="50.62241" lon="3.22019">
        <ele>-31.4</ele>
        <time>2018-06-26T09:53:09Z</time>
      </trkpt>
      <trkpt lat="50.62232" lon="3.22011">
        <ele>-31.2</ele>
        <time>2018-06-26T09:53:13Z</time>
      </trkpt>
      <trkpt lat="50.62223" lon="3.22002">
        <ele>-31.2</ele>
        <time>2018-06-26T09:53:17Z</time>
      </trkpt>
      <trkpt lat="50.62217" lon="3.21994">
        <ele>-31.8</ele>
        <time>2018-06-26T09:53:21Z</time>
      </trkpt>
      <trkpt lat="50.62208" lon="3.21989">
        <ele>-31.4</ele>
        <time>2018-06-26T09:53:25Z</time>
      </trkpt>
      <trkpt lat="50.62202" lon="3.21981">
        <ele>-31.2</ele>
        <time>2018-06-26T09:53:29Z</time>
      </trkpt>
      <trkpt lat="50.62192" lon="3.21973">
        <ele>-31.4</ele>
        <time>2018-06-26T09:53:33Z</time>
      </trkpt>
      <trkpt lat="50.62184" lon="3.21966">
        <ele>-31.4</ele>
        <time>2018-06-26T09:53:37Z</time>
      </trkpt>
      <trkpt lat="50.62178" lon="3.21958">
        <ele>-31.4</ele>
        <time>2018-06-26T09:53:41Z</time>
      </trkpt>
      <trkpt lat="50.62178" lon="3.21949">
        <ele>-31.4</ele>
        <time>2018-06-26T09:53:45Z</time>
      </trkpt>
      <trkpt lat="50.6218" lon="3.21938">
        <ele>-31.2</ele>
        <time>2018-06-26T09:53:49Z</time>
      </trkpt>
      <trkpt lat="50.62184" lon="3.21923">
        <ele>-31.2</ele>
        <time>2018-06-26T09:53:53Z</time>
      </trkpt>
      <trkpt lat="50.62188" lon="3.21908">
        <ele>-31.2</ele>
        <time>2018-06-26T09:53:57Z</time>
      </trkpt>
      <trkpt lat="50.62194" lon="3.21895">
        <ele>-31.4</ele>
        <time>2018-06-26T09:54:01Z</time>
      </trkpt>
      <trkpt lat="50.62199" lon="3.21883">
        <ele>-31</ele>
        <time>2018-06-26T09:54:05Z</time>
      </trkpt>
      <trkpt lat="50.62203" lon="3.21871">
        <ele>-31</ele>
        <time>2018-06-26T09:54:09Z</time>
      </trkpt>
      <trkpt lat="50.62209" lon="3.21861">
        <ele>-31</ele>
        <time>2018-06-26T09:54:13Z</time>
      </trkpt>
      <trkpt lat="50.62215" lon="3.2185">
        <ele>-31</ele>
        <time>2018-06-26T09:54:17Z</time>
      </trkpt>
      <trkpt lat="50.62222" lon="3.21841">
        <ele>-31</ele>
        <time>2018-06-26T09:54:21Z</time>
      </trkpt>
      <trkpt lat="50.62228" lon="3.2183">
        <ele>-31.2</ele>
        <time>2018-06-26T09:54:25Z</time>
      </trkpt>
      <trkpt lat="50.62232" lon="3.21819">
        <ele>-31</ele>
        <time>2018-06-26T09:54:29Z</time>
      </trkpt>
      <trkpt lat="50.62236" lon="3.21807">
        <ele>-30.8</ele>
        <time>2018-06-26T09:54:33Z</time>
      </trkpt>
      <trkpt lat="50.62245" lon="3.21791">
        <ele>-31.4</ele>
        <time>2018-06-26T09:54:37Z</time>
      </trkpt>
      <trkpt lat="50.62251" lon="3.21775">
        <ele>-31.8</ele>
        <time>2018-06-26T09:54:41Z</time>
      </trkpt>
      <trkpt lat="50.62257" lon="3.21761">
        <ele>-31.8</ele>
        <time>2018-06-26T09:54:45Z</time>
      </trkpt>
      <trkpt lat="50.62264" lon="3.21746">
        <ele>-31.8</ele>
        <time>2018-06-26T09:54:49Z</time>
      </trkpt>
      <trkpt lat="50.62269" lon="3.21735">
        <ele>-31.8</ele>
        <time>2018-06-26T09:54:53Z</time>
      </trkpt>
      <trkpt lat="50.62282" lon="3.21725">
        <ele>-31.4</ele>
        <time>2018-06-26T09:54:57Z</time>
      </trkpt>
      <trkpt lat="50.62289" lon="3.21729">
        <ele>-31.4</ele>
        <time>2018-06-26T09:55:01Z</time>
      </trkpt>
      <trkpt lat="50.62296" lon="3.21734">
        <ele>-31.4</ele>
        <time>2018-06-26T09:55:05Z</time>
      </trkpt>
      <trkpt lat="50.62304" lon="3.21742">
        <ele>-31.6</ele>
        <time>2018-06-26T09:55:09Z</time>
      </trkpt>
      <trkpt lat="50.62314" lon="3.21751">
        <ele>-31.2</ele>
        <time>2018-06-26T09:55:13Z</time>
      </trkpt>
      <trkpt lat="50.62318" lon="3.21761">
        <ele>-32</ele>
        <time>2018-06-26T09:55:17Z</time>
      </trkpt>
      <trkpt lat="50.62318" lon="3.21761">
        <ele>-32</ele>
        <time>2018-06-26T09:55:21Z</time>
      </trkpt>
      <trkpt lat="50.62318" lon="3.21761">
        <ele>-31.8</ele>
        <time>2018-06-26T09:55:25Z</time>
      </trkpt>
      <trkpt lat="50.62318" lon="3.21761">
        <ele>-31.8</ele>
        <time>2018-06-26T09:55:29Z</time>
      </trkpt>
      <trkpt lat="50.62323" lon="3.21763">
        <ele>-31.6</ele>
        <time>2018-06-26T09:55:33Z</time>
      </trkpt>
      <trkpt lat="50.62329" lon="3.21767">
        <ele>-31.4</ele>
        <time>2018-06-26T09:55:37Z</time>
      </trkpt>
      <trkpt lat="50.62337" lon="3.21771">
        <ele>-31.6</ele>
        <time>2018-06-26T09:55:41Z</time>
      </trkpt>
      <trkpt lat="50.62346" lon="3.21778">
        <ele>-31.4</ele>
        <time>2018-06-26T09:55:45Z</time>
      </trkpt>
      <trkpt lat="50.62354" lon="3.21785">
        <ele>-31.4</ele>
        <time>2018-06-26T09:55:49Z</time>
      </trkpt>
      <trkpt lat="50.62353" lon="3.21799">
        <ele>-31.8</ele>
        <time>2018-06-26T09:55:53Z</time>
      </trkpt>
      <trkpt lat="50.62352" lon="3.21813">
        <ele>-32.4</ele>
        <time>2018-06-26T09:55:57Z</time>
      </trkpt>
      <trkpt lat="50.62351" lon="3.21824">
        <ele>-32.2</ele>
        <time>2018-06-26T09:56:01Z</time>
      </trkpt>
      <trkpt lat="50.62348" lon="3.21838">
        <ele>-32.2</ele>
        <time>2018-06-26T09:56:05Z</time>
      </trkpt>
      <trkpt lat="50.62343" lon="3.21852">
        <ele>-32.2</ele>
        <time>2018-06-26T09:56:09Z</time>
      </trkpt>
      <trkpt lat="50.62339" lon="3.21865">
        <ele>-31.8</ele>
        <time>2018-06-26T09:56:13Z</time>
      </trkpt>
      <trkpt lat="50.62335" lon="3.21876">
        <ele>-32</ele>
        <time>2018-06-26T09:56:17Z</time>
      </trkpt>
      <trkpt lat="50.62331" lon="3.21889">
        <ele>-31.4</ele>
        <time>2018-06-26T09:56:21Z</time>
      </trkpt>
      <trkpt lat="50.62326" lon="3.21905">
        <ele>-31.8</ele>
        <time>2018-06-26T09:56:25Z</time>
      </trkpt>
      <trkpt lat="50.62322" lon="3.21919">
        <ele>-31.4</ele>
        <time>2018-06-26T09:56:29Z</time>
      </trkpt>
      <trkpt lat="50.62316" lon="3.21933">
        <ele>-31.8</ele>
        <time>2018-06-26T09:56:33Z</time>
      </trkpt>
      <trkpt lat="50.62309" lon="3.21948">
        <ele>-31.8</ele>
        <time>2018-06-26T09:56:37Z</time>
      </trkpt>
      <trkpt lat="50.62304" lon="3.2196">
        <ele>-31.8</ele>
        <time>2018-06-26T09:56:41Z</time>
      </trkpt>
      <trkpt lat="50.62296" lon="3.21973">
        <ele>-31.6</ele>
        <time>2018-06-26T09:56:45Z</time>
      </trkpt>
      <trkpt lat="50.62289" lon="3.21988">
        <ele>-31.4</ele>
        <time>2018-06-26T09:56:49Z</time>
      </trkpt>
      <trkpt lat="50.62282" lon="3.22002">
        <ele>-32</ele>
        <time>2018-06-26T09:56:53Z</time>
      </trkpt>
      <trkpt lat="50.62276" lon="3.22018">
        <ele>-31.8</ele>
        <time>2018-06-26T09:56:57Z</time>
      </trkpt>
      <trkpt lat="50.62272" lon="3.22031">
        <ele>-32</ele>
        <time>2018-06-26T09:57:01Z</time>
      </trkpt>
      <trkpt lat="50.62274" lon="3.22046">
        <ele>-31.6</ele>
        <time>2018-06-26T09:57:05Z</time>
      </trkpt>
      <trkpt lat="50.6228" lon="3.22055">
        <ele>-31.6</ele>
        <time>2018-06-26T09:57:09Z</time>
      </trkpt>
      <trkpt lat="50.62282" lon="3.22065">
        <ele>-31.8</ele>
        <time>2018-06-26T09:57:13Z</time>
      </trkpt>
      <trkpt lat="50.62279" lon="3.22077">
        <ele>-31.6</ele>
        <time>2018-06-26T09:57:17Z</time>
      </trkpt>
      <trkpt lat="50.62273" lon="3.22091">
        <ele>-31.4</ele>
        <time>2018-06-26T09:57:21Z</time>
      </trkpt>
      <trkpt lat="50.62266" lon="3.22107">
        <ele>-31.4</ele>
        <time>2018-06-26T09:57:25Z</time>
      </trkpt>
      <trkpt lat="50.6226" lon="3.22125">
        <ele>-31.6</ele>
        <time>2018-06-26T09:57:29Z</time>
      </trkpt>
      <trkpt lat="50.62253" lon="3.22141">
        <ele>-31.6</ele>
        <time>2018-06-26T09:57:33Z</time>
      </trkpt>
      <trkpt lat="50.62248" lon="3.22158">
        <ele>-31.6</ele>
        <time>2018-06-26T09:57:37Z</time>
      </trkpt>
      <trkpt lat="50.62239" lon="3.22171">
        <ele>-32</ele>
        <time>2018-06-26T09:57:41Z</time>
      </trkpt>
      <trkpt lat="50.62227" lon="3.22169">
        <ele>-31.8</ele>
        <time>2018-06-26T09:57:45Z</time>
      </trkpt>
      <trkpt lat="50.62218" lon="3.22159">
        <ele>-32</ele>
        <time>2018-06-26T09:57:49Z</time>
      </trkpt>
      <trkpt lat="50.62212" lon="3.22146">
        <ele>-31.6</ele>
        <time>2018-06-26T09:57:53Z</time>
      </trkpt>
      <trkpt lat="50.62207" lon="3.22134">
        <ele>-31.4</ele>
        <time>2018-06-26T09:57:57Z</time>
      </trkpt>
      <trkpt lat="50.622" lon="3.22121">
        <ele>-31.6</ele>
        <time>2018-06-26T09:58:01Z</time>
      </trkpt>
      <trkpt lat="50.62193" lon="3.22106">
        <ele>-30.8</ele>
        <time>2018-06-26T09:58:05Z</time>
      </trkpt>
      <trkpt lat="50.62188" lon="3.22095">
        <ele>-31.2</ele>
        <time>2018-06-26T09:58:09Z</time>
      </trkpt>
      <trkpt lat="50.6217" lon="3.22089">
        <ele>-31.2</ele>
        <time>2018-06-26T09:58:13Z</time>
      </trkpt>
      <trkpt lat="50.62157" lon="3.221">
        <ele>-30.6</ele>
        <time>2018-06-26T09:58:17Z</time>
      </trkpt>
      <trkpt lat="50.6215" lon="3.22115">
        <ele>-31.2</ele>
        <time>2018-06-26T09:58:21Z</time>
      </trkpt>
      <trkpt lat="50.6214" lon="3.22133">
        <ele>-30.6</ele>
        <time>2018-06-26T09:58:25Z</time>
      </trkpt>
      <trkpt lat="50.62134" lon="3.22151">
        <ele>-30.4</ele>
        <time>2018-06-26T09:58:29Z</time>
      </trkpt>
      <trkpt lat="50.62125" lon="3.22171">
        <ele>-30.8</ele>
        <time>2018-06-26T09:58:33Z</time>
      </trkpt>
      <trkpt lat="50.62116" lon="3.22193">
        <ele>-30.6</ele>
        <time>2018-06-26T09:58:37Z</time>
      </trkpt>
      <trkpt lat="50.62109" lon="3.22214">
        <ele>-31.2</ele>
        <time>2018-06-26T09:58:41Z</time>
      </trkpt>
      <trkpt lat="50.62101" lon="3.22236">
        <ele>-30.8</ele>
        <time>2018-06-26T09:58:45Z</time>
      </trkpt>
      <trkpt lat="50.62094" lon="3.22257">
        <ele>-31</ele>
        <time>2018-06-26T09:58:49Z</time>
      </trkpt>
      <trkpt lat="50.62087" lon="3.22278">
        <ele>-30.6</ele>
        <time>2018-06-26T09:58:53Z</time>
      </trkpt>
      <trkpt lat="50.62079" lon="3.223">
        <ele>-30.6</ele>
        <time>2018-06-26T09:58:57Z</time>
      </trkpt>
      <trkpt lat="50.62072" lon="3.22321">
        <ele>-30.6</ele>
        <time>2018-06-26T09:59:01Z</time>
      </trkpt>
      <trkpt lat="50.62064" lon="3.22343">
        <ele>-30.4</ele>
        <time>2018-06-26T09:59:05Z</time>
      </trkpt>
      <trkpt lat="50.62057" lon="3.22366">
        <ele>-30.6</ele>
        <time>2018-06-26T09:59:09Z</time>
      </trkpt>
      <trkpt lat="50.62051" lon="3.22387">
        <ele>-30.6</ele>
        <time>2018-06-26T09:59:13Z</time>
      </trkpt>
      <trkpt lat="50.62044" lon="3.22408">
        <ele>-30.4</ele>
        <time>2018-06-26T09:59:17Z</time>
      </trkpt>
      <trkpt lat="50.62037" lon="3.22428">
        <ele>-30.6</ele>
        <time>2018-06-26T09:59:21Z</time>
      </trkpt>
      <trkpt lat="50.6203" lon="3.22449">
        <ele>-30.4</ele>
        <time>2018-06-26T09:59:25Z</time>
      </trkpt>
      <trkpt lat="50.62023" lon="3.22469">
        <ele>-30</ele>
        <time>2018-06-26T09:59:29Z</time>
      </trkpt>
      <trkpt lat="50.62017" lon="3.2249">
        <ele>-30.6</ele>
        <time>2018-06-26T09:59:33Z</time>
      </trkpt>
      <trkpt lat="50.6201" lon="3.22511">
        <ele>-30.4</ele>
        <time>2018-06-26T09:59:37Z</time>
      </trkpt>
      <trkpt lat="50.62003" lon="3.22531">
        <ele>-30.6</ele>
        <time>2018-06-26T09:59:41Z</time>
      </trkpt>
      <trkpt lat="50.61997" lon="3.22552">
        <ele>-29.6</ele>
        <time>2018-06-26T09:59:45Z</time>
      </trkpt>
      <trkpt lat="50.6199" lon="3.22572">
        <ele>-30.2</ele>
        <time>2018-06-26T09:59:49Z</time>
      </trkpt>
      <trkpt lat="50.61983" lon="3.22594">
        <ele>-30.6</ele>
        <time>2018-06-26T09:59:53Z</time>
      </trkpt>
      <trkpt lat="50.61976" lon="3.22615">
        <ele>-30.6</ele>
        <time>2018-06-26T09:59:57Z</time>
      </trkpt>
      <trkpt lat="50.61972" lon="3.22629">
        <ele>-30.8</ele>
        <time>2018-06-26T10:00:01Z</time>
      </trkpt>
      <trkpt lat="50.61972" lon="3.22638">
        <ele>-30.6</ele>
        <time>2018-06-26T10:00:05Z</time>
      </trkpt>
      <trkpt lat="50.61981" lon="3.22648">
        <ele>-30.4</ele>
        <time>2018-06-26T10:00:09Z</time>
      </trkpt>
      <trkpt lat="50.61991" lon="3.22659">
        <ele>-30.4</ele>
        <time>2018-06-26T10:00:13Z</time>
      </trkpt>
      <trkpt lat="50.62002" lon="3.22671">
        <ele>-30.4</ele>
        <time>2018-06-26T10:00:17Z</time>
      </trkpt>
      <trkpt lat="50.62013" lon="3.22684">
        <ele>-30.8</ele>
        <time>2018-06-26T10:00:21Z</time>
      </trkpt>
      <trkpt lat="50.62024" lon="3.22697">
        <ele>-31.2</ele>
        <time>2018-06-26T10:00:25Z</time>
      </trkpt>
      <trkpt lat="50.62035" lon="3.2271">
        <ele>-30.6</ele>
        <time>2018-06-26T10:00:29Z</time>
      </trkpt>
      <trkpt lat="50.62046" lon="3.22723">
        <ele>-31.4</ele>
        <time>2018-06-26T10:00:33Z</time>
      </trkpt>
      <trkpt lat="50.62057" lon="3.22736">
        <ele>-31</ele>
        <time>2018-06-26T10:00:37Z</time>
      </trkpt>
      <trkpt lat="50.62064" lon="3.22752">
        <ele>-30.8</ele>
        <time>2018-06-26T10:00:41Z</time>
      </trkpt>
      <trkpt lat="50.62064" lon="3.22769">
        <ele>-30.6</ele>
        <time>2018-06-26T10:00:45Z</time>
      </trkpt>
      <trkpt lat="50.6206" lon="3.22789">
        <ele>-31.2</ele>
        <time>2018-06-26T10:00:49Z</time>
      </trkpt>
      <trkpt lat="50.62055" lon="3.22811">
        <ele>-30.8</ele>
        <time>2018-06-26T10:00:53Z</time>
      </trkpt>
      <trkpt lat="50.62051" lon="3.22832">
        <ele>-30.6</ele>
        <time>2018-06-26T10:00:57Z</time>
      </trkpt>
      <trkpt lat="50.62047" lon="3.22852">
        <ele>-30.8</ele>
        <time>2018-06-26T10:01:01Z</time>
      </trkpt>
      <trkpt lat="50.62043" lon="3.22872">
        <ele>-30.4</ele>
        <time>2018-06-26T10:01:05Z</time>
      </trkpt>
      <trkpt lat="50.62039" lon="3.22893">
        <ele>-30.6</ele>
        <time>2018-06-26T10:01:09Z</time>
      </trkpt>
      <trkpt lat="50.62036" lon="3.22914">
        <ele>-30.6</ele>
        <time>2018-06-26T10:01:13Z</time>
      </trkpt>
      <trkpt lat="50.62032" lon="3.22935">
        <ele>-30.2</ele>
        <time>2018-06-26T10:01:17Z</time>
      </trkpt>
      <trkpt lat="50.62029" lon="3.22955">
        <ele>-30.4</ele>
        <time>2018-06-26T10:01:21Z</time>
      </trkpt>
      <trkpt lat="50.62026" lon="3.22975">
        <ele>-30.6</ele>
        <time>2018-06-26T10:01:25Z</time>
      </trkpt>
      <trkpt lat="50.62022" lon="3.22996">
        <ele>-30.2</ele>
        <time>2018-06-26T10:01:29Z</time>
      </trkpt>
      <trkpt lat="50.6202" lon="3.23017">
        <ele>-30.2</ele>
        <time>2018-06-26T10:01:33Z</time>
      </trkpt>
      <trkpt lat="50.62025" lon="3.23035">
        <ele>-30</ele>
        <time>2018-06-26T10:01:37Z</time>
      </trkpt>
      <trkpt lat="50.62031" lon="3.2305">
        <ele>-30.2</ele>
        <time>2018-06-26T10:01:41Z</time>
      </trkpt>
      <trkpt lat="50.6203" lon="3.23067">
        <ele>-29.6</ele>
        <time>2018-06-26T10:01:45Z</time>
      </trkpt>
      <trkpt lat="50.62023" lon="3.23083">
        <ele>-29.6</ele>
        <time>2018-06-26T10:01:49Z</time>
      </trkpt>
      <trkpt lat="50.62015" lon="3.23099">
        <ele>-29.6</ele>
        <time>2018-06-26T10:01:53Z</time>
      </trkpt>
      <trkpt lat="50.62006" lon="3.23112">
        <ele>-29.6</ele>
        <time>2018-06-26T10:01:57Z</time>
      </trkpt>
      <trkpt lat="50.61996" lon="3.23121">
        <ele>-29.6</ele>
        <time>2018-06-26T10:02:01Z</time>
      </trkpt>
      <trkpt lat="50.61989" lon="3.23125">
        <ele>-29.8</ele>
        <time>2018-06-26T10:02:05Z</time>
      </trkpt>
      <trkpt lat="50.61994" lon="3.23139">
        <ele>-29.8</ele>
        <time>2018-06-26T10:02:09Z</time>
      </trkpt>
      <trkpt lat="50.62004" lon="3.23154">
        <ele>-29.8</ele>
        <time>2018-06-26T10:02:13Z</time>
      </trkpt>
      <trkpt lat="50.62013" lon="3.23169">
        <ele>-29.6</ele>
        <time>2018-06-26T10:02:17Z</time>
      </trkpt>
      <trkpt lat="50.62023" lon="3.23186">
        <ele>-29.6</ele>
        <time>2018-06-26T10:02:21Z</time>
      </trkpt>
      <trkpt lat="50.62033" lon="3.23203">
        <ele>-29.8</ele>
        <time>2018-06-26T10:02:25Z</time>
      </trkpt>
      <trkpt lat="50.62043" lon="3.2322">
        <ele>-29.6</ele>
        <time>2018-06-26T10:02:29Z</time>
      </trkpt>
      <trkpt lat="50.62054" lon="3.23238">
        <ele>-30</ele>
        <time>2018-06-26T10:02:33Z</time>
      </trkpt>
      <trkpt lat="50.62065" lon="3.23255">
        <ele>-30.2</ele>
        <time>2018-06-26T10:02:37Z</time>
      </trkpt>
      <trkpt lat="50.62075" lon="3.23271">
        <ele>-29.6</ele>
        <time>2018-06-26T10:02:41Z</time>
      </trkpt>
      <trkpt lat="50.62085" lon="3.23286">
        <ele>-30.2</ele>
        <time>2018-06-26T10:02:45Z</time>
      </trkpt>
      <trkpt lat="50.62093" lon="3.23298">
        <ele>-30.6</ele>
        <time>2018-06-26T10:02:49Z</time>
      </trkpt>
      <trkpt lat="50.62102" lon="3.23311">
        <ele>-30.8</ele>
        <time>2018-06-26T10:02:53Z</time>
      </trkpt>
      <trkpt lat="50.62112" lon="3.23323">
        <ele>-30.2</ele>
        <time>2018-06-26T10:02:57Z</time>
      </trkpt>
      <trkpt lat="50.62121" lon="3.23331">
        <ele>-30.4</ele>
        <time>2018-06-26T10:03:01Z</time>
      </trkpt>
      <trkpt lat="50.62129" lon="3.2334">
        <ele>-30.4</ele>
        <time>2018-06-26T10:03:05Z</time>
      </trkpt>
      <trkpt lat="50.62139" lon="3.2335">
        <ele>-30.6</ele>
        <time>2018-06-26T10:03:09Z</time>
      </trkpt>
      <trkpt lat="50.62145" lon="3.23359">
        <ele>-30.2</ele>
        <time>2018-06-26T10:03:13Z</time>
      </trkpt>
      <trkpt lat="50.62147" lon="3.2337">
        <ele>-30.2</ele>
        <time>2018-06-26T10:03:17Z</time>
      </trkpt>
      <trkpt lat="50.62149" lon="3.23376">
        <ele>-30.2</ele>
        <time>2018-06-26T10:03:21Z</time>
      </trkpt>
      <trkpt lat="50.62155" lon="3.23381">
        <ele>-30.2</ele>
        <time>2018-06-26T10:03:25Z</time>
      </trkpt>
      <trkpt lat="50.62166" lon="3.23383">
        <ele>-30</ele>
        <time>2018-06-26T10:03:29Z</time>
      </trkpt>
      <trkpt lat="50.62176" lon="3.23384">
        <ele>-30.2</ele>
        <time>2018-06-26T10:03:33Z</time>
      </trkpt>
      <trkpt lat="50.62184" lon="3.23385">
        <ele>-30.2</ele>
        <time>2018-06-26T10:03:37Z</time>
      </trkpt>
      <trkpt lat="50.62188" lon="3.23397">
        <ele>-30</ele>
        <time>2018-06-26T10:03:41Z</time>
      </trkpt>
      <trkpt lat="50.6219" lon="3.23416">
        <ele>-30.2</ele>
        <time>2018-06-26T10:03:45Z</time>
      </trkpt>
      <trkpt lat="50.62193" lon="3.23434">
        <ele>-30</ele>
        <time>2018-06-26T10:03:49Z</time>
      </trkpt>
      <trkpt lat="50.62196" lon="3.23452">
        <ele>-29.6</ele>
        <time>2018-06-26T10:03:53Z</time>
      </trkpt>
      <trkpt lat="50.62199" lon="3.23471">
        <ele>-29.6</ele>
        <time>2018-06-26T10:03:57Z</time>
      </trkpt>
      <trkpt lat="50.62202" lon="3.2349">
        <ele>-29.6</ele>
        <time>2018-06-26T10:04:01Z</time>
      </trkpt>
      <trkpt lat="50.62205" lon="3.23511">
        <ele>-30</ele>
        <time>2018-06-26T10:04:05Z</time>
      </trkpt>
      <trkpt lat="50.62208" lon="3.23532">
        <ele>-30.2</ele>
        <time>2018-06-26T10:04:09Z</time>
      </trkpt>
      <trkpt lat="50.62209" lon="3.23552">
        <ele>-30.2</ele>
        <time>2018-06-26T10:04:13Z</time>
      </trkpt>
      <trkpt lat="50.6221" lon="3.23573">
        <ele>-30</ele>
        <time>2018-06-26T10:04:17Z</time>
      </trkpt>
      <trkpt lat="50.62211" lon="3.23594">
        <ele>-29.6</ele>
        <time>2018-06-26T10:04:21Z</time>
      </trkpt>
      <trkpt lat="50.62213" lon="3.23614">
        <ele>-29.4</ele>
        <time>2018-06-26T10:04:25Z</time>
      </trkpt>
      <trkpt lat="50.62218" lon="3.23632">
        <ele>-29.2</ele>
        <time>2018-06-26T10:04:29Z</time>
      </trkpt>
      <trkpt lat="50.62224" lon="3.23649">
        <ele>-29</ele>
        <time>2018-06-26T10:04:33Z</time>
      </trkpt>
      <trkpt lat="50.62227" lon="3.23667">
        <ele>-29.2</ele>
        <time>2018-06-26T10:04:37Z</time>
      </trkpt>
      <trkpt lat="50.62228" lon="3.23686">
        <ele>-29.4</ele>
        <time>2018-06-26T10:04:41Z</time>
      </trkpt>
      <trkpt lat="50.62227" lon="3.23706">
        <ele>-28.8</ele>
        <time>2018-06-26T10:04:45Z</time>
      </trkpt>
      <trkpt lat="50.62226" lon="3.23726">
        <ele>-28.8</ele>
        <time>2018-06-26T10:04:49Z</time>
      </trkpt>
      <trkpt lat="50.62224" lon="3.23746">
        <ele>-29.8</ele>
        <time>2018-06-26T10:04:53Z</time>
      </trkpt>
      <trkpt lat="50.62222" lon="3.23767">
        <ele>-29.4</ele>
        <time>2018-06-26T10:04:57Z</time>
      </trkpt>
      <trkpt lat="50.6222" lon="3.23786">
        <ele>-28.6</ele>
        <time>2018-06-26T10:05:01Z</time>
      </trkpt>
      <trkpt lat="50.62218" lon="3.23806">
        <ele>-28.6</ele>
        <time>2018-06-26T10:05:05Z</time>
      </trkpt>
      <trkpt lat="50.62215" lon="3.23826">
        <ele>-28.2</ele>
        <time>2018-06-26T10:05:09Z</time>
      </trkpt>
      <trkpt lat="50.62212" lon="3.23846">
        <ele>-28.6</ele>
        <time>2018-06-26T10:05:13Z</time>
      </trkpt>
      <trkpt lat="50.62209" lon="3.23865">
        <ele>-28.6</ele>
        <time>2018-06-26T10:05:17Z</time>
      </trkpt>
      <trkpt lat="50.62206" lon="3.23883">
        <ele>-28.2</ele>
        <time>2018-06-26T10:05:21Z</time>
      </trkpt>
      <trkpt lat="50.62203" lon="3.23901">
        <ele>-28.8</ele>
        <time>2018-06-26T10:05:25Z</time>
      </trkpt>
      <trkpt lat="50.622" lon="3.2392">
        <ele>-28.4</ele>
        <time>2018-06-26T10:05:29Z</time>
      </trkpt>
      <trkpt lat="50.62198" lon="3.23939">
        <ele>-28.4</ele>
        <time>2018-06-26T10:05:33Z</time>
      </trkpt>
      <trkpt lat="50.62195" lon="3.23959">
        <ele>-28.2</ele>
        <time>2018-06-26T10:05:37Z</time>
      </trkpt>
      <trkpt lat="50.62192" lon="3.23978">
        <ele>-28.4</ele>
        <time>2018-06-26T10:05:41Z</time>
      </trkpt>
      <trkpt lat="50.62189" lon="3.23996">
        <ele>-28.4</ele>
        <time>2018-06-26T10:05:45Z</time>
      </trkpt>
      <trkpt lat="50.62186" lon="3.24015">
        <ele>-28.4</ele>
        <time>2018-06-26T10:05:49Z</time>
      </trkpt>
      <trkpt lat="50.62184" lon="3.24035">
        <ele>-27.8</ele>
        <time>2018-06-26T10:05:53Z</time>
      </trkpt>
      <trkpt lat="50.62182" lon="3.24056">
        <ele>-27.6</ele>
        <time>2018-06-26T10:05:57Z</time>
      </trkpt>
      <trkpt lat="50.6218" lon="3.24076">
        <ele>-27.8</ele>
        <time>2018-06-26T10:06:01Z</time>
      </trkpt>
      <trkpt lat="50.62178" lon="3.24094">
        <ele>-28.2</ele>
        <time>2018-06-26T10:06:05Z</time>
      </trkpt>
      <trkpt lat="50.62175" lon="3.24112">
        <ele>-28</ele>
        <time>2018-06-26T10:06:09Z</time>
      </trkpt>
      <trkpt lat="50.62174" lon="3.24129">
        <ele>-27.8</ele>
        <time>2018-06-26T10:06:13Z</time>
      </trkpt>
      <trkpt lat="50.62173" lon="3.24144">
        <ele>-27.8</ele>
        <time>2018-06-26T10:06:17Z</time>
      </trkpt>
      <trkpt lat="50.62172" lon="3.24162">
        <ele>-27.6</ele>
        <time>2018-06-26T10:06:21Z</time>
      </trkpt>
      <trkpt lat="50.62171" lon="3.2418">
        <ele>-27.4</ele>
        <time>2018-06-26T10:06:25Z</time>
      </trkpt>
      <trkpt lat="50.6217" lon="3.24198">
        <ele>-27.2</ele>
        <time>2018-06-26T10:06:29Z</time>
      </trkpt>
      <trkpt lat="50.62169" lon="3.24216">
        <ele>-27.4</ele>
        <time>2018-06-26T10:06:33Z</time>
      </trkpt>
      <trkpt lat="50.62168" lon="3.24234">
        <ele>-26.2</ele>
        <time>2018-06-26T10:06:37Z</time>
      </trkpt>
      <trkpt lat="50.62167" lon="3.24253">
        <ele>-26.4</ele>
        <time>2018-06-26T10:06:41Z</time>
      </trkpt>
      <trkpt lat="50.62166" lon="3.24272">
        <ele>-26.8</ele>
        <time>2018-06-26T10:06:45Z</time>
      </trkpt>
      <trkpt lat="50.62165" lon="3.24291">
        <ele>-26.6</ele>
        <time>2018-06-26T10:06:49Z</time>
      </trkpt>
      <trkpt lat="50.62163" lon="3.2431">
        <ele>-26.4</ele>
        <time>2018-06-26T10:06:53Z</time>
      </trkpt>
      <trkpt lat="50.6216" lon="3.24329">
        <ele>-26.6</ele>
        <time>2018-06-26T10:06:57Z</time>
      </trkpt>
      <trkpt lat="50.62155" lon="3.24347">
        <ele>-26.8</ele>
        <time>2018-06-26T10:07:01Z</time>
      </trkpt>
      <trkpt lat="50.62148" lon="3.24363">
        <ele>-27.2</ele>
        <time>2018-06-26T10:07:05Z</time>
      </trkpt>
      <trkpt lat="50.62139" lon="3.24376">
        <ele>-26.8</ele>
        <time>2018-06-26T10:07:09Z</time>
      </trkpt>
      <trkpt lat="50.62132" lon="3.24389">
        <ele>-27.2</ele>
        <time>2018-06-26T10:07:13Z</time>
      </trkpt>
      <trkpt lat="50.6213" lon="3.24405">
        <ele>-27.6</ele>
        <time>2018-06-26T10:07:17Z</time>
      </trkpt>
      <trkpt lat="50.6213" lon="3.24422">
        <ele>-27.2</ele>
        <time>2018-06-26T10:07:21Z</time>
      </trkpt>
      <trkpt lat="50.6213" lon="3.2444">
        <ele>-26.8</ele>
        <time>2018-06-26T10:07:25Z</time>
      </trkpt>
      <trkpt lat="50.6213" lon="3.24459">
        <ele>-27.2</ele>
        <time>2018-06-26T10:07:29Z</time>
      </trkpt>
      <trkpt lat="50.62129" lon="3.2448">
        <ele>-27</ele>
        <time>2018-06-26T10:07:33Z</time>
      </trkpt>
      <trkpt lat="50.62129" lon="3.245">
        <ele>-26.8</ele>
        <time>2018-06-26T10:07:37Z</time>
      </trkpt>
      <trkpt lat="50.62127" lon="3.24522">
        <ele>-27</ele>
        <time>2018-06-26T10:07:41Z</time>
      </trkpt>
      <trkpt lat="50.62124" lon="3.24544">
        <ele>-27</ele>
        <time>2018-06-26T10:07:45Z</time>
      </trkpt>
      <trkpt lat="50.6212" lon="3.24564">
        <ele>-27</ele>
        <time>2018-06-26T10:07:49Z</time>
      </trkpt>
      <trkpt lat="50.62113" lon="3.24586">
        <ele>-26.6</ele>
        <time>2018-06-26T10:07:53Z</time>
      </trkpt>
      <trkpt lat="50.62107" lon="3.24606">
        <ele>-26.6</ele>
        <time>2018-06-26T10:07:57Z</time>
      </trkpt>
      <trkpt lat="50.62101" lon="3.24626">
        <ele>-26.6</ele>
        <time>2018-06-26T10:08:01Z</time>
      </trkpt>
      <trkpt lat="50.62095" lon="3.24645">
        <ele>-26.8</ele>
        <time>2018-06-26T10:08:05Z</time>
      </trkpt>
      <trkpt lat="50.62089" lon="3.24665">
        <ele>-26.4</ele>
        <time>2018-06-26T10:08:09Z</time>
      </trkpt>
      <trkpt lat="50.62089" lon="3.24685">
        <ele>-26.4</ele>
        <time>2018-06-26T10:08:13Z</time>
      </trkpt>
      <trkpt lat="50.62097" lon="3.24701">
        <ele>-26.6</ele>
        <time>2018-06-26T10:08:17Z</time>
      </trkpt>
      <trkpt lat="50.62108" lon="3.24714">
        <ele>-26.4</ele>
        <time>2018-06-26T10:08:21Z</time>
      </trkpt>
      <trkpt lat="50.62119" lon="3.2473">
        <ele>-26.8</ele>
        <time>2018-06-26T10:08:25Z</time>
      </trkpt>
      <trkpt lat="50.62127" lon="3.2475">
        <ele>-26.8</ele>
        <time>2018-06-26T10:08:29Z</time>
      </trkpt>
      <trkpt lat="50.62136" lon="3.24769">
        <ele>-26.6</ele>
        <time>2018-06-26T10:08:33Z</time>
      </trkpt>
      <trkpt lat="50.62148" lon="3.24783">
        <ele>-26.6</ele>
        <time>2018-06-26T10:08:37Z</time>
      </trkpt>
      <trkpt lat="50.62161" lon="3.24794">
        <ele>-26.8</ele>
        <time>2018-06-26T10:08:41Z</time>
      </trkpt>
      <trkpt lat="50.62175" lon="3.24803">
        <ele>-27.2</ele>
        <time>2018-06-26T10:08:45Z</time>
      </trkpt>
      <trkpt lat="50.62187" lon="3.24812">
        <ele>-27.2</ele>
        <time>2018-06-26T10:08:49Z</time>
      </trkpt>
      <trkpt lat="50.622" lon="3.24814">
        <ele>-27.4</ele>
        <time>2018-06-26T10:08:53Z</time>
      </trkpt>
      <trkpt lat="50.62215" lon="3.24811">
        <ele>-27.6</ele>
        <time>2018-06-26T10:08:57Z</time>
      </trkpt>
      <trkpt lat="50.62229" lon="3.24802">
        <ele>-27.4</ele>
        <time>2018-06-26T10:09:01Z</time>
      </trkpt>
      <trkpt lat="50.62242" lon="3.24794">
        <ele>-27.6</ele>
        <time>2018-06-26T10:09:05Z</time>
      </trkpt>
      <trkpt lat="50.62258" lon="3.24792">
        <ele>-27.6</ele>
        <time>2018-06-26T10:09:09Z</time>
      </trkpt>
      <trkpt lat="50.62274" lon="3.248">
        <ele>-28</ele>
        <time>2018-06-26T10:09:13Z</time>
      </trkpt>
      <trkpt lat="50.62286" lon="3.24795">
        <ele>-27.4</ele>
        <time>2018-06-26T10:09:17Z</time>
      </trkpt>
      <trkpt lat="50.62295" lon="3.24779">
        <ele>-27.6</ele>
        <time>2018-06-26T10:09:21Z</time>
      </trkpt>
      <trkpt lat="50.62305" lon="3.24761">
        <ele>-27.8</ele>
        <time>2018-06-26T10:09:25Z</time>
      </trkpt>
      <trkpt lat="50.62314" lon="3.24744">
        <ele>-28.4</ele>
        <time>2018-06-26T10:09:29Z</time>
      </trkpt>
      <trkpt lat="50.62322" lon="3.2473">
        <ele>-28.8</ele>
        <time>2018-06-26T10:09:33Z</time>
      </trkpt>
      <trkpt lat="50.62333" lon="3.24719">
        <ele>-28.2</ele>
        <time>2018-06-26T10:09:37Z</time>
      </trkpt>
      <trkpt lat="50.62345" lon="3.24711">
        <ele>-28.2</ele>
        <time>2018-06-26T10:09:41Z</time>
      </trkpt>
      <trkpt lat="50.62355" lon="3.24701">
        <ele>-28.6</ele>
        <time>2018-06-26T10:09:45Z</time>
      </trkpt>
      <trkpt lat="50.62363" lon="3.24686">
        <ele>-28.4</ele>
        <time>2018-06-26T10:09:49Z</time>
      </trkpt>
      <trkpt lat="50.6237" lon="3.24668">
        <ele>-28.2</ele>
        <time>2018-06-26T10:09:53Z</time>
      </trkpt>
      <trkpt lat="50.62377" lon="3.24651">
        <ele>-28.6</ele>
        <time>2018-06-26T10:09:57Z</time>
      </trkpt>
      <trkpt lat="50.62383" lon="3.24634">
        <ele>-28.6</ele>
        <time>2018-06-26T10:10:01Z</time>
      </trkpt>
      <trkpt lat="50.62389" lon="3.24617">
        <ele>-28.6</ele>
        <time>2018-06-26T10:10:05Z</time>
      </trkpt>
      <trkpt lat="50.62394" lon="3.24601">
        <ele>-28.8</ele>
        <time>2018-06-26T10:10:09Z</time>
      </trkpt>
      <trkpt lat="50.624" lon="3.24584">
        <ele>-28.8</ele>
        <time>2018-06-26T10:10:13Z</time>
      </trkpt>
      <trkpt lat="50.62407" lon="3.24567">
        <ele>-29.2</ele>
        <time>2018-06-26T10:10:17Z</time>
      </trkpt>
      <trkpt lat="50.62414" lon="3.24551">
        <ele>-28.6</ele>
        <time>2018-06-26T10:10:21Z</time>
      </trkpt>
      <trkpt lat="50.62421" lon="3.24535">
        <ele>-28.8</ele>
        <time>2018-06-26T10:10:25Z</time>
      </trkpt>
      <trkpt lat="50.6243" lon="3.24526">
        <ele>-28</ele>
        <time>2018-06-26T10:10:29Z</time>
      </trkpt>
      <trkpt lat="50.62442" lon="3.24529">
        <ele>-28.8</ele>
        <time>2018-06-26T10:10:33Z</time>
      </trkpt>
      <trkpt lat="50.62453" lon="3.24531">
        <ele>-28.8</ele>
        <time>2018-06-26T10:10:37Z</time>
      </trkpt>
      <trkpt lat="50.62465" lon="3.24529">
        <ele>-28.2</ele>
        <time>2018-06-26T10:10:41Z</time>
      </trkpt>
      <trkpt lat="50.62477" lon="3.24526">
        <ele>-27.8</ele>
        <time>2018-06-26T10:10:45Z</time>
      </trkpt>
      <trkpt lat="50.62488" lon="3.24522">
        <ele>-28.2</ele>
        <time>2018-06-26T10:10:49Z</time>
      </trkpt>
      <trkpt lat="50.625" lon="3.2452">
        <ele>-28</ele>
        <time>2018-06-26T10:10:53Z</time>
      </trkpt>
      <trkpt lat="50.6251" lon="3.24518">
        <ele>-27.4</ele>
        <time>2018-06-26T10:10:57Z</time>
      </trkpt>
      <trkpt lat="50.62521" lon="3.24516">
        <ele>-28</ele>
        <time>2018-06-26T10:11:01Z</time>
      </trkpt>
      <trkpt lat="50.62533" lon="3.24515">
        <ele>-27.4</ele>
        <time>2018-06-26T10:11:05Z</time>
      </trkpt>
      <trkpt lat="50.62546" lon="3.24514">
        <ele>-27.4</ele>
        <time>2018-06-26T10:11:09Z</time>
      </trkpt>
      <trkpt lat="50.62557" lon="3.24514">
        <ele>-27.6</ele>
        <time>2018-06-26T10:11:13Z</time>
      </trkpt>
      <trkpt lat="50.62569" lon="3.24517">
        <ele>-27.6</ele>
        <time>2018-06-26T10:11:17Z</time>
      </trkpt>
      <trkpt lat="50.6258" lon="3.24521">
        <ele>-27.2</ele>
        <time>2018-06-26T10:11:21Z</time>
      </trkpt>
      <trkpt lat="50.62592" lon="3.24525">
        <ele>-26.8</ele>
        <time>2018-06-26T10:11:25Z</time>
      </trkpt>
      <trkpt lat="50.62603" lon="3.2453">
        <ele>-26.6</ele>
        <time>2018-06-26T10:11:29Z</time>
      </trkpt>
      <trkpt lat="50.62613" lon="3.24535">
        <ele>-26.8</ele>
        <time>2018-06-26T10:11:33Z</time>
      </trkpt>
      <trkpt lat="50.62623" lon="3.24542">
        <ele>-26.2</ele>
        <time>2018-06-26T10:11:37Z</time>
      </trkpt>
      <trkpt lat="50.62633" lon="3.24549">
        <ele>-26.4</ele>
        <time>2018-06-26T10:11:41Z</time>
      </trkpt>
      <trkpt lat="50.62643" lon="3.24556">
        <ele>-25.8</ele>
        <time>2018-06-26T10:11:45Z</time>
      </trkpt>
      <trkpt lat="50.62653" lon="3.24563">
        <ele>-25.8</ele>
        <time>2018-06-26T10:11:49Z</time>
      </trkpt>
      <trkpt lat="50.62663" lon="3.24571">
        <ele>-25.4</ele>
        <time>2018-06-26T10:11:53Z</time>
      </trkpt>
      <trkpt lat="50.62673" lon="3.24577">
        <ele>-25</ele>
        <time>2018-06-26T10:11:57Z</time>
      </trkpt>
      <trkpt lat="50.62683" lon="3.24583">
        <ele>-24.4</ele>
        <time>2018-06-26T10:12:01Z</time>
      </trkpt>
      <trkpt lat="50.62693" lon="3.24589">
        <ele>-24.2</ele>
        <time>2018-06-26T10:12:05Z</time>
      </trkpt>
      <trkpt lat="50.62704" lon="3.24596">
        <ele>-24.4</ele>
        <time>2018-06-26T10:12:09Z</time>
      </trkpt>
      <trkpt lat="50.62714" lon="3.24602">
        <ele>-25</ele>
        <time>2018-06-26T10:12:13Z</time>
      </trkpt>
      <trkpt lat="50.62725" lon="3.2461">
        <ele>-24.2</ele>
        <time>2018-06-26T10:12:17Z</time>
      </trkpt>
      <trkpt lat="50.62735" lon="3.24618">
        <ele>-24.6</ele>
        <time>2018-06-26T10:12:21Z</time>
      </trkpt>
      <trkpt lat="50.62744" lon="3.24627">
        <ele>-24.2</ele>
        <time>2018-06-26T10:12:25Z</time>
      </trkpt>
      <trkpt lat="50.62744" lon="3.24627">
        <ele>-24</ele>
        <time>2018-06-26T10:12:29Z</time>
      </trkpt>
      <trkpt lat="50.62744" lon="3.24627">
        <ele>-24.2</ele>
        <time>2018-06-26T10:12:33Z</time>
      </trkpt>
      <trkpt lat="50.62747" lon="3.24628">
        <ele>-24.2</ele>
        <time>2018-06-26T10:12:37Z</time>
      </trkpt>
      <trkpt lat="50.62745" lon="3.24627">
        <ele>-24</ele>
        <time>2018-06-26T10:12:41Z</time>
      </trkpt>
      <trkpt lat="50.62739" lon="3.24621">
        <ele>-24.6</ele>
        <time>2018-06-26T10:12:45Z</time>
      </trkpt>
      <trkpt lat="50.62731" lon="3.24614">
        <ele>-24.8</ele>
        <time>2018-06-26T10:12:49Z</time>
      </trkpt>
      <trkpt lat="50.62723" lon="3.24607">
        <ele>-24.6</ele>
        <time>2018-06-26T10:12:53Z</time>
      </trkpt>
      <trkpt lat="50.62714" lon="3.24601">
        <ele>-23.8</ele>
        <time>2018-06-26T10:12:57Z</time>
      </trkpt>
      <trkpt lat="50.62704" lon="3.24595">
        <ele>-24.6</ele>
        <time>2018-06-26T10:13:01Z</time>
      </trkpt>
      <trkpt lat="50.62694" lon="3.24589">
        <ele>-24.4</ele>
        <time>2018-06-26T10:13:05Z</time>
      </trkpt>
      <trkpt lat="50.62684" lon="3.24583">
        <ele>-25.2</ele>
        <time>2018-06-26T10:13:09Z</time>
      </trkpt>
      <trkpt lat="50.62671" lon="3.24576">
        <ele>-26</ele>
        <time>2018-06-26T10:13:13Z</time>
      </trkpt>
      <trkpt lat="50.62659" lon="3.24568">
        <ele>-26</ele>
        <time>2018-06-26T10:13:17Z</time>
      </trkpt>
      <trkpt lat="50.62647" lon="3.2456">
        <ele>-25.8</ele>
        <time>2018-06-26T10:13:21Z</time>
      </trkpt>
      <trkpt lat="50.62636" lon="3.24552">
        <ele>-26.2</ele>
        <time>2018-06-26T10:13:25Z</time>
      </trkpt>
      <trkpt lat="50.62625" lon="3.24544">
        <ele>-26.6</ele>
        <time>2018-06-26T10:13:29Z</time>
      </trkpt>
      <trkpt lat="50.62616" lon="3.24537">
        <ele>-26.6</ele>
        <time>2018-06-26T10:13:33Z</time>
      </trkpt>
      <trkpt lat="50.62616" lon="3.24527">
        <ele>-26.4</ele>
        <time>2018-06-26T10:13:37Z</time>
      </trkpt>
      <trkpt lat="50.62619" lon="3.24513">
        <ele>-26.8</ele>
        <time>2018-06-26T10:13:41Z</time>
      </trkpt>
      <trkpt lat="50.62624" lon="3.245">
        <ele>-26.4</ele>
        <time>2018-06-26T10:13:45Z</time>
      </trkpt>
      <trkpt lat="50.6263" lon="3.24489">
        <ele>-26.6</ele>
        <time>2018-06-26T10:13:49Z</time>
      </trkpt>
      <trkpt lat="50.62635" lon="3.24475">
        <ele>-26</ele>
        <time>2018-06-26T10:13:53Z</time>
      </trkpt>
      <trkpt lat="50.62641" lon="3.24463">
        <ele>-26.4</ele>
        <time>2018-06-26T10:13:57Z</time>
      </trkpt>
      <trkpt lat="50.62649" lon="3.24452">
        <ele>-25.4</ele>
        <time>2018-06-26T10:14:01Z</time>
      </trkpt>
      <trkpt lat="50.62659" lon="3.24446">
        <ele>-26</ele>
        <time>2018-06-26T10:14:05Z</time>
      </trkpt>
      <trkpt lat="50.62669" lon="3.24442">
        <ele>-26</ele>
        <time>2018-06-26T10:14:09Z</time>
      </trkpt>
      <trkpt lat="50.6268" lon="3.24439">
        <ele>-25.8</ele>
        <time>2018-06-26T10:14:13Z</time>
      </trkpt>
      <trkpt lat="50.62691" lon="3.24436">
        <ele>-26</ele>
        <time>2018-06-26T10:14:17Z</time>
      </trkpt>
      <trkpt lat="50.627" lon="3.24428">
        <ele>-26</ele>
        <time>2018-06-26T10:14:21Z</time>
      </trkpt>
      <trkpt lat="50.62706" lon="3.24416">
        <ele>-26</ele>
        <time>2018-06-26T10:14:25Z</time>
      </trkpt>
      <trkpt lat="50.62713" lon="3.24404">
        <ele>-25</ele>
        <time>2018-06-26T10:14:29Z</time>
      </trkpt>
      <trkpt lat="50.6272" lon="3.24394">
        <ele>-25.4</ele>
        <time>2018-06-26T10:14:33Z</time>
      </trkpt>
      <trkpt lat="50.62728" lon="3.24385">
        <ele>-25.2</ele>
        <time>2018-06-26T10:14:37Z</time>
      </trkpt>
      <trkpt lat="50.62736" lon="3.24376">
        <ele>-25.2</ele>
        <time>2018-06-26T10:14:41Z</time>
      </trkpt>
      <trkpt lat="50.62744" lon="3.2437">
        <ele>-24.8</ele>
        <time>2018-06-26T10:14:45Z</time>
      </trkpt>
      <trkpt lat="50.62751" lon="3.24378">
        <ele>-25.6</ele>
        <time>2018-06-26T10:14:49Z</time>
      </trkpt>
      <trkpt lat="50.62759" lon="3.24385">
        <ele>-25</ele>
        <time>2018-06-26T10:14:53Z</time>
      </trkpt>
      <trkpt lat="50.62768" lon="3.24392">
        <ele>-24.6</ele>
        <time>2018-06-26T10:14:57Z</time>
      </trkpt>
      <trkpt lat="50.62777" lon="3.24399">
        <ele>-24</ele>
        <time>2018-06-26T10:15:01Z</time>
      </trkpt>
      <trkpt lat="50.62785" lon="3.24405">
        <ele>-24.8</ele>
        <time>2018-06-26T10:15:05Z</time>
      </trkpt>
      <trkpt lat="50.62793" lon="3.24411">
        <ele>-24.4</ele>
        <time>2018-06-26T10:15:09Z</time>
      </trkpt>
      <trkpt lat="50.62801" lon="3.24418">
        <ele>-24.2</ele>
        <time>2018-06-26T10:15:13Z</time>
      </trkpt>
      <trkpt lat="50.6281" lon="3.24426">
        <ele>-23.6</ele>
        <time>2018-06-26T10:15:17Z</time>
      </trkpt>
      <trkpt lat="50.62818" lon="3.24434">
        <ele>-23.6</ele>
        <time>2018-06-26T10:15:21Z</time>
      </trkpt>
      <trkpt lat="50.62827" lon="3.2444">
        <ele>-23.6</ele>
        <time>2018-06-26T10:15:25Z</time>
      </trkpt>
      <trkpt lat="50.62836" lon="3.24448">
        <ele>-23.2</ele>
        <time>2018-06-26T10:15:29Z</time>
      </trkpt>
      <trkpt lat="50.62846" lon="3.24456">
        <ele>-23.4</ele>
        <time>2018-06-26T10:15:33Z</time>
      </trkpt>
      <trkpt lat="50.62856" lon="3.24464">
        <ele>-22.4</ele>
        <time>2018-06-26T10:15:37Z</time>
      </trkpt>
      <trkpt lat="50.62866" lon="3.24472">
        <ele>-22.6</ele>
        <time>2018-06-26T10:15:41Z</time>
      </trkpt>
      <trkpt lat="50.62876" lon="3.2448">
        <ele>-22.2</ele>
        <time>2018-06-26T10:15:45Z</time>
      </trkpt>
      <trkpt lat="50.62887" lon="3.24487">
        <ele>-21.8</ele>
        <time>2018-06-26T10:15:49Z</time>
      </trkpt>
      <trkpt lat="50.62897" lon="3.24493">
        <ele>-21.6</ele>
        <time>2018-06-26T10:15:53Z</time>
      </trkpt>
      <trkpt lat="50.62907" lon="3.245">
        <ele>-21.4</ele>
        <time>2018-06-26T10:15:57Z</time>
      </trkpt>
      <trkpt lat="50.62917" lon="3.24506">
        <ele>-21.8</ele>
        <time>2018-06-26T10:16:01Z</time>
      </trkpt>
      <trkpt lat="50.62929" lon="3.24512">
        <ele>-21.2</ele>
        <time>2018-06-26T10:16:05Z</time>
      </trkpt>
      <trkpt lat="50.62939" lon="3.24517">
        <ele>-21.2</ele>
        <time>2018-06-26T10:16:09Z</time>
      </trkpt>
      <trkpt lat="50.62949" lon="3.24521">
        <ele>-20.8</ele>
        <time>2018-06-26T10:16:13Z</time>
      </trkpt>
      <trkpt lat="50.62958" lon="3.24528">
        <ele>-20.4</ele>
        <time>2018-06-26T10:16:17Z</time>
      </trkpt>
      <trkpt lat="50.62962" lon="3.24534">
        <ele>-20.6</ele>
        <time>2018-06-26T10:16:21Z</time>
      </trkpt>
      <trkpt lat="50.62968" lon="3.24541">
        <ele>-20.2</ele>
        <time>2018-06-26T10:16:25Z</time>
      </trkpt>
      <trkpt lat="50.62976" lon="3.24549">
        <ele>-20.6</ele>
        <time>2018-06-26T10:16:29Z</time>
      </trkpt>
      <trkpt lat="50.62985" lon="3.2456">
        <ele>-19.8</ele>
        <time>2018-06-26T10:16:33Z</time>
      </trkpt>
      <trkpt lat="50.62994" lon="3.24571">
        <ele>-19.6</ele>
        <time>2018-06-26T10:16:37Z</time>
      </trkpt>
      <trkpt lat="50.63005" lon="3.24583">
        <ele>-19.8</ele>
        <time>2018-06-26T10:16:41Z</time>
      </trkpt>
      <trkpt lat="50.63014" lon="3.24595">
        <ele>-19.6</ele>
        <time>2018-06-26T10:16:45Z</time>
      </trkpt>
      <trkpt lat="50.63024" lon="3.24608">
        <ele>-19.4</ele>
        <time>2018-06-26T10:16:49Z</time>
      </trkpt>
      <trkpt lat="50.63035" lon="3.24621">
        <ele>-19.4</ele>
        <time>2018-06-26T10:16:53Z</time>
      </trkpt>
      <trkpt lat="50.63045" lon="3.24634">
        <ele>-19.6</ele>
        <time>2018-06-26T10:16:57Z</time>
      </trkpt>
      <trkpt lat="50.63056" lon="3.24646">
        <ele>-19</ele>
        <time>2018-06-26T10:17:01Z</time>
      </trkpt>
      <trkpt lat="50.63068" lon="3.24658">
        <ele>-19</ele>
        <time>2018-06-26T10:17:05Z</time>
      </trkpt>
      <trkpt lat="50.63079" lon="3.24669">
        <ele>-19</ele>
        <time>2018-06-26T10:17:09Z</time>
      </trkpt>
      <trkpt lat="50.63091" lon="3.2468">
        <ele>-18.6</ele>
        <time>2018-06-26T10:17:13Z</time>
      </trkpt>
      <trkpt lat="50.63103" lon="3.2469">
        <ele>-19</ele>
        <time>2018-06-26T10:17:17Z</time>
      </trkpt>
      <trkpt lat="50.63115" lon="3.24699">
        <ele>-18.6</ele>
        <time>2018-06-26T10:17:21Z</time>
      </trkpt>
      <trkpt lat="50.63128" lon="3.24707">
        <ele>-18.8</ele>
        <time>2018-06-26T10:17:25Z</time>
      </trkpt>
      <trkpt lat="50.6314" lon="3.24717">
        <ele>-18.8</ele>
        <time>2018-06-26T10:17:29Z</time>
      </trkpt>
      <trkpt lat="50.6315" lon="3.2473">
        <ele>-18.6</ele>
        <time>2018-06-26T10:17:33Z</time>
      </trkpt>
      <trkpt lat="50.63159" lon="3.24746">
        <ele>-18.4</ele>
        <time>2018-06-26T10:17:37Z</time>
      </trkpt>
      <trkpt lat="50.63168" lon="3.24763">
        <ele>-18</ele>
        <time>2018-06-26T10:17:41Z</time>
      </trkpt>
      <trkpt lat="50.63175" lon="3.24779">
        <ele>-18.6</ele>
        <time>2018-06-26T10:17:45Z</time>
      </trkpt>
      <trkpt lat="50.63183" lon="3.24795">
        <ele>-18</ele>
        <time>2018-06-26T10:17:49Z</time>
      </trkpt>
      <trkpt lat="50.63192" lon="3.24811">
        <ele>-18.2</ele>
        <time>2018-06-26T10:17:53Z</time>
      </trkpt>
      <trkpt lat="50.632" lon="3.24828">
        <ele>-18.4</ele>
        <time>2018-06-26T10:17:57Z</time>
      </trkpt>
      <trkpt lat="50.63208" lon="3.24844">
        <ele>-18</ele>
        <time>2018-06-26T10:18:01Z</time>
      </trkpt>
      <trkpt lat="50.63218" lon="3.24859">
        <ele>-18.4</ele>
        <time>2018-06-26T10:18:05Z</time>
      </trkpt>
      <trkpt lat="50.63227" lon="3.24872">
        <ele>-18.6</ele>
        <time>2018-06-26T10:18:09Z</time>
      </trkpt>
      <trkpt lat="50.63233" lon="3.24889">
        <ele>-18.2</ele>
        <time>2018-06-26T10:18:13Z</time>
      </trkpt>
      <trkpt lat="50.6324" lon="3.24911">
        <ele>-18.6</ele>
        <time>2018-06-26T10:18:17Z</time>
      </trkpt>
      <trkpt lat="50.63246" lon="3.24933">
        <ele>-18.4</ele>
        <time>2018-06-26T10:18:21Z</time>
      </trkpt>
      <trkpt lat="50.63254" lon="3.24955">
        <ele>-18.2</ele>
        <time>2018-06-26T10:18:25Z</time>
      </trkpt>
      <trkpt lat="50.63263" lon="3.24974">
        <ele>-18.6</ele>
        <time>2018-06-26T10:18:29Z</time>
      </trkpt>
      <trkpt lat="50.63272" lon="3.24993">
        <ele>-17.8</ele>
        <time>2018-06-26T10:18:33Z</time>
      </trkpt>
      <trkpt lat="50.6328" lon="3.25013">
        <ele>-18.2</ele>
        <time>2018-06-26T10:18:37Z</time>
      </trkpt>
      <trkpt lat="50.63285" lon="3.25035">
        <ele>-18.2</ele>
        <time>2018-06-26T10:18:41Z</time>
      </trkpt>
      <trkpt lat="50.6329" lon="3.25056">
        <ele>-18.6</ele>
        <time>2018-06-26T10:18:45Z</time>
      </trkpt>
      <trkpt lat="50.63297" lon="3.25079">
        <ele>-18.4</ele>
        <time>2018-06-26T10:18:49Z</time>
      </trkpt>
      <trkpt lat="50.63296" lon="3.25102">
        <ele>-18.6</ele>
        <time>2018-06-26T10:18:53Z</time>
      </trkpt>
      <trkpt lat="50.63294" lon="3.25127">
        <ele>-18.6</ele>
        <time>2018-06-26T10:18:57Z</time>
      </trkpt>
      <trkpt lat="50.63291" lon="3.25154">
        <ele>-18.2</ele>
        <time>2018-06-26T10:19:01Z</time>
      </trkpt>
      <trkpt lat="50.63288" lon="3.2518">
        <ele>-18.6</ele>
        <time>2018-06-26T10:19:05Z</time>
      </trkpt>
      <trkpt lat="50.63285" lon="3.25207">
        <ele>-18.2</ele>
        <time>2018-06-26T10:19:09Z</time>
      </trkpt>
      <trkpt lat="50.63282" lon="3.25233">
        <ele>-19</ele>
        <time>2018-06-26T10:19:13Z</time>
      </trkpt>
      <trkpt lat="50.63281" lon="3.25257">
        <ele>-19</ele>
        <time>2018-06-26T10:19:17Z</time>
      </trkpt>
      <trkpt lat="50.63278" lon="3.25275">
        <ele>-19.4</ele>
        <time>2018-06-26T10:19:21Z</time>
      </trkpt>
      <trkpt lat="50.63273" lon="3.25291">
        <ele>-18.8</ele>
        <time>2018-06-26T10:19:25Z</time>
      </trkpt>
      <trkpt lat="50.63266" lon="3.25309">
        <ele>-19.6</ele>
        <time>2018-06-26T10:19:29Z</time>
      </trkpt>
      <trkpt lat="50.63258" lon="3.25328">
        <ele>-20.4</ele>
        <time>2018-06-26T10:19:33Z</time>
      </trkpt>
      <trkpt lat="50.63248" lon="3.25348">
        <ele>-20.2</ele>
        <time>2018-06-26T10:19:37Z</time>
      </trkpt>
      <trkpt lat="50.63236" lon="3.25367">
        <ele>-20.2</ele>
        <time>2018-06-26T10:19:41Z</time>
      </trkpt>
      <trkpt lat="50.63226" lon="3.25382">
        <ele>-20.4</ele>
        <time>2018-06-26T10:19:45Z</time>
      </trkpt>
      <trkpt lat="50.63217" lon="3.25395">
        <ele>-20</ele>
        <time>2018-06-26T10:19:49Z</time>
      </trkpt>
      <trkpt lat="50.63207" lon="3.2541">
        <ele>-21.4</ele>
        <time>2018-06-26T10:19:53Z</time>
      </trkpt>
      <trkpt lat="50.63198" lon="3.25428">
        <ele>-21.4</ele>
        <time>2018-06-26T10:19:57Z</time>
      </trkpt>
      <trkpt lat="50.63191" lon="3.25446">
        <ele>-21.8</ele>
        <time>2018-06-26T10:20:01Z</time>
      </trkpt>
      <trkpt lat="50.63184" lon="3.25465">
        <ele>-21.8</ele>
        <time>2018-06-26T10:20:05Z</time>
      </trkpt>
      <trkpt lat="50.63178" lon="3.25484">
        <ele>-22.2</ele>
        <time>2018-06-26T10:20:09Z</time>
      </trkpt>
      <trkpt lat="50.63172" lon="3.25502">
        <ele>-22.2</ele>
        <time>2018-06-26T10:20:13Z</time>
      </trkpt>
      <trkpt lat="50.63167" lon="3.2552">
        <ele>-22</ele>
        <time>2018-06-26T10:20:17Z</time>
      </trkpt>
      <trkpt lat="50.63162" lon="3.25539">
        <ele>-21.4</ele>
        <time>2018-06-26T10:20:21Z</time>
      </trkpt>
      <trkpt lat="50.63157" lon="3.2556">
        <ele>-22</ele>
        <time>2018-06-26T10:20:25Z</time>
      </trkpt>
      <trkpt lat="50.63152" lon="3.2558">
        <ele>-22.6</ele>
        <time>2018-06-26T10:20:29Z</time>
      </trkpt>
      <trkpt lat="50.63148" lon="3.25598">
        <ele>-22</ele>
        <time>2018-06-26T10:20:33Z</time>
      </trkpt>
      <trkpt lat="50.63142" lon="3.25612">
        <ele>-22.6</ele>
        <time>2018-06-26T10:20:37Z</time>
      </trkpt>
      <trkpt lat="50.63131" lon="3.25617">
        <ele>-22.6</ele>
        <time>2018-06-26T10:20:41Z</time>
      </trkpt>
      <trkpt lat="50.63119" lon="3.25614">
        <ele>-22.8</ele>
        <time>2018-06-26T10:20:45Z</time>
      </trkpt>
      <trkpt lat="50.63107" lon="3.25607">
        <ele>-23</ele>
        <time>2018-06-26T10:20:49Z</time>
      </trkpt>
      <trkpt lat="50.63096" lon="3.25601">
        <ele>-22.6</ele>
        <time>2018-06-26T10:20:53Z</time>
      </trkpt>
      <trkpt lat="50.63084" lon="3.25595">
        <ele>-22.8</ele>
        <time>2018-06-26T10:20:57Z</time>
      </trkpt>
      <trkpt lat="50.63074" lon="3.25589">
        <ele>-22.6</ele>
        <time>2018-06-26T10:21:01Z</time>
      </trkpt>
      <trkpt lat="50.63062" lon="3.25582">
        <ele>-22.6</ele>
        <time>2018-06-26T10:21:05Z</time>
      </trkpt>
      <trkpt lat="50.63051" lon="3.25576">
        <ele>-22.8</ele>
        <time>2018-06-26T10:21:09Z</time>
      </trkpt>
      <trkpt lat="50.6304" lon="3.25572">
        <ele>-22.6</ele>
        <time>2018-06-26T10:21:13Z</time>
      </trkpt>
      <trkpt lat="50.6303" lon="3.2558">
        <ele>-22.6</ele>
        <time>2018-06-26T10:21:17Z</time>
      </trkpt>
      <trkpt lat="50.63025" lon="3.25596">
        <ele>-23</ele>
        <time>2018-06-26T10:21:21Z</time>
      </trkpt>
      <trkpt lat="50.63022" lon="3.25614">
        <ele>-22.6</ele>
        <time>2018-06-26T10:21:25Z</time>
      </trkpt>
      <trkpt lat="50.63019" lon="3.25633">
        <ele>-22.6</ele>
        <time>2018-06-26T10:21:29Z</time>
      </trkpt>
      <trkpt lat="50.63017" lon="3.25652">
        <ele>-23.6</ele>
        <time>2018-06-26T10:21:33Z</time>
      </trkpt>
      <trkpt lat="50.63015" lon="3.25671">
        <ele>-23.2</ele>
        <time>2018-06-26T10:21:37Z</time>
      </trkpt>
      <trkpt lat="50.63014" lon="3.2569">
        <ele>-22.8</ele>
        <time>2018-06-26T10:21:41Z</time>
      </trkpt>
      <trkpt lat="50.63013" lon="3.25708">
        <ele>-23.6</ele>
        <time>2018-06-26T10:21:45Z</time>
      </trkpt>
      <trkpt lat="50.63012" lon="3.25727">
        <ele>-23.4</ele>
        <time>2018-06-26T10:21:49Z</time>
      </trkpt>
      <trkpt lat="50.63011" lon="3.25746">
        <ele>-24.2</ele>
        <time>2018-06-26T10:21:53Z</time>
      </trkpt>
      <trkpt lat="50.63009" lon="3.25765">
        <ele>-24</ele>
        <time>2018-06-26T10:21:57Z</time>
      </trkpt>
      <trkpt lat="50.63008" lon="3.25784">
        <ele>-23.8</ele>
        <time>2018-06-26T10:22:01Z</time>
      </trkpt>
      <trkpt lat="50.63006" lon="3.25802">
        <ele>-24.4</ele>
        <time>2018-06-26T10:22:05Z</time>
      </trkpt>
      <trkpt lat="50.63004" lon="3.25821">
        <ele>-24.2</ele>
        <time>2018-06-26T10:22:09Z</time>
      </trkpt>
      <trkpt lat="50.63002" lon="3.25839">
        <ele>-24.2</ele>
        <time>2018-06-26T10:22:13Z</time>
      </trkpt>
      <trkpt lat="50.62998" lon="3.25858">
        <ele>-24.4</ele>
        <time>2018-06-26T10:22:17Z</time>
      </trkpt>
      <trkpt lat="50.62993" lon="3.25877">
        <ele>-24.6</ele>
        <time>2018-06-26T10:22:21Z</time>
      </trkpt>
      <trkpt lat="50.62988" lon="3.25892">
        <ele>-24.8</ele>
        <time>2018-06-26T10:22:25Z</time>
      </trkpt>
      <trkpt lat="50.62982" lon="3.25906">
        <ele>-25</ele>
        <time>2018-06-26T10:22:29Z</time>
      </trkpt>
      <trkpt lat="50.62976" lon="3.25916">
        <ele>-24.6</ele>
        <time>2018-06-26T10:22:33Z</time>
      </trkpt>
      <trkpt lat="50.62976" lon="3.25916">
        <ele>-24.6</ele>
        <time>2018-06-26T10:22:37Z</time>
      </trkpt>
      <trkpt lat="50.62976" lon="3.25916">
        <ele>-24.4</ele>
        <time>2018-06-26T10:22:41Z</time>
      </trkpt>
      <trkpt lat="50.62976" lon="3.25916">
        <ele>-24.6</ele>
        <time>2018-06-26T10:22:45Z</time>
      </trkpt>
      <trkpt lat="50.62976" lon="3.25916">
        <ele>-24.6</ele>
        <time>2018-06-26T10:22:49Z</time>
      </trkpt>
      <trkpt lat="50.62976" lon="3.25916">
        <ele>-24.2</ele>
        <time>2018-06-26T10:22:53Z</time>
      </trkpt>
      <trkpt lat="50.62976" lon="3.25916">
        <ele>-24.4</ele>
        <time>2018-06-26T10:22:57Z</time>
      </trkpt>
      <trkpt lat="50.62976" lon="3.25916">
        <ele>-24.2</ele>
        <time>2018-06-26T10:23:01Z</time>
      </trkpt>
      <trkpt lat="50.62976" lon="3.25916">
        <ele>-24.6</ele>
        <time>2018-06-26T10:23:05Z</time>
      </trkpt>
      <trkpt lat="50.62976" lon="3.25916">
        <ele>-24.4</ele>
        <time>2018-06-26T10:23:09Z</time>
      </trkpt>
      <trkpt lat="50.62976" lon="3.25916">
        <ele>-24.2</ele>
        <time>2018-06-26T10:23:13Z</time>
      </trkpt>
      <trkpt lat="50.62976" lon="3.25916">
        <ele>-24.2</ele>
        <time>2018-06-26T10:23:17Z</time>
      </trkpt>
      <trkpt lat="50.62976" lon="3.25916">
        <ele>-24.2</ele>
        <time>2018-06-26T10:23:21Z</time>
      </trkpt>
      <trkpt lat="50.62976" lon="3.25916">
        <ele>-24.2</ele>
        <time>2018-06-26T10:23:25Z</time>
      </trkpt>
      <trkpt lat="50.62976" lon="3.25916">
        <ele>-24.6</ele>
        <time>2018-06-26T10:23:29Z</time>
      </trkpt>
      <trkpt lat="50.62976" lon="3.25916">
        <ele>-24.2</ele>
        <time>2018-06-26T10:23:33Z</time>
      </trkpt>
      <trkpt lat="50.62976" lon="3.25916">
        <ele>-24.2</ele>
        <time>2018-06-26T10:23:37Z</time>
      </trkpt>
      <trkpt lat="50.62976" lon="3.25916">
        <ele>-24.4</ele>
        <time>2018-06-26T10:23:41Z</time>
      </trkpt>
      <trkpt lat="50.62976" lon="3.25916">
        <ele>-24.2</ele>
        <time>2018-06-26T10:23:45Z</time>
      </trkpt>
      <trkpt lat="50.62976" lon="3.25916">
        <ele>-24.6</ele>
        <time>2018-06-26T10:23:49Z</time>
      </trkpt>
      <trkpt lat="50.62976" lon="3.25916">
        <ele>-24.4</ele>
        <time>2018-06-26T10:23:53Z</time>
      </trkpt>
      <trkpt lat="50.62974" lon="3.2592">
        <ele>-24.4</ele>
        <time>2018-06-26T10:23:57Z</time>
      </trkpt>
      <trkpt lat="50.62974" lon="3.2592">
        <ele>-24.4</ele>
        <time>2018-06-26T10:24:01Z</time>
      </trkpt>
      <trkpt lat="50.62971" lon="3.25917">
        <ele>-24.4</ele>
        <time>2018-06-26T10:24:05Z</time>
      </trkpt>
      <trkpt lat="50.62966" lon="3.25915">
        <ele>-24.2</ele>
        <time>2018-06-26T10:24:09Z</time>
      </trkpt>
      <trkpt lat="50.62961" lon="3.25911">
        <ele>-23.6</ele>
        <time>2018-06-26T10:24:13Z</time>
      </trkpt>
      <trkpt lat="50.62952" lon="3.25909">
        <ele>-23.6</ele>
        <time>2018-06-26T10:24:17Z</time>
      </trkpt>
      <trkpt lat="50.62945" lon="3.25906">
        <ele>-23.4</ele>
        <time>2018-06-26T10:24:21Z</time>
      </trkpt>
      <trkpt lat="50.62936" lon="3.25904">
        <ele>-22.8</ele>
        <time>2018-06-26T10:24:25Z</time>
      </trkpt>
      <trkpt lat="50.62924" lon="3.25901">
        <ele>-24.2</ele>
        <time>2018-06-26T10:24:29Z</time>
      </trkpt>
      <trkpt lat="50.62914" lon="3.25899">
        <ele>-24</ele>
        <time>2018-06-26T10:24:33Z</time>
      </trkpt>
      <trkpt lat="50.62903" lon="3.25896">
        <ele>-23.6</ele>
        <time>2018-06-26T10:24:37Z</time>
      </trkpt>
      <trkpt lat="50.62892" lon="3.25892">
        <ele>-24.2</ele>
        <time>2018-06-26T10:24:41Z</time>
      </trkpt>
      <trkpt lat="50.6288" lon="3.25889">
        <ele>-24.2</ele>
        <time>2018-06-26T10:24:45Z</time>
      </trkpt>
      <trkpt lat="50.62867" lon="3.25886">
        <ele>-24.4</ele>
        <time>2018-06-26T10:24:49Z</time>
      </trkpt>
      <trkpt lat="50.62854" lon="3.25883">
        <ele>-25</ele>
        <time>2018-06-26T10:24:53Z</time>
      </trkpt>
      <trkpt lat="50.62841" lon="3.2588">
        <ele>-24.8</ele>
        <time>2018-06-26T10:24:57Z</time>
      </trkpt>
      <trkpt lat="50.62827" lon="3.25877">
        <ele>-25</ele>
        <time>2018-06-26T10:25:01Z</time>
      </trkpt>
      <trkpt lat="50.62815" lon="3.25874">
        <ele>-25</ele>
        <time>2018-06-26T10:25:05Z</time>
      </trkpt>
      <trkpt lat="50.62803" lon="3.25873">
        <ele>-25.2</ele>
        <time>2018-06-26T10:25:09Z</time>
      </trkpt>
      <trkpt lat="50.62791" lon="3.2587">
        <ele>-25</ele>
        <time>2018-06-26T10:25:13Z</time>
      </trkpt>
      <trkpt lat="50.62779" lon="3.25868">
        <ele>-25.6</ele>
        <time>2018-06-26T10:25:17Z</time>
      </trkpt>
      <trkpt lat="50.62767" lon="3.25866">
        <ele>-25.6</ele>
        <time>2018-06-26T10:25:21Z</time>
      </trkpt>
      <trkpt lat="50.62757" lon="3.25868">
        <ele>-25.4</ele>
        <time>2018-06-26T10:25:25Z</time>
      </trkpt>
      <trkpt lat="50.62748" lon="3.25865">
        <ele>-25.4</ele>
        <time>2018-06-26T10:25:29Z</time>
      </trkpt>
      <trkpt lat="50.62739" lon="3.25862">
        <ele>-25.4</ele>
        <time>2018-06-26T10:25:33Z</time>
      </trkpt>
      <trkpt lat="50.6273" lon="3.25859">
        <ele>-25.6</ele>
        <time>2018-06-26T10:25:37Z</time>
      </trkpt>
      <trkpt lat="50.6272" lon="3.25856">
        <ele>-25.8</ele>
        <time>2018-06-26T10:25:41Z</time>
      </trkpt>
      <trkpt lat="50.6271" lon="3.25853">
        <ele>-25.4</ele>
        <time>2018-06-26T10:25:45Z</time>
      </trkpt>
      <trkpt lat="50.627" lon="3.2585">
        <ele>-25.2</ele>
        <time>2018-06-26T10:25:49Z</time>
      </trkpt>
      <trkpt lat="50.62689" lon="3.25847">
        <ele>-25.4</ele>
        <time>2018-06-26T10:25:53Z</time>
      </trkpt>
      <trkpt lat="50.62678" lon="3.25844">
        <ele>-25.4</ele>
        <time>2018-06-26T10:25:57Z</time>
      </trkpt>
      <trkpt lat="50.62668" lon="3.25841">
        <ele>-25.4</ele>
        <time>2018-06-26T10:26:01Z</time>
      </trkpt>
      <trkpt lat="50.62658" lon="3.25838">
        <ele>-24.8</ele>
        <time>2018-06-26T10:26:05Z</time>
      </trkpt>
      <trkpt lat="50.62647" lon="3.25836">
        <ele>-24.2</ele>
        <time>2018-06-26T10:26:09Z</time>
      </trkpt>
      <trkpt lat="50.62636" lon="3.25833">
        <ele>-25</ele>
        <time>2018-06-26T10:26:13Z</time>
      </trkpt>
      <trkpt lat="50.62625" lon="3.2583">
        <ele>-24.6</ele>
        <time>2018-06-26T10:26:17Z</time>
      </trkpt>
      <trkpt lat="50.62614" lon="3.25826">
        <ele>-25</ele>
        <time>2018-06-26T10:26:21Z</time>
      </trkpt>
      <trkpt lat="50.62604" lon="3.25821">
        <ele>-25</ele>
        <time>2018-06-26T10:26:25Z</time>
      </trkpt>
      <trkpt lat="50.62596" lon="3.25812">
        <ele>-24.4</ele>
        <time>2018-06-26T10:26:29Z</time>
      </trkpt>
      <trkpt lat="50.62591" lon="3.25803">
        <ele>-24.4</ele>
        <time>2018-06-26T10:26:33Z</time>
      </trkpt>
      <trkpt lat="50.62587" lon="3.2579">
        <ele>-24.4</ele>
        <time>2018-06-26T10:26:37Z</time>
      </trkpt>
      <trkpt lat="50.62585" lon="3.25775">
        <ele>-24.2</ele>
        <time>2018-06-26T10:26:41Z</time>
      </trkpt>
      <trkpt lat="50.62585" lon="3.2576">
        <ele>-24</ele>
        <time>2018-06-26T10:26:45Z</time>
      </trkpt>
      <trkpt lat="50.62584" lon="3.25744">
        <ele>-24.2</ele>
        <time>2018-06-26T10:26:49Z</time>
      </trkpt>
      <trkpt lat="50.62584" lon="3.25729">
        <ele>-24.2</ele>
        <time>2018-06-26T10:26:53Z</time>
      </trkpt>
      <trkpt lat="50.62584" lon="3.25713">
        <ele>-23.4</ele>
        <time>2018-06-26T10:26:57Z</time>
      </trkpt>
      <trkpt lat="50.62583" lon="3.25698">
        <ele>-23.2</ele>
        <time>2018-06-26T10:27:01Z</time>
      </trkpt>
      <trkpt lat="50.6258" lon="3.25682">
        <ele>-23.2</ele>
        <time>2018-06-26T10:27:05Z</time>
      </trkpt>
      <trkpt lat="50.62576" lon="3.25666">
        <ele>-23.2</ele>
        <time>2018-06-26T10:27:09Z</time>
      </trkpt>
      <trkpt lat="50.62567" lon="3.25653">
        <ele>-23.2</ele>
        <time>2018-06-26T10:27:13Z</time>
      </trkpt>
      <trkpt lat="50.62558" lon="3.25644">
        <ele>-22.6</ele>
        <time>2018-06-26T10:27:17Z</time>
      </trkpt>
      <trkpt lat="50.62547" lon="3.25636">
        <ele>-23.2</ele>
        <time>2018-06-26T10:27:21Z</time>
      </trkpt>
      <trkpt lat="50.62536" lon="3.25628">
        <ele>-23.2</ele>
        <time>2018-06-26T10:27:25Z</time>
      </trkpt>
      <trkpt lat="50.62526" lon="3.25621">
        <ele>-23.8</ele>
        <time>2018-06-26T10:27:29Z</time>
      </trkpt>
      <trkpt lat="50.62516" lon="3.25613">
        <ele>-24</ele>
        <time>2018-06-26T10:27:33Z</time>
      </trkpt>
      <trkpt lat="50.62505" lon="3.25605">
        <ele>-23.6</ele>
        <time>2018-06-26T10:27:37Z</time>
      </trkpt>
      <trkpt lat="50.62495" lon="3.25597">
        <ele>-23.8</ele>
        <time>2018-06-26T10:27:41Z</time>
      </trkpt>
      <trkpt lat="50.62483" lon="3.25589">
        <ele>-24</ele>
        <time>2018-06-26T10:27:45Z</time>
      </trkpt>
      <trkpt lat="50.62472" lon="3.25581">
        <ele>-24.6</ele>
        <time>2018-06-26T10:27:49Z</time>
      </trkpt>
      <trkpt lat="50.6246" lon="3.25573">
        <ele>-24</ele>
        <time>2018-06-26T10:27:53Z</time>
      </trkpt>
      <trkpt lat="50.62449" lon="3.25567">
        <ele>-23.8</ele>
        <time>2018-06-26T10:27:57Z</time>
      </trkpt>
      <trkpt lat="50.62437" lon="3.25562">
        <ele>-24</ele>
        <time>2018-06-26T10:28:01Z</time>
      </trkpt>
      <trkpt lat="50.62426" lon="3.2556">
        <ele>-23.8</ele>
        <time>2018-06-26T10:28:05Z</time>
      </trkpt>
      <trkpt lat="50.62413" lon="3.25558">
        <ele>-24.2</ele>
        <time>2018-06-26T10:28:09Z</time>
      </trkpt>
      <trkpt lat="50.62402" lon="3.25558">
        <ele>-24.6</ele>
        <time>2018-06-26T10:28:13Z</time>
      </trkpt>
      <trkpt lat="50.6239" lon="3.25556">
        <ele>-24.6</ele>
        <time>2018-06-26T10:28:17Z</time>
      </trkpt>
      <trkpt lat="50.62378" lon="3.25553">
        <ele>-24.6</ele>
        <time>2018-06-26T10:28:21Z</time>
      </trkpt>
      <trkpt lat="50.62366" lon="3.25549">
        <ele>-25.8</ele>
        <time>2018-06-26T10:28:25Z</time>
      </trkpt>
      <trkpt lat="50.62354" lon="3.25544">
        <ele>-25.2</ele>
        <time>2018-06-26T10:28:29Z</time>
      </trkpt>
      <trkpt lat="50.62342" lon="3.2554">
        <ele>-25</ele>
        <time>2018-06-26T10:28:33Z</time>
      </trkpt>
      <trkpt lat="50.62331" lon="3.25536">
        <ele>-24.8</ele>
        <time>2018-06-26T10:28:37Z</time>
      </trkpt>
      <trkpt lat="50.62319" lon="3.25532">
        <ele>-24.6</ele>
        <time>2018-06-26T10:28:41Z</time>
      </trkpt>
      <trkpt lat="50.62309" lon="3.25529">
        <ele>-25</ele>
        <time>2018-06-26T10:28:45Z</time>
      </trkpt>
      <trkpt lat="50.62297" lon="3.25528">
        <ele>-24.4</ele>
        <time>2018-06-26T10:28:49Z</time>
      </trkpt>
      <trkpt lat="50.62287" lon="3.25527">
        <ele>-24.2</ele>
        <time>2018-06-26T10:28:53Z</time>
      </trkpt>
      <trkpt lat="50.62279" lon="3.25527">
        <ele>-24.8</ele>
        <time>2018-06-26T10:28:57Z</time>
      </trkpt>
      <trkpt lat="50.62273" lon="3.25526">
        <ele>-24.6</ele>
        <time>2018-06-26T10:29:01Z</time>
      </trkpt>
      <trkpt lat="50.62266" lon="3.25522">
        <ele>-24.6</ele>
        <time>2018-06-26T10:29:05Z</time>
      </trkpt>
      <trkpt lat="50.62257" lon="3.25519">
        <ele>-24.6</ele>
        <time>2018-06-26T10:29:09Z</time>
      </trkpt>
      <trkpt lat="50.62245" lon="3.25516">
        <ele>-24.6</ele>
        <time>2018-06-26T10:29:13Z</time>
      </trkpt>
      <trkpt lat="50.62232" lon="3.25512">
        <ele>-24.2</ele>
        <time>2018-06-26T10:29:17Z</time>
      </trkpt>
      <trkpt lat="50.62218" lon="3.25508">
        <ele>-24.6</ele>
        <time>2018-06-26T10:29:21Z</time>
      </trkpt>
      <trkpt lat="50.62203" lon="3.25504">
        <ele>-24.6</ele>
        <time>2018-06-26T10:29:25Z</time>
      </trkpt>
      <trkpt lat="50.62188" lon="3.25499">
        <ele>-24</ele>
        <time>2018-06-26T10:29:29Z</time>
      </trkpt>
      <trkpt lat="50.62173" lon="3.25494">
        <ele>-24.6</ele>
        <time>2018-06-26T10:29:33Z</time>
      </trkpt>
      <trkpt lat="50.62157" lon="3.25489">
        <ele>-24.6</ele>
        <time>2018-06-26T10:29:37Z</time>
      </trkpt>
      <trkpt lat="50.62142" lon="3.25481">
        <ele>-24.4</ele>
        <time>2018-06-26T10:29:41Z</time>
      </trkpt>
      <trkpt lat="50.62127" lon="3.25471">
        <ele>-24.4</ele>
        <time>2018-06-26T10:29:45Z</time>
      </trkpt>
      <trkpt lat="50.62113" lon="3.2546">
        <ele>-24.4</ele>
        <time>2018-06-26T10:29:49Z</time>
      </trkpt>
      <trkpt lat="50.62099" lon="3.25447">
        <ele>-24.2</ele>
        <time>2018-06-26T10:29:53Z</time>
      </trkpt>
      <trkpt lat="50.62085" lon="3.25433">
        <ele>-24.6</ele>
        <time>2018-06-26T10:29:57Z</time>
      </trkpt>
      <trkpt lat="50.6207" lon="3.2542">
        <ele>-24.2</ele>
        <time>2018-06-26T10:30:01Z</time>
      </trkpt>
      <trkpt lat="50.62056" lon="3.25407">
        <ele>-24.2</ele>
        <time>2018-06-26T10:30:05Z</time>
      </trkpt>
      <trkpt lat="50.62041" lon="3.25394">
        <ele>-24.2</ele>
        <time>2018-06-26T10:30:09Z</time>
      </trkpt>
      <trkpt lat="50.62026" lon="3.25381">
        <ele>-23.4</ele>
        <time>2018-06-26T10:30:13Z</time>
      </trkpt>
      <trkpt lat="50.62012" lon="3.25368">
        <ele>-24.2</ele>
        <time>2018-06-26T10:30:17Z</time>
      </trkpt>
      <trkpt lat="50.61998" lon="3.25355">
        <ele>-23.6</ele>
        <time>2018-06-26T10:30:21Z</time>
      </trkpt>
      <trkpt lat="50.61983" lon="3.25341">
        <ele>-23.6</ele>
        <time>2018-06-26T10:30:25Z</time>
      </trkpt>
      <trkpt lat="50.61969" lon="3.25327">
        <ele>-23.6</ele>
        <time>2018-06-26T10:30:29Z</time>
      </trkpt>
      <trkpt lat="50.61954" lon="3.25314">
        <ele>-23.6</ele>
        <time>2018-06-26T10:30:33Z</time>
      </trkpt>
      <trkpt lat="50.61939" lon="3.25302">
        <ele>-23.4</ele>
        <time>2018-06-26T10:30:37Z</time>
      </trkpt>
      <trkpt lat="50.61925" lon="3.2529">
        <ele>-23.2</ele>
        <time>2018-06-26T10:30:41Z</time>
      </trkpt>
      <trkpt lat="50.6191" lon="3.25278">
        <ele>-23.4</ele>
        <time>2018-06-26T10:30:45Z</time>
      </trkpt>
      <trkpt lat="50.61896" lon="3.25266">
        <ele>-23.2</ele>
        <time>2018-06-26T10:30:49Z</time>
      </trkpt>
      <trkpt lat="50.61881" lon="3.25256">
        <ele>-23.4</ele>
        <time>2018-06-26T10:30:53Z</time>
      </trkpt>
      <trkpt lat="50.61868" lon="3.25245">
        <ele>-22.6</ele>
        <time>2018-06-26T10:30:57Z</time>
      </trkpt>
      <trkpt lat="50.61855" lon="3.25234">
        <ele>-23</ele>
        <time>2018-06-26T10:31:01Z</time>
      </trkpt>
      <trkpt lat="50.61842" lon="3.25225">
        <ele>-22.8</ele>
        <time>2018-06-26T10:31:05Z</time>
      </trkpt>
      <trkpt lat="50.61829" lon="3.25215">
        <ele>-22.2</ele>
        <time>2018-06-26T10:31:09Z</time>
      </trkpt>
      <trkpt lat="50.61815" lon="3.25206">
        <ele>-22.4</ele>
        <time>2018-06-26T10:31:13Z</time>
      </trkpt>
      <trkpt lat="50.618" lon="3.252">
        <ele>-22.4</ele>
        <time>2018-06-26T10:31:17Z</time>
      </trkpt>
      <trkpt lat="50.61788" lon="3.25194">
        <ele>-21.8</ele>
        <time>2018-06-26T10:31:21Z</time>
      </trkpt>
      <trkpt lat="50.61783" lon="3.25207">
        <ele>-22.2</ele>
        <time>2018-06-26T10:31:25Z</time>
      </trkpt>
      <trkpt lat="50.61782" lon="3.25226">
        <ele>-22.4</ele>
        <time>2018-06-26T10:31:29Z</time>
      </trkpt>
      <trkpt lat="50.61781" lon="3.25246">
        <ele>-21.8</ele>
        <time>2018-06-26T10:31:33Z</time>
      </trkpt>
      <trkpt lat="50.61781" lon="3.25267">
        <ele>-22.2</ele>
        <time>2018-06-26T10:31:37Z</time>
      </trkpt>
      <trkpt lat="50.6178" lon="3.2529">
        <ele>-21.8</ele>
        <time>2018-06-26T10:31:41Z</time>
      </trkpt>
      <trkpt lat="50.61779" lon="3.25314">
        <ele>-22.6</ele>
        <time>2018-06-26T10:31:45Z</time>
      </trkpt>
      <trkpt lat="50.61778" lon="3.25338">
        <ele>-22.6</ele>
        <time>2018-06-26T10:31:49Z</time>
      </trkpt>
      <trkpt lat="50.61777" lon="3.25363">
        <ele>-23.2</ele>
        <time>2018-06-26T10:31:53Z</time>
      </trkpt>
      <trkpt lat="50.61776" lon="3.25388">
        <ele>-22.8</ele>
        <time>2018-06-26T10:31:57Z</time>
      </trkpt>
      <trkpt lat="50.61775" lon="3.25412">
        <ele>-22.4</ele>
        <time>2018-06-26T10:32:01Z</time>
      </trkpt>
      <trkpt lat="50.61774" lon="3.25437">
        <ele>-22.8</ele>
        <time>2018-06-26T10:32:05Z</time>
      </trkpt>
      <trkpt lat="50.61774" lon="3.25461">
        <ele>-22.6</ele>
        <time>2018-06-26T10:32:09Z</time>
      </trkpt>
      <trkpt lat="50.61772" lon="3.25486">
        <ele>-23.2</ele>
        <time>2018-06-26T10:32:13Z</time>
      </trkpt>
      <trkpt lat="50.61771" lon="3.25511">
        <ele>-22.8</ele>
        <time>2018-06-26T10:32:17Z</time>
      </trkpt>
      <trkpt lat="50.61771" lon="3.25536">
        <ele>-23.8</ele>
        <time>2018-06-26T10:32:21Z</time>
      </trkpt>
      <trkpt lat="50.6177" lon="3.25562">
        <ele>-24.2</ele>
        <time>2018-06-26T10:32:25Z</time>
      </trkpt>
      <trkpt lat="50.61769" lon="3.25588">
        <ele>-24</ele>
        <time>2018-06-26T10:32:29Z</time>
      </trkpt>
      <trkpt lat="50.61768" lon="3.25613">
        <ele>-24.2</ele>
        <time>2018-06-26T10:32:33Z</time>
      </trkpt>
      <trkpt lat="50.61766" lon="3.25637">
        <ele>-24.2</ele>
        <time>2018-06-26T10:32:37Z</time>
      </trkpt>
      <trkpt lat="50.6176" lon="3.25657">
        <ele>-24.2</ele>
        <time>2018-06-26T10:32:41Z</time>
      </trkpt>
      <trkpt lat="50.61748" lon="3.25664">
        <ele>-24.2</ele>
        <time>2018-06-26T10:32:45Z</time>
      </trkpt>
      <trkpt lat="50.61735" lon="3.25657">
        <ele>-25</ele>
        <time>2018-06-26T10:32:49Z</time>
      </trkpt>
      <trkpt lat="50.61721" lon="3.25646">
        <ele>-23.8</ele>
        <time>2018-06-26T10:32:53Z</time>
      </trkpt>
      <trkpt lat="50.61707" lon="3.25638">
        <ele>-24.2</ele>
        <time>2018-06-26T10:32:57Z</time>
      </trkpt>
      <trkpt lat="50.61693" lon="3.25631">
        <ele>-24.2</ele>
        <time>2018-06-26T10:33:01Z</time>
      </trkpt>
      <trkpt lat="50.61679" lon="3.25623">
        <ele>-24.2</ele>
        <time>2018-06-26T10:33:05Z</time>
      </trkpt>
      <trkpt lat="50.61665" lon="3.25615">
        <ele>-24.2</ele>
        <time>2018-06-26T10:33:09Z</time>
      </trkpt>
      <trkpt lat="50.6165" lon="3.25608">
        <ele>-24.6</ele>
        <time>2018-06-26T10:33:13Z</time>
      </trkpt>
      <trkpt lat="50.61636" lon="3.25601">
        <ele>-24.2</ele>
        <time>2018-06-26T10:33:17Z</time>
      </trkpt>
      <trkpt lat="50.61621" lon="3.25595">
        <ele>-24.2</ele>
        <time>2018-06-26T10:33:21Z</time>
      </trkpt>
      <trkpt lat="50.61607" lon="3.25589">
        <ele>-24.4</ele>
        <time>2018-06-26T10:33:25Z</time>
      </trkpt>
      <trkpt lat="50.61592" lon="3.25583">
        <ele>-23.6</ele>
        <time>2018-06-26T10:33:29Z</time>
      </trkpt>
      <trkpt lat="50.61577" lon="3.25579">
        <ele>-24.4</ele>
        <time>2018-06-26T10:33:33Z</time>
      </trkpt>
      <trkpt lat="50.61561" lon="3.25574">
        <ele>-24.6</ele>
        <time>2018-06-26T10:33:37Z</time>
      </trkpt>
      <trkpt lat="50.61546" lon="3.2557">
        <ele>-23.6</ele>
        <time>2018-06-26T10:33:41Z</time>
      </trkpt>
      <trkpt lat="50.61533" lon="3.25562">
        <ele>-23.4</ele>
        <time>2018-06-26T10:33:45Z</time>
      </trkpt>
      <trkpt lat="50.6152" lon="3.25553">
        <ele>-23.2</ele>
        <time>2018-06-26T10:33:49Z</time>
      </trkpt>
      <trkpt lat="50.61508" lon="3.25547">
        <ele>-23.2</ele>
        <time>2018-06-26T10:33:53Z</time>
      </trkpt>
      <trkpt lat="50.61497" lon="3.25557">
        <ele>-23.6</ele>
        <time>2018-06-26T10:33:57Z</time>
      </trkpt>
      <trkpt lat="50.61491" lon="3.25575">
        <ele>-23.6</ele>
        <time>2018-06-26T10:34:01Z</time>
      </trkpt>
      <trkpt lat="50.61485" lon="3.25592">
        <ele>-23.6</ele>
        <time>2018-06-26T10:34:05Z</time>
      </trkpt>
      <trkpt lat="50.6148" lon="3.2561">
        <ele>-23.2</ele>
        <time>2018-06-26T10:34:09Z</time>
      </trkpt>
      <trkpt lat="50.61473" lon="3.2563">
        <ele>-23.2</ele>
        <time>2018-06-26T10:34:13Z</time>
      </trkpt>
      <trkpt lat="50.61468" lon="3.25648">
        <ele>-23.2</ele>
        <time>2018-06-26T10:34:17Z</time>
      </trkpt>
      <trkpt lat="50.61462" lon="3.25666">
        <ele>-23.6</ele>
        <time>2018-06-26T10:34:21Z</time>
      </trkpt>
      <trkpt lat="50.61457" lon="3.25685">
        <ele>-23.6</ele>
        <time>2018-06-26T10:34:25Z</time>
      </trkpt>
      <trkpt lat="50.61451" lon="3.25704">
        <ele>-23.6</ele>
        <time>2018-06-26T10:34:29Z</time>
      </trkpt>
      <trkpt lat="50.61445" lon="3.25719">
        <ele>-23.4</ele>
        <time>2018-06-26T10:34:33Z</time>
      </trkpt>
      <trkpt lat="50.61434" lon="3.2572">
        <ele>-22.8</ele>
        <time>2018-06-26T10:34:37Z</time>
      </trkpt>
      <trkpt lat="50.61421" lon="3.25717">
        <ele>-22.6</ele>
        <time>2018-06-26T10:34:41Z</time>
      </trkpt>
      <trkpt lat="50.6141" lon="3.25717">
        <ele>-22.4</ele>
        <time>2018-06-26T10:34:45Z</time>
      </trkpt>
      <trkpt lat="50.61399" lon="3.25728">
        <ele>-22.4</ele>
        <time>2018-06-26T10:34:49Z</time>
      </trkpt>
      <trkpt lat="50.61394" lon="3.25748">
        <ele>-22.4</ele>
        <time>2018-06-26T10:34:53Z</time>
      </trkpt>
      <trkpt lat="50.61388" lon="3.25772">
        <ele>-22.8</ele>
        <time>2018-06-26T10:34:57Z</time>
      </trkpt>
      <trkpt lat="50.61382" lon="3.25795">
        <ele>-22.6</ele>
        <time>2018-06-26T10:35:01Z</time>
      </trkpt>
      <trkpt lat="50.61374" lon="3.25808">
        <ele>-22.6</ele>
        <time>2018-06-26T10:35:05Z</time>
      </trkpt>
      <trkpt lat="50.6136" lon="3.25799">
        <ele>-22.6</ele>
        <time>2018-06-26T10:35:09Z</time>
      </trkpt>
      <trkpt lat="50.61347" lon="3.25791">
        <ele>-22.6</ele>
        <time>2018-06-26T10:35:13Z</time>
      </trkpt>
      <trkpt lat="50.61336" lon="3.25777">
        <ele>-22.6</ele>
        <time>2018-06-26T10:35:17Z</time>
      </trkpt>
      <trkpt lat="50.61327" lon="3.25757">
        <ele>-22.4</ele>
        <time>2018-06-26T10:35:21Z</time>
      </trkpt>
      <trkpt lat="50.61316" lon="3.25739">
        <ele>-22.2</ele>
        <time>2018-06-26T10:35:25Z</time>
      </trkpt>
      <trkpt lat="50.61302" lon="3.25726">
        <ele>-22.6</ele>
        <time>2018-06-26T10:35:29Z</time>
      </trkpt>
      <trkpt lat="50.61287" lon="3.25713">
        <ele>-22</ele>
        <time>2018-06-26T10:35:33Z</time>
      </trkpt>
      <trkpt lat="50.6127" lon="3.25707">
        <ele>-21.4</ele>
        <time>2018-06-26T10:35:37Z</time>
      </trkpt>
      <trkpt lat="50.61254" lon="3.25707">
        <ele>-21.8</ele>
        <time>2018-06-26T10:35:41Z</time>
      </trkpt>
      <trkpt lat="50.61242" lon="3.25712">
        <ele>-21.8</ele>
        <time>2018-06-26T10:35:45Z</time>
      </trkpt>
      <trkpt lat="50.61243" lon="3.25717">
        <ele>-22</ele>
        <time>2018-06-26T10:35:49Z</time>
      </trkpt>
      <trkpt lat="50.61249" lon="3.25715">
        <ele>-22</ele>
        <time>2018-06-26T10:35:53Z</time>
      </trkpt>
      <trkpt lat="50.61251" lon="3.25723">
        <ele>-21.4</ele>
        <time>2018-06-26T10:35:57Z</time>
      </trkpt>
      <trkpt lat="50.61247" lon="3.2574">
        <ele>-21.6</ele>
        <time>2018-06-26T10:36:01Z</time>
      </trkpt>
      <trkpt lat="50.61243" lon="3.25759">
        <ele>-22</ele>
        <time>2018-06-26T10:36:05Z</time>
      </trkpt>
      <trkpt lat="50.61247" lon="3.25777">
        <ele>-21.8</ele>
        <time>2018-06-26T10:36:09Z</time>
      </trkpt>
      <trkpt lat="50.61252" lon="3.25782">
        <ele>-21.8</ele>
        <time>2018-06-26T10:36:13Z</time>
      </trkpt>
      <trkpt lat="50.61251" lon="3.25781">
        <ele>-21.8</ele>
        <time>2018-06-26T10:36:17Z</time>
      </trkpt>
      <trkpt lat="50.61246" lon="3.25775">
        <ele>-22</ele>
        <time>2018-06-26T10:36:21Z</time>
      </trkpt>
      <trkpt lat="50.61241" lon="3.25759">
        <ele>-22</ele>
        <time>2018-06-26T10:36:25Z</time>
      </trkpt>
      <trkpt lat="50.61245" lon="3.25741">
        <ele>-21.8</ele>
        <time>2018-06-26T10:36:29Z</time>
      </trkpt>
      <trkpt lat="50.61249" lon="3.25725">
        <ele>-22</ele>
        <time>2018-06-26T10:36:33Z</time>
      </trkpt>
      <trkpt lat="50.61257" lon="3.25714">
        <ele>-22</ele>
        <time>2018-06-26T10:36:37Z</time>
      </trkpt>
      <trkpt lat="50.61268" lon="3.2571">
        <ele>-21.8</ele>
        <time>2018-06-26T10:36:41Z</time>
      </trkpt>
      <trkpt lat="50.61281" lon="3.25715">
        <ele>-21.8</ele>
        <time>2018-06-26T10:36:45Z</time>
      </trkpt>
      <trkpt lat="50.61294" lon="3.25724">
        <ele>-22.2</ele>
        <time>2018-06-26T10:36:49Z</time>
      </trkpt>
      <trkpt lat="50.61307" lon="3.25733">
        <ele>-22</ele>
        <time>2018-06-26T10:36:53Z</time>
      </trkpt>
      <trkpt lat="50.61315" lon="3.25748">
        <ele>-22.4</ele>
        <time>2018-06-26T10:36:57Z</time>
      </trkpt>
      <trkpt lat="50.61307" lon="3.25759">
        <ele>-22.4</ele>
        <time>2018-06-26T10:37:01Z</time>
      </trkpt>
      <trkpt lat="50.613" lon="3.25774">
        <ele>-22.2</ele>
        <time>2018-06-26T10:37:05Z</time>
      </trkpt>
      <trkpt lat="50.61293" lon="3.25789">
        <ele>-21.8</ele>
        <time>2018-06-26T10:37:09Z</time>
      </trkpt>
      <trkpt lat="50.61286" lon="3.25808">
        <ele>-21.8</ele>
        <time>2018-06-26T10:37:13Z</time>
      </trkpt>
      <trkpt lat="50.61279" lon="3.25828">
        <ele>-22.2</ele>
        <time>2018-06-26T10:37:17Z</time>
      </trkpt>
      <trkpt lat="50.61272" lon="3.25847">
        <ele>-21.8</ele>
        <time>2018-06-26T10:37:21Z</time>
      </trkpt>
      <trkpt lat="50.61263" lon="3.25864">
        <ele>-21.8</ele>
        <time>2018-06-26T10:37:25Z</time>
      </trkpt>
      <trkpt lat="50.61254" lon="3.2588">
        <ele>-22.2</ele>
        <time>2018-06-26T10:37:29Z</time>
      </trkpt>
      <trkpt lat="50.61245" lon="3.25894">
        <ele>-22.2</ele>
        <time>2018-06-26T10:37:33Z</time>
      </trkpt>
      <trkpt lat="50.61235" lon="3.25908">
        <ele>-22</ele>
        <time>2018-06-26T10:37:37Z</time>
      </trkpt>
      <trkpt lat="50.61227" lon="3.25921">
        <ele>-22.4</ele>
        <time>2018-06-26T10:37:41Z</time>
      </trkpt>
      <trkpt lat="50.61218" lon="3.25934">
        <ele>-22.2</ele>
        <time>2018-06-26T10:37:45Z</time>
      </trkpt>
      <trkpt lat="50.6121" lon="3.25947">
        <ele>-22</ele>
        <time>2018-06-26T10:37:49Z</time>
      </trkpt>
      <trkpt lat="50.61202" lon="3.25959">
        <ele>-22</ele>
        <time>2018-06-26T10:37:53Z</time>
      </trkpt>
      <trkpt lat="50.61194" lon="3.25973">
        <ele>-21.4</ele>
        <time>2018-06-26T10:37:57Z</time>
      </trkpt>
      <trkpt lat="50.61186" lon="3.25986">
        <ele>-22</ele>
        <time>2018-06-26T10:38:01Z</time>
      </trkpt>
      <trkpt lat="50.61178" lon="3.26001">
        <ele>-20.8</ele>
        <time>2018-06-26T10:38:05Z</time>
      </trkpt>
      <trkpt lat="50.6117" lon="3.26017">
        <ele>-21.2</ele>
        <time>2018-06-26T10:38:09Z</time>
      </trkpt>
      <trkpt lat="50.61163" lon="3.26035">
        <ele>-20.8</ele>
        <time>2018-06-26T10:38:13Z</time>
      </trkpt>
      <trkpt lat="50.61156" lon="3.26052">
        <ele>-22</ele>
        <time>2018-06-26T10:38:17Z</time>
      </trkpt>
      <trkpt lat="50.61149" lon="3.2607">
        <ele>-21.4</ele>
        <time>2018-06-26T10:38:21Z</time>
      </trkpt>
      <trkpt lat="50.61141" lon="3.26088">
        <ele>-21.4</ele>
        <time>2018-06-26T10:38:25Z</time>
      </trkpt>
      <trkpt lat="50.61134" lon="3.26107">
        <ele>-20.4</ele>
        <time>2018-06-26T10:38:29Z</time>
      </trkpt>
      <trkpt lat="50.61125" lon="3.26127">
        <ele>-20.8</ele>
        <time>2018-06-26T10:38:33Z</time>
      </trkpt>
      <trkpt lat="50.61117" lon="3.26146">
        <ele>-21</ele>
        <time>2018-06-26T10:38:37Z</time>
      </trkpt>
      <trkpt lat="50.61108" lon="3.26165">
        <ele>-21.4</ele>
        <time>2018-06-26T10:38:41Z</time>
      </trkpt>
      <trkpt lat="50.611" lon="3.26184">
        <ele>-21.2</ele>
        <time>2018-06-26T10:38:45Z</time>
      </trkpt>
      <trkpt lat="50.61092" lon="3.26203">
        <ele>-20.6</ele>
        <time>2018-06-26T10:38:49Z</time>
      </trkpt>
      <trkpt lat="50.61086" lon="3.26222">
        <ele>-21.2</ele>
        <time>2018-06-26T10:38:53Z</time>
      </trkpt>
      <trkpt lat="50.6108" lon="3.26239">
        <ele>-20.4</ele>
        <time>2018-06-26T10:38:57Z</time>
      </trkpt>
      <trkpt lat="50.61075" lon="3.26255">
        <ele>-20.8</ele>
        <time>2018-06-26T10:39:01Z</time>
      </trkpt>
      <trkpt lat="50.6107" lon="3.26272">
        <ele>-20.6</ele>
        <time>2018-06-26T10:39:05Z</time>
      </trkpt>
      <trkpt lat="50.61065" lon="3.26288">
        <ele>-20.4</ele>
        <time>2018-06-26T10:39:09Z</time>
      </trkpt>
      <trkpt lat="50.61061" lon="3.26302">
        <ele>-20</ele>
        <time>2018-06-26T10:39:13Z</time>
      </trkpt>
      <trkpt lat="50.61057" lon="3.26315">
        <ele>-20.2</ele>
        <time>2018-06-26T10:39:17Z</time>
      </trkpt>
      <trkpt lat="50.61053" lon="3.26325">
        <ele>-20</ele>
        <time>2018-06-26T10:39:21Z</time>
      </trkpt>
      <trkpt lat="50.61052" lon="3.26328">
        <ele>-20</ele>
        <time>2018-06-26T10:39:25Z</time>
      </trkpt>
      <trkpt lat="50.61052" lon="3.26328">
        <ele>-19.4</ele>
        <time>2018-06-26T10:39:29Z</time>
      </trkpt>
      <trkpt lat="50.61052" lon="3.26329">
        <ele>-20</ele>
        <time>2018-06-26T10:39:33Z</time>
      </trkpt>
      <trkpt lat="50.61052" lon="3.26329">
        <ele>-20.4</ele>
        <time>2018-06-26T10:39:37Z</time>
      </trkpt>
      <trkpt lat="50.61052" lon="3.26329">
        <ele>-20</ele>
        <time>2018-06-26T10:39:41Z</time>
      </trkpt>
      <trkpt lat="50.61052" lon="3.26329">
        <ele>-20.4</ele>
        <time>2018-06-26T10:39:45Z</time>
      </trkpt>
      <trkpt lat="50.61052" lon="3.26329">
        <ele>-20.4</ele>
        <time>2018-06-26T10:39:49Z</time>
      </trkpt>
      <trkpt lat="50.61052" lon="3.26329">
        <ele>-20.8</ele>
        <time>2018-06-26T10:39:53Z</time>
      </trkpt>
      <trkpt lat="50.61052" lon="3.26329">
        <ele>-20.4</ele>
        <time>2018-06-26T10:39:57Z</time>
      </trkpt>
      <trkpt lat="50.61052" lon="3.26329">
        <ele>-20.8</ele>
        <time>2018-06-26T10:40:01Z</time>
      </trkpt>
      <trkpt lat="50.61052" lon="3.26329">
        <ele>-20</ele>
        <time>2018-06-26T10:40:05Z</time>
      </trkpt>
      <trkpt lat="50.61052" lon="3.26329">
        <ele>-20</ele>
        <time>2018-06-26T10:40:09Z</time>
      </trkpt>
      <trkpt lat="50.61052" lon="3.26329">
        <ele>-20</ele>
        <time>2018-06-26T10:40:13Z</time>
      </trkpt>
      <trkpt lat="50.61052" lon="3.26329">
        <ele>-20</ele>
        <time>2018-06-26T10:40:17Z</time>
      </trkpt>
      <trkpt lat="50.61052" lon="3.26329">
        <ele>-20</ele>
        <time>2018-06-26T10:40:21Z</time>
      </trkpt>
      <trkpt lat="50.61052" lon="3.26329">
        <ele>-20.2</ele>
        <time>2018-06-26T10:40:25Z</time>
      </trkpt>
      <trkpt lat="50.61052" lon="3.26329">
        <ele>-20</ele>
        <time>2018-06-26T10:40:29Z</time>
      </trkpt>
      <trkpt lat="50.61052" lon="3.26329">
        <ele>-20.2</ele>
        <time>2018-06-26T10:40:33Z</time>
      </trkpt>
      <trkpt lat="50.61052" lon="3.26329">
        <ele>-19.8</ele>
        <time>2018-06-26T10:40:37Z</time>
      </trkpt>
      <trkpt lat="50.61052" lon="3.26329">
        <ele>-19.6</ele>
        <time>2018-06-26T10:40:41Z</time>
      </trkpt>
      <trkpt lat="50.61052" lon="3.26329">
        <ele>-20.2</ele>
        <time>2018-06-26T10:40:45Z</time>
      </trkpt>
      <trkpt lat="50.61052" lon="3.26329">
        <ele>-20.4</ele>
        <time>2018-06-26T10:40:49Z</time>
      </trkpt>
      <trkpt lat="50.61052" lon="3.26329">
        <ele>-20</ele>
        <time>2018-06-26T10:40:53Z</time>
      </trkpt>
      <trkpt lat="50.61052" lon="3.26329">
        <ele>-20</ele>
        <time>2018-06-26T10:40:57Z</time>
      </trkpt>
      <trkpt lat="50.61052" lon="3.26329">
        <ele>-19.8</ele>
        <time>2018-06-26T10:41:01Z</time>
      </trkpt>
      <trkpt lat="50.61052" lon="3.26329">
        <ele>-19.8</ele>
        <time>2018-06-26T10:41:05Z</time>
      </trkpt>
      <trkpt lat="50.61052" lon="3.26329">
        <ele>-20.2</ele>
        <time>2018-06-26T10:41:09Z</time>
      </trkpt>
      <trkpt lat="50.61052" lon="3.26329">
        <ele>-20.4</ele>
        <time>2018-06-26T10:41:13Z</time>
      </trkpt>
      <trkpt lat="50.61052" lon="3.26329">
        <ele>-20.4</ele>
        <time>2018-06-26T10:41:17Z</time>
      </trkpt>
      <trkpt lat="50.61052" lon="3.26329">
        <ele>-20.2</ele>
        <time>2018-06-26T10:41:21Z</time>
      </trkpt>
      <trkpt lat="50.61052" lon="3.26329">
        <ele>-20.4</ele>
        <time>2018-06-26T10:41:25Z</time>
      </trkpt>
      <trkpt lat="50.61052" lon="3.26329">
        <ele>-20.2</ele>
        <time>2018-06-26T10:41:29Z</time>
      </trkpt>
      <trkpt lat="50.61052" lon="3.26329">
        <ele>-20.2</ele>
        <time>2018-06-26T10:41:33Z</time>
      </trkpt>
      <trkpt lat="50.61052" lon="3.26329">
        <ele>-20</ele>
        <time>2018-06-26T10:41:37Z</time>
      </trkpt>
      <trkpt lat="50.61052" lon="3.26329">
        <ele>-20.2</ele>
        <time>2018-06-26T10:41:41Z</time>
      </trkpt>
      <trkpt lat="50.61052" lon="3.26329">
        <ele>-20.4</ele>
        <time>2018-06-26T10:41:45Z</time>
      </trkpt>
      <trkpt lat="50.61052" lon="3.26329">
        <ele>-20</ele>
        <time>2018-06-26T10:41:49Z</time>
      </trkpt>
      <trkpt lat="50.61052" lon="3.26329">
        <ele>-19.8</ele>
        <time>2018-06-26T10:41:53Z</time>
      </trkpt>
      <trkpt lat="50.61052" lon="3.26329">
        <ele>-20</ele>
        <time>2018-06-26T10:41:57Z</time>
      </trkpt>
      <trkpt lat="50.61052" lon="3.26329">
        <ele>-20</ele>
        <time>2018-06-26T10:42:01Z</time>
      </trkpt>
      <trkpt lat="50.61052" lon="3.26329">
        <ele>-19.8</ele>
        <time>2018-06-26T10:42:05Z</time>
      </trkpt>
      <trkpt lat="50.61052" lon="3.26329">
        <ele>-20</ele>
        <time>2018-06-26T10:42:09Z</time>
      </trkpt>
      <trkpt lat="50.61052" lon="3.26329">
        <ele>-20.2</ele>
        <time>2018-06-26T10:42:13Z</time>
      </trkpt>
      <trkpt lat="50.61052" lon="3.26329">
        <ele>-19.8</ele>
        <time>2018-06-26T10:42:17Z</time>
      </trkpt>
      <trkpt lat="50.61052" lon="3.26329">
        <ele>-19.4</ele>
        <time>2018-06-26T10:42:21Z</time>
      </trkpt>
      <trkpt lat="50.61052" lon="3.26329">
        <ele>-19.8</ele>
        <time>2018-06-26T10:42:25Z</time>
      </trkpt>
      <trkpt lat="50.61052" lon="3.26329">
        <ele>-20</ele>
        <time>2018-06-26T10:42:29Z</time>
      </trkpt>
      <trkpt lat="50.61052" lon="3.26329">
        <ele>-19.8</ele>
        <time>2018-06-26T10:42:33Z</time>
      </trkpt>
      <trkpt lat="50.61052" lon="3.26329">
        <ele>-20</ele>
        <time>2018-06-26T10:42:37Z</time>
      </trkpt>
      <trkpt lat="50.61052" lon="3.26329">
        <ele>-20.2</ele>
        <time>2018-06-26T10:42:41Z</time>
      </trkpt>
      <trkpt lat="50.61052" lon="3.26329">
        <ele>-20</ele>
        <time>2018-06-26T10:42:45Z</time>
      </trkpt>
      <trkpt lat="50.61052" lon="3.26329">
        <ele>-19.8</ele>
        <time>2018-06-26T10:42:49Z</time>
      </trkpt>
      <trkpt lat="50.61052" lon="3.26329">
        <ele>-20.2</ele>
        <time>2018-06-26T10:42:53Z</time>
      </trkpt>
      <trkpt lat="50.61052" lon="3.26329">
        <ele>-20</ele>
        <time>2018-06-26T10:42:57Z</time>
      </trkpt>
      <trkpt lat="50.61052" lon="3.26329">
        <ele>-20</ele>
        <time>2018-06-26T10:43:01Z</time>
      </trkpt>
      <trkpt lat="50.61052" lon="3.26329">
        <ele>-19.8</ele>
        <time>2018-06-26T10:43:05Z</time>
      </trkpt>
      <trkpt lat="50.61052" lon="3.26329">
        <ele>-19.4</ele>
        <time>2018-06-26T10:43:09Z</time>
      </trkpt>
      <trkpt lat="50.61052" lon="3.26329">
        <ele>-19.8</ele>
        <time>2018-06-26T10:43:13Z</time>
      </trkpt>
      <trkpt lat="50.61052" lon="3.26329">
        <ele>-19.6</ele>
        <time>2018-06-26T10:43:17Z</time>
      </trkpt>
      <trkpt lat="50.61052" lon="3.26329">
        <ele>-19.2</ele>
        <time>2018-06-26T10:43:21Z</time>
      </trkpt>
      <trkpt lat="50.61052" lon="3.26329">
        <ele>-19</ele>
        <time>2018-06-26T10:43:25Z</time>
      </trkpt>
      <trkpt lat="50.61052" lon="3.26329">
        <ele>-19.6</ele>
        <time>2018-06-26T10:43:29Z</time>
      </trkpt>
      <trkpt lat="50.61052" lon="3.26329">
        <ele>-19.6</ele>
        <time>2018-06-26T10:43:33Z</time>
      </trkpt>
      <trkpt lat="50.61052" lon="3.26329">
        <ele>-19.8</ele>
        <time>2018-06-26T10:43:37Z</time>
      </trkpt>
      <trkpt lat="50.61052" lon="3.26329">
        <ele>-19.8</ele>
        <time>2018-06-26T10:43:41Z</time>
      </trkpt>
      <trkpt lat="50.61052" lon="3.26329">
        <ele>-19.4</ele>
        <time>2018-06-26T10:43:45Z</time>
      </trkpt>
      <trkpt lat="50.61052" lon="3.26329">
        <ele>-20</ele>
        <time>2018-06-26T10:43:49Z</time>
      </trkpt>
      <trkpt lat="50.61052" lon="3.26329">
        <ele>-19.6</ele>
        <time>2018-06-26T10:43:53Z</time>
      </trkpt>
      <trkpt lat="50.61052" lon="3.26329">
        <ele>-19.4</ele>
        <time>2018-06-26T10:43:57Z</time>
      </trkpt>
      <trkpt lat="50.61052" lon="3.26329">
        <ele>-19</ele>
        <time>2018-06-26T10:44:01Z</time>
      </trkpt>
      <trkpt lat="50.61052" lon="3.26329">
        <ele>-19.4</ele>
        <time>2018-06-26T10:44:05Z</time>
      </trkpt>
      <trkpt lat="50.61052" lon="3.26329">
        <ele>-19.8</ele>
        <time>2018-06-26T10:44:09Z</time>
      </trkpt>
      <trkpt lat="50.61052" lon="3.26329">
        <ele>-19.4</ele>
        <time>2018-06-26T10:44:13Z</time>
      </trkpt>
      <trkpt lat="50.61052" lon="3.26329">
        <ele>-19.6</ele>
        <time>2018-06-26T10:44:17Z</time>
      </trkpt>
      <trkpt lat="50.61052" lon="3.26329">
        <ele>-19.6</ele>
        <time>2018-06-26T10:44:21Z</time>
      </trkpt>
      <trkpt lat="50.61052" lon="3.26329">
        <ele>-19.6</ele>
        <time>2018-06-26T10:44:25Z</time>
      </trkpt>
      <trkpt lat="50.61052" lon="3.26329">
        <ele>-19.4</ele>
        <time>2018-06-26T10:44:29Z</time>
      </trkpt>
      <trkpt lat="50.61052" lon="3.26329">
        <ele>-19.6</ele>
        <time>2018-06-26T10:44:33Z</time>
      </trkpt>
      <trkpt lat="50.61052" lon="3.26329">
        <ele>-19.4</ele>
        <time>2018-06-26T10:44:37Z</time>
      </trkpt>
      <trkpt lat="50.61052" lon="3.26329">
        <ele>-19.6</ele>
        <time>2018-06-26T10:44:41Z</time>
      </trkpt>
      <trkpt lat="50.61052" lon="3.26329">
        <ele>-19.4</ele>
        <time>2018-06-26T10:44:45Z</time>
      </trkpt>
      <trkpt lat="50.61052" lon="3.26329">
        <ele>-19.6</ele>
        <time>2018-06-26T10:44:49Z</time>
      </trkpt>
      <trkpt lat="50.61052" lon="3.26329">
        <ele>-19.4</ele>
        <time>2018-06-26T10:44:53Z</time>
      </trkpt>
      <trkpt lat="50.61052" lon="3.26329">
        <ele>-19.2</ele>
        <time>2018-06-26T10:44:57Z</time>
      </trkpt>
      <trkpt lat="50.61052" lon="3.26329">
        <ele>-20</ele>
        <time>2018-06-26T10:45:01Z</time>
      </trkpt>
      <trkpt lat="50.61052" lon="3.26329">
        <ele>-19.6</ele>
        <time>2018-06-26T10:45:05Z</time>
      </trkpt>
      <trkpt lat="50.61052" lon="3.26329">
        <ele>-19.4</ele>
        <time>2018-06-26T10:45:09Z</time>
      </trkpt>
      <trkpt lat="50.61052" lon="3.26329">
        <ele>-20.2</ele>
        <time>2018-06-26T10:45:13Z</time>
      </trkpt>
      <trkpt lat="50.61052" lon="3.26329">
        <ele>-19.8</ele>
        <time>2018-06-26T10:45:17Z</time>
      </trkpt>
      <trkpt lat="50.61052" lon="3.26329">
        <ele>-19.4</ele>
        <time>2018-06-26T10:45:21Z</time>
      </trkpt>
      <trkpt lat="50.61052" lon="3.26329">
        <ele>-19.2</ele>
        <time>2018-06-26T10:45:25Z</time>
      </trkpt>
      <trkpt lat="50.61052" lon="3.26329">
        <ele>-19.4</ele>
        <time>2018-06-26T10:45:29Z</time>
      </trkpt>
      <trkpt lat="50.61052" lon="3.26329">
        <ele>-19</ele>
        <time>2018-06-26T10:45:33Z</time>
      </trkpt>
      <trkpt lat="50.61052" lon="3.26329">
        <ele>-19.4</ele>
        <time>2018-06-26T10:45:37Z</time>
      </trkpt>
      <trkpt lat="50.61052" lon="3.26329">
        <ele>-19.8</ele>
        <time>2018-06-26T10:45:41Z</time>
      </trkpt>
      <trkpt lat="50.61052" lon="3.26329">
        <ele>-20</ele>
        <time>2018-06-26T10:45:45Z</time>
      </trkpt>
      <trkpt lat="50.61052" lon="3.26329">
        <ele>-19.4</ele>
        <time>2018-06-26T10:45:49Z</time>
      </trkpt>
      <trkpt lat="50.61052" lon="3.26329">
        <ele>-19.4</ele>
        <time>2018-06-26T10:45:53Z</time>
      </trkpt>
      <trkpt lat="50.61052" lon="3.26329">
        <ele>-19.2</ele>
        <time>2018-06-26T10:45:57Z</time>
      </trkpt>
      <trkpt lat="50.61052" lon="3.26329">
        <ele>-19.6</ele>
        <time>2018-06-26T10:46:01Z</time>
      </trkpt>
      <trkpt lat="50.61052" lon="3.26329">
        <ele>-19.8</ele>
        <time>2018-06-26T10:46:05Z</time>
      </trkpt>
      <trkpt lat="50.61052" lon="3.26329">
        <ele>-19.2</ele>
        <time>2018-06-26T10:46:09Z</time>
      </trkpt>
      <trkpt lat="50.61052" lon="3.26329">
        <ele>-19.4</ele>
        <time>2018-06-26T10:46:13Z</time>
      </trkpt>
      <trkpt lat="50.61052" lon="3.26329">
        <ele>-19.2</ele>
        <time>2018-06-26T10:46:17Z</time>
      </trkpt>
      <trkpt lat="50.61052" lon="3.26329">
        <ele>-19</ele>
        <time>2018-06-26T10:46:21Z</time>
      </trkpt>
      <trkpt lat="50.61052" lon="3.26329">
        <ele>-19.2</ele>
        <time>2018-06-26T10:46:25Z</time>
      </trkpt>
      <trkpt lat="50.61052" lon="3.26329">
        <ele>-19.4</ele>
        <time>2018-06-26T10:46:29Z</time>
      </trkpt>
      <trkpt lat="50.61052" lon="3.26329">
        <ele>-19.2</ele>
        <time>2018-06-26T10:46:33Z</time>
      </trkpt>
      <trkpt lat="50.61052" lon="3.26329">
        <ele>-19.4</ele>
        <time>2018-06-26T10:46:37Z</time>
      </trkpt>
      <trkpt lat="50.61052" lon="3.26329">
        <ele>-18.8</ele>
        <time>2018-06-26T10:46:41Z</time>
      </trkpt>
      <trkpt lat="50.61052" lon="3.26329">
        <ele>-19.6</ele>
        <time>2018-06-26T10:46:45Z</time>
      </trkpt>
      <trkpt lat="50.61052" lon="3.26329">
        <ele>-19.2</ele>
        <time>2018-06-26T10:46:49Z</time>
      </trkpt>
      <trkpt lat="50.61052" lon="3.26329">
        <ele>-19.4</ele>
        <time>2018-06-26T10:46:53Z</time>
      </trkpt>
      <trkpt lat="50.61052" lon="3.26329">
        <ele>-19.4</ele>
        <time>2018-06-26T10:46:57Z</time>
      </trkpt>
      <trkpt lat="50.61052" lon="3.26329">
        <ele>-19.6</ele>
        <time>2018-06-26T10:47:01Z</time>
      </trkpt>
      <trkpt lat="50.61052" lon="3.26329">
        <ele>-19.4</ele>
        <time>2018-06-26T10:47:05Z</time>
      </trkpt>
      <trkpt lat="50.61052" lon="3.26329">
        <ele>-19.2</ele>
        <time>2018-06-26T10:47:09Z</time>
      </trkpt>
      <trkpt lat="50.61052" lon="3.26329">
        <ele>-19.2</ele>
        <time>2018-06-26T10:47:13Z</time>
      </trkpt>
      <trkpt lat="50.61052" lon="3.26329">
        <ele>-19</ele>
        <time>2018-06-26T10:47:17Z</time>
      </trkpt>
      <trkpt lat="50.61052" lon="3.26329">
        <ele>-19</ele>
        <time>2018-06-26T10:47:21Z</time>
      </trkpt>
      <trkpt lat="50.61052" lon="3.26329">
        <ele>-18.8</ele>
        <time>2018-06-26T10:47:25Z</time>
      </trkpt>
      <trkpt lat="50.61052" lon="3.26329">
        <ele>-19</ele>
        <time>2018-06-26T10:47:29Z</time>
      </trkpt>
      <trkpt lat="50.61052" lon="3.26329">
        <ele>-18.8</ele>
        <time>2018-06-26T10:47:33Z</time>
      </trkpt>
      <trkpt lat="50.61052" lon="3.26329">
        <ele>-19.4</ele>
        <time>2018-06-26T10:47:37Z</time>
      </trkpt>
      <trkpt lat="50.61052" lon="3.26329">
        <ele>-19</ele>
        <time>2018-06-26T10:47:41Z</time>
      </trkpt>
      <trkpt lat="50.61052" lon="3.26329">
        <ele>-19.2</ele>
        <time>2018-06-26T10:47:45Z</time>
      </trkpt>
      <trkpt lat="50.61052" lon="3.26329">
        <ele>-19.2</ele>
        <time>2018-06-26T10:47:49Z</time>
      </trkpt>
      <trkpt lat="50.61052" lon="3.26329">
        <ele>-19</ele>
        <time>2018-06-26T10:47:53Z</time>
      </trkpt>
      <trkpt lat="50.61052" lon="3.26329">
        <ele>-19.4</ele>
        <time>2018-06-26T10:47:57Z</time>
      </trkpt>
      <trkpt lat="50.61052" lon="3.26329">
        <ele>-19.2</ele>
        <time>2018-06-26T10:48:01Z</time>
      </trkpt>
      <trkpt lat="50.61052" lon="3.26329">
        <ele>-19.2</ele>
        <time>2018-06-26T10:48:05Z</time>
      </trkpt>
      <trkpt lat="50.61052" lon="3.26329">
        <ele>-19</ele>
        <time>2018-06-26T10:48:09Z</time>
      </trkpt>
      <trkpt lat="50.61052" lon="3.26329">
        <ele>-19.2</ele>
        <time>2018-06-26T10:48:13Z</time>
      </trkpt>
      <trkpt lat="50.61052" lon="3.26329">
        <ele>-19.2</ele>
        <time>2018-06-26T10:48:17Z</time>
      </trkpt>
      <trkpt lat="50.61052" lon="3.26329">
        <ele>-19.2</ele>
        <time>2018-06-26T10:48:21Z</time>
      </trkpt>
      <trkpt lat="50.61052" lon="3.26329">
        <ele>-19</ele>
        <time>2018-06-26T10:48:25Z</time>
      </trkpt>
      <trkpt lat="50.61052" lon="3.26329">
        <ele>-19</ele>
        <time>2018-06-26T10:48:29Z</time>
      </trkpt>
      <trkpt lat="50.61052" lon="3.26329">
        <ele>-19.6</ele>
        <time>2018-06-26T10:48:33Z</time>
      </trkpt>
      <trkpt lat="50.61052" lon="3.26329">
        <ele>-19.4</ele>
        <time>2018-06-26T10:48:37Z</time>
      </trkpt>
      <trkpt lat="50.61052" lon="3.26329">
        <ele>-19.2</ele>
        <time>2018-06-26T10:48:41Z</time>
      </trkpt>
      <trkpt lat="50.61052" lon="3.26329">
        <ele>-18.8</ele>
        <time>2018-06-26T10:48:45Z</time>
      </trkpt>
      <trkpt lat="50.61052" lon="3.26329">
        <ele>-18.6</ele>
        <time>2018-06-26T10:48:49Z</time>
      </trkpt>
      <trkpt lat="50.61052" lon="3.26329">
        <ele>-19.6</ele>
        <time>2018-06-26T10:48:53Z</time>
      </trkpt>
      <trkpt lat="50.61052" lon="3.26329">
        <ele>-19.4</ele>
        <time>2018-06-26T10:48:57Z</time>
      </trkpt>
      <trkpt lat="50.61052" lon="3.26329">
        <ele>-19.2</ele>
        <time>2018-06-26T10:49:01Z</time>
      </trkpt>
      <trkpt lat="50.61052" lon="3.26329">
        <ele>-18.8</ele>
        <time>2018-06-26T10:49:05Z</time>
      </trkpt>
      <trkpt lat="50.61052" lon="3.26329">
        <ele>-19</ele>
        <time>2018-06-26T10:49:09Z</time>
      </trkpt>
      <trkpt lat="50.61052" lon="3.26329">
        <ele>-19.2</ele>
        <time>2018-06-26T10:49:13Z</time>
      </trkpt>
      <trkpt lat="50.61052" lon="3.26329">
        <ele>-18.6</ele>
        <time>2018-06-26T10:49:17Z</time>
      </trkpt>
      <trkpt lat="50.61052" lon="3.26329">
        <ele>-19.2</ele>
        <time>2018-06-26T10:49:21Z</time>
      </trkpt>
      <trkpt lat="50.61052" lon="3.26329">
        <ele>-19.4</ele>
        <time>2018-06-26T10:49:25Z</time>
      </trkpt>
      <trkpt lat="50.61052" lon="3.26329">
        <ele>-19.4</ele>
        <time>2018-06-26T10:49:29Z</time>
      </trkpt>
      <trkpt lat="50.61052" lon="3.26329">
        <ele>-19</ele>
        <time>2018-06-26T10:49:33Z</time>
      </trkpt>
      <trkpt lat="50.61052" lon="3.26329">
        <ele>-19.2</ele>
        <time>2018-06-26T10:49:37Z</time>
      </trkpt>
      <trkpt lat="50.61052" lon="3.26329">
        <ele>-19</ele>
        <time>2018-06-26T10:49:41Z</time>
      </trkpt>
      <trkpt lat="50.61052" lon="3.26329">
        <ele>-19.4</ele>
        <time>2018-06-26T10:49:45Z</time>
      </trkpt>
      <trkpt lat="50.61052" lon="3.26329">
        <ele>-19.4</ele>
        <time>2018-06-26T10:49:49Z</time>
      </trkpt>
      <trkpt lat="50.61052" lon="3.26329">
        <ele>-19.2</ele>
        <time>2018-06-26T10:49:53Z</time>
      </trkpt>
      <trkpt lat="50.61052" lon="3.26329">
        <ele>-18.8</ele>
        <time>2018-06-26T10:49:57Z</time>
      </trkpt>
      <trkpt lat="50.61052" lon="3.26329">
        <ele>-19.6</ele>
        <time>2018-06-26T10:50:01Z</time>
      </trkpt>
      <trkpt lat="50.61052" lon="3.26329">
        <ele>-19</ele>
        <time>2018-06-26T10:50:05Z</time>
      </trkpt>
      <trkpt lat="50.61052" lon="3.26329">
        <ele>-19.2</ele>
        <time>2018-06-26T10:50:09Z</time>
      </trkpt>
      <trkpt lat="50.61052" lon="3.26329">
        <ele>-19</ele>
        <time>2018-06-26T10:50:13Z</time>
      </trkpt>
      <trkpt lat="50.61052" lon="3.26329">
        <ele>-19</ele>
        <time>2018-06-26T10:50:17Z</time>
      </trkpt>
      <trkpt lat="50.61052" lon="3.26329">
        <ele>-19</ele>
        <time>2018-06-26T10:50:21Z</time>
      </trkpt>
      <trkpt lat="50.61052" lon="3.26329">
        <ele>-19.4</ele>
        <time>2018-06-26T10:50:25Z</time>
      </trkpt>
      <trkpt lat="50.61052" lon="3.26329">
        <ele>-19.4</ele>
        <time>2018-06-26T10:50:29Z</time>
      </trkpt>
      <trkpt lat="50.61052" lon="3.26329">
        <ele>-19</ele>
        <time>2018-06-26T10:50:33Z</time>
      </trkpt>
      <trkpt lat="50.61052" lon="3.26329">
        <ele>-19.4</ele>
        <time>2018-06-26T10:50:37Z</time>
      </trkpt>
      <trkpt lat="50.61052" lon="3.26329">
        <ele>-19.4</ele>
        <time>2018-06-26T10:50:41Z</time>
      </trkpt>
      <trkpt lat="50.61052" lon="3.26329">
        <ele>-19.4</ele>
        <time>2018-06-26T10:50:45Z</time>
      </trkpt>
      <trkpt lat="50.61052" lon="3.26329">
        <ele>-19.4</ele>
        <time>2018-06-26T10:50:49Z</time>
      </trkpt>
      <trkpt lat="50.61052" lon="3.26329">
        <ele>-19.2</ele>
        <time>2018-06-26T10:50:53Z</time>
      </trkpt>
      <trkpt lat="50.61052" lon="3.26329">
        <ele>-19.4</ele>
        <time>2018-06-26T10:50:57Z</time>
      </trkpt>
      <trkpt lat="50.61052" lon="3.26329">
        <ele>-19.4</ele>
        <time>2018-06-26T10:51:01Z</time>
      </trkpt>
      <trkpt lat="50.61052" lon="3.26329">
        <ele>-19.6</ele>
        <time>2018-06-26T10:51:05Z</time>
      </trkpt>
      <trkpt lat="50.61052" lon="3.26329">
        <ele>-19</ele>
        <time>2018-06-26T10:51:09Z</time>
      </trkpt>
      <trkpt lat="50.61052" lon="3.26329">
        <ele>-19.4</ele>
        <time>2018-06-26T10:51:13Z</time>
      </trkpt>
      <trkpt lat="50.61052" lon="3.26329">
        <ele>-19</ele>
        <time>2018-06-26T10:51:17Z</time>
      </trkpt>
      <trkpt lat="50.61052" lon="3.26329">
        <ele>-19.6</ele>
        <time>2018-06-26T10:51:21Z</time>
      </trkpt>
      <trkpt lat="50.61052" lon="3.26329">
        <ele>-19.6</ele>
        <time>2018-06-26T10:51:25Z</time>
      </trkpt>
      <trkpt lat="50.61052" lon="3.26329">
        <ele>-19.4</ele>
        <time>2018-06-26T10:51:29Z</time>
      </trkpt>
      <trkpt lat="50.61052" lon="3.26329">
        <ele>-19.6</ele>
        <time>2018-06-26T10:51:33Z</time>
      </trkpt>
      <trkpt lat="50.61052" lon="3.26329">
        <ele>-19.6</ele>
        <time>2018-06-26T10:51:37Z</time>
      </trkpt>
      <trkpt lat="50.61052" lon="3.26329">
        <ele>-19.6</ele>
        <time>2018-06-26T10:51:41Z</time>
      </trkpt>
      <trkpt lat="50.61052" lon="3.26329">
        <ele>-19.8</ele>
        <time>2018-06-26T10:51:45Z</time>
      </trkpt>
      <trkpt lat="50.61052" lon="3.26329">
        <ele>-19.2</ele>
        <time>2018-06-26T10:51:49Z</time>
      </trkpt>
      <trkpt lat="50.61052" lon="3.26329">
        <ele>-19.6</ele>
        <time>2018-06-26T10:51:53Z</time>
      </trkpt>
      <trkpt lat="50.61052" lon="3.26329">
        <ele>-19.4</ele>
        <time>2018-06-26T10:51:57Z</time>
      </trkpt>
      <trkpt lat="50.61052" lon="3.26329">
        <ele>-19.6</ele>
        <time>2018-06-26T10:52:01Z</time>
      </trkpt>
      <trkpt lat="50.61052" lon="3.26329">
        <ele>-19.4</ele>
        <time>2018-06-26T10:52:05Z</time>
      </trkpt>
      <trkpt lat="50.61052" lon="3.26329">
        <ele>-19.2</ele>
        <time>2018-06-26T10:52:09Z</time>
      </trkpt>
      <trkpt lat="50.61052" lon="3.26329">
        <ele>-19.2</ele>
        <time>2018-06-26T10:52:13Z</time>
      </trkpt>
      <trkpt lat="50.61052" lon="3.26329">
        <ele>-19.8</ele>
        <time>2018-06-26T10:52:17Z</time>
      </trkpt>
      <trkpt lat="50.61052" lon="3.26329">
        <ele>-19.2</ele>
        <time>2018-06-26T10:52:21Z</time>
      </trkpt>
      <trkpt lat="50.61052" lon="3.26329">
        <ele>-19.6</ele>
        <time>2018-06-26T10:52:25Z</time>
      </trkpt>
      <trkpt lat="50.61052" lon="3.26329">
        <ele>-19.4</ele>
        <time>2018-06-26T10:52:29Z</time>
      </trkpt>
      <trkpt lat="50.61052" lon="3.26329">
        <ele>-19.4</ele>
        <time>2018-06-26T10:52:33Z</time>
      </trkpt>
      <trkpt lat="50.61052" lon="3.26329">
        <ele>-19</ele>
        <time>2018-06-26T10:52:37Z</time>
      </trkpt>
      <trkpt lat="50.61052" lon="3.26329">
        <ele>-19.4</ele>
        <time>2018-06-26T10:52:41Z</time>
      </trkpt>
      <trkpt lat="50.61052" lon="3.26329">
        <ele>-19.2</ele>
        <time>2018-06-26T10:52:45Z</time>
      </trkpt>
      <trkpt lat="50.61052" lon="3.26329">
        <ele>-19.4</ele>
        <time>2018-06-26T10:52:49Z</time>
      </trkpt>
      <trkpt lat="50.61052" lon="3.26329">
        <ele>-19.4</ele>
        <time>2018-06-26T10:52:53Z</time>
      </trkpt>
      <trkpt lat="50.61052" lon="3.26329">
        <ele>-19.4</ele>
        <time>2018-06-26T10:52:57Z</time>
      </trkpt>
      <trkpt lat="50.61052" lon="3.26329">
        <ele>-18.8</ele>
        <time>2018-06-26T10:53:01Z</time>
      </trkpt>
      <trkpt lat="50.61052" lon="3.26329">
        <ele>-19.2</ele>
        <time>2018-06-26T10:53:05Z</time>
      </trkpt>
      <trkpt lat="50.61052" lon="3.26329">
        <ele>-19.4</ele>
        <time>2018-06-26T10:53:09Z</time>
      </trkpt>
      <trkpt lat="50.61052" lon="3.26329">
        <ele>-19.4</ele>
        <time>2018-06-26T10:53:13Z</time>
      </trkpt>
      <trkpt lat="50.61052" lon="3.26329">
        <ele>-19.2</ele>
        <time>2018-06-26T10:53:17Z</time>
      </trkpt>
      <trkpt lat="50.61052" lon="3.26329">
        <ele>-19</ele>
        <time>2018-06-26T10:53:21Z</time>
      </trkpt>
      <trkpt lat="50.61052" lon="3.26329">
        <ele>-19.4</ele>
        <time>2018-06-26T10:53:25Z</time>
      </trkpt>
      <trkpt lat="50.61052" lon="3.26329">
        <ele>-19.2</ele>
        <time>2018-06-26T10:53:29Z</time>
      </trkpt>
      <trkpt lat="50.61052" lon="3.26329">
        <ele>-19.2</ele>
        <time>2018-06-26T10:53:33Z</time>
      </trkpt>
      <trkpt lat="50.61052" lon="3.26329">
        <ele>-19.2</ele>
        <time>2018-06-26T10:53:37Z</time>
      </trkpt>
      <trkpt lat="50.61052" lon="3.26329">
        <ele>-19</ele>
        <time>2018-06-26T10:53:41Z</time>
      </trkpt>
      <trkpt lat="50.61052" lon="3.26329">
        <ele>-19.4</ele>
        <time>2018-06-26T10:53:45Z</time>
      </trkpt>
      <trkpt lat="50.61052" lon="3.26329">
        <ele>-19.4</ele>
        <time>2018-06-26T10:53:49Z</time>
      </trkpt>
      <trkpt lat="50.61052" lon="3.26329">
        <ele>-19.4</ele>
        <time>2018-06-26T10:53:53Z</time>
      </trkpt>
      <trkpt lat="50.61052" lon="3.26329">
        <ele>-19</ele>
        <time>2018-06-26T10:53:57Z</time>
      </trkpt>
      <trkpt lat="50.61052" lon="3.26329">
        <ele>-19</ele>
        <time>2018-06-26T10:54:01Z</time>
      </trkpt>
      <trkpt lat="50.61052" lon="3.26329">
        <ele>-19.2</ele>
        <time>2018-06-26T10:54:05Z</time>
      </trkpt>
      <trkpt lat="50.61052" lon="3.26329">
        <ele>-19.2</ele>
        <time>2018-06-26T10:54:09Z</time>
      </trkpt>
      <trkpt lat="50.61052" lon="3.26329">
        <ele>-19.4</ele>
        <time>2018-06-26T10:54:13Z</time>
      </trkpt>
      <trkpt lat="50.61052" lon="3.26329">
        <ele>-19.4</ele>
        <time>2018-06-26T10:54:17Z</time>
      </trkpt>
      <trkpt lat="50.61052" lon="3.26329">
        <ele>-19.2</ele>
        <time>2018-06-26T10:54:21Z</time>
      </trkpt>
      <trkpt lat="50.61052" lon="3.26329">
        <ele>-19.6</ele>
        <time>2018-06-26T10:54:25Z</time>
      </trkpt>
      <trkpt lat="50.61052" lon="3.26329">
        <ele>-19.4</ele>
        <time>2018-06-26T10:54:29Z</time>
      </trkpt>
      <trkpt lat="50.61052" lon="3.26329">
        <ele>-19.4</ele>
        <time>2018-06-26T10:54:33Z</time>
      </trkpt>
      <trkpt lat="50.61052" lon="3.26329">
        <ele>-19.4</ele>
        <time>2018-06-26T10:54:37Z</time>
      </trkpt>
      <trkpt lat="50.61052" lon="3.26329">
        <ele>-19.4</ele>
        <time>2018-06-26T10:54:41Z</time>
      </trkpt>
      <trkpt lat="50.61052" lon="3.26329">
        <ele>-19.2</ele>
        <time>2018-06-26T10:54:45Z</time>
      </trkpt>
      <trkpt lat="50.61052" lon="3.26329">
        <ele>-19.4</ele>
        <time>2018-06-26T10:54:49Z</time>
      </trkpt>
      <trkpt lat="50.61052" lon="3.26329">
        <ele>-19.4</ele>
        <time>2018-06-26T10:54:53Z</time>
      </trkpt>
      <trkpt lat="50.61052" lon="3.26329">
        <ele>-19.2</ele>
        <time>2018-06-26T10:54:57Z</time>
      </trkpt>
      <trkpt lat="50.61052" lon="3.26329">
        <ele>-19.4</ele>
        <time>2018-06-26T10:55:01Z</time>
      </trkpt>
      <trkpt lat="50.61052" lon="3.26329">
        <ele>-20</ele>
        <time>2018-06-26T10:55:05Z</time>
      </trkpt>
      <trkpt lat="50.61052" lon="3.26329">
        <ele>-19.6</ele>
        <time>2018-06-26T10:55:09Z</time>
      </trkpt>
      <trkpt lat="50.61052" lon="3.26329">
        <ele>-20</ele>
        <time>2018-06-26T10:55:13Z</time>
      </trkpt>
      <trkpt lat="50.61052" lon="3.26329">
        <ele>-19.4</ele>
        <time>2018-06-26T10:55:17Z</time>
      </trkpt>
      <trkpt lat="50.61052" lon="3.26329">
        <ele>-19.6</ele>
        <time>2018-06-26T10:55:21Z</time>
      </trkpt>
      <trkpt lat="50.61052" lon="3.26329">
        <ele>-19.4</ele>
        <time>2018-06-26T10:55:25Z</time>
      </trkpt>
      <trkpt lat="50.61052" lon="3.26329">
        <ele>-19.4</ele>
        <time>2018-06-26T10:55:29Z</time>
      </trkpt>
      <trkpt lat="50.61052" lon="3.26329">
        <ele>-19</ele>
        <time>2018-06-26T10:55:33Z</time>
      </trkpt>
      <trkpt lat="50.61052" lon="3.26329">
        <ele>-19.8</ele>
        <time>2018-06-26T10:55:37Z</time>
      </trkpt>
      <trkpt lat="50.61052" lon="3.26329">
        <ele>-19.2</ele>
        <time>2018-06-26T10:55:41Z</time>
      </trkpt>
      <trkpt lat="50.61052" lon="3.26329">
        <ele>-19.6</ele>
        <time>2018-06-26T10:55:45Z</time>
      </trkpt>
      <trkpt lat="50.61052" lon="3.26329">
        <ele>-19.4</ele>
        <time>2018-06-26T10:55:49Z</time>
      </trkpt>
      <trkpt lat="50.61052" lon="3.26329">
        <ele>-19.4</ele>
        <time>2018-06-26T10:55:53Z</time>
      </trkpt>
      <trkpt lat="50.61052" lon="3.26329">
        <ele>-19.2</ele>
        <time>2018-06-26T10:55:57Z</time>
      </trkpt>
      <trkpt lat="50.61052" lon="3.26329">
        <ele>-18.8</ele>
        <time>2018-06-26T10:56:01Z</time>
      </trkpt>
      <trkpt lat="50.61052" lon="3.26329">
        <ele>-19</ele>
        <time>2018-06-26T10:56:05Z</time>
      </trkpt>
      <trkpt lat="50.61052" lon="3.26329">
        <ele>-19</ele>
        <time>2018-06-26T10:56:09Z</time>
      </trkpt>
      <trkpt lat="50.61052" lon="3.26329">
        <ele>-19</ele>
        <time>2018-06-26T10:56:13Z</time>
      </trkpt>
      <trkpt lat="50.61052" lon="3.26329">
        <ele>-19</ele>
        <time>2018-06-26T10:56:17Z</time>
      </trkpt>
      <trkpt lat="50.61052" lon="3.26329">
        <ele>-18.6</ele>
        <time>2018-06-26T10:56:21Z</time>
      </trkpt>
      <trkpt lat="50.61052" lon="3.26329">
        <ele>-18.6</ele>
        <time>2018-06-26T10:56:25Z</time>
      </trkpt>
      <trkpt lat="50.61052" lon="3.26329">
        <ele>-18.8</ele>
        <time>2018-06-26T10:56:29Z</time>
      </trkpt>
      <trkpt lat="50.61052" lon="3.26329">
        <ele>-18.6</ele>
        <time>2018-06-26T10:56:33Z</time>
      </trkpt>
      <trkpt lat="50.61052" lon="3.26329">
        <ele>-18.6</ele>
        <time>2018-06-26T10:56:37Z</time>
      </trkpt>
      <trkpt lat="50.61052" lon="3.26329">
        <ele>-18.6</ele>
        <time>2018-06-26T10:56:41Z</time>
      </trkpt>
      <trkpt lat="50.61052" lon="3.26329">
        <ele>-18.6</ele>
        <time>2018-06-26T10:56:45Z</time>
      </trkpt>
      <trkpt lat="50.61052" lon="3.26329">
        <ele>-18.6</ele>
        <time>2018-06-26T10:56:49Z</time>
      </trkpt>
      <trkpt lat="50.61052" lon="3.26329">
        <ele>-18.6</ele>
        <time>2018-06-26T10:56:53Z</time>
      </trkpt>
      <trkpt lat="50.61052" lon="3.26329">
        <ele>-18.6</ele>
        <time>2018-06-26T10:56:57Z</time>
      </trkpt>
      <trkpt lat="50.61052" lon="3.26329">
        <ele>-18.6</ele>
        <time>2018-06-26T10:57:01Z</time>
      </trkpt>
      <trkpt lat="50.61052" lon="3.26329">
        <ele>-18.4</ele>
        <time>2018-06-26T10:57:05Z</time>
      </trkpt>
      <trkpt lat="50.61052" lon="3.26329">
        <ele>-18.4</ele>
        <time>2018-06-26T10:57:09Z</time>
      </trkpt>
      <trkpt lat="50.61052" lon="3.26329">
        <ele>-18.4</ele>
        <time>2018-06-26T10:57:13Z</time>
      </trkpt>
      <trkpt lat="50.61052" lon="3.26329">
        <ele>-18.6</ele>
        <time>2018-06-26T10:57:17Z</time>
      </trkpt>
      <trkpt lat="50.61052" lon="3.26329">
        <ele>-18.4</ele>
        <time>2018-06-26T10:57:21Z</time>
      </trkpt>
      <trkpt lat="50.61052" lon="3.26329">
        <ele>-18.6</ele>
        <time>2018-06-26T10:57:25Z</time>
      </trkpt>
      <trkpt lat="50.61052" lon="3.26329">
        <ele>-18.8</ele>
        <time>2018-06-26T10:57:29Z</time>
      </trkpt>
      <trkpt lat="50.61052" lon="3.26329">
        <ele>-18.4</ele>
        <time>2018-06-26T10:57:33Z</time>
      </trkpt>
      <trkpt lat="50.61052" lon="3.26329">
        <ele>-18.8</ele>
        <time>2018-06-26T10:57:37Z</time>
      </trkpt>
      <trkpt lat="50.61052" lon="3.26329">
        <ele>-18.6</ele>
        <time>2018-06-26T10:57:41Z</time>
      </trkpt>
      <trkpt lat="50.61052" lon="3.26329">
        <ele>-18.4</ele>
        <time>2018-06-26T10:57:45Z</time>
      </trkpt>
      <trkpt lat="50.61052" lon="3.26329">
        <ele>-18.6</ele>
        <time>2018-06-26T10:57:49Z</time>
      </trkpt>
      <trkpt lat="50.61052" lon="3.26329">
        <ele>-18.4</ele>
        <time>2018-06-26T10:57:53Z</time>
      </trkpt>
      <trkpt lat="50.61052" lon="3.26329">
        <ele>-18.6</ele>
        <time>2018-06-26T10:57:57Z</time>
      </trkpt>
      <trkpt lat="50.61052" lon="3.26329">
        <ele>-18.6</ele>
        <time>2018-06-26T10:58:01Z</time>
      </trkpt>
      <trkpt lat="50.61052" lon="3.26329">
        <ele>-18.4</ele>
        <time>2018-06-26T10:58:05Z</time>
      </trkpt>
      <trkpt lat="50.61052" lon="3.26329">
        <ele>-18.4</ele>
        <time>2018-06-26T10:58:09Z</time>
      </trkpt>
      <trkpt lat="50.61052" lon="3.26329">
        <ele>-18.2</ele>
        <time>2018-06-26T10:58:13Z</time>
      </trkpt>
      <trkpt lat="50.61052" lon="3.26329">
        <ele>-18.2</ele>
        <time>2018-06-26T10:58:17Z</time>
      </trkpt>
      <trkpt lat="50.61052" lon="3.26329">
        <ele>-18.8</ele>
        <time>2018-06-26T10:58:21Z</time>
      </trkpt>
      <trkpt lat="50.61052" lon="3.26329">
        <ele>-18.6</ele>
        <time>2018-06-26T10:58:25Z</time>
      </trkpt>
      <trkpt lat="50.61052" lon="3.26329">
        <ele>-18</ele>
        <time>2018-06-26T10:58:29Z</time>
      </trkpt>
      <trkpt lat="50.61052" lon="3.26329">
        <ele>-18.2</ele>
        <time>2018-06-26T10:58:33Z</time>
      </trkpt>
      <trkpt lat="50.61052" lon="3.26329">
        <ele>-18.2</ele>
        <time>2018-06-26T10:58:37Z</time>
      </trkpt>
      <trkpt lat="50.61052" lon="3.26329">
        <ele>-18.6</ele>
        <time>2018-06-26T10:58:41Z</time>
      </trkpt>
      <trkpt lat="50.61052" lon="3.26329">
        <ele>-18.2</ele>
        <time>2018-06-26T10:58:45Z</time>
      </trkpt>
      <trkpt lat="50.61052" lon="3.26329">
        <ele>-18</ele>
        <time>2018-06-26T10:58:49Z</time>
      </trkpt>
      <trkpt lat="50.61052" lon="3.26329">
        <ele>-18.2</ele>
        <time>2018-06-26T10:58:53Z</time>
      </trkpt>
      <trkpt lat="50.61052" lon="3.26329">
        <ele>-17.8</ele>
        <time>2018-06-26T10:58:57Z</time>
      </trkpt>
      <trkpt lat="50.61052" lon="3.26329">
        <ele>-18.4</ele>
        <time>2018-06-26T10:59:01Z</time>
      </trkpt>
      <trkpt lat="50.61052" lon="3.26329">
        <ele>-17.8</ele>
        <time>2018-06-26T10:59:05Z</time>
      </trkpt>
      <trkpt lat="50.61052" lon="3.26329">
        <ele>-18</ele>
        <time>2018-06-26T10:59:09Z</time>
      </trkpt>
      <trkpt lat="50.61052" lon="3.26329">
        <ele>-18.4</ele>
        <time>2018-06-26T10:59:13Z</time>
      </trkpt>
      <trkpt lat="50.61052" lon="3.26329">
        <ele>-17.6</ele>
        <time>2018-06-26T10:59:17Z</time>
      </trkpt>
      <trkpt lat="50.61052" lon="3.26329">
        <ele>-18</ele>
        <time>2018-06-26T10:59:21Z</time>
      </trkpt>
      <trkpt lat="50.61052" lon="3.26329">
        <ele>-18.4</ele>
        <time>2018-06-26T10:59:25Z</time>
      </trkpt>
      <trkpt lat="50.61052" lon="3.26329">
        <ele>-18.2</ele>
        <time>2018-06-26T10:59:29Z</time>
      </trkpt>
      <trkpt lat="50.61052" lon="3.26329">
        <ele>-18</ele>
        <time>2018-06-26T10:59:33Z</time>
      </trkpt>
      <trkpt lat="50.61052" lon="3.26329">
        <ele>-18.2</ele>
        <time>2018-06-26T10:59:37Z</time>
      </trkpt>
      <trkpt lat="50.61052" lon="3.26329">
        <ele>-18</ele>
        <time>2018-06-26T10:59:41Z</time>
      </trkpt>
      <trkpt lat="50.61052" lon="3.26329">
        <ele>-18.4</ele>
        <time>2018-06-26T10:59:45Z</time>
      </trkpt>
      <trkpt lat="50.61052" lon="3.26329">
        <ele>-17.8</ele>
        <time>2018-06-26T10:59:49Z</time>
      </trkpt>
      <trkpt lat="50.61052" lon="3.26329">
        <ele>-18.4</ele>
        <time>2018-06-26T10:59:53Z</time>
      </trkpt>
      <trkpt lat="50.61052" lon="3.26329">
        <ele>-18.2</ele>
        <time>2018-06-26T10:59:57Z</time>
      </trkpt>
      <trkpt lat="50.61052" lon="3.26329">
        <ele>-18.4</ele>
        <time>2018-06-26T11:00:01Z</time>
      </trkpt>
      <trkpt lat="50.61052" lon="3.26329">
        <ele>-17.8</ele>
        <time>2018-06-26T11:00:05Z</time>
      </trkpt>
      <trkpt lat="50.61052" lon="3.26329">
        <ele>-17.6</ele>
        <time>2018-06-26T11:00:09Z</time>
      </trkpt>
      <trkpt lat="50.61052" lon="3.26329">
        <ele>-18.2</ele>
        <time>2018-06-26T11:00:13Z</time>
      </trkpt>
      <trkpt lat="50.61052" lon="3.26329">
        <ele>-18.2</ele>
        <time>2018-06-26T11:00:17Z</time>
      </trkpt>
      <trkpt lat="50.61052" lon="3.26329">
        <ele>-18.2</ele>
        <time>2018-06-26T11:00:21Z</time>
      </trkpt>
      <trkpt lat="50.61052" lon="3.26329">
        <ele>-18.4</ele>
        <time>2018-06-26T11:00:25Z</time>
      </trkpt>
      <trkpt lat="50.61052" lon="3.26329">
        <ele>-17.8</ele>
        <time>2018-06-26T11:00:29Z</time>
      </trkpt>
      <trkpt lat="50.61052" lon="3.26329">
        <ele>-17.6</ele>
        <time>2018-06-26T11:00:33Z</time>
      </trkpt>
      <trkpt lat="50.61052" lon="3.26329">
        <ele>-18</ele>
        <time>2018-06-26T11:00:37Z</time>
      </trkpt>
      <trkpt lat="50.61052" lon="3.26329">
        <ele>-18.4</ele>
        <time>2018-06-26T11:00:41Z</time>
      </trkpt>
      <trkpt lat="50.61052" lon="3.26329">
        <ele>-18.4</ele>
        <time>2018-06-26T11:00:45Z</time>
      </trkpt>
      <trkpt lat="50.61052" lon="3.26329">
        <ele>-17.8</ele>
        <time>2018-06-26T11:00:49Z</time>
      </trkpt>
      <trkpt lat="50.61052" lon="3.26329">
        <ele>-18.2</ele>
        <time>2018-06-26T11:00:53Z</time>
      </trkpt>
      <trkpt lat="50.61052" lon="3.26329">
        <ele>-18</ele>
        <time>2018-06-26T11:00:57Z</time>
      </trkpt>
      <trkpt lat="50.61052" lon="3.26329">
        <ele>-18.4</ele>
        <time>2018-06-26T11:01:01Z</time>
      </trkpt>
      <trkpt lat="50.61052" lon="3.26329">
        <ele>-18</ele>
        <time>2018-06-26T11:01:05Z</time>
      </trkpt>
      <trkpt lat="50.61052" lon="3.26329">
        <ele>-18.4</ele>
        <time>2018-06-26T11:01:09Z</time>
      </trkpt>
      <trkpt lat="50.61052" lon="3.26329">
        <ele>-18</ele>
        <time>2018-06-26T11:01:13Z</time>
      </trkpt>
      <trkpt lat="50.61052" lon="3.26329">
        <ele>-17.8</ele>
        <time>2018-06-26T11:01:17Z</time>
      </trkpt>
      <trkpt lat="50.61052" lon="3.26329">
        <ele>-17.8</ele>
        <time>2018-06-26T11:01:21Z</time>
      </trkpt>
      <trkpt lat="50.61052" lon="3.26329">
        <ele>-18</ele>
        <time>2018-06-26T11:01:25Z</time>
      </trkpt>
      <trkpt lat="50.61052" lon="3.26329">
        <ele>-18</ele>
        <time>2018-06-26T11:01:29Z</time>
      </trkpt>
      <trkpt lat="50.61052" lon="3.26329">
        <ele>-18.6</ele>
        <time>2018-06-26T11:01:33Z</time>
      </trkpt>
      <trkpt lat="50.61052" lon="3.26329">
        <ele>-18</ele>
        <time>2018-06-26T11:01:37Z</time>
      </trkpt>
      <trkpt lat="50.61052" lon="3.26329">
        <ele>-18.4</ele>
        <time>2018-06-26T11:01:41Z</time>
      </trkpt>
      <trkpt lat="50.61052" lon="3.26329">
        <ele>-17.6</ele>
        <time>2018-06-26T11:01:45Z</time>
      </trkpt>
      <trkpt lat="50.61052" lon="3.26329">
        <ele>-17.8</ele>
        <time>2018-06-26T11:01:49Z</time>
      </trkpt>
      <trkpt lat="50.61052" lon="3.26329">
        <ele>-18</ele>
        <time>2018-06-26T11:01:53Z</time>
      </trkpt>
      <trkpt lat="50.61052" lon="3.26329">
        <ele>-18</ele>
        <time>2018-06-26T11:01:57Z</time>
      </trkpt>
      <trkpt lat="50.61052" lon="3.26329">
        <ele>-18</ele>
        <time>2018-06-26T11:02:01Z</time>
      </trkpt>
      <trkpt lat="50.61052" lon="3.26329">
        <ele>-17.6</ele>
        <time>2018-06-26T11:02:05Z</time>
      </trkpt>
      <trkpt lat="50.61052" lon="3.26329">
        <ele>-17.8</ele>
        <time>2018-06-26T11:02:09Z</time>
      </trkpt>
      <trkpt lat="50.61052" lon="3.26329">
        <ele>-17.6</ele>
        <time>2018-06-26T11:02:13Z</time>
      </trkpt>
      <trkpt lat="50.61052" lon="3.26329">
        <ele>-18.4</ele>
        <time>2018-06-26T11:02:17Z</time>
      </trkpt>
      <trkpt lat="50.61052" lon="3.26329">
        <ele>-18</ele>
        <time>2018-06-26T11:02:21Z</time>
      </trkpt>
      <trkpt lat="50.61052" lon="3.26329">
        <ele>-17.8</ele>
        <time>2018-06-26T11:02:25Z</time>
      </trkpt>
      <trkpt lat="50.61052" lon="3.26329">
        <ele>-18</ele>
        <time>2018-06-26T11:02:29Z</time>
      </trkpt>
      <trkpt lat="50.61052" lon="3.26329">
        <ele>-18</ele>
        <time>2018-06-26T11:02:33Z</time>
      </trkpt>
      <trkpt lat="50.61052" lon="3.26329">
        <ele>-18.2</ele>
        <time>2018-06-26T11:02:37Z</time>
      </trkpt>
      <trkpt lat="50.61052" lon="3.26329">
        <ele>-18</ele>
        <time>2018-06-26T11:02:41Z</time>
      </trkpt>
      <trkpt lat="50.61052" lon="3.26329">
        <ele>-18</ele>
        <time>2018-06-26T11:02:45Z</time>
      </trkpt>
      <trkpt lat="50.61052" lon="3.26329">
        <ele>-17.8</ele>
        <time>2018-06-26T11:02:49Z</time>
      </trkpt>
      <trkpt lat="50.61052" lon="3.26329">
        <ele>-18.2</ele>
        <time>2018-06-26T11:02:53Z</time>
      </trkpt>
      <trkpt lat="50.61052" lon="3.26329">
        <ele>-17.8</ele>
        <time>2018-06-26T11:02:57Z</time>
      </trkpt>
      <trkpt lat="50.61052" lon="3.26329">
        <ele>-18.4</ele>
        <time>2018-06-26T11:03:01Z</time>
      </trkpt>
      <trkpt lat="50.61052" lon="3.26329">
        <ele>-18.2</ele>
        <time>2018-06-26T11:03:05Z</time>
      </trkpt>
      <trkpt lat="50.61052" lon="3.26329">
        <ele>-18</ele>
        <time>2018-06-26T11:03:09Z</time>
      </trkpt>
      <trkpt lat="50.61052" lon="3.26329">
        <ele>-18</ele>
        <time>2018-06-26T11:03:13Z</time>
      </trkpt>
      <trkpt lat="50.61052" lon="3.26329">
        <ele>-18</ele>
        <time>2018-06-26T11:03:17Z</time>
      </trkpt>
      <trkpt lat="50.61052" lon="3.26329">
        <ele>-18</ele>
        <time>2018-06-26T11:03:21Z</time>
      </trkpt>
      <trkpt lat="50.61052" lon="3.26329">
        <ele>-18.2</ele>
        <time>2018-06-26T11:03:25Z</time>
      </trkpt>
      <trkpt lat="50.61052" lon="3.26329">
        <ele>-18</ele>
        <time>2018-06-26T11:03:29Z</time>
      </trkpt>
      <trkpt lat="50.61052" lon="3.26329">
        <ele>-18</ele>
        <time>2018-06-26T11:03:33Z</time>
      </trkpt>
      <trkpt lat="50.61052" lon="3.26329">
        <ele>-18</ele>
        <time>2018-06-26T11:03:37Z</time>
      </trkpt>
      <trkpt lat="50.61052" lon="3.26329">
        <ele>-18.4</ele>
        <time>2018-06-26T11:03:41Z</time>
      </trkpt>
      <trkpt lat="50.61052" lon="3.26329">
        <ele>-18.4</ele>
        <time>2018-06-26T11:03:45Z</time>
      </trkpt>
      <trkpt lat="50.61052" lon="3.26329">
        <ele>-18.2</ele>
        <time>2018-06-26T11:03:49Z</time>
      </trkpt>
      <trkpt lat="50.61052" lon="3.26329">
        <ele>-18</ele>
        <time>2018-06-26T11:03:53Z</time>
      </trkpt>
      <trkpt lat="50.61052" lon="3.26329">
        <ele>-18.8</ele>
        <time>2018-06-26T11:03:57Z</time>
      </trkpt>
      <trkpt lat="50.61052" lon="3.26329">
        <ele>-17.4</ele>
        <time>2018-06-26T11:04:01Z</time>
      </trkpt>
      <trkpt lat="50.61052" lon="3.26329">
        <ele>-18.2</ele>
        <time>2018-06-26T11:04:05Z</time>
      </trkpt>
      <trkpt lat="50.61052" lon="3.26329">
        <ele>-18.6</ele>
        <time>2018-06-26T11:04:09Z</time>
      </trkpt>
      <trkpt lat="50.61052" lon="3.26329">
        <ele>-18.2</ele>
        <time>2018-06-26T11:04:13Z</time>
      </trkpt>
      <trkpt lat="50.61052" lon="3.26329">
        <ele>-18</ele>
        <time>2018-06-26T11:04:17Z</time>
      </trkpt>
      <trkpt lat="50.61052" lon="3.26329">
        <ele>-18</ele>
        <time>2018-06-26T11:04:21Z</time>
      </trkpt>
      <trkpt lat="50.61052" lon="3.26329">
        <ele>-18</ele>
        <time>2018-06-26T11:04:25Z</time>
      </trkpt>
      <trkpt lat="50.61052" lon="3.26329">
        <ele>-18</ele>
        <time>2018-06-26T11:04:29Z</time>
      </trkpt>
      <trkpt lat="50.61052" lon="3.26329">
        <ele>-18</ele>
        <time>2018-06-26T11:04:33Z</time>
      </trkpt>
      <trkpt lat="50.61052" lon="3.26329">
        <ele>-18.8</ele>
        <time>2018-06-26T11:04:37Z</time>
      </trkpt>
      <trkpt lat="50.61052" lon="3.26329">
        <ele>-18</ele>
        <time>2018-06-26T11:04:41Z</time>
      </trkpt>
      <trkpt lat="50.61052" lon="3.26329">
        <ele>-18.2</ele>
        <time>2018-06-26T11:04:45Z</time>
      </trkpt>
      <trkpt lat="50.61052" lon="3.26329">
        <ele>-18.4</ele>
        <time>2018-06-26T11:04:49Z</time>
      </trkpt>
      <trkpt lat="50.61052" lon="3.26329">
        <ele>-18</ele>
        <time>2018-06-26T11:04:53Z</time>
      </trkpt>
      <trkpt lat="50.61052" lon="3.26329">
        <ele>-18.4</ele>
        <time>2018-06-26T11:04:57Z</time>
      </trkpt>
      <trkpt lat="50.61052" lon="3.26329">
        <ele>-18.2</ele>
        <time>2018-06-26T11:05:01Z</time>
      </trkpt>
      <trkpt lat="50.61052" lon="3.26329">
        <ele>-18</ele>
        <time>2018-06-26T11:05:05Z</time>
      </trkpt>
      <trkpt lat="50.61052" lon="3.26329">
        <ele>-17.8</ele>
        <time>2018-06-26T11:05:09Z</time>
      </trkpt>
      <trkpt lat="50.61052" lon="3.26329">
        <ele>-17.6</ele>
        <time>2018-06-26T11:05:13Z</time>
      </trkpt>
      <trkpt lat="50.61052" lon="3.26329">
        <ele>-18</ele>
        <time>2018-06-26T11:05:17Z</time>
      </trkpt>
      <trkpt lat="50.61052" lon="3.26329">
        <ele>-18.2</ele>
        <time>2018-06-26T11:05:21Z</time>
      </trkpt>
      <trkpt lat="50.61052" lon="3.26329">
        <ele>-18.2</ele>
        <time>2018-06-26T11:05:25Z</time>
      </trkpt>
      <trkpt lat="50.61052" lon="3.26329">
        <ele>-18.6</ele>
        <time>2018-06-26T11:05:29Z</time>
      </trkpt>
      <trkpt lat="50.61052" lon="3.26329">
        <ele>-18.2</ele>
        <time>2018-06-26T11:05:33Z</time>
      </trkpt>
      <trkpt lat="50.61052" lon="3.26329">
        <ele>-18</ele>
        <time>2018-06-26T11:05:37Z</time>
      </trkpt>
      <trkpt lat="50.61052" lon="3.26329">
        <ele>-18</ele>
        <time>2018-06-26T11:05:41Z</time>
      </trkpt>
      <trkpt lat="50.61052" lon="3.26329">
        <ele>-18</ele>
        <time>2018-06-26T11:05:45Z</time>
      </trkpt>
      <trkpt lat="50.61052" lon="3.26329">
        <ele>-17.8</ele>
        <time>2018-06-26T11:05:49Z</time>
      </trkpt>
      <trkpt lat="50.61052" lon="3.26329">
        <ele>-18.4</ele>
        <time>2018-06-26T11:05:53Z</time>
      </trkpt>
      <trkpt lat="50.61052" lon="3.26329">
        <ele>-18.2</ele>
        <time>2018-06-26T11:05:57Z</time>
      </trkpt>
      <trkpt lat="50.61052" lon="3.26329">
        <ele>-17.8</ele>
        <time>2018-06-26T11:06:01Z</time>
      </trkpt>
      <trkpt lat="50.61052" lon="3.26329">
        <ele>-18</ele>
        <time>2018-06-26T11:06:05Z</time>
      </trkpt>
      <trkpt lat="50.61052" lon="3.26329">
        <ele>-18</ele>
        <time>2018-06-26T11:06:09Z</time>
      </trkpt>
      <trkpt lat="50.61052" lon="3.26329">
        <ele>-18.6</ele>
        <time>2018-06-26T11:06:13Z</time>
      </trkpt>
      <trkpt lat="50.61052" lon="3.26329">
        <ele>-18.2</ele>
        <time>2018-06-26T11:06:17Z</time>
      </trkpt>
      <trkpt lat="50.61052" lon="3.26329">
        <ele>-18.4</ele>
        <time>2018-06-26T11:06:21Z</time>
      </trkpt>
      <trkpt lat="50.61052" lon="3.26329">
        <ele>-18.2</ele>
        <time>2018-06-26T11:06:25Z</time>
      </trkpt>
      <trkpt lat="50.61052" lon="3.26329">
        <ele>-18.6</ele>
        <time>2018-06-26T11:06:29Z</time>
      </trkpt>
      <trkpt lat="50.61052" lon="3.26329">
        <ele>-18</ele>
        <time>2018-06-26T11:06:33Z</time>
      </trkpt>
      <trkpt lat="50.61052" lon="3.26329">
        <ele>-18.2</ele>
        <time>2018-06-26T11:06:37Z</time>
      </trkpt>
      <trkpt lat="50.61052" lon="3.26329">
        <ele>-18</ele>
        <time>2018-06-26T11:06:41Z</time>
      </trkpt>
      <trkpt lat="50.61052" lon="3.26329">
        <ele>-17.8</ele>
        <time>2018-06-26T11:06:45Z</time>
      </trkpt>
      <trkpt lat="50.61052" lon="3.26329">
        <ele>-18</ele>
        <time>2018-06-26T11:06:49Z</time>
      </trkpt>
      <trkpt lat="50.61052" lon="3.26329">
        <ele>-18.2</ele>
        <time>2018-06-26T11:06:53Z</time>
      </trkpt>
      <trkpt lat="50.61052" lon="3.26329">
        <ele>-18.4</ele>
        <time>2018-06-26T11:06:57Z</time>
      </trkpt>
      <trkpt lat="50.61052" lon="3.26329">
        <ele>-18.4</ele>
        <time>2018-06-26T11:07:01Z</time>
      </trkpt>
      <trkpt lat="50.61052" lon="3.26329">
        <ele>-18.4</ele>
        <time>2018-06-26T11:07:05Z</time>
      </trkpt>
      <trkpt lat="50.61052" lon="3.26329">
        <ele>-18.2</ele>
        <time>2018-06-26T11:07:09Z</time>
      </trkpt>
      <trkpt lat="50.61052" lon="3.26329">
        <ele>-18.2</ele>
        <time>2018-06-26T11:07:13Z</time>
      </trkpt>
      <trkpt lat="50.61052" lon="3.26329">
        <ele>-18.6</ele>
        <time>2018-06-26T11:07:17Z</time>
      </trkpt>
      <trkpt lat="50.61052" lon="3.26329">
        <ele>-18.2</ele>
        <time>2018-06-26T11:07:21Z</time>
      </trkpt>
      <trkpt lat="50.61052" lon="3.26329">
        <ele>-18.4</ele>
        <time>2018-06-26T11:07:25Z</time>
      </trkpt>
      <trkpt lat="50.61052" lon="3.26329">
        <ele>-18.2</ele>
        <time>2018-06-26T11:07:29Z</time>
      </trkpt>
      <trkpt lat="50.61052" lon="3.26329">
        <ele>-17.6</ele>
        <time>2018-06-26T11:07:33Z</time>
      </trkpt>
      <trkpt lat="50.61052" lon="3.26329">
        <ele>-18</ele>
        <time>2018-06-26T11:07:37Z</time>
      </trkpt>
      <trkpt lat="50.61052" lon="3.26329">
        <ele>-18.2</ele>
        <time>2018-06-26T11:07:41Z</time>
      </trkpt>
      <trkpt lat="50.61052" lon="3.26329">
        <ele>-18</ele>
        <time>2018-06-26T11:07:45Z</time>
      </trkpt>
      <trkpt lat="50.61052" lon="3.26329">
        <ele>-18</ele>
        <time>2018-06-26T11:07:49Z</time>
      </trkpt>
      <trkpt lat="50.61052" lon="3.26329">
        <ele>-18</ele>
        <time>2018-06-26T11:07:53Z</time>
      </trkpt>
      <trkpt lat="50.61052" lon="3.26329">
        <ele>-18.2</ele>
        <time>2018-06-26T11:07:57Z</time>
      </trkpt>
      <trkpt lat="50.61052" lon="3.26329">
        <ele>-18.2</ele>
        <time>2018-06-26T11:08:01Z</time>
      </trkpt>
      <trkpt lat="50.61052" lon="3.26329">
        <ele>-18</ele>
        <time>2018-06-26T11:08:05Z</time>
      </trkpt>
      <trkpt lat="50.61052" lon="3.26329">
        <ele>-18.4</ele>
        <time>2018-06-26T11:08:09Z</time>
      </trkpt>
      <trkpt lat="50.61052" lon="3.26329">
        <ele>-17.8</ele>
        <time>2018-06-26T11:08:13Z</time>
      </trkpt>
      <trkpt lat="50.61052" lon="3.26329">
        <ele>-17.8</ele>
        <time>2018-06-26T11:08:17Z</time>
      </trkpt>
      <trkpt lat="50.61052" lon="3.26329">
        <ele>-18.2</ele>
        <time>2018-06-26T11:08:21Z</time>
      </trkpt>
      <trkpt lat="50.61052" lon="3.26329">
        <ele>-18</ele>
        <time>2018-06-26T11:08:25Z</time>
      </trkpt>
      <trkpt lat="50.61052" lon="3.26329">
        <ele>-18</ele>
        <time>2018-06-26T11:08:29Z</time>
      </trkpt>
      <trkpt lat="50.61052" lon="3.26329">
        <ele>-18</ele>
        <time>2018-06-26T11:08:33Z</time>
      </trkpt>
      <trkpt lat="50.61052" lon="3.26329">
        <ele>-18.2</ele>
        <time>2018-06-26T11:08:37Z</time>
      </trkpt>
      <trkpt lat="50.61052" lon="3.26329">
        <ele>-18</ele>
        <time>2018-06-26T11:08:41Z</time>
      </trkpt>
      <trkpt lat="50.61052" lon="3.26329">
        <ele>-18.4</ele>
        <time>2018-06-26T11:08:45Z</time>
      </trkpt>
      <trkpt lat="50.61052" lon="3.26329">
        <ele>-18</ele>
        <time>2018-06-26T11:08:49Z</time>
      </trkpt>
      <trkpt lat="50.61052" lon="3.26329">
        <ele>-18</ele>
        <time>2018-06-26T11:08:53Z</time>
      </trkpt>
      <trkpt lat="50.61052" lon="3.26329">
        <ele>-18</ele>
        <time>2018-06-26T11:08:57Z</time>
      </trkpt>
      <trkpt lat="50.61052" lon="3.26329">
        <ele>-18.4</ele>
        <time>2018-06-26T11:09:01Z</time>
      </trkpt>
      <trkpt lat="50.61052" lon="3.26329">
        <ele>-18.2</ele>
        <time>2018-06-26T11:09:05Z</time>
      </trkpt>
      <trkpt lat="50.61052" lon="3.26329">
        <ele>-18.6</ele>
        <time>2018-06-26T11:09:09Z</time>
      </trkpt>
      <trkpt lat="50.61052" lon="3.26329">
        <ele>-18.4</ele>
        <time>2018-06-26T11:09:13Z</time>
      </trkpt>
      <trkpt lat="50.61052" lon="3.26329">
        <ele>-18.4</ele>
        <time>2018-06-26T11:09:17Z</time>
      </trkpt>
      <trkpt lat="50.61052" lon="3.26329">
        <ele>-18.4</ele>
        <time>2018-06-26T11:09:21Z</time>
      </trkpt>
      <trkpt lat="50.61052" lon="3.26329">
        <ele>-18</ele>
        <time>2018-06-26T11:09:25Z</time>
      </trkpt>
      <trkpt lat="50.61052" lon="3.26329">
        <ele>-18.4</ele>
        <time>2018-06-26T11:09:29Z</time>
      </trkpt>
      <trkpt lat="50.61052" lon="3.26329">
        <ele>-18.2</ele>
        <time>2018-06-26T11:09:33Z</time>
      </trkpt>
      <trkpt lat="50.61052" lon="3.26329">
        <ele>-18</ele>
        <time>2018-06-26T11:09:37Z</time>
      </trkpt>
      <trkpt lat="50.61052" lon="3.26329">
        <ele>-17.6</ele>
        <time>2018-06-26T11:09:41Z</time>
      </trkpt>
      <trkpt lat="50.61052" lon="3.26329">
        <ele>-18</ele>
        <time>2018-06-26T11:09:45Z</time>
      </trkpt>
      <trkpt lat="50.61052" lon="3.26329">
        <ele>-18.2</ele>
        <time>2018-06-26T11:09:49Z</time>
      </trkpt>
      <trkpt lat="50.61052" lon="3.26329">
        <ele>-18</ele>
        <time>2018-06-26T11:09:53Z</time>
      </trkpt>
      <trkpt lat="50.61052" lon="3.26329">
        <ele>-18.2</ele>
        <time>2018-06-26T11:09:57Z</time>
      </trkpt>
      <trkpt lat="50.61052" lon="3.26329">
        <ele>-17.8</ele>
        <time>2018-06-26T11:10:01Z</time>
      </trkpt>
      <trkpt lat="50.61052" lon="3.26329">
        <ele>-17.6</ele>
        <time>2018-06-26T11:10:05Z</time>
      </trkpt>
      <trkpt lat="50.61052" lon="3.26329">
        <ele>-17.6</ele>
        <time>2018-06-26T11:10:09Z</time>
      </trkpt>
      <trkpt lat="50.61052" lon="3.26329">
        <ele>-18</ele>
        <time>2018-06-26T11:10:13Z</time>
      </trkpt>
      <trkpt lat="50.61052" lon="3.26329">
        <ele>-18</ele>
        <time>2018-06-26T11:10:17Z</time>
      </trkpt>
      <trkpt lat="50.61052" lon="3.26329">
        <ele>-17.8</ele>
        <time>2018-06-26T11:10:21Z</time>
      </trkpt>
      <trkpt lat="50.61052" lon="3.26329">
        <ele>-18</ele>
        <time>2018-06-26T11:10:25Z</time>
      </trkpt>
      <trkpt lat="50.61052" lon="3.26329">
        <ele>-18</ele>
        <time>2018-06-26T11:10:29Z</time>
      </trkpt>
      <trkpt lat="50.61052" lon="3.26329">
        <ele>-18.2</ele>
        <time>2018-06-26T11:10:33Z</time>
      </trkpt>
      <trkpt lat="50.61052" lon="3.26329">
        <ele>-18.6</ele>
        <time>2018-06-26T11:10:37Z</time>
      </trkpt>
      <trkpt lat="50.61052" lon="3.26329">
        <ele>-18.4</ele>
        <time>2018-06-26T11:10:41Z</time>
      </trkpt>
      <trkpt lat="50.61052" lon="3.26329">
        <ele>-17.6</ele>
        <time>2018-06-26T11:10:45Z</time>
      </trkpt>
      <trkpt lat="50.61052" lon="3.26329">
        <ele>-17.8</ele>
        <time>2018-06-26T11:10:49Z</time>
      </trkpt>
      <trkpt lat="50.61052" lon="3.26329">
        <ele>-18</ele>
        <time>2018-06-26T11:10:53Z</time>
      </trkpt>
      <trkpt lat="50.61052" lon="3.26329">
        <ele>-17.8</ele>
        <time>2018-06-26T11:10:57Z</time>
      </trkpt>
      <trkpt lat="50.61052" lon="3.26329">
        <ele>-17.8</ele>
        <time>2018-06-26T11:11:01Z</time>
      </trkpt>
      <trkpt lat="50.61052" lon="3.26329">
        <ele>-17.6</ele>
        <time>2018-06-26T11:11:05Z</time>
      </trkpt>
      <trkpt lat="50.61052" lon="3.26329">
        <ele>-18</ele>
        <time>2018-06-26T11:11:09Z</time>
      </trkpt>
      <trkpt lat="50.61052" lon="3.26329">
        <ele>-18</ele>
        <time>2018-06-26T11:11:13Z</time>
      </trkpt>
      <trkpt lat="50.61052" lon="3.26329">
        <ele>-18</ele>
        <time>2018-06-26T11:11:17Z</time>
      </trkpt>
      <trkpt lat="50.61052" lon="3.26329">
        <ele>-17.8</ele>
        <time>2018-06-26T11:11:21Z</time>
      </trkpt>
      <trkpt lat="50.61052" lon="3.26329">
        <ele>-17.6</ele>
        <time>2018-06-26T11:11:25Z</time>
      </trkpt>
      <trkpt lat="50.61052" lon="3.26329">
        <ele>-17.4</ele>
        <time>2018-06-26T11:11:29Z</time>
      </trkpt>
      <trkpt lat="50.61052" lon="3.26329">
        <ele>-18.2</ele>
        <time>2018-06-26T11:11:33Z</time>
      </trkpt>
      <trkpt lat="50.61052" lon="3.26329">
        <ele>-18.2</ele>
        <time>2018-06-26T11:11:37Z</time>
      </trkpt>
      <trkpt lat="50.61052" lon="3.26329">
        <ele>-17.6</ele>
        <time>2018-06-26T11:11:41Z</time>
      </trkpt>
      <trkpt lat="50.61052" lon="3.26329">
        <ele>-18</ele>
        <time>2018-06-26T11:11:45Z</time>
      </trkpt>
      <trkpt lat="50.61052" lon="3.26329">
        <ele>-18</ele>
        <time>2018-06-26T11:11:49Z</time>
      </trkpt>
      <trkpt lat="50.61052" lon="3.26329">
        <ele>-17.8</ele>
        <time>2018-06-26T11:11:53Z</time>
      </trkpt>
      <trkpt lat="50.61052" lon="3.26329">
        <ele>-17.6</ele>
        <time>2018-06-26T11:11:57Z</time>
      </trkpt>
      <trkpt lat="50.61052" lon="3.26329">
        <ele>-18.4</ele>
        <time>2018-06-26T11:12:01Z</time>
      </trkpt>
      <trkpt lat="50.61052" lon="3.26329">
        <ele>-18</ele>
        <time>2018-06-26T11:12:05Z</time>
      </trkpt>
      <trkpt lat="50.61052" lon="3.26329">
        <ele>-18</ele>
        <time>2018-06-26T11:12:09Z</time>
      </trkpt>
      <trkpt lat="50.61052" lon="3.26329">
        <ele>-17.6</ele>
        <time>2018-06-26T11:12:13Z</time>
      </trkpt>
      <trkpt lat="50.61052" lon="3.26329">
        <ele>-17.8</ele>
        <time>2018-06-26T11:12:17Z</time>
      </trkpt>
      <trkpt lat="50.61052" lon="3.26329">
        <ele>-17.8</ele>
        <time>2018-06-26T11:12:21Z</time>
      </trkpt>
      <trkpt lat="50.61052" lon="3.26329">
        <ele>-17.6</ele>
        <time>2018-06-26T11:12:25Z</time>
      </trkpt>
      <trkpt lat="50.61052" lon="3.26329">
        <ele>-17.6</ele>
        <time>2018-06-26T11:12:29Z</time>
      </trkpt>
      <trkpt lat="50.61052" lon="3.26329">
        <ele>-17.8</ele>
        <time>2018-06-26T11:12:33Z</time>
      </trkpt>
      <trkpt lat="50.61052" lon="3.26329">
        <ele>-17.6</ele>
        <time>2018-06-26T11:12:37Z</time>
      </trkpt>
      <trkpt lat="50.61052" lon="3.26329">
        <ele>-17.6</ele>
        <time>2018-06-26T11:12:41Z</time>
      </trkpt>
      <trkpt lat="50.61052" lon="3.26329">
        <ele>-17.6</ele>
        <time>2018-06-26T11:12:45Z</time>
      </trkpt>
      <trkpt lat="50.61052" lon="3.26329">
        <ele>-17.8</ele>
        <time>2018-06-26T11:12:49Z</time>
      </trkpt>
      <trkpt lat="50.61052" lon="3.26329">
        <ele>-17.8</ele>
        <time>2018-06-26T11:12:53Z</time>
      </trkpt>
      <trkpt lat="50.61052" lon="3.26329">
        <ele>-17.8</ele>
        <time>2018-06-26T11:12:57Z</time>
      </trkpt>
      <trkpt lat="50.61052" lon="3.26329">
        <ele>-17.8</ele>
        <time>2018-06-26T11:13:01Z</time>
      </trkpt>
      <trkpt lat="50.61052" lon="3.26329">
        <ele>-17.8</ele>
        <time>2018-06-26T11:13:05Z</time>
      </trkpt>
      <trkpt lat="50.61052" lon="3.26329">
        <ele>-17.8</ele>
        <time>2018-06-26T11:13:09Z</time>
      </trkpt>
      <trkpt lat="50.61052" lon="3.26329">
        <ele>-18</ele>
        <time>2018-06-26T11:13:13Z</time>
      </trkpt>
      <trkpt lat="50.61052" lon="3.26329">
        <ele>-17.6</ele>
        <time>2018-06-26T11:13:17Z</time>
      </trkpt>
      <trkpt lat="50.61052" lon="3.26329">
        <ele>-17.8</ele>
        <time>2018-06-26T11:13:21Z</time>
      </trkpt>
      <trkpt lat="50.61052" lon="3.26329">
        <ele>-18</ele>
        <time>2018-06-26T11:13:25Z</time>
      </trkpt>
      <trkpt lat="50.61052" lon="3.26329">
        <ele>-17.8</ele>
        <time>2018-06-26T11:13:29Z</time>
      </trkpt>
      <trkpt lat="50.61052" lon="3.26329">
        <ele>-18</ele>
        <time>2018-06-26T11:13:33Z</time>
      </trkpt>
      <trkpt lat="50.61052" lon="3.26329">
        <ele>-17.6</ele>
        <time>2018-06-26T11:13:37Z</time>
      </trkpt>
      <trkpt lat="50.61052" lon="3.26329">
        <ele>-17.8</ele>
        <time>2018-06-26T11:13:41Z</time>
      </trkpt>
      <trkpt lat="50.61052" lon="3.26329">
        <ele>-18.2</ele>
        <time>2018-06-26T11:13:45Z</time>
      </trkpt>
      <trkpt lat="50.61052" lon="3.26329">
        <ele>-18.2</ele>
        <time>2018-06-26T11:13:49Z</time>
      </trkpt>
      <trkpt lat="50.61052" lon="3.26329">
        <ele>-18.2</ele>
        <time>2018-06-26T11:13:53Z</time>
      </trkpt>
      <trkpt lat="50.61052" lon="3.26329">
        <ele>-17.8</ele>
        <time>2018-06-26T11:13:57Z</time>
      </trkpt>
      <trkpt lat="50.61052" lon="3.26329">
        <ele>-17.8</ele>
        <time>2018-06-26T11:14:01Z</time>
      </trkpt>
      <trkpt lat="50.61052" lon="3.26329">
        <ele>-17.8</ele>
        <time>2018-06-26T11:14:05Z</time>
      </trkpt>
      <trkpt lat="50.61052" lon="3.26329">
        <ele>-18.2</ele>
        <time>2018-06-26T11:14:09Z</time>
      </trkpt>
      <trkpt lat="50.61052" lon="3.26329">
        <ele>-17.4</ele>
        <time>2018-06-26T11:14:13Z</time>
      </trkpt>
      <trkpt lat="50.61052" lon="3.26329">
        <ele>-18</ele>
        <time>2018-06-26T11:14:17Z</time>
      </trkpt>
      <trkpt lat="50.61052" lon="3.26329">
        <ele>-18</ele>
        <time>2018-06-26T11:14:21Z</time>
      </trkpt>
      <trkpt lat="50.61052" lon="3.26329">
        <ele>-17.8</ele>
        <time>2018-06-26T11:14:25Z</time>
      </trkpt>
      <trkpt lat="50.61052" lon="3.26329">
        <ele>-18</ele>
        <time>2018-06-26T11:14:29Z</time>
      </trkpt>
      <trkpt lat="50.61052" lon="3.26329">
        <ele>-17.6</ele>
        <time>2018-06-26T11:14:33Z</time>
      </trkpt>
      <trkpt lat="50.61052" lon="3.26329">
        <ele>-18</ele>
        <time>2018-06-26T11:14:37Z</time>
      </trkpt>
      <trkpt lat="50.61052" lon="3.26329">
        <ele>-18.4</ele>
        <time>2018-06-26T11:14:41Z</time>
      </trkpt>
      <trkpt lat="50.61052" lon="3.26329">
        <ele>-18</ele>
        <time>2018-06-26T11:14:45Z</time>
      </trkpt>
      <trkpt lat="50.61052" lon="3.26329">
        <ele>-17.8</ele>
        <time>2018-06-26T11:14:49Z</time>
      </trkpt>
      <trkpt lat="50.61052" lon="3.26329">
        <ele>-18</ele>
        <time>2018-06-26T11:14:53Z</time>
      </trkpt>
      <trkpt lat="50.61052" lon="3.26329">
        <ele>-17.4</ele>
        <time>2018-06-26T11:14:57Z</time>
      </trkpt>
      <trkpt lat="50.61052" lon="3.26329">
        <ele>-17.2</ele>
        <time>2018-06-26T11:15:01Z</time>
      </trkpt>
      <trkpt lat="50.61052" lon="3.26329">
        <ele>-17.6</ele>
        <time>2018-06-26T11:15:05Z</time>
      </trkpt>
      <trkpt lat="50.61052" lon="3.26329">
        <ele>-18</ele>
        <time>2018-06-26T11:15:09Z</time>
      </trkpt>
      <trkpt lat="50.61052" lon="3.26329">
        <ele>-18</ele>
        <time>2018-06-26T11:15:13Z</time>
      </trkpt>
      <trkpt lat="50.61052" lon="3.26329">
        <ele>-17.6</ele>
        <time>2018-06-26T11:15:17Z</time>
      </trkpt>
      <trkpt lat="50.61052" lon="3.26329">
        <ele>-18.2</ele>
        <time>2018-06-26T11:15:21Z</time>
      </trkpt>
      <trkpt lat="50.61052" lon="3.26329">
        <ele>-18.2</ele>
        <time>2018-06-26T11:15:25Z</time>
      </trkpt>
      <trkpt lat="50.61052" lon="3.26329">
        <ele>-17.6</ele>
        <time>2018-06-26T11:15:29Z</time>
      </trkpt>
      <trkpt lat="50.61052" lon="3.26329">
        <ele>-18</ele>
        <time>2018-06-26T11:15:33Z</time>
      </trkpt>
      <trkpt lat="50.61052" lon="3.26329">
        <ele>-18</ele>
        <time>2018-06-26T11:15:37Z</time>
      </trkpt>
      <trkpt lat="50.61052" lon="3.26329">
        <ele>-17.6</ele>
        <time>2018-06-26T11:15:41Z</time>
      </trkpt>
      <trkpt lat="50.61052" lon="3.26329">
        <ele>-18</ele>
        <time>2018-06-26T11:15:45Z</time>
      </trkpt>
      <trkpt lat="50.61052" lon="3.26329">
        <ele>-18</ele>
        <time>2018-06-26T11:15:49Z</time>
      </trkpt>
      <trkpt lat="50.61052" lon="3.26329">
        <ele>-18.2</ele>
        <time>2018-06-26T11:15:53Z</time>
      </trkpt>
      <trkpt lat="50.61052" lon="3.26329">
        <ele>-18.2</ele>
        <time>2018-06-26T11:15:57Z</time>
      </trkpt>
      <trkpt lat="50.61052" lon="3.26329">
        <ele>-18</ele>
        <time>2018-06-26T11:16:01Z</time>
      </trkpt>
      <trkpt lat="50.61052" lon="3.26329">
        <ele>-17.8</ele>
        <time>2018-06-26T11:16:05Z</time>
      </trkpt>
      <trkpt lat="50.61052" lon="3.26329">
        <ele>-18</ele>
        <time>2018-06-26T11:16:09Z</time>
      </trkpt>
      <trkpt lat="50.61052" lon="3.26329">
        <ele>-18</ele>
        <time>2018-06-26T11:16:13Z</time>
      </trkpt>
      <trkpt lat="50.61052" lon="3.26329">
        <ele>-18</ele>
        <time>2018-06-26T11:16:17Z</time>
      </trkpt>
      <trkpt lat="50.61052" lon="3.26329">
        <ele>-17.6</ele>
        <time>2018-06-26T11:16:21Z</time>
      </trkpt>
      <trkpt lat="50.61052" lon="3.26329">
        <ele>-18</ele>
        <time>2018-06-26T11:16:25Z</time>
      </trkpt>
      <trkpt lat="50.61052" lon="3.26329">
        <ele>-17.6</ele>
        <time>2018-06-26T11:16:29Z</time>
      </trkpt>
      <trkpt lat="50.61052" lon="3.26329">
        <ele>-17.6</ele>
        <time>2018-06-26T11:16:33Z</time>
      </trkpt>
      <trkpt lat="50.61052" lon="3.26329">
        <ele>-18</ele>
        <time>2018-06-26T11:16:37Z</time>
      </trkpt>
      <trkpt lat="50.61052" lon="3.26329">
        <ele>-18</ele>
        <time>2018-06-26T11:16:41Z</time>
      </trkpt>
      <trkpt lat="50.61052" lon="3.26329">
        <ele>-18.2</ele>
        <time>2018-06-26T11:16:45Z</time>
      </trkpt>
      <trkpt lat="50.61052" lon="3.26329">
        <ele>-18</ele>
        <time>2018-06-26T11:16:49Z</time>
      </trkpt>
      <trkpt lat="50.61052" lon="3.26329">
        <ele>-18</ele>
        <time>2018-06-26T11:16:53Z</time>
      </trkpt>
      <trkpt lat="50.61052" lon="3.26329">
        <ele>-17.8</ele>
        <time>2018-06-26T11:16:57Z</time>
      </trkpt>
      <trkpt lat="50.61052" lon="3.26329">
        <ele>-18</ele>
        <time>2018-06-26T11:17:01Z</time>
      </trkpt>
      <trkpt lat="50.61052" lon="3.26329">
        <ele>-18</ele>
        <time>2018-06-26T11:17:05Z</time>
      </trkpt>
      <trkpt lat="50.61052" lon="3.26329">
        <ele>-17.8</ele>
        <time>2018-06-26T11:17:09Z</time>
      </trkpt>
      <trkpt lat="50.61052" lon="3.26329">
        <ele>-17.8</ele>
        <time>2018-06-26T11:17:13Z</time>
      </trkpt>
      <trkpt lat="50.61052" lon="3.26329">
        <ele>-17.6</ele>
        <time>2018-06-26T11:17:17Z</time>
      </trkpt>
      <trkpt lat="50.61052" lon="3.26329">
        <ele>-17.8</ele>
        <time>2018-06-26T11:17:21Z</time>
      </trkpt>
      <trkpt lat="50.61052" lon="3.26329">
        <ele>-17.8</ele>
        <time>2018-06-26T11:17:25Z</time>
      </trkpt>
      <trkpt lat="50.61052" lon="3.26329">
        <ele>-18</ele>
        <time>2018-06-26T11:17:29Z</time>
      </trkpt>
      <trkpt lat="50.61052" lon="3.26329">
        <ele>-18</ele>
        <time>2018-06-26T11:17:33Z</time>
      </trkpt>
      <trkpt lat="50.61052" lon="3.26329">
        <ele>-18</ele>
        <time>2018-06-26T11:17:37Z</time>
      </trkpt>
      <trkpt lat="50.61052" lon="3.26329">
        <ele>-18</ele>
        <time>2018-06-26T11:17:41Z</time>
      </trkpt>
      <trkpt lat="50.61052" lon="3.26329">
        <ele>-18.2</ele>
        <time>2018-06-26T11:17:45Z</time>
      </trkpt>
      <trkpt lat="50.61052" lon="3.26329">
        <ele>-18.2</ele>
        <time>2018-06-26T11:17:49Z</time>
      </trkpt>
      <trkpt lat="50.61052" lon="3.26329">
        <ele>-18</ele>
        <time>2018-06-26T11:17:53Z</time>
      </trkpt>
      <trkpt lat="50.61052" lon="3.26329">
        <ele>-18</ele>
        <time>2018-06-26T11:17:57Z</time>
      </trkpt>
      <trkpt lat="50.61052" lon="3.26329">
        <ele>-17.8</ele>
        <time>2018-06-26T11:18:01Z</time>
      </trkpt>
      <trkpt lat="50.61052" lon="3.26329">
        <ele>-17.8</ele>
        <time>2018-06-26T11:18:05Z</time>
      </trkpt>
      <trkpt lat="50.61052" lon="3.26329">
        <ele>-17.2</ele>
        <time>2018-06-26T11:18:09Z</time>
      </trkpt>
      <trkpt lat="50.61052" lon="3.26329">
        <ele>-17.8</ele>
        <time>2018-06-26T11:18:13Z</time>
      </trkpt>
      <trkpt lat="50.61052" lon="3.26329">
        <ele>-17.6</ele>
        <time>2018-06-26T11:18:17Z</time>
      </trkpt>
      <trkpt lat="50.61052" lon="3.26329">
        <ele>-17.8</ele>
        <time>2018-06-26T11:18:21Z</time>
      </trkpt>
      <trkpt lat="50.61052" lon="3.26329">
        <ele>-17.8</ele>
        <time>2018-06-26T11:18:25Z</time>
      </trkpt>
      <trkpt lat="50.61052" lon="3.26329">
        <ele>-17.6</ele>
        <time>2018-06-26T11:18:29Z</time>
      </trkpt>
      <trkpt lat="50.61052" lon="3.26329">
        <ele>-17.6</ele>
        <time>2018-06-26T11:18:33Z</time>
      </trkpt>
      <trkpt lat="50.61052" lon="3.26329">
        <ele>-17.6</ele>
        <time>2018-06-26T11:18:37Z</time>
      </trkpt>
      <trkpt lat="50.61052" lon="3.26329">
        <ele>-17.6</ele>
        <time>2018-06-26T11:18:41Z</time>
      </trkpt>
      <trkpt lat="50.61052" lon="3.26329">
        <ele>-17.8</ele>
        <time>2018-06-26T11:18:45Z</time>
      </trkpt>
      <trkpt lat="50.61052" lon="3.26329">
        <ele>-18</ele>
        <time>2018-06-26T11:18:49Z</time>
      </trkpt>
      <trkpt lat="50.61052" lon="3.26329">
        <ele>-17.6</ele>
        <time>2018-06-26T11:18:53Z</time>
      </trkpt>
      <trkpt lat="50.61052" lon="3.26329">
        <ele>-17.6</ele>
        <time>2018-06-26T11:18:57Z</time>
      </trkpt>
      <trkpt lat="50.61052" lon="3.26329">
        <ele>-18</ele>
        <time>2018-06-26T11:19:01Z</time>
      </trkpt>
      <trkpt lat="50.61052" lon="3.26329">
        <ele>-18</ele>
        <time>2018-06-26T11:19:05Z</time>
      </trkpt>
      <trkpt lat="50.61052" lon="3.26329">
        <ele>-18</ele>
        <time>2018-06-26T11:19:09Z</time>
      </trkpt>
      <trkpt lat="50.61052" lon="3.26329">
        <ele>-17.6</ele>
        <time>2018-06-26T11:19:13Z</time>
      </trkpt>
      <trkpt lat="50.61052" lon="3.26329">
        <ele>-18</ele>
        <time>2018-06-26T11:19:17Z</time>
      </trkpt>
      <trkpt lat="50.61052" lon="3.26329">
        <ele>-17.6</ele>
        <time>2018-06-26T11:19:21Z</time>
      </trkpt>
      <trkpt lat="50.61052" lon="3.26329">
        <ele>-17.6</ele>
        <time>2018-06-26T11:19:25Z</time>
      </trkpt>
      <trkpt lat="50.61052" lon="3.26329">
        <ele>-17.6</ele>
        <time>2018-06-26T11:19:29Z</time>
      </trkpt>
      <trkpt lat="50.61052" lon="3.26329">
        <ele>-17.8</ele>
        <time>2018-06-26T11:19:33Z</time>
      </trkpt>
      <trkpt lat="50.61052" lon="3.26329">
        <ele>-17.6</ele>
        <time>2018-06-26T11:19:37Z</time>
      </trkpt>
      <trkpt lat="50.61052" lon="3.26329">
        <ele>-17.6</ele>
        <time>2018-06-26T11:19:41Z</time>
      </trkpt>
      <trkpt lat="50.61052" lon="3.26329">
        <ele>-17.6</ele>
        <time>2018-06-26T11:19:45Z</time>
      </trkpt>
      <trkpt lat="50.61052" lon="3.26329">
        <ele>-17.6</ele>
        <time>2018-06-26T11:19:49Z</time>
      </trkpt>
      <trkpt lat="50.61052" lon="3.26329">
        <ele>-18</ele>
        <time>2018-06-26T11:19:53Z</time>
      </trkpt>
      <trkpt lat="50.61052" lon="3.26329">
        <ele>-17.6</ele>
        <time>2018-06-26T11:19:57Z</time>
      </trkpt>
      <trkpt lat="50.61052" lon="3.26329">
        <ele>-17.8</ele>
        <time>2018-06-26T11:20:01Z</time>
      </trkpt>
      <trkpt lat="50.61052" lon="3.26329">
        <ele>-18</ele>
        <time>2018-06-26T11:20:05Z</time>
      </trkpt>
      <trkpt lat="50.61052" lon="3.26329">
        <ele>-17.8</ele>
        <time>2018-06-26T11:20:09Z</time>
      </trkpt>
      <trkpt lat="50.61052" lon="3.26329">
        <ele>-18</ele>
        <time>2018-06-26T11:20:13Z</time>
      </trkpt>
      <trkpt lat="50.61052" lon="3.26329">
        <ele>-18</ele>
        <time>2018-06-26T11:20:17Z</time>
      </trkpt>
      <trkpt lat="50.61052" lon="3.26329">
        <ele>-18.2</ele>
        <time>2018-06-26T11:20:21Z</time>
      </trkpt>
      <trkpt lat="50.61052" lon="3.26329">
        <ele>-17.6</ele>
        <time>2018-06-26T11:20:25Z</time>
      </trkpt>
      <trkpt lat="50.61052" lon="3.26329">
        <ele>-18</ele>
        <time>2018-06-26T11:20:29Z</time>
      </trkpt>
      <trkpt lat="50.61052" lon="3.26329">
        <ele>-17.8</ele>
        <time>2018-06-26T11:20:33Z</time>
      </trkpt>
      <trkpt lat="50.61052" lon="3.26329">
        <ele>-17.6</ele>
        <time>2018-06-26T11:20:37Z</time>
      </trkpt>
      <trkpt lat="50.61052" lon="3.26329">
        <ele>-18.2</ele>
        <time>2018-06-26T11:20:41Z</time>
      </trkpt>
      <trkpt lat="50.61052" lon="3.26329">
        <ele>-18</ele>
        <time>2018-06-26T11:20:45Z</time>
      </trkpt>
      <trkpt lat="50.61052" lon="3.26329">
        <ele>-18.2</ele>
        <time>2018-06-26T11:20:49Z</time>
      </trkpt>
      <trkpt lat="50.61052" lon="3.26329">
        <ele>-18</ele>
        <time>2018-06-26T11:20:53Z</time>
      </trkpt>
      <trkpt lat="50.61052" lon="3.26329">
        <ele>-18.2</ele>
        <time>2018-06-26T11:20:57Z</time>
      </trkpt>
      <trkpt lat="50.61052" lon="3.26329">
        <ele>-18</ele>
        <time>2018-06-26T11:21:01Z</time>
      </trkpt>
      <trkpt lat="50.61052" lon="3.26329">
        <ele>-18</ele>
        <time>2018-06-26T11:21:05Z</time>
      </trkpt>
      <trkpt lat="50.61052" lon="3.26329">
        <ele>-17.8</ele>
        <time>2018-06-26T11:21:09Z</time>
      </trkpt>
      <trkpt lat="50.61052" lon="3.26329">
        <ele>-17.8</ele>
        <time>2018-06-26T11:21:13Z</time>
      </trkpt>
      <trkpt lat="50.61052" lon="3.26329">
        <ele>-18</ele>
        <time>2018-06-26T11:21:17Z</time>
      </trkpt>
      <trkpt lat="50.61052" lon="3.26329">
        <ele>-17.6</ele>
        <time>2018-06-26T11:21:21Z</time>
      </trkpt>
      <trkpt lat="50.61052" lon="3.26329">
        <ele>-18</ele>
        <time>2018-06-26T11:21:25Z</time>
      </trkpt>
      <trkpt lat="50.61052" lon="3.26329">
        <ele>-17.8</ele>
        <time>2018-06-26T11:21:29Z</time>
      </trkpt>
      <trkpt lat="50.61052" lon="3.26329">
        <ele>-17.8</ele>
        <time>2018-06-26T11:21:33Z</time>
      </trkpt>
      <trkpt lat="50.61052" lon="3.26329">
        <ele>-17.6</ele>
        <time>2018-06-26T11:21:37Z</time>
      </trkpt>
      <trkpt lat="50.61052" lon="3.26329">
        <ele>-17.6</ele>
        <time>2018-06-26T11:21:41Z</time>
      </trkpt>
      <trkpt lat="50.61052" lon="3.26329">
        <ele>-17.8</ele>
        <time>2018-06-26T11:21:45Z</time>
      </trkpt>
      <trkpt lat="50.61052" lon="3.26329">
        <ele>-17.4</ele>
        <time>2018-06-26T11:21:49Z</time>
      </trkpt>
      <trkpt lat="50.61052" lon="3.26329">
        <ele>-17.8</ele>
        <time>2018-06-26T11:21:53Z</time>
      </trkpt>
      <trkpt lat="50.61052" lon="3.26329">
        <ele>-17.8</ele>
        <time>2018-06-26T11:21:57Z</time>
      </trkpt>
      <trkpt lat="50.61052" lon="3.26329">
        <ele>-18</ele>
        <time>2018-06-26T11:22:01Z</time>
      </trkpt>
      <trkpt lat="50.61052" lon="3.26329">
        <ele>-17.8</ele>
        <time>2018-06-26T11:22:05Z</time>
      </trkpt>
      <trkpt lat="50.61052" lon="3.26329">
        <ele>-17.8</ele>
        <time>2018-06-26T11:22:09Z</time>
      </trkpt>
      <trkpt lat="50.61052" lon="3.26329">
        <ele>-17.6</ele>
        <time>2018-06-26T11:22:13Z</time>
      </trkpt>
      <trkpt lat="50.61052" lon="3.26329">
        <ele>-18</ele>
        <time>2018-06-26T11:22:17Z</time>
      </trkpt>
      <trkpt lat="50.61052" lon="3.26329">
        <ele>-18</ele>
        <time>2018-06-26T11:22:21Z</time>
      </trkpt>
      <trkpt lat="50.61052" lon="3.26329">
        <ele>-17.6</ele>
        <time>2018-06-26T11:22:25Z</time>
      </trkpt>
      <trkpt lat="50.61052" lon="3.26329">
        <ele>-17.8</ele>
        <time>2018-06-26T11:22:29Z</time>
      </trkpt>
      <trkpt lat="50.61052" lon="3.26329">
        <ele>-18</ele>
        <time>2018-06-26T11:22:33Z</time>
      </trkpt>
      <trkpt lat="50.61052" lon="3.26329">
        <ele>-17.8</ele>
        <time>2018-06-26T11:22:37Z</time>
      </trkpt>
      <trkpt lat="50.61052" lon="3.26329">
        <ele>-17.6</ele>
        <time>2018-06-26T11:22:41Z</time>
      </trkpt>
      <trkpt lat="50.61052" lon="3.26329">
        <ele>-18</ele>
        <time>2018-06-26T11:22:45Z</time>
      </trkpt>
      <trkpt lat="50.61052" lon="3.26329">
        <ele>-17.6</ele>
        <time>2018-06-26T11:22:49Z</time>
      </trkpt>
      <trkpt lat="50.61052" lon="3.26329">
        <ele>-17.6</ele>
        <time>2018-06-26T11:22:53Z</time>
      </trkpt>
      <trkpt lat="50.61052" lon="3.26329">
        <ele>-17.6</ele>
        <time>2018-06-26T11:22:57Z</time>
      </trkpt>
      <trkpt lat="50.61052" lon="3.26329">
        <ele>-17.6</ele>
        <time>2018-06-26T11:23:01Z</time>
      </trkpt>
      <trkpt lat="50.61052" lon="3.26329">
        <ele>-17.6</ele>
        <time>2018-06-26T11:23:05Z</time>
      </trkpt>
      <trkpt lat="50.61052" lon="3.26329">
        <ele>-17.2</ele>
        <time>2018-06-26T11:23:09Z</time>
      </trkpt>
      <trkpt lat="50.61052" lon="3.26329">
        <ele>-17.8</ele>
        <time>2018-06-26T11:23:13Z</time>
      </trkpt>
      <trkpt lat="50.61052" lon="3.26329">
        <ele>-17.4</ele>
        <time>2018-06-26T11:23:17Z</time>
      </trkpt>
      <trkpt lat="50.61052" lon="3.26329">
        <ele>-17.4</ele>
        <time>2018-06-26T11:23:21Z</time>
      </trkpt>
      <trkpt lat="50.61052" lon="3.26329">
        <ele>-17.6</ele>
        <time>2018-06-26T11:23:25Z</time>
      </trkpt>
      <trkpt lat="50.61052" lon="3.26329">
        <ele>-18</ele>
        <time>2018-06-26T11:23:29Z</time>
      </trkpt>
      <trkpt lat="50.61052" lon="3.26329">
        <ele>-17.4</ele>
        <time>2018-06-26T11:23:33Z</time>
      </trkpt>
      <trkpt lat="50.61052" lon="3.26329">
        <ele>-17.8</ele>
        <time>2018-06-26T11:23:37Z</time>
      </trkpt>
      <trkpt lat="50.61052" lon="3.26329">
        <ele>-17.6</ele>
        <time>2018-06-26T11:23:41Z</time>
      </trkpt>
      <trkpt lat="50.61052" lon="3.26329">
        <ele>-17.2</ele>
        <time>2018-06-26T11:23:45Z</time>
      </trkpt>
      <trkpt lat="50.61052" lon="3.26329">
        <ele>-17.4</ele>
        <time>2018-06-26T11:23:49Z</time>
      </trkpt>
      <trkpt lat="50.61052" lon="3.26329">
        <ele>-17.4</ele>
        <time>2018-06-26T11:23:53Z</time>
      </trkpt>
      <trkpt lat="50.61052" lon="3.26329">
        <ele>-17.4</ele>
        <time>2018-06-26T11:23:57Z</time>
      </trkpt>
      <trkpt lat="50.61052" lon="3.26329">
        <ele>-17.6</ele>
        <time>2018-06-26T11:24:01Z</time>
      </trkpt>
      <trkpt lat="50.61052" lon="3.26329">
        <ele>-17.6</ele>
        <time>2018-06-26T11:24:05Z</time>
      </trkpt>
      <trkpt lat="50.61052" lon="3.26329">
        <ele>-17.4</ele>
        <time>2018-06-26T11:24:09Z</time>
      </trkpt>
      <trkpt lat="50.61052" lon="3.26329">
        <ele>-17.8</ele>
        <time>2018-06-26T11:24:13Z</time>
      </trkpt>
      <trkpt lat="50.61052" lon="3.26329">
        <ele>-17.4</ele>
        <time>2018-06-26T11:24:17Z</time>
      </trkpt>
      <trkpt lat="50.61052" lon="3.26329">
        <ele>-17.6</ele>
        <time>2018-06-26T11:24:21Z</time>
      </trkpt>
      <trkpt lat="50.61052" lon="3.26329">
        <ele>-17.2</ele>
        <time>2018-06-26T11:24:25Z</time>
      </trkpt>
      <trkpt lat="50.61052" lon="3.26329">
        <ele>-17.6</ele>
        <time>2018-06-26T11:24:29Z</time>
      </trkpt>
      <trkpt lat="50.61052" lon="3.26329">
        <ele>-17.6</ele>
        <time>2018-06-26T11:24:33Z</time>
      </trkpt>
      <trkpt lat="50.61052" lon="3.26329">
        <ele>-17.4</ele>
        <time>2018-06-26T11:24:37Z</time>
      </trkpt>
      <trkpt lat="50.61052" lon="3.26329">
        <ele>-18</ele>
        <time>2018-06-26T11:24:41Z</time>
      </trkpt>
      <trkpt lat="50.61052" lon="3.26329">
        <ele>-17.6</ele>
        <time>2018-06-26T11:24:45Z</time>
      </trkpt>
      <trkpt lat="50.61052" lon="3.26329">
        <ele>-18</ele>
        <time>2018-06-26T11:24:49Z</time>
      </trkpt>
      <trkpt lat="50.61052" lon="3.26329">
        <ele>-17.8</ele>
        <time>2018-06-26T11:24:53Z</time>
      </trkpt>
      <trkpt lat="50.61052" lon="3.26329">
        <ele>-17.4</ele>
        <time>2018-06-26T11:24:57Z</time>
      </trkpt>
      <trkpt lat="50.61052" lon="3.26329">
        <ele>-17.8</ele>
        <time>2018-06-26T11:25:01Z</time>
      </trkpt>
      <trkpt lat="50.61052" lon="3.26329">
        <ele>-17.6</ele>
        <time>2018-06-26T11:25:05Z</time>
      </trkpt>
      <trkpt lat="50.61052" lon="3.26329">
        <ele>-17.6</ele>
        <time>2018-06-26T11:25:09Z</time>
      </trkpt>
      <trkpt lat="50.61052" lon="3.26329">
        <ele>-17.6</ele>
        <time>2018-06-26T11:25:13Z</time>
      </trkpt>
      <trkpt lat="50.61052" lon="3.26329">
        <ele>-17.6</ele>
        <time>2018-06-26T11:25:17Z</time>
      </trkpt>
      <trkpt lat="50.61052" lon="3.26329">
        <ele>-17.8</ele>
        <time>2018-06-26T11:25:21Z</time>
      </trkpt>
      <trkpt lat="50.61052" lon="3.26329">
        <ele>-18</ele>
        <time>2018-06-26T11:25:25Z</time>
      </trkpt>
      <trkpt lat="50.61052" lon="3.26329">
        <ele>-17.6</ele>
        <time>2018-06-26T11:25:29Z</time>
      </trkpt>
      <trkpt lat="50.61052" lon="3.26329">
        <ele>-17.6</ele>
        <time>2018-06-26T11:25:33Z</time>
      </trkpt>
      <trkpt lat="50.61052" lon="3.26329">
        <ele>-17.6</ele>
        <time>2018-06-26T11:25:37Z</time>
      </trkpt>
      <trkpt lat="50.61052" lon="3.26329">
        <ele>-18</ele>
        <time>2018-06-26T11:25:41Z</time>
      </trkpt>
      <trkpt lat="50.61052" lon="3.26329">
        <ele>-18</ele>
        <time>2018-06-26T11:25:45Z</time>
      </trkpt>
      <trkpt lat="50.61052" lon="3.26329">
        <ele>-18</ele>
        <time>2018-06-26T11:25:49Z</time>
      </trkpt>
      <trkpt lat="50.61052" lon="3.26329">
        <ele>-17.6</ele>
        <time>2018-06-26T11:25:53Z</time>
      </trkpt>
      <trkpt lat="50.61052" lon="3.26329">
        <ele>-17.8</ele>
        <time>2018-06-26T11:25:57Z</time>
      </trkpt>
      <trkpt lat="50.61052" lon="3.26329">
        <ele>-17.6</ele>
        <time>2018-06-26T11:26:01Z</time>
      </trkpt>
      <trkpt lat="50.61052" lon="3.26329">
        <ele>-17.8</ele>
        <time>2018-06-26T11:26:05Z</time>
      </trkpt>
      <trkpt lat="50.61052" lon="3.26329">
        <ele>-17.6</ele>
        <time>2018-06-26T11:26:09Z</time>
      </trkpt>
      <trkpt lat="50.61052" lon="3.26329">
        <ele>-17.6</ele>
        <time>2018-06-26T11:26:13Z</time>
      </trkpt>
      <trkpt lat="50.61052" lon="3.26329">
        <ele>-17.8</ele>
        <time>2018-06-26T11:26:17Z</time>
      </trkpt>
      <trkpt lat="50.61052" lon="3.26329">
        <ele>-17.6</ele>
        <time>2018-06-26T11:26:21Z</time>
      </trkpt>
      <trkpt lat="50.61052" lon="3.26329">
        <ele>-17.6</ele>
        <time>2018-06-26T11:26:25Z</time>
      </trkpt>
      <trkpt lat="50.61052" lon="3.26329">
        <ele>-17.8</ele>
        <time>2018-06-26T11:26:29Z</time>
      </trkpt>
      <trkpt lat="50.61052" lon="3.26329">
        <ele>-17.6</ele>
        <time>2018-06-26T11:26:33Z</time>
      </trkpt>
      <trkpt lat="50.61052" lon="3.26329">
        <ele>-17.6</ele>
        <time>2018-06-26T11:26:37Z</time>
      </trkpt>
      <trkpt lat="50.61052" lon="3.26329">
        <ele>-17.8</ele>
        <time>2018-06-26T11:26:41Z</time>
      </trkpt>
      <trkpt lat="50.61052" lon="3.26329">
        <ele>-17.6</ele>
        <time>2018-06-26T11:26:45Z</time>
      </trkpt>
      <trkpt lat="50.61052" lon="3.26329">
        <ele>-18</ele>
        <time>2018-06-26T11:26:49Z</time>
      </trkpt>
      <trkpt lat="50.61052" lon="3.26329">
        <ele>-17.2</ele>
        <time>2018-06-26T11:26:53Z</time>
      </trkpt>
      <trkpt lat="50.61052" lon="3.26329">
        <ele>-17.2</ele>
        <time>2018-06-26T11:26:57Z</time>
      </trkpt>
      <trkpt lat="50.61052" lon="3.26329">
        <ele>-17.2</ele>
        <time>2018-06-26T11:27:01Z</time>
      </trkpt>
      <trkpt lat="50.61052" lon="3.26329">
        <ele>-17.4</ele>
        <time>2018-06-26T11:27:05Z</time>
      </trkpt>
      <trkpt lat="50.61052" lon="3.26329">
        <ele>-17.2</ele>
        <time>2018-06-26T11:27:09Z</time>
      </trkpt>
      <trkpt lat="50.61052" lon="3.26329">
        <ele>-16.8</ele>
        <time>2018-06-26T11:27:13Z</time>
      </trkpt>
      <trkpt lat="50.61052" lon="3.26329">
        <ele>-17.2</ele>
        <time>2018-06-26T11:27:17Z</time>
      </trkpt>
      <trkpt lat="50.61052" lon="3.26329">
        <ele>-17.4</ele>
        <time>2018-06-26T11:27:21Z</time>
      </trkpt>
      <trkpt lat="50.61052" lon="3.26329">
        <ele>-17</ele>
        <time>2018-06-26T11:27:25Z</time>
      </trkpt>
      <trkpt lat="50.61052" lon="3.26329">
        <ele>-17</ele>
        <time>2018-06-26T11:27:29Z</time>
      </trkpt>
      <trkpt lat="50.61052" lon="3.26329">
        <ele>-17.2</ele>
        <time>2018-06-26T11:27:33Z</time>
      </trkpt>
      <trkpt lat="50.61052" lon="3.26329">
        <ele>-17.2</ele>
        <time>2018-06-26T11:27:37Z</time>
      </trkpt>
      <trkpt lat="50.61052" lon="3.26329">
        <ele>-17.2</ele>
        <time>2018-06-26T11:27:41Z</time>
      </trkpt>
      <trkpt lat="50.61052" lon="3.26329">
        <ele>-17</ele>
        <time>2018-06-26T11:27:45Z</time>
      </trkpt>
      <trkpt lat="50.61052" lon="3.26329">
        <ele>-16.8</ele>
        <time>2018-06-26T11:27:49Z</time>
      </trkpt>
      <trkpt lat="50.61052" lon="3.26329">
        <ele>-16.8</ele>
        <time>2018-06-26T11:27:53Z</time>
      </trkpt>
      <trkpt lat="50.61052" lon="3.26329">
        <ele>-16.8</ele>
        <time>2018-06-26T11:27:57Z</time>
      </trkpt>
      <trkpt lat="50.61052" lon="3.26329">
        <ele>-17</ele>
        <time>2018-06-26T11:28:01Z</time>
      </trkpt>
      <trkpt lat="50.61052" lon="3.26329">
        <ele>-16.8</ele>
        <time>2018-06-26T11:28:05Z</time>
      </trkpt>
      <trkpt lat="50.61052" lon="3.26329">
        <ele>-16.8</ele>
        <time>2018-06-26T11:28:09Z</time>
      </trkpt>
      <trkpt lat="50.61052" lon="3.26329">
        <ele>-17</ele>
        <time>2018-06-26T11:28:13Z</time>
      </trkpt>
      <trkpt lat="50.61052" lon="3.26329">
        <ele>-16.8</ele>
        <time>2018-06-26T11:28:17Z</time>
      </trkpt>
      <trkpt lat="50.61052" lon="3.26329">
        <ele>-16.8</ele>
        <time>2018-06-26T11:28:21Z</time>
      </trkpt>
      <trkpt lat="50.61052" lon="3.26329">
        <ele>-17</ele>
        <time>2018-06-26T11:28:25Z</time>
      </trkpt>
      <trkpt lat="50.61052" lon="3.26329">
        <ele>-16.6</ele>
        <time>2018-06-26T11:28:29Z</time>
      </trkpt>
      <trkpt lat="50.61052" lon="3.26329">
        <ele>-16.8</ele>
        <time>2018-06-26T11:28:33Z</time>
      </trkpt>
      <trkpt lat="50.61052" lon="3.26329">
        <ele>-17.2</ele>
        <time>2018-06-26T11:28:37Z</time>
      </trkpt>
      <trkpt lat="50.61052" lon="3.26329">
        <ele>-17.2</ele>
        <time>2018-06-26T11:28:41Z</time>
      </trkpt>
      <trkpt lat="50.61052" lon="3.26329">
        <ele>-17</ele>
        <time>2018-06-26T11:28:45Z</time>
      </trkpt>
      <trkpt lat="50.61052" lon="3.26329">
        <ele>-16.8</ele>
        <time>2018-06-26T11:28:49Z</time>
      </trkpt>
      <trkpt lat="50.61052" lon="3.26329">
        <ele>-17</ele>
        <time>2018-06-26T11:28:53Z</time>
      </trkpt>
      <trkpt lat="50.61052" lon="3.26329">
        <ele>-17</ele>
        <time>2018-06-26T11:28:57Z</time>
      </trkpt>
      <trkpt lat="50.61052" lon="3.26329">
        <ele>-16.8</ele>
        <time>2018-06-26T11:29:01Z</time>
      </trkpt>
      <trkpt lat="50.61052" lon="3.26329">
        <ele>-16.6</ele>
        <time>2018-06-26T11:29:05Z</time>
      </trkpt>
      <trkpt lat="50.61052" lon="3.26329">
        <ele>-16.8</ele>
        <time>2018-06-26T11:29:09Z</time>
      </trkpt>
      <trkpt lat="50.61052" lon="3.26329">
        <ele>-16.8</ele>
        <time>2018-06-26T11:29:13Z</time>
      </trkpt>
      <trkpt lat="50.61052" lon="3.26329">
        <ele>-17.2</ele>
        <time>2018-06-26T11:29:17Z</time>
      </trkpt>
      <trkpt lat="50.61052" lon="3.26329">
        <ele>-17</ele>
        <time>2018-06-26T11:29:21Z</time>
      </trkpt>
      <trkpt lat="50.61052" lon="3.26329">
        <ele>-16.8</ele>
        <time>2018-06-26T11:29:25Z</time>
      </trkpt>
      <trkpt lat="50.61052" lon="3.26329">
        <ele>-17.2</ele>
        <time>2018-06-26T11:29:29Z</time>
      </trkpt>
      <trkpt lat="50.61052" lon="3.26329">
        <ele>-17</ele>
        <time>2018-06-26T11:29:33Z</time>
      </trkpt>
      <trkpt lat="50.61052" lon="3.26329">
        <ele>-17.2</ele>
        <time>2018-06-26T11:29:37Z</time>
      </trkpt>
      <trkpt lat="50.61052" lon="3.26329">
        <ele>-17.2</ele>
        <time>2018-06-26T11:29:41Z</time>
      </trkpt>
      <trkpt lat="50.61052" lon="3.26329">
        <ele>-16.6</ele>
        <time>2018-06-26T11:29:45Z</time>
      </trkpt>
      <trkpt lat="50.61052" lon="3.26329">
        <ele>-17.2</ele>
        <time>2018-06-26T11:29:49Z</time>
      </trkpt>
      <trkpt lat="50.61052" lon="3.26329">
        <ele>-17.2</ele>
        <time>2018-06-26T11:29:53Z</time>
      </trkpt>
      <trkpt lat="50.61052" lon="3.26329">
        <ele>-17.2</ele>
        <time>2018-06-26T11:29:57Z</time>
      </trkpt>
      <trkpt lat="50.61052" lon="3.26329">
        <ele>-17</ele>
        <time>2018-06-26T11:30:01Z</time>
      </trkpt>
      <trkpt lat="50.61052" lon="3.26329">
        <ele>-17</ele>
        <time>2018-06-26T11:30:05Z</time>
      </trkpt>
      <trkpt lat="50.61052" lon="3.26329">
        <ele>-17</ele>
        <time>2018-06-26T11:30:09Z</time>
      </trkpt>
      <trkpt lat="50.61052" lon="3.26329">
        <ele>-17.2</ele>
        <time>2018-06-26T11:30:13Z</time>
      </trkpt>
      <trkpt lat="50.61052" lon="3.26329">
        <ele>-16.8</ele>
        <time>2018-06-26T11:30:17Z</time>
      </trkpt>
      <trkpt lat="50.61052" lon="3.26329">
        <ele>-17.2</ele>
        <time>2018-06-26T11:30:21Z</time>
      </trkpt>
      <trkpt lat="50.61052" lon="3.26329">
        <ele>-17.2</ele>
        <time>2018-06-26T11:30:25Z</time>
      </trkpt>
      <trkpt lat="50.61052" lon="3.26329">
        <ele>-17.2</ele>
        <time>2018-06-26T11:30:29Z</time>
      </trkpt>
      <trkpt lat="50.61052" lon="3.26329">
        <ele>-17</ele>
        <time>2018-06-26T11:30:33Z</time>
      </trkpt>
      <trkpt lat="50.61052" lon="3.26329">
        <ele>-17</ele>
        <time>2018-06-26T11:30:37Z</time>
      </trkpt>
      <trkpt lat="50.61052" lon="3.26329">
        <ele>-17.2</ele>
        <time>2018-06-26T11:30:41Z</time>
      </trkpt>
      <trkpt lat="50.61052" lon="3.26329">
        <ele>-17.2</ele>
        <time>2018-06-26T11:30:45Z</time>
      </trkpt>
      <trkpt lat="50.61052" lon="3.26329">
        <ele>-17.2</ele>
        <time>2018-06-26T11:30:49Z</time>
      </trkpt>
      <trkpt lat="50.61052" lon="3.26329">
        <ele>-17.2</ele>
        <time>2018-06-26T11:30:53Z</time>
      </trkpt>
      <trkpt lat="50.61052" lon="3.26329">
        <ele>-17</ele>
        <time>2018-06-26T11:30:57Z</time>
      </trkpt>
      <trkpt lat="50.61052" lon="3.26329">
        <ele>-16.8</ele>
        <time>2018-06-26T11:31:01Z</time>
      </trkpt>
      <trkpt lat="50.61052" lon="3.26329">
        <ele>-17</ele>
        <time>2018-06-26T11:31:05Z</time>
      </trkpt>
      <trkpt lat="50.61052" lon="3.26329">
        <ele>-16.8</ele>
        <time>2018-06-26T11:31:09Z</time>
      </trkpt>
      <trkpt lat="50.61052" lon="3.26329">
        <ele>-16.8</ele>
        <time>2018-06-26T11:31:13Z</time>
      </trkpt>
      <trkpt lat="50.61052" lon="3.26329">
        <ele>-16.6</ele>
        <time>2018-06-26T11:31:17Z</time>
      </trkpt>
      <trkpt lat="50.61052" lon="3.26329">
        <ele>-17.2</ele>
        <time>2018-06-26T11:31:21Z</time>
      </trkpt>
      <trkpt lat="50.61052" lon="3.26329">
        <ele>-17.2</ele>
        <time>2018-06-26T11:31:25Z</time>
      </trkpt>
      <trkpt lat="50.61052" lon="3.26329">
        <ele>-17</ele>
        <time>2018-06-26T11:31:29Z</time>
      </trkpt>
      <trkpt lat="50.61052" lon="3.26329">
        <ele>-16.8</ele>
        <time>2018-06-26T11:31:33Z</time>
      </trkpt>
      <trkpt lat="50.61052" lon="3.26329">
        <ele>-17</ele>
        <time>2018-06-26T11:31:37Z</time>
      </trkpt>
      <trkpt lat="50.61052" lon="3.26329">
        <ele>-16.6</ele>
        <time>2018-06-26T11:31:41Z</time>
      </trkpt>
      <trkpt lat="50.61052" lon="3.26329">
        <ele>-17</ele>
        <time>2018-06-26T11:31:45Z</time>
      </trkpt>
      <trkpt lat="50.61052" lon="3.26329">
        <ele>-17.6</ele>
        <time>2018-06-26T11:31:49Z</time>
      </trkpt>
      <trkpt lat="50.61052" lon="3.26329">
        <ele>-17.6</ele>
        <time>2018-06-26T11:31:53Z</time>
      </trkpt>
      <trkpt lat="50.61052" lon="3.26329">
        <ele>-17.2</ele>
        <time>2018-06-26T11:31:57Z</time>
      </trkpt>
      <trkpt lat="50.61052" lon="3.26329">
        <ele>-16.8</ele>
        <time>2018-06-26T11:32:01Z</time>
      </trkpt>
      <trkpt lat="50.61052" lon="3.26329">
        <ele>-17</ele>
        <time>2018-06-26T11:32:05Z</time>
      </trkpt>
      <trkpt lat="50.61052" lon="3.26329">
        <ele>-16.8</ele>
        <time>2018-06-26T11:32:09Z</time>
      </trkpt>
      <trkpt lat="50.61052" lon="3.26329">
        <ele>-17.6</ele>
        <time>2018-06-26T11:32:13Z</time>
      </trkpt>
      <trkpt lat="50.61052" lon="3.26329">
        <ele>-17.4</ele>
        <time>2018-06-26T11:32:17Z</time>
      </trkpt>
      <trkpt lat="50.61052" lon="3.26329">
        <ele>-17.6</ele>
        <time>2018-06-26T11:32:21Z</time>
      </trkpt>
      <trkpt lat="50.61052" lon="3.26329">
        <ele>-17.4</ele>
        <time>2018-06-26T11:32:25Z</time>
      </trkpt>
      <trkpt lat="50.61052" lon="3.26329">
        <ele>-17.2</ele>
        <time>2018-06-26T11:32:29Z</time>
      </trkpt>
      <trkpt lat="50.61052" lon="3.26329">
        <ele>-17.6</ele>
        <time>2018-06-26T11:32:33Z</time>
      </trkpt>
      <trkpt lat="50.61052" lon="3.26329">
        <ele>-17.6</ele>
        <time>2018-06-26T11:32:37Z</time>
      </trkpt>
      <trkpt lat="50.61052" lon="3.26329">
        <ele>-16.6</ele>
        <time>2018-06-26T11:32:41Z</time>
      </trkpt>
      <trkpt lat="50.61052" lon="3.26329">
        <ele>-16.8</ele>
        <time>2018-06-26T11:32:45Z</time>
      </trkpt>
      <trkpt lat="50.61052" lon="3.26329">
        <ele>-17.2</ele>
        <time>2018-06-26T11:32:49Z</time>
      </trkpt>
      <trkpt lat="50.61052" lon="3.26329">
        <ele>-16.6</ele>
        <time>2018-06-26T11:32:53Z</time>
      </trkpt>
      <trkpt lat="50.61052" lon="3.26329">
        <ele>-16.6</ele>
        <time>2018-06-26T11:32:57Z</time>
      </trkpt>
      <trkpt lat="50.61052" lon="3.26329">
        <ele>-16.6</ele>
        <time>2018-06-26T11:33:01Z</time>
      </trkpt>
      <trkpt lat="50.61052" lon="3.26329">
        <ele>-16.8</ele>
        <time>2018-06-26T11:33:05Z</time>
      </trkpt>
      <trkpt lat="50.61052" lon="3.26329">
        <ele>-16.8</ele>
        <time>2018-06-26T11:33:09Z</time>
      </trkpt>
      <trkpt lat="50.61052" lon="3.26329">
        <ele>-17</ele>
        <time>2018-06-26T11:33:13Z</time>
      </trkpt>
      <trkpt lat="50.61052" lon="3.26329">
        <ele>-16.6</ele>
        <time>2018-06-26T11:33:17Z</time>
      </trkpt>
      <trkpt lat="50.61052" lon="3.26329">
        <ele>-16.6</ele>
        <time>2018-06-26T11:33:21Z</time>
      </trkpt>
      <trkpt lat="50.61052" lon="3.26329">
        <ele>-16.8</ele>
        <time>2018-06-26T11:33:25Z</time>
      </trkpt>
      <trkpt lat="50.61052" lon="3.26329">
        <ele>-16.4</ele>
        <time>2018-06-26T11:33:29Z</time>
      </trkpt>
      <trkpt lat="50.61052" lon="3.26329">
        <ele>-16.6</ele>
        <time>2018-06-26T11:33:33Z</time>
      </trkpt>
      <trkpt lat="50.61052" lon="3.26329">
        <ele>-16.8</ele>
        <time>2018-06-26T11:33:37Z</time>
      </trkpt>
      <trkpt lat="50.61052" lon="3.26329">
        <ele>-16.8</ele>
        <time>2018-06-26T11:33:41Z</time>
      </trkpt>
      <trkpt lat="50.61052" lon="3.26329">
        <ele>-16.6</ele>
        <time>2018-06-26T11:33:45Z</time>
      </trkpt>
      <trkpt lat="50.61052" lon="3.26329">
        <ele>-17.2</ele>
        <time>2018-06-26T11:33:49Z</time>
      </trkpt>
      <trkpt lat="50.61052" lon="3.26329">
        <ele>-17.2</ele>
        <time>2018-06-26T11:33:53Z</time>
      </trkpt>
      <trkpt lat="50.61052" lon="3.26329">
        <ele>-17</ele>
        <time>2018-06-26T11:33:57Z</time>
      </trkpt>
      <trkpt lat="50.61052" lon="3.26329">
        <ele>-17.2</ele>
        <time>2018-06-26T11:34:01Z</time>
      </trkpt>
      <trkpt lat="50.61052" lon="3.26329">
        <ele>-17.2</ele>
        <time>2018-06-26T11:34:05Z</time>
      </trkpt>
      <trkpt lat="50.61052" lon="3.26329">
        <ele>-17</ele>
        <time>2018-06-26T11:34:09Z</time>
      </trkpt>
      <trkpt lat="50.61052" lon="3.26329">
        <ele>-17</ele>
        <time>2018-06-26T11:34:13Z</time>
      </trkpt>
      <trkpt lat="50.61052" lon="3.26329">
        <ele>-17</ele>
        <time>2018-06-26T11:34:17Z</time>
      </trkpt>
      <trkpt lat="50.61052" lon="3.26329">
        <ele>-17.2</ele>
        <time>2018-06-26T11:34:21Z</time>
      </trkpt>
      <trkpt lat="50.61052" lon="3.26329">
        <ele>-17</ele>
        <time>2018-06-26T11:34:25Z</time>
      </trkpt>
      <trkpt lat="50.61052" lon="3.26329">
        <ele>-16.8</ele>
        <time>2018-06-26T11:34:29Z</time>
      </trkpt>
      <trkpt lat="50.61052" lon="3.26329">
        <ele>-17</ele>
        <time>2018-06-26T11:34:33Z</time>
      </trkpt>
      <trkpt lat="50.61052" lon="3.26329">
        <ele>-17.2</ele>
        <time>2018-06-26T11:34:37Z</time>
      </trkpt>
      <trkpt lat="50.61052" lon="3.26329">
        <ele>-17</ele>
        <time>2018-06-26T11:34:41Z</time>
      </trkpt>
      <trkpt lat="50.61052" lon="3.26329">
        <ele>-17</ele>
        <time>2018-06-26T11:34:45Z</time>
      </trkpt>
      <trkpt lat="50.61052" lon="3.26329">
        <ele>-17.2</ele>
        <time>2018-06-26T11:34:49Z</time>
      </trkpt>
      <trkpt lat="50.61052" lon="3.26329">
        <ele>-17</ele>
        <time>2018-06-26T11:34:53Z</time>
      </trkpt>
      <trkpt lat="50.61052" lon="3.26329">
        <ele>-17.2</ele>
        <time>2018-06-26T11:34:57Z</time>
      </trkpt>
      <trkpt lat="50.61052" lon="3.26329">
        <ele>-17.2</ele>
        <time>2018-06-26T11:35:01Z</time>
      </trkpt>
      <trkpt lat="50.61052" lon="3.26329">
        <ele>-17</ele>
        <time>2018-06-26T11:35:05Z</time>
      </trkpt>
      <trkpt lat="50.61052" lon="3.26329">
        <ele>-16.8</ele>
        <time>2018-06-26T11:35:09Z</time>
      </trkpt>
      <trkpt lat="50.61052" lon="3.26329">
        <ele>-17</ele>
        <time>2018-06-26T11:35:13Z</time>
      </trkpt>
      <trkpt lat="50.61052" lon="3.26329">
        <ele>-16.8</ele>
        <time>2018-06-26T11:35:17Z</time>
      </trkpt>
      <trkpt lat="50.61052" lon="3.26329">
        <ele>-17.2</ele>
        <time>2018-06-26T11:35:21Z</time>
      </trkpt>
      <trkpt lat="50.61052" lon="3.26329">
        <ele>-17</ele>
        <time>2018-06-26T11:35:25Z</time>
      </trkpt>
      <trkpt lat="50.61052" lon="3.26329">
        <ele>-16.8</ele>
        <time>2018-06-26T11:35:29Z</time>
      </trkpt>
      <trkpt lat="50.61052" lon="3.26329">
        <ele>-17</ele>
        <time>2018-06-26T11:35:33Z</time>
      </trkpt>
      <trkpt lat="50.61052" lon="3.26329">
        <ele>-17.2</ele>
        <time>2018-06-26T11:35:37Z</time>
      </trkpt>
      <trkpt lat="50.61052" lon="3.26329">
        <ele>-17.2</ele>
        <time>2018-06-26T11:35:41Z</time>
      </trkpt>
      <trkpt lat="50.61052" lon="3.26329">
        <ele>-16.8</ele>
        <time>2018-06-26T11:35:45Z</time>
      </trkpt>
      <trkpt lat="50.61052" lon="3.26329">
        <ele>-16.6</ele>
        <time>2018-06-26T11:35:49Z</time>
      </trkpt>
      <trkpt lat="50.61052" lon="3.26329">
        <ele>-17</ele>
        <time>2018-06-26T11:35:53Z</time>
      </trkpt>
      <trkpt lat="50.61052" lon="3.26329">
        <ele>-16.6</ele>
        <time>2018-06-26T11:35:57Z</time>
      </trkpt>
      <trkpt lat="50.61052" lon="3.26329">
        <ele>-16.8</ele>
        <time>2018-06-26T11:36:01Z</time>
      </trkpt>
      <trkpt lat="50.61052" lon="3.26329">
        <ele>-17</ele>
        <time>2018-06-26T11:36:05Z</time>
      </trkpt>
      <trkpt lat="50.61052" lon="3.26329">
        <ele>-16.6</ele>
        <time>2018-06-26T11:36:09Z</time>
      </trkpt>
      <trkpt lat="50.61052" lon="3.26329">
        <ele>-17.2</ele>
        <time>2018-06-26T11:36:13Z</time>
      </trkpt>
      <trkpt lat="50.61052" lon="3.26329">
        <ele>-16.8</ele>
        <time>2018-06-26T11:36:17Z</time>
      </trkpt>
      <trkpt lat="50.61052" lon="3.26329">
        <ele>-16.8</ele>
        <time>2018-06-26T11:36:21Z</time>
      </trkpt>
      <trkpt lat="50.61052" lon="3.26329">
        <ele>-16.6</ele>
        <time>2018-06-26T11:36:25Z</time>
      </trkpt>
      <trkpt lat="50.61052" lon="3.26329">
        <ele>-16.8</ele>
        <time>2018-06-26T11:36:29Z</time>
      </trkpt>
      <trkpt lat="50.61052" lon="3.26329">
        <ele>-16.6</ele>
        <time>2018-06-26T11:36:33Z</time>
      </trkpt>
      <trkpt lat="50.61052" lon="3.26329">
        <ele>-16.8</ele>
        <time>2018-06-26T11:36:37Z</time>
      </trkpt>
      <trkpt lat="50.61052" lon="3.26329">
        <ele>-16.6</ele>
        <time>2018-06-26T11:36:41Z</time>
      </trkpt>
      <trkpt lat="50.61052" lon="3.26329">
        <ele>-16.8</ele>
        <time>2018-06-26T11:36:45Z</time>
      </trkpt>
      <trkpt lat="50.61052" lon="3.26329">
        <ele>-17</ele>
        <time>2018-06-26T11:36:49Z</time>
      </trkpt>
      <trkpt lat="50.61052" lon="3.26329">
        <ele>-17.2</ele>
        <time>2018-06-26T11:36:53Z</time>
      </trkpt>
      <trkpt lat="50.61052" lon="3.26329">
        <ele>-16.8</ele>
        <time>2018-06-26T11:36:57Z</time>
      </trkpt>
      <trkpt lat="50.61052" lon="3.26329">
        <ele>-16.6</ele>
        <time>2018-06-26T11:37:01Z</time>
      </trkpt>
      <trkpt lat="50.61052" lon="3.26329">
        <ele>-17.2</ele>
        <time>2018-06-26T11:37:05Z</time>
      </trkpt>
      <trkpt lat="50.61052" lon="3.26329">
        <ele>-17.2</ele>
        <time>2018-06-26T11:37:09Z</time>
      </trkpt>
      <trkpt lat="50.61052" lon="3.26329">
        <ele>-16.6</ele>
        <time>2018-06-26T11:37:13Z</time>
      </trkpt>
      <trkpt lat="50.61052" lon="3.26329">
        <ele>-16.6</ele>
        <time>2018-06-26T11:37:17Z</time>
      </trkpt>
      <trkpt lat="50.61052" lon="3.26329">
        <ele>-17</ele>
        <time>2018-06-26T11:37:21Z</time>
      </trkpt>
      <trkpt lat="50.61052" lon="3.26329">
        <ele>-16.6</ele>
        <time>2018-06-26T11:37:25Z</time>
      </trkpt>
      <trkpt lat="50.61052" lon="3.26329">
        <ele>-17.2</ele>
        <time>2018-06-26T11:37:29Z</time>
      </trkpt>
      <trkpt lat="50.61052" lon="3.26329">
        <ele>-17</ele>
        <time>2018-06-26T11:37:33Z</time>
      </trkpt>
      <trkpt lat="50.61052" lon="3.26329">
        <ele>-17.2</ele>
        <time>2018-06-26T11:37:37Z</time>
      </trkpt>
      <trkpt lat="50.61052" lon="3.26329">
        <ele>-16.8</ele>
        <time>2018-06-26T11:37:41Z</time>
      </trkpt>
      <trkpt lat="50.61052" lon="3.26329">
        <ele>-17</ele>
        <time>2018-06-26T11:37:45Z</time>
      </trkpt>
      <trkpt lat="50.61052" lon="3.26329">
        <ele>-16.6</ele>
        <time>2018-06-26T11:37:49Z</time>
      </trkpt>
      <trkpt lat="50.61052" lon="3.26329">
        <ele>-16.6</ele>
        <time>2018-06-26T11:37:53Z</time>
      </trkpt>
      <trkpt lat="50.61052" lon="3.26329">
        <ele>-16.8</ele>
        <time>2018-06-26T11:37:57Z</time>
      </trkpt>
      <trkpt lat="50.61052" lon="3.26329">
        <ele>-17</ele>
        <time>2018-06-26T11:38:01Z</time>
      </trkpt>
      <trkpt lat="50.61052" lon="3.26329">
        <ele>-17.2</ele>
        <time>2018-06-26T11:38:05Z</time>
      </trkpt>
      <trkpt lat="50.61052" lon="3.26329">
        <ele>-16.8</ele>
        <time>2018-06-26T11:38:09Z</time>
      </trkpt>
      <trkpt lat="50.61052" lon="3.26329">
        <ele>-16.2</ele>
        <time>2018-06-26T11:38:13Z</time>
      </trkpt>
      <trkpt lat="50.61052" lon="3.26329">
        <ele>-16.6</ele>
        <time>2018-06-26T11:38:17Z</time>
      </trkpt>
      <trkpt lat="50.61052" lon="3.26329">
        <ele>-16.2</ele>
        <time>2018-06-26T11:38:21Z</time>
      </trkpt>
      <trkpt lat="50.61052" lon="3.26329">
        <ele>-16.2</ele>
        <time>2018-06-26T11:38:25Z</time>
      </trkpt>
      <trkpt lat="50.61052" lon="3.26329">
        <ele>-16.2</ele>
        <time>2018-06-26T11:38:29Z</time>
      </trkpt>
      <trkpt lat="50.61052" lon="3.26329">
        <ele>-16.2</ele>
        <time>2018-06-26T11:38:33Z</time>
      </trkpt>
      <trkpt lat="50.61052" lon="3.26329">
        <ele>-16.4</ele>
        <time>2018-06-26T11:38:37Z</time>
      </trkpt>
      <trkpt lat="50.61052" lon="3.26329">
        <ele>-16.6</ele>
        <time>2018-06-26T11:38:41Z</time>
      </trkpt>
      <trkpt lat="50.61052" lon="3.26329">
        <ele>-16.4</ele>
        <time>2018-06-26T11:38:45Z</time>
      </trkpt>
      <trkpt lat="50.61052" lon="3.26329">
        <ele>-17</ele>
        <time>2018-06-26T11:38:49Z</time>
      </trkpt>
      <trkpt lat="50.61052" lon="3.26329">
        <ele>-16.6</ele>
        <time>2018-06-26T11:38:53Z</time>
      </trkpt>
      <trkpt lat="50.61052" lon="3.26329">
        <ele>-16.8</ele>
        <time>2018-06-26T11:38:57Z</time>
      </trkpt>
      <trkpt lat="50.61052" lon="3.26329">
        <ele>-16.6</ele>
        <time>2018-06-26T11:39:01Z</time>
      </trkpt>
      <trkpt lat="50.61052" lon="3.26329">
        <ele>-16.8</ele>
        <time>2018-06-26T11:39:05Z</time>
      </trkpt>
      <trkpt lat="50.61052" lon="3.26329">
        <ele>-17.2</ele>
        <time>2018-06-26T11:39:09Z</time>
      </trkpt>
      <trkpt lat="50.61052" lon="3.26329">
        <ele>-16.6</ele>
        <time>2018-06-26T11:39:13Z</time>
      </trkpt>
      <trkpt lat="50.61052" lon="3.26329">
        <ele>-17.4</ele>
        <time>2018-06-26T11:39:17Z</time>
      </trkpt>
      <trkpt lat="50.61052" lon="3.26329">
        <ele>-17</ele>
        <time>2018-06-26T11:39:21Z</time>
      </trkpt>
      <trkpt lat="50.61052" lon="3.26329">
        <ele>-17</ele>
        <time>2018-06-26T11:39:25Z</time>
      </trkpt>
      <trkpt lat="50.61052" lon="3.26329">
        <ele>-16.8</ele>
        <time>2018-06-26T11:39:29Z</time>
      </trkpt>
      <trkpt lat="50.61052" lon="3.26329">
        <ele>-16.8</ele>
        <time>2018-06-26T11:39:33Z</time>
      </trkpt>
      <trkpt lat="50.61052" lon="3.26329">
        <ele>-17</ele>
        <time>2018-06-26T11:39:37Z</time>
      </trkpt>
      <trkpt lat="50.61052" lon="3.26329">
        <ele>-16.8</ele>
        <time>2018-06-26T11:39:41Z</time>
      </trkpt>
      <trkpt lat="50.61052" lon="3.26329">
        <ele>-17.2</ele>
        <time>2018-06-26T11:39:45Z</time>
      </trkpt>
      <trkpt lat="50.61052" lon="3.26329">
        <ele>-16.8</ele>
        <time>2018-06-26T11:39:49Z</time>
      </trkpt>
      <trkpt lat="50.61052" lon="3.26329">
        <ele>-17.2</ele>
        <time>2018-06-26T11:39:53Z</time>
      </trkpt>
      <trkpt lat="50.61052" lon="3.26329">
        <ele>-16.6</ele>
        <time>2018-06-26T11:39:57Z</time>
      </trkpt>
      <trkpt lat="50.61052" lon="3.26329">
        <ele>-16.4</ele>
        <time>2018-06-26T11:40:01Z</time>
      </trkpt>
      <trkpt lat="50.61052" lon="3.26329">
        <ele>-16.8</ele>
        <time>2018-06-26T11:40:05Z</time>
      </trkpt>
      <trkpt lat="50.61052" lon="3.26329">
        <ele>-17.2</ele>
        <time>2018-06-26T11:40:09Z</time>
      </trkpt>
      <trkpt lat="50.61052" lon="3.26329">
        <ele>-16.8</ele>
        <time>2018-06-26T11:40:13Z</time>
      </trkpt>
      <trkpt lat="50.61052" lon="3.26329">
        <ele>-17</ele>
        <time>2018-06-26T11:40:17Z</time>
      </trkpt>
      <trkpt lat="50.61052" lon="3.26329">
        <ele>-17.4</ele>
        <time>2018-06-26T11:40:21Z</time>
      </trkpt>
      <trkpt lat="50.61052" lon="3.26329">
        <ele>-17.2</ele>
        <time>2018-06-26T11:40:25Z</time>
      </trkpt>
      <trkpt lat="50.61052" lon="3.26329">
        <ele>-17</ele>
        <time>2018-06-26T11:40:29Z</time>
      </trkpt>
      <trkpt lat="50.61053" lon="3.2633">
        <ele>-16.8</ele>
        <time>2018-06-26T11:40:33Z</time>
      </trkpt>
      <trkpt lat="50.61053" lon="3.2633">
        <ele>-16.4</ele>
        <time>2018-06-26T11:40:37Z</time>
      </trkpt>
      <trkpt lat="50.61053" lon="3.2633">
        <ele>-16.6</ele>
        <time>2018-06-26T11:40:41Z</time>
      </trkpt>
      <trkpt lat="50.61053" lon="3.2633">
        <ele>-16.4</ele>
        <time>2018-06-26T11:40:45Z</time>
      </trkpt>
      <trkpt lat="50.61053" lon="3.2633">
        <ele>-16.6</ele>
        <time>2018-06-26T11:40:49Z</time>
      </trkpt>
      <trkpt lat="50.61053" lon="3.2633">
        <ele>-16.6</ele>
        <time>2018-06-26T11:40:53Z</time>
      </trkpt>
      <trkpt lat="50.61053" lon="3.2633">
        <ele>-16.6</ele>
        <time>2018-06-26T11:40:57Z</time>
      </trkpt>
      <trkpt lat="50.61053" lon="3.2633">
        <ele>-17</ele>
        <time>2018-06-26T11:41:01Z</time>
      </trkpt>
      <trkpt lat="50.61053" lon="3.2633">
        <ele>-16.8</ele>
        <time>2018-06-26T11:41:05Z</time>
      </trkpt>
      <trkpt lat="50.61053" lon="3.2633">
        <ele>-17</ele>
        <time>2018-06-26T11:41:09Z</time>
      </trkpt>
      <trkpt lat="50.61053" lon="3.2633">
        <ele>-16.8</ele>
        <time>2018-06-26T11:41:13Z</time>
      </trkpt>
      <trkpt lat="50.61053" lon="3.2633">
        <ele>-16.4</ele>
        <time>2018-06-26T11:41:17Z</time>
      </trkpt>
      <trkpt lat="50.61053" lon="3.2633">
        <ele>-17.2</ele>
        <time>2018-06-26T11:41:21Z</time>
      </trkpt>
      <trkpt lat="50.61053" lon="3.2633">
        <ele>-17</ele>
        <time>2018-06-26T11:41:25Z</time>
      </trkpt>
      <trkpt lat="50.61053" lon="3.2633">
        <ele>-16.6</ele>
        <time>2018-06-26T11:41:29Z</time>
      </trkpt>
      <trkpt lat="50.61053" lon="3.2633">
        <ele>-16.6</ele>
        <time>2018-06-26T11:41:33Z</time>
      </trkpt>
      <trkpt lat="50.61053" lon="3.2633">
        <ele>-17</ele>
        <time>2018-06-26T11:41:37Z</time>
      </trkpt>
      <trkpt lat="50.61053" lon="3.2633">
        <ele>-17</ele>
        <time>2018-06-26T11:41:41Z</time>
      </trkpt>
      <trkpt lat="50.61053" lon="3.2633">
        <ele>-17.2</ele>
        <time>2018-06-26T11:41:45Z</time>
      </trkpt>
      <trkpt lat="50.61053" lon="3.2633">
        <ele>-17</ele>
        <time>2018-06-26T11:41:49Z</time>
      </trkpt>
      <trkpt lat="50.61053" lon="3.2633">
        <ele>-17.2</ele>
        <time>2018-06-26T11:41:53Z</time>
      </trkpt>
      <trkpt lat="50.61053" lon="3.2633">
        <ele>-17.2</ele>
        <time>2018-06-26T11:41:57Z</time>
      </trkpt>
      <trkpt lat="50.61053" lon="3.2633">
        <ele>-17</ele>
        <time>2018-06-26T11:42:01Z</time>
      </trkpt>
      <trkpt lat="50.61053" lon="3.2633">
        <ele>-17.6</ele>
        <time>2018-06-26T11:42:05Z</time>
      </trkpt>
      <trkpt lat="50.61053" lon="3.2633">
        <ele>-17</ele>
        <time>2018-06-26T11:42:09Z</time>
      </trkpt>
      <trkpt lat="50.61053" lon="3.2633">
        <ele>-17.2</ele>
        <time>2018-06-26T11:42:13Z</time>
      </trkpt>
      <trkpt lat="50.61053" lon="3.2633">
        <ele>-16.8</ele>
        <time>2018-06-26T11:42:17Z</time>
      </trkpt>
      <trkpt lat="50.61053" lon="3.2633">
        <ele>-17.4</ele>
        <time>2018-06-26T11:42:21Z</time>
      </trkpt>
      <trkpt lat="50.61053" lon="3.2633">
        <ele>-17.8</ele>
        <time>2018-06-26T11:42:25Z</time>
      </trkpt>
      <trkpt lat="50.61053" lon="3.2633">
        <ele>-17.4</ele>
        <time>2018-06-26T11:42:29Z</time>
      </trkpt>
      <trkpt lat="50.61053" lon="3.2633">
        <ele>-17.6</ele>
        <time>2018-06-26T11:42:33Z</time>
      </trkpt>
      <trkpt lat="50.61053" lon="3.2633">
        <ele>-17.4</ele>
        <time>2018-06-26T11:42:37Z</time>
      </trkpt>
      <trkpt lat="50.61053" lon="3.2633">
        <ele>-17.8</ele>
        <time>2018-06-26T11:42:41Z</time>
      </trkpt>
      <trkpt lat="50.61053" lon="3.2633">
        <ele>-17.6</ele>
        <time>2018-06-26T11:42:45Z</time>
      </trkpt>
      <trkpt lat="50.61053" lon="3.2633">
        <ele>-17.2</ele>
        <time>2018-06-26T11:42:49Z</time>
      </trkpt>
      <trkpt lat="50.61053" lon="3.2633">
        <ele>-17.4</ele>
        <time>2018-06-26T11:42:53Z</time>
      </trkpt>
      <trkpt lat="50.61053" lon="3.2633">
        <ele>-17.6</ele>
        <time>2018-06-26T11:42:57Z</time>
      </trkpt>
      <trkpt lat="50.61053" lon="3.2633">
        <ele>-17.2</ele>
        <time>2018-06-26T11:43:01Z</time>
      </trkpt>
      <trkpt lat="50.61053" lon="3.2633">
        <ele>-17.2</ele>
        <time>2018-06-26T11:43:05Z</time>
      </trkpt>
      <trkpt lat="50.61053" lon="3.2633">
        <ele>-17</ele>
        <time>2018-06-26T11:43:09Z</time>
      </trkpt>
      <trkpt lat="50.61053" lon="3.2633">
        <ele>-17.6</ele>
        <time>2018-06-26T11:43:13Z</time>
      </trkpt>
      <trkpt lat="50.61053" lon="3.2633">
        <ele>-17.2</ele>
        <time>2018-06-26T11:43:17Z</time>
      </trkpt>
      <trkpt lat="50.61053" lon="3.2633">
        <ele>-17.4</ele>
        <time>2018-06-26T11:43:21Z</time>
      </trkpt>
      <trkpt lat="50.61053" lon="3.2633">
        <ele>-17.2</ele>
        <time>2018-06-26T11:43:25Z</time>
      </trkpt>
      <trkpt lat="50.61053" lon="3.2633">
        <ele>-17.4</ele>
        <time>2018-06-26T11:43:29Z</time>
      </trkpt>
      <trkpt lat="50.61053" lon="3.2633">
        <ele>-17</ele>
        <time>2018-06-26T11:43:33Z</time>
      </trkpt>
      <trkpt lat="50.61053" lon="3.2633">
        <ele>-17</ele>
        <time>2018-06-26T11:43:37Z</time>
      </trkpt>
      <trkpt lat="50.61053" lon="3.2633">
        <ele>-17.6</ele>
        <time>2018-06-26T11:43:41Z</time>
      </trkpt>
      <trkpt lat="50.61053" lon="3.2633">
        <ele>-17.2</ele>
        <time>2018-06-26T11:43:45Z</time>
      </trkpt>
      <trkpt lat="50.61053" lon="3.2633">
        <ele>-16.8</ele>
        <time>2018-06-26T11:43:49Z</time>
      </trkpt>
      <trkpt lat="50.61053" lon="3.2633">
        <ele>-17</ele>
        <time>2018-06-26T11:43:53Z</time>
      </trkpt>
      <trkpt lat="50.61053" lon="3.2633">
        <ele>-17</ele>
        <time>2018-06-26T11:43:57Z</time>
      </trkpt>
      <trkpt lat="50.61053" lon="3.2633">
        <ele>-17.4</ele>
        <time>2018-06-26T11:44:01Z</time>
      </trkpt>
      <trkpt lat="50.61053" lon="3.2633">
        <ele>-17.4</ele>
        <time>2018-06-26T11:44:05Z</time>
      </trkpt>
      <trkpt lat="50.61053" lon="3.2633">
        <ele>-17.4</ele>
        <time>2018-06-26T11:44:09Z</time>
      </trkpt>
      <trkpt lat="50.61053" lon="3.2633">
        <ele>-17.2</ele>
        <time>2018-06-26T11:44:13Z</time>
      </trkpt>
      <trkpt lat="50.61053" lon="3.2633">
        <ele>-17.2</ele>
        <time>2018-06-26T11:44:17Z</time>
      </trkpt>
      <trkpt lat="50.61053" lon="3.2633">
        <ele>-17.2</ele>
        <time>2018-06-26T11:44:21Z</time>
      </trkpt>
      <trkpt lat="50.61053" lon="3.2633">
        <ele>-17</ele>
        <time>2018-06-26T11:44:25Z</time>
      </trkpt>
      <trkpt lat="50.61053" lon="3.2633">
        <ele>-17.2</ele>
        <time>2018-06-26T11:44:29Z</time>
      </trkpt>
      <trkpt lat="50.61053" lon="3.2633">
        <ele>-17.2</ele>
        <time>2018-06-26T11:44:33Z</time>
      </trkpt>
      <trkpt lat="50.61053" lon="3.2633">
        <ele>-16.6</ele>
        <time>2018-06-26T11:44:37Z</time>
      </trkpt>
      <trkpt lat="50.61053" lon="3.2633">
        <ele>-17</ele>
        <time>2018-06-26T11:44:41Z</time>
      </trkpt>
      <trkpt lat="50.61053" lon="3.2633">
        <ele>-17.2</ele>
        <time>2018-06-26T11:44:45Z</time>
      </trkpt>
      <trkpt lat="50.61053" lon="3.2633">
        <ele>-17.2</ele>
        <time>2018-06-26T11:44:49Z</time>
      </trkpt>
      <trkpt lat="50.61053" lon="3.2633">
        <ele>-17</ele>
        <time>2018-06-26T11:44:53Z</time>
      </trkpt>
      <trkpt lat="50.61053" lon="3.2633">
        <ele>-17.6</ele>
        <time>2018-06-26T11:44:57Z</time>
      </trkpt>
      <trkpt lat="50.61053" lon="3.2633">
        <ele>-17.4</ele>
        <time>2018-06-26T11:45:01Z</time>
      </trkpt>
      <trkpt lat="50.61053" lon="3.2633">
        <ele>-17.2</ele>
        <time>2018-06-26T11:45:05Z</time>
      </trkpt>
      <trkpt lat="50.61053" lon="3.2633">
        <ele>-17.2</ele>
        <time>2018-06-26T11:45:09Z</time>
      </trkpt>
      <trkpt lat="50.61053" lon="3.2633">
        <ele>-17.2</ele>
        <time>2018-06-26T11:45:13Z</time>
      </trkpt>
      <trkpt lat="50.61053" lon="3.2633">
        <ele>-17.4</ele>
        <time>2018-06-26T11:45:17Z</time>
      </trkpt>
      <trkpt lat="50.61053" lon="3.2633">
        <ele>-17</ele>
        <time>2018-06-26T11:45:21Z</time>
      </trkpt>
      <trkpt lat="50.61053" lon="3.2633">
        <ele>-16.8</ele>
        <time>2018-06-26T11:45:25Z</time>
      </trkpt>
      <trkpt lat="50.61053" lon="3.2633">
        <ele>-17.2</ele>
        <time>2018-06-26T11:45:29Z</time>
      </trkpt>
      <trkpt lat="50.61053" lon="3.2633">
        <ele>-17.2</ele>
        <time>2018-06-26T11:45:33Z</time>
      </trkpt>
      <trkpt lat="50.61053" lon="3.2633">
        <ele>-17.2</ele>
        <time>2018-06-26T11:45:37Z</time>
      </trkpt>
      <trkpt lat="50.61053" lon="3.2633">
        <ele>-17.2</ele>
        <time>2018-06-26T11:45:41Z</time>
      </trkpt>
      <trkpt lat="50.61053" lon="3.2633">
        <ele>-17.4</ele>
        <time>2018-06-26T11:45:45Z</time>
      </trkpt>
      <trkpt lat="50.61053" lon="3.2633">
        <ele>-17.2</ele>
        <time>2018-06-26T11:45:49Z</time>
      </trkpt>
      <trkpt lat="50.61052" lon="3.26335">
        <ele>-17</ele>
        <time>2018-06-26T11:45:53Z</time>
      </trkpt>
      <trkpt lat="50.61051" lon="3.26341">
        <ele>-17.2</ele>
        <time>2018-06-26T11:45:57Z</time>
      </trkpt>
      <trkpt lat="50.61048" lon="3.26349">
        <ele>-16.8</ele>
        <time>2018-06-26T11:46:01Z</time>
      </trkpt>
      <trkpt lat="50.61046" lon="3.26357">
        <ele>-16.6</ele>
        <time>2018-06-26T11:46:05Z</time>
      </trkpt>
      <trkpt lat="50.61044" lon="3.26363">
        <ele>-16.6</ele>
        <time>2018-06-26T11:46:09Z</time>
      </trkpt>
      <trkpt lat="50.61041" lon="3.2637">
        <ele>-16.4</ele>
        <time>2018-06-26T11:46:13Z</time>
      </trkpt>
      <trkpt lat="50.61039" lon="3.26377">
        <ele>-16.6</ele>
        <time>2018-06-26T11:46:17Z</time>
      </trkpt>
      <trkpt lat="50.61036" lon="3.26384">
        <ele>-16.6</ele>
        <time>2018-06-26T11:46:21Z</time>
      </trkpt>
      <trkpt lat="50.61034" lon="3.26392">
        <ele>-16.2</ele>
        <time>2018-06-26T11:46:25Z</time>
      </trkpt>
      <trkpt lat="50.61031" lon="3.26399">
        <ele>-16</ele>
        <time>2018-06-26T11:46:29Z</time>
      </trkpt>
      <trkpt lat="50.61029" lon="3.26408">
        <ele>-16.2</ele>
        <time>2018-06-26T11:46:33Z</time>
      </trkpt>
      <trkpt lat="50.61025" lon="3.26417">
        <ele>-16</ele>
        <time>2018-06-26T11:46:37Z</time>
      </trkpt>
      <trkpt lat="50.61022" lon="3.26426">
        <ele>-15.8</ele>
        <time>2018-06-26T11:46:41Z</time>
      </trkpt>
      <trkpt lat="50.61019" lon="3.26436">
        <ele>-16</ele>
        <time>2018-06-26T11:46:45Z</time>
      </trkpt>
      <trkpt lat="50.61016" lon="3.26446">
        <ele>-16</ele>
        <time>2018-06-26T11:46:49Z</time>
      </trkpt>
      <trkpt lat="50.61013" lon="3.26456">
        <ele>-16</ele>
        <time>2018-06-26T11:46:53Z</time>
      </trkpt>
      <trkpt lat="50.61009" lon="3.26466">
        <ele>-15.4</ele>
        <time>2018-06-26T11:46:57Z</time>
      </trkpt>
      <trkpt lat="50.61006" lon="3.26477">
        <ele>-15.6</ele>
        <time>2018-06-26T11:47:01Z</time>
      </trkpt>
      <trkpt lat="50.61003" lon="3.26487">
        <ele>-16</ele>
        <time>2018-06-26T11:47:05Z</time>
      </trkpt>
      <trkpt lat="50.61" lon="3.26497">
        <ele>-15.6</ele>
        <time>2018-06-26T11:47:09Z</time>
      </trkpt>
      <trkpt lat="50.60996" lon="3.26506">
        <ele>-15.6</ele>
        <time>2018-06-26T11:47:13Z</time>
      </trkpt>
      <trkpt lat="50.60994" lon="3.26515">
        <ele>-15.6</ele>
        <time>2018-06-26T11:47:17Z</time>
      </trkpt>
      <trkpt lat="50.60991" lon="3.26526">
        <ele>-15.8</ele>
        <time>2018-06-26T11:47:21Z</time>
      </trkpt>
      <trkpt lat="50.60987" lon="3.26536">
        <ele>-15.8</ele>
        <time>2018-06-26T11:47:25Z</time>
      </trkpt>
      <trkpt lat="50.60985" lon="3.26545">
        <ele>-15.6</ele>
        <time>2018-06-26T11:47:29Z</time>
      </trkpt>
      <trkpt lat="50.60982" lon="3.26555">
        <ele>-15.6</ele>
        <time>2018-06-26T11:47:33Z</time>
      </trkpt>
      <trkpt lat="50.60979" lon="3.26566">
        <ele>-15.6</ele>
        <time>2018-06-26T11:47:37Z</time>
      </trkpt>
      <trkpt lat="50.60975" lon="3.26576">
        <ele>-15.2</ele>
        <time>2018-06-26T11:47:41Z</time>
      </trkpt>
      <trkpt lat="50.60972" lon="3.26585">
        <ele>-15.6</ele>
        <time>2018-06-26T11:47:45Z</time>
      </trkpt>
      <trkpt lat="50.60969" lon="3.26595">
        <ele>-15.6</ele>
        <time>2018-06-26T11:47:49Z</time>
      </trkpt>
      <trkpt lat="50.60965" lon="3.26606">
        <ele>-15.8</ele>
        <time>2018-06-26T11:47:53Z</time>
      </trkpt>
      <trkpt lat="50.60962" lon="3.26617">
        <ele>-15.6</ele>
        <time>2018-06-26T11:47:57Z</time>
      </trkpt>
      <trkpt lat="50.60958" lon="3.26629">
        <ele>-15.6</ele>
        <time>2018-06-26T11:48:01Z</time>
      </trkpt>
      <trkpt lat="50.60955" lon="3.26639">
        <ele>-16</ele>
        <time>2018-06-26T11:48:05Z</time>
      </trkpt>
      <trkpt lat="50.60952" lon="3.2665">
        <ele>-15.8</ele>
        <time>2018-06-26T11:48:09Z</time>
      </trkpt>
      <trkpt lat="50.60949" lon="3.26659">
        <ele>-15.6</ele>
        <time>2018-06-26T11:48:13Z</time>
      </trkpt>
      <trkpt lat="50.60945" lon="3.26669">
        <ele>-15.8</ele>
        <time>2018-06-26T11:48:17Z</time>
      </trkpt>
      <trkpt lat="50.6094" lon="3.26679">
        <ele>-15.6</ele>
        <time>2018-06-26T11:48:21Z</time>
      </trkpt>
      <trkpt lat="50.60935" lon="3.26689">
        <ele>-15.4</ele>
        <time>2018-06-26T11:48:25Z</time>
      </trkpt>
      <trkpt lat="50.6093" lon="3.26696">
        <ele>-15.4</ele>
        <time>2018-06-26T11:48:29Z</time>
      </trkpt>
      <trkpt lat="50.60925" lon="3.26703">
        <ele>-15.8</ele>
        <time>2018-06-26T11:48:33Z</time>
      </trkpt>
      <trkpt lat="50.6092" lon="3.26709">
        <ele>-15.2</ele>
        <time>2018-06-26T11:48:37Z</time>
      </trkpt>
      <trkpt lat="50.60914" lon="3.26715">
        <ele>-15.2</ele>
        <time>2018-06-26T11:48:41Z</time>
      </trkpt>
      <trkpt lat="50.6091" lon="3.26721">
        <ele>-15.8</ele>
        <time>2018-06-26T11:48:45Z</time>
      </trkpt>
      <trkpt lat="50.60905" lon="3.26727">
        <ele>-15.2</ele>
        <time>2018-06-26T11:48:49Z</time>
      </trkpt>
      <trkpt lat="50.60901" lon="3.26732">
        <ele>-15.6</ele>
        <time>2018-06-26T11:48:53Z</time>
      </trkpt>
      <trkpt lat="50.60896" lon="3.26739">
        <ele>-15.8</ele>
        <time>2018-06-26T11:48:57Z</time>
      </trkpt>
      <trkpt lat="50.60891" lon="3.26744">
        <ele>-15.4</ele>
        <time>2018-06-26T11:49:01Z</time>
      </trkpt>
      <trkpt lat="50.60886" lon="3.2675">
        <ele>-15.2</ele>
        <time>2018-06-26T11:49:05Z</time>
      </trkpt>
      <trkpt lat="50.60881" lon="3.26756">
        <ele>-15.2</ele>
        <time>2018-06-26T11:49:09Z</time>
      </trkpt>
      <trkpt lat="50.60876" lon="3.26762">
        <ele>-15.2</ele>
        <time>2018-06-26T11:49:13Z</time>
      </trkpt>
      <trkpt lat="50.60872" lon="3.26767">
        <ele>-15.2</ele>
        <time>2018-06-26T11:49:17Z</time>
      </trkpt>
      <trkpt lat="50.60867" lon="3.26773">
        <ele>-14.8</ele>
        <time>2018-06-26T11:49:21Z</time>
      </trkpt>
      <trkpt lat="50.60862" lon="3.26779">
        <ele>-15.2</ele>
        <time>2018-06-26T11:49:25Z</time>
      </trkpt>
      <trkpt lat="50.60857" lon="3.26786">
        <ele>-14.8</ele>
        <time>2018-06-26T11:49:29Z</time>
      </trkpt>
      <trkpt lat="50.60852" lon="3.26793">
        <ele>-15</ele>
        <time>2018-06-26T11:49:33Z</time>
      </trkpt>
      <trkpt lat="50.60846" lon="3.268">
        <ele>-14.8</ele>
        <time>2018-06-26T11:49:37Z</time>
      </trkpt>
      <trkpt lat="50.60841" lon="3.26807">
        <ele>-14.6</ele>
        <time>2018-06-26T11:49:41Z</time>
      </trkpt>
      <trkpt lat="50.60835" lon="3.26813">
        <ele>-14.6</ele>
        <time>2018-06-26T11:49:45Z</time>
      </trkpt>
      <trkpt lat="50.6083" lon="3.2682">
        <ele>-14.8</ele>
        <time>2018-06-26T11:49:49Z</time>
      </trkpt>
      <trkpt lat="50.60825" lon="3.26827">
        <ele>-14.6</ele>
        <time>2018-06-26T11:49:53Z</time>
      </trkpt>
      <trkpt lat="50.6082" lon="3.26833">
        <ele>-15</ele>
        <time>2018-06-26T11:49:57Z</time>
      </trkpt>
      <trkpt lat="50.60815" lon="3.26838">
        <ele>-14.2</ele>
        <time>2018-06-26T11:50:01Z</time>
      </trkpt>
      <trkpt lat="50.60811" lon="3.26843">
        <ele>-13.4</ele>
        <time>2018-06-26T11:50:05Z</time>
      </trkpt>
      <trkpt lat="50.60807" lon="3.26848">
        <ele>-13</ele>
        <time>2018-06-26T11:50:09Z</time>
      </trkpt>
      <trkpt lat="50.60801" lon="3.26856">
        <ele>-13.8</ele>
        <time>2018-06-26T11:50:13Z</time>
      </trkpt>
      <trkpt lat="50.60801" lon="3.26868">
        <ele>-14</ele>
        <time>2018-06-26T11:50:17Z</time>
      </trkpt>
      <trkpt lat="50.60801" lon="3.26881">
        <ele>-13.4</ele>
        <time>2018-06-26T11:50:21Z</time>
      </trkpt>
      <trkpt lat="50.608" lon="3.26895">
        <ele>-13.6</ele>
        <time>2018-06-26T11:50:25Z</time>
      </trkpt>
      <trkpt lat="50.60799" lon="3.26912">
        <ele>-13.4</ele>
        <time>2018-06-26T11:50:29Z</time>
      </trkpt>
      <trkpt lat="50.60798" lon="3.2693">
        <ele>-13.8</ele>
        <time>2018-06-26T11:50:33Z</time>
      </trkpt>
      <trkpt lat="50.60796" lon="3.2695">
        <ele>-13</ele>
        <time>2018-06-26T11:50:37Z</time>
      </trkpt>
      <trkpt lat="50.60794" lon="3.2697">
        <ele>-13.2</ele>
        <time>2018-06-26T11:50:41Z</time>
      </trkpt>
      <trkpt lat="50.60792" lon="3.26988">
        <ele>-13.2</ele>
        <time>2018-06-26T11:50:45Z</time>
      </trkpt>
      <trkpt lat="50.6079" lon="3.27006">
        <ele>-12.2</ele>
        <time>2018-06-26T11:50:49Z</time>
      </trkpt>
      <trkpt lat="50.60789" lon="3.27023">
        <ele>-13.4</ele>
        <time>2018-06-26T11:50:53Z</time>
      </trkpt>
      <trkpt lat="50.60788" lon="3.27041">
        <ele>-13.2</ele>
        <time>2018-06-26T11:50:57Z</time>
      </trkpt>
      <trkpt lat="50.60787" lon="3.27058">
        <ele>-13.4</ele>
        <time>2018-06-26T11:51:01Z</time>
      </trkpt>
      <trkpt lat="50.60787" lon="3.27074">
        <ele>-13.8</ele>
        <time>2018-06-26T11:51:05Z</time>
      </trkpt>
      <trkpt lat="50.60787" lon="3.2709">
        <ele>-13.4</ele>
        <time>2018-06-26T11:51:09Z</time>
      </trkpt>
      <trkpt lat="50.60783" lon="3.27103">
        <ele>-13.6</ele>
        <time>2018-06-26T11:51:13Z</time>
      </trkpt>
      <trkpt lat="50.60773" lon="3.27105">
        <ele>-13.4</ele>
        <time>2018-06-26T11:51:17Z</time>
      </trkpt>
      <trkpt lat="50.60763" lon="3.27106">
        <ele>-14</ele>
        <time>2018-06-26T11:51:21Z</time>
      </trkpt>
      <trkpt lat="50.60752" lon="3.27106">
        <ele>-13.8</ele>
        <time>2018-06-26T11:51:25Z</time>
      </trkpt>
      <trkpt lat="50.6074" lon="3.27106">
        <ele>-13.4</ele>
        <time>2018-06-26T11:51:29Z</time>
      </trkpt>
      <trkpt lat="50.60727" lon="3.27106">
        <ele>-13.6</ele>
        <time>2018-06-26T11:51:33Z</time>
      </trkpt>
      <trkpt lat="50.60715" lon="3.27106">
        <ele>-13.2</ele>
        <time>2018-06-26T11:51:37Z</time>
      </trkpt>
      <trkpt lat="50.60701" lon="3.27106">
        <ele>-13.2</ele>
        <time>2018-06-26T11:51:41Z</time>
      </trkpt>
      <trkpt lat="50.60688" lon="3.27106">
        <ele>-13</ele>
        <time>2018-06-26T11:51:45Z</time>
      </trkpt>
      <trkpt lat="50.60675" lon="3.27104">
        <ele>-12.6</ele>
        <time>2018-06-26T11:51:49Z</time>
      </trkpt>
      <trkpt lat="50.60662" lon="3.27103">
        <ele>-12.8</ele>
        <time>2018-06-26T11:51:53Z</time>
      </trkpt>
      <trkpt lat="50.60649" lon="3.27101">
        <ele>-12.2</ele>
        <time>2018-06-26T11:51:57Z</time>
      </trkpt>
      <trkpt lat="50.60637" lon="3.271">
        <ele>-12</ele>
        <time>2018-06-26T11:52:01Z</time>
      </trkpt>
      <trkpt lat="50.60625" lon="3.27098">
        <ele>-11.6</ele>
        <time>2018-06-26T11:52:05Z</time>
      </trkpt>
      <trkpt lat="50.60614" lon="3.27096">
        <ele>-11.2</ele>
        <time>2018-06-26T11:52:09Z</time>
      </trkpt>
      <trkpt lat="50.60603" lon="3.27093">
        <ele>-11</ele>
        <time>2018-06-26T11:52:13Z</time>
      </trkpt>
      <trkpt lat="50.60592" lon="3.2709">
        <ele>-10.6</ele>
        <time>2018-06-26T11:52:17Z</time>
      </trkpt>
      <trkpt lat="50.60581" lon="3.27088">
        <ele>-10</ele>
        <time>2018-06-26T11:52:21Z</time>
      </trkpt>
      <trkpt lat="50.6057" lon="3.27085">
        <ele>-9.6</ele>
        <time>2018-06-26T11:52:25Z</time>
      </trkpt>
      <trkpt lat="50.60559" lon="3.27083">
        <ele>-9.2</ele>
        <time>2018-06-26T11:52:29Z</time>
      </trkpt>
      <trkpt lat="50.60548" lon="3.27081">
        <ele>-8.6</ele>
        <time>2018-06-26T11:52:33Z</time>
      </trkpt>
      <trkpt lat="50.60539" lon="3.27075">
        <ele>-8</ele>
        <time>2018-06-26T11:52:37Z</time>
      </trkpt>
      <trkpt lat="50.60536" lon="3.27063">
        <ele>-7.4</ele>
        <time>2018-06-26T11:52:41Z</time>
      </trkpt>
      <trkpt lat="50.60538" lon="3.2705">
        <ele>-7.2</ele>
        <time>2018-06-26T11:52:45Z</time>
      </trkpt>
      <trkpt lat="50.6054" lon="3.27038">
        <ele>-6.4</ele>
        <time>2018-06-26T11:52:49Z</time>
      </trkpt>
      <trkpt lat="50.6054" lon="3.27026">
        <ele>-6.4</ele>
        <time>2018-06-26T11:52:53Z</time>
      </trkpt>
      <trkpt lat="50.6054" lon="3.27012">
        <ele>-6.8</ele>
        <time>2018-06-26T11:52:57Z</time>
      </trkpt>
      <trkpt lat="50.6054" lon="3.26995">
        <ele>-7</ele>
        <time>2018-06-26T11:53:01Z</time>
      </trkpt>
      <trkpt lat="50.6054" lon="3.26978">
        <ele>-6.4</ele>
        <time>2018-06-26T11:53:05Z</time>
      </trkpt>
      <trkpt lat="50.60541" lon="3.26962">
        <ele>-7.6</ele>
        <time>2018-06-26T11:53:09Z</time>
      </trkpt>
      <trkpt lat="50.60542" lon="3.26946">
        <ele>-6.4</ele>
        <time>2018-06-26T11:53:13Z</time>
      </trkpt>
      <trkpt lat="50.60543" lon="3.26929">
        <ele>-6.8</ele>
        <time>2018-06-26T11:53:17Z</time>
      </trkpt>
      <trkpt lat="50.60544" lon="3.26911">
        <ele>-6.4</ele>
        <time>2018-06-26T11:53:21Z</time>
      </trkpt>
      <trkpt lat="50.60545" lon="3.26893">
        <ele>-6.4</ele>
        <time>2018-06-26T11:53:25Z</time>
      </trkpt>
      <trkpt lat="50.60546" lon="3.26874">
        <ele>-6.6</ele>
        <time>2018-06-26T11:53:29Z</time>
      </trkpt>
      <trkpt lat="50.60546" lon="3.26855">
        <ele>-7</ele>
        <time>2018-06-26T11:53:33Z</time>
      </trkpt>
      <trkpt lat="50.60547" lon="3.26837">
        <ele>-6.8</ele>
        <time>2018-06-26T11:53:37Z</time>
      </trkpt>
      <trkpt lat="50.60548" lon="3.26819">
        <ele>-7</ele>
        <time>2018-06-26T11:53:41Z</time>
      </trkpt>
      <trkpt lat="50.60548" lon="3.26799">
        <ele>-6</ele>
        <time>2018-06-26T11:53:45Z</time>
      </trkpt>
      <trkpt lat="50.60549" lon="3.2678">
        <ele>-6.2</ele>
        <time>2018-06-26T11:53:49Z</time>
      </trkpt>
      <trkpt lat="50.60549" lon="3.26761">
        <ele>-7</ele>
        <time>2018-06-26T11:53:53Z</time>
      </trkpt>
      <trkpt lat="50.6055" lon="3.2674">
        <ele>-7</ele>
        <time>2018-06-26T11:53:57Z</time>
      </trkpt>
      <trkpt lat="50.6055" lon="3.2672">
        <ele>-7.2</ele>
        <time>2018-06-26T11:54:01Z</time>
      </trkpt>
      <trkpt lat="50.6055" lon="3.26699">
        <ele>-7.4</ele>
        <time>2018-06-26T11:54:05Z</time>
      </trkpt>
      <trkpt lat="50.6055" lon="3.26677">
        <ele>-7.8</ele>
        <time>2018-06-26T11:54:09Z</time>
      </trkpt>
      <trkpt lat="50.6055" lon="3.26655">
        <ele>-8.4</ele>
        <time>2018-06-26T11:54:13Z</time>
      </trkpt>
      <trkpt lat="50.6055" lon="3.26635">
        <ele>-8.6</ele>
        <time>2018-06-26T11:54:17Z</time>
      </trkpt>
      <trkpt lat="50.6055" lon="3.26616">
        <ele>-8.2</ele>
        <time>2018-06-26T11:54:21Z</time>
      </trkpt>
      <trkpt lat="50.6055" lon="3.26596">
        <ele>-8.2</ele>
        <time>2018-06-26T11:54:25Z</time>
      </trkpt>
      <trkpt lat="50.6055" lon="3.26577">
        <ele>-8.2</ele>
        <time>2018-06-26T11:54:29Z</time>
      </trkpt>
      <trkpt lat="50.6055" lon="3.26558">
        <ele>-8.8</ele>
        <time>2018-06-26T11:54:33Z</time>
      </trkpt>
      <trkpt lat="50.60549" lon="3.26538">
        <ele>-8.8</ele>
        <time>2018-06-26T11:54:37Z</time>
      </trkpt>
      <trkpt lat="50.6055" lon="3.26518">
        <ele>-8.4</ele>
        <time>2018-06-26T11:54:41Z</time>
      </trkpt>
      <trkpt lat="50.60549" lon="3.26499">
        <ele>-8.8</ele>
        <time>2018-06-26T11:54:45Z</time>
      </trkpt>
      <trkpt lat="50.60549" lon="3.26479">
        <ele>-8</ele>
        <time>2018-06-26T11:54:49Z</time>
      </trkpt>
      <trkpt lat="50.6055" lon="3.26458">
        <ele>-8.4</ele>
        <time>2018-06-26T11:54:53Z</time>
      </trkpt>
      <trkpt lat="50.6055" lon="3.26438">
        <ele>-7.4</ele>
        <time>2018-06-26T11:54:57Z</time>
      </trkpt>
      <trkpt lat="50.6055" lon="3.26417">
        <ele>-7.6</ele>
        <time>2018-06-26T11:55:01Z</time>
      </trkpt>
      <trkpt lat="50.6055" lon="3.26397">
        <ele>-7.8</ele>
        <time>2018-06-26T11:55:05Z</time>
      </trkpt>
      <trkpt lat="50.60551" lon="3.26377">
        <ele>-7.4</ele>
        <time>2018-06-26T11:55:09Z</time>
      </trkpt>
      <trkpt lat="50.60551" lon="3.26356">
        <ele>-6.8</ele>
        <time>2018-06-26T11:55:13Z</time>
      </trkpt>
      <trkpt lat="50.60551" lon="3.26335">
        <ele>-7.2</ele>
        <time>2018-06-26T11:55:17Z</time>
      </trkpt>
      <trkpt lat="50.60551" lon="3.26315">
        <ele>-7.2</ele>
        <time>2018-06-26T11:55:21Z</time>
      </trkpt>
      <trkpt lat="50.60549" lon="3.26296">
        <ele>-7</ele>
        <time>2018-06-26T11:55:25Z</time>
      </trkpt>
      <trkpt lat="50.60547" lon="3.26276">
        <ele>-7.4</ele>
        <time>2018-06-26T11:55:29Z</time>
      </trkpt>
      <trkpt lat="50.60545" lon="3.26256">
        <ele>-7</ele>
        <time>2018-06-26T11:55:33Z</time>
      </trkpt>
      <trkpt lat="50.60544" lon="3.26236">
        <ele>-7</ele>
        <time>2018-06-26T11:55:37Z</time>
      </trkpt>
      <trkpt lat="50.60541" lon="3.26216">
        <ele>-6.4</ele>
        <time>2018-06-26T11:55:41Z</time>
      </trkpt>
      <trkpt lat="50.6054" lon="3.26195">
        <ele>-6.8</ele>
        <time>2018-06-26T11:55:45Z</time>
      </trkpt>
      <trkpt lat="50.6054" lon="3.26174">
        <ele>-7.4</ele>
        <time>2018-06-26T11:55:49Z</time>
      </trkpt>
      <trkpt lat="50.6054" lon="3.26154">
        <ele>-6.8</ele>
        <time>2018-06-26T11:55:53Z</time>
      </trkpt>
      <trkpt lat="50.60541" lon="3.26133">
        <ele>-7</ele>
        <time>2018-06-26T11:55:57Z</time>
      </trkpt>
      <trkpt lat="50.60541" lon="3.26111">
        <ele>-6.4</ele>
        <time>2018-06-26T11:56:01Z</time>
      </trkpt>
      <trkpt lat="50.60542" lon="3.26091">
        <ele>-6.4</ele>
        <time>2018-06-26T11:56:05Z</time>
      </trkpt>
      <trkpt lat="50.60542" lon="3.2607">
        <ele>-6.4</ele>
        <time>2018-06-26T11:56:09Z</time>
      </trkpt>
      <trkpt lat="50.60543" lon="3.26049">
        <ele>-6.2</ele>
        <time>2018-06-26T11:56:13Z</time>
      </trkpt>
      <trkpt lat="50.60543" lon="3.26028">
        <ele>-6</ele>
        <time>2018-06-26T11:56:17Z</time>
      </trkpt>
      <trkpt lat="50.60544" lon="3.26007">
        <ele>-6</ele>
        <time>2018-06-26T11:56:21Z</time>
      </trkpt>
      <trkpt lat="50.60544" lon="3.25985">
        <ele>-6.8</ele>
        <time>2018-06-26T11:56:25Z</time>
      </trkpt>
      <trkpt lat="50.60545" lon="3.25963">
        <ele>-6</ele>
        <time>2018-06-26T11:56:29Z</time>
      </trkpt>
      <trkpt lat="50.60545" lon="3.25942">
        <ele>-5.2</ele>
        <time>2018-06-26T11:56:33Z</time>
      </trkpt>
      <trkpt lat="50.60546" lon="3.25921">
        <ele>-6</ele>
        <time>2018-06-26T11:56:37Z</time>
      </trkpt>
      <trkpt lat="50.60547" lon="3.25899">
        <ele>-5.8</ele>
        <time>2018-06-26T11:56:41Z</time>
      </trkpt>
      <trkpt lat="50.60547" lon="3.25877">
        <ele>-6</ele>
        <time>2018-06-26T11:56:45Z</time>
      </trkpt>
      <trkpt lat="50.60548" lon="3.25854">
        <ele>-6.4</ele>
        <time>2018-06-26T11:56:49Z</time>
      </trkpt>
      <trkpt lat="50.60549" lon="3.25829">
        <ele>-6.8</ele>
        <time>2018-06-26T11:56:53Z</time>
      </trkpt>
      <trkpt lat="50.6055" lon="3.25805">
        <ele>-6.8</ele>
        <time>2018-06-26T11:56:57Z</time>
      </trkpt>
      <trkpt lat="50.6055" lon="3.25782">
        <ele>-7</ele>
        <time>2018-06-26T11:57:01Z</time>
      </trkpt>
      <trkpt lat="50.6055" lon="3.25758">
        <ele>-7</ele>
        <time>2018-06-26T11:57:05Z</time>
      </trkpt>
      <trkpt lat="50.6055" lon="3.25732">
        <ele>-7.8</ele>
        <time>2018-06-26T11:57:09Z</time>
      </trkpt>
      <trkpt lat="50.60551" lon="3.25709">
        <ele>-8.4</ele>
        <time>2018-06-26T11:57:13Z</time>
      </trkpt>
      <trkpt lat="50.6055" lon="3.25688">
        <ele>-9.8</ele>
        <time>2018-06-26T11:57:17Z</time>
      </trkpt>
      <trkpt lat="50.60548" lon="3.25666">
        <ele>-10</ele>
        <time>2018-06-26T11:57:21Z</time>
      </trkpt>
      <trkpt lat="50.60546" lon="3.25645">
        <ele>-9.4</ele>
        <time>2018-06-26T11:57:25Z</time>
      </trkpt>
      <trkpt lat="50.60544" lon="3.25623">
        <ele>-10.2</ele>
        <time>2018-06-26T11:57:29Z</time>
      </trkpt>
      <trkpt lat="50.60542" lon="3.256">
        <ele>-10.6</ele>
        <time>2018-06-26T11:57:33Z</time>
      </trkpt>
      <trkpt lat="50.60541" lon="3.25578">
        <ele>-10.8</ele>
        <time>2018-06-26T11:57:37Z</time>
      </trkpt>
      <trkpt lat="50.6054" lon="3.25559">
        <ele>-11.6</ele>
        <time>2018-06-26T11:57:41Z</time>
      </trkpt>
      <trkpt lat="50.60539" lon="3.25542">
        <ele>-11.8</ele>
        <time>2018-06-26T11:57:45Z</time>
      </trkpt>
      <trkpt lat="50.60538" lon="3.25518">
        <ele>-13</ele>
        <time>2018-06-26T11:57:49Z</time>
      </trkpt>
      <trkpt lat="50.6054" lon="3.25494">
        <ele>-13.4</ele>
        <time>2018-06-26T11:57:53Z</time>
      </trkpt>
      <trkpt lat="50.60542" lon="3.2547">
        <ele>-13.4</ele>
        <time>2018-06-26T11:57:57Z</time>
      </trkpt>
      <trkpt lat="50.60547" lon="3.2545">
        <ele>-13.6</ele>
        <time>2018-06-26T11:58:01Z</time>
      </trkpt>
      <trkpt lat="50.60552" lon="3.25432">
        <ele>-13.6</ele>
        <time>2018-06-26T11:58:05Z</time>
      </trkpt>
      <trkpt lat="50.60559" lon="3.25416">
        <ele>-13.8</ele>
        <time>2018-06-26T11:58:09Z</time>
      </trkpt>
      <trkpt lat="50.60564" lon="3.25402">
        <ele>-14</ele>
        <time>2018-06-26T11:58:13Z</time>
      </trkpt>
      <trkpt lat="50.60564" lon="3.25392">
        <ele>-13.8</ele>
        <time>2018-06-26T11:58:17Z</time>
      </trkpt>
      <trkpt lat="50.60556" lon="3.25385">
        <ele>-13.8</ele>
        <time>2018-06-26T11:58:21Z</time>
      </trkpt>
      <trkpt lat="50.60546" lon="3.25375">
        <ele>-13.2</ele>
        <time>2018-06-26T11:58:25Z</time>
      </trkpt>
      <trkpt lat="50.60536" lon="3.25364">
        <ele>-13.4</ele>
        <time>2018-06-26T11:58:29Z</time>
      </trkpt>
      <trkpt lat="50.60526" lon="3.25352">
        <ele>-13</ele>
        <time>2018-06-26T11:58:33Z</time>
      </trkpt>
      <trkpt lat="50.60515" lon="3.25341">
        <ele>-13.4</ele>
        <time>2018-06-26T11:58:37Z</time>
      </trkpt>
      <trkpt lat="50.60504" lon="3.2533">
        <ele>-13</ele>
        <time>2018-06-26T11:58:41Z</time>
      </trkpt>
      <trkpt lat="50.60492" lon="3.25317">
        <ele>-12.2</ele>
        <time>2018-06-26T11:58:45Z</time>
      </trkpt>
      <trkpt lat="50.60479" lon="3.25304">
        <ele>-12.6</ele>
        <time>2018-06-26T11:58:49Z</time>
      </trkpt>
      <trkpt lat="50.60467" lon="3.25289">
        <ele>-11.6</ele>
        <time>2018-06-26T11:58:53Z</time>
      </trkpt>
      <trkpt lat="50.60454" lon="3.25275">
        <ele>-11.6</ele>
        <time>2018-06-26T11:58:57Z</time>
      </trkpt>
      <trkpt lat="50.60441" lon="3.25259">
        <ele>-10.8</ele>
        <time>2018-06-26T11:59:01Z</time>
      </trkpt>
      <trkpt lat="50.60428" lon="3.25244">
        <ele>-10.6</ele>
        <time>2018-06-26T11:59:05Z</time>
      </trkpt>
      <trkpt lat="50.60415" lon="3.2523">
        <ele>-10.8</ele>
        <time>2018-06-26T11:59:09Z</time>
      </trkpt>
      <trkpt lat="50.60402" lon="3.25218">
        <ele>-10.2</ele>
        <time>2018-06-26T11:59:13Z</time>
      </trkpt>
      <trkpt lat="50.60387" lon="3.25205">
        <ele>-10.2</ele>
        <time>2018-06-26T11:59:17Z</time>
      </trkpt>
      <trkpt lat="50.60373" lon="3.25192">
        <ele>-10</ele>
        <time>2018-06-26T11:59:21Z</time>
      </trkpt>
      <trkpt lat="50.60359" lon="3.2518">
        <ele>-9.8</ele>
        <time>2018-06-26T11:59:25Z</time>
      </trkpt>
      <trkpt lat="50.60344" lon="3.25169">
        <ele>-9.8</ele>
        <time>2018-06-26T11:59:29Z</time>
      </trkpt>
      <trkpt lat="50.60329" lon="3.25156">
        <ele>-9.8</ele>
        <time>2018-06-26T11:59:33Z</time>
      </trkpt>
      <trkpt lat="50.60317" lon="3.25143">
        <ele>-9.2</ele>
        <time>2018-06-26T11:59:37Z</time>
      </trkpt>
      <trkpt lat="50.60306" lon="3.25131">
        <ele>-9.4</ele>
        <time>2018-06-26T11:59:41Z</time>
      </trkpt>
      <trkpt lat="50.60294" lon="3.25123">
        <ele>-9.6</ele>
        <time>2018-06-26T11:59:45Z</time>
      </trkpt>
      <trkpt lat="50.60281" lon="3.25116">
        <ele>-10.6</ele>
        <time>2018-06-26T11:59:49Z</time>
      </trkpt>
      <trkpt lat="50.60268" lon="3.2511">
        <ele>-10.6</ele>
        <time>2018-06-26T11:59:53Z</time>
      </trkpt>
      <trkpt lat="50.60254" lon="3.25104">
        <ele>-10</ele>
        <time>2018-06-26T11:59:57Z</time>
      </trkpt>
      <trkpt lat="50.60243" lon="3.25092">
        <ele>-10.4</ele>
        <time>2018-06-26T12:00:01Z</time>
      </trkpt>
      <trkpt lat="50.60241" lon="3.2507">
        <ele>-9.4</ele>
        <time>2018-06-26T12:00:05Z</time>
      </trkpt>
      <trkpt lat="50.60249" lon="3.2505">
        <ele>-9.6</ele>
        <time>2018-06-26T12:00:09Z</time>
      </trkpt>
      <trkpt lat="50.60259" lon="3.25031">
        <ele>-9</ele>
        <time>2018-06-26T12:00:13Z</time>
      </trkpt>
      <trkpt lat="50.6027" lon="3.25013">
        <ele>-8.6</ele>
        <time>2018-06-26T12:00:17Z</time>
      </trkpt>
      <trkpt lat="50.60278" lon="3.24992">
        <ele>-8.8</ele>
        <time>2018-06-26T12:00:21Z</time>
      </trkpt>
      <trkpt lat="50.60287" lon="3.24971">
        <ele>-8.8</ele>
        <time>2018-06-26T12:00:25Z</time>
      </trkpt>
      <trkpt lat="50.60296" lon="3.2495">
        <ele>-8.8</ele>
        <time>2018-06-26T12:00:29Z</time>
      </trkpt>
      <trkpt lat="50.60305" lon="3.24929">
        <ele>-8.4</ele>
        <time>2018-06-26T12:00:33Z</time>
      </trkpt>
      <trkpt lat="50.60313" lon="3.24908">
        <ele>-8.8</ele>
        <time>2018-06-26T12:00:37Z</time>
      </trkpt>
      <trkpt lat="50.60322" lon="3.24886">
        <ele>-8.2</ele>
        <time>2018-06-26T12:00:41Z</time>
      </trkpt>
      <trkpt lat="50.60331" lon="3.24864">
        <ele>-8</ele>
        <time>2018-06-26T12:00:45Z</time>
      </trkpt>
      <trkpt lat="50.6034" lon="3.24842">
        <ele>-7.6</ele>
        <time>2018-06-26T12:00:49Z</time>
      </trkpt>
      <trkpt lat="50.60348" lon="3.2482">
        <ele>-7.8</ele>
        <time>2018-06-26T12:00:53Z</time>
      </trkpt>
      <trkpt lat="50.60357" lon="3.24797">
        <ele>-7.6</ele>
        <time>2018-06-26T12:00:57Z</time>
      </trkpt>
      <trkpt lat="50.60366" lon="3.24775">
        <ele>-7.8</ele>
        <time>2018-06-26T12:01:01Z</time>
      </trkpt>
      <trkpt lat="50.60375" lon="3.24751">
        <ele>-7.6</ele>
        <time>2018-06-26T12:01:05Z</time>
      </trkpt>
      <trkpt lat="50.60384" lon="3.24727">
        <ele>-7.4</ele>
        <time>2018-06-26T12:01:09Z</time>
      </trkpt>
      <trkpt lat="50.60393" lon="3.24704">
        <ele>-6.8</ele>
        <time>2018-06-26T12:01:13Z</time>
      </trkpt>
      <trkpt lat="50.60402" lon="3.24681">
        <ele>-7.2</ele>
        <time>2018-06-26T12:01:17Z</time>
      </trkpt>
      <trkpt lat="50.6041" lon="3.24657">
        <ele>-7</ele>
        <time>2018-06-26T12:01:21Z</time>
      </trkpt>
      <trkpt lat="50.60419" lon="3.24634">
        <ele>-7</ele>
        <time>2018-06-26T12:01:25Z</time>
      </trkpt>
      <trkpt lat="50.60428" lon="3.24611">
        <ele>-6.8</ele>
        <time>2018-06-26T12:01:29Z</time>
      </trkpt>
      <trkpt lat="50.60436" lon="3.24587">
        <ele>-6.8</ele>
        <time>2018-06-26T12:01:33Z</time>
      </trkpt>
      <trkpt lat="50.60445" lon="3.24564">
        <ele>-6.4</ele>
        <time>2018-06-26T12:01:37Z</time>
      </trkpt>
      <trkpt lat="50.60454" lon="3.24542">
        <ele>-6.4</ele>
        <time>2018-06-26T12:01:41Z</time>
      </trkpt>
      <trkpt lat="50.60462" lon="3.2452">
        <ele>-6.2</ele>
        <time>2018-06-26T12:01:45Z</time>
      </trkpt>
      <trkpt lat="50.6047" lon="3.24498">
        <ele>-6.4</ele>
        <time>2018-06-26T12:01:49Z</time>
      </trkpt>
      <trkpt lat="50.60479" lon="3.24475">
        <ele>-6.6</ele>
        <time>2018-06-26T12:01:53Z</time>
      </trkpt>
      <trkpt lat="50.60487" lon="3.24451">
        <ele>-5.8</ele>
        <time>2018-06-26T12:01:57Z</time>
      </trkpt>
      <trkpt lat="50.60496" lon="3.24427">
        <ele>-6.4</ele>
        <time>2018-06-26T12:02:01Z</time>
      </trkpt>
      <trkpt lat="50.60504" lon="3.24402">
        <ele>-6.8</ele>
        <time>2018-06-26T12:02:05Z</time>
      </trkpt>
      <trkpt lat="50.60513" lon="3.24378">
        <ele>-7.2</ele>
        <time>2018-06-26T12:02:09Z</time>
      </trkpt>
      <trkpt lat="50.60521" lon="3.24355">
        <ele>-7.2</ele>
        <time>2018-06-26T12:02:13Z</time>
      </trkpt>
      <trkpt lat="50.60528" lon="3.24333">
        <ele>-6.6</ele>
        <time>2018-06-26T12:02:17Z</time>
      </trkpt>
      <trkpt lat="50.60535" lon="3.2431">
        <ele>-7</ele>
        <time>2018-06-26T12:02:21Z</time>
      </trkpt>
      <trkpt lat="50.60543" lon="3.24288">
        <ele>-7.4</ele>
        <time>2018-06-26T12:02:25Z</time>
      </trkpt>
      <trkpt lat="50.6055" lon="3.24267">
        <ele>-7</ele>
        <time>2018-06-26T12:02:29Z</time>
      </trkpt>
      <trkpt lat="50.60556" lon="3.24247">
        <ele>-7.4</ele>
        <time>2018-06-26T12:02:33Z</time>
      </trkpt>
      <trkpt lat="50.60554" lon="3.2423">
        <ele>-8</ele>
        <time>2018-06-26T12:02:37Z</time>
      </trkpt>
      <trkpt lat="50.60544" lon="3.2422">
        <ele>-7</ele>
        <time>2018-06-26T12:02:41Z</time>
      </trkpt>
      <trkpt lat="50.60533" lon="3.24211">
        <ele>-7.4</ele>
        <time>2018-06-26T12:02:45Z</time>
      </trkpt>
      <trkpt lat="50.60521" lon="3.242">
        <ele>-7.2</ele>
        <time>2018-06-26T12:02:49Z</time>
      </trkpt>
      <trkpt lat="50.60508" lon="3.24188">
        <ele>-6.8</ele>
        <time>2018-06-26T12:02:53Z</time>
      </trkpt>
      <trkpt lat="50.60496" lon="3.24176">
        <ele>-6.8</ele>
        <time>2018-06-26T12:02:57Z</time>
      </trkpt>
      <trkpt lat="50.60482" lon="3.24165">
        <ele>-7</ele>
        <time>2018-06-26T12:03:01Z</time>
      </trkpt>
      <trkpt lat="50.60469" lon="3.24153">
        <ele>-6.6</ele>
        <time>2018-06-26T12:03:05Z</time>
      </trkpt>
      <trkpt lat="50.60455" lon="3.24142">
        <ele>-6.4</ele>
        <time>2018-06-26T12:03:09Z</time>
      </trkpt>
      <trkpt lat="50.60441" lon="3.24131">
        <ele>-6.2</ele>
        <time>2018-06-26T12:03:13Z</time>
      </trkpt>
      <trkpt lat="50.60426" lon="3.24121">
        <ele>-6</ele>
        <time>2018-06-26T12:03:17Z</time>
      </trkpt>
      <trkpt lat="50.60411" lon="3.24111">
        <ele>-6</ele>
        <time>2018-06-26T12:03:21Z</time>
      </trkpt>
      <trkpt lat="50.60396" lon="3.24102">
        <ele>-6</ele>
        <time>2018-06-26T12:03:25Z</time>
      </trkpt>
      <trkpt lat="50.60381" lon="3.24093">
        <ele>-6</ele>
        <time>2018-06-26T12:03:29Z</time>
      </trkpt>
      <trkpt lat="50.60366" lon="3.24085">
        <ele>-6</ele>
        <time>2018-06-26T12:03:33Z</time>
      </trkpt>
      <trkpt lat="50.60352" lon="3.24078">
        <ele>-5.8</ele>
        <time>2018-06-26T12:03:37Z</time>
      </trkpt>
      <trkpt lat="50.60337" lon="3.24069">
        <ele>-5.6</ele>
        <time>2018-06-26T12:03:41Z</time>
      </trkpt>
      <trkpt lat="50.60323" lon="3.2406">
        <ele>-6.2</ele>
        <time>2018-06-26T12:03:45Z</time>
      </trkpt>
      <trkpt lat="50.60308" lon="3.2405">
        <ele>-6.2</ele>
        <time>2018-06-26T12:03:49Z</time>
      </trkpt>
      <trkpt lat="50.60294" lon="3.2404">
        <ele>-5.4</ele>
        <time>2018-06-26T12:03:53Z</time>
      </trkpt>
      <trkpt lat="50.6028" lon="3.2403">
        <ele>-6</ele>
        <time>2018-06-26T12:03:57Z</time>
      </trkpt>
      <trkpt lat="50.60265" lon="3.2402">
        <ele>-5.6</ele>
        <time>2018-06-26T12:04:01Z</time>
      </trkpt>
      <trkpt lat="50.60251" lon="3.2401">
        <ele>-5.8</ele>
        <time>2018-06-26T12:04:05Z</time>
      </trkpt>
      <trkpt lat="50.60239" lon="3.23994">
        <ele>-4.6</ele>
        <time>2018-06-26T12:04:09Z</time>
      </trkpt>
      <trkpt lat="50.60231" lon="3.23972">
        <ele>-5.6</ele>
        <time>2018-06-26T12:04:13Z</time>
      </trkpt>
      <trkpt lat="50.60225" lon="3.23948">
        <ele>-5.6</ele>
        <time>2018-06-26T12:04:17Z</time>
      </trkpt>
      <trkpt lat="50.60222" lon="3.2392">
        <ele>-5.2</ele>
        <time>2018-06-26T12:04:21Z</time>
      </trkpt>
      <trkpt lat="50.60222" lon="3.23892">
        <ele>-5.2</ele>
        <time>2018-06-26T12:04:25Z</time>
      </trkpt>
      <trkpt lat="50.60225" lon="3.23863">
        <ele>-5.2</ele>
        <time>2018-06-26T12:04:29Z</time>
      </trkpt>
      <trkpt lat="50.60227" lon="3.23836">
        <ele>-5.2</ele>
        <time>2018-06-26T12:04:33Z</time>
      </trkpt>
      <trkpt lat="50.6023" lon="3.23808">
        <ele>-4.8</ele>
        <time>2018-06-26T12:04:37Z</time>
      </trkpt>
      <trkpt lat="50.60232" lon="3.23779">
        <ele>-5</ele>
        <time>2018-06-26T12:04:41Z</time>
      </trkpt>
      <trkpt lat="50.60235" lon="3.2375">
        <ele>-4.6</ele>
        <time>2018-06-26T12:04:45Z</time>
      </trkpt>
      <trkpt lat="50.60238" lon="3.2372">
        <ele>-4.8</ele>
        <time>2018-06-26T12:04:49Z</time>
      </trkpt>
      <trkpt lat="50.60241" lon="3.2369">
        <ele>-4.6</ele>
        <time>2018-06-26T12:04:53Z</time>
      </trkpt>
      <trkpt lat="50.60243" lon="3.23662">
        <ele>-4.6</ele>
        <time>2018-06-26T12:04:57Z</time>
      </trkpt>
      <trkpt lat="50.60246" lon="3.23633">
        <ele>-4.2</ele>
        <time>2018-06-26T12:05:01Z</time>
      </trkpt>
      <trkpt lat="50.60248" lon="3.23603">
        <ele>-4.6</ele>
        <time>2018-06-26T12:05:05Z</time>
      </trkpt>
      <trkpt lat="50.60251" lon="3.23573">
        <ele>-4.6</ele>
        <time>2018-06-26T12:05:09Z</time>
      </trkpt>
      <trkpt lat="50.60253" lon="3.23544">
        <ele>-5</ele>
        <time>2018-06-26T12:05:13Z</time>
      </trkpt>
      <trkpt lat="50.60257" lon="3.23513">
        <ele>-4.6</ele>
        <time>2018-06-26T12:05:17Z</time>
      </trkpt>
      <trkpt lat="50.60259" lon="3.23484">
        <ele>-4.8</ele>
        <time>2018-06-26T12:05:21Z</time>
      </trkpt>
      <trkpt lat="50.60262" lon="3.23455">
        <ele>-5</ele>
        <time>2018-06-26T12:05:25Z</time>
      </trkpt>
      <trkpt lat="50.60264" lon="3.23426">
        <ele>-5.6</ele>
        <time>2018-06-26T12:05:29Z</time>
      </trkpt>
      <trkpt lat="50.60267" lon="3.23397">
        <ele>-5.6</ele>
        <time>2018-06-26T12:05:33Z</time>
      </trkpt>
      <trkpt lat="50.60269" lon="3.23369">
        <ele>-5.4</ele>
        <time>2018-06-26T12:05:37Z</time>
      </trkpt>
      <trkpt lat="50.60272" lon="3.2334">
        <ele>-5.4</ele>
        <time>2018-06-26T12:05:41Z</time>
      </trkpt>
      <trkpt lat="50.60274" lon="3.23311">
        <ele>-6</ele>
        <time>2018-06-26T12:05:45Z</time>
      </trkpt>
      <trkpt lat="50.60277" lon="3.23283">
        <ele>-6.6</ele>
        <time>2018-06-26T12:05:49Z</time>
      </trkpt>
      <trkpt lat="50.6028" lon="3.23253">
        <ele>-6.4</ele>
        <time>2018-06-26T12:05:53Z</time>
      </trkpt>
      <trkpt lat="50.60283" lon="3.23222">
        <ele>-6.6</ele>
        <time>2018-06-26T12:05:57Z</time>
      </trkpt>
      <trkpt lat="50.60285" lon="3.23192">
        <ele>-6.6</ele>
        <time>2018-06-26T12:06:01Z</time>
      </trkpt>
      <trkpt lat="50.60288" lon="3.23162">
        <ele>-7</ele>
        <time>2018-06-26T12:06:05Z</time>
      </trkpt>
      <trkpt lat="50.60291" lon="3.23133">
        <ele>-7</ele>
        <time>2018-06-26T12:06:09Z</time>
      </trkpt>
      <trkpt lat="50.60293" lon="3.23105">
        <ele>-6.8</ele>
        <time>2018-06-26T12:06:13Z</time>
      </trkpt>
      <trkpt lat="50.60297" lon="3.23078">
        <ele>-7.4</ele>
        <time>2018-06-26T12:06:17Z</time>
      </trkpt>
      <trkpt lat="50.60305" lon="3.23053">
        <ele>-7.8</ele>
        <time>2018-06-26T12:06:21Z</time>
      </trkpt>
      <trkpt lat="50.60315" lon="3.23032">
        <ele>-8.4</ele>
        <time>2018-06-26T12:06:25Z</time>
      </trkpt>
      <trkpt lat="50.60325" lon="3.23009">
        <ele>-9.2</ele>
        <time>2018-06-26T12:06:29Z</time>
      </trkpt>
      <trkpt lat="50.60329" lon="3.22989">
        <ele>-9.8</ele>
        <time>2018-06-26T12:06:33Z</time>
      </trkpt>
      <trkpt lat="50.6033" lon="3.22978">
        <ele>-9.8</ele>
        <time>2018-06-26T12:06:37Z</time>
      </trkpt>
      <trkpt lat="50.6033" lon="3.2297">
        <ele>-10</ele>
        <time>2018-06-26T12:06:41Z</time>
      </trkpt>
      <trkpt lat="50.60319" lon="3.22964">
        <ele>-9.4</ele>
        <time>2018-06-26T12:06:45Z</time>
      </trkpt>
      <trkpt lat="50.60303" lon="3.22964">
        <ele>-9.2</ele>
        <time>2018-06-26T12:06:49Z</time>
      </trkpt>
      <trkpt lat="50.60291" lon="3.22965">
        <ele>-8.4</ele>
        <time>2018-06-26T12:06:53Z</time>
      </trkpt>
      <trkpt lat="50.60275" lon="3.22967">
        <ele>-8.2</ele>
        <time>2018-06-26T12:06:57Z</time>
      </trkpt>
      <trkpt lat="50.60255" lon="3.22965">
        <ele>-8</ele>
        <time>2018-06-26T12:07:01Z</time>
      </trkpt>
      <trkpt lat="50.60237" lon="3.22963">
        <ele>-8</ele>
        <time>2018-06-26T12:07:05Z</time>
      </trkpt>
      <trkpt lat="50.60221" lon="3.22962">
        <ele>-8.4</ele>
        <time>2018-06-26T12:07:09Z</time>
      </trkpt>
      <trkpt lat="50.60205" lon="3.22961">
        <ele>-8.4</ele>
        <time>2018-06-26T12:07:13Z</time>
      </trkpt>
      <trkpt lat="50.60189" lon="3.22961">
        <ele>-8</ele>
        <time>2018-06-26T12:07:17Z</time>
      </trkpt>
      <trkpt lat="50.60171" lon="3.2296">
        <ele>-8.2</ele>
        <time>2018-06-26T12:07:21Z</time>
      </trkpt>
      <trkpt lat="50.60154" lon="3.22959">
        <ele>-7.8</ele>
        <time>2018-06-26T12:07:25Z</time>
      </trkpt>
      <trkpt lat="50.60136" lon="3.22959">
        <ele>-7.4</ele>
        <time>2018-06-26T12:07:29Z</time>
      </trkpt>
      <trkpt lat="50.60117" lon="3.22958">
        <ele>-7</ele>
        <time>2018-06-26T12:07:33Z</time>
      </trkpt>
      <trkpt lat="50.60099" lon="3.22957">
        <ele>-7</ele>
        <time>2018-06-26T12:07:37Z</time>
      </trkpt>
      <trkpt lat="50.6008" lon="3.22956">
        <ele>-7</ele>
        <time>2018-06-26T12:07:41Z</time>
      </trkpt>
      <trkpt lat="50.60061" lon="3.22956">
        <ele>-7.2</ele>
        <time>2018-06-26T12:07:45Z</time>
      </trkpt>
      <trkpt lat="50.60042" lon="3.22955">
        <ele>-6.6</ele>
        <time>2018-06-26T12:07:49Z</time>
      </trkpt>
      <trkpt lat="50.60023" lon="3.22954">
        <ele>-6.2</ele>
        <time>2018-06-26T12:07:53Z</time>
      </trkpt>
      <trkpt lat="50.60004" lon="3.22953">
        <ele>-6</ele>
        <time>2018-06-26T12:07:57Z</time>
      </trkpt>
      <trkpt lat="50.59984" lon="3.22953">
        <ele>-6</ele>
        <time>2018-06-26T12:08:01Z</time>
      </trkpt>
      <trkpt lat="50.59966" lon="3.22952">
        <ele>-5.6</ele>
        <time>2018-06-26T12:08:05Z</time>
      </trkpt>
      <trkpt lat="50.59947" lon="3.22951">
        <ele>-5.2</ele>
        <time>2018-06-26T12:08:09Z</time>
      </trkpt>
      <trkpt lat="50.59928" lon="3.22951">
        <ele>-4.8</ele>
        <time>2018-06-26T12:08:13Z</time>
      </trkpt>
      <trkpt lat="50.59909" lon="3.22951">
        <ele>-5</ele>
        <time>2018-06-26T12:08:17Z</time>
      </trkpt>
      <trkpt lat="50.5989" lon="3.22953">
        <ele>-4.6</ele>
        <time>2018-06-26T12:08:21Z</time>
      </trkpt>
      <trkpt lat="50.59871" lon="3.22955">
        <ele>-4.4</ele>
        <time>2018-06-26T12:08:25Z</time>
      </trkpt>
      <trkpt lat="50.59851" lon="3.2296">
        <ele>-4.6</ele>
        <time>2018-06-26T12:08:29Z</time>
      </trkpt>
      <trkpt lat="50.59831" lon="3.22966">
        <ele>-4.2</ele>
        <time>2018-06-26T12:08:33Z</time>
      </trkpt>
      <trkpt lat="50.59812" lon="3.22973">
        <ele>-4.2</ele>
        <time>2018-06-26T12:08:37Z</time>
      </trkpt>
      <trkpt lat="50.59792" lon="3.22979">
        <ele>-4.4</ele>
        <time>2018-06-26T12:08:41Z</time>
      </trkpt>
      <trkpt lat="50.59773" lon="3.22986">
        <ele>-3.8</ele>
        <time>2018-06-26T12:08:45Z</time>
      </trkpt>
      <trkpt lat="50.59753" lon="3.22993">
        <ele>-3.8</ele>
        <time>2018-06-26T12:08:49Z</time>
      </trkpt>
      <trkpt lat="50.59734" lon="3.22999">
        <ele>-4</ele>
        <time>2018-06-26T12:08:53Z</time>
      </trkpt>
      <trkpt lat="50.59714" lon="3.23005">
        <ele>-4.2</ele>
        <time>2018-06-26T12:08:57Z</time>
      </trkpt>
      <trkpt lat="50.59694" lon="3.23009">
        <ele>-3.6</ele>
        <time>2018-06-26T12:09:01Z</time>
      </trkpt>
      <trkpt lat="50.59674" lon="3.23011">
        <ele>-3.4</ele>
        <time>2018-06-26T12:09:05Z</time>
      </trkpt>
      <trkpt lat="50.59654" lon="3.23011">
        <ele>-3.2</ele>
        <time>2018-06-26T12:09:09Z</time>
      </trkpt>
      <trkpt lat="50.59633" lon="3.23008">
        <ele>-2.8</ele>
        <time>2018-06-26T12:09:13Z</time>
      </trkpt>
      <trkpt lat="50.59613" lon="3.23005">
        <ele>-2.4</ele>
        <time>2018-06-26T12:09:17Z</time>
      </trkpt>
      <trkpt lat="50.59592" lon="3.22999">
        <ele>-2.2</ele>
        <time>2018-06-26T12:09:21Z</time>
      </trkpt>
      <trkpt lat="50.59571" lon="3.22992">
        <ele>-2.4</ele>
        <time>2018-06-26T12:09:25Z</time>
      </trkpt>
      <trkpt lat="50.5955" lon="3.22983">
        <ele>-1.4</ele>
        <time>2018-06-26T12:09:29Z</time>
      </trkpt>
      <trkpt lat="50.5953" lon="3.22973">
        <ele>-1.8</ele>
        <time>2018-06-26T12:09:33Z</time>
      </trkpt>
      <trkpt lat="50.5951" lon="3.22963">
        <ele>-1.4</ele>
        <time>2018-06-26T12:09:37Z</time>
      </trkpt>
      <trkpt lat="50.5949" lon="3.22953">
        <ele>-1.4</ele>
        <time>2018-06-26T12:09:41Z</time>
      </trkpt>
      <trkpt lat="50.59469" lon="3.22943">
        <ele>-1.2</ele>
        <time>2018-06-26T12:09:45Z</time>
      </trkpt>
      <trkpt lat="50.59449" lon="3.22933">
        <ele>-0.8</ele>
        <time>2018-06-26T12:09:49Z</time>
      </trkpt>
      <trkpt lat="50.59429" lon="3.22923">
        <ele>-0.8</ele>
        <time>2018-06-26T12:09:53Z</time>
      </trkpt>
      <trkpt lat="50.59408" lon="3.22913">
        <ele>-1</ele>
        <time>2018-06-26T12:09:57Z</time>
      </trkpt>
      <trkpt lat="50.59388" lon="3.22905">
        <ele>-0.4</ele>
        <time>2018-06-26T12:10:01Z</time>
      </trkpt>
      <trkpt lat="50.59367" lon="3.22899">
        <ele>48.9</ele>
        <time>2018-06-26T12:10:05Z</time>
      </trkpt>
      <trkpt lat="50.59346" lon="3.22892">
        <ele>-0.2</ele>
        <time>2018-06-26T12:10:09Z</time>
      </trkpt>
      <trkpt lat="50.59325" lon="3.22886">
        <ele>48.9</ele>
        <time>2018-06-26T12:10:13Z</time>
      </trkpt>
      <trkpt lat="50.59304" lon="3.2288">
        <ele>-0.2</ele>
        <time>2018-06-26T12:10:17Z</time>
      </trkpt>
      <trkpt lat="50.59283" lon="3.22874">
        <ele>0.2</ele>
        <time>2018-06-26T12:10:21Z</time>
      </trkpt>
      <trkpt lat="50.59262" lon="3.22868">
        <ele>0.4</ele>
        <time>2018-06-26T12:10:25Z</time>
      </trkpt>
      <trkpt lat="50.59241" lon="3.22864">
        <ele>0.6</ele>
        <time>2018-06-26T12:10:29Z</time>
      </trkpt>
      <trkpt lat="50.59219" lon="3.22863">
        <ele>0.8</ele>
        <time>2018-06-26T12:10:33Z</time>
      </trkpt>
      <trkpt lat="50.59198" lon="3.22864">
        <ele>0.8</ele>
        <time>2018-06-26T12:10:37Z</time>
      </trkpt>
      <trkpt lat="50.59177" lon="3.22867">
        <ele>0.6</ele>
        <time>2018-06-26T12:10:41Z</time>
      </trkpt>
      <trkpt lat="50.59155" lon="3.2287">
        <ele>0.8</ele>
        <time>2018-06-26T12:10:45Z</time>
      </trkpt>
      <trkpt lat="50.59133" lon="3.22874">
        <ele>0.6</ele>
        <time>2018-06-26T12:10:49Z</time>
      </trkpt>
      <trkpt lat="50.59112" lon="3.22878">
        <ele>1</ele>
        <time>2018-06-26T12:10:53Z</time>
      </trkpt>
      <trkpt lat="50.5909" lon="3.22881">
        <ele>1</ele>
        <time>2018-06-26T12:10:57Z</time>
      </trkpt>
      <trkpt lat="50.59069" lon="3.22885">
        <ele>1.2</ele>
        <time>2018-06-26T12:11:01Z</time>
      </trkpt>
      <trkpt lat="50.59048" lon="3.22889">
        <ele>1.8</ele>
        <time>2018-06-26T12:11:05Z</time>
      </trkpt>
      <trkpt lat="50.59027" lon="3.22892">
        <ele>1.4</ele>
        <time>2018-06-26T12:11:09Z</time>
      </trkpt>
      <trkpt lat="50.59005" lon="3.22896">
        <ele>1.2</ele>
        <time>2018-06-26T12:11:13Z</time>
      </trkpt>
      <trkpt lat="50.58983" lon="3.229">
        <ele>2.4</ele>
        <time>2018-06-26T12:11:17Z</time>
      </trkpt>
      <trkpt lat="50.58961" lon="3.22902">
        <ele>1.4</ele>
        <time>2018-06-26T12:11:21Z</time>
      </trkpt>
      <trkpt lat="50.58938" lon="3.22901">
        <ele>1.8</ele>
        <time>2018-06-26T12:11:25Z</time>
      </trkpt>
      <trkpt lat="50.58916" lon="3.22897">
        <ele>2</ele>
        <time>2018-06-26T12:11:29Z</time>
      </trkpt>
      <trkpt lat="50.58894" lon="3.2289">
        <ele>1.6</ele>
        <time>2018-06-26T12:11:33Z</time>
      </trkpt>
      <trkpt lat="50.58872" lon="3.22879">
        <ele>1.6</ele>
        <time>2018-06-26T12:11:37Z</time>
      </trkpt>
      <trkpt lat="50.58851" lon="3.22867">
        <ele>2.2</ele>
        <time>2018-06-26T12:11:41Z</time>
      </trkpt>
      <trkpt lat="50.58831" lon="3.22852">
        <ele>2.2</ele>
        <time>2018-06-26T12:11:45Z</time>
      </trkpt>
      <trkpt lat="50.58811" lon="3.22836">
        <ele>2.2</ele>
        <time>2018-06-26T12:11:49Z</time>
      </trkpt>
      <trkpt lat="50.58791" lon="3.2282">
        <ele>2.4</ele>
        <time>2018-06-26T12:11:53Z</time>
      </trkpt>
      <trkpt lat="50.58771" lon="3.22803">
        <ele>2.2</ele>
        <time>2018-06-26T12:11:57Z</time>
      </trkpt>
      <trkpt lat="50.5875" lon="3.22786">
        <ele>2.2</ele>
        <time>2018-06-26T12:12:01Z</time>
      </trkpt>
      <trkpt lat="50.5873" lon="3.22769">
        <ele>2.6</ele>
        <time>2018-06-26T12:12:05Z</time>
      </trkpt>
      <trkpt lat="50.5871" lon="3.22751">
        <ele>2.6</ele>
        <time>2018-06-26T12:12:09Z</time>
      </trkpt>
      <trkpt lat="50.5869" lon="3.22732">
        <ele>2.8</ele>
        <time>2018-06-26T12:12:13Z</time>
      </trkpt>
      <trkpt lat="50.58671" lon="3.22712">
        <ele>2.6</ele>
        <time>2018-06-26T12:12:17Z</time>
      </trkpt>
      <trkpt lat="50.58652" lon="3.22692">
        <ele>3</ele>
        <time>2018-06-26T12:12:21Z</time>
      </trkpt>
      <trkpt lat="50.58633" lon="3.2267">
        <ele>3</ele>
        <time>2018-06-26T12:12:25Z</time>
      </trkpt>
      <trkpt lat="50.58614" lon="3.22649">
        <ele>3.4</ele>
        <time>2018-06-26T12:12:29Z</time>
      </trkpt>
      <trkpt lat="50.58595" lon="3.22627">
        <ele>3.2</ele>
        <time>2018-06-26T12:12:33Z</time>
      </trkpt>
      <trkpt lat="50.58576" lon="3.22605">
        <ele>3.4</ele>
        <time>2018-06-26T12:12:37Z</time>
      </trkpt>
      <trkpt lat="50.58558" lon="3.22584">
        <ele>2.8</ele>
        <time>2018-06-26T12:12:41Z</time>
      </trkpt>
      <trkpt lat="50.5854" lon="3.22563">
        <ele>2.8</ele>
        <time>2018-06-26T12:12:45Z</time>
      </trkpt>
      <trkpt lat="50.58521" lon="3.22541">
        <ele>2.8</ele>
        <time>2018-06-26T12:12:49Z</time>
      </trkpt>
      <trkpt lat="50.58502" lon="3.22519">
        <ele>2.6</ele>
        <time>2018-06-26T12:12:53Z</time>
      </trkpt>
      <trkpt lat="50.58483" lon="3.22497">
        <ele>2.4</ele>
        <time>2018-06-26T12:12:57Z</time>
      </trkpt>
      <trkpt lat="50.58463" lon="3.22476">
        <ele>2</ele>
        <time>2018-06-26T12:13:01Z</time>
      </trkpt>
      <trkpt lat="50.58442" lon="3.22455">
        <ele>1.6</ele>
        <time>2018-06-26T12:13:05Z</time>
      </trkpt>
      <trkpt lat="50.5842" lon="3.22434">
        <ele>1.4</ele>
        <time>2018-06-26T12:13:09Z</time>
      </trkpt>
      <trkpt lat="50.58398" lon="3.22414">
        <ele>1</ele>
        <time>2018-06-26T12:13:13Z</time>
      </trkpt>
      <trkpt lat="50.58376" lon="3.22393">
        <ele>0.6</ele>
        <time>2018-06-26T12:13:17Z</time>
      </trkpt>
      <trkpt lat="50.58354" lon="3.22373">
        <ele>0.4</ele>
        <time>2018-06-26T12:13:21Z</time>
      </trkpt>
      <trkpt lat="50.58332" lon="3.22353">
        <ele>49</ele>
        <time>2018-06-26T12:13:25Z</time>
      </trkpt>
      <trkpt lat="50.5831" lon="3.22332">
        <ele>-0.2</ele>
        <time>2018-06-26T12:13:29Z</time>
      </trkpt>
      <trkpt lat="50.58288" lon="3.22312">
        <ele>0.2</ele>
        <time>2018-06-26T12:13:33Z</time>
      </trkpt>
      <trkpt lat="50.58266" lon="3.22291">
        <ele>-0.6</ele>
        <time>2018-06-26T12:13:37Z</time>
      </trkpt>
      <trkpt lat="50.58245" lon="3.22269">
        <ele>-0.8</ele>
        <time>2018-06-26T12:13:41Z</time>
      </trkpt>
      <trkpt lat="50.58224" lon="3.22246">
        <ele>-0.8</ele>
        <time>2018-06-26T12:13:45Z</time>
      </trkpt>
      <trkpt lat="50.58203" lon="3.22221">
        <ele>-1</ele>
        <time>2018-06-26T12:13:49Z</time>
      </trkpt>
      <trkpt lat="50.58183" lon="3.22197">
        <ele>-1.2</ele>
        <time>2018-06-26T12:13:53Z</time>
      </trkpt>
      <trkpt lat="50.58163" lon="3.22172">
        <ele>-1.2</ele>
        <time>2018-06-26T12:13:57Z</time>
      </trkpt>
      <trkpt lat="50.58143" lon="3.22147">
        <ele>-1</ele>
        <time>2018-06-26T12:14:01Z</time>
      </trkpt>
      <trkpt lat="50.58124" lon="3.22122">
        <ele>-1.4</ele>
        <time>2018-06-26T12:14:05Z</time>
      </trkpt>
      <trkpt lat="50.58104" lon="3.22098">
        <ele>-1.2</ele>
        <time>2018-06-26T12:14:09Z</time>
      </trkpt>
      <trkpt lat="50.58084" lon="3.22074">
        <ele>-1.6</ele>
        <time>2018-06-26T12:14:13Z</time>
      </trkpt>
      <trkpt lat="50.58062" lon="3.22054">
        <ele>-1.6</ele>
        <time>2018-06-26T12:14:17Z</time>
      </trkpt>
      <trkpt lat="50.58041" lon="3.22034">
        <ele>-1</ele>
        <time>2018-06-26T12:14:21Z</time>
      </trkpt>
      <trkpt lat="50.58019" lon="3.22015">
        <ele>-1.2</ele>
        <time>2018-06-26T12:14:25Z</time>
      </trkpt>
      <trkpt lat="50.57998" lon="3.21996">
        <ele>-0.6</ele>
        <time>2018-06-26T12:14:29Z</time>
      </trkpt>
      <trkpt lat="50.57978" lon="3.21976">
        <ele>0.2</ele>
        <time>2018-06-26T12:14:33Z</time>
      </trkpt>
      <trkpt lat="50.57956" lon="3.21957">
        <ele>0.2</ele>
        <time>2018-06-26T12:14:37Z</time>
      </trkpt>
      <trkpt lat="50.57933" lon="3.21938">
        <ele>0.6</ele>
        <time>2018-06-26T12:14:41Z</time>
      </trkpt>
      <trkpt lat="50.57911" lon="3.21917">
        <ele>1</ele>
        <time>2018-06-26T12:14:45Z</time>
      </trkpt>
      <trkpt lat="50.57888" lon="3.21897">
        <ele>1.4</ele>
        <time>2018-06-26T12:14:49Z</time>
      </trkpt>
      <trkpt lat="50.57867" lon="3.21878">
        <ele>3</ele>
        <time>2018-06-26T12:14:53Z</time>
      </trkpt>
      <trkpt lat="50.57848" lon="3.21861">
        <ele>3.2</ele>
        <time>2018-06-26T12:14:57Z</time>
      </trkpt>
      <trkpt lat="50.57829" lon="3.21845">
        <ele>4.6</ele>
        <time>2018-06-26T12:15:01Z</time>
      </trkpt>
      <trkpt lat="50.57809" lon="3.21832">
        <ele>4.6</ele>
        <time>2018-06-26T12:15:05Z</time>
      </trkpt>
      <trkpt lat="50.57788" lon="3.21821">
        <ele>5.8</ele>
        <time>2018-06-26T12:15:09Z</time>
      </trkpt>
      <trkpt lat="50.57768" lon="3.21814">
        <ele>5.6</ele>
        <time>2018-06-26T12:15:13Z</time>
      </trkpt>
      <trkpt lat="50.57749" lon="3.21808">
        <ele>6.2</ele>
        <time>2018-06-26T12:15:17Z</time>
      </trkpt>
      <trkpt lat="50.57732" lon="3.21805">
        <ele>6.2</ele>
        <time>2018-06-26T12:15:21Z</time>
      </trkpt>
      <trkpt lat="50.57712" lon="3.21802">
        <ele>5.8</ele>
        <time>2018-06-26T12:15:25Z</time>
      </trkpt>
      <trkpt lat="50.57692" lon="3.21799">
        <ele>5.6</ele>
        <time>2018-06-26T12:15:29Z</time>
      </trkpt>
      <trkpt lat="50.57671" lon="3.21796">
        <ele>5.2</ele>
        <time>2018-06-26T12:15:33Z</time>
      </trkpt>
      <trkpt lat="50.57647" lon="3.21793">
        <ele>4.6</ele>
        <time>2018-06-26T12:15:37Z</time>
      </trkpt>
      <trkpt lat="50.57622" lon="3.2179">
        <ele>3.6</ele>
        <time>2018-06-26T12:15:41Z</time>
      </trkpt>
      <trkpt lat="50.57597" lon="3.21785">
        <ele>3.2</ele>
        <time>2018-06-26T12:15:45Z</time>
      </trkpt>
      <trkpt lat="50.57574" lon="3.21773">
        <ele>1.6</ele>
        <time>2018-06-26T12:15:49Z</time>
      </trkpt>
      <trkpt lat="50.5755" lon="3.21761">
        <ele>0.8</ele>
        <time>2018-06-26T12:15:53Z</time>
      </trkpt>
      <trkpt lat="50.57534" lon="3.21739">
        <ele>-1.2</ele>
        <time>2018-06-26T12:15:57Z</time>
      </trkpt>
      <trkpt lat="50.57524" lon="3.21733">
        <ele>-2</ele>
        <time>2018-06-26T12:16:01Z</time>
      </trkpt>
      <trkpt lat="50.57514" lon="3.21738">
        <ele>-2.2</ele>
        <time>2018-06-26T12:16:05Z</time>
      </trkpt>
      <trkpt lat="50.57508" lon="3.21751">
        <ele>-2.2</ele>
        <time>2018-06-26T12:16:09Z</time>
      </trkpt>
      <trkpt lat="50.57492" lon="3.21752">
        <ele>-2.8</ele>
        <time>2018-06-26T12:16:13Z</time>
      </trkpt>
      <trkpt lat="50.57476" lon="3.21746">
        <ele>-3.2</ele>
        <time>2018-06-26T12:16:17Z</time>
      </trkpt>
      <trkpt lat="50.5746" lon="3.21739">
        <ele>-3.2</ele>
        <time>2018-06-26T12:16:21Z</time>
      </trkpt>
      <trkpt lat="50.57443" lon="3.21732">
        <ele>-3.2</ele>
        <time>2018-06-26T12:16:25Z</time>
      </trkpt>
      <trkpt lat="50.57425" lon="3.21726">
        <ele>-3.6</ele>
        <time>2018-06-26T12:16:29Z</time>
      </trkpt>
      <trkpt lat="50.57406" lon="3.21719">
        <ele>-4.2</ele>
        <time>2018-06-26T12:16:33Z</time>
      </trkpt>
      <trkpt lat="50.57387" lon="3.21712">
        <ele>-4</ele>
        <time>2018-06-26T12:16:37Z</time>
      </trkpt>
      <trkpt lat="50.57368" lon="3.21705">
        <ele>-4.4</ele>
        <time>2018-06-26T12:16:41Z</time>
      </trkpt>
      <trkpt lat="50.57348" lon="3.21696">
        <ele>-4.2</ele>
        <time>2018-06-26T12:16:45Z</time>
      </trkpt>
      <trkpt lat="50.57329" lon="3.21688">
        <ele>-4.6</ele>
        <time>2018-06-26T12:16:49Z</time>
      </trkpt>
      <trkpt lat="50.5731" lon="3.2168">
        <ele>-4.6</ele>
        <time>2018-06-26T12:16:53Z</time>
      </trkpt>
      <trkpt lat="50.57294" lon="3.21674">
        <ele>-5</ele>
        <time>2018-06-26T12:16:57Z</time>
      </trkpt>
      <trkpt lat="50.57285" lon="3.21673">
        <ele>-5.4</ele>
        <time>2018-06-26T12:17:01Z</time>
      </trkpt>
      <trkpt lat="50.57293" lon="3.21681">
        <ele>-5.2</ele>
        <time>2018-06-26T12:17:05Z</time>
      </trkpt>
      <trkpt lat="50.57303" lon="3.21687">
        <ele>-5</ele>
        <time>2018-06-26T12:17:09Z</time>
      </trkpt>
      <trkpt lat="50.57302" lon="3.21704">
        <ele>-4.8</ele>
        <time>2018-06-26T12:17:13Z</time>
      </trkpt>
      <trkpt lat="50.57299" lon="3.21723">
        <ele>-4.2</ele>
        <time>2018-06-26T12:17:17Z</time>
      </trkpt>
      <trkpt lat="50.57295" lon="3.21741">
        <ele>-4.4</ele>
        <time>2018-06-26T12:17:21Z</time>
      </trkpt>
      <trkpt lat="50.57291" lon="3.2176">
        <ele>-4.8</ele>
        <time>2018-06-26T12:17:25Z</time>
      </trkpt>
      <trkpt lat="50.57287" lon="3.2178">
        <ele>-4.4</ele>
        <time>2018-06-26T12:17:29Z</time>
      </trkpt>
      <trkpt lat="50.57282" lon="3.21801">
        <ele>-4.2</ele>
        <time>2018-06-26T12:17:33Z</time>
      </trkpt>
      <trkpt lat="50.57277" lon="3.21822">
        <ele>-4.4</ele>
        <time>2018-06-26T12:17:37Z</time>
      </trkpt>
      <trkpt lat="50.57272" lon="3.21841">
        <ele>-4.2</ele>
        <time>2018-06-26T12:17:41Z</time>
      </trkpt>
      <trkpt lat="50.57261" lon="3.21851">
        <ele>-4.6</ele>
        <time>2018-06-26T12:17:45Z</time>
      </trkpt>
      <trkpt lat="50.57247" lon="3.21844">
        <ele>-4.8</ele>
        <time>2018-06-26T12:17:49Z</time>
      </trkpt>
      <trkpt lat="50.57232" lon="3.21839">
        <ele>-5</ele>
        <time>2018-06-26T12:17:53Z</time>
      </trkpt>
      <trkpt lat="50.57219" lon="3.21851">
        <ele>-5.2</ele>
        <time>2018-06-26T12:17:57Z</time>
      </trkpt>
      <trkpt lat="50.57206" lon="3.21867">
        <ele>-5.6</ele>
        <time>2018-06-26T12:18:01Z</time>
      </trkpt>
      <trkpt lat="50.57196" lon="3.21879">
        <ele>-5.6</ele>
        <time>2018-06-26T12:18:05Z</time>
      </trkpt>
      <trkpt lat="50.57187" lon="3.21894">
        <ele>-5.4</ele>
        <time>2018-06-26T12:18:09Z</time>
      </trkpt>
      <trkpt lat="50.5718" lon="3.219">
        <ele>-5</ele>
        <time>2018-06-26T12:18:13Z</time>
      </trkpt>
      <trkpt lat="50.57176" lon="3.21898">
        <ele>-5</ele>
        <time>2018-06-26T12:18:17Z</time>
      </trkpt>
      <trkpt lat="50.5717" lon="3.21897">
        <ele>-5.2</ele>
        <time>2018-06-26T12:18:21Z</time>
      </trkpt>
      <trkpt lat="50.57164" lon="3.21894">
        <ele>-5</ele>
        <time>2018-06-26T12:18:25Z</time>
      </trkpt>
      <trkpt lat="50.57158" lon="3.21892">
        <ele>-5</ele>
        <time>2018-06-26T12:18:29Z</time>
      </trkpt>
      <trkpt lat="50.5715" lon="3.21889">
        <ele>-5.4</ele>
        <time>2018-06-26T12:18:33Z</time>
      </trkpt>
      <trkpt lat="50.57143" lon="3.21884">
        <ele>-5</ele>
        <time>2018-06-26T12:18:37Z</time>
      </trkpt>
      <trkpt lat="50.57134" lon="3.21881">
        <ele>-5.6</ele>
        <time>2018-06-26T12:18:41Z</time>
      </trkpt>
      <trkpt lat="50.57125" lon="3.21877">
        <ele>-5.6</ele>
        <time>2018-06-26T12:18:45Z</time>
      </trkpt>
      <trkpt lat="50.57115" lon="3.21873">
        <ele>-5.6</ele>
        <time>2018-06-26T12:18:49Z</time>
      </trkpt>
      <trkpt lat="50.57105" lon="3.21869">
        <ele>-5.6</ele>
        <time>2018-06-26T12:18:53Z</time>
      </trkpt>
      <trkpt lat="50.57094" lon="3.2187">
        <ele>-5.4</ele>
        <time>2018-06-26T12:18:57Z</time>
      </trkpt>
      <trkpt lat="50.57084" lon="3.21881">
        <ele>-5.4</ele>
        <time>2018-06-26T12:19:01Z</time>
      </trkpt>
      <trkpt lat="50.57076" lon="3.21891">
        <ele>-5.4</ele>
        <time>2018-06-26T12:19:05Z</time>
      </trkpt>
      <trkpt lat="50.57076" lon="3.21891">
        <ele>-5.6</ele>
        <time>2018-06-26T12:19:09Z</time>
      </trkpt>
      <trkpt lat="50.57076" lon="3.21891">
        <ele>-5.6</ele>
        <time>2018-06-26T12:19:13Z</time>
      </trkpt>
      <trkpt lat="50.57076" lon="3.21891">
        <ele>-5.6</ele>
        <time>2018-06-26T12:19:17Z</time>
      </trkpt>
      <trkpt lat="50.57076" lon="3.21891">
        <ele>-5.4</ele>
        <time>2018-06-26T12:19:21Z</time>
      </trkpt>
      <trkpt lat="50.57076" lon="3.21891">
        <ele>-5.2</ele>
        <time>2018-06-26T12:19:25Z</time>
      </trkpt>
      <trkpt lat="50.57076" lon="3.21891">
        <ele>-5.6</ele>
        <time>2018-06-26T12:19:29Z</time>
      </trkpt>
      <trkpt lat="50.57076" lon="3.21891">
        <ele>-5.4</ele>
        <time>2018-06-26T12:19:33Z</time>
      </trkpt>
      <trkpt lat="50.57076" lon="3.21891">
        <ele>-5</ele>
        <time>2018-06-26T12:19:37Z</time>
      </trkpt>
      <trkpt lat="50.57076" lon="3.21891">
        <ele>-5</ele>
        <time>2018-06-26T12:19:41Z</time>
      </trkpt>
      <trkpt lat="50.57076" lon="3.21891">
        <ele>-5.2</ele>
        <time>2018-06-26T12:19:45Z</time>
      </trkpt>
      <trkpt lat="50.57074" lon="3.21896">
        <ele>-5</ele>
        <time>2018-06-26T12:19:49Z</time>
      </trkpt>
      <trkpt lat="50.57071" lon="3.21901">
        <ele>-5.2</ele>
        <time>2018-06-26T12:19:53Z</time>
      </trkpt>
      <trkpt lat="50.57067" lon="3.2191">
        <ele>-4.8</ele>
        <time>2018-06-26T12:19:57Z</time>
      </trkpt>
      <trkpt lat="50.5706" lon="3.2192">
        <ele>-4.6</ele>
        <time>2018-06-26T12:20:01Z</time>
      </trkpt>
      <trkpt lat="50.57052" lon="3.21933">
        <ele>-4.6</ele>
        <time>2018-06-26T12:20:05Z</time>
      </trkpt>
      <trkpt lat="50.57043" lon="3.21947">
        <ele>-4.2</ele>
        <time>2018-06-26T12:20:09Z</time>
      </trkpt>
      <trkpt lat="50.57035" lon="3.21959">
        <ele>-4.2</ele>
        <time>2018-06-26T12:20:13Z</time>
      </trkpt>
      <trkpt lat="50.57027" lon="3.21972">
        <ele>-4.6</ele>
        <time>2018-06-26T12:20:17Z</time>
      </trkpt>
      <trkpt lat="50.57019" lon="3.21984">
        <ele>-4.6</ele>
        <time>2018-06-26T12:20:21Z</time>
      </trkpt>
      <trkpt lat="50.57008" lon="3.2199">
        <ele>-4.4</ele>
        <time>2018-06-26T12:20:25Z</time>
      </trkpt>
      <trkpt lat="50.56994" lon="3.21995">
        <ele>-5.4</ele>
        <time>2018-06-26T12:20:29Z</time>
      </trkpt>
      <trkpt lat="50.56976" lon="3.21991">
        <ele>-5.8</ele>
        <time>2018-06-26T12:20:33Z</time>
      </trkpt>
      <trkpt lat="50.56957" lon="3.21986">
        <ele>-7</ele>
        <time>2018-06-26T12:20:37Z</time>
      </trkpt>
      <trkpt lat="50.56936" lon="3.2198">
        <ele>-7.8</ele>
        <time>2018-06-26T12:20:41Z</time>
      </trkpt>
      <trkpt lat="50.56915" lon="3.21974">
        <ele>-7.6</ele>
        <time>2018-06-26T12:20:45Z</time>
      </trkpt>
      <trkpt lat="50.56895" lon="3.21971">
        <ele>-8.4</ele>
        <time>2018-06-26T12:20:49Z</time>
      </trkpt>
      <trkpt lat="50.5688" lon="3.21985">
        <ele>-8.6</ele>
        <time>2018-06-26T12:20:53Z</time>
      </trkpt>
      <trkpt lat="50.56867" lon="3.21996">
        <ele>-9</ele>
        <time>2018-06-26T12:20:57Z</time>
      </trkpt>
      <trkpt lat="50.56858" lon="3.21995">
        <ele>-8.8</ele>
        <time>2018-06-26T12:21:01Z</time>
      </trkpt>
      <trkpt lat="50.56858" lon="3.21995">
        <ele>-8.8</ele>
        <time>2018-06-26T12:21:05Z</time>
      </trkpt>
      <trkpt lat="50.56856" lon="3.21997">
        <ele>-9.2</ele>
        <time>2018-06-26T12:21:09Z</time>
      </trkpt>
      <trkpt lat="50.56848" lon="3.22005">
        <ele>-9.2</ele>
        <time>2018-06-26T12:21:13Z</time>
      </trkpt>
      <trkpt lat="50.56842" lon="3.22026">
        <ele>-8.6</ele>
        <time>2018-06-26T12:21:17Z</time>
      </trkpt>
      <trkpt lat="50.56836" lon="3.22048">
        <ele>-9.2</ele>
        <time>2018-06-26T12:21:21Z</time>
      </trkpt>
      <trkpt lat="50.56829" lon="3.22067">
        <ele>-10.2</ele>
        <time>2018-06-26T12:21:25Z</time>
      </trkpt>
      <trkpt lat="50.56811" lon="3.2206">
        <ele>-9.6</ele>
        <time>2018-06-26T12:21:29Z</time>
      </trkpt>
      <trkpt lat="50.56794" lon="3.22048">
        <ele>-10.2</ele>
        <time>2018-06-26T12:21:33Z</time>
      </trkpt>
      <trkpt lat="50.56777" lon="3.22037">
        <ele>-10.4</ele>
        <time>2018-06-26T12:21:37Z</time>
      </trkpt>
      <trkpt lat="50.56759" lon="3.22026">
        <ele>-11</ele>
        <time>2018-06-26T12:21:41Z</time>
      </trkpt>
      <trkpt lat="50.56741" lon="3.22019">
        <ele>-11.4</ele>
        <time>2018-06-26T12:21:45Z</time>
      </trkpt>
      <trkpt lat="50.5672" lon="3.22013">
        <ele>-12</ele>
        <time>2018-06-26T12:21:49Z</time>
      </trkpt>
      <trkpt lat="50.56701" lon="3.22001">
        <ele>-12.8</ele>
        <time>2018-06-26T12:21:53Z</time>
      </trkpt>
      <trkpt lat="50.56683" lon="3.21988">
        <ele>-14</ele>
        <time>2018-06-26T12:21:57Z</time>
      </trkpt>
      <trkpt lat="50.56664" lon="3.21975">
        <ele>-14</ele>
        <time>2018-06-26T12:22:01Z</time>
      </trkpt>
      <trkpt lat="50.56644" lon="3.21962">
        <ele>-14.2</ele>
        <time>2018-06-26T12:22:05Z</time>
      </trkpt>
      <trkpt lat="50.56627" lon="3.21949">
        <ele>-15.4</ele>
        <time>2018-06-26T12:22:09Z</time>
      </trkpt>
      <trkpt lat="50.56616" lon="3.21942">
        <ele>-15.6</ele>
        <time>2018-06-26T12:22:13Z</time>
      </trkpt>
      <trkpt lat="50.56607" lon="3.2195">
        <ele>-15.4</ele>
        <time>2018-06-26T12:22:17Z</time>
      </trkpt>
      <trkpt lat="50.566" lon="3.21969">
        <ele>-15.6</ele>
        <time>2018-06-26T12:22:21Z</time>
      </trkpt>
      <trkpt lat="50.56592" lon="3.21988">
        <ele>-15.4</ele>
        <time>2018-06-26T12:22:25Z</time>
      </trkpt>
      <trkpt lat="50.56584" lon="3.22008">
        <ele>-16</ele>
        <time>2018-06-26T12:22:29Z</time>
      </trkpt>
      <trkpt lat="50.56574" lon="3.22029">
        <ele>-15.8</ele>
        <time>2018-06-26T12:22:33Z</time>
      </trkpt>
      <trkpt lat="50.56568" lon="3.22052">
        <ele>-15.8</ele>
        <time>2018-06-26T12:22:37Z</time>
      </trkpt>
      <trkpt lat="50.56565" lon="3.22075">
        <ele>-15.6</ele>
        <time>2018-06-26T12:22:41Z</time>
      </trkpt>
      <trkpt lat="50.56561" lon="3.22098">
        <ele>-15.4</ele>
        <time>2018-06-26T12:22:45Z</time>
      </trkpt>
      <trkpt lat="50.56558" lon="3.22122">
        <ele>-15.4</ele>
        <time>2018-06-26T12:22:49Z</time>
      </trkpt>
      <trkpt lat="50.56554" lon="3.22145">
        <ele>-15.8</ele>
        <time>2018-06-26T12:22:53Z</time>
      </trkpt>
      <trkpt lat="50.56551" lon="3.2217">
        <ele>-15.8</ele>
        <time>2018-06-26T12:22:57Z</time>
      </trkpt>
      <trkpt lat="50.56549" lon="3.22192">
        <ele>-15.6</ele>
        <time>2018-06-26T12:23:01Z</time>
      </trkpt>
      <trkpt lat="50.56555" lon="3.22205">
        <ele>-16</ele>
        <time>2018-06-26T12:23:05Z</time>
      </trkpt>
      <trkpt lat="50.56562" lon="3.22216">
        <ele>-15.8</ele>
        <time>2018-06-26T12:23:09Z</time>
      </trkpt>
      <trkpt lat="50.56569" lon="3.22224">
        <ele>-15.6</ele>
        <time>2018-06-26T12:23:13Z</time>
      </trkpt>
      <trkpt lat="50.56574" lon="3.2223">
        <ele>-15.4</ele>
        <time>2018-06-26T12:23:17Z</time>
      </trkpt>
      <trkpt lat="50.56577" lon="3.22235">
        <ele>-15.6</ele>
        <time>2018-06-26T12:23:21Z</time>
      </trkpt>
      <trkpt lat="50.56576" lon="3.22239">
        <ele>-15.2</ele>
        <time>2018-06-26T12:23:25Z</time>
      </trkpt>
      <trkpt lat="50.56574" lon="3.22241">
        <ele>-15.4</ele>
        <time>2018-06-26T12:23:29Z</time>
      </trkpt>
      <trkpt lat="50.56573" lon="3.22248">
        <ele>-15.4</ele>
        <time>2018-06-26T12:23:33Z</time>
      </trkpt>
      <trkpt lat="50.56573" lon="3.22248">
        <ele>-15.2</ele>
        <time>2018-06-26T12:23:37Z</time>
      </trkpt>
      <trkpt lat="50.56573" lon="3.22248">
        <ele>-15.2</ele>
        <time>2018-06-26T12:23:41Z</time>
      </trkpt>
      <trkpt lat="50.56573" lon="3.22248">
        <ele>-15.2</ele>
        <time>2018-06-26T12:23:45Z</time>
      </trkpt>
      <trkpt lat="50.56575" lon="3.22251">
        <ele>-15.4</ele>
        <time>2018-06-26T12:23:49Z</time>
      </trkpt>
      <trkpt lat="50.56578" lon="3.22259">
        <ele>-15.6</ele>
        <time>2018-06-26T12:23:53Z</time>
      </trkpt>
      <trkpt lat="50.56583" lon="3.22272">
        <ele>-14.8</ele>
        <time>2018-06-26T12:23:57Z</time>
      </trkpt>
      <trkpt lat="50.56586" lon="3.22288">
        <ele>-14.8</ele>
        <time>2018-06-26T12:24:01Z</time>
      </trkpt>
      <trkpt lat="50.56588" lon="3.22303">
        <ele>-14.8</ele>
        <time>2018-06-26T12:24:05Z</time>
      </trkpt>
      <trkpt lat="50.56587" lon="3.22316">
        <ele>-14.4</ele>
        <time>2018-06-26T12:24:09Z</time>
      </trkpt>
      <trkpt lat="50.56586" lon="3.22331">
        <ele>-14.8</ele>
        <time>2018-06-26T12:24:13Z</time>
      </trkpt>
      <trkpt lat="50.56586" lon="3.22345">
        <ele>-14.6</ele>
        <time>2018-06-26T12:24:17Z</time>
      </trkpt>
      <trkpt lat="50.56587" lon="3.22365">
        <ele>-14.8</ele>
        <time>2018-06-26T12:24:21Z</time>
      </trkpt>
      <trkpt lat="50.56592" lon="3.2239">
        <ele>-14</ele>
        <time>2018-06-26T12:24:25Z</time>
      </trkpt>
      <trkpt lat="50.56589" lon="3.22409">
        <ele>-14.2</ele>
        <time>2018-06-26T12:24:29Z</time>
      </trkpt>
      <trkpt lat="50.56577" lon="3.22427">
        <ele>-15</ele>
        <time>2018-06-26T12:24:33Z</time>
      </trkpt>
      <trkpt lat="50.5657" lon="3.2245">
        <ele>-15</ele>
        <time>2018-06-26T12:24:37Z</time>
      </trkpt>
      <trkpt lat="50.56564" lon="3.22473">
        <ele>-15.4</ele>
        <time>2018-06-26T12:24:41Z</time>
      </trkpt>
      <trkpt lat="50.56559" lon="3.22496">
        <ele>-15</ele>
        <time>2018-06-26T12:24:45Z</time>
      </trkpt>
      <trkpt lat="50.56553" lon="3.22521">
        <ele>-15.4</ele>
        <time>2018-06-26T12:24:49Z</time>
      </trkpt>
      <trkpt lat="50.56548" lon="3.22545">
        <ele>-15.2</ele>
        <time>2018-06-26T12:24:53Z</time>
      </trkpt>
      <trkpt lat="50.56543" lon="3.2257">
        <ele>-16</ele>
        <time>2018-06-26T12:24:57Z</time>
      </trkpt>
      <trkpt lat="50.56538" lon="3.22593">
        <ele>-15.2</ele>
        <time>2018-06-26T12:25:01Z</time>
      </trkpt>
      <trkpt lat="50.56532" lon="3.22618">
        <ele>-15.2</ele>
        <time>2018-06-26T12:25:05Z</time>
      </trkpt>
      <trkpt lat="50.56527" lon="3.22643">
        <ele>-15.8</ele>
        <time>2018-06-26T12:25:09Z</time>
      </trkpt>
      <trkpt lat="50.56522" lon="3.22667">
        <ele>-15.8</ele>
        <time>2018-06-26T12:25:13Z</time>
      </trkpt>
      <trkpt lat="50.56516" lon="3.22692">
        <ele>-15.8</ele>
        <time>2018-06-26T12:25:17Z</time>
      </trkpt>
      <trkpt lat="50.56511" lon="3.22717">
        <ele>-15.2</ele>
        <time>2018-06-26T12:25:21Z</time>
      </trkpt>
      <trkpt lat="50.56506" lon="3.2274">
        <ele>-15.4</ele>
        <time>2018-06-26T12:25:25Z</time>
      </trkpt>
      <trkpt lat="50.565" lon="3.22763">
        <ele>-15.6</ele>
        <time>2018-06-26T12:25:29Z</time>
      </trkpt>
      <trkpt lat="50.56495" lon="3.22781">
        <ele>-15.6</ele>
        <time>2018-06-26T12:25:33Z</time>
      </trkpt>
      <trkpt lat="50.56489" lon="3.22797">
        <ele>-14.8</ele>
        <time>2018-06-26T12:25:37Z</time>
      </trkpt>
      <trkpt lat="50.56484" lon="3.22816">
        <ele>-15.2</ele>
        <time>2018-06-26T12:25:41Z</time>
      </trkpt>
      <trkpt lat="50.56479" lon="3.22834">
        <ele>-15.2</ele>
        <time>2018-06-26T12:25:45Z</time>
      </trkpt>
      <trkpt lat="50.56474" lon="3.22855">
        <ele>-14.6</ele>
        <time>2018-06-26T12:25:49Z</time>
      </trkpt>
      <trkpt lat="50.56471" lon="3.22876">
        <ele>-15.2</ele>
        <time>2018-06-26T12:25:53Z</time>
      </trkpt>
      <trkpt lat="50.56467" lon="3.22899">
        <ele>-14.8</ele>
        <time>2018-06-26T12:25:57Z</time>
      </trkpt>
      <trkpt lat="50.56463" lon="3.22922">
        <ele>-15</ele>
        <time>2018-06-26T12:26:01Z</time>
      </trkpt>
      <trkpt lat="50.56459" lon="3.22945">
        <ele>-14.4</ele>
        <time>2018-06-26T12:26:05Z</time>
      </trkpt>
      <trkpt lat="50.56456" lon="3.22968">
        <ele>-14.2</ele>
        <time>2018-06-26T12:26:09Z</time>
      </trkpt>
      <trkpt lat="50.56454" lon="3.22986">
        <ele>-14.4</ele>
        <time>2018-06-26T12:26:13Z</time>
      </trkpt>
      <trkpt lat="50.5645" lon="3.23006">
        <ele>-14</ele>
        <time>2018-06-26T12:26:17Z</time>
      </trkpt>
      <trkpt lat="50.56447" lon="3.23026">
        <ele>-13.6</ele>
        <time>2018-06-26T12:26:21Z</time>
      </trkpt>
      <trkpt lat="50.56442" lon="3.23033">
        <ele>-13.8</ele>
        <time>2018-06-26T12:26:25Z</time>
      </trkpt>
      <trkpt lat="50.5643" lon="3.23028">
        <ele>-14.2</ele>
        <time>2018-06-26T12:26:29Z</time>
      </trkpt>
      <trkpt lat="50.56417" lon="3.23023">
        <ele>-14.4</ele>
        <time>2018-06-26T12:26:33Z</time>
      </trkpt>
      <trkpt lat="50.56405" lon="3.23016">
        <ele>-14.6</ele>
        <time>2018-06-26T12:26:37Z</time>
      </trkpt>
      <trkpt lat="50.56391" lon="3.2301">
        <ele>-14.6</ele>
        <time>2018-06-26T12:26:41Z</time>
      </trkpt>
      <trkpt lat="50.56376" lon="3.23004">
        <ele>-14</ele>
        <time>2018-06-26T12:26:45Z</time>
      </trkpt>
      <trkpt lat="50.5636" lon="3.23">
        <ele>-14</ele>
        <time>2018-06-26T12:26:49Z</time>
      </trkpt>
      <trkpt lat="50.56345" lon="3.23001">
        <ele>-13.8</ele>
        <time>2018-06-26T12:26:53Z</time>
      </trkpt>
      <trkpt lat="50.56329" lon="3.23002">
        <ele>-13.4</ele>
        <time>2018-06-26T12:26:57Z</time>
      </trkpt>
      <trkpt lat="50.56315" lon="3.23005">
        <ele>-13</ele>
        <time>2018-06-26T12:27:01Z</time>
      </trkpt>
      <trkpt lat="50.56302" lon="3.23006">
        <ele>-12</ele>
        <time>2018-06-26T12:27:05Z</time>
      </trkpt>
      <trkpt lat="50.56288" lon="3.23009">
        <ele>-11.2</ele>
        <time>2018-06-26T12:27:09Z</time>
      </trkpt>
      <trkpt lat="50.56273" lon="3.23004">
        <ele>-10</ele>
        <time>2018-06-26T12:27:13Z</time>
      </trkpt>
      <trkpt lat="50.56259" lon="3.23">
        <ele>-10</ele>
        <time>2018-06-26T12:27:17Z</time>
      </trkpt>
      <trkpt lat="50.56244" lon="3.23">
        <ele>-9.6</ele>
        <time>2018-06-26T12:27:21Z</time>
      </trkpt>
      <trkpt lat="50.56228" lon="3.22998">
        <ele>-9.8</ele>
        <time>2018-06-26T12:27:25Z</time>
      </trkpt>
      <trkpt lat="50.56212" lon="3.22995">
        <ele>-9.6</ele>
        <time>2018-06-26T12:27:29Z</time>
      </trkpt>
      <trkpt lat="50.56195" lon="3.22992">
        <ele>-9.2</ele>
        <time>2018-06-26T12:27:33Z</time>
      </trkpt>
      <trkpt lat="50.56179" lon="3.2299">
        <ele>-9.6</ele>
        <time>2018-06-26T12:27:37Z</time>
      </trkpt>
      <trkpt lat="50.56162" lon="3.22989">
        <ele>-10.4</ele>
        <time>2018-06-26T12:27:41Z</time>
      </trkpt>
      <trkpt lat="50.56145" lon="3.22988">
        <ele>-10.6</ele>
        <time>2018-06-26T12:27:45Z</time>
      </trkpt>
      <trkpt lat="50.56127" lon="3.2299">
        <ele>-10.6</ele>
        <time>2018-06-26T12:27:49Z</time>
      </trkpt>
      <trkpt lat="50.56108" lon="3.2299">
        <ele>-11</ele>
        <time>2018-06-26T12:27:53Z</time>
      </trkpt>
      <trkpt lat="50.5609" lon="3.22991">
        <ele>-11.2</ele>
        <time>2018-06-26T12:27:57Z</time>
      </trkpt>
      <trkpt lat="50.56071" lon="3.2299">
        <ele>-11.2</ele>
        <time>2018-06-26T12:28:01Z</time>
      </trkpt>
      <trkpt lat="50.56052" lon="3.22989">
        <ele>-11.8</ele>
        <time>2018-06-26T12:28:05Z</time>
      </trkpt>
      <trkpt lat="50.56033" lon="3.22988">
        <ele>-12</ele>
        <time>2018-06-26T12:28:09Z</time>
      </trkpt>
      <trkpt lat="50.56014" lon="3.22982">
        <ele>-12.2</ele>
        <time>2018-06-26T12:28:13Z</time>
      </trkpt>
      <trkpt lat="50.55995" lon="3.22974">
        <ele>-12.8</ele>
        <time>2018-06-26T12:28:17Z</time>
      </trkpt>
      <trkpt lat="50.55975" lon="3.22966">
        <ele>-13.2</ele>
        <time>2018-06-26T12:28:21Z</time>
      </trkpt>
      <trkpt lat="50.55955" lon="3.2296">
        <ele>-13.4</ele>
        <time>2018-06-26T12:28:25Z</time>
      </trkpt>
      <trkpt lat="50.55934" lon="3.22954">
        <ele>-13.8</ele>
        <time>2018-06-26T12:28:29Z</time>
      </trkpt>
      <trkpt lat="50.55915" lon="3.22942">
        <ele>-14.4</ele>
        <time>2018-06-26T12:28:33Z</time>
      </trkpt>
      <trkpt lat="50.55901" lon="3.22929">
        <ele>-15</ele>
        <time>2018-06-26T12:28:37Z</time>
      </trkpt>
      <trkpt lat="50.55885" lon="3.22926">
        <ele>-15.6</ele>
        <time>2018-06-26T12:28:41Z</time>
      </trkpt>
      <trkpt lat="50.55868" lon="3.22928">
        <ele>-14.8</ele>
        <time>2018-06-26T12:28:45Z</time>
      </trkpt>
      <trkpt lat="50.55853" lon="3.22929">
        <ele>-14.8</ele>
        <time>2018-06-26T12:28:49Z</time>
      </trkpt>
      <trkpt lat="50.55834" lon="3.22929">
        <ele>-14.8</ele>
        <time>2018-06-26T12:28:53Z</time>
      </trkpt>
      <trkpt lat="50.55814" lon="3.22932">
        <ele>-14.8</ele>
        <time>2018-06-26T12:28:57Z</time>
      </trkpt>
      <trkpt lat="50.55797" lon="3.22936">
        <ele>-14.4</ele>
        <time>2018-06-26T12:29:01Z</time>
      </trkpt>
      <trkpt lat="50.5578" lon="3.22939">
        <ele>-15.2</ele>
        <time>2018-06-26T12:29:05Z</time>
      </trkpt>
      <trkpt lat="50.55763" lon="3.2294">
        <ele>-14.8</ele>
        <time>2018-06-26T12:29:09Z</time>
      </trkpt>
      <trkpt lat="50.55746" lon="3.22945">
        <ele>-14.8</ele>
        <time>2018-06-26T12:29:13Z</time>
      </trkpt>
      <trkpt lat="50.55729" lon="3.22949">
        <ele>-14.4</ele>
        <time>2018-06-26T12:29:17Z</time>
      </trkpt>
      <trkpt lat="50.55711" lon="3.2295">
        <ele>-14</ele>
        <time>2018-06-26T12:29:21Z</time>
      </trkpt>
      <trkpt lat="50.55693" lon="3.22955">
        <ele>-15.2</ele>
        <time>2018-06-26T12:29:25Z</time>
      </trkpt>
      <trkpt lat="50.55673" lon="3.22954">
        <ele>-15</ele>
        <time>2018-06-26T12:29:29Z</time>
      </trkpt>
      <trkpt lat="50.5565" lon="3.22948">
        <ele>-14.8</ele>
        <time>2018-06-26T12:29:33Z</time>
      </trkpt>
      <trkpt lat="50.55632" lon="3.22945">
        <ele>-14.8</ele>
        <time>2018-06-26T12:29:37Z</time>
      </trkpt>
      <trkpt lat="50.55613" lon="3.22942">
        <ele>-14.6</ele>
        <time>2018-06-26T12:29:41Z</time>
      </trkpt>
      <trkpt lat="50.55596" lon="3.22936">
        <ele>-14.8</ele>
        <time>2018-06-26T12:29:45Z</time>
      </trkpt>
      <trkpt lat="50.55579" lon="3.22929">
        <ele>-14.4</ele>
        <time>2018-06-26T12:29:49Z</time>
      </trkpt>
      <trkpt lat="50.55562" lon="3.22921">
        <ele>-14.6</ele>
        <time>2018-06-26T12:29:53Z</time>
      </trkpt>
      <trkpt lat="50.55545" lon="3.22913">
        <ele>-15.2</ele>
        <time>2018-06-26T12:29:57Z</time>
      </trkpt>
      <trkpt lat="50.55528" lon="3.22906">
        <ele>-14.4</ele>
        <time>2018-06-26T12:30:01Z</time>
      </trkpt>
      <trkpt lat="50.55512" lon="3.22897">
        <ele>-13.8</ele>
        <time>2018-06-26T12:30:05Z</time>
      </trkpt>
      <trkpt lat="50.55495" lon="3.22888">
        <ele>-14</ele>
        <time>2018-06-26T12:30:09Z</time>
      </trkpt>
      <trkpt lat="50.5548" lon="3.22879">
        <ele>-13.4</ele>
        <time>2018-06-26T12:30:13Z</time>
      </trkpt>
      <trkpt lat="50.55462" lon="3.22873">
        <ele>-13.4</ele>
        <time>2018-06-26T12:30:17Z</time>
      </trkpt>
      <trkpt lat="50.55445" lon="3.22865">
        <ele>-13.8</ele>
        <time>2018-06-26T12:30:21Z</time>
      </trkpt>
      <trkpt lat="50.55428" lon="3.22858">
        <ele>-13.6</ele>
        <time>2018-06-26T12:30:25Z</time>
      </trkpt>
      <trkpt lat="50.55412" lon="3.22851">
        <ele>-13.8</ele>
        <time>2018-06-26T12:30:29Z</time>
      </trkpt>
      <trkpt lat="50.55395" lon="3.22843">
        <ele>-13.6</ele>
        <time>2018-06-26T12:30:33Z</time>
      </trkpt>
      <trkpt lat="50.55379" lon="3.22836">
        <ele>-13.4</ele>
        <time>2018-06-26T12:30:37Z</time>
      </trkpt>
      <trkpt lat="50.55363" lon="3.22828">
        <ele>-13.8</ele>
        <time>2018-06-26T12:30:41Z</time>
      </trkpt>
      <trkpt lat="50.55346" lon="3.2282">
        <ele>-13.2</ele>
        <time>2018-06-26T12:30:45Z</time>
      </trkpt>
      <trkpt lat="50.5533" lon="3.22813">
        <ele>-13</ele>
        <time>2018-06-26T12:30:49Z</time>
      </trkpt>
      <trkpt lat="50.55314" lon="3.22805">
        <ele>-13</ele>
        <time>2018-06-26T12:30:53Z</time>
      </trkpt>
      <trkpt lat="50.55298" lon="3.22797">
        <ele>-13</ele>
        <time>2018-06-26T12:30:57Z</time>
      </trkpt>
      <trkpt lat="50.55282" lon="3.22789">
        <ele>-13.6</ele>
        <time>2018-06-26T12:31:01Z</time>
      </trkpt>
      <trkpt lat="50.55265" lon="3.22782">
        <ele>-14</ele>
        <time>2018-06-26T12:31:05Z</time>
      </trkpt>
      <trkpt lat="50.55248" lon="3.22774">
        <ele>-13.2</ele>
        <time>2018-06-26T12:31:09Z</time>
      </trkpt>
      <trkpt lat="50.55232" lon="3.22765">
        <ele>-13.4</ele>
        <time>2018-06-26T12:31:13Z</time>
      </trkpt>
      <trkpt lat="50.55215" lon="3.22757">
        <ele>-13.2</ele>
        <time>2018-06-26T12:31:17Z</time>
      </trkpt>
      <trkpt lat="50.55198" lon="3.2275">
        <ele>-13.2</ele>
        <time>2018-06-26T12:31:21Z</time>
      </trkpt>
      <trkpt lat="50.55182" lon="3.22742">
        <ele>-12.8</ele>
        <time>2018-06-26T12:31:25Z</time>
      </trkpt>
      <trkpt lat="50.55166" lon="3.22733">
        <ele>-13</ele>
        <time>2018-06-26T12:31:29Z</time>
      </trkpt>
      <trkpt lat="50.5515" lon="3.22726">
        <ele>-13.2</ele>
        <time>2018-06-26T12:31:33Z</time>
      </trkpt>
      <trkpt lat="50.55134" lon="3.22718">
        <ele>-13.4</ele>
        <time>2018-06-26T12:31:37Z</time>
      </trkpt>
      <trkpt lat="50.55117" lon="3.2271">
        <ele>-13.2</ele>
        <time>2018-06-26T12:31:41Z</time>
      </trkpt>
      <trkpt lat="50.55101" lon="3.22702">
        <ele>-13.2</ele>
        <time>2018-06-26T12:31:45Z</time>
      </trkpt>
      <trkpt lat="50.55086" lon="3.22694">
        <ele>-14</ele>
        <time>2018-06-26T12:31:49Z</time>
      </trkpt>
      <trkpt lat="50.55072" lon="3.22687">
        <ele>-13.8</ele>
        <time>2018-06-26T12:31:53Z</time>
      </trkpt>
      <trkpt lat="50.55058" lon="3.22681">
        <ele>-14.2</ele>
        <time>2018-06-26T12:31:57Z</time>
      </trkpt>
      <trkpt lat="50.55047" lon="3.22676">
        <ele>-14.4</ele>
        <time>2018-06-26T12:32:01Z</time>
      </trkpt>
      <trkpt lat="50.55039" lon="3.22672">
        <ele>-14.8</ele>
        <time>2018-06-26T12:32:05Z</time>
      </trkpt>
      <trkpt lat="50.55033" lon="3.22674">
        <ele>-14.4</ele>
        <time>2018-06-26T12:32:09Z</time>
      </trkpt>
      <trkpt lat="50.55029" lon="3.22688">
        <ele>-14</ele>
        <time>2018-06-26T12:32:13Z</time>
      </trkpt>
      <trkpt lat="50.55026" lon="3.22703">
        <ele>-14</ele>
        <time>2018-06-26T12:32:17Z</time>
      </trkpt>
      <trkpt lat="50.55023" lon="3.22718">
        <ele>-13.8</ele>
        <time>2018-06-26T12:32:21Z</time>
      </trkpt>
      <trkpt lat="50.55021" lon="3.22732">
        <ele>-14</ele>
        <time>2018-06-26T12:32:25Z</time>
      </trkpt>
      <trkpt lat="50.55018" lon="3.22748">
        <ele>-13.6</ele>
        <time>2018-06-26T12:32:29Z</time>
      </trkpt>
      <trkpt lat="50.55014" lon="3.22763">
        <ele>-13.4</ele>
        <time>2018-06-26T12:32:33Z</time>
      </trkpt>
      <trkpt lat="50.55013" lon="3.22781">
        <ele>-13.4</ele>
        <time>2018-06-26T12:32:37Z</time>
      </trkpt>
      <trkpt lat="50.5501" lon="3.22798">
        <ele>-14</ele>
        <time>2018-06-26T12:32:41Z</time>
      </trkpt>
      <trkpt lat="50.55006" lon="3.22815">
        <ele>-12.8</ele>
        <time>2018-06-26T12:32:45Z</time>
      </trkpt>
      <trkpt lat="50.55003" lon="3.22832">
        <ele>-13.8</ele>
        <time>2018-06-26T12:32:49Z</time>
      </trkpt>
      <trkpt lat="50.54999" lon="3.22849">
        <ele>-14</ele>
        <time>2018-06-26T12:32:53Z</time>
      </trkpt>
      <trkpt lat="50.54995" lon="3.22863">
        <ele>-13.8</ele>
        <time>2018-06-26T12:32:57Z</time>
      </trkpt>
      <trkpt lat="50.54993" lon="3.22878">
        <ele>-14</ele>
        <time>2018-06-26T12:33:01Z</time>
      </trkpt>
      <trkpt lat="50.54989" lon="3.22889">
        <ele>-13.8</ele>
        <time>2018-06-26T12:33:05Z</time>
      </trkpt>
      <trkpt lat="50.54987" lon="3.229">
        <ele>-14.2</ele>
        <time>2018-06-26T12:33:09Z</time>
      </trkpt>
      <trkpt lat="50.54987" lon="3.229">
        <ele>-14.4</ele>
        <time>2018-06-26T12:33:13Z</time>
      </trkpt>
      <trkpt lat="50.54986" lon="3.22902">
        <ele>-14.4</ele>
        <time>2018-06-26T12:33:17Z</time>
      </trkpt>
      <trkpt lat="50.54986" lon="3.22902">
        <ele>-14</ele>
        <time>2018-06-26T12:33:21Z</time>
      </trkpt>
      <trkpt lat="50.54986" lon="3.22902">
        <ele>-14</ele>
        <time>2018-06-26T12:33:25Z</time>
      </trkpt>
      <trkpt lat="50.54986" lon="3.22902">
        <ele>-14.2</ele>
        <time>2018-06-26T12:33:29Z</time>
      </trkpt>
      <trkpt lat="50.54986" lon="3.22902">
        <ele>-14</ele>
        <time>2018-06-26T12:33:33Z</time>
      </trkpt>
      <trkpt lat="50.54987" lon="3.22903">
        <ele>-13.8</ele>
        <time>2018-06-26T12:33:37Z</time>
      </trkpt>
      <trkpt lat="50.54986" lon="3.22909">
        <ele>-14.2</ele>
        <time>2018-06-26T12:33:41Z</time>
      </trkpt>
      <trkpt lat="50.54985" lon="3.2291">
        <ele>-14</ele>
        <time>2018-06-26T12:33:45Z</time>
      </trkpt>
      <trkpt lat="50.54985" lon="3.22911">
        <ele>-15</ele>
        <time>2018-06-26T12:33:49Z</time>
      </trkpt>
      <trkpt lat="50.54979" lon="3.22908">
        <ele>-14.4</ele>
        <time>2018-06-26T12:33:53Z</time>
      </trkpt>
      <trkpt lat="50.54973" lon="3.22904">
        <ele>-14.6</ele>
        <time>2018-06-26T12:33:57Z</time>
      </trkpt>
      <trkpt lat="50.54967" lon="3.22899">
        <ele>-14.4</ele>
        <time>2018-06-26T12:34:01Z</time>
      </trkpt>
      <trkpt lat="50.54961" lon="3.22895">
        <ele>-14.4</ele>
        <time>2018-06-26T12:34:05Z</time>
      </trkpt>
      <trkpt lat="50.54954" lon="3.2289">
        <ele>-14.2</ele>
        <time>2018-06-26T12:34:09Z</time>
      </trkpt>
      <trkpt lat="50.54948" lon="3.22887">
        <ele>-14.8</ele>
        <time>2018-06-26T12:34:13Z</time>
      </trkpt>
      <trkpt lat="50.54941" lon="3.22881">
        <ele>-14.4</ele>
        <time>2018-06-26T12:34:17Z</time>
      </trkpt>
      <trkpt lat="50.54934" lon="3.22877">
        <ele>-14.4</ele>
        <time>2018-06-26T12:34:21Z</time>
      </trkpt>
      <trkpt lat="50.54927" lon="3.22874">
        <ele>-14.4</ele>
        <time>2018-06-26T12:34:25Z</time>
      </trkpt>
      <trkpt lat="50.54921" lon="3.2287">
        <ele>-14.8</ele>
        <time>2018-06-26T12:34:29Z</time>
      </trkpt>
      <trkpt lat="50.54914" lon="3.22867">
        <ele>-14.4</ele>
        <time>2018-06-26T12:34:33Z</time>
      </trkpt>
      <trkpt lat="50.54906" lon="3.22868">
        <ele>-15</ele>
        <time>2018-06-26T12:34:37Z</time>
      </trkpt>
      <trkpt lat="50.54901" lon="3.22874">
        <ele>-14.8</ele>
        <time>2018-06-26T12:34:41Z</time>
      </trkpt>
      <trkpt lat="50.54895" lon="3.22881">
        <ele>-14.4</ele>
        <time>2018-06-26T12:34:45Z</time>
      </trkpt>
      <trkpt lat="50.54889" lon="3.2289">
        <ele>-15</ele>
        <time>2018-06-26T12:34:49Z</time>
      </trkpt>
      <trkpt lat="50.54884" lon="3.22896">
        <ele>-14.4</ele>
        <time>2018-06-26T12:34:53Z</time>
      </trkpt>
      <trkpt lat="50.5488" lon="3.22904">
        <ele>-14.6</ele>
        <time>2018-06-26T12:34:57Z</time>
      </trkpt>
      <trkpt lat="50.54875" lon="3.22911">
        <ele>-14.6</ele>
        <time>2018-06-26T12:35:01Z</time>
      </trkpt>
      <trkpt lat="50.54869" lon="3.22917">
        <ele>-14.8</ele>
        <time>2018-06-26T12:35:05Z</time>
      </trkpt>
      <trkpt lat="50.54865" lon="3.22922">
        <ele>-14.6</ele>
        <time>2018-06-26T12:35:09Z</time>
      </trkpt>
      <trkpt lat="50.5486" lon="3.22928">
        <ele>-14.4</ele>
        <time>2018-06-26T12:35:13Z</time>
      </trkpt>
      <trkpt lat="50.54854" lon="3.22936">
        <ele>-14.6</ele>
        <time>2018-06-26T12:35:17Z</time>
      </trkpt>
      <trkpt lat="50.54846" lon="3.22944">
        <ele>-14.6</ele>
        <time>2018-06-26T12:35:21Z</time>
      </trkpt>
      <trkpt lat="50.54841" lon="3.22951">
        <ele>-14</ele>
        <time>2018-06-26T12:35:25Z</time>
      </trkpt>
      <trkpt lat="50.54834" lon="3.22957">
        <ele>-14.4</ele>
        <time>2018-06-26T12:35:29Z</time>
      </trkpt>
      <trkpt lat="50.54828" lon="3.22963">
        <ele>-13.6</ele>
        <time>2018-06-26T12:35:33Z</time>
      </trkpt>
      <trkpt lat="50.54823" lon="3.2297">
        <ele>-13.8</ele>
        <time>2018-06-26T12:35:37Z</time>
      </trkpt>
      <trkpt lat="50.54821" lon="3.22975">
        <ele>-14</ele>
        <time>2018-06-26T12:35:41Z</time>
      </trkpt>
      <trkpt lat="50.54817" lon="3.22981">
        <ele>-14.4</ele>
        <time>2018-06-26T12:35:45Z</time>
      </trkpt>
      <trkpt lat="50.54814" lon="3.22987">
        <ele>-14.4</ele>
        <time>2018-06-26T12:35:49Z</time>
      </trkpt>
      <trkpt lat="50.54809" lon="3.22993">
        <ele>-14</ele>
        <time>2018-06-26T12:35:53Z</time>
      </trkpt>
      <trkpt lat="50.54801" lon="3.23002">
        <ele>-14</ele>
        <time>2018-06-26T12:35:57Z</time>
      </trkpt>
      <trkpt lat="50.54794" lon="3.2301">
        <ele>-13.8</ele>
        <time>2018-06-26T12:36:01Z</time>
      </trkpt>
      <trkpt lat="50.54787" lon="3.23018">
        <ele>-13.4</ele>
        <time>2018-06-26T12:36:05Z</time>
      </trkpt>
      <trkpt lat="50.54781" lon="3.23025">
        <ele>-12.8</ele>
        <time>2018-06-26T12:36:09Z</time>
      </trkpt>
      <trkpt lat="50.54774" lon="3.23033">
        <ele>-13</ele>
        <time>2018-06-26T12:36:13Z</time>
      </trkpt>
      <trkpt lat="50.54769" lon="3.2304">
        <ele>-13.4</ele>
        <time>2018-06-26T12:36:17Z</time>
      </trkpt>
      <trkpt lat="50.54763" lon="3.23047">
        <ele>-13</ele>
        <time>2018-06-26T12:36:21Z</time>
      </trkpt>
      <trkpt lat="50.54757" lon="3.23055">
        <ele>-13.2</ele>
        <time>2018-06-26T12:36:25Z</time>
      </trkpt>
      <trkpt lat="50.54753" lon="3.23065">
        <ele>-13</ele>
        <time>2018-06-26T12:36:29Z</time>
      </trkpt>
      <trkpt lat="50.54749" lon="3.23074">
        <ele>-12.2</ele>
        <time>2018-06-26T12:36:33Z</time>
      </trkpt>
      <trkpt lat="50.54746" lon="3.23086">
        <ele>-13</ele>
        <time>2018-06-26T12:36:37Z</time>
      </trkpt>
      <trkpt lat="50.54744" lon="3.23097">
        <ele>-12.6</ele>
        <time>2018-06-26T12:36:41Z</time>
      </trkpt>
      <trkpt lat="50.54741" lon="3.23109">
        <ele>-12.4</ele>
        <time>2018-06-26T12:36:45Z</time>
      </trkpt>
      <trkpt lat="50.54737" lon="3.23122">
        <ele>-12.4</ele>
        <time>2018-06-26T12:36:49Z</time>
      </trkpt>
      <trkpt lat="50.54734" lon="3.23134">
        <ele>-12.4</ele>
        <time>2018-06-26T12:36:53Z</time>
      </trkpt>
      <trkpt lat="50.5473" lon="3.23147">
        <ele>-12</ele>
        <time>2018-06-26T12:36:57Z</time>
      </trkpt>
      <trkpt lat="50.54726" lon="3.23158">
        <ele>-12</ele>
        <time>2018-06-26T12:37:01Z</time>
      </trkpt>
      <trkpt lat="50.54721" lon="3.23168">
        <ele>-11.4</ele>
        <time>2018-06-26T12:37:05Z</time>
      </trkpt>
      <trkpt lat="50.54715" lon="3.23178">
        <ele>-11.6</ele>
        <time>2018-06-26T12:37:09Z</time>
      </trkpt>
      <trkpt lat="50.5471" lon="3.23187">
        <ele>-11.2</ele>
        <time>2018-06-26T12:37:13Z</time>
      </trkpt>
      <trkpt lat="50.54704" lon="3.23197">
        <ele>-11.2</ele>
        <time>2018-06-26T12:37:17Z</time>
      </trkpt>
      <trkpt lat="50.54698" lon="3.23207">
        <ele>-11.2</ele>
        <time>2018-06-26T12:37:21Z</time>
      </trkpt>
      <trkpt lat="50.54692" lon="3.23217">
        <ele>-11</ele>
        <time>2018-06-26T12:37:25Z</time>
      </trkpt>
      <trkpt lat="50.54686" lon="3.23226">
        <ele>-10.2</ele>
        <time>2018-06-26T12:37:29Z</time>
      </trkpt>
      <trkpt lat="50.5468" lon="3.23237">
        <ele>-10.4</ele>
        <time>2018-06-26T12:37:33Z</time>
      </trkpt>
      <trkpt lat="50.54673" lon="3.23247">
        <ele>-10.2</ele>
        <time>2018-06-26T12:37:37Z</time>
      </trkpt>
      <trkpt lat="50.54668" lon="3.23256">
        <ele>-10</ele>
        <time>2018-06-26T12:37:41Z</time>
      </trkpt>
      <trkpt lat="50.54662" lon="3.23266">
        <ele>-9.2</ele>
        <time>2018-06-26T12:37:45Z</time>
      </trkpt>
      <trkpt lat="50.54655" lon="3.23277">
        <ele>-9</ele>
        <time>2018-06-26T12:37:49Z</time>
      </trkpt>
      <trkpt lat="50.54649" lon="3.23287">
        <ele>-9.2</ele>
        <time>2018-06-26T12:37:53Z</time>
      </trkpt>
      <trkpt lat="50.54643" lon="3.23298">
        <ele>-8.6</ele>
        <time>2018-06-26T12:37:57Z</time>
      </trkpt>
      <trkpt lat="50.54637" lon="3.23309">
        <ele>-9</ele>
        <time>2018-06-26T12:38:01Z</time>
      </trkpt>
      <trkpt lat="50.54631" lon="3.23319">
        <ele>-9.2</ele>
        <time>2018-06-26T12:38:05Z</time>
      </trkpt>
      <trkpt lat="50.54624" lon="3.23327">
        <ele>-8.8</ele>
        <time>2018-06-26T12:38:09Z</time>
      </trkpt>
      <trkpt lat="50.54617" lon="3.23329">
        <ele>-8.8</ele>
        <time>2018-06-26T12:38:13Z</time>
      </trkpt>
      <trkpt lat="50.54609" lon="3.23324">
        <ele>-8.6</ele>
        <time>2018-06-26T12:38:17Z</time>
      </trkpt>
      <trkpt lat="50.54601" lon="3.23316">
        <ele>-9.2</ele>
        <time>2018-06-26T12:38:21Z</time>
      </trkpt>
      <trkpt lat="50.54591" lon="3.23306">
        <ele>-9.2</ele>
        <time>2018-06-26T12:38:25Z</time>
      </trkpt>
      <trkpt lat="50.54583" lon="3.23296">
        <ele>-9</ele>
        <time>2018-06-26T12:38:29Z</time>
      </trkpt>
      <trkpt lat="50.54572" lon="3.23283">
        <ele>-9.8</ele>
        <time>2018-06-26T12:38:33Z</time>
      </trkpt>
      <trkpt lat="50.54561" lon="3.23269">
        <ele>-9.8</ele>
        <time>2018-06-26T12:38:37Z</time>
      </trkpt>
      <trkpt lat="50.54551" lon="3.23253">
        <ele>-9.8</ele>
        <time>2018-06-26T12:38:41Z</time>
      </trkpt>
      <trkpt lat="50.54542" lon="3.23235">
        <ele>-10.2</ele>
        <time>2018-06-26T12:38:45Z</time>
      </trkpt>
      <trkpt lat="50.54532" lon="3.23219">
        <ele>-10.4</ele>
        <time>2018-06-26T12:38:49Z</time>
      </trkpt>
      <trkpt lat="50.5452" lon="3.23204">
        <ele>-10</ele>
        <time>2018-06-26T12:38:53Z</time>
      </trkpt>
      <trkpt lat="50.54509" lon="3.2319">
        <ele>-10.6</ele>
        <time>2018-06-26T12:38:57Z</time>
      </trkpt>
      <trkpt lat="50.54496" lon="3.23175">
        <ele>-11.2</ele>
        <time>2018-06-26T12:39:01Z</time>
      </trkpt>
      <trkpt lat="50.54476" lon="3.23152">
        <ele>-11</ele>
        <time>2018-06-26T12:39:05Z</time>
      </trkpt>
      <trkpt lat="50.54464" lon="3.2314">
        <ele>-11.4</ele>
        <time>2018-06-26T12:39:09Z</time>
      </trkpt>
      <trkpt lat="50.54453" lon="3.23125">
        <ele>-11.2</ele>
        <time>2018-06-26T12:39:13Z</time>
      </trkpt>
      <trkpt lat="50.54443" lon="3.23108">
        <ele>-12.2</ele>
        <time>2018-06-26T12:39:17Z</time>
      </trkpt>
      <trkpt lat="50.54432" lon="3.23091">
        <ele>-11.6</ele>
        <time>2018-06-26T12:39:21Z</time>
      </trkpt>
      <trkpt lat="50.54421" lon="3.23072">
        <ele>-11.6</ele>
        <time>2018-06-26T12:39:25Z</time>
      </trkpt>
      <trkpt lat="50.54411" lon="3.23054">
        <ele>-11.8</ele>
        <time>2018-06-26T12:39:29Z</time>
      </trkpt>
      <trkpt lat="50.54401" lon="3.23034">
        <ele>-12.2</ele>
        <time>2018-06-26T12:39:33Z</time>
      </trkpt>
      <trkpt lat="50.54392" lon="3.23015">
        <ele>-12.4</ele>
        <time>2018-06-26T12:39:37Z</time>
      </trkpt>
      <trkpt lat="50.54384" lon="3.22992">
        <ele>-12</ele>
        <time>2018-06-26T12:39:41Z</time>
      </trkpt>
      <trkpt lat="50.54377" lon="3.22969">
        <ele>-12.2</ele>
        <time>2018-06-26T12:39:45Z</time>
      </trkpt>
      <trkpt lat="50.54369" lon="3.22945">
        <ele>-12.4</ele>
        <time>2018-06-26T12:39:49Z</time>
      </trkpt>
      <trkpt lat="50.54362" lon="3.22922">
        <ele>-12.4</ele>
        <time>2018-06-26T12:39:53Z</time>
      </trkpt>
      <trkpt lat="50.54353" lon="3.22902">
        <ele>-12.8</ele>
        <time>2018-06-26T12:39:57Z</time>
      </trkpt>
      <trkpt lat="50.54343" lon="3.2288">
        <ele>-12.4</ele>
        <time>2018-06-26T12:40:01Z</time>
      </trkpt>
      <trkpt lat="50.54334" lon="3.22858">
        <ele>-12.8</ele>
        <time>2018-06-26T12:40:05Z</time>
      </trkpt>
      <trkpt lat="50.54322" lon="3.2284">
        <ele>-12.8</ele>
        <time>2018-06-26T12:40:09Z</time>
      </trkpt>
      <trkpt lat="50.54312" lon="3.22821">
        <ele>-12.8</ele>
        <time>2018-06-26T12:40:13Z</time>
      </trkpt>
      <trkpt lat="50.543" lon="3.22804">
        <ele>-13.2</ele>
        <time>2018-06-26T12:40:17Z</time>
      </trkpt>
      <trkpt lat="50.54289" lon="3.22785">
        <ele>-13.4</ele>
        <time>2018-06-26T12:40:21Z</time>
      </trkpt>
      <trkpt lat="50.54277" lon="3.22767">
        <ele>-13.4</ele>
        <time>2018-06-26T12:40:25Z</time>
      </trkpt>
      <trkpt lat="50.54266" lon="3.22749">
        <ele>-13</ele>
        <time>2018-06-26T12:40:29Z</time>
      </trkpt>
      <trkpt lat="50.54255" lon="3.22729">
        <ele>-13.2</ele>
        <time>2018-06-26T12:40:33Z</time>
      </trkpt>
      <trkpt lat="50.54245" lon="3.22709">
        <ele>-13.4</ele>
        <time>2018-06-26T12:40:37Z</time>
      </trkpt>
      <trkpt lat="50.54233" lon="3.22692">
        <ele>-13.6</ele>
        <time>2018-06-26T12:40:41Z</time>
      </trkpt>
      <trkpt lat="50.54223" lon="3.22676">
        <ele>-13.2</ele>
        <time>2018-06-26T12:40:45Z</time>
      </trkpt>
      <trkpt lat="50.54213" lon="3.22658">
        <ele>-14</ele>
        <time>2018-06-26T12:40:49Z</time>
      </trkpt>
      <trkpt lat="50.54202" lon="3.22642">
        <ele>-14</ele>
        <time>2018-06-26T12:40:53Z</time>
      </trkpt>
      <trkpt lat="50.54192" lon="3.22624">
        <ele>-14</ele>
        <time>2018-06-26T12:40:57Z</time>
      </trkpt>
      <trkpt lat="50.54181" lon="3.22608">
        <ele>-14</ele>
        <time>2018-06-26T12:41:01Z</time>
      </trkpt>
      <trkpt lat="50.54171" lon="3.2259">
        <ele>-14.2</ele>
        <time>2018-06-26T12:41:05Z</time>
      </trkpt>
      <trkpt lat="50.54164" lon="3.22569">
        <ele>-14</ele>
        <time>2018-06-26T12:41:09Z</time>
      </trkpt>
      <trkpt lat="50.54164" lon="3.22545">
        <ele>-14.2</ele>
        <time>2018-06-26T12:41:13Z</time>
      </trkpt>
      <trkpt lat="50.54167" lon="3.22519">
        <ele>-14.4</ele>
        <time>2018-06-26T12:41:17Z</time>
      </trkpt>
      <trkpt lat="50.5417" lon="3.22496">
        <ele>-14.6</ele>
        <time>2018-06-26T12:41:21Z</time>
      </trkpt>
      <trkpt lat="50.54172" lon="3.22472">
        <ele>-14.2</ele>
        <time>2018-06-26T12:41:25Z</time>
      </trkpt>
      <trkpt lat="50.54175" lon="3.22448">
        <ele>-14.2</ele>
        <time>2018-06-26T12:41:29Z</time>
      </trkpt>
      <trkpt lat="50.5418" lon="3.22424">
        <ele>-14.4</ele>
        <time>2018-06-26T12:41:33Z</time>
      </trkpt>
      <trkpt lat="50.54186" lon="3.22399">
        <ele>-14.4</ele>
        <time>2018-06-26T12:41:37Z</time>
      </trkpt>
      <trkpt lat="50.5419" lon="3.22372">
        <ele>-14.4</ele>
        <time>2018-06-26T12:41:41Z</time>
      </trkpt>
      <trkpt lat="50.54191" lon="3.22344">
        <ele>-14.6</ele>
        <time>2018-06-26T12:41:45Z</time>
      </trkpt>
      <trkpt lat="50.54191" lon="3.22317">
        <ele>-15.2</ele>
        <time>2018-06-26T12:41:49Z</time>
      </trkpt>
      <trkpt lat="50.5419" lon="3.22289">
        <ele>-15</ele>
        <time>2018-06-26T12:41:53Z</time>
      </trkpt>
      <trkpt lat="50.5419" lon="3.22261">
        <ele>-15.2</ele>
        <time>2018-06-26T12:41:57Z</time>
      </trkpt>
      <trkpt lat="50.54191" lon="3.22232">
        <ele>-15.2</ele>
        <time>2018-06-26T12:42:01Z</time>
      </trkpt>
      <trkpt lat="50.54191" lon="3.22207">
        <ele>-15.2</ele>
        <time>2018-06-26T12:42:05Z</time>
      </trkpt>
      <trkpt lat="50.54179" lon="3.22187">
        <ele>-15.8</ele>
        <time>2018-06-26T12:42:09Z</time>
      </trkpt>
      <trkpt lat="50.54164" lon="3.22174">
        <ele>-15.6</ele>
        <time>2018-06-26T12:42:13Z</time>
      </trkpt>
      <trkpt lat="50.54148" lon="3.22165">
        <ele>-15.2</ele>
        <time>2018-06-26T12:42:17Z</time>
      </trkpt>
      <trkpt lat="50.54132" lon="3.22156">
        <ele>-15</ele>
        <time>2018-06-26T12:42:21Z</time>
      </trkpt>
      <trkpt lat="50.54118" lon="3.22143">
        <ele>-14.8</ele>
        <time>2018-06-26T12:42:25Z</time>
      </trkpt>
      <trkpt lat="50.54104" lon="3.22127">
        <ele>-14.8</ele>
        <time>2018-06-26T12:42:29Z</time>
      </trkpt>
      <trkpt lat="50.5409" lon="3.22111">
        <ele>-15.2</ele>
        <time>2018-06-26T12:42:33Z</time>
      </trkpt>
      <trkpt lat="50.54076" lon="3.22094">
        <ele>-14.8</ele>
        <time>2018-06-26T12:42:37Z</time>
      </trkpt>
      <trkpt lat="50.54061" lon="3.22077">
        <ele>-14.6</ele>
        <time>2018-06-26T12:42:41Z</time>
      </trkpt>
      <trkpt lat="50.54046" lon="3.22061">
        <ele>-14.8</ele>
        <time>2018-06-26T12:42:45Z</time>
      </trkpt>
      <trkpt lat="50.54029" lon="3.22048">
        <ele>-13.8</ele>
        <time>2018-06-26T12:42:49Z</time>
      </trkpt>
      <trkpt lat="50.54011" lon="3.22041">
        <ele>-13.6</ele>
        <time>2018-06-26T12:42:53Z</time>
      </trkpt>
      <trkpt lat="50.53992" lon="3.22035">
        <ele>-14.4</ele>
        <time>2018-06-26T12:42:57Z</time>
      </trkpt>
      <trkpt lat="50.53974" lon="3.2203">
        <ele>-14</ele>
        <time>2018-06-26T12:43:01Z</time>
      </trkpt>
      <trkpt lat="50.53957" lon="3.22022">
        <ele>-13.8</ele>
        <time>2018-06-26T12:43:05Z</time>
      </trkpt>
      <trkpt lat="50.5394" lon="3.22014">
        <ele>-14.2</ele>
        <time>2018-06-26T12:43:09Z</time>
      </trkpt>
      <trkpt lat="50.53923" lon="3.22007">
        <ele>-14.4</ele>
        <time>2018-06-26T12:43:13Z</time>
      </trkpt>
      <trkpt lat="50.53906" lon="3.22002">
        <ele>-13.6</ele>
        <time>2018-06-26T12:43:17Z</time>
      </trkpt>
      <trkpt lat="50.53889" lon="3.22007">
        <ele>-13.4</ele>
        <time>2018-06-26T12:43:21Z</time>
      </trkpt>
      <trkpt lat="50.53876" lon="3.22025">
        <ele>-13.2</ele>
        <time>2018-06-26T12:43:25Z</time>
      </trkpt>
      <trkpt lat="50.53868" lon="3.22045">
        <ele>-13.2</ele>
        <time>2018-06-26T12:43:29Z</time>
      </trkpt>
      <trkpt lat="50.5386" lon="3.22065">
        <ele>-13.4</ele>
        <time>2018-06-26T12:43:33Z</time>
      </trkpt>
      <trkpt lat="50.53852" lon="3.22086">
        <ele>-13.2</ele>
        <time>2018-06-26T12:43:37Z</time>
      </trkpt>
      <trkpt lat="50.53844" lon="3.22109">
        <ele>-13.6</ele>
        <time>2018-06-26T12:43:41Z</time>
      </trkpt>
      <trkpt lat="50.53837" lon="3.22131">
        <ele>-12.6</ele>
        <time>2018-06-26T12:43:45Z</time>
      </trkpt>
      <trkpt lat="50.53828" lon="3.2215">
        <ele>-13</ele>
        <time>2018-06-26T12:43:49Z</time>
      </trkpt>
      <trkpt lat="50.53814" lon="3.22147">
        <ele>-13.6</ele>
        <time>2018-06-26T12:43:53Z</time>
      </trkpt>
      <trkpt lat="50.538" lon="3.22134">
        <ele>-13.2</ele>
        <time>2018-06-26T12:43:57Z</time>
      </trkpt>
      <trkpt lat="50.53785" lon="3.22122">
        <ele>-12.8</ele>
        <time>2018-06-26T12:44:01Z</time>
      </trkpt>
      <trkpt lat="50.53768" lon="3.22114">
        <ele>-13</ele>
        <time>2018-06-26T12:44:05Z</time>
      </trkpt>
      <trkpt lat="50.53751" lon="3.22113">
        <ele>-12</ele>
        <time>2018-06-26T12:44:09Z</time>
      </trkpt>
      <trkpt lat="50.53735" lon="3.22121">
        <ele>-11.6</ele>
        <time>2018-06-26T12:44:13Z</time>
      </trkpt>
      <trkpt lat="50.5372" lon="3.22135">
        <ele>-11.6</ele>
        <time>2018-06-26T12:44:17Z</time>
      </trkpt>
      <trkpt lat="50.53704" lon="3.22142">
        <ele>-11.2</ele>
        <time>2018-06-26T12:44:21Z</time>
      </trkpt>
      <trkpt lat="50.53687" lon="3.22133">
        <ele>-11.2</ele>
        <time>2018-06-26T12:44:25Z</time>
      </trkpt>
      <trkpt lat="50.53673" lon="3.22117">
        <ele>-11.2</ele>
        <time>2018-06-26T12:44:29Z</time>
      </trkpt>
      <trkpt lat="50.5366" lon="3.22098">
        <ele>-11</ele>
        <time>2018-06-26T12:44:33Z</time>
      </trkpt>
      <trkpt lat="50.53647" lon="3.22079">
        <ele>-10.8</ele>
        <time>2018-06-26T12:44:37Z</time>
      </trkpt>
      <trkpt lat="50.53633" lon="3.22059">
        <ele>-10.2</ele>
        <time>2018-06-26T12:44:41Z</time>
      </trkpt>
      <trkpt lat="50.53619" lon="3.22039">
        <ele>-10.2</ele>
        <time>2018-06-26T12:44:45Z</time>
      </trkpt>
      <trkpt lat="50.53605" lon="3.22022">
        <ele>-10</ele>
        <time>2018-06-26T12:44:49Z</time>
      </trkpt>
      <trkpt lat="50.5359" lon="3.2201">
        <ele>-9.8</ele>
        <time>2018-06-26T12:44:53Z</time>
      </trkpt>
      <trkpt lat="50.53572" lon="3.22009">
        <ele>-9.4</ele>
        <time>2018-06-26T12:44:57Z</time>
      </trkpt>
      <trkpt lat="50.53555" lon="3.22011">
        <ele>-9.2</ele>
        <time>2018-06-26T12:45:01Z</time>
      </trkpt>
      <trkpt lat="50.5354" lon="3.22012">
        <ele>-8.2</ele>
        <time>2018-06-26T12:45:05Z</time>
      </trkpt>
      <trkpt lat="50.53525" lon="3.22014">
        <ele>-8.6</ele>
        <time>2018-06-26T12:45:09Z</time>
      </trkpt>
      <trkpt lat="50.53511" lon="3.22025">
        <ele>-8</ele>
        <time>2018-06-26T12:45:13Z</time>
      </trkpt>
      <trkpt lat="50.53501" lon="3.22036">
        <ele>-7.8</ele>
        <time>2018-06-26T12:45:17Z</time>
      </trkpt>
      <trkpt lat="50.53495" lon="3.22047">
        <ele>-8.2</ele>
        <time>2018-06-26T12:45:21Z</time>
      </trkpt>
      <trkpt lat="50.53496" lon="3.22051">
        <ele>-7.8</ele>
        <time>2018-06-26T12:45:25Z</time>
      </trkpt>
      <trkpt lat="50.53504" lon="3.22038">
        <ele>-8</ele>
        <time>2018-06-26T12:45:29Z</time>
      </trkpt>
      <trkpt lat="50.53514" lon="3.22025">
        <ele>-8</ele>
        <time>2018-06-26T12:45:33Z</time>
      </trkpt>
      <trkpt lat="50.53524" lon="3.2201">
        <ele>-7.6</ele>
        <time>2018-06-26T12:45:37Z</time>
      </trkpt>
      <trkpt lat="50.53529" lon="3.21995">
        <ele>-8.4</ele>
        <time>2018-06-26T12:45:41Z</time>
      </trkpt>
      <trkpt lat="50.5353" lon="3.2198">
        <ele>-8.2</ele>
        <time>2018-06-26T12:45:45Z</time>
      </trkpt>
      <trkpt lat="50.53527" lon="3.21965">
        <ele>-8.4</ele>
        <time>2018-06-26T12:45:49Z</time>
      </trkpt>
      <trkpt lat="50.5352" lon="3.21948">
        <ele>-8</ele>
        <time>2018-06-26T12:45:53Z</time>
      </trkpt>
      <trkpt lat="50.53512" lon="3.21931">
        <ele>-8.6</ele>
        <time>2018-06-26T12:45:57Z</time>
      </trkpt>
      <trkpt lat="50.53505" lon="3.21913">
        <ele>-8.6</ele>
        <time>2018-06-26T12:46:01Z</time>
      </trkpt>
      <trkpt lat="50.53499" lon="3.21893">
        <ele>-8.8</ele>
        <time>2018-06-26T12:46:05Z</time>
      </trkpt>
      <trkpt lat="50.53495" lon="3.2187">
        <ele>-8.6</ele>
        <time>2018-06-26T12:46:09Z</time>
      </trkpt>
      <trkpt lat="50.53493" lon="3.21846">
        <ele>-8.6</ele>
        <time>2018-06-26T12:46:13Z</time>
      </trkpt>
      <trkpt lat="50.53492" lon="3.21821">
        <ele>-8.8</ele>
        <time>2018-06-26T12:46:17Z</time>
      </trkpt>
      <trkpt lat="50.53489" lon="3.21795">
        <ele>-8.4</ele>
        <time>2018-06-26T12:46:21Z</time>
      </trkpt>
      <trkpt lat="50.53487" lon="3.21769">
        <ele>-8.8</ele>
        <time>2018-06-26T12:46:25Z</time>
      </trkpt>
      <trkpt lat="50.53486" lon="3.21742">
        <ele>-8.8</ele>
        <time>2018-06-26T12:46:29Z</time>
      </trkpt>
      <trkpt lat="50.53483" lon="3.21715">
        <ele>-8.4</ele>
        <time>2018-06-26T12:46:33Z</time>
      </trkpt>
      <trkpt lat="50.53481" lon="3.21687">
        <ele>-9.2</ele>
        <time>2018-06-26T12:46:37Z</time>
      </trkpt>
      <trkpt lat="50.53479" lon="3.21659">
        <ele>-9.2</ele>
        <time>2018-06-26T12:46:41Z</time>
      </trkpt>
      <trkpt lat="50.53477" lon="3.21631">
        <ele>-8.8</ele>
        <time>2018-06-26T12:46:45Z</time>
      </trkpt>
      <trkpt lat="50.53475" lon="3.21603">
        <ele>-9.8</ele>
        <time>2018-06-26T12:46:49Z</time>
      </trkpt>
      <trkpt lat="50.53473" lon="3.21576">
        <ele>-9.8</ele>
        <time>2018-06-26T12:46:53Z</time>
      </trkpt>
      <trkpt lat="50.53471" lon="3.21549">
        <ele>-9.8</ele>
        <time>2018-06-26T12:46:57Z</time>
      </trkpt>
      <trkpt lat="50.5347" lon="3.21522">
        <ele>-10</ele>
        <time>2018-06-26T12:47:01Z</time>
      </trkpt>
      <trkpt lat="50.53468" lon="3.21494">
        <ele>-9.8</ele>
        <time>2018-06-26T12:47:05Z</time>
      </trkpt>
      <trkpt lat="50.53466" lon="3.21467">
        <ele>-9.6</ele>
        <time>2018-06-26T12:47:09Z</time>
      </trkpt>
      <trkpt lat="50.53465" lon="3.21439">
        <ele>-10.2</ele>
        <time>2018-06-26T12:47:13Z</time>
      </trkpt>
      <trkpt lat="50.53464" lon="3.21413">
        <ele>-9.8</ele>
        <time>2018-06-26T12:47:17Z</time>
      </trkpt>
      <trkpt lat="50.53461" lon="3.21389">
        <ele>-10.8</ele>
        <time>2018-06-26T12:47:21Z</time>
      </trkpt>
      <trkpt lat="50.53458" lon="3.21366">
        <ele>-10.2</ele>
        <time>2018-06-26T12:47:25Z</time>
      </trkpt>
      <trkpt lat="50.53456" lon="3.21344">
        <ele>-10.6</ele>
        <time>2018-06-26T12:47:29Z</time>
      </trkpt>
      <trkpt lat="50.53454" lon="3.21322">
        <ele>-10.2</ele>
        <time>2018-06-26T12:47:33Z</time>
      </trkpt>
      <trkpt lat="50.53452" lon="3.21298">
        <ele>-10</ele>
        <time>2018-06-26T12:47:37Z</time>
      </trkpt>
      <trkpt lat="50.53449" lon="3.21276">
        <ele>-10</ele>
        <time>2018-06-26T12:47:41Z</time>
      </trkpt>
      <trkpt lat="50.53445" lon="3.21253">
        <ele>-10</ele>
        <time>2018-06-26T12:47:45Z</time>
      </trkpt>
      <trkpt lat="50.53442" lon="3.2123">
        <ele>-9.8</ele>
        <time>2018-06-26T12:47:49Z</time>
      </trkpt>
      <trkpt lat="50.53438" lon="3.21207">
        <ele>-9.4</ele>
        <time>2018-06-26T12:47:53Z</time>
      </trkpt>
      <trkpt lat="50.53434" lon="3.21184">
        <ele>-9.6</ele>
        <time>2018-06-26T12:47:57Z</time>
      </trkpt>
      <trkpt lat="50.53431" lon="3.21161">
        <ele>-10</ele>
        <time>2018-06-26T12:48:01Z</time>
      </trkpt>
      <trkpt lat="50.53427" lon="3.21138">
        <ele>-9.8</ele>
        <time>2018-06-26T12:48:05Z</time>
      </trkpt>
      <trkpt lat="50.53423" lon="3.21115">
        <ele>-9.4</ele>
        <time>2018-06-26T12:48:09Z</time>
      </trkpt>
      <trkpt lat="50.53419" lon="3.21093">
        <ele>-10.4</ele>
        <time>2018-06-26T12:48:13Z</time>
      </trkpt>
      <trkpt lat="50.53415" lon="3.21072">
        <ele>-9.6</ele>
        <time>2018-06-26T12:48:17Z</time>
      </trkpt>
      <trkpt lat="50.53411" lon="3.21052">
        <ele>-9.6</ele>
        <time>2018-06-26T12:48:21Z</time>
      </trkpt>
      <trkpt lat="50.53412" lon="3.21032">
        <ele>-9.8</ele>
        <time>2018-06-26T12:48:25Z</time>
      </trkpt>
      <trkpt lat="50.53418" lon="3.21014">
        <ele>-9.8</ele>
        <time>2018-06-26T12:48:29Z</time>
      </trkpt>
      <trkpt lat="50.53421" lon="3.20999">
        <ele>-9.6</ele>
        <time>2018-06-26T12:48:33Z</time>
      </trkpt>
      <trkpt lat="50.53414" lon="3.20988">
        <ele>-9</ele>
        <time>2018-06-26T12:48:37Z</time>
      </trkpt>
      <trkpt lat="50.53401" lon="3.20987">
        <ele>-9.2</ele>
        <time>2018-06-26T12:48:41Z</time>
      </trkpt>
      <trkpt lat="50.53388" lon="3.20989">
        <ele>-9</ele>
        <time>2018-06-26T12:48:45Z</time>
      </trkpt>
      <trkpt lat="50.53375" lon="3.20991">
        <ele>-9.2</ele>
        <time>2018-06-26T12:48:49Z</time>
      </trkpt>
      <trkpt lat="50.53361" lon="3.20993">
        <ele>-8.8</ele>
        <time>2018-06-26T12:48:53Z</time>
      </trkpt>
      <trkpt lat="50.53348" lon="3.20994">
        <ele>-8.8</ele>
        <time>2018-06-26T12:48:57Z</time>
      </trkpt>
      <trkpt lat="50.53334" lon="3.20998">
        <ele>-8.4</ele>
        <time>2018-06-26T12:49:01Z</time>
      </trkpt>
      <trkpt lat="50.53321" lon="3.21005">
        <ele>-8.4</ele>
        <time>2018-06-26T12:49:05Z</time>
      </trkpt>
      <trkpt lat="50.53308" lon="3.21011">
        <ele>-8</ele>
        <time>2018-06-26T12:49:09Z</time>
      </trkpt>
      <trkpt lat="50.53294" lon="3.21016">
        <ele>-7.4</ele>
        <time>2018-06-26T12:49:13Z</time>
      </trkpt>
      <trkpt lat="50.53279" lon="3.21015">
        <ele>-7.8</ele>
        <time>2018-06-26T12:49:17Z</time>
      </trkpt>
      <trkpt lat="50.53267" lon="3.21009">
        <ele>-8</ele>
        <time>2018-06-26T12:49:21Z</time>
      </trkpt>
      <trkpt lat="50.53255" lon="3.21">
        <ele>-7.6</ele>
        <time>2018-06-26T12:49:25Z</time>
      </trkpt>
      <trkpt lat="50.53243" lon="3.20988">
        <ele>-7</ele>
        <time>2018-06-26T12:49:29Z</time>
      </trkpt>
      <trkpt lat="50.53232" lon="3.20977">
        <ele>-6.6</ele>
        <time>2018-06-26T12:49:33Z</time>
      </trkpt>
      <trkpt lat="50.53221" lon="3.20965">
        <ele>-6.4</ele>
        <time>2018-06-26T12:49:37Z</time>
      </trkpt>
      <trkpt lat="50.53216" lon="3.20949">
        <ele>-6.4</ele>
        <time>2018-06-26T12:49:41Z</time>
      </trkpt>
      <trkpt lat="50.53222" lon="3.20932">
        <ele>-6</ele>
        <time>2018-06-26T12:49:45Z</time>
      </trkpt>
      <trkpt lat="50.5323" lon="3.2091">
        <ele>-6</ele>
        <time>2018-06-26T12:49:49Z</time>
      </trkpt>
      <trkpt lat="50.53238" lon="3.20886">
        <ele>-5.6</ele>
        <time>2018-06-26T12:49:53Z</time>
      </trkpt>
      <trkpt lat="50.53245" lon="3.20861">
        <ele>-5.8</ele>
        <time>2018-06-26T12:49:57Z</time>
      </trkpt>
      <trkpt lat="50.53253" lon="3.20834">
        <ele>-6.8</ele>
        <time>2018-06-26T12:50:01Z</time>
      </trkpt>
      <trkpt lat="50.53262" lon="3.20807">
        <ele>-6.4</ele>
        <time>2018-06-26T12:50:05Z</time>
      </trkpt>
      <trkpt lat="50.5327" lon="3.20778">
        <ele>-6.4</ele>
        <time>2018-06-26T12:50:09Z</time>
      </trkpt>
      <trkpt lat="50.53279" lon="3.20749">
        <ele>-7.6</ele>
        <time>2018-06-26T12:50:13Z</time>
      </trkpt>
      <trkpt lat="50.53288" lon="3.20719">
        <ele>-7.4</ele>
        <time>2018-06-26T12:50:17Z</time>
      </trkpt>
      <trkpt lat="50.53297" lon="3.20689">
        <ele>-8</ele>
        <time>2018-06-26T12:50:21Z</time>
      </trkpt>
      <trkpt lat="50.53306" lon="3.20657">
        <ele>-7.4</ele>
        <time>2018-06-26T12:50:25Z</time>
      </trkpt>
      <trkpt lat="50.53315" lon="3.20625">
        <ele>-7.6</ele>
        <time>2018-06-26T12:50:29Z</time>
      </trkpt>
      <trkpt lat="50.53323" lon="3.20591">
        <ele>-7.8</ele>
        <time>2018-06-26T12:50:33Z</time>
      </trkpt>
      <trkpt lat="50.53331" lon="3.20556">
        <ele>-8.2</ele>
        <time>2018-06-26T12:50:37Z</time>
      </trkpt>
      <trkpt lat="50.53338" lon="3.20522">
        <ele>-8.4</ele>
        <time>2018-06-26T12:50:41Z</time>
      </trkpt>
      <trkpt lat="50.53346" lon="3.20489">
        <ele>-8.6</ele>
        <time>2018-06-26T12:50:45Z</time>
      </trkpt>
      <trkpt lat="50.53353" lon="3.20456">
        <ele>-8.8</ele>
        <time>2018-06-26T12:50:49Z</time>
      </trkpt>
      <trkpt lat="50.53362" lon="3.20423">
        <ele>-9.2</ele>
        <time>2018-06-26T12:50:53Z</time>
      </trkpt>
      <trkpt lat="50.5337" lon="3.20391">
        <ele>-9.2</ele>
        <time>2018-06-26T12:50:57Z</time>
      </trkpt>
      <trkpt lat="50.53379" lon="3.20359">
        <ele>-9.8</ele>
        <time>2018-06-26T12:51:01Z</time>
      </trkpt>
      <trkpt lat="50.53388" lon="3.20326">
        <ele>-10.4</ele>
        <time>2018-06-26T12:51:05Z</time>
      </trkpt>
      <trkpt lat="50.53397" lon="3.20293">
        <ele>-11.2</ele>
        <time>2018-06-26T12:51:09Z</time>
      </trkpt>
      <trkpt lat="50.53407" lon="3.20259">
        <ele>-12</ele>
        <time>2018-06-26T12:51:13Z</time>
      </trkpt>
      <trkpt lat="50.53416" lon="3.20225">
        <ele>-11.8</ele>
        <time>2018-06-26T12:51:17Z</time>
      </trkpt>
      <trkpt lat="50.53425" lon="3.20192">
        <ele>-11.8</ele>
        <time>2018-06-26T12:51:21Z</time>
      </trkpt>
      <trkpt lat="50.53431" lon="3.2016">
        <ele>-10.6</ele>
        <time>2018-06-26T12:51:25Z</time>
      </trkpt>
      <trkpt lat="50.53437" lon="3.20129">
        <ele>-11.2</ele>
        <time>2018-06-26T12:51:29Z</time>
      </trkpt>
      <trkpt lat="50.53442" lon="3.20097">
        <ele>-11.4</ele>
        <time>2018-06-26T12:51:33Z</time>
      </trkpt>
      <trkpt lat="50.53444" lon="3.20066">
        <ele>-11.2</ele>
        <time>2018-06-26T12:51:37Z</time>
      </trkpt>
      <trkpt lat="50.53444" lon="3.2004">
        <ele>-10.6</ele>
        <time>2018-06-26T12:51:41Z</time>
      </trkpt>
      <trkpt lat="50.53445" lon="3.20014">
        <ele>-10</ele>
        <time>2018-06-26T12:51:45Z</time>
      </trkpt>
      <trkpt lat="50.53449" lon="3.19982">
        <ele>-9.2</ele>
        <time>2018-06-26T12:51:49Z</time>
      </trkpt>
      <trkpt lat="50.5345" lon="3.19953">
        <ele>-8.8</ele>
        <time>2018-06-26T12:51:53Z</time>
      </trkpt>
      <trkpt lat="50.53448" lon="3.19924">
        <ele>-8.4</ele>
        <time>2018-06-26T12:51:57Z</time>
      </trkpt>
      <trkpt lat="50.53446" lon="3.19896">
        <ele>-8.4</ele>
        <time>2018-06-26T12:52:01Z</time>
      </trkpt>
      <trkpt lat="50.53444" lon="3.19868">
        <ele>-8.4</ele>
        <time>2018-06-26T12:52:05Z</time>
      </trkpt>
      <trkpt lat="50.53442" lon="3.19843">
        <ele>-8.6</ele>
        <time>2018-06-26T12:52:09Z</time>
      </trkpt>
      <trkpt lat="50.53441" lon="3.19816">
        <ele>-8.6</ele>
        <time>2018-06-26T12:52:13Z</time>
      </trkpt>
      <trkpt lat="50.5344" lon="3.19788">
        <ele>-9.4</ele>
        <time>2018-06-26T12:52:17Z</time>
      </trkpt>
      <trkpt lat="50.5344" lon="3.19758">
        <ele>-9.8</ele>
        <time>2018-06-26T12:52:21Z</time>
      </trkpt>
      <trkpt lat="50.53438" lon="3.19724">
        <ele>-10.6</ele>
        <time>2018-06-26T12:52:25Z</time>
      </trkpt>
      <trkpt lat="50.53436" lon="3.19682">
        <ele>-12</ele>
        <time>2018-06-26T12:52:29Z</time>
      </trkpt>
      <trkpt lat="50.53435" lon="3.19656">
        <ele>-12.4</ele>
        <time>2018-06-26T12:52:33Z</time>
      </trkpt>
      <trkpt lat="50.53443" lon="3.19662">
        <ele>-13.4</ele>
        <time>2018-06-26T12:52:37Z</time>
      </trkpt>
      <trkpt lat="50.53454" lon="3.19678">
        <ele>-13.4</ele>
        <time>2018-06-26T12:52:41Z</time>
      </trkpt>
      <trkpt lat="50.53465" lon="3.19697">
        <ele>-13.4</ele>
        <time>2018-06-26T12:52:45Z</time>
      </trkpt>
      <trkpt lat="50.53477" lon="3.19715">
        <ele>-13.8</ele>
        <time>2018-06-26T12:52:49Z</time>
      </trkpt>
      <trkpt lat="50.53489" lon="3.19733">
        <ele>-14</ele>
        <time>2018-06-26T12:52:53Z</time>
      </trkpt>
      <trkpt lat="50.53502" lon="3.19752">
        <ele>-13.8</ele>
        <time>2018-06-26T12:52:57Z</time>
      </trkpt>
      <trkpt lat="50.53516" lon="3.19773">
        <ele>-14</ele>
        <time>2018-06-26T12:53:01Z</time>
      </trkpt>
      <trkpt lat="50.53529" lon="3.19794">
        <ele>-13.8</ele>
        <time>2018-06-26T12:53:05Z</time>
      </trkpt>
      <trkpt lat="50.53543" lon="3.19815">
        <ele>-13.8</ele>
        <time>2018-06-26T12:53:09Z</time>
      </trkpt>
      <trkpt lat="50.53561" lon="3.19827">
        <ele>-14</ele>
        <time>2018-06-26T12:53:13Z</time>
      </trkpt>
      <trkpt lat="50.53577" lon="3.19822">
        <ele>-13.4</ele>
        <time>2018-06-26T12:53:17Z</time>
      </trkpt>
      <trkpt lat="50.53593" lon="3.19815">
        <ele>-12.8</ele>
        <time>2018-06-26T12:53:21Z</time>
      </trkpt>
      <trkpt lat="50.53608" lon="3.19807">
        <ele>-12.8</ele>
        <time>2018-06-26T12:53:25Z</time>
      </trkpt>
      <trkpt lat="50.53625" lon="3.19801">
        <ele>-13</ele>
        <time>2018-06-26T12:53:29Z</time>
      </trkpt>
      <trkpt lat="50.53643" lon="3.19794">
        <ele>-13</ele>
        <time>2018-06-26T12:53:33Z</time>
      </trkpt>
      <trkpt lat="50.53661" lon="3.19787">
        <ele>-14</ele>
        <time>2018-06-26T12:53:37Z</time>
      </trkpt>
      <trkpt lat="50.53678" lon="3.19771">
        <ele>-13.8</ele>
        <time>2018-06-26T12:53:41Z</time>
      </trkpt>
      <trkpt lat="50.53693" lon="3.1975">
        <ele>-14</ele>
        <time>2018-06-26T12:53:45Z</time>
      </trkpt>
      <trkpt lat="50.53709" lon="3.19729">
        <ele>-14.2</ele>
        <time>2018-06-26T12:53:49Z</time>
      </trkpt>
      <trkpt lat="50.53724" lon="3.19708">
        <ele>-14</ele>
        <time>2018-06-26T12:53:53Z</time>
      </trkpt>
      <trkpt lat="50.5374" lon="3.19685">
        <ele>-14</ele>
        <time>2018-06-26T12:53:57Z</time>
      </trkpt>
      <trkpt lat="50.53754" lon="3.19663">
        <ele>-14</ele>
        <time>2018-06-26T12:54:01Z</time>
      </trkpt>
      <trkpt lat="50.53767" lon="3.19642">
        <ele>-14</ele>
        <time>2018-06-26T12:54:05Z</time>
      </trkpt>
      <trkpt lat="50.53779" lon="3.19621">
        <ele>-13.6</ele>
        <time>2018-06-26T12:54:09Z</time>
      </trkpt>
      <trkpt lat="50.53791" lon="3.196">
        <ele>-13.8</ele>
        <time>2018-06-26T12:54:13Z</time>
      </trkpt>
      <trkpt lat="50.53803" lon="3.19578">
        <ele>-13</ele>
        <time>2018-06-26T12:54:17Z</time>
      </trkpt>
      <trkpt lat="50.53814" lon="3.19556">
        <ele>-13.2</ele>
        <time>2018-06-26T12:54:21Z</time>
      </trkpt>
      <trkpt lat="50.53823" lon="3.19532">
        <ele>-13.4</ele>
        <time>2018-06-26T12:54:25Z</time>
      </trkpt>
      <trkpt lat="50.53834" lon="3.19508">
        <ele>-13.4</ele>
        <time>2018-06-26T12:54:29Z</time>
      </trkpt>
      <trkpt lat="50.53845" lon="3.19482">
        <ele>-14</ele>
        <time>2018-06-26T12:54:33Z</time>
      </trkpt>
      <trkpt lat="50.53857" lon="3.19458">
        <ele>-14</ele>
        <time>2018-06-26T12:54:37Z</time>
      </trkpt>
      <trkpt lat="50.5387" lon="3.19434">
        <ele>-14</ele>
        <time>2018-06-26T12:54:41Z</time>
      </trkpt>
      <trkpt lat="50.53883" lon="3.19412">
        <ele>-14.2</ele>
        <time>2018-06-26T12:54:45Z</time>
      </trkpt>
      <trkpt lat="50.53896" lon="3.19392">
        <ele>-14.2</ele>
        <time>2018-06-26T12:54:49Z</time>
      </trkpt>
      <trkpt lat="50.53907" lon="3.19368">
        <ele>-15</ele>
        <time>2018-06-26T12:54:53Z</time>
      </trkpt>
      <trkpt lat="50.53911" lon="3.19335">
        <ele>-15.8</ele>
        <time>2018-06-26T12:54:57Z</time>
      </trkpt>
      <trkpt lat="50.53914" lon="3.19301">
        <ele>-15.2</ele>
        <time>2018-06-26T12:55:01Z</time>
      </trkpt>
      <trkpt lat="50.53924" lon="3.19271">
        <ele>-15.4</ele>
        <time>2018-06-26T12:55:05Z</time>
      </trkpt>
      <trkpt lat="50.53933" lon="3.19244">
        <ele>-14.8</ele>
        <time>2018-06-26T12:55:09Z</time>
      </trkpt>
      <trkpt lat="50.53943" lon="3.19219">
        <ele>-15</ele>
        <time>2018-06-26T12:55:13Z</time>
      </trkpt>
      <trkpt lat="50.53955" lon="3.19196">
        <ele>-14.6</ele>
        <time>2018-06-26T12:55:17Z</time>
      </trkpt>
      <trkpt lat="50.53967" lon="3.19173">
        <ele>-14</ele>
        <time>2018-06-26T12:55:21Z</time>
      </trkpt>
      <trkpt lat="50.53979" lon="3.19152">
        <ele>-14.4</ele>
        <time>2018-06-26T12:55:25Z</time>
      </trkpt>
      <trkpt lat="50.53992" lon="3.1913">
        <ele>-14</ele>
        <time>2018-06-26T12:55:29Z</time>
      </trkpt>
      <trkpt lat="50.54004" lon="3.19108">
        <ele>-13.4</ele>
        <time>2018-06-26T12:55:33Z</time>
      </trkpt>
      <trkpt lat="50.54018" lon="3.19085">
        <ele>-13.8</ele>
        <time>2018-06-26T12:55:37Z</time>
      </trkpt>
      <trkpt lat="50.54032" lon="3.19064">
        <ele>-14.2</ele>
        <time>2018-06-26T12:55:41Z</time>
      </trkpt>
      <trkpt lat="50.54044" lon="3.19042">
        <ele>-14.8</ele>
        <time>2018-06-26T12:55:45Z</time>
      </trkpt>
      <trkpt lat="50.54057" lon="3.19021">
        <ele>-14.8</ele>
        <time>2018-06-26T12:55:49Z</time>
      </trkpt>
      <trkpt lat="50.54069" lon="3.19001">
        <ele>-15.2</ele>
        <time>2018-06-26T12:55:53Z</time>
      </trkpt>
      <trkpt lat="50.54082" lon="3.18981">
        <ele>-15.2</ele>
        <time>2018-06-26T12:55:57Z</time>
      </trkpt>
      <trkpt lat="50.54095" lon="3.18962">
        <ele>-15.4</ele>
        <time>2018-06-26T12:56:01Z</time>
      </trkpt>
      <trkpt lat="50.54108" lon="3.18952">
        <ele>-15.8</ele>
        <time>2018-06-26T12:56:05Z</time>
      </trkpt>
      <trkpt lat="50.5412" lon="3.18956">
        <ele>-15</ele>
        <time>2018-06-26T12:56:09Z</time>
      </trkpt>
      <trkpt lat="50.54137" lon="3.18964">
        <ele>-14.8</ele>
        <time>2018-06-26T12:56:13Z</time>
      </trkpt>
      <trkpt lat="50.54153" lon="3.18972">
        <ele>-15</ele>
        <time>2018-06-26T12:56:17Z</time>
      </trkpt>
      <trkpt lat="50.54171" lon="3.18982">
        <ele>-15.6</ele>
        <time>2018-06-26T12:56:21Z</time>
      </trkpt>
      <trkpt lat="50.54191" lon="3.18991">
        <ele>-15</ele>
        <time>2018-06-26T12:56:25Z</time>
      </trkpt>
      <trkpt lat="50.54213" lon="3.19">
        <ele>-15.8</ele>
        <time>2018-06-26T12:56:29Z</time>
      </trkpt>
      <trkpt lat="50.54235" lon="3.19008">
        <ele>-16</ele>
        <time>2018-06-26T12:56:33Z</time>
      </trkpt>
      <trkpt lat="50.54258" lon="3.19013">
        <ele>-15.8</ele>
        <time>2018-06-26T12:56:37Z</time>
      </trkpt>
      <trkpt lat="50.5428" lon="3.19017">
        <ele>-16.4</ele>
        <time>2018-06-26T12:56:41Z</time>
      </trkpt>
      <trkpt lat="50.543" lon="3.19019">
        <ele>-16.4</ele>
        <time>2018-06-26T12:56:45Z</time>
      </trkpt>
      <trkpt lat="50.5432" lon="3.19019">
        <ele>-16.2</ele>
        <time>2018-06-26T12:56:49Z</time>
      </trkpt>
      <trkpt lat="50.5434" lon="3.19019">
        <ele>-16.4</ele>
        <time>2018-06-26T12:56:53Z</time>
      </trkpt>
      <trkpt lat="50.5436" lon="3.19017">
        <ele>-16</ele>
        <time>2018-06-26T12:56:57Z</time>
      </trkpt>
      <trkpt lat="50.5438" lon="3.19014">
        <ele>-16.6</ele>
        <time>2018-06-26T12:57:01Z</time>
      </trkpt>
      <trkpt lat="50.544" lon="3.19011">
        <ele>-16.2</ele>
        <time>2018-06-26T12:57:05Z</time>
      </trkpt>
      <trkpt lat="50.54422" lon="3.19008">
        <ele>-16.2</ele>
        <time>2018-06-26T12:57:09Z</time>
      </trkpt>
      <trkpt lat="50.54444" lon="3.19005">
        <ele>-16</ele>
        <time>2018-06-26T12:57:13Z</time>
      </trkpt>
      <trkpt lat="50.54465" lon="3.19002">
        <ele>-16</ele>
        <time>2018-06-26T12:57:17Z</time>
      </trkpt>
      <trkpt lat="50.54487" lon="3.19">
        <ele>-15</ele>
        <time>2018-06-26T12:57:21Z</time>
      </trkpt>
      <trkpt lat="50.54507" lon="3.18999">
        <ele>-14.6</ele>
        <time>2018-06-26T12:57:25Z</time>
      </trkpt>
      <trkpt lat="50.54531" lon="3.19001">
        <ele>-14.8</ele>
        <time>2018-06-26T12:57:29Z</time>
      </trkpt>
      <trkpt lat="50.54553" lon="3.19005">
        <ele>-14</ele>
        <time>2018-06-26T12:57:33Z</time>
      </trkpt>
      <trkpt lat="50.54576" lon="3.1901">
        <ele>-13</ele>
        <time>2018-06-26T12:57:37Z</time>
      </trkpt>
      <trkpt lat="50.54598" lon="3.19016">
        <ele>-12.2</ele>
        <time>2018-06-26T12:57:41Z</time>
      </trkpt>
      <trkpt lat="50.54619" lon="3.19019">
        <ele>-11.4</ele>
        <time>2018-06-26T12:57:45Z</time>
      </trkpt>
      <trkpt lat="50.54637" lon="3.19027">
        <ele>-10.4</ele>
        <time>2018-06-26T12:57:49Z</time>
      </trkpt>
      <trkpt lat="50.54655" lon="3.19033">
        <ele>-11</ele>
        <time>2018-06-26T12:57:53Z</time>
      </trkpt>
      <trkpt lat="50.54671" lon="3.19035">
        <ele>-10.2</ele>
        <time>2018-06-26T12:57:57Z</time>
      </trkpt>
      <trkpt lat="50.54686" lon="3.19039">
        <ele>-10.6</ele>
        <time>2018-06-26T12:58:01Z</time>
      </trkpt>
      <trkpt lat="50.54701" lon="3.19045">
        <ele>-11.2</ele>
        <time>2018-06-26T12:58:05Z</time>
      </trkpt>
      <trkpt lat="50.54717" lon="3.19052">
        <ele>-11.6</ele>
        <time>2018-06-26T12:58:09Z</time>
      </trkpt>
      <trkpt lat="50.54736" lon="3.19059">
        <ele>-12.6</ele>
        <time>2018-06-26T12:58:13Z</time>
      </trkpt>
      <trkpt lat="50.54756" lon="3.19063">
        <ele>-13.2</ele>
        <time>2018-06-26T12:58:17Z</time>
      </trkpt>
      <trkpt lat="50.54777" lon="3.19069">
        <ele>-13.8</ele>
        <time>2018-06-26T12:58:21Z</time>
      </trkpt>
      <trkpt lat="50.54799" lon="3.19078">
        <ele>-14.4</ele>
        <time>2018-06-26T12:58:25Z</time>
      </trkpt>
      <trkpt lat="50.54821" lon="3.19086">
        <ele>-15.2</ele>
        <time>2018-06-26T12:58:29Z</time>
      </trkpt>
      <trkpt lat="50.54849" lon="3.191">
        <ele>-16</ele>
        <time>2018-06-26T12:58:33Z</time>
      </trkpt>
      <trkpt lat="50.54874" lon="3.19115">
        <ele>-16.4</ele>
        <time>2018-06-26T12:58:37Z</time>
      </trkpt>
      <trkpt lat="50.54893" lon="3.1913">
        <ele>-17</ele>
        <time>2018-06-26T12:58:41Z</time>
      </trkpt>
      <trkpt lat="50.54911" lon="3.19146">
        <ele>-17</ele>
        <time>2018-06-26T12:58:45Z</time>
      </trkpt>
      <trkpt lat="50.54928" lon="3.19157">
        <ele>-16.6</ele>
        <time>2018-06-26T12:58:49Z</time>
      </trkpt>
      <trkpt lat="50.54945" lon="3.19168">
        <ele>-16.8</ele>
        <time>2018-06-26T12:58:53Z</time>
      </trkpt>
      <trkpt lat="50.54961" lon="3.19183">
        <ele>-17.4</ele>
        <time>2018-06-26T12:58:57Z</time>
      </trkpt>
      <trkpt lat="50.54977" lon="3.19196">
        <ele>-17.4</ele>
        <time>2018-06-26T12:59:01Z</time>
      </trkpt>
      <trkpt lat="50.54994" lon="3.19205">
        <ele>-17.6</ele>
        <time>2018-06-26T12:59:05Z</time>
      </trkpt>
      <trkpt lat="50.55012" lon="3.19211">
        <ele>-17.2</ele>
        <time>2018-06-26T12:59:09Z</time>
      </trkpt>
      <trkpt lat="50.55031" lon="3.19216">
        <ele>-17.6</ele>
        <time>2018-06-26T12:59:13Z</time>
      </trkpt>
      <trkpt lat="50.5505" lon="3.19222">
        <ele>-17.6</ele>
        <time>2018-06-26T12:59:17Z</time>
      </trkpt>
      <trkpt lat="50.55069" lon="3.19226">
        <ele>-17.4</ele>
        <time>2018-06-26T12:59:21Z</time>
      </trkpt>
      <trkpt lat="50.55087" lon="3.19231">
        <ele>-17.6</ele>
        <time>2018-06-26T12:59:25Z</time>
      </trkpt>
      <trkpt lat="50.55106" lon="3.19235">
        <ele>-18</ele>
        <time>2018-06-26T12:59:29Z</time>
      </trkpt>
      <trkpt lat="50.55125" lon="3.19238">
        <ele>-18.2</ele>
        <time>2018-06-26T12:59:33Z</time>
      </trkpt>
      <trkpt lat="50.55144" lon="3.19242">
        <ele>-18</ele>
        <time>2018-06-26T12:59:37Z</time>
      </trkpt>
      <trkpt lat="50.55163" lon="3.19244">
        <ele>-18</ele>
        <time>2018-06-26T12:59:41Z</time>
      </trkpt>
      <trkpt lat="50.55182" lon="3.19243">
        <ele>-17.6</ele>
        <time>2018-06-26T12:59:45Z</time>
      </trkpt>
      <trkpt lat="50.55201" lon="3.19239">
        <ele>-18</ele>
        <time>2018-06-26T12:59:49Z</time>
      </trkpt>
      <trkpt lat="50.55219" lon="3.19231">
        <ele>-18</ele>
        <time>2018-06-26T12:59:53Z</time>
      </trkpt>
      <trkpt lat="50.55238" lon="3.19224">
        <ele>-18</ele>
        <time>2018-06-26T12:59:57Z</time>
      </trkpt>
      <trkpt lat="50.55258" lon="3.19215">
        <ele>-17.4</ele>
        <time>2018-06-26T13:00:01Z</time>
      </trkpt>
      <trkpt lat="50.55276" lon="3.19203">
        <ele>-17.6</ele>
        <time>2018-06-26T13:00:05Z</time>
      </trkpt>
      <trkpt lat="50.55294" lon="3.19193">
        <ele>-17.8</ele>
        <time>2018-06-26T13:00:09Z</time>
      </trkpt>
      <trkpt lat="50.5531" lon="3.19183">
        <ele>-17.8</ele>
        <time>2018-06-26T13:00:13Z</time>
      </trkpt>
      <trkpt lat="50.55308" lon="3.19162">
        <ele>-18.8</ele>
        <time>2018-06-26T13:00:17Z</time>
      </trkpt>
      <trkpt lat="50.55301" lon="3.19137">
        <ele>-18.6</ele>
        <time>2018-06-26T13:00:21Z</time>
      </trkpt>
      <trkpt lat="50.55297" lon="3.19108">
        <ele>-18.6</ele>
        <time>2018-06-26T13:00:25Z</time>
      </trkpt>
      <trkpt lat="50.55297" lon="3.19079">
        <ele>-18.2</ele>
        <time>2018-06-26T13:00:29Z</time>
      </trkpt>
      <trkpt lat="50.55299" lon="3.19051">
        <ele>-17.8</ele>
        <time>2018-06-26T13:00:33Z</time>
      </trkpt>
      <trkpt lat="50.55303" lon="3.19021">
        <ele>-17.8</ele>
        <time>2018-06-26T13:00:37Z</time>
      </trkpt>
      <trkpt lat="50.55309" lon="3.18993">
        <ele>-17.6</ele>
        <time>2018-06-26T13:00:41Z</time>
      </trkpt>
      <trkpt lat="50.55316" lon="3.18966">
        <ele>-18.4</ele>
        <time>2018-06-26T13:00:45Z</time>
      </trkpt>
      <trkpt lat="50.55324" lon="3.18941">
        <ele>-18.4</ele>
        <time>2018-06-26T13:00:49Z</time>
      </trkpt>
      <trkpt lat="50.55331" lon="3.18917">
        <ele>-18.6</ele>
        <time>2018-06-26T13:00:53Z</time>
      </trkpt>
      <trkpt lat="50.55338" lon="3.18895">
        <ele>-18.6</ele>
        <time>2018-06-26T13:00:57Z</time>
      </trkpt>
      <trkpt lat="50.5535" lon="3.18885">
        <ele>-18.8</ele>
        <time>2018-06-26T13:01:01Z</time>
      </trkpt>
      <trkpt lat="50.55365" lon="3.1889">
        <ele>-18.2</ele>
        <time>2018-06-26T13:01:05Z</time>
      </trkpt>
      <trkpt lat="50.5538" lon="3.18898">
        <ele>-17.6</ele>
        <time>2018-06-26T13:01:09Z</time>
      </trkpt>
      <trkpt lat="50.55396" lon="3.18905">
        <ele>-17.6</ele>
        <time>2018-06-26T13:01:13Z</time>
      </trkpt>
      <trkpt lat="50.55411" lon="3.18915">
        <ele>-16.8</ele>
        <time>2018-06-26T13:01:17Z</time>
      </trkpt>
      <trkpt lat="50.55426" lon="3.18924">
        <ele>-17.2</ele>
        <time>2018-06-26T13:01:21Z</time>
      </trkpt>
      <trkpt lat="50.55442" lon="3.18932">
        <ele>-17.2</ele>
        <time>2018-06-26T13:01:25Z</time>
      </trkpt>
      <trkpt lat="50.55453" lon="3.18919">
        <ele>-17.4</ele>
        <time>2018-06-26T13:01:29Z</time>
      </trkpt>
      <trkpt lat="50.55459" lon="3.18895">
        <ele>-18.6</ele>
        <time>2018-06-26T13:01:33Z</time>
      </trkpt>
      <trkpt lat="50.55466" lon="3.1887">
        <ele>-19</ele>
        <time>2018-06-26T13:01:37Z</time>
      </trkpt>
      <trkpt lat="50.55473" lon="3.18844">
        <ele>-17.6</ele>
        <time>2018-06-26T13:01:41Z</time>
      </trkpt>
      <trkpt lat="50.55479" lon="3.18817">
        <ele>-18.2</ele>
        <time>2018-06-26T13:01:45Z</time>
      </trkpt>
      <trkpt lat="50.55487" lon="3.1879">
        <ele>-18.2</ele>
        <time>2018-06-26T13:01:49Z</time>
      </trkpt>
      <trkpt lat="50.55494" lon="3.18761">
        <ele>-17.6</ele>
        <time>2018-06-26T13:01:53Z</time>
      </trkpt>
      <trkpt lat="50.55501" lon="3.18733">
        <ele>-17.8</ele>
        <time>2018-06-26T13:01:57Z</time>
      </trkpt>
      <trkpt lat="50.55508" lon="3.18702">
        <ele>-17.4</ele>
        <time>2018-06-26T13:02:01Z</time>
      </trkpt>
      <trkpt lat="50.55512" lon="3.1867">
        <ele>-17.6</ele>
        <time>2018-06-26T13:02:05Z</time>
      </trkpt>
      <trkpt lat="50.55514" lon="3.18638">
        <ele>-17.6</ele>
        <time>2018-06-26T13:02:09Z</time>
      </trkpt>
      <trkpt lat="50.55515" lon="3.18606">
        <ele>-17.8</ele>
        <time>2018-06-26T13:02:13Z</time>
      </trkpt>
      <trkpt lat="50.55517" lon="3.18574">
        <ele>-17.6</ele>
        <time>2018-06-26T13:02:17Z</time>
      </trkpt>
      <trkpt lat="50.55519" lon="3.18542">
        <ele>-17.8</ele>
        <time>2018-06-26T13:02:21Z</time>
      </trkpt>
      <trkpt lat="50.55525" lon="3.18511">
        <ele>-18.2</ele>
        <time>2018-06-26T13:02:25Z</time>
      </trkpt>
      <trkpt lat="50.55534" lon="3.18482">
        <ele>-18</ele>
        <time>2018-06-26T13:02:29Z</time>
      </trkpt>
      <trkpt lat="50.55544" lon="3.18454">
        <ele>-17.4</ele>
        <time>2018-06-26T13:02:33Z</time>
      </trkpt>
      <trkpt lat="50.55554" lon="3.18427">
        <ele>-18.6</ele>
        <time>2018-06-26T13:02:37Z</time>
      </trkpt>
      <trkpt lat="50.55563" lon="3.18399">
        <ele>-18.4</ele>
        <time>2018-06-26T13:02:41Z</time>
      </trkpt>
      <trkpt lat="50.55573" lon="3.18372">
        <ele>-17.8</ele>
        <time>2018-06-26T13:02:45Z</time>
      </trkpt>
      <trkpt lat="50.55583" lon="3.18345">
        <ele>-17.2</ele>
        <time>2018-06-26T13:02:49Z</time>
      </trkpt>
      <trkpt lat="50.55593" lon="3.18317">
        <ele>-17.8</ele>
        <time>2018-06-26T13:02:53Z</time>
      </trkpt>
      <trkpt lat="50.55602" lon="3.1829">
        <ele>-17.6</ele>
        <time>2018-06-26T13:02:57Z</time>
      </trkpt>
      <trkpt lat="50.55612" lon="3.18262">
        <ele>-17.8</ele>
        <time>2018-06-26T13:03:01Z</time>
      </trkpt>
      <trkpt lat="50.5562" lon="3.18235">
        <ele>-17.6</ele>
        <time>2018-06-26T13:03:05Z</time>
      </trkpt>
      <trkpt lat="50.55625" lon="3.18204">
        <ele>-16.6</ele>
        <time>2018-06-26T13:03:09Z</time>
      </trkpt>
      <trkpt lat="50.55628" lon="3.18172">
        <ele>-16.6</ele>
        <time>2018-06-26T13:03:13Z</time>
      </trkpt>
      <trkpt lat="50.5563" lon="3.18142">
        <ele>-16.6</ele>
        <time>2018-06-26T13:03:17Z</time>
      </trkpt>
      <trkpt lat="50.55632" lon="3.18111">
        <ele>-16.6</ele>
        <time>2018-06-26T13:03:21Z</time>
      </trkpt>
      <trkpt lat="50.55634" lon="3.18082">
        <ele>-16.8</ele>
        <time>2018-06-26T13:03:25Z</time>
      </trkpt>
      <trkpt lat="50.55636" lon="3.18053">
        <ele>-16.8</ele>
        <time>2018-06-26T13:03:29Z</time>
      </trkpt>
      <trkpt lat="50.55637" lon="3.18024">
        <ele>-16.8</ele>
        <time>2018-06-26T13:03:33Z</time>
      </trkpt>
      <trkpt lat="50.55638" lon="3.17996">
        <ele>-17.6</ele>
        <time>2018-06-26T13:03:37Z</time>
      </trkpt>
      <trkpt lat="50.5564" lon="3.17968">
        <ele>-18</ele>
        <time>2018-06-26T13:03:41Z</time>
      </trkpt>
      <trkpt lat="50.55641" lon="3.17941">
        <ele>-17.6</ele>
        <time>2018-06-26T13:03:45Z</time>
      </trkpt>
      <trkpt lat="50.55642" lon="3.17914">
        <ele>-17.4</ele>
        <time>2018-06-26T13:03:49Z</time>
      </trkpt>
      <trkpt lat="50.55643" lon="3.17888">
        <ele>-17.6</ele>
        <time>2018-06-26T13:03:53Z</time>
      </trkpt>
      <trkpt lat="50.55642" lon="3.17875">
        <ele>-18</ele>
        <time>2018-06-26T13:03:57Z</time>
      </trkpt>
      <trkpt lat="50.55636" lon="3.17864">
        <ele>-17.6</ele>
        <time>2018-06-26T13:04:01Z</time>
      </trkpt>
      <trkpt lat="50.5563" lon="3.17857">
        <ele>-18</ele>
        <time>2018-06-26T13:04:05Z</time>
      </trkpt>
      <trkpt lat="50.55628" lon="3.17859">
        <ele>-18</ele>
        <time>2018-06-26T13:04:09Z</time>
      </trkpt>
      <trkpt lat="50.55631" lon="3.17863">
        <ele>-17.8</ele>
        <time>2018-06-26T13:04:13Z</time>
      </trkpt>
      <trkpt lat="50.55638" lon="3.17868">
        <ele>-18.2</ele>
        <time>2018-06-26T13:04:17Z</time>
      </trkpt>
      <trkpt lat="50.55644" lon="3.17867">
        <ele>-17.8</ele>
        <time>2018-06-26T13:04:21Z</time>
      </trkpt>
      <trkpt lat="50.55649" lon="3.17859">
        <ele>-18</ele>
        <time>2018-06-26T13:04:25Z</time>
      </trkpt>
      <trkpt lat="50.55654" lon="3.17845">
        <ele>-18</ele>
        <time>2018-06-26T13:04:29Z</time>
      </trkpt>
      <trkpt lat="50.55658" lon="3.17827">
        <ele>-18</ele>
        <time>2018-06-26T13:04:33Z</time>
      </trkpt>
      <trkpt lat="50.55663" lon="3.17809">
        <ele>-18.4</ele>
        <time>2018-06-26T13:04:37Z</time>
      </trkpt>
      <trkpt lat="50.55668" lon="3.17794">
        <ele>-18.8</ele>
        <time>2018-06-26T13:04:41Z</time>
      </trkpt>
      <trkpt lat="50.55673" lon="3.17778">
        <ele>-18.4</ele>
        <time>2018-06-26T13:04:45Z</time>
      </trkpt>
      <trkpt lat="50.55677" lon="3.17761">
        <ele>-18.6</ele>
        <time>2018-06-26T13:04:49Z</time>
      </trkpt>
      <trkpt lat="50.55685" lon="3.1775">
        <ele>-18.4</ele>
        <time>2018-06-26T13:04:53Z</time>
      </trkpt>
      <trkpt lat="50.55696" lon="3.17752">
        <ele>-18</ele>
        <time>2018-06-26T13:04:57Z</time>
      </trkpt>
      <trkpt lat="50.55708" lon="3.17758">
        <ele>-17.4</ele>
        <time>2018-06-26T13:05:01Z</time>
      </trkpt>
      <trkpt lat="50.5572" lon="3.17766">
        <ele>-16.4</ele>
        <time>2018-06-26T13:05:05Z</time>
      </trkpt>
      <trkpt lat="50.55734" lon="3.17774">
        <ele>-17.6</ele>
        <time>2018-06-26T13:05:09Z</time>
      </trkpt>
      <trkpt lat="50.55747" lon="3.17784">
        <ele>-17.8</ele>
        <time>2018-06-26T13:05:13Z</time>
      </trkpt>
      <trkpt lat="50.55761" lon="3.17794">
        <ele>-17.4</ele>
        <time>2018-06-26T13:05:17Z</time>
      </trkpt>
      <trkpt lat="50.55773" lon="3.17803">
        <ele>-17.4</ele>
        <time>2018-06-26T13:05:21Z</time>
      </trkpt>
      <trkpt lat="50.55782" lon="3.17802">
        <ele>-17.6</ele>
        <time>2018-06-26T13:05:25Z</time>
      </trkpt>
      <trkpt lat="50.5579" lon="3.17786">
        <ele>-18</ele>
        <time>2018-06-26T13:05:29Z</time>
      </trkpt>
      <trkpt lat="50.55797" lon="3.17768">
        <ele>-18.2</ele>
        <time>2018-06-26T13:05:33Z</time>
      </trkpt>
      <trkpt lat="50.55806" lon="3.1775">
        <ele>-18.6</ele>
        <time>2018-06-26T13:05:37Z</time>
      </trkpt>
      <trkpt lat="50.55815" lon="3.17732">
        <ele>-18.4</ele>
        <time>2018-06-26T13:05:41Z</time>
      </trkpt>
      <trkpt lat="50.55823" lon="3.17714">
        <ele>-18.6</ele>
        <time>2018-06-26T13:05:45Z</time>
      </trkpt>
      <trkpt lat="50.55831" lon="3.17697">
        <ele>-19.4</ele>
        <time>2018-06-26T13:05:49Z</time>
      </trkpt>
      <trkpt lat="50.55838" lon="3.17678">
        <ele>-19.4</ele>
        <time>2018-06-26T13:05:53Z</time>
      </trkpt>
      <trkpt lat="50.55847" lon="3.17662">
        <ele>-19.6</ele>
        <time>2018-06-26T13:05:57Z</time>
      </trkpt>
      <trkpt lat="50.55854" lon="3.17651">
        <ele>-20.2</ele>
        <time>2018-06-26T13:06:01Z</time>
      </trkpt>
      <trkpt lat="50.55858" lon="3.17642">
        <ele>-19.4</ele>
        <time>2018-06-26T13:06:05Z</time>
      </trkpt>
      <trkpt lat="50.55871" lon="3.17637">
        <ele>-20</ele>
        <time>2018-06-26T13:06:09Z</time>
      </trkpt>
      <trkpt lat="50.55884" lon="3.17629">
        <ele>-19.8</ele>
        <time>2018-06-26T13:06:13Z</time>
      </trkpt>
      <trkpt lat="50.55897" lon="3.17624">
        <ele>-19.6</ele>
        <time>2018-06-26T13:06:17Z</time>
      </trkpt>
      <trkpt lat="50.5591" lon="3.17619">
        <ele>-19.4</ele>
        <time>2018-06-26T13:06:21Z</time>
      </trkpt>
      <trkpt lat="50.55924" lon="3.17614">
        <ele>-19</ele>
        <time>2018-06-26T13:06:25Z</time>
      </trkpt>
      <trkpt lat="50.55938" lon="3.17608">
        <ele>-19.4</ele>
        <time>2018-06-26T13:06:29Z</time>
      </trkpt>
      <trkpt lat="50.55952" lon="3.17602">
        <ele>-19.4</ele>
        <time>2018-06-26T13:06:33Z</time>
      </trkpt>
      <trkpt lat="50.55965" lon="3.17597">
        <ele>-19</ele>
        <time>2018-06-26T13:06:37Z</time>
      </trkpt>
      <trkpt lat="50.55977" lon="3.17592">
        <ele>-19</ele>
        <time>2018-06-26T13:06:41Z</time>
      </trkpt>
      <trkpt lat="50.55987" lon="3.17587">
        <ele>-19</ele>
        <time>2018-06-26T13:06:45Z</time>
      </trkpt>
      <trkpt lat="50.55999" lon="3.1758">
        <ele>-19</ele>
        <time>2018-06-26T13:06:49Z</time>
      </trkpt>
      <trkpt lat="50.5601" lon="3.17567">
        <ele>-19.2</ele>
        <time>2018-06-26T13:06:53Z</time>
      </trkpt>
      <trkpt lat="50.56023" lon="3.17555">
        <ele>-19.2</ele>
        <time>2018-06-26T13:06:57Z</time>
      </trkpt>
      <trkpt lat="50.56037" lon="3.17543">
        <ele>-19.4</ele>
        <time>2018-06-26T13:07:01Z</time>
      </trkpt>
      <trkpt lat="50.56052" lon="3.1753">
        <ele>-19</ele>
        <time>2018-06-26T13:07:05Z</time>
      </trkpt>
      <trkpt lat="50.56066" lon="3.17518">
        <ele>-19.6</ele>
        <time>2018-06-26T13:07:09Z</time>
      </trkpt>
      <trkpt lat="50.56079" lon="3.17505">
        <ele>-19</ele>
        <time>2018-06-26T13:07:13Z</time>
      </trkpt>
      <trkpt lat="50.56093" lon="3.17494">
        <ele>-20.2</ele>
        <time>2018-06-26T13:07:17Z</time>
      </trkpt>
      <trkpt lat="50.56105" lon="3.17483">
        <ele>-19.4</ele>
        <time>2018-06-26T13:07:21Z</time>
      </trkpt>
      <trkpt lat="50.56115" lon="3.17475">
        <ele>-19.2</ele>
        <time>2018-06-26T13:07:25Z</time>
      </trkpt>
      <trkpt lat="50.56127" lon="3.17468">
        <ele>-19.2</ele>
        <time>2018-06-26T13:07:29Z</time>
      </trkpt>
      <trkpt lat="50.56139" lon="3.17462">
        <ele>-19.4</ele>
        <time>2018-06-26T13:07:33Z</time>
      </trkpt>
      <trkpt lat="50.56149" lon="3.17453">
        <ele>-19.6</ele>
        <time>2018-06-26T13:07:37Z</time>
      </trkpt>
      <trkpt lat="50.56152" lon="3.17441">
        <ele>-20</ele>
        <time>2018-06-26T13:07:41Z</time>
      </trkpt>
      <trkpt lat="50.56163" lon="3.17436">
        <ele>-20</ele>
        <time>2018-06-26T13:07:45Z</time>
      </trkpt>
      <trkpt lat="50.56174" lon="3.17426">
        <ele>-19.6</ele>
        <time>2018-06-26T13:07:49Z</time>
      </trkpt>
      <trkpt lat="50.56186" lon="3.17418">
        <ele>-19.8</ele>
        <time>2018-06-26T13:07:53Z</time>
      </trkpt>
      <trkpt lat="50.56197" lon="3.17409">
        <ele>-19.6</ele>
        <time>2018-06-26T13:07:57Z</time>
      </trkpt>
      <trkpt lat="50.56208" lon="3.17403">
        <ele>-18.8</ele>
        <time>2018-06-26T13:08:01Z</time>
      </trkpt>
      <trkpt lat="50.56218" lon="3.17396">
        <ele>-18.6</ele>
        <time>2018-06-26T13:08:05Z</time>
      </trkpt>
      <trkpt lat="50.56224" lon="3.174">
        <ele>-18.6</ele>
        <time>2018-06-26T13:08:09Z</time>
      </trkpt>
      <trkpt lat="50.56228" lon="3.17414">
        <ele>-18.6</ele>
        <time>2018-06-26T13:08:13Z</time>
      </trkpt>
      <trkpt lat="50.56235" lon="3.17427">
        <ele>-18.4</ele>
        <time>2018-06-26T13:08:17Z</time>
      </trkpt>
      <trkpt lat="50.56244" lon="3.17442">
        <ele>-18</ele>
        <time>2018-06-26T13:08:21Z</time>
      </trkpt>
      <trkpt lat="50.56254" lon="3.17458">
        <ele>-18</ele>
        <time>2018-06-26T13:08:25Z</time>
      </trkpt>
      <trkpt lat="50.56263" lon="3.17474">
        <ele>-18.4</ele>
        <time>2018-06-26T13:08:29Z</time>
      </trkpt>
      <trkpt lat="50.56269" lon="3.1749">
        <ele>-18.4</ele>
        <time>2018-06-26T13:08:33Z</time>
      </trkpt>
      <trkpt lat="50.56277" lon="3.17508">
        <ele>-18.4</ele>
        <time>2018-06-26T13:08:37Z</time>
      </trkpt>
      <trkpt lat="50.56287" lon="3.17524">
        <ele>-18</ele>
        <time>2018-06-26T13:08:41Z</time>
      </trkpt>
      <trkpt lat="50.56297" lon="3.17539">
        <ele>-18</ele>
        <time>2018-06-26T13:08:45Z</time>
      </trkpt>
      <trkpt lat="50.56304" lon="3.17552">
        <ele>-17.6</ele>
        <time>2018-06-26T13:08:49Z</time>
      </trkpt>
      <trkpt lat="50.56304" lon="3.17552">
        <ele>-18.6</ele>
        <time>2018-06-26T13:08:53Z</time>
      </trkpt>
      <trkpt lat="50.56304" lon="3.17552">
        <ele>-18.4</ele>
        <time>2018-06-26T13:08:57Z</time>
      </trkpt>
      <trkpt lat="50.56304" lon="3.17552">
        <ele>-18.2</ele>
        <time>2018-06-26T13:09:01Z</time>
      </trkpt>
      <trkpt lat="50.56304" lon="3.17552">
        <ele>-18.2</ele>
        <time>2018-06-26T13:09:05Z</time>
      </trkpt>
      <trkpt lat="50.5631" lon="3.17555">
        <ele>-18.4</ele>
        <time>2018-06-26T13:09:09Z</time>
      </trkpt>
      <trkpt lat="50.56311" lon="3.17559">
        <ele>-18</ele>
        <time>2018-06-26T13:09:13Z</time>
      </trkpt>
      <trkpt lat="50.56317" lon="3.17568">
        <ele>-18.2</ele>
        <time>2018-06-26T13:09:17Z</time>
      </trkpt>
      <trkpt lat="50.56322" lon="3.17579">
        <ele>-18</ele>
        <time>2018-06-26T13:09:21Z</time>
      </trkpt>
      <trkpt lat="50.56335" lon="3.17597">
        <ele>-17.6</ele>
        <time>2018-06-26T13:09:25Z</time>
      </trkpt>
      <trkpt lat="50.56348" lon="3.17615">
        <ele>-18.2</ele>
        <time>2018-06-26T13:09:29Z</time>
      </trkpt>
      <trkpt lat="50.56356" lon="3.17628">
        <ele>-18.2</ele>
        <time>2018-06-26T13:09:33Z</time>
      </trkpt>
      <trkpt lat="50.56365" lon="3.17641">
        <ele>-18.2</ele>
        <time>2018-06-26T13:09:37Z</time>
      </trkpt>
      <trkpt lat="50.56373" lon="3.17655">
        <ele>-18.2</ele>
        <time>2018-06-26T13:09:41Z</time>
      </trkpt>
      <trkpt lat="50.56384" lon="3.17673">
        <ele>-18.2</ele>
        <time>2018-06-26T13:09:45Z</time>
      </trkpt>
      <trkpt lat="50.56394" lon="3.17689">
        <ele>-18.2</ele>
        <time>2018-06-26T13:09:49Z</time>
      </trkpt>
      <trkpt lat="50.56406" lon="3.17701">
        <ele>-18.6</ele>
        <time>2018-06-26T13:09:53Z</time>
      </trkpt>
      <trkpt lat="50.5642" lon="3.17699">
        <ele>-19</ele>
        <time>2018-06-26T13:09:57Z</time>
      </trkpt>
      <trkpt lat="50.56433" lon="3.1769">
        <ele>-18</ele>
        <time>2018-06-26T13:10:01Z</time>
      </trkpt>
      <trkpt lat="50.56443" lon="3.1769">
        <ele>-18.4</ele>
        <time>2018-06-26T13:10:05Z</time>
      </trkpt>
      <trkpt lat="50.56448" lon="3.17703">
        <ele>-17.8</ele>
        <time>2018-06-26T13:10:09Z</time>
      </trkpt>
      <trkpt lat="50.56454" lon="3.17717">
        <ele>-17.6</ele>
        <time>2018-06-26T13:10:13Z</time>
      </trkpt>
      <trkpt lat="50.56464" lon="3.17729">
        <ele>-17.8</ele>
        <time>2018-06-26T13:10:17Z</time>
      </trkpt>
      <trkpt lat="50.56475" lon="3.17742">
        <ele>-17.8</ele>
        <time>2018-06-26T13:10:21Z</time>
      </trkpt>
      <trkpt lat="50.56488" lon="3.17755">
        <ele>-17.8</ele>
        <time>2018-06-26T13:10:25Z</time>
      </trkpt>
      <trkpt lat="50.56501" lon="3.17769">
        <ele>-18</ele>
        <time>2018-06-26T13:10:29Z</time>
      </trkpt>
      <trkpt lat="50.56512" lon="3.17783">
        <ele>-17.6</ele>
        <time>2018-06-26T13:10:33Z</time>
      </trkpt>
      <trkpt lat="50.56524" lon="3.17798">
        <ele>-17.4</ele>
        <time>2018-06-26T13:10:37Z</time>
      </trkpt>
      <trkpt lat="50.56537" lon="3.1781">
        <ele>-17.6</ele>
        <time>2018-06-26T13:10:41Z</time>
      </trkpt>
      <trkpt lat="50.56552" lon="3.17825">
        <ele>-17.4</ele>
        <time>2018-06-26T13:10:45Z</time>
      </trkpt>
      <trkpt lat="50.56566" lon="3.1784">
        <ele>-17.2</ele>
        <time>2018-06-26T13:10:49Z</time>
      </trkpt>
      <trkpt lat="50.56579" lon="3.17852">
        <ele>-17.6</ele>
        <time>2018-06-26T13:10:53Z</time>
      </trkpt>
      <trkpt lat="50.56593" lon="3.17866">
        <ele>-17.4</ele>
        <time>2018-06-26T13:10:57Z</time>
      </trkpt>
      <trkpt lat="50.56605" lon="3.17881">
        <ele>-17.6</ele>
        <time>2018-06-26T13:11:01Z</time>
      </trkpt>
      <trkpt lat="50.56618" lon="3.17897">
        <ele>-18</ele>
        <time>2018-06-26T13:11:05Z</time>
      </trkpt>
      <trkpt lat="50.56624" lon="3.17921">
        <ele>-18</ele>
        <time>2018-06-26T13:11:09Z</time>
      </trkpt>
      <trkpt lat="50.5663" lon="3.17942">
        <ele>-17.8</ele>
        <time>2018-06-26T13:11:13Z</time>
      </trkpt>
      <trkpt lat="50.56641" lon="3.17956">
        <ele>-18</ele>
        <time>2018-06-26T13:11:17Z</time>
      </trkpt>
      <trkpt lat="50.56657" lon="3.17969">
        <ele>-18.2</ele>
        <time>2018-06-26T13:11:21Z</time>
      </trkpt>
      <trkpt lat="50.5667" lon="3.17983">
        <ele>-18.2</ele>
        <time>2018-06-26T13:11:25Z</time>
      </trkpt>
      <trkpt lat="50.56682" lon="3.17998">
        <ele>-17.6</ele>
        <time>2018-06-26T13:11:29Z</time>
      </trkpt>
      <trkpt lat="50.56693" lon="3.18014">
        <ele>-17.2</ele>
        <time>2018-06-26T13:11:33Z</time>
      </trkpt>
      <trkpt lat="50.56704" lon="3.1803">
        <ele>-17.4</ele>
        <time>2018-06-26T13:11:37Z</time>
      </trkpt>
      <trkpt lat="50.56716" lon="3.18043">
        <ele>-16.8</ele>
        <time>2018-06-26T13:11:41Z</time>
      </trkpt>
      <trkpt lat="50.56726" lon="3.18059">
        <ele>-17</ele>
        <time>2018-06-26T13:11:45Z</time>
      </trkpt>
      <trkpt lat="50.56736" lon="3.18078">
        <ele>-16.4</ele>
        <time>2018-06-26T13:11:49Z</time>
      </trkpt>
      <trkpt lat="50.56745" lon="3.18098">
        <ele>-16.6</ele>
        <time>2018-06-26T13:11:53Z</time>
      </trkpt>
      <trkpt lat="50.56754" lon="3.1811">
        <ele>-16.6</ele>
        <time>2018-06-26T13:11:57Z</time>
      </trkpt>
      <trkpt lat="50.56766" lon="3.1812">
        <ele>-16.4</ele>
        <time>2018-06-26T13:12:01Z</time>
      </trkpt>
      <trkpt lat="50.56775" lon="3.18132">
        <ele>-16.4</ele>
        <time>2018-06-26T13:12:05Z</time>
      </trkpt>
      <trkpt lat="50.56789" lon="3.18146">
        <ele>-17.2</ele>
        <time>2018-06-26T13:12:09Z</time>
      </trkpt>
      <trkpt lat="50.56806" lon="3.18161">
        <ele>-17</ele>
        <time>2018-06-26T13:12:13Z</time>
      </trkpt>
      <trkpt lat="50.56827" lon="3.18173">
        <ele>-17.2</ele>
        <time>2018-06-26T13:12:17Z</time>
      </trkpt>
      <trkpt lat="50.56844" lon="3.1818">
        <ele>-16.4</ele>
        <time>2018-06-26T13:12:21Z</time>
      </trkpt>
      <trkpt lat="50.56862" lon="3.18187">
        <ele>-16.4</ele>
        <time>2018-06-26T13:12:25Z</time>
      </trkpt>
      <trkpt lat="50.5688" lon="3.18194">
        <ele>-16.2</ele>
        <time>2018-06-26T13:12:29Z</time>
      </trkpt>
      <trkpt lat="50.56898" lon="3.18201">
        <ele>-17.2</ele>
        <time>2018-06-26T13:12:33Z</time>
      </trkpt>
      <trkpt lat="50.56916" lon="3.18208">
        <ele>-17.8</ele>
        <time>2018-06-26T13:12:37Z</time>
      </trkpt>
      <trkpt lat="50.56932" lon="3.18216">
        <ele>-17.4</ele>
        <time>2018-06-26T13:12:41Z</time>
      </trkpt>
      <trkpt lat="50.56949" lon="3.18226">
        <ele>-17.8</ele>
        <time>2018-06-26T13:12:45Z</time>
      </trkpt>
      <trkpt lat="50.56964" lon="3.18236">
        <ele>-17.8</ele>
        <time>2018-06-26T13:12:49Z</time>
      </trkpt>
      <trkpt lat="50.56981" lon="3.18245">
        <ele>-17.2</ele>
        <time>2018-06-26T13:12:53Z</time>
      </trkpt>
      <trkpt lat="50.56997" lon="3.18254">
        <ele>-17.6</ele>
        <time>2018-06-26T13:12:57Z</time>
      </trkpt>
      <trkpt lat="50.57015" lon="3.18259">
        <ele>-18.4</ele>
        <time>2018-06-26T13:13:01Z</time>
      </trkpt>
      <trkpt lat="50.57033" lon="3.18263">
        <ele>-18.4</ele>
        <time>2018-06-26T13:13:05Z</time>
      </trkpt>
      <trkpt lat="50.5705" lon="3.18258">
        <ele>-17.8</ele>
        <time>2018-06-26T13:13:09Z</time>
      </trkpt>
      <trkpt lat="50.57063" lon="3.1824">
        <ele>-18</ele>
        <time>2018-06-26T13:13:13Z</time>
      </trkpt>
      <trkpt lat="50.57078" lon="3.18226">
        <ele>-18.2</ele>
        <time>2018-06-26T13:13:17Z</time>
      </trkpt>
      <trkpt lat="50.57094" lon="3.18225">
        <ele>-18</ele>
        <time>2018-06-26T13:13:21Z</time>
      </trkpt>
      <trkpt lat="50.57107" lon="3.18232">
        <ele>-18</ele>
        <time>2018-06-26T13:13:25Z</time>
      </trkpt>
      <trkpt lat="50.57124" lon="3.18242">
        <ele>-18.6</ele>
        <time>2018-06-26T13:13:29Z</time>
      </trkpt>
      <trkpt lat="50.57141" lon="3.18252">
        <ele>-18</ele>
        <time>2018-06-26T13:13:33Z</time>
      </trkpt>
      <trkpt lat="50.5716" lon="3.18261">
        <ele>-17.8</ele>
        <time>2018-06-26T13:13:37Z</time>
      </trkpt>
      <trkpt lat="50.57178" lon="3.18265">
        <ele>-17.6</ele>
        <time>2018-06-26T13:13:41Z</time>
      </trkpt>
      <trkpt lat="50.57195" lon="3.18264">
        <ele>-18</ele>
        <time>2018-06-26T13:13:45Z</time>
      </trkpt>
      <trkpt lat="50.57212" lon="3.18263">
        <ele>-18</ele>
        <time>2018-06-26T13:13:49Z</time>
      </trkpt>
      <trkpt lat="50.57232" lon="3.18264">
        <ele>-18</ele>
        <time>2018-06-26T13:13:53Z</time>
      </trkpt>
      <trkpt lat="50.5725" lon="3.18261">
        <ele>-18</ele>
        <time>2018-06-26T13:13:57Z</time>
      </trkpt>
      <trkpt lat="50.57268" lon="3.18254">
        <ele>-17.8</ele>
        <time>2018-06-26T13:14:01Z</time>
      </trkpt>
      <trkpt lat="50.57292" lon="3.18249">
        <ele>-18</ele>
        <time>2018-06-26T13:14:05Z</time>
      </trkpt>
      <trkpt lat="50.57308" lon="3.1824">
        <ele>-17.8</ele>
        <time>2018-06-26T13:14:09Z</time>
      </trkpt>
      <trkpt lat="50.57323" lon="3.18227">
        <ele>-18</ele>
        <time>2018-06-26T13:14:13Z</time>
      </trkpt>
      <trkpt lat="50.57337" lon="3.18214">
        <ele>-18</ele>
        <time>2018-06-26T13:14:17Z</time>
      </trkpt>
      <trkpt lat="50.5735" lon="3.18197">
        <ele>-18.2</ele>
        <time>2018-06-26T13:14:21Z</time>
      </trkpt>
      <trkpt lat="50.57361" lon="3.1818">
        <ele>-17.6</ele>
        <time>2018-06-26T13:14:25Z</time>
      </trkpt>
      <trkpt lat="50.5737" lon="3.18162">
        <ele>-18</ele>
        <time>2018-06-26T13:14:29Z</time>
      </trkpt>
      <trkpt lat="50.57383" lon="3.18146">
        <ele>-17.4</ele>
        <time>2018-06-26T13:14:33Z</time>
      </trkpt>
      <trkpt lat="50.57398" lon="3.18139">
        <ele>-17.4</ele>
        <time>2018-06-26T13:14:37Z</time>
      </trkpt>
      <trkpt lat="50.57415" lon="3.18136">
        <ele>-17.6</ele>
        <time>2018-06-26T13:14:41Z</time>
      </trkpt>
      <trkpt lat="50.57429" lon="3.18134">
        <ele>-17.6</ele>
        <time>2018-06-26T13:14:45Z</time>
      </trkpt>
      <trkpt lat="50.57439" lon="3.1814">
        <ele>-17.2</ele>
        <time>2018-06-26T13:14:49Z</time>
      </trkpt>
      <trkpt lat="50.57447" lon="3.18154">
        <ele>-18.8</ele>
        <time>2018-06-26T13:14:53Z</time>
      </trkpt>
      <trkpt lat="50.57449" lon="3.18171">
        <ele>-18.6</ele>
        <time>2018-06-26T13:14:57Z</time>
      </trkpt>
      <trkpt lat="50.57445" lon="3.18186">
        <ele>-19</ele>
        <time>2018-06-26T13:15:01Z</time>
      </trkpt>
      <trkpt lat="50.57437" lon="3.18191">
        <ele>-18.6</ele>
        <time>2018-06-26T13:15:05Z</time>
      </trkpt>
      <trkpt lat="50.57433" lon="3.18203">
        <ele>-17.8</ele>
        <time>2018-06-26T13:15:09Z</time>
      </trkpt>
      <trkpt lat="50.5743" lon="3.18205">
        <ele>-17.8</ele>
        <time>2018-06-26T13:15:13Z</time>
      </trkpt>
      <trkpt lat="50.57429" lon="3.18212">
        <ele>-18</ele>
        <time>2018-06-26T13:15:17Z</time>
      </trkpt>
      <trkpt lat="50.57434" lon="3.1822">
        <ele>-17.4</ele>
        <time>2018-06-26T13:15:21Z</time>
      </trkpt>
      <trkpt lat="50.57436" lon="3.18227">
        <ele>-17.4</ele>
        <time>2018-06-26T13:15:25Z</time>
      </trkpt>
      <trkpt lat="50.5744" lon="3.1824">
        <ele>-17.6</ele>
        <time>2018-06-26T13:15:29Z</time>
      </trkpt>
      <trkpt lat="50.57443" lon="3.18253">
        <ele>-17.6</ele>
        <time>2018-06-26T13:15:33Z</time>
      </trkpt>
      <trkpt lat="50.57443" lon="3.18253">
        <ele>-17.6</ele>
        <time>2018-06-26T13:15:37Z</time>
      </trkpt>
      <trkpt lat="50.57443" lon="3.18253">
        <ele>-17.6</ele>
        <time>2018-06-26T13:15:41Z</time>
      </trkpt>
      <trkpt lat="50.57443" lon="3.18253">
        <ele>-17.4</ele>
        <time>2018-06-26T13:15:45Z</time>
      </trkpt>
      <trkpt lat="50.57443" lon="3.18253">
        <ele>-17.6</ele>
        <time>2018-06-26T13:15:49Z</time>
      </trkpt>
      <trkpt lat="50.57443" lon="3.18253">
        <ele>-17.8</ele>
        <time>2018-06-26T13:15:53Z</time>
      </trkpt>
      <trkpt lat="50.57443" lon="3.18253">
        <ele>-17.6</ele>
        <time>2018-06-26T13:15:57Z</time>
      </trkpt>
      <trkpt lat="50.57443" lon="3.18253">
        <ele>-17.4</ele>
        <time>2018-06-26T13:16:01Z</time>
      </trkpt>
      <trkpt lat="50.57443" lon="3.18253">
        <ele>-17</ele>
        <time>2018-06-26T13:16:05Z</time>
      </trkpt>
      <trkpt lat="50.57443" lon="3.18253">
        <ele>-17.2</ele>
        <time>2018-06-26T13:16:09Z</time>
      </trkpt>
      <trkpt lat="50.57443" lon="3.18253">
        <ele>-17.4</ele>
        <time>2018-06-26T13:16:13Z</time>
      </trkpt>
      <trkpt lat="50.57443" lon="3.18253">
        <ele>-17.2</ele>
        <time>2018-06-26T13:16:17Z</time>
      </trkpt>
      <trkpt lat="50.57443" lon="3.18253">
        <ele>-17.2</ele>
        <time>2018-06-26T13:16:21Z</time>
      </trkpt>
      <trkpt lat="50.57443" lon="3.18253">
        <ele>-17.2</ele>
        <time>2018-06-26T13:16:25Z</time>
      </trkpt>
      <trkpt lat="50.57443" lon="3.18253">
        <ele>-16.8</ele>
        <time>2018-06-26T13:16:29Z</time>
      </trkpt>
      <trkpt lat="50.57443" lon="3.18253">
        <ele>-17</ele>
        <time>2018-06-26T13:16:33Z</time>
      </trkpt>
      <trkpt lat="50.57443" lon="3.18253">
        <ele>-17</ele>
        <time>2018-06-26T13:16:37Z</time>
      </trkpt>
      <trkpt lat="50.57443" lon="3.18253">
        <ele>-16.8</ele>
        <time>2018-06-26T13:16:41Z</time>
      </trkpt>
      <trkpt lat="50.57443" lon="3.18253">
        <ele>-17.4</ele>
        <time>2018-06-26T13:16:45Z</time>
      </trkpt>
      <trkpt lat="50.57443" lon="3.18253">
        <ele>-17.2</ele>
        <time>2018-06-26T13:16:49Z</time>
      </trkpt>
      <trkpt lat="50.57443" lon="3.18253">
        <ele>-16.8</ele>
        <time>2018-06-26T13:16:53Z</time>
      </trkpt>
      <trkpt lat="50.57443" lon="3.18253">
        <ele>-16.6</ele>
        <time>2018-06-26T13:16:57Z</time>
      </trkpt>
      <trkpt lat="50.57443" lon="3.18253">
        <ele>-17</ele>
        <time>2018-06-26T13:17:01Z</time>
      </trkpt>
      <trkpt lat="50.57443" lon="3.18253">
        <ele>-17</ele>
        <time>2018-06-26T13:17:05Z</time>
      </trkpt>
      <trkpt lat="50.57443" lon="3.18253">
        <ele>-16.8</ele>
        <time>2018-06-26T13:17:09Z</time>
      </trkpt>
      <trkpt lat="50.57443" lon="3.18253">
        <ele>-16.6</ele>
        <time>2018-06-26T13:17:13Z</time>
      </trkpt>
      <trkpt lat="50.57443" lon="3.18253">
        <ele>-16.8</ele>
        <time>2018-06-26T13:17:17Z</time>
      </trkpt>
      <trkpt lat="50.57443" lon="3.18253">
        <ele>-16.8</ele>
        <time>2018-06-26T13:17:21Z</time>
      </trkpt>
      <trkpt lat="50.57443" lon="3.18253">
        <ele>-16.6</ele>
        <time>2018-06-26T13:17:25Z</time>
      </trkpt>
      <trkpt lat="50.57443" lon="3.18253">
        <ele>-16.8</ele>
        <time>2018-06-26T13:17:29Z</time>
      </trkpt>
      <trkpt lat="50.57443" lon="3.18253">
        <ele>-16.8</ele>
        <time>2018-06-26T13:17:33Z</time>
      </trkpt>
      <trkpt lat="50.57443" lon="3.18253">
        <ele>-16.8</ele>
        <time>2018-06-26T13:17:37Z</time>
      </trkpt>
      <trkpt lat="50.57443" lon="3.18253">
        <ele>-17.2</ele>
        <time>2018-06-26T13:17:41Z</time>
      </trkpt>
      <trkpt lat="50.57443" lon="3.18253">
        <ele>-16.6</ele>
        <time>2018-06-26T13:17:45Z</time>
      </trkpt>
      <trkpt lat="50.57443" lon="3.18253">
        <ele>-16.6</ele>
        <time>2018-06-26T13:17:49Z</time>
      </trkpt>
      <trkpt lat="50.57443" lon="3.18253">
        <ele>-16.8</ele>
        <time>2018-06-26T13:17:53Z</time>
      </trkpt>
      <trkpt lat="50.57443" lon="3.18253">
        <ele>-16.8</ele>
        <time>2018-06-26T13:17:57Z</time>
      </trkpt>
      <trkpt lat="50.57443" lon="3.18253">
        <ele>-17</ele>
        <time>2018-06-26T13:18:01Z</time>
      </trkpt>
      <trkpt lat="50.57443" lon="3.18253">
        <ele>-17</ele>
        <time>2018-06-26T13:18:05Z</time>
      </trkpt>
      <trkpt lat="50.57443" lon="3.18253">
        <ele>-16.8</ele>
        <time>2018-06-26T13:18:09Z</time>
      </trkpt>
      <trkpt lat="50.57443" lon="3.18253">
        <ele>-17</ele>
        <time>2018-06-26T13:18:13Z</time>
      </trkpt>
      <trkpt lat="50.57443" lon="3.18253">
        <ele>-17</ele>
        <time>2018-06-26T13:18:17Z</time>
      </trkpt>
      <trkpt lat="50.57443" lon="3.18253">
        <ele>-17</ele>
        <time>2018-06-26T13:18:21Z</time>
      </trkpt>
      <trkpt lat="50.57443" lon="3.18253">
        <ele>-17</ele>
        <time>2018-06-26T13:18:25Z</time>
      </trkpt>
      <trkpt lat="50.57443" lon="3.18253">
        <ele>-17.4</ele>
        <time>2018-06-26T13:18:29Z</time>
      </trkpt>
      <trkpt lat="50.57443" lon="3.18253">
        <ele>-17.4</ele>
        <time>2018-06-26T13:18:33Z</time>
      </trkpt>
      <trkpt lat="50.57443" lon="3.18253">
        <ele>-17.2</ele>
        <time>2018-06-26T13:18:37Z</time>
      </trkpt>
      <trkpt lat="50.57443" lon="3.18253">
        <ele>-16.8</ele>
        <time>2018-06-26T13:18:41Z</time>
      </trkpt>
      <trkpt lat="50.57443" lon="3.18253">
        <ele>-16.6</ele>
        <time>2018-06-26T13:18:45Z</time>
      </trkpt>
      <trkpt lat="50.57443" lon="3.18253">
        <ele>-17.2</ele>
        <time>2018-06-26T13:18:49Z</time>
      </trkpt>
      <trkpt lat="50.57443" lon="3.18253">
        <ele>-16.8</ele>
        <time>2018-06-26T13:18:53Z</time>
      </trkpt>
      <trkpt lat="50.57443" lon="3.18253">
        <ele>-17</ele>
        <time>2018-06-26T13:18:57Z</time>
      </trkpt>
      <trkpt lat="50.57443" lon="3.18253">
        <ele>-16.8</ele>
        <time>2018-06-26T13:19:01Z</time>
      </trkpt>
      <trkpt lat="50.57443" lon="3.18253">
        <ele>-16.8</ele>
        <time>2018-06-26T13:19:05Z</time>
      </trkpt>
      <trkpt lat="50.57443" lon="3.18253">
        <ele>-17</ele>
        <time>2018-06-26T13:19:09Z</time>
      </trkpt>
      <trkpt lat="50.57443" lon="3.18253">
        <ele>-16.6</ele>
        <time>2018-06-26T13:19:13Z</time>
      </trkpt>
      <trkpt lat="50.57443" lon="3.18253">
        <ele>-16.8</ele>
        <time>2018-06-26T13:19:17Z</time>
      </trkpt>
      <trkpt lat="50.57443" lon="3.18253">
        <ele>-16.8</ele>
        <time>2018-06-26T13:19:21Z</time>
      </trkpt>
      <trkpt lat="50.57443" lon="3.18253">
        <ele>-17.4</ele>
        <time>2018-06-26T13:19:25Z</time>
      </trkpt>
      <trkpt lat="50.57443" lon="3.18253">
        <ele>-17.2</ele>
        <time>2018-06-26T13:19:29Z</time>
      </trkpt>
      <trkpt lat="50.57443" lon="3.18253">
        <ele>-17.4</ele>
        <time>2018-06-26T13:19:33Z</time>
      </trkpt>
      <trkpt lat="50.57443" lon="3.18253">
        <ele>-17.4</ele>
        <time>2018-06-26T13:19:37Z</time>
      </trkpt>
      <trkpt lat="50.57443" lon="3.18253">
        <ele>-16.8</ele>
        <time>2018-06-26T13:19:41Z</time>
      </trkpt>
      <trkpt lat="50.57443" lon="3.18253">
        <ele>-16.8</ele>
        <time>2018-06-26T13:19:45Z</time>
      </trkpt>
      <trkpt lat="50.57443" lon="3.18253">
        <ele>-17.2</ele>
        <time>2018-06-26T13:19:49Z</time>
      </trkpt>
      <trkpt lat="50.57443" lon="3.18253">
        <ele>-17</ele>
        <time>2018-06-26T13:19:53Z</time>
      </trkpt>
      <trkpt lat="50.57443" lon="3.18253">
        <ele>-17.6</ele>
        <time>2018-06-26T13:19:57Z</time>
      </trkpt>
      <trkpt lat="50.57443" lon="3.18253">
        <ele>-17</ele>
        <time>2018-06-26T13:20:01Z</time>
      </trkpt>
      <trkpt lat="50.57443" lon="3.18253">
        <ele>-16.6</ele>
        <time>2018-06-26T13:20:05Z</time>
      </trkpt>
      <trkpt lat="50.57443" lon="3.18253">
        <ele>-16.8</ele>
        <time>2018-06-26T13:20:09Z</time>
      </trkpt>
      <trkpt lat="50.57443" lon="3.18253">
        <ele>-16.8</ele>
        <time>2018-06-26T13:20:13Z</time>
      </trkpt>
      <trkpt lat="50.57443" lon="3.18253">
        <ele>-16.8</ele>
        <time>2018-06-26T13:20:17Z</time>
      </trkpt>
      <trkpt lat="50.57443" lon="3.18253">
        <ele>-17.2</ele>
        <time>2018-06-26T13:20:21Z</time>
      </trkpt>
      <trkpt lat="50.57443" lon="3.18253">
        <ele>-17.2</ele>
        <time>2018-06-26T13:20:25Z</time>
      </trkpt>
      <trkpt lat="50.57443" lon="3.18253">
        <ele>-17.4</ele>
        <time>2018-06-26T13:20:29Z</time>
      </trkpt>
      <trkpt lat="50.57443" lon="3.18253">
        <ele>-17.2</ele>
        <time>2018-06-26T13:20:33Z</time>
      </trkpt>
      <trkpt lat="50.57443" lon="3.18253">
        <ele>-17.4</ele>
        <time>2018-06-26T13:20:37Z</time>
      </trkpt>
      <trkpt lat="50.57443" lon="3.18253">
        <ele>-17</ele>
        <time>2018-06-26T13:20:41Z</time>
      </trkpt>
      <trkpt lat="50.57443" lon="3.18253">
        <ele>-16.6</ele>
        <time>2018-06-26T13:20:45Z</time>
      </trkpt>
      <trkpt lat="50.57443" lon="3.18253">
        <ele>-16.6</ele>
        <time>2018-06-26T13:20:49Z</time>
      </trkpt>
      <trkpt lat="50.57443" lon="3.18253">
        <ele>-16.6</ele>
        <time>2018-06-26T13:20:53Z</time>
      </trkpt>
      <trkpt lat="50.57443" lon="3.18253">
        <ele>-16.6</ele>
        <time>2018-06-26T13:20:57Z</time>
      </trkpt>
      <trkpt lat="50.57443" lon="3.18253">
        <ele>-17.2</ele>
        <time>2018-06-26T13:21:01Z</time>
      </trkpt>
      <trkpt lat="50.57443" lon="3.18253">
        <ele>-16.6</ele>
        <time>2018-06-26T13:21:05Z</time>
      </trkpt>
      <trkpt lat="50.57443" lon="3.18253">
        <ele>-16.8</ele>
        <time>2018-06-26T13:21:09Z</time>
      </trkpt>
      <trkpt lat="50.57443" lon="3.18253">
        <ele>-16.4</ele>
        <time>2018-06-26T13:21:13Z</time>
      </trkpt>
      <trkpt lat="50.57443" lon="3.18253">
        <ele>-16.6</ele>
        <time>2018-06-26T13:21:17Z</time>
      </trkpt>
      <trkpt lat="50.57443" lon="3.18253">
        <ele>-16.2</ele>
        <time>2018-06-26T13:21:21Z</time>
      </trkpt>
      <trkpt lat="50.57443" lon="3.18253">
        <ele>-16.4</ele>
        <time>2018-06-26T13:21:25Z</time>
      </trkpt>
      <trkpt lat="50.57443" lon="3.18253">
        <ele>-16.6</ele>
        <time>2018-06-26T13:21:29Z</time>
      </trkpt>
      <trkpt lat="50.57443" lon="3.18253">
        <ele>-16.6</ele>
        <time>2018-06-26T13:21:33Z</time>
      </trkpt>
      <trkpt lat="50.57443" lon="3.18253">
        <ele>-16.2</ele>
        <time>2018-06-26T13:21:37Z</time>
      </trkpt>
      <trkpt lat="50.57443" lon="3.18253">
        <ele>-16.6</ele>
        <time>2018-06-26T13:21:41Z</time>
      </trkpt>
      <trkpt lat="50.57443" lon="3.18253">
        <ele>-16.8</ele>
        <time>2018-06-26T13:21:45Z</time>
      </trkpt>
      <trkpt lat="50.57443" lon="3.18253">
        <ele>-16.6</ele>
        <time>2018-06-26T13:21:49Z</time>
      </trkpt>
      <trkpt lat="50.57443" lon="3.18253">
        <ele>-16.4</ele>
        <time>2018-06-26T13:21:53Z</time>
      </trkpt>
      <trkpt lat="50.57443" lon="3.18253">
        <ele>-16.4</ele>
        <time>2018-06-26T13:21:57Z</time>
      </trkpt>
      <trkpt lat="50.57443" lon="3.18253">
        <ele>-16.6</ele>
        <time>2018-06-26T13:22:01Z</time>
      </trkpt>
      <trkpt lat="50.57443" lon="3.18253">
        <ele>-15.8</ele>
        <time>2018-06-26T13:22:05Z</time>
      </trkpt>
      <trkpt lat="50.57443" lon="3.18253">
        <ele>-16.4</ele>
        <time>2018-06-26T13:22:09Z</time>
      </trkpt>
      <trkpt lat="50.57443" lon="3.18253">
        <ele>-16.4</ele>
        <time>2018-06-26T13:22:13Z</time>
      </trkpt>
      <trkpt lat="50.57443" lon="3.18253">
        <ele>-16.2</ele>
        <time>2018-06-26T13:22:17Z</time>
      </trkpt>
      <trkpt lat="50.57443" lon="3.18253">
        <ele>-16.2</ele>
        <time>2018-06-26T13:22:21Z</time>
      </trkpt>
      <trkpt lat="50.57443" lon="3.18253">
        <ele>-16.6</ele>
        <time>2018-06-26T13:22:25Z</time>
      </trkpt>
      <trkpt lat="50.57443" lon="3.18253">
        <ele>-16.8</ele>
        <time>2018-06-26T13:22:29Z</time>
      </trkpt>
      <trkpt lat="50.57443" lon="3.18253">
        <ele>-16.8</ele>
        <time>2018-06-26T13:22:33Z</time>
      </trkpt>
      <trkpt lat="50.57443" lon="3.18253">
        <ele>-17</ele>
        <time>2018-06-26T13:22:37Z</time>
      </trkpt>
      <trkpt lat="50.57443" lon="3.18253">
        <ele>-17</ele>
        <time>2018-06-26T13:22:41Z</time>
      </trkpt>
      <trkpt lat="50.57443" lon="3.18253">
        <ele>-17.2</ele>
        <time>2018-06-26T13:22:45Z</time>
      </trkpt>
      <trkpt lat="50.57443" lon="3.18253">
        <ele>-16.6</ele>
        <time>2018-06-26T13:22:49Z</time>
      </trkpt>
      <trkpt lat="50.57443" lon="3.18253">
        <ele>-16.6</ele>
        <time>2018-06-26T13:22:53Z</time>
      </trkpt>
      <trkpt lat="50.57443" lon="3.18253">
        <ele>-16.8</ele>
        <time>2018-06-26T13:22:57Z</time>
      </trkpt>
      <trkpt lat="50.57443" lon="3.18253">
        <ele>-16.2</ele>
        <time>2018-06-26T13:23:01Z</time>
      </trkpt>
      <trkpt lat="50.57443" lon="3.18253">
        <ele>-16.6</ele>
        <time>2018-06-26T13:23:05Z</time>
      </trkpt>
      <trkpt lat="50.57443" lon="3.18253">
        <ele>-16.2</ele>
        <time>2018-06-26T13:23:09Z</time>
      </trkpt>
      <trkpt lat="50.57443" lon="3.18253">
        <ele>-16.2</ele>
        <time>2018-06-26T13:23:13Z</time>
      </trkpt>
      <trkpt lat="50.57443" lon="3.18253">
        <ele>-17.2</ele>
        <time>2018-06-26T13:23:17Z</time>
      </trkpt>
      <trkpt lat="50.57443" lon="3.18253">
        <ele>-17.4</ele>
        <time>2018-06-26T13:23:21Z</time>
      </trkpt>
      <trkpt lat="50.57443" lon="3.18253">
        <ele>-17</ele>
        <time>2018-06-26T13:23:25Z</time>
      </trkpt>
      <trkpt lat="50.57443" lon="3.18253">
        <ele>-17</ele>
        <time>2018-06-26T13:23:29Z</time>
      </trkpt>
      <trkpt lat="50.57443" lon="3.18253">
        <ele>-16.6</ele>
        <time>2018-06-26T13:23:33Z</time>
      </trkpt>
      <trkpt lat="50.57443" lon="3.18253">
        <ele>-16.8</ele>
        <time>2018-06-26T13:23:37Z</time>
      </trkpt>
      <trkpt lat="50.57443" lon="3.18253">
        <ele>-16.8</ele>
        <time>2018-06-26T13:23:41Z</time>
      </trkpt>
      <trkpt lat="50.57443" lon="3.18253">
        <ele>-16.4</ele>
        <time>2018-06-26T13:23:45Z</time>
      </trkpt>
      <trkpt lat="50.57443" lon="3.18253">
        <ele>-17</ele>
        <time>2018-06-26T13:23:49Z</time>
      </trkpt>
      <trkpt lat="50.57443" lon="3.18253">
        <ele>-17.2</ele>
        <time>2018-06-26T13:23:53Z</time>
      </trkpt>
      <trkpt lat="50.57443" lon="3.18253">
        <ele>-17</ele>
        <time>2018-06-26T13:23:57Z</time>
      </trkpt>
      <trkpt lat="50.57443" lon="3.18253">
        <ele>-16.6</ele>
        <time>2018-06-26T13:24:01Z</time>
      </trkpt>
      <trkpt lat="50.57443" lon="3.18253">
        <ele>-16.6</ele>
        <time>2018-06-26T13:24:05Z</time>
      </trkpt>
      <trkpt lat="50.57443" lon="3.18253">
        <ele>-16.6</ele>
        <time>2018-06-26T13:24:09Z</time>
      </trkpt>
      <trkpt lat="50.57443" lon="3.18253">
        <ele>-16.8</ele>
        <time>2018-06-26T13:24:13Z</time>
      </trkpt>
      <trkpt lat="50.57443" lon="3.18253">
        <ele>-16.8</ele>
        <time>2018-06-26T13:24:17Z</time>
      </trkpt>
      <trkpt lat="50.57443" lon="3.18253">
        <ele>-16.8</ele>
        <time>2018-06-26T13:24:21Z</time>
      </trkpt>
      <trkpt lat="50.57443" lon="3.18253">
        <ele>-16.6</ele>
        <time>2018-06-26T13:24:25Z</time>
      </trkpt>
      <trkpt lat="50.57443" lon="3.18253">
        <ele>-17</ele>
        <time>2018-06-26T13:24:29Z</time>
      </trkpt>
      <trkpt lat="50.57443" lon="3.18253">
        <ele>-16.8</ele>
        <time>2018-06-26T13:24:33Z</time>
      </trkpt>
      <trkpt lat="50.57443" lon="3.18253">
        <ele>-17</ele>
        <time>2018-06-26T13:24:37Z</time>
      </trkpt>
      <trkpt lat="50.57443" lon="3.18253">
        <ele>-16.6</ele>
        <time>2018-06-26T13:24:41Z</time>
      </trkpt>
      <trkpt lat="50.57443" lon="3.18253">
        <ele>-16.4</ele>
        <time>2018-06-26T13:24:45Z</time>
      </trkpt>
      <trkpt lat="50.57443" lon="3.18253">
        <ele>-16.8</ele>
        <time>2018-06-26T13:24:49Z</time>
      </trkpt>
      <trkpt lat="50.57443" lon="3.18253">
        <ele>-16.6</ele>
        <time>2018-06-26T13:24:53Z</time>
      </trkpt>
      <trkpt lat="50.57443" lon="3.18253">
        <ele>-17</ele>
        <time>2018-06-26T13:24:57Z</time>
      </trkpt>
      <trkpt lat="50.57443" lon="3.18253">
        <ele>-17</ele>
        <time>2018-06-26T13:25:01Z</time>
      </trkpt>
      <trkpt lat="50.57443" lon="3.18253">
        <ele>-17</ele>
        <time>2018-06-26T13:25:05Z</time>
      </trkpt>
      <trkpt lat="50.57443" lon="3.18253">
        <ele>-17</ele>
        <time>2018-06-26T13:25:09Z</time>
      </trkpt>
      <trkpt lat="50.57443" lon="3.18253">
        <ele>-16.8</ele>
        <time>2018-06-26T13:25:13Z</time>
      </trkpt>
      <trkpt lat="50.57443" lon="3.18253">
        <ele>-16.8</ele>
        <time>2018-06-26T13:25:17Z</time>
      </trkpt>
      <trkpt lat="50.57443" lon="3.18253">
        <ele>-17.2</ele>
        <time>2018-06-26T13:25:21Z</time>
      </trkpt>
      <trkpt lat="50.57443" lon="3.18253">
        <ele>-16.8</ele>
        <time>2018-06-26T13:25:25Z</time>
      </trkpt>
      <trkpt lat="50.57443" lon="3.18253">
        <ele>-16.6</ele>
        <time>2018-06-26T13:25:29Z</time>
      </trkpt>
      <trkpt lat="50.57443" lon="3.18253">
        <ele>-16.8</ele>
        <time>2018-06-26T13:25:33Z</time>
      </trkpt>
      <trkpt lat="50.57443" lon="3.18253">
        <ele>-16</ele>
        <time>2018-06-26T13:25:37Z</time>
      </trkpt>
      <trkpt lat="50.57443" lon="3.18253">
        <ele>-16.6</ele>
        <time>2018-06-26T13:25:41Z</time>
      </trkpt>
      <trkpt lat="50.57443" lon="3.18253">
        <ele>-16.4</ele>
        <time>2018-06-26T13:25:45Z</time>
      </trkpt>
      <trkpt lat="50.57443" lon="3.18253">
        <ele>-16.6</ele>
        <time>2018-06-26T13:25:49Z</time>
      </trkpt>
      <trkpt lat="50.57443" lon="3.18253">
        <ele>-16.6</ele>
        <time>2018-06-26T13:25:53Z</time>
      </trkpt>
      <trkpt lat="50.57443" lon="3.18253">
        <ele>-16.4</ele>
        <time>2018-06-26T13:25:57Z</time>
      </trkpt>
      <trkpt lat="50.57443" lon="3.18253">
        <ele>-16.6</ele>
        <time>2018-06-26T13:26:01Z</time>
      </trkpt>
      <trkpt lat="50.57443" lon="3.18253">
        <ele>-16.6</ele>
        <time>2018-06-26T13:26:05Z</time>
      </trkpt>
      <trkpt lat="50.57443" lon="3.18253">
        <ele>-16.8</ele>
        <time>2018-06-26T13:26:09Z</time>
      </trkpt>
      <trkpt lat="50.57443" lon="3.18253">
        <ele>-16.6</ele>
        <time>2018-06-26T13:26:13Z</time>
      </trkpt>
      <trkpt lat="50.57443" lon="3.18253">
        <ele>-16.4</ele>
        <time>2018-06-26T13:26:17Z</time>
      </trkpt>
      <trkpt lat="50.57443" lon="3.18253">
        <ele>-16.2</ele>
        <time>2018-06-26T13:26:21Z</time>
      </trkpt>
      <trkpt lat="50.57443" lon="3.18253">
        <ele>-16.4</ele>
        <time>2018-06-26T13:26:25Z</time>
      </trkpt>
      <trkpt lat="50.57443" lon="3.18253">
        <ele>-16.2</ele>
        <time>2018-06-26T13:26:29Z</time>
      </trkpt>
      <trkpt lat="50.57443" lon="3.18253">
        <ele>-16</ele>
        <time>2018-06-26T13:26:33Z</time>
      </trkpt>
      <trkpt lat="50.57443" lon="3.18253">
        <ele>-16.2</ele>
        <time>2018-06-26T13:26:37Z</time>
      </trkpt>
      <trkpt lat="50.57443" lon="3.18253">
        <ele>-16.2</ele>
        <time>2018-06-26T13:26:41Z</time>
      </trkpt>
      <trkpt lat="50.57443" lon="3.18253">
        <ele>-16.6</ele>
        <time>2018-06-26T13:26:45Z</time>
      </trkpt>
      <trkpt lat="50.57443" lon="3.18253">
        <ele>-16.4</ele>
        <time>2018-06-26T13:26:49Z</time>
      </trkpt>
      <trkpt lat="50.57443" lon="3.18253">
        <ele>-16.4</ele>
        <time>2018-06-26T13:26:53Z</time>
      </trkpt>
      <trkpt lat="50.57443" lon="3.18253">
        <ele>-16</ele>
        <time>2018-06-26T13:26:57Z</time>
      </trkpt>
      <trkpt lat="50.57443" lon="3.18253">
        <ele>-15.8</ele>
        <time>2018-06-26T13:27:01Z</time>
      </trkpt>
      <trkpt lat="50.57443" lon="3.18253">
        <ele>-15.8</ele>
        <time>2018-06-26T13:27:05Z</time>
      </trkpt>
      <trkpt lat="50.57443" lon="3.18253">
        <ele>-16.2</ele>
        <time>2018-06-26T13:27:09Z</time>
      </trkpt>
      <trkpt lat="50.57443" lon="3.18253">
        <ele>-15.8</ele>
        <time>2018-06-26T13:27:13Z</time>
      </trkpt>
      <trkpt lat="50.57443" lon="3.18253">
        <ele>-16.2</ele>
        <time>2018-06-26T13:27:17Z</time>
      </trkpt>
      <trkpt lat="50.57443" lon="3.18253">
        <ele>-16.2</ele>
        <time>2018-06-26T13:27:21Z</time>
      </trkpt>
      <trkpt lat="50.57443" lon="3.18253">
        <ele>-15.8</ele>
        <time>2018-06-26T13:27:25Z</time>
      </trkpt>
      <trkpt lat="50.57443" lon="3.18253">
        <ele>-16.2</ele>
        <time>2018-06-26T13:27:29Z</time>
      </trkpt>
      <trkpt lat="50.57443" lon="3.18253">
        <ele>-16.2</ele>
        <time>2018-06-26T13:27:33Z</time>
      </trkpt>
      <trkpt lat="50.57443" lon="3.18253">
        <ele>-16</ele>
        <time>2018-06-26T13:27:37Z</time>
      </trkpt>
      <trkpt lat="50.57443" lon="3.18253">
        <ele>-16</ele>
        <time>2018-06-26T13:27:41Z</time>
      </trkpt>
      <trkpt lat="50.57443" lon="3.18253">
        <ele>-15.8</ele>
        <time>2018-06-26T13:27:45Z</time>
      </trkpt>
      <trkpt lat="50.57443" lon="3.18253">
        <ele>-15.8</ele>
        <time>2018-06-26T13:27:49Z</time>
      </trkpt>
      <trkpt lat="50.57443" lon="3.18253">
        <ele>-16</ele>
        <time>2018-06-26T13:27:53Z</time>
      </trkpt>
      <trkpt lat="50.57443" lon="3.18253">
        <ele>-15.6</ele>
        <time>2018-06-26T13:27:57Z</time>
      </trkpt>
      <trkpt lat="50.57443" lon="3.18253">
        <ele>-16</ele>
        <time>2018-06-26T13:28:01Z</time>
      </trkpt>
      <trkpt lat="50.57443" lon="3.18253">
        <ele>-16</ele>
        <time>2018-06-26T13:28:05Z</time>
      </trkpt>
      <trkpt lat="50.57443" lon="3.18253">
        <ele>-16.4</ele>
        <time>2018-06-26T13:28:09Z</time>
      </trkpt>
      <trkpt lat="50.57443" lon="3.18253">
        <ele>-16.4</ele>
        <time>2018-06-26T13:28:13Z</time>
      </trkpt>
      <trkpt lat="50.57443" lon="3.18253">
        <ele>-16.4</ele>
        <time>2018-06-26T13:28:17Z</time>
      </trkpt>
      <trkpt lat="50.57443" lon="3.18253">
        <ele>-16</ele>
        <time>2018-06-26T13:28:21Z</time>
      </trkpt>
      <trkpt lat="50.57443" lon="3.18253">
        <ele>-16.4</ele>
        <time>2018-06-26T13:28:25Z</time>
      </trkpt>
      <trkpt lat="50.57443" lon="3.18253">
        <ele>-16.6</ele>
        <time>2018-06-26T13:28:29Z</time>
      </trkpt>
      <trkpt lat="50.57443" lon="3.18253">
        <ele>-15.8</ele>
        <time>2018-06-26T13:28:33Z</time>
      </trkpt>
      <trkpt lat="50.57443" lon="3.18253">
        <ele>-15.8</ele>
        <time>2018-06-26T13:28:37Z</time>
      </trkpt>
      <trkpt lat="50.57443" lon="3.18253">
        <ele>-15.8</ele>
        <time>2018-06-26T13:28:41Z</time>
      </trkpt>
      <trkpt lat="50.57443" lon="3.18253">
        <ele>-15.6</ele>
        <time>2018-06-26T13:28:45Z</time>
      </trkpt>
      <trkpt lat="50.57443" lon="3.18253">
        <ele>-15.8</ele>
        <time>2018-06-26T13:28:49Z</time>
      </trkpt>
      <trkpt lat="50.57443" lon="3.18253">
        <ele>-15.8</ele>
        <time>2018-06-26T13:28:53Z</time>
      </trkpt>
      <trkpt lat="50.57443" lon="3.18253">
        <ele>-16</ele>
        <time>2018-06-26T13:28:57Z</time>
      </trkpt>
      <trkpt lat="50.57443" lon="3.18253">
        <ele>-16.2</ele>
        <time>2018-06-26T13:29:01Z</time>
      </trkpt>
      <trkpt lat="50.57443" lon="3.18253">
        <ele>-16</ele>
        <time>2018-06-26T13:29:05Z</time>
      </trkpt>
      <trkpt lat="50.57443" lon="3.18253">
        <ele>-16.2</ele>
        <time>2018-06-26T13:29:09Z</time>
      </trkpt>
      <trkpt lat="50.57443" lon="3.18253">
        <ele>-15.8</ele>
        <time>2018-06-26T13:29:13Z</time>
      </trkpt>
      <trkpt lat="50.57443" lon="3.18253">
        <ele>-15.8</ele>
        <time>2018-06-26T13:29:17Z</time>
      </trkpt>
      <trkpt lat="50.57443" lon="3.18253">
        <ele>-15.8</ele>
        <time>2018-06-26T13:29:21Z</time>
      </trkpt>
      <trkpt lat="50.57443" lon="3.18253">
        <ele>-16</ele>
        <time>2018-06-26T13:29:25Z</time>
      </trkpt>
      <trkpt lat="50.57443" lon="3.18253">
        <ele>-16.2</ele>
        <time>2018-06-26T13:29:29Z</time>
      </trkpt>
      <trkpt lat="50.57443" lon="3.18253">
        <ele>-16.2</ele>
        <time>2018-06-26T13:29:33Z</time>
      </trkpt>
      <trkpt lat="50.57443" lon="3.18253">
        <ele>-16.4</ele>
        <time>2018-06-26T13:29:37Z</time>
      </trkpt>
      <trkpt lat="50.57443" lon="3.18253">
        <ele>-16.6</ele>
        <time>2018-06-26T13:29:41Z</time>
      </trkpt>
      <trkpt lat="50.57443" lon="3.18253">
        <ele>-16.6</ele>
        <time>2018-06-26T13:29:45Z</time>
      </trkpt>
      <trkpt lat="50.57443" lon="3.18253">
        <ele>-16.6</ele>
        <time>2018-06-26T13:29:49Z</time>
      </trkpt>
      <trkpt lat="50.57443" lon="3.18253">
        <ele>-16.2</ele>
        <time>2018-06-26T13:29:53Z</time>
      </trkpt>
      <trkpt lat="50.57443" lon="3.18253">
        <ele>-15.8</ele>
        <time>2018-06-26T13:29:57Z</time>
      </trkpt>
      <trkpt lat="50.57443" lon="3.18253">
        <ele>-16</ele>
        <time>2018-06-26T13:30:01Z</time>
      </trkpt>
      <trkpt lat="50.57443" lon="3.18253">
        <ele>-16</ele>
        <time>2018-06-26T13:30:05Z</time>
      </trkpt>
      <trkpt lat="50.57443" lon="3.18253">
        <ele>-16</ele>
        <time>2018-06-26T13:30:09Z</time>
      </trkpt>
      <trkpt lat="50.57443" lon="3.18253">
        <ele>-16</ele>
        <time>2018-06-26T13:30:13Z</time>
      </trkpt>
      <trkpt lat="50.57443" lon="3.18253">
        <ele>-16</ele>
        <time>2018-06-26T13:30:17Z</time>
      </trkpt>
      <trkpt lat="50.57443" lon="3.18253">
        <ele>-16.2</ele>
        <time>2018-06-26T13:30:21Z</time>
      </trkpt>
      <trkpt lat="50.57443" lon="3.18253">
        <ele>-16.2</ele>
        <time>2018-06-26T13:30:25Z</time>
      </trkpt>
      <trkpt lat="50.57443" lon="3.18253">
        <ele>-16</ele>
        <time>2018-06-26T13:30:29Z</time>
      </trkpt>
      <trkpt lat="50.57443" lon="3.18253">
        <ele>-16</ele>
        <time>2018-06-26T13:30:33Z</time>
      </trkpt>
      <trkpt lat="50.57443" lon="3.18253">
        <ele>-16</ele>
        <time>2018-06-26T13:30:37Z</time>
      </trkpt>
      <trkpt lat="50.57443" lon="3.18253">
        <ele>-15.8</ele>
        <time>2018-06-26T13:30:41Z</time>
      </trkpt>
      <trkpt lat="50.57443" lon="3.18253">
        <ele>-15.8</ele>
        <time>2018-06-26T13:30:45Z</time>
      </trkpt>
      <trkpt lat="50.57443" lon="3.18253">
        <ele>-15.6</ele>
        <time>2018-06-26T13:30:49Z</time>
      </trkpt>
      <trkpt lat="50.57443" lon="3.18253">
        <ele>-15.8</ele>
        <time>2018-06-26T13:30:53Z</time>
      </trkpt>
      <trkpt lat="50.57443" lon="3.18253">
        <ele>-15.8</ele>
        <time>2018-06-26T13:30:57Z</time>
      </trkpt>
      <trkpt lat="50.57443" lon="3.18253">
        <ele>-15.8</ele>
        <time>2018-06-26T13:31:01Z</time>
      </trkpt>
      <trkpt lat="50.57443" lon="3.18253">
        <ele>-15.6</ele>
        <time>2018-06-26T13:31:05Z</time>
      </trkpt>
      <trkpt lat="50.57443" lon="3.18253">
        <ele>-15.8</ele>
        <time>2018-06-26T13:31:09Z</time>
      </trkpt>
      <trkpt lat="50.57443" lon="3.18253">
        <ele>-15.8</ele>
        <time>2018-06-26T13:31:13Z</time>
      </trkpt>
      <trkpt lat="50.57443" lon="3.18253">
        <ele>-15.8</ele>
        <time>2018-06-26T13:31:17Z</time>
      </trkpt>
      <trkpt lat="50.57443" lon="3.18253">
        <ele>-15.6</ele>
        <time>2018-06-26T13:31:21Z</time>
      </trkpt>
      <trkpt lat="50.57443" lon="3.18253">
        <ele>-15.2</ele>
        <time>2018-06-26T13:31:25Z</time>
      </trkpt>
      <trkpt lat="50.57443" lon="3.18253">
        <ele>-15.8</ele>
        <time>2018-06-26T13:31:29Z</time>
      </trkpt>
      <trkpt lat="50.57443" lon="3.18253">
        <ele>-15.8</ele>
        <time>2018-06-26T13:31:33Z</time>
      </trkpt>
      <trkpt lat="50.57443" lon="3.18253">
        <ele>-15.8</ele>
        <time>2018-06-26T13:31:37Z</time>
      </trkpt>
      <trkpt lat="50.57443" lon="3.18253">
        <ele>-15.6</ele>
        <time>2018-06-26T13:31:41Z</time>
      </trkpt>
      <trkpt lat="50.57443" lon="3.18253">
        <ele>-15.6</ele>
        <time>2018-06-26T13:31:45Z</time>
      </trkpt>
      <trkpt lat="50.57443" lon="3.18253">
        <ele>-15.2</ele>
        <time>2018-06-26T13:31:49Z</time>
      </trkpt>
      <trkpt lat="50.57443" lon="3.18253">
        <ele>-15.4</ele>
        <time>2018-06-26T13:31:53Z</time>
      </trkpt>
      <trkpt lat="50.57443" lon="3.18253">
        <ele>-15.4</ele>
        <time>2018-06-26T13:31:57Z</time>
      </trkpt>
      <trkpt lat="50.57443" lon="3.18253">
        <ele>-15.6</ele>
        <time>2018-06-26T13:32:01Z</time>
      </trkpt>
      <trkpt lat="50.57443" lon="3.18253">
        <ele>-15.6</ele>
        <time>2018-06-26T13:32:05Z</time>
      </trkpt>
      <trkpt lat="50.57443" lon="3.18253">
        <ele>-15.4</ele>
        <time>2018-06-26T13:32:09Z</time>
      </trkpt>
      <trkpt lat="50.57443" lon="3.18253">
        <ele>-15.6</ele>
        <time>2018-06-26T13:32:13Z</time>
      </trkpt>
      <trkpt lat="50.57443" lon="3.18253">
        <ele>-15.4</ele>
        <time>2018-06-26T13:32:17Z</time>
      </trkpt>
      <trkpt lat="50.57443" lon="3.18253">
        <ele>-15.4</ele>
        <time>2018-06-26T13:32:21Z</time>
      </trkpt>
      <trkpt lat="50.57443" lon="3.18253">
        <ele>-15.4</ele>
        <time>2018-06-26T13:32:25Z</time>
      </trkpt>
      <trkpt lat="50.57443" lon="3.18253">
        <ele>-15.2</ele>
        <time>2018-06-26T13:32:29Z</time>
      </trkpt>
      <trkpt lat="50.57443" lon="3.18253">
        <ele>-15.4</ele>
        <time>2018-06-26T13:32:33Z</time>
      </trkpt>
      <trkpt lat="50.57443" lon="3.18253">
        <ele>-15.4</ele>
        <time>2018-06-26T13:32:37Z</time>
      </trkpt>
      <trkpt lat="50.57443" lon="3.18253">
        <ele>-15.8</ele>
        <time>2018-06-26T13:32:41Z</time>
      </trkpt>
      <trkpt lat="50.57443" lon="3.18253">
        <ele>-15.8</ele>
        <time>2018-06-26T13:32:45Z</time>
      </trkpt>
      <trkpt lat="50.57443" lon="3.18253">
        <ele>-15.8</ele>
        <time>2018-06-26T13:32:49Z</time>
      </trkpt>
      <trkpt lat="50.57443" lon="3.18253">
        <ele>-15.8</ele>
        <time>2018-06-26T13:32:53Z</time>
      </trkpt>
      <trkpt lat="50.57443" lon="3.18253">
        <ele>-15.8</ele>
        <time>2018-06-26T13:32:57Z</time>
      </trkpt>
      <trkpt lat="50.57443" lon="3.18253">
        <ele>-15.8</ele>
        <time>2018-06-26T13:33:01Z</time>
      </trkpt>
      <trkpt lat="50.57443" lon="3.18253">
        <ele>-15.8</ele>
        <time>2018-06-26T13:33:05Z</time>
      </trkpt>
      <trkpt lat="50.57443" lon="3.18253">
        <ele>-15.8</ele>
        <time>2018-06-26T13:33:09Z</time>
      </trkpt>
      <trkpt lat="50.57443" lon="3.18253">
        <ele>-15.6</ele>
        <time>2018-06-26T13:33:13Z</time>
      </trkpt>
      <trkpt lat="50.57443" lon="3.18253">
        <ele>-15.4</ele>
        <time>2018-06-26T13:33:17Z</time>
      </trkpt>
      <trkpt lat="50.57443" lon="3.18253">
        <ele>-15.4</ele>
        <time>2018-06-26T13:33:21Z</time>
      </trkpt>
      <trkpt lat="50.57443" lon="3.18253">
        <ele>-15.6</ele>
        <time>2018-06-26T13:33:25Z</time>
      </trkpt>
      <trkpt lat="50.57443" lon="3.18253">
        <ele>-15.4</ele>
        <time>2018-06-26T13:33:29Z</time>
      </trkpt>
      <trkpt lat="50.57443" lon="3.18253">
        <ele>-15.4</ele>
        <time>2018-06-26T13:33:33Z</time>
      </trkpt>
      <trkpt lat="50.57443" lon="3.18253">
        <ele>-15.6</ele>
        <time>2018-06-26T13:33:37Z</time>
      </trkpt>
      <trkpt lat="50.57443" lon="3.18253">
        <ele>-15.6</ele>
        <time>2018-06-26T13:33:41Z</time>
      </trkpt>
      <trkpt lat="50.57443" lon="3.18253">
        <ele>-15.6</ele>
        <time>2018-06-26T13:33:45Z</time>
      </trkpt>
      <trkpt lat="50.57443" lon="3.18253">
        <ele>-15.6</ele>
        <time>2018-06-26T13:33:49Z</time>
      </trkpt>
      <trkpt lat="50.57443" lon="3.18253">
        <ele>-15.4</ele>
        <time>2018-06-26T13:33:53Z</time>
      </trkpt>
      <trkpt lat="50.57443" lon="3.18253">
        <ele>-15.4</ele>
        <time>2018-06-26T13:33:57Z</time>
      </trkpt>
      <trkpt lat="50.57443" lon="3.18253">
        <ele>-15.4</ele>
        <time>2018-06-26T13:34:01Z</time>
      </trkpt>
      <trkpt lat="50.57443" lon="3.18253">
        <ele>-15.6</ele>
        <time>2018-06-26T13:34:05Z</time>
      </trkpt>
      <trkpt lat="50.57443" lon="3.18253">
        <ele>-15.8</ele>
        <time>2018-06-26T13:34:09Z</time>
      </trkpt>
      <trkpt lat="50.57441" lon="3.18249">
        <ele>-15.2</ele>
        <time>2018-06-26T13:34:13Z</time>
      </trkpt>
      <trkpt lat="50.57443" lon="3.18247">
        <ele>-15.4</ele>
        <time>2018-06-26T13:34:17Z</time>
      </trkpt>
      <trkpt lat="50.57441" lon="3.18242">
        <ele>-15.6</ele>
        <time>2018-06-26T13:34:21Z</time>
      </trkpt>
      <trkpt lat="50.57441" lon="3.18242">
        <ele>-15.2</ele>
        <time>2018-06-26T13:34:25Z</time>
      </trkpt>
      <trkpt lat="50.57441" lon="3.18242">
        <ele>-15.2</ele>
        <time>2018-06-26T13:34:29Z</time>
      </trkpt>
      <trkpt lat="50.57441" lon="3.18242">
        <ele>-15</ele>
        <time>2018-06-26T13:34:33Z</time>
      </trkpt>
      <trkpt lat="50.57441" lon="3.18242">
        <ele>-15.6</ele>
        <time>2018-06-26T13:34:37Z</time>
      </trkpt>
      <trkpt lat="50.57441" lon="3.18242">
        <ele>-15.4</ele>
        <time>2018-06-26T13:34:41Z</time>
      </trkpt>
      <trkpt lat="50.57441" lon="3.18242">
        <ele>-14.8</ele>
        <time>2018-06-26T13:34:45Z</time>
      </trkpt>
      <trkpt lat="50.57441" lon="3.18242">
        <ele>-15</ele>
        <time>2018-06-26T13:34:49Z</time>
      </trkpt>
      <trkpt lat="50.57441" lon="3.18242">
        <ele>-15</ele>
        <time>2018-06-26T13:34:53Z</time>
      </trkpt>
      <trkpt lat="50.57441" lon="3.18242">
        <ele>-15.2</ele>
        <time>2018-06-26T13:34:57Z</time>
      </trkpt>
      <trkpt lat="50.57441" lon="3.18242">
        <ele>-15.2</ele>
        <time>2018-06-26T13:35:01Z</time>
      </trkpt>
      <trkpt lat="50.57441" lon="3.18242">
        <ele>-15</ele>
        <time>2018-06-26T13:35:05Z</time>
      </trkpt>
      <trkpt lat="50.57441" lon="3.18242">
        <ele>-15.2</ele>
        <time>2018-06-26T13:35:09Z</time>
      </trkpt>
      <trkpt lat="50.57441" lon="3.18242">
        <ele>-15</ele>
        <time>2018-06-26T13:35:13Z</time>
      </trkpt>
      <trkpt lat="50.57441" lon="3.18242">
        <ele>-14.8</ele>
        <time>2018-06-26T13:35:17Z</time>
      </trkpt>
      <trkpt lat="50.57441" lon="3.18242">
        <ele>-14.8</ele>
        <time>2018-06-26T13:35:21Z</time>
      </trkpt>
      <trkpt lat="50.57441" lon="3.18242">
        <ele>-14.8</ele>
        <time>2018-06-26T13:35:25Z</time>
      </trkpt>
      <trkpt lat="50.57441" lon="3.18242">
        <ele>-15.2</ele>
        <time>2018-06-26T13:35:29Z</time>
      </trkpt>
      <trkpt lat="50.57441" lon="3.18242">
        <ele>-14.6</ele>
        <time>2018-06-26T13:35:33Z</time>
      </trkpt>
      <trkpt lat="50.57441" lon="3.18242">
        <ele>-14.6</ele>
        <time>2018-06-26T13:35:37Z</time>
      </trkpt>
      <trkpt lat="50.57441" lon="3.18242">
        <ele>-14.8</ele>
        <time>2018-06-26T13:35:41Z</time>
      </trkpt>
      <trkpt lat="50.57441" lon="3.18242">
        <ele>-14.6</ele>
        <time>2018-06-26T13:35:45Z</time>
      </trkpt>
      <trkpt lat="50.57441" lon="3.18242">
        <ele>-14.8</ele>
        <time>2018-06-26T13:35:49Z</time>
      </trkpt>
      <trkpt lat="50.57441" lon="3.18242">
        <ele>-15</ele>
        <time>2018-06-26T13:35:53Z</time>
      </trkpt>
      <trkpt lat="50.57441" lon="3.18242">
        <ele>-14.6</ele>
        <time>2018-06-26T13:35:57Z</time>
      </trkpt>
      <trkpt lat="50.57441" lon="3.18242">
        <ele>-14.4</ele>
        <time>2018-06-26T13:36:01Z</time>
      </trkpt>
      <trkpt lat="50.57441" lon="3.18242">
        <ele>-14.2</ele>
        <time>2018-06-26T13:36:05Z</time>
      </trkpt>
      <trkpt lat="50.57441" lon="3.18242">
        <ele>-14.8</ele>
        <time>2018-06-26T13:36:09Z</time>
      </trkpt>
      <trkpt lat="50.57441" lon="3.18242">
        <ele>-14.6</ele>
        <time>2018-06-26T13:36:13Z</time>
      </trkpt>
      <trkpt lat="50.57441" lon="3.18242">
        <ele>-14.2</ele>
        <time>2018-06-26T13:36:17Z</time>
      </trkpt>
      <trkpt lat="50.57441" lon="3.18242">
        <ele>-14.2</ele>
        <time>2018-06-26T13:36:21Z</time>
      </trkpt>
      <trkpt lat="50.57441" lon="3.18242">
        <ele>-14.4</ele>
        <time>2018-06-26T13:36:25Z</time>
      </trkpt>
      <trkpt lat="50.57441" lon="3.18242">
        <ele>-14.2</ele>
        <time>2018-06-26T13:36:29Z</time>
      </trkpt>
      <trkpt lat="50.57441" lon="3.18242">
        <ele>-14.4</ele>
        <time>2018-06-26T13:36:33Z</time>
      </trkpt>
      <trkpt lat="50.57441" lon="3.18242">
        <ele>-14.8</ele>
        <time>2018-06-26T13:36:37Z</time>
      </trkpt>
      <trkpt lat="50.57441" lon="3.18242">
        <ele>-14.4</ele>
        <time>2018-06-26T13:36:41Z</time>
      </trkpt>
      <trkpt lat="50.57441" lon="3.18242">
        <ele>-14.6</ele>
        <time>2018-06-26T13:36:45Z</time>
      </trkpt>
      <trkpt lat="50.57441" lon="3.18242">
        <ele>-14.6</ele>
        <time>2018-06-26T13:36:49Z</time>
      </trkpt>
      <trkpt lat="50.57441" lon="3.18242">
        <ele>-14.8</ele>
        <time>2018-06-26T13:36:53Z</time>
      </trkpt>
      <trkpt lat="50.57441" lon="3.18242">
        <ele>-14.8</ele>
        <time>2018-06-26T13:36:57Z</time>
      </trkpt>
      <trkpt lat="50.57441" lon="3.18242">
        <ele>-14.8</ele>
        <time>2018-06-26T13:37:01Z</time>
      </trkpt>
      <trkpt lat="50.57441" lon="3.18242">
        <ele>-15.2</ele>
        <time>2018-06-26T13:37:05Z</time>
      </trkpt>
      <trkpt lat="50.57441" lon="3.18242">
        <ele>-14.8</ele>
        <time>2018-06-26T13:37:09Z</time>
      </trkpt>
      <trkpt lat="50.57441" lon="3.18242">
        <ele>-14.6</ele>
        <time>2018-06-26T13:37:13Z</time>
      </trkpt>
      <trkpt lat="50.57441" lon="3.18242">
        <ele>-14.8</ele>
        <time>2018-06-26T13:37:17Z</time>
      </trkpt>
      <trkpt lat="50.57441" lon="3.18242">
        <ele>-14.6</ele>
        <time>2018-06-26T13:37:21Z</time>
      </trkpt>
      <trkpt lat="50.57441" lon="3.18242">
        <ele>-14.8</ele>
        <time>2018-06-26T13:37:25Z</time>
      </trkpt>
      <trkpt lat="50.57441" lon="3.18242">
        <ele>-14.8</ele>
        <time>2018-06-26T13:37:29Z</time>
      </trkpt>
      <trkpt lat="50.57441" lon="3.18242">
        <ele>-14.8</ele>
        <time>2018-06-26T13:37:33Z</time>
      </trkpt>
      <trkpt lat="50.57441" lon="3.18242">
        <ele>-14.4</ele>
        <time>2018-06-26T13:37:37Z</time>
      </trkpt>
      <trkpt lat="50.57441" lon="3.18242">
        <ele>-14.2</ele>
        <time>2018-06-26T13:37:41Z</time>
      </trkpt>
      <trkpt lat="50.57441" lon="3.18242">
        <ele>-14.2</ele>
        <time>2018-06-26T13:37:45Z</time>
      </trkpt>
      <trkpt lat="50.57441" lon="3.18242">
        <ele>-14.2</ele>
        <time>2018-06-26T13:37:49Z</time>
      </trkpt>
      <trkpt lat="50.57441" lon="3.18242">
        <ele>-14.4</ele>
        <time>2018-06-26T13:37:53Z</time>
      </trkpt>
      <trkpt lat="50.57441" lon="3.18242">
        <ele>-14.2</ele>
        <time>2018-06-26T13:37:57Z</time>
      </trkpt>
      <trkpt lat="50.57441" lon="3.18242">
        <ele>-14.4</ele>
        <time>2018-06-26T13:38:01Z</time>
      </trkpt>
      <trkpt lat="50.57441" lon="3.18242">
        <ele>-14.4</ele>
        <time>2018-06-26T13:38:05Z</time>
      </trkpt>
      <trkpt lat="50.57441" lon="3.18242">
        <ele>-14.2</ele>
        <time>2018-06-26T13:38:09Z</time>
      </trkpt>
      <trkpt lat="50.57441" lon="3.18242">
        <ele>-14.4</ele>
        <time>2018-06-26T13:38:13Z</time>
      </trkpt>
      <trkpt lat="50.57441" lon="3.18242">
        <ele>-14.4</ele>
        <time>2018-06-26T13:38:17Z</time>
      </trkpt>
      <trkpt lat="50.57441" lon="3.18242">
        <ele>-14.6</ele>
        <time>2018-06-26T13:38:21Z</time>
      </trkpt>
      <trkpt lat="50.57441" lon="3.18242">
        <ele>-14.4</ele>
        <time>2018-06-26T13:38:25Z</time>
      </trkpt>
      <trkpt lat="50.57441" lon="3.18242">
        <ele>-14</ele>
        <time>2018-06-26T13:38:29Z</time>
      </trkpt>
      <trkpt lat="50.57441" lon="3.18242">
        <ele>-14.2</ele>
        <time>2018-06-26T13:38:33Z</time>
      </trkpt>
      <trkpt lat="50.57441" lon="3.18242">
        <ele>-14.6</ele>
        <time>2018-06-26T13:38:37Z</time>
      </trkpt>
      <trkpt lat="50.57441" lon="3.18242">
        <ele>-14.8</ele>
        <time>2018-06-26T13:38:41Z</time>
      </trkpt>
      <trkpt lat="50.57441" lon="3.18242">
        <ele>-15.2</ele>
        <time>2018-06-26T13:38:45Z</time>
      </trkpt>
      <trkpt lat="50.57441" lon="3.18242">
        <ele>-14.8</ele>
        <time>2018-06-26T13:38:49Z</time>
      </trkpt>
      <trkpt lat="50.57441" lon="3.18242">
        <ele>-14.8</ele>
        <time>2018-06-26T13:38:53Z</time>
      </trkpt>
      <trkpt lat="50.57441" lon="3.18242">
        <ele>-14.6</ele>
        <time>2018-06-26T13:38:57Z</time>
      </trkpt>
      <trkpt lat="50.57441" lon="3.18242">
        <ele>-14.8</ele>
        <time>2018-06-26T13:39:01Z</time>
      </trkpt>
      <trkpt lat="50.57441" lon="3.18242">
        <ele>-14.4</ele>
        <time>2018-06-26T13:39:05Z</time>
      </trkpt>
      <trkpt lat="50.57441" lon="3.18242">
        <ele>-14.2</ele>
        <time>2018-06-26T13:39:09Z</time>
      </trkpt>
      <trkpt lat="50.57441" lon="3.18242">
        <ele>-14.8</ele>
        <time>2018-06-26T13:39:13Z</time>
      </trkpt>
      <trkpt lat="50.57441" lon="3.18242">
        <ele>-14.8</ele>
        <time>2018-06-26T13:39:17Z</time>
      </trkpt>
      <trkpt lat="50.57441" lon="3.18242">
        <ele>-14.6</ele>
        <time>2018-06-26T13:39:21Z</time>
      </trkpt>
      <trkpt lat="50.57441" lon="3.18242">
        <ele>-14.8</ele>
        <time>2018-06-26T13:39:25Z</time>
      </trkpt>
      <trkpt lat="50.57441" lon="3.18242">
        <ele>-14.4</ele>
        <time>2018-06-26T13:39:29Z</time>
      </trkpt>
      <trkpt lat="50.57441" lon="3.18242">
        <ele>-14.4</ele>
        <time>2018-06-26T13:39:33Z</time>
      </trkpt>
      <trkpt lat="50.57441" lon="3.18242">
        <ele>-14.8</ele>
        <time>2018-06-26T13:39:37Z</time>
      </trkpt>
      <trkpt lat="50.57441" lon="3.18242">
        <ele>-14.6</ele>
        <time>2018-06-26T13:39:41Z</time>
      </trkpt>
      <trkpt lat="50.57441" lon="3.18242">
        <ele>-14.2</ele>
        <time>2018-06-26T13:39:45Z</time>
      </trkpt>
      <trkpt lat="50.57441" lon="3.18242">
        <ele>-14.4</ele>
        <time>2018-06-26T13:39:49Z</time>
      </trkpt>
      <trkpt lat="50.57441" lon="3.18242">
        <ele>-14.4</ele>
        <time>2018-06-26T13:39:53Z</time>
      </trkpt>
      <trkpt lat="50.57441" lon="3.18242">
        <ele>-14.6</ele>
        <time>2018-06-26T13:39:57Z</time>
      </trkpt>
      <trkpt lat="50.57441" lon="3.18242">
        <ele>-14.6</ele>
        <time>2018-06-26T13:40:01Z</time>
      </trkpt>
      <trkpt lat="50.57441" lon="3.18242">
        <ele>-14.6</ele>
        <time>2018-06-26T13:40:05Z</time>
      </trkpt>
      <trkpt lat="50.57441" lon="3.18242">
        <ele>-14.4</ele>
        <time>2018-06-26T13:40:09Z</time>
      </trkpt>
      <trkpt lat="50.57441" lon="3.18242">
        <ele>-14.4</ele>
        <time>2018-06-26T13:40:13Z</time>
      </trkpt>
      <trkpt lat="50.57441" lon="3.18242">
        <ele>-14.4</ele>
        <time>2018-06-26T13:40:17Z</time>
      </trkpt>
      <trkpt lat="50.57441" lon="3.18242">
        <ele>-14.6</ele>
        <time>2018-06-26T13:40:21Z</time>
      </trkpt>
      <trkpt lat="50.57441" lon="3.18242">
        <ele>-14.6</ele>
        <time>2018-06-26T13:40:25Z</time>
      </trkpt>
      <trkpt lat="50.57441" lon="3.18242">
        <ele>-14.2</ele>
        <time>2018-06-26T13:40:29Z</time>
      </trkpt>
      <trkpt lat="50.57441" lon="3.18242">
        <ele>-14</ele>
        <time>2018-06-26T13:40:33Z</time>
      </trkpt>
      <trkpt lat="50.57441" lon="3.18242">
        <ele>-14.4</ele>
        <time>2018-06-26T13:40:37Z</time>
      </trkpt>
      <trkpt lat="50.57441" lon="3.18242">
        <ele>-14.6</ele>
        <time>2018-06-26T13:40:41Z</time>
      </trkpt>
      <trkpt lat="50.57441" lon="3.18242">
        <ele>-14.6</ele>
        <time>2018-06-26T13:40:45Z</time>
      </trkpt>
      <trkpt lat="50.57441" lon="3.18242">
        <ele>-14.4</ele>
        <time>2018-06-26T13:40:49Z</time>
      </trkpt>
      <trkpt lat="50.57441" lon="3.18242">
        <ele>-14.2</ele>
        <time>2018-06-26T13:40:53Z</time>
      </trkpt>
      <trkpt lat="50.57441" lon="3.18242">
        <ele>-14.2</ele>
        <time>2018-06-26T13:40:57Z</time>
      </trkpt>
      <trkpt lat="50.57441" lon="3.18242">
        <ele>-14</ele>
        <time>2018-06-26T13:41:01Z</time>
      </trkpt>
      <trkpt lat="50.57441" lon="3.18242">
        <ele>-14</ele>
        <time>2018-06-26T13:41:05Z</time>
      </trkpt>
      <trkpt lat="50.57441" lon="3.18242">
        <ele>-14</ele>
        <time>2018-06-26T13:41:09Z</time>
      </trkpt>
      <trkpt lat="50.57441" lon="3.18242">
        <ele>-14</ele>
        <time>2018-06-26T13:41:13Z</time>
      </trkpt>
      <trkpt lat="50.57441" lon="3.18242">
        <ele>-14.6</ele>
        <time>2018-06-26T13:41:17Z</time>
      </trkpt>
      <trkpt lat="50.57441" lon="3.18242">
        <ele>-14.2</ele>
        <time>2018-06-26T13:41:21Z</time>
      </trkpt>
      <trkpt lat="50.57441" lon="3.18242">
        <ele>-14.2</ele>
        <time>2018-06-26T13:41:25Z</time>
      </trkpt>
      <trkpt lat="50.57441" lon="3.18242">
        <ele>-14.2</ele>
        <time>2018-06-26T13:41:29Z</time>
      </trkpt>
      <trkpt lat="50.57441" lon="3.18242">
        <ele>-14.2</ele>
        <time>2018-06-26T13:41:33Z</time>
      </trkpt>
      <trkpt lat="50.57441" lon="3.18242">
        <ele>-13.8</ele>
        <time>2018-06-26T13:41:37Z</time>
      </trkpt>
      <trkpt lat="50.57441" lon="3.18242">
        <ele>-14.2</ele>
        <time>2018-06-26T13:41:41Z</time>
      </trkpt>
      <trkpt lat="50.57441" lon="3.18242">
        <ele>-14.2</ele>
        <time>2018-06-26T13:41:45Z</time>
      </trkpt>
      <trkpt lat="50.57441" lon="3.18242">
        <ele>-14</ele>
        <time>2018-06-26T13:41:49Z</time>
      </trkpt>
      <trkpt lat="50.57441" lon="3.18242">
        <ele>-14.2</ele>
        <time>2018-06-26T13:41:53Z</time>
      </trkpt>
      <trkpt lat="50.57441" lon="3.18242">
        <ele>-14.4</ele>
        <time>2018-06-26T13:41:57Z</time>
      </trkpt>
      <trkpt lat="50.57441" lon="3.18242">
        <ele>-14.4</ele>
        <time>2018-06-26T13:42:01Z</time>
      </trkpt>
      <trkpt lat="50.57441" lon="3.18242">
        <ele>-14.4</ele>
        <time>2018-06-26T13:42:05Z</time>
      </trkpt>
      <trkpt lat="50.57441" lon="3.18242">
        <ele>-14.4</ele>
        <time>2018-06-26T13:42:09Z</time>
      </trkpt>
      <trkpt lat="50.57441" lon="3.18242">
        <ele>-14.4</ele>
        <time>2018-06-26T13:42:13Z</time>
      </trkpt>
      <trkpt lat="50.57441" lon="3.18242">
        <ele>-14.4</ele>
        <time>2018-06-26T13:42:17Z</time>
      </trkpt>
      <trkpt lat="50.57441" lon="3.18242">
        <ele>-14.6</ele>
        <time>2018-06-26T13:42:21Z</time>
      </trkpt>
      <trkpt lat="50.57441" lon="3.18242">
        <ele>-14.4</ele>
        <time>2018-06-26T13:42:25Z</time>
      </trkpt>
      <trkpt lat="50.57441" lon="3.18242">
        <ele>-14.4</ele>
        <time>2018-06-26T13:42:29Z</time>
      </trkpt>
      <trkpt lat="50.57441" lon="3.18242">
        <ele>-14.8</ele>
        <time>2018-06-26T13:42:33Z</time>
      </trkpt>
      <trkpt lat="50.57441" lon="3.18242">
        <ele>-14.6</ele>
        <time>2018-06-26T13:42:37Z</time>
      </trkpt>
      <trkpt lat="50.57441" lon="3.18242">
        <ele>-14.8</ele>
        <time>2018-06-26T13:42:41Z</time>
      </trkpt>
      <trkpt lat="50.57441" lon="3.18242">
        <ele>-14.4</ele>
        <time>2018-06-26T13:42:45Z</time>
      </trkpt>
      <trkpt lat="50.57441" lon="3.18242">
        <ele>-14.4</ele>
        <time>2018-06-26T13:42:49Z</time>
      </trkpt>
      <trkpt lat="50.57441" lon="3.18242">
        <ele>-14.8</ele>
        <time>2018-06-26T13:42:53Z</time>
      </trkpt>
      <trkpt lat="50.57441" lon="3.18242">
        <ele>-14.4</ele>
        <time>2018-06-26T13:42:57Z</time>
      </trkpt>
      <trkpt lat="50.57441" lon="3.18242">
        <ele>-14.4</ele>
        <time>2018-06-26T13:43:01Z</time>
      </trkpt>
      <trkpt lat="50.57441" lon="3.18242">
        <ele>-14.4</ele>
        <time>2018-06-26T13:43:05Z</time>
      </trkpt>
      <trkpt lat="50.57441" lon="3.18242">
        <ele>-14.4</ele>
        <time>2018-06-26T13:43:09Z</time>
      </trkpt>
      <trkpt lat="50.57441" lon="3.18242">
        <ele>-14.2</ele>
        <time>2018-06-26T13:43:13Z</time>
      </trkpt>
      <trkpt lat="50.57441" lon="3.18242">
        <ele>-14.4</ele>
        <time>2018-06-26T13:43:17Z</time>
      </trkpt>
      <trkpt lat="50.57441" lon="3.18242">
        <ele>-14.4</ele>
        <time>2018-06-26T13:43:21Z</time>
      </trkpt>
      <trkpt lat="50.57441" lon="3.18242">
        <ele>-15</ele>
        <time>2018-06-26T13:43:25Z</time>
      </trkpt>
      <trkpt lat="50.57441" lon="3.18242">
        <ele>-14.4</ele>
        <time>2018-06-26T13:43:29Z</time>
      </trkpt>
      <trkpt lat="50.57441" lon="3.18242">
        <ele>-14.4</ele>
        <time>2018-06-26T13:43:33Z</time>
      </trkpt>
      <trkpt lat="50.57441" lon="3.18242">
        <ele>-14.2</ele>
        <time>2018-06-26T13:43:37Z</time>
      </trkpt>
      <trkpt lat="50.57441" lon="3.18242">
        <ele>-14.2</ele>
        <time>2018-06-26T13:43:41Z</time>
      </trkpt>
      <trkpt lat="50.57441" lon="3.18242">
        <ele>-14.4</ele>
        <time>2018-06-26T13:43:45Z</time>
      </trkpt>
      <trkpt lat="50.57441" lon="3.18242">
        <ele>-14.2</ele>
        <time>2018-06-26T13:43:49Z</time>
      </trkpt>
      <trkpt lat="50.57441" lon="3.18242">
        <ele>-14.4</ele>
        <time>2018-06-26T13:43:53Z</time>
      </trkpt>
      <trkpt lat="50.57441" lon="3.18242">
        <ele>-14.2</ele>
        <time>2018-06-26T13:43:57Z</time>
      </trkpt>
      <trkpt lat="50.57441" lon="3.18242">
        <ele>-14</ele>
        <time>2018-06-26T13:44:01Z</time>
      </trkpt>
      <trkpt lat="50.57441" lon="3.18242">
        <ele>-14</ele>
        <time>2018-06-26T13:44:05Z</time>
      </trkpt>
      <trkpt lat="50.57441" lon="3.18242">
        <ele>-14.4</ele>
        <time>2018-06-26T13:44:09Z</time>
      </trkpt>
      <trkpt lat="50.57441" lon="3.18242">
        <ele>-14.4</ele>
        <time>2018-06-26T13:44:13Z</time>
      </trkpt>
      <trkpt lat="50.57441" lon="3.18242">
        <ele>-14.8</ele>
        <time>2018-06-26T13:44:17Z</time>
      </trkpt>
      <trkpt lat="50.57441" lon="3.18242">
        <ele>-14.6</ele>
        <time>2018-06-26T13:44:21Z</time>
      </trkpt>
      <trkpt lat="50.57441" lon="3.18242">
        <ele>-15</ele>
        <time>2018-06-26T13:44:25Z</time>
      </trkpt>
      <trkpt lat="50.57441" lon="3.18242">
        <ele>-14.4</ele>
        <time>2018-06-26T13:44:29Z</time>
      </trkpt>
      <trkpt lat="50.57441" lon="3.18242">
        <ele>-14.2</ele>
        <time>2018-06-26T13:44:33Z</time>
      </trkpt>
      <trkpt lat="50.57441" lon="3.18242">
        <ele>-14.2</ele>
        <time>2018-06-26T13:44:37Z</time>
      </trkpt>
      <trkpt lat="50.57441" lon="3.18242">
        <ele>-14.2</ele>
        <time>2018-06-26T13:44:41Z</time>
      </trkpt>
      <trkpt lat="50.57441" lon="3.18242">
        <ele>-14.2</ele>
        <time>2018-06-26T13:44:45Z</time>
      </trkpt>
      <trkpt lat="50.57441" lon="3.18242">
        <ele>-14.2</ele>
        <time>2018-06-26T13:44:49Z</time>
      </trkpt>
      <trkpt lat="50.57441" lon="3.18242">
        <ele>-14.4</ele>
        <time>2018-06-26T13:44:53Z</time>
      </trkpt>
      <trkpt lat="50.57441" lon="3.18242">
        <ele>-14.6</ele>
        <time>2018-06-26T13:44:57Z</time>
      </trkpt>
      <trkpt lat="50.57441" lon="3.18242">
        <ele>-14.4</ele>
        <time>2018-06-26T13:45:01Z</time>
      </trkpt>
      <trkpt lat="50.57441" lon="3.18242">
        <ele>-14.4</ele>
        <time>2018-06-26T13:45:05Z</time>
      </trkpt>
      <trkpt lat="50.57441" lon="3.18242">
        <ele>-14.4</ele>
        <time>2018-06-26T13:45:09Z</time>
      </trkpt>
      <trkpt lat="50.57441" lon="3.18242">
        <ele>-14.2</ele>
        <time>2018-06-26T13:45:13Z</time>
      </trkpt>
      <trkpt lat="50.57441" lon="3.18242">
        <ele>-14.2</ele>
        <time>2018-06-26T13:45:17Z</time>
      </trkpt>
      <trkpt lat="50.57441" lon="3.18242">
        <ele>-14</ele>
        <time>2018-06-26T13:45:21Z</time>
      </trkpt>
      <trkpt lat="50.57441" lon="3.18242">
        <ele>-14</ele>
        <time>2018-06-26T13:45:25Z</time>
      </trkpt>
      <trkpt lat="50.57441" lon="3.18242">
        <ele>-14</ele>
        <time>2018-06-26T13:45:29Z</time>
      </trkpt>
      <trkpt lat="50.57441" lon="3.18242">
        <ele>-14</ele>
        <time>2018-06-26T13:45:33Z</time>
      </trkpt>
      <trkpt lat="50.57441" lon="3.18242">
        <ele>-14.2</ele>
        <time>2018-06-26T13:45:37Z</time>
      </trkpt>
      <trkpt lat="50.57441" lon="3.18242">
        <ele>-14.2</ele>
        <time>2018-06-26T13:45:41Z</time>
      </trkpt>
      <trkpt lat="50.57441" lon="3.18242">
        <ele>-14</ele>
        <time>2018-06-26T13:45:45Z</time>
      </trkpt>
      <trkpt lat="50.57441" lon="3.18242">
        <ele>-14</ele>
        <time>2018-06-26T13:45:49Z</time>
      </trkpt>
      <trkpt lat="50.57441" lon="3.18242">
        <ele>-14.2</ele>
        <time>2018-06-26T13:45:53Z</time>
      </trkpt>
      <trkpt lat="50.57441" lon="3.18242">
        <ele>-14.4</ele>
        <time>2018-06-26T13:45:57Z</time>
      </trkpt>
      <trkpt lat="50.57441" lon="3.18242">
        <ele>-14.4</ele>
        <time>2018-06-26T13:46:01Z</time>
      </trkpt>
      <trkpt lat="50.57441" lon="3.18242">
        <ele>-14.6</ele>
        <time>2018-06-26T13:46:05Z</time>
      </trkpt>
      <trkpt lat="50.57441" lon="3.18242">
        <ele>-14.4</ele>
        <time>2018-06-26T13:46:09Z</time>
      </trkpt>
      <trkpt lat="50.57441" lon="3.18242">
        <ele>-14.2</ele>
        <time>2018-06-26T13:46:13Z</time>
      </trkpt>
      <trkpt lat="50.57441" lon="3.18242">
        <ele>-13.8</ele>
        <time>2018-06-26T13:46:17Z</time>
      </trkpt>
      <trkpt lat="50.57441" lon="3.18242">
        <ele>-14.4</ele>
        <time>2018-06-26T13:46:21Z</time>
      </trkpt>
      <trkpt lat="50.57441" lon="3.18242">
        <ele>-15</ele>
        <time>2018-06-26T13:46:25Z</time>
      </trkpt>
      <trkpt lat="50.57441" lon="3.18242">
        <ele>-14.2</ele>
        <time>2018-06-26T13:46:29Z</time>
      </trkpt>
      <trkpt lat="50.57441" lon="3.18242">
        <ele>-14.4</ele>
        <time>2018-06-26T13:46:33Z</time>
      </trkpt>
      <trkpt lat="50.57441" lon="3.18242">
        <ele>-14</ele>
        <time>2018-06-26T13:46:37Z</time>
      </trkpt>
      <trkpt lat="50.57441" lon="3.18242">
        <ele>-14.2</ele>
        <time>2018-06-26T13:46:41Z</time>
      </trkpt>
      <trkpt lat="50.57441" lon="3.18242">
        <ele>-14</ele>
        <time>2018-06-26T13:46:45Z</time>
      </trkpt>
      <trkpt lat="50.57441" lon="3.18242">
        <ele>-14</ele>
        <time>2018-06-26T13:46:49Z</time>
      </trkpt>
      <trkpt lat="50.57441" lon="3.18242">
        <ele>-14</ele>
        <time>2018-06-26T13:46:53Z</time>
      </trkpt>
      <trkpt lat="50.57441" lon="3.18242">
        <ele>-13.6</ele>
        <time>2018-06-26T13:46:57Z</time>
      </trkpt>
      <trkpt lat="50.57441" lon="3.18242">
        <ele>-13.4</ele>
        <time>2018-06-26T13:47:01Z</time>
      </trkpt>
      <trkpt lat="50.57441" lon="3.18242">
        <ele>-14</ele>
        <time>2018-06-26T13:47:05Z</time>
      </trkpt>
      <trkpt lat="50.57441" lon="3.18242">
        <ele>-14</ele>
        <time>2018-06-26T13:47:09Z</time>
      </trkpt>
      <trkpt lat="50.57441" lon="3.18242">
        <ele>-14</ele>
        <time>2018-06-26T13:47:13Z</time>
      </trkpt>
      <trkpt lat="50.57441" lon="3.18242">
        <ele>-14</ele>
        <time>2018-06-26T13:47:17Z</time>
      </trkpt>
      <trkpt lat="50.57441" lon="3.18242">
        <ele>-13.8</ele>
        <time>2018-06-26T13:47:21Z</time>
      </trkpt>
      <trkpt lat="50.57441" lon="3.18242">
        <ele>-14</ele>
        <time>2018-06-26T13:47:25Z</time>
      </trkpt>
      <trkpt lat="50.57441" lon="3.18242">
        <ele>-14.4</ele>
        <time>2018-06-26T13:47:29Z</time>
      </trkpt>
      <trkpt lat="50.57441" lon="3.18242">
        <ele>-14</ele>
        <time>2018-06-26T13:47:33Z</time>
      </trkpt>
      <trkpt lat="50.57441" lon="3.18242">
        <ele>-14.2</ele>
        <time>2018-06-26T13:47:37Z</time>
      </trkpt>
      <trkpt lat="50.57441" lon="3.18242">
        <ele>-14.2</ele>
        <time>2018-06-26T13:47:41Z</time>
      </trkpt>
      <trkpt lat="50.57441" lon="3.18242">
        <ele>-14</ele>
        <time>2018-06-26T13:47:45Z</time>
      </trkpt>
      <trkpt lat="50.57441" lon="3.18242">
        <ele>-14</ele>
        <time>2018-06-26T13:47:49Z</time>
      </trkpt>
      <trkpt lat="50.57441" lon="3.18242">
        <ele>-14</ele>
        <time>2018-06-26T13:47:53Z</time>
      </trkpt>
      <trkpt lat="50.57441" lon="3.18242">
        <ele>-14.4</ele>
        <time>2018-06-26T13:47:57Z</time>
      </trkpt>
      <trkpt lat="50.57441" lon="3.18242">
        <ele>-14.4</ele>
        <time>2018-06-26T13:48:01Z</time>
      </trkpt>
      <trkpt lat="50.57441" lon="3.18242">
        <ele>-14.8</ele>
        <time>2018-06-26T13:48:05Z</time>
      </trkpt>
      <trkpt lat="50.57441" lon="3.18242">
        <ele>-14.4</ele>
        <time>2018-06-26T13:48:09Z</time>
      </trkpt>
      <trkpt lat="50.57441" lon="3.18242">
        <ele>-14.6</ele>
        <time>2018-06-26T13:48:13Z</time>
      </trkpt>
      <trkpt lat="50.57441" lon="3.18242">
        <ele>-14.2</ele>
        <time>2018-06-26T13:48:17Z</time>
      </trkpt>
      <trkpt lat="50.57441" lon="3.18242">
        <ele>-14.4</ele>
        <time>2018-06-26T13:48:21Z</time>
      </trkpt>
      <trkpt lat="50.57441" lon="3.18242">
        <ele>-14.6</ele>
        <time>2018-06-26T13:48:25Z</time>
      </trkpt>
      <trkpt lat="50.57441" lon="3.18242">
        <ele>-14.6</ele>
        <time>2018-06-26T13:48:29Z</time>
      </trkpt>
      <trkpt lat="50.57441" lon="3.18242">
        <ele>-14.4</ele>
        <time>2018-06-26T13:48:33Z</time>
      </trkpt>
      <trkpt lat="50.57441" lon="3.18242">
        <ele>-14.2</ele>
        <time>2018-06-26T13:48:37Z</time>
      </trkpt>
      <trkpt lat="50.57441" lon="3.18242">
        <ele>-14.4</ele>
        <time>2018-06-26T13:48:41Z</time>
      </trkpt>
      <trkpt lat="50.57441" lon="3.18242">
        <ele>-14.4</ele>
        <time>2018-06-26T13:48:45Z</time>
      </trkpt>
      <trkpt lat="50.57441" lon="3.18242">
        <ele>-14</ele>
        <time>2018-06-26T13:48:49Z</time>
      </trkpt>
      <trkpt lat="50.57441" lon="3.18242">
        <ele>-13.8</ele>
        <time>2018-06-26T13:48:53Z</time>
      </trkpt>
      <trkpt lat="50.57441" lon="3.18242">
        <ele>-14</ele>
        <time>2018-06-26T13:48:57Z</time>
      </trkpt>
      <trkpt lat="50.57441" lon="3.18242">
        <ele>-14.2</ele>
        <time>2018-06-26T13:49:01Z</time>
      </trkpt>
      <trkpt lat="50.57441" lon="3.18242">
        <ele>-14</ele>
        <time>2018-06-26T13:49:05Z</time>
      </trkpt>
      <trkpt lat="50.57441" lon="3.18242">
        <ele>-14.2</ele>
        <time>2018-06-26T13:49:09Z</time>
      </trkpt>
      <trkpt lat="50.57441" lon="3.18242">
        <ele>-14.4</ele>
        <time>2018-06-26T13:49:13Z</time>
      </trkpt>
      <trkpt lat="50.57441" lon="3.18242">
        <ele>-14.2</ele>
        <time>2018-06-26T13:49:17Z</time>
      </trkpt>
      <trkpt lat="50.57441" lon="3.18242">
        <ele>-14.2</ele>
        <time>2018-06-26T13:49:21Z</time>
      </trkpt>
      <trkpt lat="50.57441" lon="3.18242">
        <ele>-14</ele>
        <time>2018-06-26T13:49:25Z</time>
      </trkpt>
      <trkpt lat="50.57441" lon="3.18242">
        <ele>-14</ele>
        <time>2018-06-26T13:49:29Z</time>
      </trkpt>
      <trkpt lat="50.57441" lon="3.18242">
        <ele>-13.8</ele>
        <time>2018-06-26T13:49:33Z</time>
      </trkpt>
      <trkpt lat="50.57441" lon="3.18242">
        <ele>-14.2</ele>
        <time>2018-06-26T13:49:37Z</time>
      </trkpt>
      <trkpt lat="50.57441" lon="3.18242">
        <ele>-14</ele>
        <time>2018-06-26T13:49:41Z</time>
      </trkpt>
      <trkpt lat="50.57441" lon="3.18242">
        <ele>-13.8</ele>
        <time>2018-06-26T13:49:45Z</time>
      </trkpt>
      <trkpt lat="50.57441" lon="3.18242">
        <ele>-14</ele>
        <time>2018-06-26T13:49:49Z</time>
      </trkpt>
      <trkpt lat="50.57441" lon="3.18242">
        <ele>-14</ele>
        <time>2018-06-26T13:49:53Z</time>
      </trkpt>
      <trkpt lat="50.57441" lon="3.18242">
        <ele>-13.6</ele>
        <time>2018-06-26T13:49:57Z</time>
      </trkpt>
      <trkpt lat="50.57441" lon="3.18242">
        <ele>-13.6</ele>
        <time>2018-06-26T13:50:01Z</time>
      </trkpt>
      <trkpt lat="50.57441" lon="3.18242">
        <ele>-13.8</ele>
        <time>2018-06-26T13:50:05Z</time>
      </trkpt>
      <trkpt lat="50.57441" lon="3.18242">
        <ele>-13.8</ele>
        <time>2018-06-26T13:50:09Z</time>
      </trkpt>
      <trkpt lat="50.57441" lon="3.18242">
        <ele>-13.4</ele>
        <time>2018-06-26T13:50:13Z</time>
      </trkpt>
      <trkpt lat="50.57441" lon="3.18242">
        <ele>-13.6</ele>
        <time>2018-06-26T13:50:17Z</time>
      </trkpt>
      <trkpt lat="50.57441" lon="3.18242">
        <ele>-13.6</ele>
        <time>2018-06-26T13:50:21Z</time>
      </trkpt>
      <trkpt lat="50.57441" lon="3.18242">
        <ele>-13.6</ele>
        <time>2018-06-26T13:50:25Z</time>
      </trkpt>
      <trkpt lat="50.57441" lon="3.18242">
        <ele>-13.6</ele>
        <time>2018-06-26T13:50:29Z</time>
      </trkpt>
      <trkpt lat="50.57441" lon="3.18242">
        <ele>-13.6</ele>
        <time>2018-06-26T13:50:33Z</time>
      </trkpt>
      <trkpt lat="50.57441" lon="3.18242">
        <ele>-13.8</ele>
        <time>2018-06-26T13:50:37Z</time>
      </trkpt>
      <trkpt lat="50.57441" lon="3.18242">
        <ele>-14</ele>
        <time>2018-06-26T13:50:41Z</time>
      </trkpt>
      <trkpt lat="50.57441" lon="3.18242">
        <ele>-13.8</ele>
        <time>2018-06-26T13:50:45Z</time>
      </trkpt>
      <trkpt lat="50.57441" lon="3.18242">
        <ele>-13.6</ele>
        <time>2018-06-26T13:50:49Z</time>
      </trkpt>
      <trkpt lat="50.57441" lon="3.18242">
        <ele>-14</ele>
        <time>2018-06-26T13:50:53Z</time>
      </trkpt>
      <trkpt lat="50.57441" lon="3.18242">
        <ele>-14</ele>
        <time>2018-06-26T13:50:57Z</time>
      </trkpt>
      <trkpt lat="50.57441" lon="3.18242">
        <ele>-14.2</ele>
        <time>2018-06-26T13:51:01Z</time>
      </trkpt>
      <trkpt lat="50.57441" lon="3.18242">
        <ele>-14.2</ele>
        <time>2018-06-26T13:51:05Z</time>
      </trkpt>
      <trkpt lat="50.57441" lon="3.18242">
        <ele>-14.2</ele>
        <time>2018-06-26T13:51:09Z</time>
      </trkpt>
      <trkpt lat="50.57441" lon="3.18242">
        <ele>-14.2</ele>
        <time>2018-06-26T13:51:13Z</time>
      </trkpt>
      <trkpt lat="50.57441" lon="3.18242">
        <ele>-14</ele>
        <time>2018-06-26T13:51:17Z</time>
      </trkpt>
      <trkpt lat="50.57441" lon="3.18242">
        <ele>-14.2</ele>
        <time>2018-06-26T13:51:21Z</time>
      </trkpt>
      <trkpt lat="50.57441" lon="3.18242">
        <ele>-14</ele>
        <time>2018-06-26T13:51:25Z</time>
      </trkpt>
      <trkpt lat="50.57441" lon="3.18242">
        <ele>-14</ele>
        <time>2018-06-26T13:51:29Z</time>
      </trkpt>
      <trkpt lat="50.57441" lon="3.18242">
        <ele>-14.4</ele>
        <time>2018-06-26T13:51:33Z</time>
      </trkpt>
      <trkpt lat="50.57441" lon="3.18242">
        <ele>-14.2</ele>
        <time>2018-06-26T13:51:37Z</time>
      </trkpt>
      <trkpt lat="50.57441" lon="3.18242">
        <ele>-14</ele>
        <time>2018-06-26T13:51:41Z</time>
      </trkpt>
      <trkpt lat="50.57441" lon="3.18242">
        <ele>-14.4</ele>
        <time>2018-06-26T13:51:45Z</time>
      </trkpt>
      <trkpt lat="50.57441" lon="3.18242">
        <ele>-14.4</ele>
        <time>2018-06-26T13:51:49Z</time>
      </trkpt>
      <trkpt lat="50.57441" lon="3.18242">
        <ele>-14.2</ele>
        <time>2018-06-26T13:51:53Z</time>
      </trkpt>
      <trkpt lat="50.57441" lon="3.18242">
        <ele>-14.2</ele>
        <time>2018-06-26T13:51:57Z</time>
      </trkpt>
      <trkpt lat="50.57441" lon="3.18242">
        <ele>-14</ele>
        <time>2018-06-26T13:52:01Z</time>
      </trkpt>
      <trkpt lat="50.57441" lon="3.18242">
        <ele>-14.6</ele>
        <time>2018-06-26T13:52:05Z</time>
      </trkpt>
      <trkpt lat="50.57441" lon="3.18242">
        <ele>-14.4</ele>
        <time>2018-06-26T13:52:09Z</time>
      </trkpt>
      <trkpt lat="50.57441" lon="3.18242">
        <ele>-14.8</ele>
        <time>2018-06-26T13:52:13Z</time>
      </trkpt>
      <trkpt lat="50.57441" lon="3.18242">
        <ele>-14.8</ele>
        <time>2018-06-26T13:52:17Z</time>
      </trkpt>
      <trkpt lat="50.57441" lon="3.18242">
        <ele>-14.8</ele>
        <time>2018-06-26T13:52:21Z</time>
      </trkpt>
      <trkpt lat="50.57441" lon="3.18242">
        <ele>-14.4</ele>
        <time>2018-06-26T13:52:25Z</time>
      </trkpt>
      <trkpt lat="50.57441" lon="3.18242">
        <ele>-14.6</ele>
        <time>2018-06-26T13:52:29Z</time>
      </trkpt>
      <trkpt lat="50.57441" lon="3.18242">
        <ele>-14.4</ele>
        <time>2018-06-26T13:52:33Z</time>
      </trkpt>
      <trkpt lat="50.57441" lon="3.18242">
        <ele>-14.6</ele>
        <time>2018-06-26T13:52:37Z</time>
      </trkpt>
      <trkpt lat="50.57441" lon="3.18242">
        <ele>-14.4</ele>
        <time>2018-06-26T13:52:41Z</time>
      </trkpt>
      <trkpt lat="50.57441" lon="3.18242">
        <ele>-14.4</ele>
        <time>2018-06-26T13:52:45Z</time>
      </trkpt>
      <trkpt lat="50.57441" lon="3.18242">
        <ele>-14.6</ele>
        <time>2018-06-26T13:52:49Z</time>
      </trkpt>
      <trkpt lat="50.57441" lon="3.18242">
        <ele>-14.2</ele>
        <time>2018-06-26T13:52:53Z</time>
      </trkpt>
      <trkpt lat="50.57441" lon="3.18242">
        <ele>-14.4</ele>
        <time>2018-06-26T13:52:57Z</time>
      </trkpt>
      <trkpt lat="50.57441" lon="3.18242">
        <ele>-14.6</ele>
        <time>2018-06-26T13:53:01Z</time>
      </trkpt>
      <trkpt lat="50.57441" lon="3.18242">
        <ele>-14.4</ele>
        <time>2018-06-26T13:53:05Z</time>
      </trkpt>
      <trkpt lat="50.57441" lon="3.18242">
        <ele>-14.4</ele>
        <time>2018-06-26T13:53:09Z</time>
      </trkpt>
      <trkpt lat="50.57441" lon="3.18242">
        <ele>-14.4</ele>
        <time>2018-06-26T13:53:13Z</time>
      </trkpt>
      <trkpt lat="50.57441" lon="3.18242">
        <ele>-14.4</ele>
        <time>2018-06-26T13:53:17Z</time>
      </trkpt>
      <trkpt lat="50.57441" lon="3.18242">
        <ele>-14.4</ele>
        <time>2018-06-26T13:53:21Z</time>
      </trkpt>
      <trkpt lat="50.57441" lon="3.18242">
        <ele>-14.6</ele>
        <time>2018-06-26T13:53:25Z</time>
      </trkpt>
      <trkpt lat="50.57441" lon="3.18242">
        <ele>-14.4</ele>
        <time>2018-06-26T13:53:29Z</time>
      </trkpt>
      <trkpt lat="50.57441" lon="3.18242">
        <ele>-14.4</ele>
        <time>2018-06-26T13:53:33Z</time>
      </trkpt>
      <trkpt lat="50.57441" lon="3.18242">
        <ele>-14.4</ele>
        <time>2018-06-26T13:53:37Z</time>
      </trkpt>
      <trkpt lat="50.57441" lon="3.18242">
        <ele>-14.4</ele>
        <time>2018-06-26T13:53:41Z</time>
      </trkpt>
      <trkpt lat="50.57441" lon="3.18242">
        <ele>-14.6</ele>
        <time>2018-06-26T13:53:45Z</time>
      </trkpt>
      <trkpt lat="50.57441" lon="3.18242">
        <ele>-14.6</ele>
        <time>2018-06-26T13:53:49Z</time>
      </trkpt>
      <trkpt lat="50.57441" lon="3.18242">
        <ele>-14.6</ele>
        <time>2018-06-26T13:53:53Z</time>
      </trkpt>
      <trkpt lat="50.57441" lon="3.18242">
        <ele>-14</ele>
        <time>2018-06-26T13:53:57Z</time>
      </trkpt>
      <trkpt lat="50.57441" lon="3.18242">
        <ele>-14</ele>
        <time>2018-06-26T13:54:01Z</time>
      </trkpt>
      <trkpt lat="50.57441" lon="3.18242">
        <ele>-14.2</ele>
        <time>2018-06-26T13:54:05Z</time>
      </trkpt>
      <trkpt lat="50.57441" lon="3.18242">
        <ele>-14.4</ele>
        <time>2018-06-26T13:54:09Z</time>
      </trkpt>
      <trkpt lat="50.57441" lon="3.18242">
        <ele>-14.6</ele>
        <time>2018-06-26T13:54:13Z</time>
      </trkpt>
      <trkpt lat="50.57441" lon="3.18242">
        <ele>-14.4</ele>
        <time>2018-06-26T13:54:17Z</time>
      </trkpt>
      <trkpt lat="50.57441" lon="3.18242">
        <ele>-14</ele>
        <time>2018-06-26T13:54:21Z</time>
      </trkpt>
      <trkpt lat="50.57441" lon="3.18242">
        <ele>-14.2</ele>
        <time>2018-06-26T13:54:25Z</time>
      </trkpt>
      <trkpt lat="50.57441" lon="3.18242">
        <ele>-14.4</ele>
        <time>2018-06-26T13:54:29Z</time>
      </trkpt>
      <trkpt lat="50.57441" lon="3.18242">
        <ele>-14.4</ele>
        <time>2018-06-26T13:54:33Z</time>
      </trkpt>
      <trkpt lat="50.57441" lon="3.18242">
        <ele>-14</ele>
        <time>2018-06-26T13:54:37Z</time>
      </trkpt>
      <trkpt lat="50.57441" lon="3.18242">
        <ele>-14.6</ele>
        <time>2018-06-26T13:54:41Z</time>
      </trkpt>
      <trkpt lat="50.57441" lon="3.18242">
        <ele>-14</ele>
        <time>2018-06-26T13:54:45Z</time>
      </trkpt>
      <trkpt lat="50.57441" lon="3.18242">
        <ele>-14.4</ele>
        <time>2018-06-26T13:54:49Z</time>
      </trkpt>
      <trkpt lat="50.57441" lon="3.18242">
        <ele>-14.4</ele>
        <time>2018-06-26T13:54:53Z</time>
      </trkpt>
      <trkpt lat="50.57441" lon="3.18242">
        <ele>-14.4</ele>
        <time>2018-06-26T13:54:57Z</time>
      </trkpt>
      <trkpt lat="50.57441" lon="3.18242">
        <ele>-14.6</ele>
        <time>2018-06-26T13:55:01Z</time>
      </trkpt>
      <trkpt lat="50.57441" lon="3.18242">
        <ele>-14.6</ele>
        <time>2018-06-26T13:55:05Z</time>
      </trkpt>
      <trkpt lat="50.57441" lon="3.18242">
        <ele>-14.8</ele>
        <time>2018-06-26T13:55:09Z</time>
      </trkpt>
      <trkpt lat="50.57441" lon="3.18242">
        <ele>-15.2</ele>
        <time>2018-06-26T13:55:13Z</time>
      </trkpt>
      <trkpt lat="50.57441" lon="3.18242">
        <ele>-14.6</ele>
        <time>2018-06-26T13:55:17Z</time>
      </trkpt>
      <trkpt lat="50.57441" lon="3.18242">
        <ele>-14.4</ele>
        <time>2018-06-26T13:55:21Z</time>
      </trkpt>
      <trkpt lat="50.57441" lon="3.18242">
        <ele>-14.2</ele>
        <time>2018-06-26T13:55:25Z</time>
      </trkpt>
      <trkpt lat="50.57441" lon="3.18242">
        <ele>-14.4</ele>
        <time>2018-06-26T13:55:29Z</time>
      </trkpt>
      <trkpt lat="50.57441" lon="3.18242">
        <ele>-14.6</ele>
        <time>2018-06-26T13:55:33Z</time>
      </trkpt>
      <trkpt lat="50.57441" lon="3.18242">
        <ele>-14.6</ele>
        <time>2018-06-26T13:55:37Z</time>
      </trkpt>
      <trkpt lat="50.57441" lon="3.18242">
        <ele>-14.8</ele>
        <time>2018-06-26T13:55:41Z</time>
      </trkpt>
      <trkpt lat="50.57441" lon="3.18242">
        <ele>-14.8</ele>
        <time>2018-06-26T13:55:45Z</time>
      </trkpt>
      <trkpt lat="50.57441" lon="3.18242">
        <ele>-14.6</ele>
        <time>2018-06-26T13:55:49Z</time>
      </trkpt>
      <trkpt lat="50.57441" lon="3.18242">
        <ele>-14.8</ele>
        <time>2018-06-26T13:55:53Z</time>
      </trkpt>
      <trkpt lat="50.57441" lon="3.18242">
        <ele>-14.8</ele>
        <time>2018-06-26T13:55:57Z</time>
      </trkpt>
      <trkpt lat="50.57441" lon="3.18242">
        <ele>-14.4</ele>
        <time>2018-06-26T13:56:01Z</time>
      </trkpt>
      <trkpt lat="50.57441" lon="3.18242">
        <ele>-14.8</ele>
        <time>2018-06-26T13:56:05Z</time>
      </trkpt>
      <trkpt lat="50.57441" lon="3.18242">
        <ele>-14.8</ele>
        <time>2018-06-26T13:56:09Z</time>
      </trkpt>
      <trkpt lat="50.57441" lon="3.18242">
        <ele>-14.8</ele>
        <time>2018-06-26T13:56:13Z</time>
      </trkpt>
      <trkpt lat="50.57441" lon="3.18242">
        <ele>-14.6</ele>
        <time>2018-06-26T13:56:17Z</time>
      </trkpt>
      <trkpt lat="50.57441" lon="3.18242">
        <ele>-14.6</ele>
        <time>2018-06-26T13:56:21Z</time>
      </trkpt>
      <trkpt lat="50.57441" lon="3.18242">
        <ele>-14.4</ele>
        <time>2018-06-26T13:56:25Z</time>
      </trkpt>
      <trkpt lat="50.57441" lon="3.18242">
        <ele>-14.4</ele>
        <time>2018-06-26T13:56:29Z</time>
      </trkpt>
      <trkpt lat="50.57441" lon="3.18242">
        <ele>-14.2</ele>
        <time>2018-06-26T13:56:33Z</time>
      </trkpt>
      <trkpt lat="50.57441" lon="3.18242">
        <ele>-14</ele>
        <time>2018-06-26T13:56:37Z</time>
      </trkpt>
      <trkpt lat="50.57441" lon="3.18242">
        <ele>-14.2</ele>
        <time>2018-06-26T13:56:41Z</time>
      </trkpt>
      <trkpt lat="50.57441" lon="3.18242">
        <ele>-14.6</ele>
        <time>2018-06-26T13:56:45Z</time>
      </trkpt>
      <trkpt lat="50.57441" lon="3.18242">
        <ele>-14.2</ele>
        <time>2018-06-26T13:56:49Z</time>
      </trkpt>
      <trkpt lat="50.57441" lon="3.18242">
        <ele>-14.6</ele>
        <time>2018-06-26T13:56:53Z</time>
      </trkpt>
      <trkpt lat="50.57441" lon="3.18242">
        <ele>-14.4</ele>
        <time>2018-06-26T13:56:57Z</time>
      </trkpt>
      <trkpt lat="50.57441" lon="3.18242">
        <ele>-14.4</ele>
        <time>2018-06-26T13:57:01Z</time>
      </trkpt>
      <trkpt lat="50.57441" lon="3.18242">
        <ele>-14.4</ele>
        <time>2018-06-26T13:57:05Z</time>
      </trkpt>
      <trkpt lat="50.57441" lon="3.18242">
        <ele>-14.4</ele>
        <time>2018-06-26T13:57:09Z</time>
      </trkpt>
      <trkpt lat="50.57441" lon="3.18242">
        <ele>-14.4</ele>
        <time>2018-06-26T13:57:13Z</time>
      </trkpt>
      <trkpt lat="50.57441" lon="3.18242">
        <ele>-14.4</ele>
        <time>2018-06-26T13:57:17Z</time>
      </trkpt>
      <trkpt lat="50.57441" lon="3.18242">
        <ele>-14.6</ele>
        <time>2018-06-26T13:57:21Z</time>
      </trkpt>
      <trkpt lat="50.57441" lon="3.18242">
        <ele>-14.4</ele>
        <time>2018-06-26T13:57:25Z</time>
      </trkpt>
      <trkpt lat="50.57441" lon="3.18242">
        <ele>-14</ele>
        <time>2018-06-26T13:57:29Z</time>
      </trkpt>
      <trkpt lat="50.57441" lon="3.18242">
        <ele>-14</ele>
        <time>2018-06-26T13:57:33Z</time>
      </trkpt>
      <trkpt lat="50.57441" lon="3.18242">
        <ele>-14</ele>
        <time>2018-06-26T13:57:37Z</time>
      </trkpt>
      <trkpt lat="50.57441" lon="3.18242">
        <ele>-14.8</ele>
        <time>2018-06-26T13:57:41Z</time>
      </trkpt>
      <trkpt lat="50.57441" lon="3.18242">
        <ele>-14.6</ele>
        <time>2018-06-26T13:57:45Z</time>
      </trkpt>
      <trkpt lat="50.57441" lon="3.18242">
        <ele>-14.8</ele>
        <time>2018-06-26T13:57:49Z</time>
      </trkpt>
      <trkpt lat="50.57441" lon="3.18242">
        <ele>-15.2</ele>
        <time>2018-06-26T13:57:53Z</time>
      </trkpt>
      <trkpt lat="50.57441" lon="3.18242">
        <ele>-15</ele>
        <time>2018-06-26T13:57:57Z</time>
      </trkpt>
      <trkpt lat="50.57441" lon="3.18242">
        <ele>-14.6</ele>
        <time>2018-06-26T13:58:01Z</time>
      </trkpt>
      <trkpt lat="50.57441" lon="3.18242">
        <ele>-14.6</ele>
        <time>2018-06-26T13:58:05Z</time>
      </trkpt>
      <trkpt lat="50.57441" lon="3.18242">
        <ele>-14.6</ele>
        <time>2018-06-26T13:58:09Z</time>
      </trkpt>
      <trkpt lat="50.57441" lon="3.18242">
        <ele>-14.6</ele>
        <time>2018-06-26T13:58:13Z</time>
      </trkpt>
      <trkpt lat="50.57441" lon="3.18242">
        <ele>-14.6</ele>
        <time>2018-06-26T13:58:17Z</time>
      </trkpt>
      <trkpt lat="50.57441" lon="3.18242">
        <ele>-14.4</ele>
        <time>2018-06-26T13:58:21Z</time>
      </trkpt>
      <trkpt lat="50.57441" lon="3.18242">
        <ele>-14.4</ele>
        <time>2018-06-26T13:58:25Z</time>
      </trkpt>
      <trkpt lat="50.57441" lon="3.18242">
        <ele>-14.6</ele>
        <time>2018-06-26T13:58:29Z</time>
      </trkpt>
      <trkpt lat="50.57441" lon="3.18242">
        <ele>-14.2</ele>
        <time>2018-06-26T13:58:33Z</time>
      </trkpt>
      <trkpt lat="50.57441" lon="3.18242">
        <ele>-14.2</ele>
        <time>2018-06-26T13:58:37Z</time>
      </trkpt>
      <trkpt lat="50.57441" lon="3.18242">
        <ele>-14</ele>
        <time>2018-06-26T13:58:41Z</time>
      </trkpt>
      <trkpt lat="50.57441" lon="3.18242">
        <ele>-14</ele>
        <time>2018-06-26T13:58:45Z</time>
      </trkpt>
      <trkpt lat="50.57441" lon="3.18242">
        <ele>-14.6</ele>
        <time>2018-06-26T13:58:49Z</time>
      </trkpt>
      <trkpt lat="50.57441" lon="3.18242">
        <ele>-14.4</ele>
        <time>2018-06-26T13:58:53Z</time>
      </trkpt>
      <trkpt lat="50.57441" lon="3.18242">
        <ele>-14.4</ele>
        <time>2018-06-26T13:58:57Z</time>
      </trkpt>
      <trkpt lat="50.57441" lon="3.18242">
        <ele>-14.4</ele>
        <time>2018-06-26T13:59:01Z</time>
      </trkpt>
      <trkpt lat="50.57441" lon="3.18242">
        <ele>-14.2</ele>
        <time>2018-06-26T13:59:05Z</time>
      </trkpt>
      <trkpt lat="50.57441" lon="3.18242">
        <ele>-14</ele>
        <time>2018-06-26T13:59:09Z</time>
      </trkpt>
      <trkpt lat="50.57441" lon="3.18242">
        <ele>-13.8</ele>
        <time>2018-06-26T13:59:13Z</time>
      </trkpt>
      <trkpt lat="50.57441" lon="3.18242">
        <ele>-13.8</ele>
        <time>2018-06-26T13:59:17Z</time>
      </trkpt>
      <trkpt lat="50.57441" lon="3.18242">
        <ele>-14.2</ele>
        <time>2018-06-26T13:59:21Z</time>
      </trkpt>
      <trkpt lat="50.57441" lon="3.18242">
        <ele>-14</ele>
        <time>2018-06-26T13:59:25Z</time>
      </trkpt>
      <trkpt lat="50.57441" lon="3.18242">
        <ele>-14</ele>
        <time>2018-06-26T13:59:29Z</time>
      </trkpt>
      <trkpt lat="50.57441" lon="3.18242">
        <ele>-14.2</ele>
        <time>2018-06-26T13:59:33Z</time>
      </trkpt>
      <trkpt lat="50.57441" lon="3.18242">
        <ele>-13.6</ele>
        <time>2018-06-26T13:59:37Z</time>
      </trkpt>
      <trkpt lat="50.57441" lon="3.18242">
        <ele>-13.8</ele>
        <time>2018-06-26T13:59:41Z</time>
      </trkpt>
      <trkpt lat="50.57441" lon="3.18242">
        <ele>-13.6</ele>
        <time>2018-06-26T13:59:45Z</time>
      </trkpt>
      <trkpt lat="50.57441" lon="3.18242">
        <ele>-13.8</ele>
        <time>2018-06-26T13:59:49Z</time>
      </trkpt>
      <trkpt lat="50.57441" lon="3.18242">
        <ele>-13.8</ele>
        <time>2018-06-26T13:59:53Z</time>
      </trkpt>
      <trkpt lat="50.57441" lon="3.18242">
        <ele>-13.8</ele>
        <time>2018-06-26T13:59:57Z</time>
      </trkpt>
      <trkpt lat="50.57441" lon="3.18242">
        <ele>-14</ele>
        <time>2018-06-26T14:00:01Z</time>
      </trkpt>
      <trkpt lat="50.57441" lon="3.18242">
        <ele>-13.8</ele>
        <time>2018-06-26T14:00:05Z</time>
      </trkpt>
      <trkpt lat="50.57441" lon="3.18242">
        <ele>-14</ele>
        <time>2018-06-26T14:00:09Z</time>
      </trkpt>
      <trkpt lat="50.57441" lon="3.18242">
        <ele>-14.2</ele>
        <time>2018-06-26T14:00:13Z</time>
      </trkpt>
      <trkpt lat="50.57441" lon="3.18242">
        <ele>-13.8</ele>
        <time>2018-06-26T14:00:17Z</time>
      </trkpt>
      <trkpt lat="50.57441" lon="3.18242">
        <ele>-14</ele>
        <time>2018-06-26T14:00:21Z</time>
      </trkpt>
      <trkpt lat="50.57441" lon="3.18242">
        <ele>-14.4</ele>
        <time>2018-06-26T14:00:25Z</time>
      </trkpt>
      <trkpt lat="50.57441" lon="3.18242">
        <ele>-14.4</ele>
        <time>2018-06-26T14:00:29Z</time>
      </trkpt>
      <trkpt lat="50.57441" lon="3.18242">
        <ele>-14.6</ele>
        <time>2018-06-26T14:00:33Z</time>
      </trkpt>
      <trkpt lat="50.57441" lon="3.18242">
        <ele>-15</ele>
        <time>2018-06-26T14:00:37Z</time>
      </trkpt>
      <trkpt lat="50.57441" lon="3.18242">
        <ele>-14.6</ele>
        <time>2018-06-26T14:00:41Z</time>
      </trkpt>
      <trkpt lat="50.57441" lon="3.18242">
        <ele>-14.6</ele>
        <time>2018-06-26T14:00:45Z</time>
      </trkpt>
      <trkpt lat="50.57441" lon="3.18242">
        <ele>-15</ele>
        <time>2018-06-26T14:00:49Z</time>
      </trkpt>
      <trkpt lat="50.57441" lon="3.18242">
        <ele>-14.8</ele>
        <time>2018-06-26T14:00:53Z</time>
      </trkpt>
      <trkpt lat="50.57441" lon="3.18242">
        <ele>-14.4</ele>
        <time>2018-06-26T14:00:57Z</time>
      </trkpt>
      <trkpt lat="50.57441" lon="3.18242">
        <ele>-14.6</ele>
        <time>2018-06-26T14:01:01Z</time>
      </trkpt>
      <trkpt lat="50.57441" lon="3.18242">
        <ele>-14.8</ele>
        <time>2018-06-26T14:01:05Z</time>
      </trkpt>
      <trkpt lat="50.57441" lon="3.18242">
        <ele>-14.8</ele>
        <time>2018-06-26T14:01:09Z</time>
      </trkpt>
      <trkpt lat="50.57441" lon="3.18242">
        <ele>-14.4</ele>
        <time>2018-06-26T14:01:13Z</time>
      </trkpt>
      <trkpt lat="50.57441" lon="3.18242">
        <ele>-14.4</ele>
        <time>2018-06-26T14:01:17Z</time>
      </trkpt>
      <trkpt lat="50.57441" lon="3.18242">
        <ele>-14.6</ele>
        <time>2018-06-26T14:01:21Z</time>
      </trkpt>
      <trkpt lat="50.57441" lon="3.18242">
        <ele>-14.4</ele>
        <time>2018-06-26T14:01:25Z</time>
      </trkpt>
      <trkpt lat="50.57441" lon="3.18242">
        <ele>-14.4</ele>
        <time>2018-06-26T14:01:29Z</time>
      </trkpt>
      <trkpt lat="50.57441" lon="3.18242">
        <ele>-14.4</ele>
        <time>2018-06-26T14:01:33Z</time>
      </trkpt>
      <trkpt lat="50.57441" lon="3.18242">
        <ele>-14.6</ele>
        <time>2018-06-26T14:01:37Z</time>
      </trkpt>
      <trkpt lat="50.57441" lon="3.18242">
        <ele>-14.6</ele>
        <time>2018-06-26T14:01:41Z</time>
      </trkpt>
      <trkpt lat="50.57441" lon="3.18242">
        <ele>-14.8</ele>
        <time>2018-06-26T14:01:45Z</time>
      </trkpt>
      <trkpt lat="50.57441" lon="3.18242">
        <ele>-14.4</ele>
        <time>2018-06-26T14:01:49Z</time>
      </trkpt>
      <trkpt lat="50.57441" lon="3.18242">
        <ele>-14.4</ele>
        <time>2018-06-26T14:01:53Z</time>
      </trkpt>
      <trkpt lat="50.57441" lon="3.18242">
        <ele>-14.6</ele>
        <time>2018-06-26T14:01:57Z</time>
      </trkpt>
      <trkpt lat="50.57441" lon="3.18242">
        <ele>-14.6</ele>
        <time>2018-06-26T14:02:01Z</time>
      </trkpt>
      <trkpt lat="50.57441" lon="3.18242">
        <ele>-14.4</ele>
        <time>2018-06-26T14:02:05Z</time>
      </trkpt>
      <trkpt lat="50.57441" lon="3.18242">
        <ele>-14.4</ele>
        <time>2018-06-26T14:02:09Z</time>
      </trkpt>
      <trkpt lat="50.57441" lon="3.18242">
        <ele>-14.6</ele>
        <time>2018-06-26T14:02:13Z</time>
      </trkpt>
      <trkpt lat="50.57441" lon="3.18242">
        <ele>-14.4</ele>
        <time>2018-06-26T14:02:17Z</time>
      </trkpt>
      <trkpt lat="50.57441" lon="3.18242">
        <ele>-14.4</ele>
        <time>2018-06-26T14:02:21Z</time>
      </trkpt>
      <trkpt lat="50.57441" lon="3.18242">
        <ele>-14.6</ele>
        <time>2018-06-26T14:02:25Z</time>
      </trkpt>
      <trkpt lat="50.57441" lon="3.18242">
        <ele>-14.4</ele>
        <time>2018-06-26T14:02:29Z</time>
      </trkpt>
      <trkpt lat="50.57441" lon="3.18242">
        <ele>-14.4</ele>
        <time>2018-06-26T14:02:33Z</time>
      </trkpt>
      <trkpt lat="50.57441" lon="3.18242">
        <ele>-14.4</ele>
        <time>2018-06-26T14:02:37Z</time>
      </trkpt>
      <trkpt lat="50.57441" lon="3.18242">
        <ele>-14.2</ele>
        <time>2018-06-26T14:02:41Z</time>
      </trkpt>
      <trkpt lat="50.57441" lon="3.18242">
        <ele>-14.2</ele>
        <time>2018-06-26T14:02:45Z</time>
      </trkpt>
      <trkpt lat="50.57441" lon="3.18242">
        <ele>-14.4</ele>
        <time>2018-06-26T14:02:49Z</time>
      </trkpt>
      <trkpt lat="50.57441" lon="3.18242">
        <ele>-13.8</ele>
        <time>2018-06-26T14:02:53Z</time>
      </trkpt>
      <trkpt lat="50.57441" lon="3.18242">
        <ele>-13.8</ele>
        <time>2018-06-26T14:02:57Z</time>
      </trkpt>
      <trkpt lat="50.57441" lon="3.18242">
        <ele>-14.2</ele>
        <time>2018-06-26T14:03:01Z</time>
      </trkpt>
      <trkpt lat="50.57441" lon="3.18242">
        <ele>-14.2</ele>
        <time>2018-06-26T14:03:05Z</time>
      </trkpt>
      <trkpt lat="50.57441" lon="3.18242">
        <ele>-14.2</ele>
        <time>2018-06-26T14:03:09Z</time>
      </trkpt>
      <trkpt lat="50.57441" lon="3.18242">
        <ele>-14.2</ele>
        <time>2018-06-26T14:03:13Z</time>
      </trkpt>
      <trkpt lat="50.57441" lon="3.18242">
        <ele>-14.2</ele>
        <time>2018-06-26T14:03:17Z</time>
      </trkpt>
      <trkpt lat="50.57441" lon="3.18242">
        <ele>-14.4</ele>
        <time>2018-06-26T14:03:21Z</time>
      </trkpt>
      <trkpt lat="50.57441" lon="3.18242">
        <ele>-14.8</ele>
        <time>2018-06-26T14:03:25Z</time>
      </trkpt>
      <trkpt lat="50.57441" lon="3.18242">
        <ele>-14.2</ele>
        <time>2018-06-26T14:03:29Z</time>
      </trkpt>
      <trkpt lat="50.57441" lon="3.18242">
        <ele>-14.4</ele>
        <time>2018-06-26T14:03:33Z</time>
      </trkpt>
      <trkpt lat="50.57441" lon="3.18242">
        <ele>-14.2</ele>
        <time>2018-06-26T14:03:37Z</time>
      </trkpt>
      <trkpt lat="50.57441" lon="3.18242">
        <ele>-14.2</ele>
        <time>2018-06-26T14:03:41Z</time>
      </trkpt>
      <trkpt lat="50.57441" lon="3.18242">
        <ele>-14</ele>
        <time>2018-06-26T14:03:45Z</time>
      </trkpt>
      <trkpt lat="50.57441" lon="3.18242">
        <ele>-14</ele>
        <time>2018-06-26T14:03:49Z</time>
      </trkpt>
      <trkpt lat="50.57441" lon="3.18242">
        <ele>-14.4</ele>
        <time>2018-06-26T14:03:53Z</time>
      </trkpt>
      <trkpt lat="50.57441" lon="3.18242">
        <ele>-14</ele>
        <time>2018-06-26T14:03:57Z</time>
      </trkpt>
      <trkpt lat="50.57441" lon="3.18242">
        <ele>-14.2</ele>
        <time>2018-06-26T14:04:01Z</time>
      </trkpt>
      <trkpt lat="50.57441" lon="3.18242">
        <ele>-14.4</ele>
        <time>2018-06-26T14:04:05Z</time>
      </trkpt>
      <trkpt lat="50.57441" lon="3.18242">
        <ele>-14.2</ele>
        <time>2018-06-26T14:04:09Z</time>
      </trkpt>
      <trkpt lat="50.57441" lon="3.18242">
        <ele>-14.4</ele>
        <time>2018-06-26T14:04:13Z</time>
      </trkpt>
      <trkpt lat="50.57441" lon="3.18242">
        <ele>-14.2</ele>
        <time>2018-06-26T14:04:17Z</time>
      </trkpt>
      <trkpt lat="50.57441" lon="3.18242">
        <ele>-14</ele>
        <time>2018-06-26T14:04:21Z</time>
      </trkpt>
      <trkpt lat="50.57441" lon="3.18242">
        <ele>-14.2</ele>
        <time>2018-06-26T14:04:25Z</time>
      </trkpt>
      <trkpt lat="50.57441" lon="3.18242">
        <ele>-13.8</ele>
        <time>2018-06-26T14:04:29Z</time>
      </trkpt>
      <trkpt lat="50.57441" lon="3.18242">
        <ele>-14</ele>
        <time>2018-06-26T14:04:33Z</time>
      </trkpt>
      <trkpt lat="50.57441" lon="3.18242">
        <ele>-14</ele>
        <time>2018-06-26T14:04:37Z</time>
      </trkpt>
      <trkpt lat="50.57441" lon="3.18242">
        <ele>-14.2</ele>
        <time>2018-06-26T14:04:41Z</time>
      </trkpt>
      <trkpt lat="50.57441" lon="3.18242">
        <ele>-14</ele>
        <time>2018-06-26T14:04:45Z</time>
      </trkpt>
      <trkpt lat="50.57441" lon="3.18242">
        <ele>-14.2</ele>
        <time>2018-06-26T14:04:49Z</time>
      </trkpt>
      <trkpt lat="50.57441" lon="3.18242">
        <ele>-14.2</ele>
        <time>2018-06-26T14:04:53Z</time>
      </trkpt>
      <trkpt lat="50.57441" lon="3.18242">
        <ele>-14.2</ele>
        <time>2018-06-26T14:04:57Z</time>
      </trkpt>
      <trkpt lat="50.57441" lon="3.18242">
        <ele>-14.2</ele>
        <time>2018-06-26T14:05:01Z</time>
      </trkpt>
      <trkpt lat="50.57441" lon="3.18242">
        <ele>-14</ele>
        <time>2018-06-26T14:05:05Z</time>
      </trkpt>
      <trkpt lat="50.57441" lon="3.18242">
        <ele>-14</ele>
        <time>2018-06-26T14:05:09Z</time>
      </trkpt>
      <trkpt lat="50.57441" lon="3.18242">
        <ele>-13.6</ele>
        <time>2018-06-26T14:05:13Z</time>
      </trkpt>
      <trkpt lat="50.57441" lon="3.18242">
        <ele>-14.2</ele>
        <time>2018-06-26T14:05:17Z</time>
      </trkpt>
      <trkpt lat="50.57441" lon="3.18242">
        <ele>-13.6</ele>
        <time>2018-06-26T14:05:21Z</time>
      </trkpt>
      <trkpt lat="50.57441" lon="3.18242">
        <ele>-14</ele>
        <time>2018-06-26T14:05:25Z</time>
      </trkpt>
      <trkpt lat="50.57441" lon="3.18242">
        <ele>-14</ele>
        <time>2018-06-26T14:05:29Z</time>
      </trkpt>
      <trkpt lat="50.57441" lon="3.18242">
        <ele>-14</ele>
        <time>2018-06-26T14:05:33Z</time>
      </trkpt>
      <trkpt lat="50.57441" lon="3.18242">
        <ele>-14.2</ele>
        <time>2018-06-26T14:05:37Z</time>
      </trkpt>
      <trkpt lat="50.57441" lon="3.18242">
        <ele>-14</ele>
        <time>2018-06-26T14:05:41Z</time>
      </trkpt>
      <trkpt lat="50.57441" lon="3.18242">
        <ele>-14</ele>
        <time>2018-06-26T14:05:45Z</time>
      </trkpt>
      <trkpt lat="50.57441" lon="3.18242">
        <ele>-14.2</ele>
        <time>2018-06-26T14:05:49Z</time>
      </trkpt>
      <trkpt lat="50.57441" lon="3.18242">
        <ele>-13.8</ele>
        <time>2018-06-26T14:05:53Z</time>
      </trkpt>
      <trkpt lat="50.57441" lon="3.18242">
        <ele>-14</ele>
        <time>2018-06-26T14:05:57Z</time>
      </trkpt>
      <trkpt lat="50.57441" lon="3.18242">
        <ele>-13.4</ele>
        <time>2018-06-26T14:06:01Z</time>
      </trkpt>
      <trkpt lat="50.57441" lon="3.18242">
        <ele>-13.4</ele>
        <time>2018-06-26T14:06:05Z</time>
      </trkpt>
      <trkpt lat="50.57441" lon="3.18242">
        <ele>-13.6</ele>
        <time>2018-06-26T14:06:09Z</time>
      </trkpt>
      <trkpt lat="50.57441" lon="3.18242">
        <ele>-14</ele>
        <time>2018-06-26T14:06:13Z</time>
      </trkpt>
      <trkpt lat="50.57441" lon="3.18242">
        <ele>-14</ele>
        <time>2018-06-26T14:06:17Z</time>
      </trkpt>
      <trkpt lat="50.57441" lon="3.18242">
        <ele>-13.6</ele>
        <time>2018-06-26T14:06:21Z</time>
      </trkpt>
      <trkpt lat="50.57441" lon="3.18242">
        <ele>-13.2</ele>
        <time>2018-06-26T14:06:25Z</time>
      </trkpt>
      <trkpt lat="50.57441" lon="3.18242">
        <ele>-13.8</ele>
        <time>2018-06-26T14:06:29Z</time>
      </trkpt>
      <trkpt lat="50.57441" lon="3.18242">
        <ele>-14</ele>
        <time>2018-06-26T14:06:33Z</time>
      </trkpt>
      <trkpt lat="50.57441" lon="3.18242">
        <ele>-14</ele>
        <time>2018-06-26T14:06:37Z</time>
      </trkpt>
      <trkpt lat="50.57441" lon="3.18242">
        <ele>-14</ele>
        <time>2018-06-26T14:06:41Z</time>
      </trkpt>
      <trkpt lat="50.57441" lon="3.18242">
        <ele>-14</ele>
        <time>2018-06-26T14:06:45Z</time>
      </trkpt>
      <trkpt lat="50.57441" lon="3.18242">
        <ele>-14</ele>
        <time>2018-06-26T14:06:49Z</time>
      </trkpt>
      <trkpt lat="50.57441" lon="3.18242">
        <ele>-13.4</ele>
        <time>2018-06-26T14:06:53Z</time>
      </trkpt>
      <trkpt lat="50.57441" lon="3.18242">
        <ele>-14.2</ele>
        <time>2018-06-26T14:06:57Z</time>
      </trkpt>
      <trkpt lat="50.57441" lon="3.18242">
        <ele>-14</ele>
        <time>2018-06-26T14:07:01Z</time>
      </trkpt>
      <trkpt lat="50.57441" lon="3.18242">
        <ele>-14.2</ele>
        <time>2018-06-26T14:07:05Z</time>
      </trkpt>
      <trkpt lat="50.57441" lon="3.18242">
        <ele>-13.8</ele>
        <time>2018-06-26T14:07:09Z</time>
      </trkpt>
      <trkpt lat="50.57441" lon="3.18242">
        <ele>-13.8</ele>
        <time>2018-06-26T14:07:13Z</time>
      </trkpt>
      <trkpt lat="50.57441" lon="3.18242">
        <ele>-13.6</ele>
        <time>2018-06-26T14:07:17Z</time>
      </trkpt>
      <trkpt lat="50.57441" lon="3.18242">
        <ele>-13.4</ele>
        <time>2018-06-26T14:07:21Z</time>
      </trkpt>
      <trkpt lat="50.57441" lon="3.18242">
        <ele>-13.6</ele>
        <time>2018-06-26T14:07:25Z</time>
      </trkpt>
      <trkpt lat="50.57441" lon="3.18242">
        <ele>-13.8</ele>
        <time>2018-06-26T14:07:29Z</time>
      </trkpt>
      <trkpt lat="50.57441" lon="3.18242">
        <ele>-13.4</ele>
        <time>2018-06-26T14:07:33Z</time>
      </trkpt>
      <trkpt lat="50.57441" lon="3.18242">
        <ele>-13.8</ele>
        <time>2018-06-26T14:07:37Z</time>
      </trkpt>
      <trkpt lat="50.57441" lon="3.18242">
        <ele>-14</ele>
        <time>2018-06-26T14:07:41Z</time>
      </trkpt>
      <trkpt lat="50.57441" lon="3.18242">
        <ele>-13.8</ele>
        <time>2018-06-26T14:07:45Z</time>
      </trkpt>
      <trkpt lat="50.57441" lon="3.18242">
        <ele>-13.6</ele>
        <time>2018-06-26T14:07:49Z</time>
      </trkpt>
      <trkpt lat="50.57441" lon="3.18242">
        <ele>-13.8</ele>
        <time>2018-06-26T14:07:53Z</time>
      </trkpt>
      <trkpt lat="50.57441" lon="3.18242">
        <ele>-13.8</ele>
        <time>2018-06-26T14:07:57Z</time>
      </trkpt>
      <trkpt lat="50.57441" lon="3.18242">
        <ele>-13.8</ele>
        <time>2018-06-26T14:08:01Z</time>
      </trkpt>
      <trkpt lat="50.57441" lon="3.18242">
        <ele>-13.6</ele>
        <time>2018-06-26T14:08:05Z</time>
      </trkpt>
      <trkpt lat="50.57441" lon="3.18242">
        <ele>-13.6</ele>
        <time>2018-06-26T14:08:09Z</time>
      </trkpt>
      <trkpt lat="50.57441" lon="3.18242">
        <ele>-13.4</ele>
        <time>2018-06-26T14:08:13Z</time>
      </trkpt>
      <trkpt lat="50.57441" lon="3.18242">
        <ele>-13.6</ele>
        <time>2018-06-26T14:08:17Z</time>
      </trkpt>
      <trkpt lat="50.57441" lon="3.18242">
        <ele>-13.2</ele>
        <time>2018-06-26T14:08:21Z</time>
      </trkpt>
      <trkpt lat="50.57441" lon="3.18242">
        <ele>-13.4</ele>
        <time>2018-06-26T14:08:25Z</time>
      </trkpt>
      <trkpt lat="50.57441" lon="3.18242">
        <ele>-13.2</ele>
        <time>2018-06-26T14:08:29Z</time>
      </trkpt>
      <trkpt lat="50.57441" lon="3.18242">
        <ele>-13.4</ele>
        <time>2018-06-26T14:08:33Z</time>
      </trkpt>
      <trkpt lat="50.57441" lon="3.18242">
        <ele>-13.4</ele>
        <time>2018-06-26T14:08:37Z</time>
      </trkpt>
      <trkpt lat="50.57441" lon="3.18242">
        <ele>-13.4</ele>
        <time>2018-06-26T14:08:41Z</time>
      </trkpt>
      <trkpt lat="50.57441" lon="3.18242">
        <ele>-13.4</ele>
        <time>2018-06-26T14:08:45Z</time>
      </trkpt>
      <trkpt lat="50.57441" lon="3.18242">
        <ele>-13.4</ele>
        <time>2018-06-26T14:08:49Z</time>
      </trkpt>
      <trkpt lat="50.57441" lon="3.18242">
        <ele>-13.6</ele>
        <time>2018-06-26T14:08:53Z</time>
      </trkpt>
      <trkpt lat="50.57441" lon="3.18242">
        <ele>-13.6</ele>
        <time>2018-06-26T14:08:57Z</time>
      </trkpt>
      <trkpt lat="50.57441" lon="3.18242">
        <ele>-13.4</ele>
        <time>2018-06-26T14:09:01Z</time>
      </trkpt>
      <trkpt lat="50.57441" lon="3.18242">
        <ele>-13.4</ele>
        <time>2018-06-26T14:09:05Z</time>
      </trkpt>
      <trkpt lat="50.57441" lon="3.18242">
        <ele>-13.2</ele>
        <time>2018-06-26T14:09:09Z</time>
      </trkpt>
      <trkpt lat="50.57441" lon="3.18242">
        <ele>-13</ele>
        <time>2018-06-26T14:09:13Z</time>
      </trkpt>
      <trkpt lat="50.57441" lon="3.18242">
        <ele>-13.2</ele>
        <time>2018-06-26T14:09:17Z</time>
      </trkpt>
      <trkpt lat="50.57441" lon="3.18242">
        <ele>-13.4</ele>
        <time>2018-06-26T14:09:21Z</time>
      </trkpt>
      <trkpt lat="50.57441" lon="3.18242">
        <ele>-13.4</ele>
        <time>2018-06-26T14:09:25Z</time>
      </trkpt>
      <trkpt lat="50.57441" lon="3.18242">
        <ele>-13.4</ele>
        <time>2018-06-26T14:09:29Z</time>
      </trkpt>
      <trkpt lat="50.57441" lon="3.18242">
        <ele>-13.4</ele>
        <time>2018-06-26T14:09:33Z</time>
      </trkpt>
      <trkpt lat="50.57441" lon="3.18242">
        <ele>-13.4</ele>
        <time>2018-06-26T14:09:37Z</time>
      </trkpt>
      <trkpt lat="50.57441" lon="3.18242">
        <ele>-13.4</ele>
        <time>2018-06-26T14:09:41Z</time>
      </trkpt>
      <trkpt lat="50.57441" lon="3.18242">
        <ele>-13.4</ele>
        <time>2018-06-26T14:09:45Z</time>
      </trkpt>
      <trkpt lat="50.57441" lon="3.18242">
        <ele>-13.4</ele>
        <time>2018-06-26T14:09:49Z</time>
      </trkpt>
      <trkpt lat="50.57441" lon="3.18242">
        <ele>-13.6</ele>
        <time>2018-06-26T14:09:53Z</time>
      </trkpt>
      <trkpt lat="50.57441" lon="3.18242">
        <ele>-13.4</ele>
        <time>2018-06-26T14:09:57Z</time>
      </trkpt>
      <trkpt lat="50.57441" lon="3.18242">
        <ele>-13.4</ele>
        <time>2018-06-26T14:10:01Z</time>
      </trkpt>
      <trkpt lat="50.57441" lon="3.18242">
        <ele>-13.6</ele>
        <time>2018-06-26T14:10:05Z</time>
      </trkpt>
      <trkpt lat="50.57441" lon="3.18242">
        <ele>-14.2</ele>
        <time>2018-06-26T14:10:09Z</time>
      </trkpt>
      <trkpt lat="50.57441" lon="3.18242">
        <ele>-13.8</ele>
        <time>2018-06-26T14:10:13Z</time>
      </trkpt>
      <trkpt lat="50.57441" lon="3.18242">
        <ele>-13</ele>
        <time>2018-06-26T14:10:17Z</time>
      </trkpt>
      <trkpt lat="50.57441" lon="3.18242">
        <ele>-13.4</ele>
        <time>2018-06-26T14:10:21Z</time>
      </trkpt>
      <trkpt lat="50.57441" lon="3.18242">
        <ele>-13.4</ele>
        <time>2018-06-26T14:10:25Z</time>
      </trkpt>
      <trkpt lat="50.57441" lon="3.18242">
        <ele>-13.4</ele>
        <time>2018-06-26T14:10:29Z</time>
      </trkpt>
      <trkpt lat="50.57441" lon="3.18242">
        <ele>-13.6</ele>
        <time>2018-06-26T14:10:33Z</time>
      </trkpt>
      <trkpt lat="50.57441" lon="3.18242">
        <ele>-13.6</ele>
        <time>2018-06-26T14:10:37Z</time>
      </trkpt>
      <trkpt lat="50.57441" lon="3.18242">
        <ele>-14</ele>
        <time>2018-06-26T14:10:41Z</time>
      </trkpt>
      <trkpt lat="50.57441" lon="3.18242">
        <ele>-13.8</ele>
        <time>2018-06-26T14:10:45Z</time>
      </trkpt>
      <trkpt lat="50.57441" lon="3.18242">
        <ele>-13</ele>
        <time>2018-06-26T14:10:49Z</time>
      </trkpt>
      <trkpt lat="50.57441" lon="3.18242">
        <ele>-13.8</ele>
        <time>2018-06-26T14:10:53Z</time>
      </trkpt>
      <trkpt lat="50.57441" lon="3.18242">
        <ele>-13.6</ele>
        <time>2018-06-26T14:10:57Z</time>
      </trkpt>
      <trkpt lat="50.57441" lon="3.18242">
        <ele>-13</ele>
        <time>2018-06-26T14:11:01Z</time>
      </trkpt>
      <trkpt lat="50.57441" lon="3.18242">
        <ele>-13.4</ele>
        <time>2018-06-26T14:11:05Z</time>
      </trkpt>
      <trkpt lat="50.57441" lon="3.18242">
        <ele>-13.8</ele>
        <time>2018-06-26T14:11:09Z</time>
      </trkpt>
      <trkpt lat="50.57441" lon="3.18242">
        <ele>-13.4</ele>
        <time>2018-06-26T14:11:13Z</time>
      </trkpt>
      <trkpt lat="50.57441" lon="3.18242">
        <ele>-13.8</ele>
        <time>2018-06-26T14:11:17Z</time>
      </trkpt>
      <trkpt lat="50.57441" lon="3.18242">
        <ele>-13.4</ele>
        <time>2018-06-26T14:11:21Z</time>
      </trkpt>
      <trkpt lat="50.57441" lon="3.18242">
        <ele>-13.6</ele>
        <time>2018-06-26T14:11:25Z</time>
      </trkpt>
      <trkpt lat="50.57441" lon="3.18242">
        <ele>-13.2</ele>
        <time>2018-06-26T14:11:29Z</time>
      </trkpt>
      <trkpt lat="50.57441" lon="3.18242">
        <ele>-13.8</ele>
        <time>2018-06-26T14:11:33Z</time>
      </trkpt>
      <trkpt lat="50.57441" lon="3.18242">
        <ele>-13.6</ele>
        <time>2018-06-26T14:11:37Z</time>
      </trkpt>
      <trkpt lat="50.57441" lon="3.18242">
        <ele>-13.6</ele>
        <time>2018-06-26T14:11:41Z</time>
      </trkpt>
      <trkpt lat="50.57441" lon="3.18242">
        <ele>-13.4</ele>
        <time>2018-06-26T14:11:45Z</time>
      </trkpt>
      <trkpt lat="50.57441" lon="3.18242">
        <ele>-13.8</ele>
        <time>2018-06-26T14:11:49Z</time>
      </trkpt>
      <trkpt lat="50.57441" lon="3.18242">
        <ele>-13.4</ele>
        <time>2018-06-26T14:11:53Z</time>
      </trkpt>
      <trkpt lat="50.57441" lon="3.18242">
        <ele>-13.4</ele>
        <time>2018-06-26T14:11:57Z</time>
      </trkpt>
      <trkpt lat="50.57441" lon="3.18242">
        <ele>-13.2</ele>
        <time>2018-06-26T14:12:01Z</time>
      </trkpt>
      <trkpt lat="50.57441" lon="3.18242">
        <ele>-12.8</ele>
        <time>2018-06-26T14:12:05Z</time>
      </trkpt>
      <trkpt lat="50.57441" lon="3.18242">
        <ele>-13.2</ele>
        <time>2018-06-26T14:12:09Z</time>
      </trkpt>
      <trkpt lat="50.57441" lon="3.18242">
        <ele>-13</ele>
        <time>2018-06-26T14:12:13Z</time>
      </trkpt>
      <trkpt lat="50.57441" lon="3.18242">
        <ele>-13.4</ele>
        <time>2018-06-26T14:12:17Z</time>
      </trkpt>
      <trkpt lat="50.57441" lon="3.18242">
        <ele>-12.8</ele>
        <time>2018-06-26T14:12:21Z</time>
      </trkpt>
      <trkpt lat="50.57441" lon="3.18242">
        <ele>-13</ele>
        <time>2018-06-26T14:12:25Z</time>
      </trkpt>
      <trkpt lat="50.57441" lon="3.18242">
        <ele>-13.2</ele>
        <time>2018-06-26T14:12:29Z</time>
      </trkpt>
      <trkpt lat="50.57441" lon="3.18242">
        <ele>-13.2</ele>
        <time>2018-06-26T14:12:33Z</time>
      </trkpt>
      <trkpt lat="50.57441" lon="3.18242">
        <ele>-13.4</ele>
        <time>2018-06-26T14:12:37Z</time>
      </trkpt>
      <trkpt lat="50.57441" lon="3.18242">
        <ele>-13.4</ele>
        <time>2018-06-26T14:12:41Z</time>
      </trkpt>
      <trkpt lat="50.57441" lon="3.18242">
        <ele>-13</ele>
        <time>2018-06-26T14:12:45Z</time>
      </trkpt>
      <trkpt lat="50.57441" lon="3.18242">
        <ele>-13.4</ele>
        <time>2018-06-26T14:12:49Z</time>
      </trkpt>
      <trkpt lat="50.57441" lon="3.18242">
        <ele>-13.2</ele>
        <time>2018-06-26T14:12:53Z</time>
      </trkpt>
      <trkpt lat="50.57441" lon="3.18242">
        <ele>-13.4</ele>
        <time>2018-06-26T14:12:57Z</time>
      </trkpt>
      <trkpt lat="50.57441" lon="3.18242">
        <ele>-13.4</ele>
        <time>2018-06-26T14:13:01Z</time>
      </trkpt>
      <trkpt lat="50.57441" lon="3.18242">
        <ele>-13.2</ele>
        <time>2018-06-26T14:13:05Z</time>
      </trkpt>
      <trkpt lat="50.57441" lon="3.18242">
        <ele>-13.4</ele>
        <time>2018-06-26T14:13:09Z</time>
      </trkpt>
      <trkpt lat="50.57441" lon="3.18242">
        <ele>-13.6</ele>
        <time>2018-06-26T14:13:13Z</time>
      </trkpt>
      <trkpt lat="50.57441" lon="3.18242">
        <ele>-13.4</ele>
        <time>2018-06-26T14:13:17Z</time>
      </trkpt>
      <trkpt lat="50.57441" lon="3.18242">
        <ele>-13.4</ele>
        <time>2018-06-26T14:13:21Z</time>
      </trkpt>
      <trkpt lat="50.57441" lon="3.18242">
        <ele>-13.4</ele>
        <time>2018-06-26T14:13:25Z</time>
      </trkpt>
      <trkpt lat="50.57441" lon="3.18242">
        <ele>-13.4</ele>
        <time>2018-06-26T14:13:29Z</time>
      </trkpt>
      <trkpt lat="50.57441" lon="3.18242">
        <ele>-13.6</ele>
        <time>2018-06-26T14:13:33Z</time>
      </trkpt>
      <trkpt lat="50.57441" lon="3.18242">
        <ele>-13.2</ele>
        <time>2018-06-26T14:13:37Z</time>
      </trkpt>
      <trkpt lat="50.57441" lon="3.18242">
        <ele>-13.2</ele>
        <time>2018-06-26T14:13:41Z</time>
      </trkpt>
      <trkpt lat="50.57441" lon="3.18242">
        <ele>-13.6</ele>
        <time>2018-06-26T14:13:45Z</time>
      </trkpt>
      <trkpt lat="50.57441" lon="3.18242">
        <ele>-13.2</ele>
        <time>2018-06-26T14:13:49Z</time>
      </trkpt>
      <trkpt lat="50.57441" lon="3.18242">
        <ele>-13.4</ele>
        <time>2018-06-26T14:13:53Z</time>
      </trkpt>
      <trkpt lat="50.57441" lon="3.18242">
        <ele>-13.2</ele>
        <time>2018-06-26T14:13:57Z</time>
      </trkpt>
      <trkpt lat="50.57441" lon="3.18242">
        <ele>-13.4</ele>
        <time>2018-06-26T14:14:01Z</time>
      </trkpt>
      <trkpt lat="50.57441" lon="3.18242">
        <ele>-13.4</ele>
        <time>2018-06-26T14:14:05Z</time>
      </trkpt>
      <trkpt lat="50.57441" lon="3.18242">
        <ele>-13.4</ele>
        <time>2018-06-26T14:14:09Z</time>
      </trkpt>
      <trkpt lat="50.57441" lon="3.18242">
        <ele>-13</ele>
        <time>2018-06-26T14:14:13Z</time>
      </trkpt>
      <trkpt lat="50.57441" lon="3.18242">
        <ele>-13.2</ele>
        <time>2018-06-26T14:14:17Z</time>
      </trkpt>
      <trkpt lat="50.57441" lon="3.18242">
        <ele>-13.6</ele>
        <time>2018-06-26T14:14:21Z</time>
      </trkpt>
      <trkpt lat="50.57441" lon="3.18242">
        <ele>-13.4</ele>
        <time>2018-06-26T14:14:25Z</time>
      </trkpt>
      <trkpt lat="50.57441" lon="3.18242">
        <ele>-13.6</ele>
        <time>2018-06-26T14:14:29Z</time>
      </trkpt>
      <trkpt lat="50.57441" lon="3.18242">
        <ele>-13.4</ele>
        <time>2018-06-26T14:14:33Z</time>
      </trkpt>
      <trkpt lat="50.57441" lon="3.18242">
        <ele>-13.4</ele>
        <time>2018-06-26T14:14:37Z</time>
      </trkpt>
      <trkpt lat="50.57441" lon="3.18242">
        <ele>-13.4</ele>
        <time>2018-06-26T14:14:41Z</time>
      </trkpt>
      <trkpt lat="50.57441" lon="3.18242">
        <ele>-13.8</ele>
        <time>2018-06-26T14:14:45Z</time>
      </trkpt>
      <trkpt lat="50.57441" lon="3.18242">
        <ele>-14</ele>
        <time>2018-06-26T14:14:49Z</time>
      </trkpt>
      <trkpt lat="50.57441" lon="3.18242">
        <ele>-13.6</ele>
        <time>2018-06-26T14:14:53Z</time>
      </trkpt>
      <trkpt lat="50.57441" lon="3.18242">
        <ele>-13.2</ele>
        <time>2018-06-26T14:14:57Z</time>
      </trkpt>
      <trkpt lat="50.57441" lon="3.18242">
        <ele>-13.2</ele>
        <time>2018-06-26T14:15:01Z</time>
      </trkpt>
      <trkpt lat="50.57441" lon="3.18242">
        <ele>-13</ele>
        <time>2018-06-26T14:15:05Z</time>
      </trkpt>
      <trkpt lat="50.57441" lon="3.18242">
        <ele>-13.2</ele>
        <time>2018-06-26T14:15:09Z</time>
      </trkpt>
      <trkpt lat="50.57441" lon="3.18242">
        <ele>-13.2</ele>
        <time>2018-06-26T14:15:13Z</time>
      </trkpt>
      <trkpt lat="50.57441" lon="3.18242">
        <ele>-13.4</ele>
        <time>2018-06-26T14:15:17Z</time>
      </trkpt>
      <trkpt lat="50.57441" lon="3.18242">
        <ele>-13.2</ele>
        <time>2018-06-26T14:15:21Z</time>
      </trkpt>
      <trkpt lat="50.57441" lon="3.18242">
        <ele>-13.4</ele>
        <time>2018-06-26T14:15:25Z</time>
      </trkpt>
      <trkpt lat="50.57441" lon="3.18242">
        <ele>-13.2</ele>
        <time>2018-06-26T14:15:29Z</time>
      </trkpt>
      <trkpt lat="50.57441" lon="3.18242">
        <ele>-13.4</ele>
        <time>2018-06-26T14:15:33Z</time>
      </trkpt>
      <trkpt lat="50.57441" lon="3.18242">
        <ele>-13.4</ele>
        <time>2018-06-26T14:15:37Z</time>
      </trkpt>
      <trkpt lat="50.57441" lon="3.18242">
        <ele>-13.4</ele>
        <time>2018-06-26T14:15:41Z</time>
      </trkpt>
      <trkpt lat="50.57441" lon="3.18242">
        <ele>-13.4</ele>
        <time>2018-06-26T14:15:45Z</time>
      </trkpt>
      <trkpt lat="50.57441" lon="3.18242">
        <ele>-13.4</ele>
        <time>2018-06-26T14:15:49Z</time>
      </trkpt>
      <trkpt lat="50.57441" lon="3.18242">
        <ele>-13.2</ele>
        <time>2018-06-26T14:15:53Z</time>
      </trkpt>
      <trkpt lat="50.57441" lon="3.18242">
        <ele>-13.6</ele>
        <time>2018-06-26T14:15:57Z</time>
      </trkpt>
      <trkpt lat="50.57441" lon="3.18242">
        <ele>-13.2</ele>
        <time>2018-06-26T14:16:01Z</time>
      </trkpt>
      <trkpt lat="50.57441" lon="3.18242">
        <ele>-13.4</ele>
        <time>2018-06-26T14:16:05Z</time>
      </trkpt>
      <trkpt lat="50.57441" lon="3.18242">
        <ele>-13.2</ele>
        <time>2018-06-26T14:16:09Z</time>
      </trkpt>
      <trkpt lat="50.57441" lon="3.18242">
        <ele>-13</ele>
        <time>2018-06-26T14:16:13Z</time>
      </trkpt>
      <trkpt lat="50.57441" lon="3.18242">
        <ele>-12.8</ele>
        <time>2018-06-26T14:16:17Z</time>
      </trkpt>
      <trkpt lat="50.57441" lon="3.18242">
        <ele>-13.4</ele>
        <time>2018-06-26T14:16:21Z</time>
      </trkpt>
      <trkpt lat="50.57441" lon="3.18242">
        <ele>-13.2</ele>
        <time>2018-06-26T14:16:25Z</time>
      </trkpt>
      <trkpt lat="50.57441" lon="3.18242">
        <ele>-13.4</ele>
        <time>2018-06-26T14:16:29Z</time>
      </trkpt>
      <trkpt lat="50.57441" lon="3.18242">
        <ele>-13.2</ele>
        <time>2018-06-26T14:16:33Z</time>
      </trkpt>
      <trkpt lat="50.57441" lon="3.18242">
        <ele>-12.8</ele>
        <time>2018-06-26T14:16:37Z</time>
      </trkpt>
      <trkpt lat="50.57441" lon="3.18242">
        <ele>-13.2</ele>
        <time>2018-06-26T14:16:41Z</time>
      </trkpt>
      <trkpt lat="50.57441" lon="3.18242">
        <ele>-13</ele>
        <time>2018-06-26T14:16:45Z</time>
      </trkpt>
      <trkpt lat="50.57441" lon="3.18242">
        <ele>-13</ele>
        <time>2018-06-26T14:16:49Z</time>
      </trkpt>
      <trkpt lat="50.57441" lon="3.18242">
        <ele>-13.4</ele>
        <time>2018-06-26T14:16:53Z</time>
      </trkpt>
      <trkpt lat="50.57441" lon="3.18242">
        <ele>-13.6</ele>
        <time>2018-06-26T14:16:57Z</time>
      </trkpt>
      <trkpt lat="50.57441" lon="3.18242">
        <ele>-13.6</ele>
        <time>2018-06-26T14:17:01Z</time>
      </trkpt>
      <trkpt lat="50.57441" lon="3.18242">
        <ele>-13.4</ele>
        <time>2018-06-26T14:17:05Z</time>
      </trkpt>
      <trkpt lat="50.57441" lon="3.18242">
        <ele>-13.8</ele>
        <time>2018-06-26T14:17:09Z</time>
      </trkpt>
      <trkpt lat="50.57441" lon="3.18242">
        <ele>-13.6</ele>
        <time>2018-06-26T14:17:13Z</time>
      </trkpt>
      <trkpt lat="50.57441" lon="3.18242">
        <ele>-13.4</ele>
        <time>2018-06-26T14:17:17Z</time>
      </trkpt>
      <trkpt lat="50.57441" lon="3.18242">
        <ele>-13.4</ele>
        <time>2018-06-26T14:17:21Z</time>
      </trkpt>
      <trkpt lat="50.57441" lon="3.18242">
        <ele>-13.2</ele>
        <time>2018-06-26T14:17:25Z</time>
      </trkpt>
      <trkpt lat="50.57441" lon="3.18242">
        <ele>-13</ele>
        <time>2018-06-26T14:17:29Z</time>
      </trkpt>
      <trkpt lat="50.57441" lon="3.18242">
        <ele>-13.2</ele>
        <time>2018-06-26T14:17:33Z</time>
      </trkpt>
      <trkpt lat="50.57441" lon="3.18242">
        <ele>-13.6</ele>
        <time>2018-06-26T14:17:37Z</time>
      </trkpt>
      <trkpt lat="50.57441" lon="3.18242">
        <ele>-13.4</ele>
        <time>2018-06-26T14:17:41Z</time>
      </trkpt>
      <trkpt lat="50.57441" lon="3.18242">
        <ele>-13.2</ele>
        <time>2018-06-26T14:17:45Z</time>
      </trkpt>
      <trkpt lat="50.57441" lon="3.18242">
        <ele>-13.4</ele>
        <time>2018-06-26T14:17:49Z</time>
      </trkpt>
      <trkpt lat="50.57441" lon="3.18242">
        <ele>-13.2</ele>
        <time>2018-06-26T14:17:53Z</time>
      </trkpt>
      <trkpt lat="50.57441" lon="3.18242">
        <ele>-13</ele>
        <time>2018-06-26T14:17:57Z</time>
      </trkpt>
      <trkpt lat="50.57441" lon="3.18242">
        <ele>-12.8</ele>
        <time>2018-06-26T14:18:01Z</time>
      </trkpt>
      <trkpt lat="50.57441" lon="3.18242">
        <ele>-12.8</ele>
        <time>2018-06-26T14:18:05Z</time>
      </trkpt>
      <trkpt lat="50.57441" lon="3.18242">
        <ele>-12.8</ele>
        <time>2018-06-26T14:18:09Z</time>
      </trkpt>
      <trkpt lat="50.57441" lon="3.18242">
        <ele>-13</ele>
        <time>2018-06-26T14:18:13Z</time>
      </trkpt>
      <trkpt lat="50.57441" lon="3.18242">
        <ele>-13.2</ele>
        <time>2018-06-26T14:18:17Z</time>
      </trkpt>
      <trkpt lat="50.57441" lon="3.18242">
        <ele>-12.6</ele>
        <time>2018-06-26T14:18:21Z</time>
      </trkpt>
      <trkpt lat="50.57441" lon="3.18242">
        <ele>-12.8</ele>
        <time>2018-06-26T14:18:25Z</time>
      </trkpt>
      <trkpt lat="50.57441" lon="3.18242">
        <ele>-12.8</ele>
        <time>2018-06-26T14:18:29Z</time>
      </trkpt>
      <trkpt lat="50.57441" lon="3.18242">
        <ele>-13</ele>
        <time>2018-06-26T14:18:33Z</time>
      </trkpt>
      <trkpt lat="50.57441" lon="3.18242">
        <ele>-13</ele>
        <time>2018-06-26T14:18:37Z</time>
      </trkpt>
      <trkpt lat="50.57441" lon="3.18242">
        <ele>-12.6</ele>
        <time>2018-06-26T14:18:41Z</time>
      </trkpt>
      <trkpt lat="50.57441" lon="3.18242">
        <ele>-12.8</ele>
        <time>2018-06-26T14:18:45Z</time>
      </trkpt>
      <trkpt lat="50.57441" lon="3.18242">
        <ele>-12.8</ele>
        <time>2018-06-26T14:18:49Z</time>
      </trkpt>
      <trkpt lat="50.57441" lon="3.18242">
        <ele>-12.8</ele>
        <time>2018-06-26T14:18:53Z</time>
      </trkpt>
      <trkpt lat="50.57441" lon="3.18242">
        <ele>-13</ele>
        <time>2018-06-26T14:18:57Z</time>
      </trkpt>
      <trkpt lat="50.57441" lon="3.18242">
        <ele>-12.8</ele>
        <time>2018-06-26T14:19:01Z</time>
      </trkpt>
      <trkpt lat="50.57441" lon="3.18242">
        <ele>-13</ele>
        <time>2018-06-26T14:19:05Z</time>
      </trkpt>
      <trkpt lat="50.57441" lon="3.18242">
        <ele>-13</ele>
        <time>2018-06-26T14:19:09Z</time>
      </trkpt>
      <trkpt lat="50.57441" lon="3.18242">
        <ele>-13</ele>
        <time>2018-06-26T14:19:13Z</time>
      </trkpt>
      <trkpt lat="50.57441" lon="3.18242">
        <ele>-13</ele>
        <time>2018-06-26T14:19:17Z</time>
      </trkpt>
      <trkpt lat="50.57441" lon="3.18242">
        <ele>-13.4</ele>
        <time>2018-06-26T14:19:21Z</time>
      </trkpt>
      <trkpt lat="50.57441" lon="3.18242">
        <ele>-13</ele>
        <time>2018-06-26T14:19:25Z</time>
      </trkpt>
      <trkpt lat="50.57441" lon="3.18242">
        <ele>-12.8</ele>
        <time>2018-06-26T14:19:29Z</time>
      </trkpt>
      <trkpt lat="50.57441" lon="3.18242">
        <ele>-12.8</ele>
        <time>2018-06-26T14:19:33Z</time>
      </trkpt>
      <trkpt lat="50.57441" lon="3.18242">
        <ele>-13</ele>
        <time>2018-06-26T14:19:37Z</time>
      </trkpt>
      <trkpt lat="50.57441" lon="3.18242">
        <ele>-13.4</ele>
        <time>2018-06-26T14:19:41Z</time>
      </trkpt>
      <trkpt lat="50.57441" lon="3.18242">
        <ele>-13</ele>
        <time>2018-06-26T14:19:45Z</time>
      </trkpt>
      <trkpt lat="50.57441" lon="3.18242">
        <ele>-13.2</ele>
        <time>2018-06-26T14:19:49Z</time>
      </trkpt>
      <trkpt lat="50.57441" lon="3.18242">
        <ele>-13.2</ele>
        <time>2018-06-26T14:19:53Z</time>
      </trkpt>
      <trkpt lat="50.57441" lon="3.18242">
        <ele>-13.4</ele>
        <time>2018-06-26T14:19:57Z</time>
      </trkpt>
      <trkpt lat="50.57441" lon="3.18242">
        <ele>-13.2</ele>
        <time>2018-06-26T14:20:01Z</time>
      </trkpt>
      <trkpt lat="50.57441" lon="3.18242">
        <ele>-12.8</ele>
        <time>2018-06-26T14:20:05Z</time>
      </trkpt>
      <trkpt lat="50.57441" lon="3.18242">
        <ele>-12.8</ele>
        <time>2018-06-26T14:20:09Z</time>
      </trkpt>
      <trkpt lat="50.57441" lon="3.18242">
        <ele>-13</ele>
        <time>2018-06-26T14:20:13Z</time>
      </trkpt>
      <trkpt lat="50.57441" lon="3.18242">
        <ele>-13.2</ele>
        <time>2018-06-26T14:20:17Z</time>
      </trkpt>
      <trkpt lat="50.57441" lon="3.18242">
        <ele>-13</ele>
        <time>2018-06-26T14:20:21Z</time>
      </trkpt>
      <trkpt lat="50.57441" lon="3.18242">
        <ele>-12.8</ele>
        <time>2018-06-26T14:20:25Z</time>
      </trkpt>
      <trkpt lat="50.57441" lon="3.18242">
        <ele>-12.8</ele>
        <time>2018-06-26T14:20:29Z</time>
      </trkpt>
      <trkpt lat="50.57441" lon="3.18242">
        <ele>-13.2</ele>
        <time>2018-06-26T14:20:33Z</time>
      </trkpt>
      <trkpt lat="50.57441" lon="3.18242">
        <ele>-13</ele>
        <time>2018-06-26T14:20:37Z</time>
      </trkpt>
      <trkpt lat="50.57441" lon="3.18242">
        <ele>-13</ele>
        <time>2018-06-26T14:20:41Z</time>
      </trkpt>
      <trkpt lat="50.57441" lon="3.18242">
        <ele>-12.6</ele>
        <time>2018-06-26T14:20:45Z</time>
      </trkpt>
      <trkpt lat="50.57441" lon="3.18242">
        <ele>-13</ele>
        <time>2018-06-26T14:20:49Z</time>
      </trkpt>
      <trkpt lat="50.57441" lon="3.18242">
        <ele>-12.8</ele>
        <time>2018-06-26T14:20:53Z</time>
      </trkpt>
      <trkpt lat="50.57441" lon="3.18242">
        <ele>-12.8</ele>
        <time>2018-06-26T14:20:57Z</time>
      </trkpt>
      <trkpt lat="50.57441" lon="3.18242">
        <ele>-13</ele>
        <time>2018-06-26T14:21:01Z</time>
      </trkpt>
      <trkpt lat="50.57441" lon="3.18242">
        <ele>-13</ele>
        <time>2018-06-26T14:21:05Z</time>
      </trkpt>
      <trkpt lat="50.57441" lon="3.18242">
        <ele>-13</ele>
        <time>2018-06-26T14:21:09Z</time>
      </trkpt>
      <trkpt lat="50.57441" lon="3.18242">
        <ele>-12.8</ele>
        <time>2018-06-26T14:21:13Z</time>
      </trkpt>
      <trkpt lat="50.57441" lon="3.18242">
        <ele>-12.6</ele>
        <time>2018-06-26T14:21:17Z</time>
      </trkpt>
      <trkpt lat="50.57441" lon="3.18242">
        <ele>-12.8</ele>
        <time>2018-06-26T14:21:21Z</time>
      </trkpt>
      <trkpt lat="50.57441" lon="3.18242">
        <ele>-12.8</ele>
        <time>2018-06-26T14:21:25Z</time>
      </trkpt>
      <trkpt lat="50.57441" lon="3.18242">
        <ele>-13</ele>
        <time>2018-06-26T14:21:29Z</time>
      </trkpt>
      <trkpt lat="50.57441" lon="3.18242">
        <ele>-12.8</ele>
        <time>2018-06-26T14:21:33Z</time>
      </trkpt>
      <trkpt lat="50.57441" lon="3.18242">
        <ele>-12.4</ele>
        <time>2018-06-26T14:21:37Z</time>
      </trkpt>
      <trkpt lat="50.57441" lon="3.18242">
        <ele>-13</ele>
        <time>2018-06-26T14:21:41Z</time>
      </trkpt>
      <trkpt lat="50.57441" lon="3.18242">
        <ele>-13</ele>
        <time>2018-06-26T14:21:45Z</time>
      </trkpt>
      <trkpt lat="50.57441" lon="3.18242">
        <ele>-12.8</ele>
        <time>2018-06-26T14:21:49Z</time>
      </trkpt>
      <trkpt lat="50.57441" lon="3.18242">
        <ele>-12.6</ele>
        <time>2018-06-26T14:21:53Z</time>
      </trkpt>
      <trkpt lat="50.57441" lon="3.18242">
        <ele>-13</ele>
        <time>2018-06-26T14:21:57Z</time>
      </trkpt>
      <trkpt lat="50.57441" lon="3.18242">
        <ele>-13</ele>
        <time>2018-06-26T14:22:01Z</time>
      </trkpt>
      <trkpt lat="50.57441" lon="3.18242">
        <ele>-12.8</ele>
        <time>2018-06-26T14:22:05Z</time>
      </trkpt>
      <trkpt lat="50.57441" lon="3.18242">
        <ele>-12.6</ele>
        <time>2018-06-26T14:22:09Z</time>
      </trkpt>
      <trkpt lat="50.57441" lon="3.18242">
        <ele>-13</ele>
        <time>2018-06-26T14:22:13Z</time>
      </trkpt>
      <trkpt lat="50.57441" lon="3.18242">
        <ele>-12.6</ele>
        <time>2018-06-26T14:22:17Z</time>
      </trkpt>
      <trkpt lat="50.57441" lon="3.18242">
        <ele>-12.6</ele>
        <time>2018-06-26T14:22:21Z</time>
      </trkpt>
      <trkpt lat="50.57441" lon="3.18242">
        <ele>-13.2</ele>
        <time>2018-06-26T14:22:25Z</time>
      </trkpt>
      <trkpt lat="50.57441" lon="3.18242">
        <ele>-12.6</ele>
        <time>2018-06-26T14:22:29Z</time>
      </trkpt>
      <trkpt lat="50.57441" lon="3.18242">
        <ele>-12.6</ele>
        <time>2018-06-26T14:22:33Z</time>
      </trkpt>
      <trkpt lat="50.57441" lon="3.18242">
        <ele>-12.6</ele>
        <time>2018-06-26T14:22:37Z</time>
      </trkpt>
      <trkpt lat="50.57441" lon="3.18242">
        <ele>-13.2</ele>
        <time>2018-06-26T14:22:41Z</time>
      </trkpt>
      <trkpt lat="50.57441" lon="3.18242">
        <ele>-13.2</ele>
        <time>2018-06-26T14:22:45Z</time>
      </trkpt>
      <trkpt lat="50.57441" lon="3.18242">
        <ele>-13.4</ele>
        <time>2018-06-26T14:22:49Z</time>
      </trkpt>
      <trkpt lat="50.57441" lon="3.18242">
        <ele>-12.8</ele>
        <time>2018-06-26T14:22:53Z</time>
      </trkpt>
      <trkpt lat="50.57441" lon="3.18242">
        <ele>-13.4</ele>
        <time>2018-06-26T14:22:57Z</time>
      </trkpt>
      <trkpt lat="50.57441" lon="3.18242">
        <ele>-13.4</ele>
        <time>2018-06-26T14:23:01Z</time>
      </trkpt>
      <trkpt lat="50.57441" lon="3.18242">
        <ele>-13</ele>
        <time>2018-06-26T14:23:05Z</time>
      </trkpt>
      <trkpt lat="50.57441" lon="3.18242">
        <ele>-13.2</ele>
        <time>2018-06-26T14:23:09Z</time>
      </trkpt>
      <trkpt lat="50.57441" lon="3.18242">
        <ele>-13.2</ele>
        <time>2018-06-26T14:23:13Z</time>
      </trkpt>
      <trkpt lat="50.57441" lon="3.18242">
        <ele>-12.8</ele>
        <time>2018-06-26T14:23:17Z</time>
      </trkpt>
      <trkpt lat="50.57441" lon="3.18242">
        <ele>-13</ele>
        <time>2018-06-26T14:23:21Z</time>
      </trkpt>
      <trkpt lat="50.57441" lon="3.18242">
        <ele>-13.2</ele>
        <time>2018-06-26T14:23:25Z</time>
      </trkpt>
      <trkpt lat="50.57441" lon="3.18242">
        <ele>-13.4</ele>
        <time>2018-06-26T14:23:29Z</time>
      </trkpt>
      <trkpt lat="50.57441" lon="3.18242">
        <ele>-13.2</ele>
        <time>2018-06-26T14:23:33Z</time>
      </trkpt>
      <trkpt lat="50.57441" lon="3.18242">
        <ele>-13.4</ele>
        <time>2018-06-26T14:23:37Z</time>
      </trkpt>
      <trkpt lat="50.57441" lon="3.18242">
        <ele>-12.8</ele>
        <time>2018-06-26T14:23:41Z</time>
      </trkpt>
      <trkpt lat="50.57441" lon="3.18242">
        <ele>-13</ele>
        <time>2018-06-26T14:23:45Z</time>
      </trkpt>
      <trkpt lat="50.57441" lon="3.18242">
        <ele>-12.6</ele>
        <time>2018-06-26T14:23:49Z</time>
      </trkpt>
      <trkpt lat="50.57441" lon="3.18242">
        <ele>-12.6</ele>
        <time>2018-06-26T14:23:53Z</time>
      </trkpt>
      <trkpt lat="50.57441" lon="3.18242">
        <ele>-12.8</ele>
        <time>2018-06-26T14:23:57Z</time>
      </trkpt>
      <trkpt lat="50.57441" lon="3.18242">
        <ele>-12.6</ele>
        <time>2018-06-26T14:24:01Z</time>
      </trkpt>
      <trkpt lat="50.57441" lon="3.18242">
        <ele>-12.6</ele>
        <time>2018-06-26T14:24:05Z</time>
      </trkpt>
      <trkpt lat="50.57441" lon="3.18242">
        <ele>-12.6</ele>
        <time>2018-06-26T14:24:09Z</time>
      </trkpt>
      <trkpt lat="50.57441" lon="3.18242">
        <ele>-12.4</ele>
        <time>2018-06-26T14:24:13Z</time>
      </trkpt>
      <trkpt lat="50.57441" lon="3.18242">
        <ele>-12</ele>
        <time>2018-06-26T14:24:17Z</time>
      </trkpt>
      <trkpt lat="50.57441" lon="3.18242">
        <ele>-12.6</ele>
        <time>2018-06-26T14:24:21Z</time>
      </trkpt>
      <trkpt lat="50.57441" lon="3.18242">
        <ele>-12.6</ele>
        <time>2018-06-26T14:24:25Z</time>
      </trkpt>
      <trkpt lat="50.57441" lon="3.18242">
        <ele>-12.8</ele>
        <time>2018-06-26T14:24:29Z</time>
      </trkpt>
      <trkpt lat="50.57441" lon="3.18242">
        <ele>-12.8</ele>
        <time>2018-06-26T14:24:33Z</time>
      </trkpt>
      <trkpt lat="50.57441" lon="3.18242">
        <ele>-13</ele>
        <time>2018-06-26T14:24:37Z</time>
      </trkpt>
      <trkpt lat="50.57441" lon="3.18242">
        <ele>-12.8</ele>
        <time>2018-06-26T14:24:41Z</time>
      </trkpt>
      <trkpt lat="50.57441" lon="3.18242">
        <ele>-12.6</ele>
        <time>2018-06-26T14:24:45Z</time>
      </trkpt>
      <trkpt lat="50.57441" lon="3.18242">
        <ele>-12.8</ele>
        <time>2018-06-26T14:24:49Z</time>
      </trkpt>
      <trkpt lat="50.57441" lon="3.18242">
        <ele>-12.6</ele>
        <time>2018-06-26T14:24:53Z</time>
      </trkpt>
      <trkpt lat="50.57441" lon="3.18242">
        <ele>-12.6</ele>
        <time>2018-06-26T14:24:57Z</time>
      </trkpt>
      <trkpt lat="50.57441" lon="3.18242">
        <ele>-13</ele>
        <time>2018-06-26T14:25:01Z</time>
      </trkpt>
      <trkpt lat="50.57441" lon="3.18242">
        <ele>-12.8</ele>
        <time>2018-06-26T14:25:05Z</time>
      </trkpt>
      <trkpt lat="50.57441" lon="3.18242">
        <ele>-13</ele>
        <time>2018-06-26T14:25:09Z</time>
      </trkpt>
      <trkpt lat="50.57441" lon="3.18242">
        <ele>-12.6</ele>
        <time>2018-06-26T14:25:13Z</time>
      </trkpt>
      <trkpt lat="50.57441" lon="3.18242">
        <ele>-12.8</ele>
        <time>2018-06-26T14:25:17Z</time>
      </trkpt>
      <trkpt lat="50.57441" lon="3.18242">
        <ele>-13</ele>
        <time>2018-06-26T14:25:21Z</time>
      </trkpt>
      <trkpt lat="50.57441" lon="3.18242">
        <ele>-12.2</ele>
        <time>2018-06-26T14:25:25Z</time>
      </trkpt>
      <trkpt lat="50.57441" lon="3.18242">
        <ele>-12.8</ele>
        <time>2018-06-26T14:25:29Z</time>
      </trkpt>
      <trkpt lat="50.57441" lon="3.18242">
        <ele>-12.4</ele>
        <time>2018-06-26T14:25:33Z</time>
      </trkpt>
      <trkpt lat="50.57441" lon="3.18242">
        <ele>-12.8</ele>
        <time>2018-06-26T14:25:37Z</time>
      </trkpt>
      <trkpt lat="50.57441" lon="3.18242">
        <ele>-12.8</ele>
        <time>2018-06-26T14:25:41Z</time>
      </trkpt>
      <trkpt lat="50.57441" lon="3.18242">
        <ele>-12.6</ele>
        <time>2018-06-26T14:25:45Z</time>
      </trkpt>
      <trkpt lat="50.57441" lon="3.18242">
        <ele>-12.8</ele>
        <time>2018-06-26T14:25:49Z</time>
      </trkpt>
      <trkpt lat="50.57441" lon="3.18242">
        <ele>-12.8</ele>
        <time>2018-06-26T14:25:53Z</time>
      </trkpt>
      <trkpt lat="50.57441" lon="3.18242">
        <ele>-13</ele>
        <time>2018-06-26T14:25:57Z</time>
      </trkpt>
      <trkpt lat="50.57441" lon="3.18242">
        <ele>-12.8</ele>
        <time>2018-06-26T14:26:01Z</time>
      </trkpt>
      <trkpt lat="50.57441" lon="3.18242">
        <ele>-12.8</ele>
        <time>2018-06-26T14:26:05Z</time>
      </trkpt>
      <trkpt lat="50.57441" lon="3.18242">
        <ele>-13</ele>
        <time>2018-06-26T14:26:09Z</time>
      </trkpt>
      <trkpt lat="50.57441" lon="3.18242">
        <ele>-12.4</ele>
        <time>2018-06-26T14:26:13Z</time>
      </trkpt>
      <trkpt lat="50.57441" lon="3.18242">
        <ele>-12.8</ele>
        <time>2018-06-26T14:26:17Z</time>
      </trkpt>
      <trkpt lat="50.57441" lon="3.18242">
        <ele>-13</ele>
        <time>2018-06-26T14:26:21Z</time>
      </trkpt>
      <trkpt lat="50.57441" lon="3.18242">
        <ele>-12.8</ele>
        <time>2018-06-26T14:26:25Z</time>
      </trkpt>
      <trkpt lat="50.57441" lon="3.18242">
        <ele>-12.8</ele>
        <time>2018-06-26T14:26:29Z</time>
      </trkpt>
      <trkpt lat="50.57441" lon="3.18242">
        <ele>-12.8</ele>
        <time>2018-06-26T14:26:33Z</time>
      </trkpt>
      <trkpt lat="50.57441" lon="3.18242">
        <ele>-13</ele>
        <time>2018-06-26T14:26:37Z</time>
      </trkpt>
      <trkpt lat="50.57441" lon="3.18242">
        <ele>-13</ele>
        <time>2018-06-26T14:26:41Z</time>
      </trkpt>
      <trkpt lat="50.57441" lon="3.18242">
        <ele>-13</ele>
        <time>2018-06-26T14:26:45Z</time>
      </trkpt>
      <trkpt lat="50.57441" lon="3.18242">
        <ele>-13</ele>
        <time>2018-06-26T14:26:49Z</time>
      </trkpt>
      <trkpt lat="50.57441" lon="3.18242">
        <ele>-12.8</ele>
        <time>2018-06-26T14:26:53Z</time>
      </trkpt>
      <trkpt lat="50.57441" lon="3.18242">
        <ele>-13</ele>
        <time>2018-06-26T14:26:57Z</time>
      </trkpt>
      <trkpt lat="50.57441" lon="3.18242">
        <ele>-13</ele>
        <time>2018-06-26T14:27:01Z</time>
      </trkpt>
      <trkpt lat="50.57441" lon="3.18242">
        <ele>-12.6</ele>
        <time>2018-06-26T14:27:05Z</time>
      </trkpt>
      <trkpt lat="50.57441" lon="3.18242">
        <ele>-12.2</ele>
        <time>2018-06-26T14:27:09Z</time>
      </trkpt>
      <trkpt lat="50.57441" lon="3.18242">
        <ele>-12.6</ele>
        <time>2018-06-26T14:27:13Z</time>
      </trkpt>
      <trkpt lat="50.57441" lon="3.18242">
        <ele>-12.6</ele>
        <time>2018-06-26T14:27:17Z</time>
      </trkpt>
      <trkpt lat="50.57441" lon="3.18242">
        <ele>-12.6</ele>
        <time>2018-06-26T14:27:21Z</time>
      </trkpt>
      <trkpt lat="50.57441" lon="3.18242">
        <ele>-12.8</ele>
        <time>2018-06-26T14:27:25Z</time>
      </trkpt>
      <trkpt lat="50.57441" lon="3.18242">
        <ele>-12.8</ele>
        <time>2018-06-26T14:27:29Z</time>
      </trkpt>
      <trkpt lat="50.57441" lon="3.18242">
        <ele>-12.6</ele>
        <time>2018-06-26T14:27:33Z</time>
      </trkpt>
      <trkpt lat="50.57441" lon="3.18242">
        <ele>-12.8</ele>
        <time>2018-06-26T14:27:37Z</time>
      </trkpt>
      <trkpt lat="50.57441" lon="3.18242">
        <ele>-12.8</ele>
        <time>2018-06-26T14:27:41Z</time>
      </trkpt>
      <trkpt lat="50.57441" lon="3.18242">
        <ele>-13</ele>
        <time>2018-06-26T14:27:45Z</time>
      </trkpt>
      <trkpt lat="50.57441" lon="3.18242">
        <ele>-12.6</ele>
        <time>2018-06-26T14:27:49Z</time>
      </trkpt>
      <trkpt lat="50.57441" lon="3.18242">
        <ele>-13</ele>
        <time>2018-06-26T14:27:53Z</time>
      </trkpt>
      <trkpt lat="50.57441" lon="3.18242">
        <ele>-13</ele>
        <time>2018-06-26T14:27:57Z</time>
      </trkpt>
      <trkpt lat="50.57441" lon="3.18242">
        <ele>-12.6</ele>
        <time>2018-06-26T14:28:01Z</time>
      </trkpt>
      <trkpt lat="50.57441" lon="3.18242">
        <ele>-12.8</ele>
        <time>2018-06-26T14:28:05Z</time>
      </trkpt>
      <trkpt lat="50.57441" lon="3.18242">
        <ele>-12.6</ele>
        <time>2018-06-26T14:28:09Z</time>
      </trkpt>
      <trkpt lat="50.57441" lon="3.18242">
        <ele>-12.2</ele>
        <time>2018-06-26T14:28:13Z</time>
      </trkpt>
      <trkpt lat="50.57441" lon="3.18242">
        <ele>-12.6</ele>
        <time>2018-06-26T14:28:17Z</time>
      </trkpt>
      <trkpt lat="50.57441" lon="3.18242">
        <ele>-12.2</ele>
        <time>2018-06-26T14:28:21Z</time>
      </trkpt>
      <trkpt lat="50.57441" lon="3.18242">
        <ele>-12.4</ele>
        <time>2018-06-26T14:28:25Z</time>
      </trkpt>
      <trkpt lat="50.57441" lon="3.18242">
        <ele>-12.2</ele>
        <time>2018-06-26T14:28:29Z</time>
      </trkpt>
      <trkpt lat="50.57441" lon="3.18242">
        <ele>-12.2</ele>
        <time>2018-06-26T14:28:33Z</time>
      </trkpt>
      <trkpt lat="50.57441" lon="3.18242">
        <ele>-12.8</ele>
        <time>2018-06-26T14:28:37Z</time>
      </trkpt>
      <trkpt lat="50.57441" lon="3.18242">
        <ele>-12.4</ele>
        <time>2018-06-26T14:28:41Z</time>
      </trkpt>
      <trkpt lat="50.57441" lon="3.18242">
        <ele>-12</ele>
        <time>2018-06-26T14:28:45Z</time>
      </trkpt>
      <trkpt lat="50.57441" lon="3.18242">
        <ele>-12.4</ele>
        <time>2018-06-26T14:28:49Z</time>
      </trkpt>
      <trkpt lat="50.57441" lon="3.18242">
        <ele>-12.6</ele>
        <time>2018-06-26T14:28:53Z</time>
      </trkpt>
      <trkpt lat="50.57441" lon="3.18242">
        <ele>-12.6</ele>
        <time>2018-06-26T14:28:57Z</time>
      </trkpt>
      <trkpt lat="50.57441" lon="3.18242">
        <ele>-12.6</ele>
        <time>2018-06-26T14:29:01Z</time>
      </trkpt>
      <trkpt lat="50.57441" lon="3.18242">
        <ele>-12.2</ele>
        <time>2018-06-26T14:29:05Z</time>
      </trkpt>
      <trkpt lat="50.57441" lon="3.18242">
        <ele>-12.8</ele>
        <time>2018-06-26T14:29:09Z</time>
      </trkpt>
      <trkpt lat="50.57441" lon="3.18242">
        <ele>-12.6</ele>
        <time>2018-06-26T14:29:13Z</time>
      </trkpt>
      <trkpt lat="50.57441" lon="3.18242">
        <ele>-12.4</ele>
        <time>2018-06-26T14:29:17Z</time>
      </trkpt>
      <trkpt lat="50.57441" lon="3.18242">
        <ele>-12.4</ele>
        <time>2018-06-26T14:29:21Z</time>
      </trkpt>
      <trkpt lat="50.57441" lon="3.18242">
        <ele>-12.6</ele>
        <time>2018-06-26T14:29:25Z</time>
      </trkpt>
      <trkpt lat="50.57441" lon="3.18242">
        <ele>-12.8</ele>
        <time>2018-06-26T14:29:29Z</time>
      </trkpt>
      <trkpt lat="50.57441" lon="3.18242">
        <ele>-12.6</ele>
        <time>2018-06-26T14:29:33Z</time>
      </trkpt>
      <trkpt lat="50.57441" lon="3.18242">
        <ele>-12.6</ele>
        <time>2018-06-26T14:29:37Z</time>
      </trkpt>
      <trkpt lat="50.57441" lon="3.18242">
        <ele>-12.6</ele>
        <time>2018-06-26T14:29:41Z</time>
      </trkpt>
      <trkpt lat="50.57441" lon="3.18242">
        <ele>-12.6</ele>
        <time>2018-06-26T14:29:45Z</time>
      </trkpt>
      <trkpt lat="50.57441" lon="3.18242">
        <ele>-12.6</ele>
        <time>2018-06-26T14:29:49Z</time>
      </trkpt>
      <trkpt lat="50.57441" lon="3.18242">
        <ele>-12.6</ele>
        <time>2018-06-26T14:29:53Z</time>
      </trkpt>
      <trkpt lat="50.57441" lon="3.18242">
        <ele>-12.6</ele>
        <time>2018-06-26T14:29:57Z</time>
      </trkpt>
      <trkpt lat="50.57441" lon="3.18242">
        <ele>-12.8</ele>
        <time>2018-06-26T14:30:01Z</time>
      </trkpt>
      <trkpt lat="50.57441" lon="3.18242">
        <ele>-12.4</ele>
        <time>2018-06-26T14:30:05Z</time>
      </trkpt>
      <trkpt lat="50.57441" lon="3.18242">
        <ele>-12</ele>
        <time>2018-06-26T14:30:09Z</time>
      </trkpt>
      <trkpt lat="50.57441" lon="3.18242">
        <ele>-12</ele>
        <time>2018-06-26T14:30:13Z</time>
      </trkpt>
      <trkpt lat="50.57441" lon="3.18242">
        <ele>-12</ele>
        <time>2018-06-26T14:30:17Z</time>
      </trkpt>
      <trkpt lat="50.57441" lon="3.18242">
        <ele>-12.4</ele>
        <time>2018-06-26T14:30:21Z</time>
      </trkpt>
      <trkpt lat="50.57441" lon="3.18242">
        <ele>-12.4</ele>
        <time>2018-06-26T14:30:25Z</time>
      </trkpt>
      <trkpt lat="50.57441" lon="3.18242">
        <ele>-12.8</ele>
        <time>2018-06-26T14:30:29Z</time>
      </trkpt>
      <trkpt lat="50.57441" lon="3.18242">
        <ele>-12.4</ele>
        <time>2018-06-26T14:30:33Z</time>
      </trkpt>
      <trkpt lat="50.57441" lon="3.18242">
        <ele>-12.2</ele>
        <time>2018-06-26T14:30:37Z</time>
      </trkpt>
      <trkpt lat="50.57441" lon="3.18242">
        <ele>-12.2</ele>
        <time>2018-06-26T14:30:41Z</time>
      </trkpt>
      <trkpt lat="50.57441" lon="3.18242">
        <ele>-12.2</ele>
        <time>2018-06-26T14:30:45Z</time>
      </trkpt>
      <trkpt lat="50.57441" lon="3.18242">
        <ele>-12.4</ele>
        <time>2018-06-26T14:30:49Z</time>
      </trkpt>
      <trkpt lat="50.57441" lon="3.18242">
        <ele>-12.2</ele>
        <time>2018-06-26T14:30:53Z</time>
      </trkpt>
      <trkpt lat="50.57441" lon="3.18242">
        <ele>-12.4</ele>
        <time>2018-06-26T14:30:57Z</time>
      </trkpt>
      <trkpt lat="50.57441" lon="3.18242">
        <ele>-12.2</ele>
        <time>2018-06-26T14:31:01Z</time>
      </trkpt>
      <trkpt lat="50.57441" lon="3.18242">
        <ele>-12.6</ele>
        <time>2018-06-26T14:31:05Z</time>
      </trkpt>
      <trkpt lat="50.57441" lon="3.18242">
        <ele>-12.6</ele>
        <time>2018-06-26T14:31:09Z</time>
      </trkpt>
      <trkpt lat="50.57441" lon="3.18242">
        <ele>-12.6</ele>
        <time>2018-06-26T14:31:13Z</time>
      </trkpt>
      <trkpt lat="50.57441" lon="3.18242">
        <ele>-12.6</ele>
        <time>2018-06-26T14:31:17Z</time>
      </trkpt>
      <trkpt lat="50.57441" lon="3.18242">
        <ele>-12.2</ele>
        <time>2018-06-26T14:31:21Z</time>
      </trkpt>
      <trkpt lat="50.57441" lon="3.18242">
        <ele>-12.6</ele>
        <time>2018-06-26T14:31:25Z</time>
      </trkpt>
      <trkpt lat="50.57441" lon="3.18242">
        <ele>-12.2</ele>
        <time>2018-06-26T14:31:29Z</time>
      </trkpt>
      <trkpt lat="50.57441" lon="3.18242">
        <ele>-12.2</ele>
        <time>2018-06-26T14:31:33Z</time>
      </trkpt>
      <trkpt lat="50.57441" lon="3.18242">
        <ele>-12.4</ele>
        <time>2018-06-26T14:31:37Z</time>
      </trkpt>
      <trkpt lat="50.57441" lon="3.18242">
        <ele>-12.6</ele>
        <time>2018-06-26T14:31:41Z</time>
      </trkpt>
      <trkpt lat="50.57441" lon="3.18242">
        <ele>-12.8</ele>
        <time>2018-06-26T14:31:45Z</time>
      </trkpt>
      <trkpt lat="50.57441" lon="3.18242">
        <ele>-12.6</ele>
        <time>2018-06-26T14:31:49Z</time>
      </trkpt>
      <trkpt lat="50.57441" lon="3.18242">
        <ele>-12.6</ele>
        <time>2018-06-26T14:31:53Z</time>
      </trkpt>
      <trkpt lat="50.57441" lon="3.18242">
        <ele>-13</ele>
        <time>2018-06-26T14:31:57Z</time>
      </trkpt>
      <trkpt lat="50.57441" lon="3.18242">
        <ele>-12.8</ele>
        <time>2018-06-26T14:32:01Z</time>
      </trkpt>
      <trkpt lat="50.57441" lon="3.18242">
        <ele>-13</ele>
        <time>2018-06-26T14:32:05Z</time>
      </trkpt>
      <trkpt lat="50.57441" lon="3.18242">
        <ele>-13</ele>
        <time>2018-06-26T14:32:09Z</time>
      </trkpt>
      <trkpt lat="50.57441" lon="3.18242">
        <ele>-13</ele>
        <time>2018-06-26T14:32:13Z</time>
      </trkpt>
      <trkpt lat="50.57441" lon="3.18242">
        <ele>-12</ele>
        <time>2018-06-26T14:32:17Z</time>
      </trkpt>
      <trkpt lat="50.57441" lon="3.18242">
        <ele>-12.8</ele>
        <time>2018-06-26T14:32:21Z</time>
      </trkpt>
      <trkpt lat="50.57441" lon="3.18242">
        <ele>-12.8</ele>
        <time>2018-06-26T14:32:25Z</time>
      </trkpt>
      <trkpt lat="50.57441" lon="3.18242">
        <ele>-12.6</ele>
        <time>2018-06-26T14:32:29Z</time>
      </trkpt>
      <trkpt lat="50.57441" lon="3.18242">
        <ele>-12.8</ele>
        <time>2018-06-26T14:32:33Z</time>
      </trkpt>
      <trkpt lat="50.57441" lon="3.18242">
        <ele>-12.6</ele>
        <time>2018-06-26T14:32:37Z</time>
      </trkpt>
      <trkpt lat="50.57441" lon="3.18242">
        <ele>-12.8</ele>
        <time>2018-06-26T14:32:41Z</time>
      </trkpt>
      <trkpt lat="50.57441" lon="3.18242">
        <ele>-12.8</ele>
        <time>2018-06-26T14:32:45Z</time>
      </trkpt>
      <trkpt lat="50.57441" lon="3.18242">
        <ele>-12.8</ele>
        <time>2018-06-26T14:32:49Z</time>
      </trkpt>
      <trkpt lat="50.57441" lon="3.18242">
        <ele>-12.6</ele>
        <time>2018-06-26T14:32:53Z</time>
      </trkpt>
      <trkpt lat="50.57441" lon="3.18242">
        <ele>-12.6</ele>
        <time>2018-06-26T14:32:57Z</time>
      </trkpt>
      <trkpt lat="50.57441" lon="3.18242">
        <ele>-12.6</ele>
        <time>2018-06-26T14:33:01Z</time>
      </trkpt>
      <trkpt lat="50.57441" lon="3.18242">
        <ele>-12.2</ele>
        <time>2018-06-26T14:33:05Z</time>
      </trkpt>
      <trkpt lat="50.57441" lon="3.18242">
        <ele>-13</ele>
        <time>2018-06-26T14:33:09Z</time>
      </trkpt>
      <trkpt lat="50.57441" lon="3.18242">
        <ele>-12.8</ele>
        <time>2018-06-26T14:33:13Z</time>
      </trkpt>
      <trkpt lat="50.57441" lon="3.18242">
        <ele>-12.8</ele>
        <time>2018-06-26T14:33:17Z</time>
      </trkpt>
      <trkpt lat="50.57441" lon="3.18242">
        <ele>-13</ele>
        <time>2018-06-26T14:33:21Z</time>
      </trkpt>
      <trkpt lat="50.57441" lon="3.18242">
        <ele>-12.8</ele>
        <time>2018-06-26T14:33:25Z</time>
      </trkpt>
      <trkpt lat="50.57441" lon="3.18242">
        <ele>-12.6</ele>
        <time>2018-06-26T14:33:29Z</time>
      </trkpt>
      <trkpt lat="50.57441" lon="3.18242">
        <ele>-13</ele>
        <time>2018-06-26T14:33:33Z</time>
      </trkpt>
      <trkpt lat="50.57441" lon="3.18242">
        <ele>-13</ele>
        <time>2018-06-26T14:33:37Z</time>
      </trkpt>
      <trkpt lat="50.57441" lon="3.18242">
        <ele>-13</ele>
        <time>2018-06-26T14:33:41Z</time>
      </trkpt>
      <trkpt lat="50.57441" lon="3.18242">
        <ele>-12.8</ele>
        <time>2018-06-26T14:33:45Z</time>
      </trkpt>
      <trkpt lat="50.57441" lon="3.18242">
        <ele>-13</ele>
        <time>2018-06-26T14:33:49Z</time>
      </trkpt>
      <trkpt lat="50.57441" lon="3.18242">
        <ele>-13.2</ele>
        <time>2018-06-26T14:33:53Z</time>
      </trkpt>
      <trkpt lat="50.57441" lon="3.18242">
        <ele>-13.2</ele>
        <time>2018-06-26T14:33:57Z</time>
      </trkpt>
      <trkpt lat="50.57441" lon="3.18242">
        <ele>-13.2</ele>
        <time>2018-06-26T14:34:01Z</time>
      </trkpt>
      <trkpt lat="50.57441" lon="3.18242">
        <ele>-13</ele>
        <time>2018-06-26T14:34:05Z</time>
      </trkpt>
      <trkpt lat="50.57441" lon="3.18242">
        <ele>-13</ele>
        <time>2018-06-26T14:34:09Z</time>
      </trkpt>
      <trkpt lat="50.57441" lon="3.18242">
        <ele>-13.4</ele>
        <time>2018-06-26T14:34:13Z</time>
      </trkpt>
      <trkpt lat="50.57441" lon="3.18242">
        <ele>-13.2</ele>
        <time>2018-06-26T14:34:17Z</time>
      </trkpt>
      <trkpt lat="50.57441" lon="3.18242">
        <ele>-13</ele>
        <time>2018-06-26T14:34:21Z</time>
      </trkpt>
      <trkpt lat="50.57441" lon="3.18242">
        <ele>-12.8</ele>
        <time>2018-06-26T14:34:25Z</time>
      </trkpt>
      <trkpt lat="50.57441" lon="3.18242">
        <ele>-13</ele>
        <time>2018-06-26T14:34:29Z</time>
      </trkpt>
      <trkpt lat="50.57441" lon="3.18242">
        <ele>-13</ele>
        <time>2018-06-26T14:34:33Z</time>
      </trkpt>
      <trkpt lat="50.57441" lon="3.18242">
        <ele>-13</ele>
        <time>2018-06-26T14:34:37Z</time>
      </trkpt>
      <trkpt lat="50.57441" lon="3.18242">
        <ele>-13</ele>
        <time>2018-06-26T14:34:41Z</time>
      </trkpt>
      <trkpt lat="50.57441" lon="3.18242">
        <ele>-12.8</ele>
        <time>2018-06-26T14:34:45Z</time>
      </trkpt>
      <trkpt lat="50.57441" lon="3.18242">
        <ele>-13</ele>
        <time>2018-06-26T14:34:49Z</time>
      </trkpt>
      <trkpt lat="50.57441" lon="3.18242">
        <ele>-13</ele>
        <time>2018-06-26T14:34:53Z</time>
      </trkpt>
      <trkpt lat="50.57441" lon="3.18242">
        <ele>-13</ele>
        <time>2018-06-26T14:34:57Z</time>
      </trkpt>
      <trkpt lat="50.57441" lon="3.18242">
        <ele>-12.8</ele>
        <time>2018-06-26T14:35:01Z</time>
      </trkpt>
      <trkpt lat="50.57441" lon="3.18242">
        <ele>-13</ele>
        <time>2018-06-26T14:35:05Z</time>
      </trkpt>
      <trkpt lat="50.57441" lon="3.18242">
        <ele>-13</ele>
        <time>2018-06-26T14:35:09Z</time>
      </trkpt>
      <trkpt lat="50.57441" lon="3.18242">
        <ele>-13</ele>
        <time>2018-06-26T14:35:13Z</time>
      </trkpt>
      <trkpt lat="50.57441" lon="3.18242">
        <ele>-12.6</ele>
        <time>2018-06-26T14:35:17Z</time>
      </trkpt>
      <trkpt lat="50.57441" lon="3.18242">
        <ele>-12.8</ele>
        <time>2018-06-26T14:35:21Z</time>
      </trkpt>
      <trkpt lat="50.57441" lon="3.18242">
        <ele>-13.2</ele>
        <time>2018-06-26T14:35:25Z</time>
      </trkpt>
      <trkpt lat="50.57441" lon="3.18242">
        <ele>-13.2</ele>
        <time>2018-06-26T14:35:29Z</time>
      </trkpt>
      <trkpt lat="50.57441" lon="3.18242">
        <ele>-13</ele>
        <time>2018-06-26T14:35:33Z</time>
      </trkpt>
      <trkpt lat="50.57439" lon="3.1824">
        <ele>-13</ele>
        <time>2018-06-26T14:35:37Z</time>
      </trkpt>
      <trkpt lat="50.5744" lon="3.18238">
        <ele>-13</ele>
        <time>2018-06-26T14:35:41Z</time>
      </trkpt>
      <trkpt lat="50.5744" lon="3.18238">
        <ele>-12.8</ele>
        <time>2018-06-26T14:35:45Z</time>
      </trkpt>
      <trkpt lat="50.5744" lon="3.18236">
        <ele>-12.6</ele>
        <time>2018-06-26T14:35:49Z</time>
      </trkpt>
      <trkpt lat="50.57438" lon="3.18232">
        <ele>-12.8</ele>
        <time>2018-06-26T14:35:53Z</time>
      </trkpt>
      <trkpt lat="50.57434" lon="3.1822">
        <ele>-13.2</ele>
        <time>2018-06-26T14:35:57Z</time>
      </trkpt>
      <trkpt lat="50.57433" lon="3.18207">
        <ele>-14</ele>
        <time>2018-06-26T14:36:01Z</time>
      </trkpt>
      <trkpt lat="50.57437" lon="3.18197">
        <ele>-14.4</ele>
        <time>2018-06-26T14:36:05Z</time>
      </trkpt>
      <trkpt lat="50.57447" lon="3.18191">
        <ele>-14.4</ele>
        <time>2018-06-26T14:36:09Z</time>
      </trkpt>
      <trkpt lat="50.57455" lon="3.1818">
        <ele>-14.4</ele>
        <time>2018-06-26T14:36:13Z</time>
      </trkpt>
      <trkpt lat="50.57462" lon="3.18179">
        <ele>-14.6</ele>
        <time>2018-06-26T14:36:17Z</time>
      </trkpt>
      <trkpt lat="50.57462" lon="3.18181">
        <ele>-14.6</ele>
        <time>2018-06-26T14:36:21Z</time>
      </trkpt>
      <trkpt lat="50.57462" lon="3.18181">
        <ele>-14.4</ele>
        <time>2018-06-26T14:36:25Z</time>
      </trkpt>
      <trkpt lat="50.57463" lon="3.18182">
        <ele>-14.4</ele>
        <time>2018-06-26T14:36:29Z</time>
      </trkpt>
      <trkpt lat="50.57465" lon="3.18184">
        <ele>-14.2</ele>
        <time>2018-06-26T14:36:33Z</time>
      </trkpt>
      <trkpt lat="50.57466" lon="3.18191">
        <ele>-14.6</ele>
        <time>2018-06-26T14:36:37Z</time>
      </trkpt>
      <trkpt lat="50.57467" lon="3.18198">
        <ele>-14.8</ele>
        <time>2018-06-26T14:36:41Z</time>
      </trkpt>
      <trkpt lat="50.57469" lon="3.18207">
        <ele>-14.4</ele>
        <time>2018-06-26T14:36:45Z</time>
      </trkpt>
      <trkpt lat="50.57471" lon="3.18216">
        <ele>-14.8</ele>
        <time>2018-06-26T14:36:49Z</time>
      </trkpt>
      <trkpt lat="50.57473" lon="3.18226">
        <ele>-14.8</ele>
        <time>2018-06-26T14:36:53Z</time>
      </trkpt>
      <trkpt lat="50.57475" lon="3.18238">
        <ele>-14.8</ele>
        <time>2018-06-26T14:36:57Z</time>
      </trkpt>
      <trkpt lat="50.57477" lon="3.18249">
        <ele>-15</ele>
        <time>2018-06-26T14:37:01Z</time>
      </trkpt>
      <trkpt lat="50.57483" lon="3.18253">
        <ele>-15</ele>
        <time>2018-06-26T14:37:05Z</time>
      </trkpt>
      <trkpt lat="50.5749" lon="3.18248">
        <ele>-15.2</ele>
        <time>2018-06-26T14:37:09Z</time>
      </trkpt>
      <trkpt lat="50.57498" lon="3.18242">
        <ele>-15</ele>
        <time>2018-06-26T14:37:13Z</time>
      </trkpt>
      <trkpt lat="50.57508" lon="3.18236">
        <ele>-15.2</ele>
        <time>2018-06-26T14:37:17Z</time>
      </trkpt>
      <trkpt lat="50.57518" lon="3.18231">
        <ele>-15</ele>
        <time>2018-06-26T14:37:21Z</time>
      </trkpt>
      <trkpt lat="50.57529" lon="3.18224">
        <ele>-15.4</ele>
        <time>2018-06-26T14:37:25Z</time>
      </trkpt>
      <trkpt lat="50.57539" lon="3.18218">
        <ele>-14.6</ele>
        <time>2018-06-26T14:37:29Z</time>
      </trkpt>
      <trkpt lat="50.57549" lon="3.18211">
        <ele>-13.8</ele>
        <time>2018-06-26T14:37:33Z</time>
      </trkpt>
      <trkpt lat="50.5756" lon="3.18205">
        <ele>-14.4</ele>
        <time>2018-06-26T14:37:37Z</time>
      </trkpt>
      <trkpt lat="50.5757" lon="3.18199">
        <ele>-15</ele>
        <time>2018-06-26T14:37:41Z</time>
      </trkpt>
      <trkpt lat="50.5758" lon="3.18192">
        <ele>-15.2</ele>
        <time>2018-06-26T14:37:45Z</time>
      </trkpt>
      <trkpt lat="50.57589" lon="3.18185">
        <ele>-15.4</ele>
        <time>2018-06-26T14:37:49Z</time>
      </trkpt>
      <trkpt lat="50.57598" lon="3.1818">
        <ele>-15.4</ele>
        <time>2018-06-26T14:37:53Z</time>
      </trkpt>
      <trkpt lat="50.57609" lon="3.18173">
        <ele>-15.2</ele>
        <time>2018-06-26T14:37:57Z</time>
      </trkpt>
      <trkpt lat="50.5762" lon="3.18166">
        <ele>-14.6</ele>
        <time>2018-06-26T14:38:01Z</time>
      </trkpt>
      <trkpt lat="50.57631" lon="3.18158">
        <ele>-14.6</ele>
        <time>2018-06-26T14:38:05Z</time>
      </trkpt>
      <trkpt lat="50.57642" lon="3.1815">
        <ele>-14.8</ele>
        <time>2018-06-26T14:38:09Z</time>
      </trkpt>
      <trkpt lat="50.57654" lon="3.18142">
        <ele>-14.6</ele>
        <time>2018-06-26T14:38:13Z</time>
      </trkpt>
      <trkpt lat="50.57665" lon="3.18135">
        <ele>-15.6</ele>
        <time>2018-06-26T14:38:17Z</time>
      </trkpt>
      <trkpt lat="50.57677" lon="3.18128">
        <ele>-15.2</ele>
        <time>2018-06-26T14:38:21Z</time>
      </trkpt>
      <trkpt lat="50.57689" lon="3.18122">
        <ele>-14.8</ele>
        <time>2018-06-26T14:38:25Z</time>
      </trkpt>
      <trkpt lat="50.577" lon="3.18115">
        <ele>-14</ele>
        <time>2018-06-26T14:38:29Z</time>
      </trkpt>
      <trkpt lat="50.57711" lon="3.18109">
        <ele>-14.4</ele>
        <time>2018-06-26T14:38:33Z</time>
      </trkpt>
      <trkpt lat="50.57723" lon="3.18101">
        <ele>-14</ele>
        <time>2018-06-26T14:38:37Z</time>
      </trkpt>
      <trkpt lat="50.57735" lon="3.18093">
        <ele>-14.4</ele>
        <time>2018-06-26T14:38:41Z</time>
      </trkpt>
      <trkpt lat="50.57747" lon="3.18086">
        <ele>-13.6</ele>
        <time>2018-06-26T14:38:45Z</time>
      </trkpt>
      <trkpt lat="50.5776" lon="3.18078">
        <ele>-14</ele>
        <time>2018-06-26T14:38:49Z</time>
      </trkpt>
      <trkpt lat="50.57772" lon="3.1807">
        <ele>-14.6</ele>
        <time>2018-06-26T14:38:53Z</time>
      </trkpt>
      <trkpt lat="50.57784" lon="3.18062">
        <ele>-13.6</ele>
        <time>2018-06-26T14:38:57Z</time>
      </trkpt>
      <trkpt lat="50.57796" lon="3.18054">
        <ele>-13.6</ele>
        <time>2018-06-26T14:39:01Z</time>
      </trkpt>
      <trkpt lat="50.57808" lon="3.18044">
        <ele>-13.8</ele>
        <time>2018-06-26T14:39:05Z</time>
      </trkpt>
      <trkpt lat="50.57818" lon="3.18036">
        <ele>-14</ele>
        <time>2018-06-26T14:39:09Z</time>
      </trkpt>
      <trkpt lat="50.57829" lon="3.18028">
        <ele>-13.2</ele>
        <time>2018-06-26T14:39:13Z</time>
      </trkpt>
      <trkpt lat="50.57839" lon="3.18021">
        <ele>-14.2</ele>
        <time>2018-06-26T14:39:17Z</time>
      </trkpt>
      <trkpt lat="50.57847" lon="3.18015">
        <ele>-13.4</ele>
        <time>2018-06-26T14:39:21Z</time>
      </trkpt>
      <trkpt lat="50.57854" lon="3.18009">
        <ele>-13.2</ele>
        <time>2018-06-26T14:39:25Z</time>
      </trkpt>
      <trkpt lat="50.57854" lon="3.18009">
        <ele>-13.4</ele>
        <time>2018-06-26T14:39:29Z</time>
      </trkpt>
      <trkpt lat="50.57854" lon="3.18009">
        <ele>-13</ele>
        <time>2018-06-26T14:39:33Z</time>
      </trkpt>
      <trkpt lat="50.57854" lon="3.18009">
        <ele>-13</ele>
        <time>2018-06-26T14:39:37Z</time>
      </trkpt>
      <trkpt lat="50.57854" lon="3.18009">
        <ele>-12.8</ele>
        <time>2018-06-26T14:39:41Z</time>
      </trkpt>
      <trkpt lat="50.57854" lon="3.18009">
        <ele>-13.4</ele>
        <time>2018-06-26T14:39:45Z</time>
      </trkpt>
      <trkpt lat="50.57854" lon="3.18009">
        <ele>-13.2</ele>
        <time>2018-06-26T14:39:49Z</time>
      </trkpt>
      <trkpt lat="50.57858" lon="3.18006">
        <ele>-13.4</ele>
        <time>2018-06-26T14:39:53Z</time>
      </trkpt>
      <trkpt lat="50.57865" lon="3.18002">
        <ele>-12.6</ele>
        <time>2018-06-26T14:39:57Z</time>
      </trkpt>
      <trkpt lat="50.57874" lon="3.17992">
        <ele>-13</ele>
        <time>2018-06-26T14:40:01Z</time>
      </trkpt>
      <trkpt lat="50.57885" lon="3.17982">
        <ele>-13.2</ele>
        <time>2018-06-26T14:40:05Z</time>
      </trkpt>
      <trkpt lat="50.57897" lon="3.17971">
        <ele>-13</ele>
        <time>2018-06-26T14:40:09Z</time>
      </trkpt>
      <trkpt lat="50.5791" lon="3.17962">
        <ele>-13.2</ele>
        <time>2018-06-26T14:40:13Z</time>
      </trkpt>
      <trkpt lat="50.57921" lon="3.17952">
        <ele>-13.4</ele>
        <time>2018-06-26T14:40:17Z</time>
      </trkpt>
      <trkpt lat="50.57933" lon="3.17941">
        <ele>-13.6</ele>
        <time>2018-06-26T14:40:21Z</time>
      </trkpt>
      <trkpt lat="50.57945" lon="3.1793">
        <ele>-13.4</ele>
        <time>2018-06-26T14:40:25Z</time>
      </trkpt>
      <trkpt lat="50.57957" lon="3.17922">
        <ele>-13.6</ele>
        <time>2018-06-26T14:40:29Z</time>
      </trkpt>
      <trkpt lat="50.5797" lon="3.17911">
        <ele>-13.8</ele>
        <time>2018-06-26T14:40:33Z</time>
      </trkpt>
      <trkpt lat="50.57984" lon="3.179">
        <ele>-13.8</ele>
        <time>2018-06-26T14:40:37Z</time>
      </trkpt>
      <trkpt lat="50.57998" lon="3.17889">
        <ele>-14</ele>
        <time>2018-06-26T14:40:41Z</time>
      </trkpt>
      <trkpt lat="50.58011" lon="3.17874">
        <ele>-14.4</ele>
        <time>2018-06-26T14:40:45Z</time>
      </trkpt>
      <trkpt lat="50.58024" lon="3.17858">
        <ele>-14</ele>
        <time>2018-06-26T14:40:49Z</time>
      </trkpt>
      <trkpt lat="50.58035" lon="3.1784">
        <ele>-14.4</ele>
        <time>2018-06-26T14:40:53Z</time>
      </trkpt>
      <trkpt lat="50.58047" lon="3.17825">
        <ele>-14.2</ele>
        <time>2018-06-26T14:40:57Z</time>
      </trkpt>
      <trkpt lat="50.58059" lon="3.17809">
        <ele>-14.2</ele>
        <time>2018-06-26T14:41:01Z</time>
      </trkpt>
      <trkpt lat="50.58072" lon="3.17796">
        <ele>-14</ele>
        <time>2018-06-26T14:41:05Z</time>
      </trkpt>
      <trkpt lat="50.58086" lon="3.17784">
        <ele>-13.4</ele>
        <time>2018-06-26T14:41:09Z</time>
      </trkpt>
      <trkpt lat="50.58101" lon="3.17774">
        <ele>-13.8</ele>
        <time>2018-06-26T14:41:13Z</time>
      </trkpt>
      <trkpt lat="50.58115" lon="3.17761">
        <ele>-13.6</ele>
        <time>2018-06-26T14:41:17Z</time>
      </trkpt>
      <trkpt lat="50.58125" lon="3.17745">
        <ele>-14</ele>
        <time>2018-06-26T14:41:21Z</time>
      </trkpt>
      <trkpt lat="50.58131" lon="3.17724">
        <ele>-14</ele>
        <time>2018-06-26T14:41:25Z</time>
      </trkpt>
      <trkpt lat="50.58133" lon="3.17703">
        <ele>-13.8</ele>
        <time>2018-06-26T14:41:29Z</time>
      </trkpt>
      <trkpt lat="50.58134" lon="3.17681">
        <ele>-13.8</ele>
        <time>2018-06-26T14:41:33Z</time>
      </trkpt>
      <trkpt lat="50.58136" lon="3.1766">
        <ele>-13</ele>
        <time>2018-06-26T14:41:37Z</time>
      </trkpt>
      <trkpt lat="50.58138" lon="3.1764">
        <ele>-12.8</ele>
        <time>2018-06-26T14:41:41Z</time>
      </trkpt>
      <trkpt lat="50.58147" lon="3.17637">
        <ele>-12.6</ele>
        <time>2018-06-26T14:41:45Z</time>
      </trkpt>
      <trkpt lat="50.58156" lon="3.17645">
        <ele>-12.6</ele>
        <time>2018-06-26T14:41:49Z</time>
      </trkpt>
      <trkpt lat="50.58169" lon="3.17654">
        <ele>-13</ele>
        <time>2018-06-26T14:41:53Z</time>
      </trkpt>
      <trkpt lat="50.58183" lon="3.17665">
        <ele>-12.6</ele>
        <time>2018-06-26T14:41:57Z</time>
      </trkpt>
      <trkpt lat="50.58197" lon="3.17675">
        <ele>-12.8</ele>
        <time>2018-06-26T14:42:01Z</time>
      </trkpt>
      <trkpt lat="50.58213" lon="3.17685">
        <ele>-13</ele>
        <time>2018-06-26T14:42:05Z</time>
      </trkpt>
      <trkpt lat="50.58229" lon="3.17693">
        <ele>-13.4</ele>
        <time>2018-06-26T14:42:09Z</time>
      </trkpt>
      <trkpt lat="50.58245" lon="3.17702">
        <ele>-13.2</ele>
        <time>2018-06-26T14:42:13Z</time>
      </trkpt>
      <trkpt lat="50.58262" lon="3.17709">
        <ele>-13</ele>
        <time>2018-06-26T14:42:17Z</time>
      </trkpt>
      <trkpt lat="50.58279" lon="3.17711">
        <ele>-13</ele>
        <time>2018-06-26T14:42:21Z</time>
      </trkpt>
      <trkpt lat="50.58292" lon="3.17694">
        <ele>-13</ele>
        <time>2018-06-26T14:42:25Z</time>
      </trkpt>
      <trkpt lat="50.58301" lon="3.17674">
        <ele>-12.8</ele>
        <time>2018-06-26T14:42:29Z</time>
      </trkpt>
      <trkpt lat="50.58309" lon="3.17655">
        <ele>-12.8</ele>
        <time>2018-06-26T14:42:33Z</time>
      </trkpt>
      <trkpt lat="50.58318" lon="3.17638">
        <ele>-13</ele>
        <time>2018-06-26T14:42:37Z</time>
      </trkpt>
      <trkpt lat="50.58329" lon="3.17621">
        <ele>-12.2</ele>
        <time>2018-06-26T14:42:41Z</time>
      </trkpt>
      <trkpt lat="50.58341" lon="3.1761">
        <ele>-12</ele>
        <time>2018-06-26T14:42:45Z</time>
      </trkpt>
      <trkpt lat="50.58358" lon="3.17613">
        <ele>-12.4</ele>
        <time>2018-06-26T14:42:49Z</time>
      </trkpt>
      <trkpt lat="50.58375" lon="3.17626">
        <ele>-12.2</ele>
        <time>2018-06-26T14:42:53Z</time>
      </trkpt>
      <trkpt lat="50.58386" lon="3.17641">
        <ele>-12.2</ele>
        <time>2018-06-26T14:42:57Z</time>
      </trkpt>
      <trkpt lat="50.58397" lon="3.17659">
        <ele>-12.4</ele>
        <time>2018-06-26T14:43:01Z</time>
      </trkpt>
      <trkpt lat="50.58406" lon="3.17677">
        <ele>-12.2</ele>
        <time>2018-06-26T14:43:05Z</time>
      </trkpt>
      <trkpt lat="50.58416" lon="3.17698">
        <ele>-12.6</ele>
        <time>2018-06-26T14:43:09Z</time>
      </trkpt>
      <trkpt lat="50.58427" lon="3.1772">
        <ele>-12.6</ele>
        <time>2018-06-26T14:43:13Z</time>
      </trkpt>
      <trkpt lat="50.58437" lon="3.17744">
        <ele>-13.2</ele>
        <time>2018-06-26T14:43:17Z</time>
      </trkpt>
      <trkpt lat="50.58449" lon="3.17768">
        <ele>-13</ele>
        <time>2018-06-26T14:43:21Z</time>
      </trkpt>
      <trkpt lat="50.58461" lon="3.17793">
        <ele>-13.6</ele>
        <time>2018-06-26T14:43:25Z</time>
      </trkpt>
      <trkpt lat="50.58473" lon="3.17814">
        <ele>-14</ele>
        <time>2018-06-26T14:43:29Z</time>
      </trkpt>
      <trkpt lat="50.58485" lon="3.17837">
        <ele>-14</ele>
        <time>2018-06-26T14:43:33Z</time>
      </trkpt>
      <trkpt lat="50.58497" lon="3.17861">
        <ele>-14.2</ele>
        <time>2018-06-26T14:43:37Z</time>
      </trkpt>
      <trkpt lat="50.58506" lon="3.17887">
        <ele>-14.2</ele>
        <time>2018-06-26T14:43:41Z</time>
      </trkpt>
      <trkpt lat="50.58516" lon="3.17913">
        <ele>-14.4</ele>
        <time>2018-06-26T14:43:45Z</time>
      </trkpt>
      <trkpt lat="50.58527" lon="3.17937">
        <ele>-15</ele>
        <time>2018-06-26T14:43:49Z</time>
      </trkpt>
      <trkpt lat="50.58539" lon="3.1796">
        <ele>-14.8</ele>
        <time>2018-06-26T14:43:53Z</time>
      </trkpt>
      <trkpt lat="50.5855" lon="3.17982">
        <ele>-14</ele>
        <time>2018-06-26T14:43:57Z</time>
      </trkpt>
      <trkpt lat="50.58561" lon="3.18004">
        <ele>-14.2</ele>
        <time>2018-06-26T14:44:01Z</time>
      </trkpt>
      <trkpt lat="50.58575" lon="3.1803">
        <ele>-14.2</ele>
        <time>2018-06-26T14:44:05Z</time>
      </trkpt>
      <trkpt lat="50.58588" lon="3.18054">
        <ele>-14.2</ele>
        <time>2018-06-26T14:44:09Z</time>
      </trkpt>
      <trkpt lat="50.58603" lon="3.18074">
        <ele>-14.6</ele>
        <time>2018-06-26T14:44:13Z</time>
      </trkpt>
      <trkpt lat="50.5862" lon="3.18084">
        <ele>-14.4</ele>
        <time>2018-06-26T14:44:17Z</time>
      </trkpt>
      <trkpt lat="50.58638" lon="3.18093">
        <ele>-14.8</ele>
        <time>2018-06-26T14:44:21Z</time>
      </trkpt>
      <trkpt lat="50.58656" lon="3.18103">
        <ele>-14.6</ele>
        <time>2018-06-26T14:44:25Z</time>
      </trkpt>
      <trkpt lat="50.58674" lon="3.18113">
        <ele>-14.8</ele>
        <time>2018-06-26T14:44:29Z</time>
      </trkpt>
      <trkpt lat="50.58692" lon="3.18124">
        <ele>-14.4</ele>
        <time>2018-06-26T14:44:33Z</time>
      </trkpt>
      <trkpt lat="50.58709" lon="3.18133">
        <ele>-14.2</ele>
        <time>2018-06-26T14:44:37Z</time>
      </trkpt>
      <trkpt lat="50.58726" lon="3.18141">
        <ele>-14.6</ele>
        <time>2018-06-26T14:44:41Z</time>
      </trkpt>
      <trkpt lat="50.58743" lon="3.18151">
        <ele>-14.2</ele>
        <time>2018-06-26T14:44:45Z</time>
      </trkpt>
      <trkpt lat="50.58759" lon="3.1816">
        <ele>-14.2</ele>
        <time>2018-06-26T14:44:49Z</time>
      </trkpt>
      <trkpt lat="50.58776" lon="3.18169">
        <ele>-14</ele>
        <time>2018-06-26T14:44:53Z</time>
      </trkpt>
      <trkpt lat="50.58792" lon="3.18179">
        <ele>-13.6</ele>
        <time>2018-06-26T14:44:57Z</time>
      </trkpt>
      <trkpt lat="50.58809" lon="3.1819">
        <ele>-13.6</ele>
        <time>2018-06-26T14:45:01Z</time>
      </trkpt>
      <trkpt lat="50.58826" lon="3.18204">
        <ele>-14</ele>
        <time>2018-06-26T14:45:05Z</time>
      </trkpt>
      <trkpt lat="50.58844" lon="3.18216">
        <ele>-14</ele>
        <time>2018-06-26T14:45:09Z</time>
      </trkpt>
      <trkpt lat="50.58861" lon="3.18223">
        <ele>-14.2</ele>
        <time>2018-06-26T14:45:13Z</time>
      </trkpt>
      <trkpt lat="50.58876" lon="3.18227">
        <ele>-13.8</ele>
        <time>2018-06-26T14:45:17Z</time>
      </trkpt>
      <trkpt lat="50.58887" lon="3.18221">
        <ele>-13.6</ele>
        <time>2018-06-26T14:45:21Z</time>
      </trkpt>
      <trkpt lat="50.58891" lon="3.18199">
        <ele>-13.2</ele>
        <time>2018-06-26T14:45:25Z</time>
      </trkpt>
      <trkpt lat="50.58897" lon="3.18176">
        <ele>-13.2</ele>
        <time>2018-06-26T14:45:29Z</time>
      </trkpt>
      <trkpt lat="50.58907" lon="3.18158">
        <ele>-13.2</ele>
        <time>2018-06-26T14:45:33Z</time>
      </trkpt>
      <trkpt lat="50.58917" lon="3.18142">
        <ele>-12</ele>
        <time>2018-06-26T14:45:37Z</time>
      </trkpt>
      <trkpt lat="50.58929" lon="3.18127">
        <ele>-12</ele>
        <time>2018-06-26T14:45:41Z</time>
      </trkpt>
      <trkpt lat="50.58938" lon="3.1811">
        <ele>-12.2</ele>
        <time>2018-06-26T14:45:45Z</time>
      </trkpt>
      <trkpt lat="50.58947" lon="3.18094">
        <ele>-11.8</ele>
        <time>2018-06-26T14:45:49Z</time>
      </trkpt>
      <trkpt lat="50.58955" lon="3.18076">
        <ele>-11.8</ele>
        <time>2018-06-26T14:45:53Z</time>
      </trkpt>
      <trkpt lat="50.58963" lon="3.18058">
        <ele>-11.4</ele>
        <time>2018-06-26T14:45:57Z</time>
      </trkpt>
      <trkpt lat="50.58971" lon="3.1804">
        <ele>-10.8</ele>
        <time>2018-06-26T14:46:01Z</time>
      </trkpt>
      <trkpt lat="50.58979" lon="3.18021">
        <ele>-10.6</ele>
        <time>2018-06-26T14:46:05Z</time>
      </trkpt>
      <trkpt lat="50.58988" lon="3.18003">
        <ele>-9.4</ele>
        <time>2018-06-26T14:46:09Z</time>
      </trkpt>
      <trkpt lat="50.58996" lon="3.17984">
        <ele>-9.8</ele>
        <time>2018-06-26T14:46:13Z</time>
      </trkpt>
      <trkpt lat="50.59001" lon="3.17963">
        <ele>-8.4</ele>
        <time>2018-06-26T14:46:17Z</time>
      </trkpt>
      <trkpt lat="50.59003" lon="3.17938">
        <ele>-8.4</ele>
        <time>2018-06-26T14:46:21Z</time>
      </trkpt>
      <trkpt lat="50.59003" lon="3.17912">
        <ele>-8.2</ele>
        <time>2018-06-26T14:46:25Z</time>
      </trkpt>
      <trkpt lat="50.59002" lon="3.17885">
        <ele>-7.6</ele>
        <time>2018-06-26T14:46:29Z</time>
      </trkpt>
      <trkpt lat="50.59003" lon="3.17858">
        <ele>-8.2</ele>
        <time>2018-06-26T14:46:33Z</time>
      </trkpt>
      <trkpt lat="50.59004" lon="3.17829">
        <ele>-7.8</ele>
        <time>2018-06-26T14:46:37Z</time>
      </trkpt>
      <trkpt lat="50.59006" lon="3.17801">
        <ele>-8</ele>
        <time>2018-06-26T14:46:41Z</time>
      </trkpt>
      <trkpt lat="50.59008" lon="3.17775">
        <ele>-8.2</ele>
        <time>2018-06-26T14:46:45Z</time>
      </trkpt>
      <trkpt lat="50.59012" lon="3.17749">
        <ele>-8</ele>
        <time>2018-06-26T14:46:49Z</time>
      </trkpt>
      <trkpt lat="50.5902" lon="3.17725">
        <ele>-8.4</ele>
        <time>2018-06-26T14:46:53Z</time>
      </trkpt>
      <trkpt lat="50.59029" lon="3.17699">
        <ele>-8</ele>
        <time>2018-06-26T14:46:57Z</time>
      </trkpt>
      <trkpt lat="50.59038" lon="3.17677">
        <ele>-8</ele>
        <time>2018-06-26T14:47:01Z</time>
      </trkpt>
      <trkpt lat="50.59048" lon="3.17654">
        <ele>-8</ele>
        <time>2018-06-26T14:47:05Z</time>
      </trkpt>
      <trkpt lat="50.59058" lon="3.1763">
        <ele>-8</ele>
        <time>2018-06-26T14:47:09Z</time>
      </trkpt>
      <trkpt lat="50.59068" lon="3.17606">
        <ele>-7.6</ele>
        <time>2018-06-26T14:47:13Z</time>
      </trkpt>
      <trkpt lat="50.59077" lon="3.17582">
        <ele>-7.2</ele>
        <time>2018-06-26T14:47:17Z</time>
      </trkpt>
      <trkpt lat="50.59086" lon="3.17559">
        <ele>-7</ele>
        <time>2018-06-26T14:47:21Z</time>
      </trkpt>
      <trkpt lat="50.59095" lon="3.17536">
        <ele>-6.4</ele>
        <time>2018-06-26T14:47:25Z</time>
      </trkpt>
      <trkpt lat="50.59104" lon="3.17513">
        <ele>-5.6</ele>
        <time>2018-06-26T14:47:29Z</time>
      </trkpt>
      <trkpt lat="50.59113" lon="3.17491">
        <ele>-5.6</ele>
        <time>2018-06-26T14:47:33Z</time>
      </trkpt>
      <trkpt lat="50.59122" lon="3.1747">
        <ele>-5</ele>
        <time>2018-06-26T14:47:37Z</time>
      </trkpt>
      <trkpt lat="50.59131" lon="3.17447">
        <ele>-5.4</ele>
        <time>2018-06-26T14:47:41Z</time>
      </trkpt>
      <trkpt lat="50.59141" lon="3.17425">
        <ele>-4.6</ele>
        <time>2018-06-26T14:47:45Z</time>
      </trkpt>
      <trkpt lat="50.59152" lon="3.17402">
        <ele>-4.8</ele>
        <time>2018-06-26T14:47:49Z</time>
      </trkpt>
      <trkpt lat="50.59162" lon="3.17379">
        <ele>-4.6</ele>
        <time>2018-06-26T14:47:53Z</time>
      </trkpt>
      <trkpt lat="50.59172" lon="3.17356">
        <ele>-4.2</ele>
        <time>2018-06-26T14:47:57Z</time>
      </trkpt>
      <trkpt lat="50.59184" lon="3.17334">
        <ele>-3.6</ele>
        <time>2018-06-26T14:48:01Z</time>
      </trkpt>
      <trkpt lat="50.59195" lon="3.17311">
        <ele>-3.8</ele>
        <time>2018-06-26T14:48:05Z</time>
      </trkpt>
      <trkpt lat="50.59207" lon="3.17292">
        <ele>-4</ele>
        <time>2018-06-26T14:48:09Z</time>
      </trkpt>
      <trkpt lat="50.59223" lon="3.17279">
        <ele>-3.2</ele>
        <time>2018-06-26T14:48:13Z</time>
      </trkpt>
      <trkpt lat="50.59239" lon="3.1727">
        <ele>-3</ele>
        <time>2018-06-26T14:48:17Z</time>
      </trkpt>
      <trkpt lat="50.59255" lon="3.17257">
        <ele>-2.8</ele>
        <time>2018-06-26T14:48:21Z</time>
      </trkpt>
      <trkpt lat="50.59267" lon="3.17236">
        <ele>-2.8</ele>
        <time>2018-06-26T14:48:25Z</time>
      </trkpt>
      <trkpt lat="50.59276" lon="3.17213">
        <ele>-2.8</ele>
        <time>2018-06-26T14:48:29Z</time>
      </trkpt>
      <trkpt lat="50.59285" lon="3.17189">
        <ele>-2.8</ele>
        <time>2018-06-26T14:48:33Z</time>
      </trkpt>
      <trkpt lat="50.59294" lon="3.17167">
        <ele>-3.2</ele>
        <time>2018-06-26T14:48:37Z</time>
      </trkpt>
      <trkpt lat="50.59302" lon="3.17145">
        <ele>-3.2</ele>
        <time>2018-06-26T14:48:41Z</time>
      </trkpt>
      <trkpt lat="50.5931" lon="3.17124">
        <ele>-3.4</ele>
        <time>2018-06-26T14:48:45Z</time>
      </trkpt>
      <trkpt lat="50.59317" lon="3.17103">
        <ele>-3.6</ele>
        <time>2018-06-26T14:48:49Z</time>
      </trkpt>
      <trkpt lat="50.59322" lon="3.17077">
        <ele>-4</ele>
        <time>2018-06-26T14:48:53Z</time>
      </trkpt>
      <trkpt lat="50.59323" lon="3.17049">
        <ele>-4.8</ele>
        <time>2018-06-26T14:48:57Z</time>
      </trkpt>
      <trkpt lat="50.59323" lon="3.1702">
        <ele>-4.8</ele>
        <time>2018-06-26T14:49:01Z</time>
      </trkpt>
      <trkpt lat="50.59323" lon="3.17007">
        <ele>-5.4</ele>
        <time>2018-06-26T14:49:05Z</time>
      </trkpt>
      <trkpt lat="50.59323" lon="3.17007">
        <ele>-5.8</ele>
        <time>2018-06-26T14:49:09Z</time>
      </trkpt>
      <trkpt lat="50.59323" lon="3.17007">
        <ele>-5.4</ele>
        <time>2018-06-26T14:49:13Z</time>
      </trkpt>
      <trkpt lat="50.59322" lon="3.17005">
        <ele>-5.6</ele>
        <time>2018-06-26T14:49:17Z</time>
      </trkpt>
      <trkpt lat="50.59317" lon="3.16995">
        <ele>-5.6</ele>
        <time>2018-06-26T14:49:21Z</time>
      </trkpt>
      <trkpt lat="50.59312" lon="3.16978">
        <ele>-6</ele>
        <time>2018-06-26T14:49:25Z</time>
      </trkpt>
      <trkpt lat="50.59317" lon="3.16955">
        <ele>-5.6</ele>
        <time>2018-06-26T14:49:29Z</time>
      </trkpt>
      <trkpt lat="50.59319" lon="3.16929">
        <ele>-5.4</ele>
        <time>2018-06-26T14:49:33Z</time>
      </trkpt>
      <trkpt lat="50.59321" lon="3.16902">
        <ele>-5</ele>
        <time>2018-06-26T14:49:37Z</time>
      </trkpt>
      <trkpt lat="50.59323" lon="3.16876">
        <ele>-5</ele>
        <time>2018-06-26T14:49:41Z</time>
      </trkpt>
      <trkpt lat="50.59324" lon="3.1685">
        <ele>-4.2</ele>
        <time>2018-06-26T14:49:45Z</time>
      </trkpt>
      <trkpt lat="50.59326" lon="3.16825">
        <ele>-3.6</ele>
        <time>2018-06-26T14:49:49Z</time>
      </trkpt>
      <trkpt lat="50.59331" lon="3.168">
        <ele>-3.8</ele>
        <time>2018-06-26T14:49:53Z</time>
      </trkpt>
      <trkpt lat="50.59337" lon="3.16774">
        <ele>-3.4</ele>
        <time>2018-06-26T14:49:57Z</time>
      </trkpt>
      <trkpt lat="50.59343" lon="3.16747">
        <ele>-3.6</ele>
        <time>2018-06-26T14:50:01Z</time>
      </trkpt>
      <trkpt lat="50.59348" lon="3.16724">
        <ele>-4</ele>
        <time>2018-06-26T14:50:05Z</time>
      </trkpt>
      <trkpt lat="50.59353" lon="3.16699">
        <ele>-3.6</ele>
        <time>2018-06-26T14:50:09Z</time>
      </trkpt>
      <trkpt lat="50.59358" lon="3.16676">
        <ele>-4.2</ele>
        <time>2018-06-26T14:50:13Z</time>
      </trkpt>
      <trkpt lat="50.59361" lon="3.16662">
        <ele>-4</ele>
        <time>2018-06-26T14:50:17Z</time>
      </trkpt>
      <trkpt lat="50.59363" lon="3.1666">
        <ele>-4</ele>
        <time>2018-06-26T14:50:21Z</time>
      </trkpt>
      <trkpt lat="50.59365" lon="3.16649">
        <ele>-4.2</ele>
        <time>2018-06-26T14:50:25Z</time>
      </trkpt>
      <trkpt lat="50.59368" lon="3.16626">
        <ele>-3.6</ele>
        <time>2018-06-26T14:50:29Z</time>
      </trkpt>
      <trkpt lat="50.59374" lon="3.16601">
        <ele>-3.8</ele>
        <time>2018-06-26T14:50:33Z</time>
      </trkpt>
      <trkpt lat="50.59381" lon="3.16572">
        <ele>-3.6</ele>
        <time>2018-06-26T14:50:37Z</time>
      </trkpt>
      <trkpt lat="50.59388" lon="3.16542">
        <ele>-3.6</ele>
        <time>2018-06-26T14:50:41Z</time>
      </trkpt>
      <trkpt lat="50.59395" lon="3.16512">
        <ele>-3</ele>
        <time>2018-06-26T14:50:45Z</time>
      </trkpt>
      <trkpt lat="50.59403" lon="3.16483">
        <ele>-3</ele>
        <time>2018-06-26T14:50:49Z</time>
      </trkpt>
      <trkpt lat="50.59411" lon="3.16455">
        <ele>-3.6</ele>
        <time>2018-06-26T14:50:53Z</time>
      </trkpt>
      <trkpt lat="50.59421" lon="3.16427">
        <ele>-3.6</ele>
        <time>2018-06-26T14:50:57Z</time>
      </trkpt>
      <trkpt lat="50.59431" lon="3.16398">
        <ele>-3.8</ele>
        <time>2018-06-26T14:51:01Z</time>
      </trkpt>
      <trkpt lat="50.59441" lon="3.1637">
        <ele>-3.6</ele>
        <time>2018-06-26T14:51:05Z</time>
      </trkpt>
      <trkpt lat="50.59451" lon="3.16341">
        <ele>-3</ele>
        <time>2018-06-26T14:51:09Z</time>
      </trkpt>
      <trkpt lat="50.5946" lon="3.16311">
        <ele>-3.4</ele>
        <time>2018-06-26T14:51:13Z</time>
      </trkpt>
      <trkpt lat="50.5947" lon="3.16281">
        <ele>-3.6</ele>
        <time>2018-06-26T14:51:17Z</time>
      </trkpt>
      <trkpt lat="50.59479" lon="3.1625">
        <ele>-3.6</ele>
        <time>2018-06-26T14:51:21Z</time>
      </trkpt>
      <trkpt lat="50.59488" lon="3.1622">
        <ele>-3.6</ele>
        <time>2018-06-26T14:51:25Z</time>
      </trkpt>
      <trkpt lat="50.59486" lon="3.1619">
        <ele>-4.6</ele>
        <time>2018-06-26T14:51:29Z</time>
      </trkpt>
      <trkpt lat="50.59477" lon="3.16161">
        <ele>-5.2</ele>
        <time>2018-06-26T14:51:33Z</time>
      </trkpt>
      <trkpt lat="50.59476" lon="3.1613">
        <ele>-5</ele>
        <time>2018-06-26T14:51:37Z</time>
      </trkpt>
      <trkpt lat="50.59484" lon="3.161">
        <ele>-4.8</ele>
        <time>2018-06-26T14:51:41Z</time>
      </trkpt>
      <trkpt lat="50.59491" lon="3.16069">
        <ele>-5.4</ele>
        <time>2018-06-26T14:51:45Z</time>
      </trkpt>
      <trkpt lat="50.59497" lon="3.16037">
        <ele>-6</ele>
        <time>2018-06-26T14:51:49Z</time>
      </trkpt>
      <trkpt lat="50.59507" lon="3.16008">
        <ele>-5.4</ele>
        <time>2018-06-26T14:51:53Z</time>
      </trkpt>
      <trkpt lat="50.59516" lon="3.15981">
        <ele>-5.4</ele>
        <time>2018-06-26T14:51:57Z</time>
      </trkpt>
      <trkpt lat="50.59526" lon="3.15955">
        <ele>-5.4</ele>
        <time>2018-06-26T14:52:01Z</time>
      </trkpt>
      <trkpt lat="50.59535" lon="3.1593">
        <ele>-5.2</ele>
        <time>2018-06-26T14:52:05Z</time>
      </trkpt>
      <trkpt lat="50.59546" lon="3.15904">
        <ele>-6</ele>
        <time>2018-06-26T14:52:09Z</time>
      </trkpt>
      <trkpt lat="50.59557" lon="3.15879">
        <ele>-5.2</ele>
        <time>2018-06-26T14:52:13Z</time>
      </trkpt>
      <trkpt lat="50.59567" lon="3.15853">
        <ele>-5</ele>
        <time>2018-06-26T14:52:17Z</time>
      </trkpt>
      <trkpt lat="50.59578" lon="3.15827">
        <ele>-6</ele>
        <time>2018-06-26T14:52:21Z</time>
      </trkpt>
      <trkpt lat="50.59589" lon="3.15801">
        <ele>-6.2</ele>
        <time>2018-06-26T14:52:25Z</time>
      </trkpt>
      <trkpt lat="50.596" lon="3.15774">
        <ele>-5.8</ele>
        <time>2018-06-26T14:52:29Z</time>
      </trkpt>
      <trkpt lat="50.59611" lon="3.15747">
        <ele>-5.8</ele>
        <time>2018-06-26T14:52:33Z</time>
      </trkpt>
      <trkpt lat="50.59622" lon="3.1572">
        <ele>-5.6</ele>
        <time>2018-06-26T14:52:37Z</time>
      </trkpt>
      <trkpt lat="50.59634" lon="3.15693">
        <ele>-6</ele>
        <time>2018-06-26T14:52:41Z</time>
      </trkpt>
      <trkpt lat="50.59645" lon="3.15666">
        <ele>-4.8</ele>
        <time>2018-06-26T14:52:45Z</time>
      </trkpt>
      <trkpt lat="50.59656" lon="3.15639">
        <ele>-5</ele>
        <time>2018-06-26T14:52:49Z</time>
      </trkpt>
      <trkpt lat="50.59668" lon="3.15613">
        <ele>-5.6</ele>
        <time>2018-06-26T14:52:53Z</time>
      </trkpt>
      <trkpt lat="50.59679" lon="3.15587">
        <ele>-5</ele>
        <time>2018-06-26T14:52:57Z</time>
      </trkpt>
      <trkpt lat="50.59689" lon="3.1556">
        <ele>-4.6</ele>
        <time>2018-06-26T14:53:01Z</time>
      </trkpt>
      <trkpt lat="50.59698" lon="3.15532">
        <ele>-4</ele>
        <time>2018-06-26T14:53:05Z</time>
      </trkpt>
      <trkpt lat="50.59705" lon="3.15502">
        <ele>-3.8</ele>
        <time>2018-06-26T14:53:09Z</time>
      </trkpt>
      <trkpt lat="50.59708" lon="3.15469">
        <ele>-3.8</ele>
        <time>2018-06-26T14:53:13Z</time>
      </trkpt>
      <trkpt lat="50.59708" lon="3.15437">
        <ele>-5.4</ele>
        <time>2018-06-26T14:53:17Z</time>
      </trkpt>
      <trkpt lat="50.59706" lon="3.15406">
        <ele>-5.2</ele>
        <time>2018-06-26T14:53:21Z</time>
      </trkpt>
      <trkpt lat="50.59703" lon="3.15375">
        <ele>-6.4</ele>
        <time>2018-06-26T14:53:25Z</time>
      </trkpt>
      <trkpt lat="50.59697" lon="3.15344">
        <ele>-6.4</ele>
        <time>2018-06-26T14:53:29Z</time>
      </trkpt>
      <trkpt lat="50.59687" lon="3.15313">
        <ele>-6.4</ele>
        <time>2018-06-26T14:53:33Z</time>
      </trkpt>
      <trkpt lat="50.59676" lon="3.15289">
        <ele>-6.4</ele>
        <time>2018-06-26T14:53:37Z</time>
      </trkpt>
      <trkpt lat="50.59663" lon="3.15265">
        <ele>-7.8</ele>
        <time>2018-06-26T14:53:41Z</time>
      </trkpt>
      <trkpt lat="50.5965" lon="3.1524">
        <ele>-8.2</ele>
        <time>2018-06-26T14:53:45Z</time>
      </trkpt>
      <trkpt lat="50.59636" lon="3.15213">
        <ele>-7.4</ele>
        <time>2018-06-26T14:53:49Z</time>
      </trkpt>
      <trkpt lat="50.59622" lon="3.15186">
        <ele>-7</ele>
        <time>2018-06-26T14:53:53Z</time>
      </trkpt>
      <trkpt lat="50.59607" lon="3.1516">
        <ele>-8</ele>
        <time>2018-06-26T14:53:57Z</time>
      </trkpt>
      <trkpt lat="50.59593" lon="3.15133">
        <ele>-7.2</ele>
        <time>2018-06-26T14:54:01Z</time>
      </trkpt>
      <trkpt lat="50.59578" lon="3.15107">
        <ele>-6.8</ele>
        <time>2018-06-26T14:54:05Z</time>
      </trkpt>
      <trkpt lat="50.59565" lon="3.15081">
        <ele>-7.4</ele>
        <time>2018-06-26T14:54:09Z</time>
      </trkpt>
      <trkpt lat="50.59552" lon="3.15055">
        <ele>-8.2</ele>
        <time>2018-06-26T14:54:13Z</time>
      </trkpt>
      <trkpt lat="50.59539" lon="3.15031">
        <ele>-5.8</ele>
        <time>2018-06-26T14:54:17Z</time>
      </trkpt>
      <trkpt lat="50.59526" lon="3.15007">
        <ele>-7</ele>
        <time>2018-06-26T14:54:21Z</time>
      </trkpt>
      <trkpt lat="50.59513" lon="3.14983">
        <ele>-7.8</ele>
        <time>2018-06-26T14:54:25Z</time>
      </trkpt>
      <trkpt lat="50.595" lon="3.1496">
        <ele>-7</ele>
        <time>2018-06-26T14:54:29Z</time>
      </trkpt>
      <trkpt lat="50.59489" lon="3.14939">
        <ele>-7.8</ele>
        <time>2018-06-26T14:54:33Z</time>
      </trkpt>
      <trkpt lat="50.59481" lon="3.14924">
        <ele>-7.4</ele>
        <time>2018-06-26T14:54:37Z</time>
      </trkpt>
      <trkpt lat="50.59481" lon="3.14924">
        <ele>-7</ele>
        <time>2018-06-26T14:54:41Z</time>
      </trkpt>
      <trkpt lat="50.59481" lon="3.14924">
        <ele>-6.4</ele>
        <time>2018-06-26T14:54:45Z</time>
      </trkpt>
      <trkpt lat="50.59481" lon="3.14924">
        <ele>-6.6</ele>
        <time>2018-06-26T14:54:49Z</time>
      </trkpt>
      <trkpt lat="50.59476" lon="3.14913">
        <ele>-7.4</ele>
        <time>2018-06-26T14:54:53Z</time>
      </trkpt>
      <trkpt lat="50.59477" lon="3.14907">
        <ele>-7.2</ele>
        <time>2018-06-26T14:54:57Z</time>
      </trkpt>
      <trkpt lat="50.5948" lon="3.14896">
        <ele>-6.4</ele>
        <time>2018-06-26T14:55:01Z</time>
      </trkpt>
      <trkpt lat="50.59479" lon="3.14875">
        <ele>-7</ele>
        <time>2018-06-26T14:55:05Z</time>
      </trkpt>
      <trkpt lat="50.59475" lon="3.14851">
        <ele>-6.4</ele>
        <time>2018-06-26T14:55:09Z</time>
      </trkpt>
      <trkpt lat="50.59469" lon="3.1483">
        <ele>-6.2</ele>
        <time>2018-06-26T14:55:13Z</time>
      </trkpt>
      <trkpt lat="50.59463" lon="3.14812">
        <ele>-5</ele>
        <time>2018-06-26T14:55:17Z</time>
      </trkpt>
      <trkpt lat="50.59457" lon="3.14798">
        <ele>-4.4</ele>
        <time>2018-06-26T14:55:21Z</time>
      </trkpt>
      <trkpt lat="50.59454" lon="3.14785">
        <ele>-4</ele>
        <time>2018-06-26T14:55:25Z</time>
      </trkpt>
      <trkpt lat="50.59451" lon="3.14776">
        <ele>-3</ele>
        <time>2018-06-26T14:55:29Z</time>
      </trkpt>
      <trkpt lat="50.59448" lon="3.14766">
        <ele>-2.6</ele>
        <time>2018-06-26T14:55:33Z</time>
      </trkpt>
      <trkpt lat="50.59445" lon="3.14756">
        <ele>-1.6</ele>
        <time>2018-06-26T14:55:37Z</time>
      </trkpt>
      <trkpt lat="50.59445" lon="3.14756">
        <ele>-1.6</ele>
        <time>2018-06-26T14:55:41Z</time>
      </trkpt>
      <trkpt lat="50.59445" lon="3.14756">
        <ele>-2</ele>
        <time>2018-06-26T14:55:45Z</time>
      </trkpt>
      <trkpt lat="50.59441" lon="3.14748">
        <ele>-2</ele>
        <time>2018-06-26T14:55:49Z</time>
      </trkpt>
      <trkpt lat="50.59437" lon="3.14738">
        <ele>-1.2</ele>
        <time>2018-06-26T14:55:53Z</time>
      </trkpt>
      <trkpt lat="50.59434" lon="3.14724">
        <ele>-1.2</ele>
        <time>2018-06-26T14:55:57Z</time>
      </trkpt>
      <trkpt lat="50.59429" lon="3.14709">
        <ele>-0.2</ele>
        <time>2018-06-26T14:56:01Z</time>
      </trkpt>
      <trkpt lat="50.59429" lon="3.14709">
        <ele>-0.4</ele>
        <time>2018-06-26T14:56:05Z</time>
      </trkpt>
      <trkpt lat="50.59429" lon="3.14709">
        <ele>-0.6</ele>
        <time>2018-06-26T14:56:09Z</time>
      </trkpt>
      <trkpt lat="50.59426" lon="3.14699">
        <ele>-0.8</ele>
        <time>2018-06-26T14:56:13Z</time>
      </trkpt>
      <trkpt lat="50.59421" lon="3.14689">
        <ele>-1.2</ele>
        <time>2018-06-26T14:56:17Z</time>
      </trkpt>
      <trkpt lat="50.59414" lon="3.14676">
        <ele>-1.2</ele>
        <time>2018-06-26T14:56:21Z</time>
      </trkpt>
      <trkpt lat="50.59406" lon="3.14659">
        <ele>-1.2</ele>
        <time>2018-06-26T14:56:25Z</time>
      </trkpt>
      <trkpt lat="50.59395" lon="3.14643">
        <ele>-1.6</ele>
        <time>2018-06-26T14:56:29Z</time>
      </trkpt>
      <trkpt lat="50.5938" lon="3.14622">
        <ele>-2.6</ele>
        <time>2018-06-26T14:56:33Z</time>
      </trkpt>
      <trkpt lat="50.5936" lon="3.14594">
        <ele>-3.8</ele>
        <time>2018-06-26T14:56:37Z</time>
      </trkpt>
      <trkpt lat="50.59339" lon="3.14562">
        <ele>-4.6</ele>
        <time>2018-06-26T14:56:41Z</time>
      </trkpt>
      <trkpt lat="50.59325" lon="3.14534">
        <ele>-5.2</ele>
        <time>2018-06-26T14:56:45Z</time>
      </trkpt>
      <trkpt lat="50.59318" lon="3.14514">
        <ele>-5.4</ele>
        <time>2018-06-26T14:56:49Z</time>
      </trkpt>
      <trkpt lat="50.59309" lon="3.14494">
        <ele>-4.6</ele>
        <time>2018-06-26T14:56:53Z</time>
      </trkpt>
      <trkpt lat="50.59301" lon="3.14476">
        <ele>-5</ele>
        <time>2018-06-26T14:56:57Z</time>
      </trkpt>
      <trkpt lat="50.59292" lon="3.14457">
        <ele>-5.4</ele>
        <time>2018-06-26T14:57:01Z</time>
      </trkpt>
      <trkpt lat="50.59284" lon="3.14439">
        <ele>-5.4</ele>
        <time>2018-06-26T14:57:05Z</time>
      </trkpt>
      <trkpt lat="50.59275" lon="3.14421">
        <ele>-6</ele>
        <time>2018-06-26T14:57:09Z</time>
      </trkpt>
      <trkpt lat="50.59267" lon="3.14402">
        <ele>-5</ele>
        <time>2018-06-26T14:57:13Z</time>
      </trkpt>
      <trkpt lat="50.59259" lon="3.14383">
        <ele>-5.4</ele>
        <time>2018-06-26T14:57:17Z</time>
      </trkpt>
      <trkpt lat="50.5925" lon="3.14362">
        <ele>-5.2</ele>
        <time>2018-06-26T14:57:21Z</time>
      </trkpt>
      <trkpt lat="50.59241" lon="3.14342">
        <ele>-5.2</ele>
        <time>2018-06-26T14:57:25Z</time>
      </trkpt>
      <trkpt lat="50.59234" lon="3.1432">
        <ele>-4.8</ele>
        <time>2018-06-26T14:57:29Z</time>
      </trkpt>
      <trkpt lat="50.59229" lon="3.143">
        <ele>-4</ele>
        <time>2018-06-26T14:57:33Z</time>
      </trkpt>
      <trkpt lat="50.59224" lon="3.14279">
        <ele>-4.8</ele>
        <time>2018-06-26T14:57:37Z</time>
      </trkpt>
      <trkpt lat="50.59218" lon="3.14256">
        <ele>-5.4</ele>
        <time>2018-06-26T14:57:41Z</time>
      </trkpt>
      <trkpt lat="50.59211" lon="3.14234">
        <ele>-4.2</ele>
        <time>2018-06-26T14:57:45Z</time>
      </trkpt>
      <trkpt lat="50.59205" lon="3.14215">
        <ele>-4.6</ele>
        <time>2018-06-26T14:57:49Z</time>
      </trkpt>
      <trkpt lat="50.592" lon="3.14195">
        <ele>-4.8</ele>
        <time>2018-06-26T14:57:53Z</time>
      </trkpt>
      <trkpt lat="50.59196" lon="3.14176">
        <ele>-4.6</ele>
        <time>2018-06-26T14:57:57Z</time>
      </trkpt>
      <trkpt lat="50.59192" lon="3.14154">
        <ele>-5</ele>
        <time>2018-06-26T14:58:01Z</time>
      </trkpt>
      <trkpt lat="50.59188" lon="3.14132">
        <ele>-4.4</ele>
        <time>2018-06-26T14:58:05Z</time>
      </trkpt>
      <trkpt lat="50.59185" lon="3.14113">
        <ele>-4.4</ele>
        <time>2018-06-26T14:58:09Z</time>
      </trkpt>
      <trkpt lat="50.59183" lon="3.14092">
        <ele>-5</ele>
        <time>2018-06-26T14:58:13Z</time>
      </trkpt>
      <trkpt lat="50.5918" lon="3.1407">
        <ele>-4.6</ele>
        <time>2018-06-26T14:58:17Z</time>
      </trkpt>
      <trkpt lat="50.59179" lon="3.14049">
        <ele>-5.2</ele>
        <time>2018-06-26T14:58:21Z</time>
      </trkpt>
      <trkpt lat="50.59178" lon="3.14028">
        <ele>-4.4</ele>
        <time>2018-06-26T14:58:25Z</time>
      </trkpt>
      <trkpt lat="50.59176" lon="3.14005">
        <ele>-4.2</ele>
        <time>2018-06-26T14:58:29Z</time>
      </trkpt>
      <trkpt lat="50.59175" lon="3.13981">
        <ele>-4.2</ele>
        <time>2018-06-26T14:58:33Z</time>
      </trkpt>
      <trkpt lat="50.59174" lon="3.13962">
        <ele>-4.2</ele>
        <time>2018-06-26T14:58:37Z</time>
      </trkpt>
      <trkpt lat="50.59172" lon="3.13942">
        <ele>-4</ele>
        <time>2018-06-26T14:58:41Z</time>
      </trkpt>
      <trkpt lat="50.59167" lon="3.13922">
        <ele>-4.2</ele>
        <time>2018-06-26T14:58:45Z</time>
      </trkpt>
      <trkpt lat="50.59161" lon="3.13903">
        <ele>-4.2</ele>
        <time>2018-06-26T14:58:49Z</time>
      </trkpt>
      <trkpt lat="50.59156" lon="3.13886">
        <ele>-3.6</ele>
        <time>2018-06-26T14:58:53Z</time>
      </trkpt>
      <trkpt lat="50.59151" lon="3.13871">
        <ele>-4</ele>
        <time>2018-06-26T14:58:57Z</time>
      </trkpt>
      <trkpt lat="50.59147" lon="3.13857">
        <ele>-4</ele>
        <time>2018-06-26T14:59:01Z</time>
      </trkpt>
      <trkpt lat="50.59143" lon="3.13843">
        <ele>-3.6</ele>
        <time>2018-06-26T14:59:05Z</time>
      </trkpt>
      <trkpt lat="50.59139" lon="3.13831">
        <ele>-3.4</ele>
        <time>2018-06-26T14:59:09Z</time>
      </trkpt>
      <trkpt lat="50.59132" lon="3.1381">
        <ele>-3.2</ele>
        <time>2018-06-26T14:59:13Z</time>
      </trkpt>
      <trkpt lat="50.59125" lon="3.13787">
        <ele>-3</ele>
        <time>2018-06-26T14:59:17Z</time>
      </trkpt>
      <trkpt lat="50.59118" lon="3.13765">
        <ele>-2.8</ele>
        <time>2018-06-26T14:59:21Z</time>
      </trkpt>
      <trkpt lat="50.59113" lon="3.13739">
        <ele>-2.8</ele>
        <time>2018-06-26T14:59:25Z</time>
      </trkpt>
      <trkpt lat="50.5911" lon="3.13712">
        <ele>-2.8</ele>
        <time>2018-06-26T14:59:29Z</time>
      </trkpt>
      <trkpt lat="50.5911" lon="3.13685">
        <ele>-2.6</ele>
        <time>2018-06-26T14:59:33Z</time>
      </trkpt>
      <trkpt lat="50.59113" lon="3.13659">
        <ele>-2.2</ele>
        <time>2018-06-26T14:59:37Z</time>
      </trkpt>
      <trkpt lat="50.59119" lon="3.13632">
        <ele>-2</ele>
        <time>2018-06-26T14:59:41Z</time>
      </trkpt>
      <trkpt lat="50.59123" lon="3.13602">
        <ele>-2.2</ele>
        <time>2018-06-26T14:59:45Z</time>
      </trkpt>
      <trkpt lat="50.59126" lon="3.13572">
        <ele>-2</ele>
        <time>2018-06-26T14:59:49Z</time>
      </trkpt>
      <trkpt lat="50.59125" lon="3.13545">
        <ele>-2</ele>
        <time>2018-06-26T14:59:53Z</time>
      </trkpt>
      <trkpt lat="50.59121" lon="3.13523">
        <ele>-2</ele>
        <time>2018-06-26T14:59:57Z</time>
      </trkpt>
      <trkpt lat="50.59117" lon="3.13503">
        <ele>-0.8</ele>
        <time>2018-06-26T15:00:01Z</time>
      </trkpt>
      <trkpt lat="50.59113" lon="3.13482">
        <ele>-1.8</ele>
        <time>2018-06-26T15:00:05Z</time>
      </trkpt>
      <trkpt lat="50.5911" lon="3.13464">
        <ele>-1.6</ele>
        <time>2018-06-26T15:00:09Z</time>
      </trkpt>
      <trkpt lat="50.59107" lon="3.1345">
        <ele>-1.4</ele>
        <time>2018-06-26T15:00:13Z</time>
      </trkpt>
      <trkpt lat="50.59104" lon="3.13435">
        <ele>-2</ele>
        <time>2018-06-26T15:00:17Z</time>
      </trkpt>
      <trkpt lat="50.59102" lon="3.13418">
        <ele>-1.4</ele>
        <time>2018-06-26T15:00:21Z</time>
      </trkpt>
      <trkpt lat="50.59099" lon="3.13399">
        <ele>-1.2</ele>
        <time>2018-06-26T15:00:25Z</time>
      </trkpt>
      <trkpt lat="50.59094" lon="3.13378">
        <ele>-0.8</ele>
        <time>2018-06-26T15:00:29Z</time>
      </trkpt>
      <trkpt lat="50.59089" lon="3.13358">
        <ele>-0.4</ele>
        <time>2018-06-26T15:00:33Z</time>
      </trkpt>
      <trkpt lat="50.59084" lon="3.13336">
        <ele>-0.4</ele>
        <time>2018-06-26T15:00:37Z</time>
      </trkpt>
      <trkpt lat="50.59078" lon="3.13313">
        <ele>0.2</ele>
        <time>2018-06-26T15:00:41Z</time>
      </trkpt>
      <trkpt lat="50.59074" lon="3.1329">
        <ele>0.2</ele>
        <time>2018-06-26T15:00:45Z</time>
      </trkpt>
      <trkpt lat="50.59069" lon="3.13267">
        <ele>41.5</ele>
        <time>2018-06-26T15:00:49Z</time>
      </trkpt>
      <trkpt lat="50.59062" lon="3.13245">
        <ele>-0.2</ele>
        <time>2018-06-26T15:00:53Z</time>
      </trkpt>
      <trkpt lat="50.59054" lon="3.13221">
        <ele>-0.2</ele>
        <time>2018-06-26T15:00:57Z</time>
      </trkpt>
      <trkpt lat="50.59048" lon="3.13198">
        <ele>42.2</ele>
        <time>2018-06-26T15:01:01Z</time>
      </trkpt>
      <trkpt lat="50.59041" lon="3.13177">
        <ele>0.2</ele>
        <time>2018-06-26T15:01:05Z</time>
      </trkpt>
      <trkpt lat="50.59034" lon="3.13156">
        <ele>0.8</ele>
        <time>2018-06-26T15:01:09Z</time>
      </trkpt>
      <trkpt lat="50.59027" lon="3.1314">
        <ele>1</ele>
        <time>2018-06-26T15:01:13Z</time>
      </trkpt>
      <trkpt lat="50.59021" lon="3.13121">
        <ele>1</ele>
        <time>2018-06-26T15:01:17Z</time>
      </trkpt>
      <trkpt lat="50.59013" lon="3.131">
        <ele>0.6</ele>
        <time>2018-06-26T15:01:21Z</time>
      </trkpt>
      <trkpt lat="50.59005" lon="3.1308">
        <ele>0.8</ele>
        <time>2018-06-26T15:01:25Z</time>
      </trkpt>
      <trkpt lat="50.58999" lon="3.13059">
        <ele>0.8</ele>
        <time>2018-06-26T15:01:29Z</time>
      </trkpt>
      <trkpt lat="50.58998" lon="3.13035">
        <ele>0.2</ele>
        <time>2018-06-26T15:01:33Z</time>
      </trkpt>
      <trkpt lat="50.59003" lon="3.1301">
        <ele>0.2</ele>
        <time>2018-06-26T15:01:37Z</time>
      </trkpt>
      <trkpt lat="50.59008" lon="3.12984">
        <ele>0.6</ele>
        <time>2018-06-26T15:01:41Z</time>
      </trkpt>
      <trkpt lat="50.59014" lon="3.12957">
        <ele>1</ele>
        <time>2018-06-26T15:01:45Z</time>
      </trkpt>
      <trkpt lat="50.59018" lon="3.12934">
        <ele>0.8</ele>
        <time>2018-06-26T15:01:49Z</time>
      </trkpt>
      <trkpt lat="50.59022" lon="3.12911">
        <ele>0.8</ele>
        <time>2018-06-26T15:01:53Z</time>
      </trkpt>
      <trkpt lat="50.59025" lon="3.12888">
        <ele>0.6</ele>
        <time>2018-06-26T15:01:57Z</time>
      </trkpt>
      <trkpt lat="50.59029" lon="3.12863">
        <ele>0.8</ele>
        <time>2018-06-26T15:02:01Z</time>
      </trkpt>
      <trkpt lat="50.59035" lon="3.12837">
        <ele>0.4</ele>
        <time>2018-06-26T15:02:05Z</time>
      </trkpt>
      <trkpt lat="50.59041" lon="3.12812">
        <ele>0.8</ele>
        <time>2018-06-26T15:02:09Z</time>
      </trkpt>
      <trkpt lat="50.59046" lon="3.12787">
        <ele>0.8</ele>
        <time>2018-06-26T15:02:13Z</time>
      </trkpt>
      <trkpt lat="50.59053" lon="3.12762">
        <ele>1</ele>
        <time>2018-06-26T15:02:17Z</time>
      </trkpt>
      <trkpt lat="50.59059" lon="3.1274">
        <ele>0.6</ele>
        <time>2018-06-26T15:02:21Z</time>
      </trkpt>
      <trkpt lat="50.59062" lon="3.12716">
        <ele>0.2</ele>
        <time>2018-06-26T15:02:25Z</time>
      </trkpt>
      <trkpt lat="50.59065" lon="3.1269">
        <ele>0.6</ele>
        <time>2018-06-26T15:02:29Z</time>
      </trkpt>
      <trkpt lat="50.59068" lon="3.12666">
        <ele>0.6</ele>
        <time>2018-06-26T15:02:33Z</time>
      </trkpt>
      <trkpt lat="50.59074" lon="3.12639">
        <ele>1.2</ele>
        <time>2018-06-26T15:02:37Z</time>
      </trkpt>
      <trkpt lat="50.59078" lon="3.12611">
        <ele>1</ele>
        <time>2018-06-26T15:02:41Z</time>
      </trkpt>
      <trkpt lat="50.59083" lon="3.12583">
        <ele>1</ele>
        <time>2018-06-26T15:02:45Z</time>
      </trkpt>
      <trkpt lat="50.59088" lon="3.12556">
        <ele>1.4</ele>
        <time>2018-06-26T15:02:49Z</time>
      </trkpt>
      <trkpt lat="50.5909" lon="3.12528">
        <ele>1.4</ele>
        <time>2018-06-26T15:02:53Z</time>
      </trkpt>
      <trkpt lat="50.5909" lon="3.12498">
        <ele>1</ele>
        <time>2018-06-26T15:02:57Z</time>
      </trkpt>
      <trkpt lat="50.5909" lon="3.12467">
        <ele>1.6</ele>
        <time>2018-06-26T15:03:01Z</time>
      </trkpt>
      <trkpt lat="50.5909" lon="3.12435">
        <ele>1.2</ele>
        <time>2018-06-26T15:03:05Z</time>
      </trkpt>
      <trkpt lat="50.59089" lon="3.12403">
        <ele>1.4</ele>
        <time>2018-06-26T15:03:09Z</time>
      </trkpt>
      <trkpt lat="50.59089" lon="3.12373">
        <ele>1.4</ele>
        <time>2018-06-26T15:03:13Z</time>
      </trkpt>
      <trkpt lat="50.59092" lon="3.12343">
        <ele>1.8</ele>
        <time>2018-06-26T15:03:17Z</time>
      </trkpt>
      <trkpt lat="50.59092" lon="3.12313">
        <ele>1.6</ele>
        <time>2018-06-26T15:03:21Z</time>
      </trkpt>
      <trkpt lat="50.59094" lon="3.12285">
        <ele>2</ele>
        <time>2018-06-26T15:03:25Z</time>
      </trkpt>
      <trkpt lat="50.59094" lon="3.12259">
        <ele>1.4</ele>
        <time>2018-06-26T15:03:29Z</time>
      </trkpt>
      <trkpt lat="50.5909" lon="3.12229">
        <ele>1.6</ele>
        <time>2018-06-26T15:03:33Z</time>
      </trkpt>
      <trkpt lat="50.5909" lon="3.12198">
        <ele>3</ele>
        <time>2018-06-26T15:03:37Z</time>
      </trkpt>
      <trkpt lat="50.59092" lon="3.12167">
        <ele>2.6</ele>
        <time>2018-06-26T15:03:41Z</time>
      </trkpt>
      <trkpt lat="50.59094" lon="3.12134">
        <ele>2.4</ele>
        <time>2018-06-26T15:03:45Z</time>
      </trkpt>
      <trkpt lat="50.59095" lon="3.12103">
        <ele>2.4</ele>
        <time>2018-06-26T15:03:49Z</time>
      </trkpt>
      <trkpt lat="50.59096" lon="3.12071">
        <ele>2.4</ele>
        <time>2018-06-26T15:03:53Z</time>
      </trkpt>
      <trkpt lat="50.59098" lon="3.1204">
        <ele>2.4</ele>
        <time>2018-06-26T15:03:57Z</time>
      </trkpt>
      <trkpt lat="50.59099" lon="3.12011">
        <ele>2.4</ele>
        <time>2018-06-26T15:04:01Z</time>
      </trkpt>
      <trkpt lat="50.59099" lon="3.1198">
        <ele>2.6</ele>
        <time>2018-06-26T15:04:05Z</time>
      </trkpt>
      <trkpt lat="50.591" lon="3.11948">
        <ele>2.6</ele>
        <time>2018-06-26T15:04:09Z</time>
      </trkpt>
      <trkpt lat="50.59101" lon="3.11916">
        <ele>3.2</ele>
        <time>2018-06-26T15:04:13Z</time>
      </trkpt>
      <trkpt lat="50.59103" lon="3.11884">
        <ele>3</ele>
        <time>2018-06-26T15:04:17Z</time>
      </trkpt>
      <trkpt lat="50.59105" lon="3.11854">
        <ele>3.6</ele>
        <time>2018-06-26T15:04:21Z</time>
      </trkpt>
      <trkpt lat="50.59106" lon="3.11828">
        <ele>4.4</ele>
        <time>2018-06-26T15:04:25Z</time>
      </trkpt>
      <trkpt lat="50.59111" lon="3.11814">
        <ele>4.2</ele>
        <time>2018-06-26T15:04:29Z</time>
      </trkpt>
      <trkpt lat="50.59108" lon="3.11793">
        <ele>4.2</ele>
        <time>2018-06-26T15:04:33Z</time>
      </trkpt>
      <trkpt lat="50.59102" lon="3.1177">
        <ele>4.6</ele>
        <time>2018-06-26T15:04:37Z</time>
      </trkpt>
      <trkpt lat="50.59095" lon="3.11745">
        <ele>4.6</ele>
        <time>2018-06-26T15:04:41Z</time>
      </trkpt>
      <trkpt lat="50.591" lon="3.11721">
        <ele>4.4</ele>
        <time>2018-06-26T15:04:45Z</time>
      </trkpt>
      <trkpt lat="50.59112" lon="3.11706">
        <ele>4.2</ele>
        <time>2018-06-26T15:04:49Z</time>
      </trkpt>
      <trkpt lat="50.59116" lon="3.11701">
        <ele>3.4</ele>
        <time>2018-06-26T15:04:53Z</time>
      </trkpt>
      <trkpt lat="50.5912" lon="3.11694">
        <ele>4.2</ele>
        <time>2018-06-26T15:04:57Z</time>
      </trkpt>
      <trkpt lat="50.59129" lon="3.11686">
        <ele>3.4</ele>
        <time>2018-06-26T15:05:01Z</time>
      </trkpt>
      <trkpt lat="50.59136" lon="3.11676">
        <ele>3.8</ele>
        <time>2018-06-26T15:05:05Z</time>
      </trkpt>
      <trkpt lat="50.59149" lon="3.11661">
        <ele>3</ele>
        <time>2018-06-26T15:05:09Z</time>
      </trkpt>
      <trkpt lat="50.59166" lon="3.11644">
        <ele>3.4</ele>
        <time>2018-06-26T15:05:13Z</time>
      </trkpt>
      <trkpt lat="50.59168" lon="3.1162">
        <ele>3</ele>
        <time>2018-06-26T15:05:17Z</time>
      </trkpt>
      <trkpt lat="50.59158" lon="3.11592">
        <ele>3.4</ele>
        <time>2018-06-26T15:05:21Z</time>
      </trkpt>
      <trkpt lat="50.59148" lon="3.11563">
        <ele>2.6</ele>
        <time>2018-06-26T15:05:25Z</time>
      </trkpt>
      <trkpt lat="50.59138" lon="3.11534">
        <ele>3.4</ele>
        <time>2018-06-26T15:05:29Z</time>
      </trkpt>
      <trkpt lat="50.5913" lon="3.11502">
        <ele>3.6</ele>
        <time>2018-06-26T15:05:33Z</time>
      </trkpt>
      <trkpt lat="50.59119" lon="3.11472">
        <ele>3.8</ele>
        <time>2018-06-26T15:05:37Z</time>
      </trkpt>
      <trkpt lat="50.59109" lon="3.11442">
        <ele>4.4</ele>
        <time>2018-06-26T15:05:41Z</time>
      </trkpt>
      <trkpt lat="50.59103" lon="3.11414">
        <ele>4.2</ele>
        <time>2018-06-26T15:05:45Z</time>
      </trkpt>
      <trkpt lat="50.59117" lon="3.11394">
        <ele>4.4</ele>
        <time>2018-06-26T15:05:49Z</time>
      </trkpt>
      <trkpt lat="50.59134" lon="3.11376">
        <ele>3.8</ele>
        <time>2018-06-26T15:05:53Z</time>
      </trkpt>
      <trkpt lat="50.59154" lon="3.11362">
        <ele>3.8</ele>
        <time>2018-06-26T15:05:57Z</time>
      </trkpt>
      <trkpt lat="50.59172" lon="3.11348">
        <ele>3.4</ele>
        <time>2018-06-26T15:06:01Z</time>
      </trkpt>
      <trkpt lat="50.59193" lon="3.11335">
        <ele>3.6</ele>
        <time>2018-06-26T15:06:05Z</time>
      </trkpt>
      <trkpt lat="50.59213" lon="3.11319">
        <ele>3.4</ele>
        <time>2018-06-26T15:06:09Z</time>
      </trkpt>
      <trkpt lat="50.59231" lon="3.11301">
        <ele>3</ele>
        <time>2018-06-26T15:06:13Z</time>
      </trkpt>
      <trkpt lat="50.59246" lon="3.11286">
        <ele>2.2</ele>
        <time>2018-06-26T15:06:17Z</time>
      </trkpt>
      <trkpt lat="50.59256" lon="3.11273">
        <ele>2.4</ele>
        <time>2018-06-26T15:06:21Z</time>
      </trkpt>
      <trkpt lat="50.59265" lon="3.1126">
        <ele>2.4</ele>
        <time>2018-06-26T15:06:25Z</time>
      </trkpt>
      <trkpt lat="50.59272" lon="3.11247">
        <ele>2.2</ele>
        <time>2018-06-26T15:06:29Z</time>
      </trkpt>
      <trkpt lat="50.59279" lon="3.11233">
        <ele>2.6</ele>
        <time>2018-06-26T15:06:33Z</time>
      </trkpt>
      <trkpt lat="50.59285" lon="3.1122">
        <ele>2.2</ele>
        <time>2018-06-26T15:06:37Z</time>
      </trkpt>
      <trkpt lat="50.59291" lon="3.11203">
        <ele>3</ele>
        <time>2018-06-26T15:06:41Z</time>
      </trkpt>
      <trkpt lat="50.59301" lon="3.11175">
        <ele>2.6</ele>
        <time>2018-06-26T15:06:45Z</time>
      </trkpt>
      <trkpt lat="50.59315" lon="3.11145">
        <ele>3.4</ele>
        <time>2018-06-26T15:06:49Z</time>
      </trkpt>
      <trkpt lat="50.5933" lon="3.11116">
        <ele>3.4</ele>
        <time>2018-06-26T15:06:53Z</time>
      </trkpt>
      <trkpt lat="50.59343" lon="3.11085">
        <ele>3.8</ele>
        <time>2018-06-26T15:06:57Z</time>
      </trkpt>
      <trkpt lat="50.59357" lon="3.11056">
        <ele>3.8</ele>
        <time>2018-06-26T15:07:01Z</time>
      </trkpt>
      <trkpt lat="50.59369" lon="3.11028">
        <ele>4.6</ele>
        <time>2018-06-26T15:07:05Z</time>
      </trkpt>
      <trkpt lat="50.59381" lon="3.11">
        <ele>4.4</ele>
        <time>2018-06-26T15:07:09Z</time>
      </trkpt>
      <trkpt lat="50.59393" lon="3.10973">
        <ele>4.2</ele>
        <time>2018-06-26T15:07:13Z</time>
      </trkpt>
      <trkpt lat="50.59404" lon="3.10946">
        <ele>4.4</ele>
        <time>2018-06-26T15:07:17Z</time>
      </trkpt>
      <trkpt lat="50.59408" lon="3.10916">
        <ele>4.6</ele>
        <time>2018-06-26T15:07:21Z</time>
      </trkpt>
      <trkpt lat="50.59405" lon="3.10884">
        <ele>5.2</ele>
        <time>2018-06-26T15:07:25Z</time>
      </trkpt>
      <trkpt lat="50.59406" lon="3.10851">
        <ele>5</ele>
        <time>2018-06-26T15:07:29Z</time>
      </trkpt>
      <trkpt lat="50.59417" lon="3.10824">
        <ele>5.2</ele>
        <time>2018-06-26T15:07:33Z</time>
      </trkpt>
      <trkpt lat="50.59433" lon="3.10803">
        <ele>5.2</ele>
        <time>2018-06-26T15:07:37Z</time>
      </trkpt>
      <trkpt lat="50.59448" lon="3.10783">
        <ele>5.2</ele>
        <time>2018-06-26T15:07:41Z</time>
      </trkpt>
      <trkpt lat="50.59465" lon="3.10765">
        <ele>5.6</ele>
        <time>2018-06-26T15:07:45Z</time>
      </trkpt>
      <trkpt lat="50.59482" lon="3.10743">
        <ele>5.2</ele>
        <time>2018-06-26T15:07:49Z</time>
      </trkpt>
      <trkpt lat="50.59497" lon="3.1072">
        <ele>6</ele>
        <time>2018-06-26T15:07:53Z</time>
      </trkpt>
      <trkpt lat="50.59513" lon="3.10702">
        <ele>6</ele>
        <time>2018-06-26T15:07:57Z</time>
      </trkpt>
      <trkpt lat="50.59529" lon="3.10681">
        <ele>6</ele>
        <time>2018-06-26T15:08:01Z</time>
      </trkpt>
      <trkpt lat="50.59544" lon="3.1066">
        <ele>6.2</ele>
        <time>2018-06-26T15:08:05Z</time>
      </trkpt>
      <trkpt lat="50.5956" lon="3.1064">
        <ele>5.6</ele>
        <time>2018-06-26T15:08:09Z</time>
      </trkpt>
      <trkpt lat="50.59575" lon="3.10618">
        <ele>5.4</ele>
        <time>2018-06-26T15:08:13Z</time>
      </trkpt>
      <trkpt lat="50.5959" lon="3.106">
        <ele>5.2</ele>
        <time>2018-06-26T15:08:17Z</time>
      </trkpt>
      <trkpt lat="50.59605" lon="3.10581">
        <ele>5.8</ele>
        <time>2018-06-26T15:08:21Z</time>
      </trkpt>
      <trkpt lat="50.59619" lon="3.10563">
        <ele>5.6</ele>
        <time>2018-06-26T15:08:25Z</time>
      </trkpt>
      <trkpt lat="50.59633" lon="3.10544">
        <ele>5.8</ele>
        <time>2018-06-26T15:08:29Z</time>
      </trkpt>
      <trkpt lat="50.59648" lon="3.10524">
        <ele>5.6</ele>
        <time>2018-06-26T15:08:33Z</time>
      </trkpt>
      <trkpt lat="50.59662" lon="3.10504">
        <ele>5.2</ele>
        <time>2018-06-26T15:08:37Z</time>
      </trkpt>
      <trkpt lat="50.59677" lon="3.10485">
        <ele>5.6</ele>
        <time>2018-06-26T15:08:41Z</time>
      </trkpt>
      <trkpt lat="50.59689" lon="3.10468">
        <ele>5.2</ele>
        <time>2018-06-26T15:08:45Z</time>
      </trkpt>
      <trkpt lat="50.59691" lon="3.1045">
        <ele>5</ele>
        <time>2018-06-26T15:08:49Z</time>
      </trkpt>
      <trkpt lat="50.5968" lon="3.10437">
        <ele>5.6</ele>
        <time>2018-06-26T15:08:53Z</time>
      </trkpt>
      <trkpt lat="50.59667" lon="3.10425">
        <ele>5.2</ele>
        <time>2018-06-26T15:08:57Z</time>
      </trkpt>
      <trkpt lat="50.59652" lon="3.10413">
        <ele>5.2</ele>
        <time>2018-06-26T15:09:01Z</time>
      </trkpt>
      <trkpt lat="50.59636" lon="3.10403">
        <ele>5.2</ele>
        <time>2018-06-26T15:09:05Z</time>
      </trkpt>
      <trkpt lat="50.5962" lon="3.1039">
        <ele>5.6</ele>
        <time>2018-06-26T15:09:09Z</time>
      </trkpt>
      <trkpt lat="50.59606" lon="3.10377">
        <ele>6</ele>
        <time>2018-06-26T15:09:13Z</time>
      </trkpt>
      <trkpt lat="50.59591" lon="3.10362">
        <ele>6.6</ele>
        <time>2018-06-26T15:09:17Z</time>
      </trkpt>
      <trkpt lat="50.59576" lon="3.10348">
        <ele>5.8</ele>
        <time>2018-06-26T15:09:21Z</time>
      </trkpt>
      <trkpt lat="50.59562" lon="3.10336">
        <ele>5.8</ele>
        <time>2018-06-26T15:09:25Z</time>
      </trkpt>
      <trkpt lat="50.5955" lon="3.1032">
        <ele>5.6</ele>
        <time>2018-06-26T15:09:29Z</time>
      </trkpt>
      <trkpt lat="50.59538" lon="3.10302">
        <ele>6.4</ele>
        <time>2018-06-26T15:09:33Z</time>
      </trkpt>
      <trkpt lat="50.59528" lon="3.10284">
        <ele>6.4</ele>
        <time>2018-06-26T15:09:37Z</time>
      </trkpt>
      <trkpt lat="50.5952" lon="3.10271">
        <ele>7</ele>
        <time>2018-06-26T15:09:41Z</time>
      </trkpt>
      <trkpt lat="50.59507" lon="3.1026">
        <ele>7.6</ele>
        <time>2018-06-26T15:09:45Z</time>
      </trkpt>
      <trkpt lat="50.59493" lon="3.10249">
        <ele>8.2</ele>
        <time>2018-06-26T15:09:49Z</time>
      </trkpt>
      <trkpt lat="50.5948" lon="3.10238">
        <ele>9</ele>
        <time>2018-06-26T15:09:53Z</time>
      </trkpt>
      <trkpt lat="50.59466" lon="3.10228">
        <ele>10</ele>
        <time>2018-06-26T15:09:57Z</time>
      </trkpt>
      <trkpt lat="50.59454" lon="3.10216">
        <ele>9.8</ele>
        <time>2018-06-26T15:10:01Z</time>
      </trkpt>
      <trkpt lat="50.59441" lon="3.10207">
        <ele>10.8</ele>
        <time>2018-06-26T15:10:05Z</time>
      </trkpt>
      <trkpt lat="50.59429" lon="3.10201">
        <ele>10.6</ele>
        <time>2018-06-26T15:10:09Z</time>
      </trkpt>
      <trkpt lat="50.59419" lon="3.10194">
        <ele>11.2</ele>
        <time>2018-06-26T15:10:13Z</time>
      </trkpt>
      <trkpt lat="50.59404" lon="3.10183">
        <ele>11.8</ele>
        <time>2018-06-26T15:10:17Z</time>
      </trkpt>
      <trkpt lat="50.59391" lon="3.10172">
        <ele>12.8</ele>
        <time>2018-06-26T15:10:21Z</time>
      </trkpt>
      <trkpt lat="50.59379" lon="3.10164">
        <ele>13.2</ele>
        <time>2018-06-26T15:10:25Z</time>
      </trkpt>
      <trkpt lat="50.59364" lon="3.10155">
        <ele>13.4</ele>
        <time>2018-06-26T15:10:29Z</time>
      </trkpt>
      <trkpt lat="50.59353" lon="3.10143">
        <ele>13.2</ele>
        <time>2018-06-26T15:10:33Z</time>
      </trkpt>
      <trkpt lat="50.59351" lon="3.10126">
        <ele>13.6</ele>
        <time>2018-06-26T15:10:37Z</time>
      </trkpt>
      <trkpt lat="50.59352" lon="3.10115">
        <ele>13.8</ele>
        <time>2018-06-26T15:10:41Z</time>
      </trkpt>
      <trkpt lat="50.59352" lon="3.10115">
        <ele>13.8</ele>
        <time>2018-06-26T15:10:45Z</time>
      </trkpt>
      <trkpt lat="50.59352" lon="3.10115">
        <ele>13.2</ele>
        <time>2018-06-26T15:10:49Z</time>
      </trkpt>
      <trkpt lat="50.59352" lon="3.10106">
        <ele>13</ele>
        <time>2018-06-26T15:10:53Z</time>
      </trkpt>
      <trkpt lat="50.59358" lon="3.10099">
        <ele>13.2</ele>
        <time>2018-06-26T15:10:57Z</time>
      </trkpt>
      <trkpt lat="50.59371" lon="3.10091">
        <ele>13.2</ele>
        <time>2018-06-26T15:11:01Z</time>
      </trkpt>
      <trkpt lat="50.59384" lon="3.10082">
        <ele>13.2</ele>
        <time>2018-06-26T15:11:05Z</time>
      </trkpt>
      <trkpt lat="50.59398" lon="3.10072">
        <ele>13</ele>
        <time>2018-06-26T15:11:09Z</time>
      </trkpt>
      <trkpt lat="50.59411" lon="3.1006">
        <ele>13</ele>
        <time>2018-06-26T15:11:13Z</time>
      </trkpt>
      <trkpt lat="50.59426" lon="3.1005">
        <ele>13.4</ele>
        <time>2018-06-26T15:11:17Z</time>
      </trkpt>
      <trkpt lat="50.5944" lon="3.1004">
        <ele>12.8</ele>
        <time>2018-06-26T15:11:21Z</time>
      </trkpt>
      <trkpt lat="50.59456" lon="3.10029">
        <ele>12.8</ele>
        <time>2018-06-26T15:11:25Z</time>
      </trkpt>
      <trkpt lat="50.59473" lon="3.10019">
        <ele>12.8</ele>
        <time>2018-06-26T15:11:29Z</time>
      </trkpt>
      <trkpt lat="50.59492" lon="3.10006">
        <ele>12.2</ele>
        <time>2018-06-26T15:11:33Z</time>
      </trkpt>
      <trkpt lat="50.59515" lon="3.09991">
        <ele>11</ele>
        <time>2018-06-26T15:11:37Z</time>
      </trkpt>
      <trkpt lat="50.59541" lon="3.09974">
        <ele>10</ele>
        <time>2018-06-26T15:11:41Z</time>
      </trkpt>
      <trkpt lat="50.59569" lon="3.09954">
        <ele>8.4</ele>
        <time>2018-06-26T15:11:45Z</time>
      </trkpt>
      <trkpt lat="50.59597" lon="3.09929">
        <ele>6.4</ele>
        <time>2018-06-26T15:11:49Z</time>
      </trkpt>
      <trkpt lat="50.59623" lon="3.09896">
        <ele>5.4</ele>
        <time>2018-06-26T15:11:53Z</time>
      </trkpt>
      <trkpt lat="50.59646" lon="3.09866">
        <ele>5.2</ele>
        <time>2018-06-26T15:11:57Z</time>
      </trkpt>
      <trkpt lat="50.59661" lon="3.09848">
        <ele>4.6</ele>
        <time>2018-06-26T15:12:01Z</time>
      </trkpt>
      <trkpt lat="50.59674" lon="3.0985">
        <ele>4.4</ele>
        <time>2018-06-26T15:12:05Z</time>
      </trkpt>
      <trkpt lat="50.59691" lon="3.09845">
        <ele>4.2</ele>
        <time>2018-06-26T15:12:09Z</time>
      </trkpt>
      <trkpt lat="50.59701" lon="3.09819">
        <ele>4.8</ele>
        <time>2018-06-26T15:12:13Z</time>
      </trkpt>
      <trkpt lat="50.59706" lon="3.0979">
        <ele>4.6</ele>
        <time>2018-06-26T15:12:17Z</time>
      </trkpt>
      <trkpt lat="50.59717" lon="3.09773">
        <ele>4</ele>
        <time>2018-06-26T15:12:21Z</time>
      </trkpt>
      <trkpt lat="50.59728" lon="3.09754">
        <ele>4.6</ele>
        <time>2018-06-26T15:12:25Z</time>
      </trkpt>
      <trkpt lat="50.5974" lon="3.09731">
        <ele>4.8</ele>
        <time>2018-06-26T15:12:29Z</time>
      </trkpt>
      <trkpt lat="50.59751" lon="3.09713">
        <ele>4.2</ele>
        <time>2018-06-26T15:12:33Z</time>
      </trkpt>
      <trkpt lat="50.59757" lon="3.09705">
        <ele>3.8</ele>
        <time>2018-06-26T15:12:37Z</time>
      </trkpt>
      <trkpt lat="50.59767" lon="3.09687">
        <ele>4</ele>
        <time>2018-06-26T15:12:41Z</time>
      </trkpt>
      <trkpt lat="50.59778" lon="3.09663">
        <ele>4.6</ele>
        <time>2018-06-26T15:12:45Z</time>
      </trkpt>
      <trkpt lat="50.59791" lon="3.09641">
        <ele>4.8</ele>
        <time>2018-06-26T15:12:49Z</time>
      </trkpt>
      <trkpt lat="50.59804" lon="3.09616">
        <ele>4</ele>
        <time>2018-06-26T15:12:53Z</time>
      </trkpt>
      <trkpt lat="50.59814" lon="3.09587">
        <ele>3.8</ele>
        <time>2018-06-26T15:12:57Z</time>
      </trkpt>
      <trkpt lat="50.59822" lon="3.09558">
        <ele>3.8</ele>
        <time>2018-06-26T15:13:01Z</time>
      </trkpt>
      <trkpt lat="50.5983" lon="3.09528">
        <ele>4</ele>
        <time>2018-06-26T15:13:05Z</time>
      </trkpt>
      <trkpt lat="50.59839" lon="3.09499">
        <ele>3.4</ele>
        <time>2018-06-26T15:13:09Z</time>
      </trkpt>
      <trkpt lat="50.59847" lon="3.0947">
        <ele>3</ele>
        <time>2018-06-26T15:13:13Z</time>
      </trkpt>
      <trkpt lat="50.59862" lon="3.09447">
        <ele>3.4</ele>
        <time>2018-06-26T15:13:17Z</time>
      </trkpt>
      <trkpt lat="50.59882" lon="3.09434">
        <ele>3.4</ele>
        <time>2018-06-26T15:13:21Z</time>
      </trkpt>
      <trkpt lat="50.59898" lon="3.09412">
        <ele>3.2</ele>
        <time>2018-06-26T15:13:25Z</time>
      </trkpt>
      <trkpt lat="50.59901" lon="3.09378">
        <ele>2.6</ele>
        <time>2018-06-26T15:13:29Z</time>
      </trkpt>
      <trkpt lat="50.599" lon="3.09341">
        <ele>3</ele>
        <time>2018-06-26T15:13:33Z</time>
      </trkpt>
      <trkpt lat="50.599" lon="3.09305">
        <ele>3</ele>
        <time>2018-06-26T15:13:37Z</time>
      </trkpt>
      <trkpt lat="50.59902" lon="3.09272">
        <ele>2.6</ele>
        <time>2018-06-26T15:13:41Z</time>
      </trkpt>
      <trkpt lat="50.59904" lon="3.09239">
        <ele>2.4</ele>
        <time>2018-06-26T15:13:45Z</time>
      </trkpt>
      <trkpt lat="50.59906" lon="3.09205">
        <ele>2.2</ele>
        <time>2018-06-26T15:13:49Z</time>
      </trkpt>
      <trkpt lat="50.59909" lon="3.0917">
        <ele>2.4</ele>
        <time>2018-06-26T15:13:53Z</time>
      </trkpt>
      <trkpt lat="50.5991" lon="3.09135">
        <ele>2.4</ele>
        <time>2018-06-26T15:13:57Z</time>
      </trkpt>
      <trkpt lat="50.59913" lon="3.09102">
        <ele>2.2</ele>
        <time>2018-06-26T15:14:01Z</time>
      </trkpt>
      <trkpt lat="50.59915" lon="3.09059">
        <ele>2.4</ele>
        <time>2018-06-26T15:14:05Z</time>
      </trkpt>
      <trkpt lat="50.59918" lon="3.09025">
        <ele>2.2</ele>
        <time>2018-06-26T15:14:09Z</time>
      </trkpt>
      <trkpt lat="50.59919" lon="3.08992">
        <ele>2.8</ele>
        <time>2018-06-26T15:14:13Z</time>
      </trkpt>
      <trkpt lat="50.59922" lon="3.08959">
        <ele>2.4</ele>
        <time>2018-06-26T15:14:17Z</time>
      </trkpt>
      <trkpt lat="50.59926" lon="3.08925">
        <ele>3.4</ele>
        <time>2018-06-26T15:14:21Z</time>
      </trkpt>
      <trkpt lat="50.59933" lon="3.08893">
        <ele>3</ele>
        <time>2018-06-26T15:14:25Z</time>
      </trkpt>
      <trkpt lat="50.5994" lon="3.08862">
        <ele>3.4</ele>
        <time>2018-06-26T15:14:29Z</time>
      </trkpt>
      <trkpt lat="50.59948" lon="3.08831">
        <ele>3.6</ele>
        <time>2018-06-26T15:14:33Z</time>
      </trkpt>
      <trkpt lat="50.59956" lon="3.088">
        <ele>3</ele>
        <time>2018-06-26T15:14:37Z</time>
      </trkpt>
      <trkpt lat="50.59964" lon="3.08768">
        <ele>3.6</ele>
        <time>2018-06-26T15:14:41Z</time>
      </trkpt>
      <trkpt lat="50.59972" lon="3.08736">
        <ele>3.8</ele>
        <time>2018-06-26T15:14:45Z</time>
      </trkpt>
      <trkpt lat="50.5998" lon="3.08703">
        <ele>3.6</ele>
        <time>2018-06-26T15:14:49Z</time>
      </trkpt>
      <trkpt lat="50.59989" lon="3.0867">
        <ele>3.8</ele>
        <time>2018-06-26T15:14:53Z</time>
      </trkpt>
      <trkpt lat="50.59997" lon="3.08636">
        <ele>3.6</ele>
        <time>2018-06-26T15:14:57Z</time>
      </trkpt>
      <trkpt lat="50.60004" lon="3.08601">
        <ele>4.2</ele>
        <time>2018-06-26T15:15:01Z</time>
      </trkpt>
      <trkpt lat="50.60012" lon="3.08567">
        <ele>4</ele>
        <time>2018-06-26T15:15:05Z</time>
      </trkpt>
      <trkpt lat="50.60019" lon="3.08532">
        <ele>3.4</ele>
        <time>2018-06-26T15:15:09Z</time>
      </trkpt>
      <trkpt lat="50.60024" lon="3.08497">
        <ele>2.8</ele>
        <time>2018-06-26T15:15:13Z</time>
      </trkpt>
      <trkpt lat="50.60026" lon="3.08462">
        <ele>2.4</ele>
        <time>2018-06-26T15:15:17Z</time>
      </trkpt>
      <trkpt lat="50.60028" lon="3.08426">
        <ele>2.8</ele>
        <time>2018-06-26T15:15:21Z</time>
      </trkpt>
      <trkpt lat="50.60029" lon="3.0839">
        <ele>2.4</ele>
        <time>2018-06-26T15:15:25Z</time>
      </trkpt>
      <trkpt lat="50.6003" lon="3.08355">
        <ele>3</ele>
        <time>2018-06-26T15:15:29Z</time>
      </trkpt>
      <trkpt lat="50.6003" lon="3.08319">
        <ele>2.2</ele>
        <time>2018-06-26T15:15:33Z</time>
      </trkpt>
      <trkpt lat="50.60029" lon="3.08281">
        <ele>2.2</ele>
        <time>2018-06-26T15:15:37Z</time>
      </trkpt>
      <trkpt lat="50.60028" lon="3.08244">
        <ele>2</ele>
        <time>2018-06-26T15:15:41Z</time>
      </trkpt>
      <trkpt lat="50.6003" lon="3.08206">
        <ele>1.4</ele>
        <time>2018-06-26T15:15:45Z</time>
      </trkpt>
      <trkpt lat="50.60032" lon="3.08168">
        <ele>1.8</ele>
        <time>2018-06-26T15:15:49Z</time>
      </trkpt>
      <trkpt lat="50.60034" lon="3.08129">
        <ele>1</ele>
        <time>2018-06-26T15:15:53Z</time>
      </trkpt>
      <trkpt lat="50.60036" lon="3.08091">
        <ele>1.6</ele>
        <time>2018-06-26T15:15:57Z</time>
      </trkpt>
      <trkpt lat="50.60033" lon="3.08054">
        <ele>1.6</ele>
        <time>2018-06-26T15:16:01Z</time>
      </trkpt>
      <trkpt lat="50.60032" lon="3.08024">
        <ele>1.4</ele>
        <time>2018-06-26T15:16:05Z</time>
      </trkpt>
      <trkpt lat="50.60042" lon="3.08006">
        <ele>2</ele>
        <time>2018-06-26T15:16:09Z</time>
      </trkpt>
      <trkpt lat="50.60057" lon="3.07994">
        <ele>1</ele>
        <time>2018-06-26T15:16:13Z</time>
      </trkpt>
      <trkpt lat="50.60074" lon="3.07989">
        <ele>1.4</ele>
        <time>2018-06-26T15:16:17Z</time>
      </trkpt>
      <trkpt lat="50.60089" lon="3.07977">
        <ele>1.2</ele>
        <time>2018-06-26T15:16:21Z</time>
      </trkpt>
      <trkpt lat="50.60105" lon="3.07967">
        <ele>1</ele>
        <time>2018-06-26T15:16:25Z</time>
      </trkpt>
      <trkpt lat="50.60121" lon="3.07958">
        <ele>0.8</ele>
        <time>2018-06-26T15:16:29Z</time>
      </trkpt>
      <trkpt lat="50.60135" lon="3.07949">
        <ele>0.4</ele>
        <time>2018-06-26T15:16:33Z</time>
      </trkpt>
      <trkpt lat="50.60145" lon="3.07941">
        <ele>0.6</ele>
        <time>2018-06-26T15:16:37Z</time>
      </trkpt>
      <trkpt lat="50.60152" lon="3.0794">
        <ele>0.2</ele>
        <time>2018-06-26T15:16:41Z</time>
      </trkpt>
      <trkpt lat="50.60152" lon="3.0794">
        <ele>0.2</ele>
        <time>2018-06-26T15:16:45Z</time>
      </trkpt>
      <trkpt lat="50.60152" lon="3.0794">
        <ele>41</ele>
        <time>2018-06-26T15:16:49Z</time>
      </trkpt>
      <trkpt lat="50.60156" lon="3.07941">
        <ele>0.2</ele>
        <time>2018-06-26T15:16:53Z</time>
      </trkpt>
      <trkpt lat="50.60164" lon="3.07936">
        <ele>0.2</ele>
        <time>2018-06-26T15:16:57Z</time>
      </trkpt>
      <trkpt lat="50.60178" lon="3.07928">
        <ele>1</ele>
        <time>2018-06-26T15:17:01Z</time>
      </trkpt>
      <trkpt lat="50.6019" lon="3.07919">
        <ele>0.6</ele>
        <time>2018-06-26T15:17:05Z</time>
      </trkpt>
      <trkpt lat="50.60204" lon="3.07911">
        <ele>-0.2</ele>
        <time>2018-06-26T15:17:09Z</time>
      </trkpt>
      <trkpt lat="50.60219" lon="3.07903">
        <ele>-0.2</ele>
        <time>2018-06-26T15:17:13Z</time>
      </trkpt>
      <trkpt lat="50.60233" lon="3.07894">
        <ele>40.7</ele>
        <time>2018-06-26T15:17:17Z</time>
      </trkpt>
      <trkpt lat="50.60248" lon="3.07886">
        <ele>0.2</ele>
        <time>2018-06-26T15:17:21Z</time>
      </trkpt>
      <trkpt lat="50.60265" lon="3.07877">
        <ele>0.2</ele>
        <time>2018-06-26T15:17:25Z</time>
      </trkpt>
      <trkpt lat="50.60282" lon="3.0787">
        <ele>-0.2</ele>
        <time>2018-06-26T15:17:29Z</time>
      </trkpt>
      <trkpt lat="50.603" lon="3.07866">
        <ele>-0.4</ele>
        <time>2018-06-26T15:17:33Z</time>
      </trkpt>
      <trkpt lat="50.60317" lon="3.07858">
        <ele>-0.4</ele>
        <time>2018-06-26T15:17:37Z</time>
      </trkpt>
      <trkpt lat="50.60333" lon="3.0785">
        <ele>-0.4</ele>
        <time>2018-06-26T15:17:41Z</time>
      </trkpt>
      <trkpt lat="50.60351" lon="3.07841">
        <ele>0.6</ele>
        <time>2018-06-26T15:17:45Z</time>
      </trkpt>
      <trkpt lat="50.60369" lon="3.07834">
        <ele>1.8</ele>
        <time>2018-06-26T15:17:49Z</time>
      </trkpt>
      <trkpt lat="50.60384" lon="3.07827">
        <ele>2.8</ele>
        <time>2018-06-26T15:17:53Z</time>
      </trkpt>
      <trkpt lat="50.60399" lon="3.07821">
        <ele>3.8</ele>
        <time>2018-06-26T15:17:57Z</time>
      </trkpt>
      <trkpt lat="50.60414" lon="3.07815">
        <ele>3.6</ele>
        <time>2018-06-26T15:18:01Z</time>
      </trkpt>
      <trkpt lat="50.60426" lon="3.07811">
        <ele>3.6</ele>
        <time>2018-06-26T15:18:05Z</time>
      </trkpt>
      <trkpt lat="50.60439" lon="3.07806">
        <ele>3.2</ele>
        <time>2018-06-26T15:18:09Z</time>
      </trkpt>
      <trkpt lat="50.60456" lon="3.07798">
        <ele>1.4</ele>
        <time>2018-06-26T15:18:13Z</time>
      </trkpt>
      <trkpt lat="50.60477" lon="3.07789">
        <ele>-0.6</ele>
        <time>2018-06-26T15:18:17Z</time>
      </trkpt>
      <trkpt lat="50.60497" lon="3.07781">
        <ele>-1.2</ele>
        <time>2018-06-26T15:18:21Z</time>
      </trkpt>
      <trkpt lat="50.60514" lon="3.07771">
        <ele>-2.6</ele>
        <time>2018-06-26T15:18:25Z</time>
      </trkpt>
      <trkpt lat="50.60527" lon="3.07765">
        <ele>-3</ele>
        <time>2018-06-26T15:18:29Z</time>
      </trkpt>
      <trkpt lat="50.60536" lon="3.07755">
        <ele>-2.2</ele>
        <time>2018-06-26T15:18:33Z</time>
      </trkpt>
      <trkpt lat="50.60547" lon="3.07749">
        <ele>-2.8</ele>
        <time>2018-06-26T15:18:37Z</time>
      </trkpt>
      <trkpt lat="50.60561" lon="3.07747">
        <ele>-2.8</ele>
        <time>2018-06-26T15:18:41Z</time>
      </trkpt>
      <trkpt lat="50.6058" lon="3.0774">
        <ele>-2.8</ele>
        <time>2018-06-26T15:18:45Z</time>
      </trkpt>
      <trkpt lat="50.60599" lon="3.0773">
        <ele>-2.8</ele>
        <time>2018-06-26T15:18:49Z</time>
      </trkpt>
      <trkpt lat="50.60616" lon="3.07721">
        <ele>-3</ele>
        <time>2018-06-26T15:18:53Z</time>
      </trkpt>
      <trkpt lat="50.60634" lon="3.0771">
        <ele>-3</ele>
        <time>2018-06-26T15:18:57Z</time>
      </trkpt>
      <trkpt lat="50.60651" lon="3.07699">
        <ele>-3.2</ele>
        <time>2018-06-26T15:19:01Z</time>
      </trkpt>
      <trkpt lat="50.6067" lon="3.07687">
        <ele>-3</ele>
        <time>2018-06-26T15:19:05Z</time>
      </trkpt>
      <trkpt lat="50.60688" lon="3.07675">
        <ele>-4</ele>
        <time>2018-06-26T15:19:09Z</time>
      </trkpt>
      <trkpt lat="50.60707" lon="3.07664">
        <ele>-4</ele>
        <time>2018-06-26T15:19:13Z</time>
      </trkpt>
      <trkpt lat="50.60724" lon="3.07653">
        <ele>-4.6</ele>
        <time>2018-06-26T15:19:17Z</time>
      </trkpt>
      <trkpt lat="50.60743" lon="3.07641">
        <ele>-4.4</ele>
        <time>2018-06-26T15:19:21Z</time>
      </trkpt>
      <trkpt lat="50.60761" lon="3.07629">
        <ele>-4.4</ele>
        <time>2018-06-26T15:19:25Z</time>
      </trkpt>
      <trkpt lat="50.60779" lon="3.07619">
        <ele>-4.8</ele>
        <time>2018-06-26T15:19:29Z</time>
      </trkpt>
      <trkpt lat="50.60795" lon="3.07603">
        <ele>-5</ele>
        <time>2018-06-26T15:19:33Z</time>
      </trkpt>
      <trkpt lat="50.60813" lon="3.0759">
        <ele>-5.2</ele>
        <time>2018-06-26T15:19:37Z</time>
      </trkpt>
      <trkpt lat="50.6083" lon="3.07579">
        <ele>-5.6</ele>
        <time>2018-06-26T15:19:41Z</time>
      </trkpt>
      <trkpt lat="50.60847" lon="3.0757">
        <ele>-6.2</ele>
        <time>2018-06-26T15:19:45Z</time>
      </trkpt>
      <trkpt lat="50.60867" lon="3.07559">
        <ele>-6.6</ele>
        <time>2018-06-26T15:19:49Z</time>
      </trkpt>
      <trkpt lat="50.60886" lon="3.07549">
        <ele>-6.4</ele>
        <time>2018-06-26T15:19:53Z</time>
      </trkpt>
      <trkpt lat="50.60906" lon="3.07543">
        <ele>-7</ele>
        <time>2018-06-26T15:19:57Z</time>
      </trkpt>
      <trkpt lat="50.60926" lon="3.07538">
        <ele>-7.6</ele>
        <time>2018-06-26T15:20:01Z</time>
      </trkpt>
      <trkpt lat="50.60946" lon="3.07535">
        <ele>-7.8</ele>
        <time>2018-06-26T15:20:05Z</time>
      </trkpt>
      <trkpt lat="50.60964" lon="3.07533">
        <ele>-7.6</ele>
        <time>2018-06-26T15:20:09Z</time>
      </trkpt>
      <trkpt lat="50.6098" lon="3.07523">
        <ele>-8.4</ele>
        <time>2018-06-26T15:20:13Z</time>
      </trkpt>
      <trkpt lat="50.60986" lon="3.07499">
        <ele>-8.4</ele>
        <time>2018-06-26T15:20:17Z</time>
      </trkpt>
      <trkpt lat="50.6099" lon="3.07476">
        <ele>-8.4</ele>
        <time>2018-06-26T15:20:21Z</time>
      </trkpt>
      <trkpt lat="50.61" lon="3.07449">
        <ele>-8.4</ele>
        <time>2018-06-26T15:20:25Z</time>
      </trkpt>
      <trkpt lat="50.61012" lon="3.07422">
        <ele>-9</ele>
        <time>2018-06-26T15:20:29Z</time>
      </trkpt>
      <trkpt lat="50.61024" lon="3.07395">
        <ele>-9.4</ele>
        <time>2018-06-26T15:20:33Z</time>
      </trkpt>
      <trkpt lat="50.61035" lon="3.07366">
        <ele>-9</ele>
        <time>2018-06-26T15:20:37Z</time>
      </trkpt>
      <trkpt lat="50.61045" lon="3.07341">
        <ele>-9.2</ele>
        <time>2018-06-26T15:20:41Z</time>
      </trkpt>
      <trkpt lat="50.61048" lon="3.07315">
        <ele>-9.4</ele>
        <time>2018-06-26T15:20:45Z</time>
      </trkpt>
      <trkpt lat="50.61061" lon="3.07321">
        <ele>-9.8</ele>
        <time>2018-06-26T15:20:49Z</time>
      </trkpt>
      <trkpt lat="50.61077" lon="3.07335">
        <ele>-9.8</ele>
        <time>2018-06-26T15:20:53Z</time>
      </trkpt>
      <trkpt lat="50.61091" lon="3.07349">
        <ele>-9.8</ele>
        <time>2018-06-26T15:20:57Z</time>
      </trkpt>
      <trkpt lat="50.61105" lon="3.0736">
        <ele>-9.8</ele>
        <time>2018-06-26T15:21:01Z</time>
      </trkpt>
      <trkpt lat="50.61115" lon="3.07371">
        <ele>-10</ele>
        <time>2018-06-26T15:21:05Z</time>
      </trkpt>
      <trkpt lat="50.61127" lon="3.07381">
        <ele>-10</ele>
        <time>2018-06-26T15:21:09Z</time>
      </trkpt>
      <trkpt lat="50.61135" lon="3.07391">
        <ele>-10.6</ele>
        <time>2018-06-26T15:21:13Z</time>
      </trkpt>
      <trkpt lat="50.61143" lon="3.07395">
        <ele>-10.6</ele>
        <time>2018-06-26T15:21:17Z</time>
      </trkpt>
      <trkpt lat="50.61143" lon="3.07395">
        <ele>-10.6</ele>
        <time>2018-06-26T15:21:21Z</time>
      </trkpt>
      <trkpt lat="50.61143" lon="3.07395">
        <ele>-10.6</ele>
        <time>2018-06-26T15:21:25Z</time>
      </trkpt>
      <trkpt lat="50.61146" lon="3.07396">
        <ele>-10.6</ele>
        <time>2018-06-26T15:21:29Z</time>
      </trkpt>
      <trkpt lat="50.61148" lon="3.07394">
        <ele>-10.6</ele>
        <time>2018-06-26T15:21:33Z</time>
      </trkpt>
      <trkpt lat="50.61151" lon="3.07391">
        <ele>-10.4</ele>
        <time>2018-06-26T15:21:37Z</time>
      </trkpt>
      <trkpt lat="50.61151" lon="3.07392">
        <ele>-10.6</ele>
        <time>2018-06-26T15:21:41Z</time>
      </trkpt>
      <trkpt lat="50.61159" lon="3.07388">
        <ele>-10.6</ele>
        <time>2018-06-26T15:21:56Z</time>
      </trkpt>
      <trkpt lat="50.61161" lon="3.07388">
        <ele>-10.8</ele>
        <time>2018-06-26T15:22:00Z</time>
      </trkpt>
      <trkpt lat="50.61161" lon="3.07383">
        <ele>-10.6</ele>
        <time>2018-06-26T15:22:04Z</time>
      </trkpt>
    </trkseg>
  </trk>
</gpx>